<?xml version='1.0' encoding='UTF-8'?><gpx version="1.1" creator="JPX - https://github.com/jenetics/jpx" xmlns="http://www.topografix.com/GPX/1/1"><trk><trkseg><trkpt lat="43.378815" lon="13.2527283"><ele>247.0</ele><time>2026-04-04T12:48:19.726Z</time></trkpt><trkpt lat="43.378725" lon="13.252715"><ele>247.0</ele><time>2026-04-04T12:48:22.729Z</time></trkpt><trkpt lat="43.3786517" lon="13.2527483"><ele>247.0</ele><time>2026-04-04T12:48:24.728Z</time></trkpt><trkpt lat="43.3786533" lon="13.2529633"><ele>247.0</ele><time>2026-04-04T12:48:26.733Z</time></trkpt><trkpt lat="43.378645" lon="13.2530833"><ele>247.0</ele><time>2026-04-04T12:48:27.727Z</time></trkpt><trkpt lat="43.3786233" lon="13.2532"><ele>247.0</ele><time>2026-04-04T12:48:28.724Z</time></trkpt><trkpt lat="43.37859" lon="13.2533133"><ele>247.0</ele><time>2026-04-04T12:48:29.727Z</time></trkpt><trkpt lat="43.3785333" lon="13.2534283"><ele>247.0</ele><time>2026-04-04T12:48:30.726Z</time></trkpt><trkpt lat="43.3784633" lon="13.25354"><ele>247.0</ele><time>2026-04-04T12:48:31.729Z</time></trkpt><trkpt lat="43.3783917" lon="13.2536567"><ele>247.0</ele><time>2026-04-04T12:48:32.744Z</time></trkpt><trkpt lat="43.3783183" lon="13.2537733"><ele>247.0</ele><time>2026-04-04T12:48:33.728Z</time></trkpt><trkpt lat="43.3782467" lon="13.2538817"><ele>247.0</ele><time>2026-04-04T12:48:34.726Z</time></trkpt><trkpt lat="43.3781867" lon="13.2539833"><ele>247.0</ele><time>2026-04-04T12:48:35.732Z</time></trkpt><trkpt lat="43.3781417" lon="13.2540833"><ele>247.0</ele><time>2026-04-04T12:48:36.729Z</time></trkpt><trkpt lat="43.3781183" lon="13.254175"><ele>247.0</ele><time>2026-04-04T12:48:37.73Z</time></trkpt><trkpt lat="43.378125" lon="13.254325"><ele>246.39999999999998</ele><time>2026-04-04T12:48:39.728Z</time></trkpt><trkpt lat="43.3781733" lon="13.2543883"><ele>245.79999999999998</ele><time>2026-04-04T12:48:40.723Z</time></trkpt><trkpt lat="43.37825" lon="13.2544267"><ele>245.2</ele><time>2026-04-04T12:48:41.726Z</time></trkpt><trkpt lat="43.378335" lon="13.2544717"><ele>244.6</ele><time>2026-04-04T12:48:43.725Z</time></trkpt><trkpt lat="43.378425" lon="13.2543933"><ele>244.0</ele><time>2026-04-04T12:48:50.729Z</time></trkpt><trkpt lat="43.3785167" lon="13.254245"><ele>244.0</ele><time>2026-04-04T12:48:51.724Z</time></trkpt><trkpt lat="43.37863" lon="13.25408"><ele>244.0</ele><time>2026-04-04T12:48:52.727Z</time></trkpt><trkpt lat="43.3787367" lon="13.25391"><ele>244.0</ele><time>2026-04-04T12:48:53.721Z</time></trkpt><trkpt lat="43.37885" lon="13.2537267"><ele>242.33333333333331</ele><time>2026-04-04T12:48:54.73Z</time></trkpt><trkpt lat="43.3789467" lon="13.2535267"><ele>240.66666666666669</ele><time>2026-04-04T12:48:55.733Z</time></trkpt><trkpt lat="43.3790167" lon="13.253305"><ele>239.0</ele><time>2026-04-04T12:48:56.73Z</time></trkpt><trkpt lat="43.379065" lon="13.2530717"><ele>237.66666666666669</ele><time>2026-04-04T12:48:57.729Z</time></trkpt><trkpt lat="43.379095" lon="13.2528183"><ele>236.33333333333331</ele><time>2026-04-04T12:48:58.73Z</time></trkpt><trkpt lat="43.379115" lon="13.252535"><ele>235.0</ele><time>2026-04-04T12:48:59.727Z</time></trkpt><trkpt lat="43.3791333" lon="13.2522367"><ele>233.5</ele><time>2026-04-04T12:49:00.731Z</time></trkpt><trkpt lat="43.3791567" lon="13.2519283"><ele>232.0</ele><time>2026-04-04T12:49:01.728Z</time></trkpt><trkpt lat="43.3791867" lon="13.2516117"><ele>231.5</ele><time>2026-04-04T12:49:02.728Z</time></trkpt><trkpt lat="43.379225" lon="13.2512917"><ele>231.0</ele><time>2026-04-04T12:49:03.729Z</time></trkpt><trkpt lat="43.37928" lon="13.250975"><ele>231.0</ele><time>2026-04-04T12:49:04.732Z</time></trkpt><trkpt lat="43.3793433" lon="13.2506783"><ele>231.0</ele><time>2026-04-04T12:49:05.732Z</time></trkpt><trkpt lat="43.3794083" lon="13.2504033"><ele>231.0</ele><time>2026-04-04T12:49:06.728Z</time></trkpt><trkpt lat="43.3794583" lon="13.2501433"><ele>233.33333333333331</ele><time>2026-04-04T12:49:07.727Z</time></trkpt><trkpt lat="43.3794817" lon="13.2498833"><ele>235.66666666666666</ele><time>2026-04-04T12:49:08.744Z</time></trkpt><trkpt lat="43.3794683" lon="13.249625"><ele>238.0</ele><time>2026-04-04T12:49:09.73Z</time></trkpt><trkpt lat="43.37941" lon="13.2493667"><ele>238.33333333333331</ele><time>2026-04-04T12:49:10.731Z</time></trkpt><trkpt lat="43.3793333" lon="13.2491167"><ele>238.66666666666669</ele><time>2026-04-04T12:49:11.729Z</time></trkpt><trkpt lat="43.379265" lon="13.2488867"><ele>239.0</ele><time>2026-04-04T12:49:12.73Z</time></trkpt><trkpt lat="43.3792283" lon="13.248665"><ele>239.25</ele><time>2026-04-04T12:49:13.729Z</time></trkpt><trkpt lat="43.379225" lon="13.2484617"><ele>239.5</ele><time>2026-04-04T12:49:14.722Z</time></trkpt><trkpt lat="43.3792533" lon="13.2482917"><ele>239.75</ele><time>2026-04-04T12:49:15.728Z</time></trkpt><trkpt lat="43.37932" lon="13.2481333"><ele>240.0</ele><time>2026-04-04T12:49:16.731Z</time></trkpt><trkpt lat="43.3793983" lon="13.2479567"><ele>240.33333333333331</ele><time>2026-04-04T12:49:17.732Z</time></trkpt><trkpt lat="43.3794683" lon="13.2477483"><ele>240.66666666666666</ele><time>2026-04-04T12:49:18.726Z</time></trkpt><trkpt lat="43.3795267" lon="13.2475017"><ele>241.0</ele><time>2026-04-04T12:49:19.729Z</time></trkpt><trkpt lat="43.3795733" lon="13.247245"><ele>242.33333333333331</ele><time>2026-04-04T12:49:20.734Z</time></trkpt><trkpt lat="43.37961" lon="13.246995"><ele>243.66666666666669</ele><time>2026-04-04T12:49:21.732Z</time></trkpt><trkpt lat="43.3796217" lon="13.24676"><ele>245.0</ele><time>2026-04-04T12:49:22.733Z</time></trkpt><trkpt lat="43.3796033" lon="13.246545"><ele>246.66666666666669</ele><time>2026-04-04T12:49:23.734Z</time></trkpt><trkpt lat="43.3795417" lon="13.246335"><ele>248.33333333333331</ele><time>2026-04-04T12:49:24.729Z</time></trkpt><trkpt lat="43.3794583" lon="13.246145"><ele>250.0</ele><time>2026-04-04T12:49:25.738Z</time></trkpt><trkpt lat="43.3793917" lon="13.2459583"><ele>250.0</ele><time>2026-04-04T12:49:26.744Z</time></trkpt><trkpt lat="43.3793517" lon="13.24578"><ele>250.0</ele><time>2026-04-04T12:49:27.73Z</time></trkpt><trkpt lat="43.379345" lon="13.245615"><ele>250.0</ele><time>2026-04-04T12:49:28.728Z</time></trkpt><trkpt lat="43.379395" lon="13.24547"><ele>250.0</ele><time>2026-04-04T12:49:29.729Z</time></trkpt><trkpt lat="43.3794933" lon="13.245365"><ele>249.66666666666666</ele><time>2026-04-04T12:49:30.731Z</time></trkpt><trkpt lat="43.3796417" lon="13.24532"><ele>249.33333333333331</ele><time>2026-04-04T12:49:31.729Z</time></trkpt><trkpt lat="43.3798217" lon="13.2453517"><ele>249.0</ele><time>2026-04-04T12:49:32.73Z</time></trkpt><trkpt lat="43.38" lon="13.2454233"><ele>252.33333333333331</ele><time>2026-04-04T12:49:33.726Z</time></trkpt><trkpt lat="43.38018" lon="13.24553"><ele>255.66666666666666</ele><time>2026-04-04T12:49:34.732Z</time></trkpt><trkpt lat="43.38035" lon="13.2456467"><ele>259.0</ele><time>2026-04-04T12:49:35.728Z</time></trkpt><trkpt lat="43.3805183" lon="13.245765"><ele>262.3333333333333</ele><time>2026-04-04T12:49:36.728Z</time></trkpt><trkpt lat="43.38067" lon="13.24587"><ele>265.6666666666667</ele><time>2026-04-04T12:49:37.731Z</time></trkpt><trkpt lat="43.3808033" lon="13.2459683"><ele>269.0</ele><time>2026-04-04T12:49:38.728Z</time></trkpt><trkpt lat="43.3809267" lon="13.2460533"><ele>269.0</ele><time>2026-04-04T12:49:39.728Z</time></trkpt><trkpt lat="43.381045" lon="13.2461067"><ele>269.0</ele><time>2026-04-04T12:49:40.728Z</time></trkpt><trkpt lat="43.3811417" lon="13.2461133"><ele>269.0</ele><time>2026-04-04T12:49:41.728Z</time></trkpt><trkpt lat="43.3812183" lon="13.2460767"><ele>269.0</ele><time>2026-04-04T12:49:42.73Z</time></trkpt><trkpt lat="43.3812767" lon="13.24601"><ele>269.0</ele><time>2026-04-04T12:49:43.729Z</time></trkpt><trkpt lat="43.3813083" lon="13.2459183"><ele>269.0</ele><time>2026-04-04T12:49:44.746Z</time></trkpt><trkpt lat="43.38127" lon="13.24577"><ele>269.0</ele><time>2026-04-04T12:49:45.732Z</time></trkpt><trkpt lat="43.3812033" lon="13.245625"><ele>269.0</ele><time>2026-04-04T12:49:46.725Z</time></trkpt><trkpt lat="43.38112" lon="13.2454633"><ele>269.0</ele><time>2026-04-04T12:49:47.728Z</time></trkpt><trkpt lat="43.3810283" lon="13.2452833"><ele>271.33333333333337</ele><time>2026-04-04T12:49:48.732Z</time></trkpt><trkpt lat="43.3809317" lon="13.2450833"><ele>273.6666666666667</ele><time>2026-04-04T12:49:49.729Z</time></trkpt><trkpt lat="43.380825" lon="13.2448733"><ele>276.0</ele><time>2026-04-04T12:49:50.733Z</time></trkpt><trkpt lat="43.3807233" lon="13.2446583"><ele>277.3333333333333</ele><time>2026-04-04T12:49:51.729Z</time></trkpt><trkpt lat="43.380615" lon="13.2444317"><ele>278.66666666666663</ele><time>2026-04-04T12:49:52.729Z</time></trkpt><trkpt lat="43.3805167" lon="13.2441883"><ele>280.0</ele><time>2026-04-04T12:49:53.73Z</time></trkpt><trkpt lat="43.3804367" lon="13.2439333"><ele>280.0</ele><time>2026-04-04T12:49:54.73Z</time></trkpt><trkpt lat="43.380375" lon="13.2436467"><ele>280.0</ele><time>2026-04-04T12:49:55.728Z</time></trkpt><trkpt lat="43.3803183" lon="13.2433583"><ele>280.0</ele><time>2026-04-04T12:49:56.731Z</time></trkpt><trkpt lat="43.38027" lon="13.2430733"><ele>283.66666666666663</ele><time>2026-04-04T12:49:57.728Z</time></trkpt><trkpt lat="43.3802283" lon="13.2427983"><ele>287.3333333333333</ele><time>2026-04-04T12:49:58.728Z</time></trkpt><trkpt lat="43.3801967" lon="13.24254"><ele>291.0</ele><time>2026-04-04T12:49:59.733Z</time></trkpt><trkpt lat="43.3801567" lon="13.2423133"><ele>293.0</ele><time>2026-04-04T12:50:00.727Z</time></trkpt><trkpt lat="43.3800983" lon="13.24211"><ele>295.0</ele><time>2026-04-04T12:50:01.732Z</time></trkpt><trkpt lat="43.38002" lon="13.241935"><ele>297.0</ele><time>2026-04-04T12:50:02.747Z</time></trkpt><trkpt lat="43.379915" lon="13.2417617"><ele>297.0</ele><time>2026-04-04T12:50:03.729Z</time></trkpt><trkpt lat="43.3797983" lon="13.2415717"><ele>297.0</ele><time>2026-04-04T12:50:04.729Z</time></trkpt><trkpt lat="43.379675" lon="13.2413733"><ele>297.0</ele><time>2026-04-04T12:50:05.727Z</time></trkpt><trkpt lat="43.379545" lon="13.2411667"><ele>299.3333333333333</ele><time>2026-04-04T12:50:06.726Z</time></trkpt><trkpt lat="43.3794167" lon="13.2409683"><ele>301.66666666666663</ele><time>2026-04-04T12:50:07.731Z</time></trkpt><trkpt lat="43.3793017" lon="13.2407783"><ele>304.0</ele><time>2026-04-04T12:50:08.73Z</time></trkpt><trkpt lat="43.379205" lon="13.2406"><ele>305.5</ele><time>2026-04-04T12:50:09.729Z</time></trkpt><trkpt lat="43.379135" lon="13.2404233"><ele>307.0</ele><time>2026-04-04T12:50:10.729Z</time></trkpt><trkpt lat="43.3790883" lon="13.2402483"><ele>308.5</ele><time>2026-04-04T12:50:11.73Z</time></trkpt><trkpt lat="43.3790667" lon="13.240055"><ele>310.0</ele><time>2026-04-04T12:50:12.728Z</time></trkpt><trkpt lat="43.3790583" lon="13.239835"><ele>312.0</ele><time>2026-04-04T12:50:13.731Z</time></trkpt><trkpt lat="43.3790517" lon="13.23959"><ele>314.0</ele><time>2026-04-04T12:50:14.736Z</time></trkpt><trkpt lat="43.37903" lon="13.239325"><ele>316.0</ele><time>2026-04-04T12:50:15.727Z</time></trkpt><trkpt lat="43.3789983" lon="13.239055"><ele>317.0</ele><time>2026-04-04T12:50:16.73Z</time></trkpt><trkpt lat="43.3789617" lon="13.2387833"><ele>318.0</ele><time>2026-04-04T12:50:17.731Z</time></trkpt><trkpt lat="43.3789317" lon="13.2385017"><ele>319.0</ele><time>2026-04-04T12:50:18.728Z</time></trkpt><trkpt lat="43.3789133" lon="13.238215"><ele>320.66666666666663</ele><time>2026-04-04T12:50:19.73Z</time></trkpt><trkpt lat="43.3789067" lon="13.2379367"><ele>322.3333333333333</ele><time>2026-04-04T12:50:20.752Z</time></trkpt><trkpt lat="43.37891" lon="13.2376567"><ele>324.0</ele><time>2026-04-04T12:50:21.729Z</time></trkpt><trkpt lat="43.3789167" lon="13.2373783"><ele>326.6666666666667</ele><time>2026-04-04T12:50:22.729Z</time></trkpt><trkpt lat="43.37893" lon="13.237105"><ele>329.33333333333337</ele><time>2026-04-04T12:50:23.723Z</time></trkpt><trkpt lat="43.378945" lon="13.2368283"><ele>332.0</ele><time>2026-04-04T12:50:24.73Z</time></trkpt><trkpt lat="43.3789633" lon="13.2365483"><ele>333.6666666666667</ele><time>2026-04-04T12:50:25.728Z</time></trkpt><trkpt lat="43.37897" lon="13.2362683"><ele>335.3333333333333</ele><time>2026-04-04T12:50:26.729Z</time></trkpt><trkpt lat="43.37898" lon="13.2359867"><ele>337.0</ele><time>2026-04-04T12:50:27.726Z</time></trkpt><trkpt lat="43.379" lon="13.235715"><ele>339.0</ele><time>2026-04-04T12:50:28.728Z</time></trkpt><trkpt lat="43.37904" lon="13.23545"><ele>341.0</ele><time>2026-04-04T12:50:29.729Z</time></trkpt><trkpt lat="43.3791317" lon="13.2352083"><ele>343.0</ele><time>2026-04-04T12:50:30.731Z</time></trkpt><trkpt lat="43.379245" lon="13.23498"><ele>345.0</ele><time>2026-04-04T12:50:31.73Z</time></trkpt><trkpt lat="43.3793583" lon="13.2347583"><ele>347.0</ele><time>2026-04-04T12:50:32.729Z</time></trkpt><trkpt lat="43.3794783" lon="13.2345317"><ele>349.0</ele><time>2026-04-04T12:50:33.728Z</time></trkpt><trkpt lat="43.3796067" lon="13.2343067"><ele>348.3333333333333</ele><time>2026-04-04T12:50:34.732Z</time></trkpt><trkpt lat="43.3797217" lon="13.2340783"><ele>347.6666666666667</ele><time>2026-04-04T12:50:35.729Z</time></trkpt><trkpt lat="43.3798083" lon="13.2338467"><ele>347.0</ele><time>2026-04-04T12:50:36.727Z</time></trkpt><trkpt lat="43.379855" lon="13.2336"><ele>347.0</ele><time>2026-04-04T12:50:37.73Z</time></trkpt><trkpt lat="43.379865" lon="13.2333333"><ele>347.0</ele><time>2026-04-04T12:50:38.742Z</time></trkpt><trkpt lat="43.3798367" lon="13.2330533"><ele>347.0</ele><time>2026-04-04T12:50:39.732Z</time></trkpt><trkpt lat="43.3797967" lon="13.2327717"><ele>349.0</ele><time>2026-04-04T12:50:40.728Z</time></trkpt><trkpt lat="43.3797633" lon="13.2325"><ele>351.0</ele><time>2026-04-04T12:50:41.726Z</time></trkpt><trkpt lat="43.3797533" lon="13.23224"><ele>353.0</ele><time>2026-04-04T12:50:42.726Z</time></trkpt><trkpt lat="43.3797783" lon="13.2319933"><ele>355.6666666666667</ele><time>2026-04-04T12:50:43.732Z</time></trkpt><trkpt lat="43.3798417" lon="13.2317633"><ele>358.3333333333333</ele><time>2026-04-04T12:50:44.733Z</time></trkpt><trkpt lat="43.3799483" lon="13.2315667"><ele>361.0</ele><time>2026-04-04T12:50:45.727Z</time></trkpt><trkpt lat="43.3800767" lon="13.2314017"><ele>363.75</ele><time>2026-04-04T12:50:46.729Z</time></trkpt><trkpt lat="43.38021" lon="13.2312667"><ele>366.5</ele><time>2026-04-04T12:50:47.725Z</time></trkpt><trkpt lat="43.380325" lon="13.2311417"><ele>369.25</ele><time>2026-04-04T12:50:48.728Z</time></trkpt><trkpt lat="43.38041" lon="13.2310083"><ele>372.0</ele><time>2026-04-04T12:50:49.735Z</time></trkpt><trkpt lat="43.38046" lon="13.2308533"><ele>372.0</ele><time>2026-04-04T12:50:50.735Z</time></trkpt><trkpt lat="43.3804617" lon="13.2306783"><ele>372.0</ele><time>2026-04-04T12:50:51.726Z</time></trkpt><trkpt lat="43.38042" lon="13.2304717"><ele>372.0</ele><time>2026-04-04T12:50:52.727Z</time></trkpt><trkpt lat="43.3803517" lon="13.2302583"><ele>373.6666666666667</ele><time>2026-04-04T12:50:53.727Z</time></trkpt><trkpt lat="43.38028" lon="13.2300317"><ele>375.33333333333337</ele><time>2026-04-04T12:50:54.728Z</time></trkpt><trkpt lat="43.3802333" lon="13.229805"><ele>377.0</ele><time>2026-04-04T12:50:55.731Z</time></trkpt><trkpt lat="43.3802083" lon="13.229585"><ele>380.0</ele><time>2026-04-04T12:50:56.738Z</time></trkpt><trkpt lat="43.3802067" lon="13.22937"><ele>383.0</ele><time>2026-04-04T12:50:57.727Z</time></trkpt><trkpt lat="43.3802267" lon="13.2291617"><ele>386.0</ele><time>2026-04-04T12:50:58.733Z</time></trkpt><trkpt lat="43.380295" lon="13.2289767"><ele>384.5</ele><time>2026-04-04T12:50:59.735Z</time></trkpt><trkpt lat="43.3803933" lon="13.2288217"><ele>383.0</ele><time>2026-04-04T12:51:00.729Z</time></trkpt><trkpt lat="43.3804817" lon="13.2286883"><ele>381.5</ele><time>2026-04-04T12:51:01.732Z</time></trkpt><trkpt lat="43.38055" lon="13.22856"><ele>380.0</ele><time>2026-04-04T12:51:02.73Z</time></trkpt><trkpt lat="43.38058" lon="13.2284217"><ele>380.0</ele><time>2026-04-04T12:51:03.729Z</time></trkpt><trkpt lat="43.3805783" lon="13.22828"><ele>380.0</ele><time>2026-04-04T12:51:04.726Z</time></trkpt><trkpt lat="43.3805367" lon="13.228155"><ele>380.0</ele><time>2026-04-04T12:51:05.732Z</time></trkpt><trkpt lat="43.3804567" lon="13.22807"><ele>380.0</ele><time>2026-04-04T12:51:06.725Z</time></trkpt><trkpt lat="43.38035" lon="13.2280367"><ele>380.0</ele><time>2026-04-04T12:51:07.733Z</time></trkpt><trkpt lat="43.3802167" lon="13.22807"><ele>384.33333333333337</ele><time>2026-04-04T12:51:08.727Z</time></trkpt><trkpt lat="43.3800783" lon="13.2281667"><ele>388.6666666666667</ele><time>2026-04-04T12:51:09.729Z</time></trkpt><trkpt lat="43.3799433" lon="13.2283167"><ele>393.0</ele><time>2026-04-04T12:51:10.731Z</time></trkpt><trkpt lat="43.3798283" lon="13.2285117"><ele>393.0</ele><time>2026-04-04T12:51:11.731Z</time></trkpt><trkpt lat="43.3797467" lon="13.2287233"><ele>393.0</ele><time>2026-04-04T12:51:12.729Z</time></trkpt><trkpt lat="43.3796817" lon="13.2289283"><ele>393.0</ele><time>2026-04-04T12:51:13.73Z</time></trkpt><trkpt lat="43.3796117" lon="13.22911"><ele>395.75</ele><time>2026-04-04T12:51:14.728Z</time></trkpt><trkpt lat="43.3795233" lon="13.2292433"><ele>398.5</ele><time>2026-04-04T12:51:15.729Z</time></trkpt><trkpt lat="43.3794233" lon="13.2293383"><ele>401.25</ele><time>2026-04-04T12:51:16.729Z</time></trkpt><trkpt lat="43.3793" lon="13.22939"><ele>404.0</ele><time>2026-04-04T12:51:17.729Z</time></trkpt><trkpt lat="43.37916" lon="13.22939"><ele>404.0</ele><time>2026-04-04T12:51:18.727Z</time></trkpt><trkpt lat="43.3790067" lon="13.2293483"><ele>404.0</ele><time>2026-04-04T12:51:19.727Z</time></trkpt><trkpt lat="43.37885" lon="13.22929"><ele>404.0</ele><time>2026-04-04T12:51:20.732Z</time></trkpt><trkpt lat="43.378695" lon="13.22923"><ele>406.3333333333333</ele><time>2026-04-04T12:51:21.73Z</time></trkpt><trkpt lat="43.3785367" lon="13.2291867"><ele>408.66666666666663</ele><time>2026-04-04T12:51:22.729Z</time></trkpt><trkpt lat="43.37838" lon="13.2291817"><ele>411.0</ele><time>2026-04-04T12:51:23.727Z</time></trkpt><trkpt lat="43.3782283" lon="13.2292217"><ele>411.0</ele><time>2026-04-04T12:51:24.729Z</time></trkpt><trkpt lat="43.3780817" lon="13.22929"><ele>411.0</ele><time>2026-04-04T12:51:25.733Z</time></trkpt><trkpt lat="43.3779367" lon="13.2293933"><ele>411.0</ele><time>2026-04-04T12:51:26.732Z</time></trkpt><trkpt lat="43.37781" lon="13.22952"><ele>411.75</ele><time>2026-04-04T12:51:27.741Z</time></trkpt><trkpt lat="43.377705" lon="13.2296717"><ele>412.5</ele><time>2026-04-04T12:51:28.737Z</time></trkpt><trkpt lat="43.37761" lon="13.22981"><ele>413.25</ele><time>2026-04-04T12:51:29.728Z</time></trkpt><trkpt lat="43.377515" lon="13.2299267"><ele>414.0</ele><time>2026-04-04T12:51:30.735Z</time></trkpt><trkpt lat="43.377405" lon="13.2300033"><ele>414.0</ele><time>2026-04-04T12:51:31.733Z</time></trkpt><trkpt lat="43.377285" lon="13.2300217"><ele>414.0</ele><time>2026-04-04T12:51:32.754Z</time></trkpt><trkpt lat="43.377165" lon="13.22997"><ele>414.0</ele><time>2026-04-04T12:51:33.732Z</time></trkpt><trkpt lat="43.3770683" lon="13.22986"><ele>414.0</ele><time>2026-04-04T12:51:34.729Z</time></trkpt><trkpt lat="43.3769967" lon="13.2297"><ele>417.25</ele><time>2026-04-04T12:51:35.734Z</time></trkpt><trkpt lat="43.37693" lon="13.229515"><ele>420.5</ele><time>2026-04-04T12:51:36.731Z</time></trkpt><trkpt lat="43.3768433" lon="13.2293683"><ele>423.75</ele><time>2026-04-04T12:51:37.732Z</time></trkpt><trkpt lat="43.376735" lon="13.229275"><ele>427.0</ele><time>2026-04-04T12:51:38.735Z</time></trkpt><trkpt lat="43.376605" lon="13.2292467"><ele>427.0</ele><time>2026-04-04T12:51:39.729Z</time></trkpt><trkpt lat="43.37644" lon="13.2292683"><ele>427.0</ele><time>2026-04-04T12:51:40.73Z</time></trkpt><trkpt lat="43.3762683" lon="13.2292933"><ele>427.0</ele><time>2026-04-04T12:51:41.733Z</time></trkpt><trkpt lat="43.3760917" lon="13.2293"><ele>429.6666666666667</ele><time>2026-04-04T12:51:42.731Z</time></trkpt><trkpt lat="43.3759167" lon="13.2292983"><ele>432.33333333333337</ele><time>2026-04-04T12:51:43.73Z</time></trkpt><trkpt lat="43.37574" lon="13.2293"><ele>435.0</ele><time>2026-04-04T12:51:44.734Z</time></trkpt><trkpt lat="43.37557" lon="13.2293"><ele>435.25</ele><time>2026-04-04T12:51:45.734Z</time></trkpt><trkpt lat="43.375425" lon="13.2292667"><ele>435.5</ele><time>2026-04-04T12:51:46.729Z</time></trkpt><trkpt lat="43.3753017" lon="13.2291783"><ele>435.75</ele><time>2026-04-04T12:51:47.73Z</time></trkpt><trkpt lat="43.3752283" lon="13.22904"><ele>436.0</ele><time>2026-04-04T12:51:48.732Z</time></trkpt><trkpt lat="43.3751983" lon="13.2288733"><ele>438.0</ele><time>2026-04-04T12:51:49.732Z</time></trkpt><trkpt lat="43.3752083" lon="13.2286783"><ele>440.0</ele><time>2026-04-04T12:51:50.752Z</time></trkpt><trkpt lat="43.375265" lon="13.2284583"><ele>442.0</ele><time>2026-04-04T12:51:51.729Z</time></trkpt><trkpt lat="43.3753533" lon="13.228235"><ele>443.6666666666667</ele><time>2026-04-04T12:51:52.732Z</time></trkpt><trkpt lat="43.3754667" lon="13.2280233"><ele>445.33333333333337</ele><time>2026-04-04T12:51:53.735Z</time></trkpt><trkpt lat="43.3756017" lon="13.2278317"><ele>447.0</ele><time>2026-04-04T12:51:54.731Z</time></trkpt><trkpt lat="43.375755" lon="13.22765"><ele>447.0</ele><time>2026-04-04T12:51:55.73Z</time></trkpt><trkpt lat="43.3759183" lon="13.2274733"><ele>447.0</ele><time>2026-04-04T12:51:56.726Z</time></trkpt><trkpt lat="43.3760917" lon="13.2272917"><ele>447.0</ele><time>2026-04-04T12:51:57.727Z</time></trkpt><trkpt lat="43.3762667" lon="13.2271167"><ele>449.66666666666663</ele><time>2026-04-04T12:51:58.731Z</time></trkpt><trkpt lat="43.376445" lon="13.2269467"><ele>452.3333333333333</ele><time>2026-04-04T12:51:59.727Z</time></trkpt><trkpt lat="43.3766267" lon="13.226765"><ele>455.0</ele><time>2026-04-04T12:52:00.73Z</time></trkpt><trkpt lat="43.3768067" lon="13.2265817"><ele>459.0</ele><time>2026-04-04T12:52:01.733Z</time></trkpt><trkpt lat="43.3769883" lon="13.2264017"><ele>463.0</ele><time>2026-04-04T12:52:02.734Z</time></trkpt><trkpt lat="43.3771767" lon="13.2262217"><ele>463.33333333333337</ele><time>2026-04-04T12:52:03.73Z</time></trkpt><trkpt lat="43.3773567" lon="13.2260517"><ele>463.66666666666663</ele><time>2026-04-04T12:52:04.736Z</time></trkpt><trkpt lat="43.377525" lon="13.2259"><ele>464.0</ele><time>2026-04-04T12:52:05.733Z</time></trkpt><trkpt lat="43.3776717" lon="13.2257517"><ele>465.25</ele><time>2026-04-04T12:52:06.73Z</time></trkpt><trkpt lat="43.37778" lon="13.2255917"><ele>466.5</ele><time>2026-04-04T12:52:07.732Z</time></trkpt><trkpt lat="43.3778333" lon="13.2254217"><ele>467.75</ele><time>2026-04-04T12:52:08.74Z</time></trkpt><trkpt lat="43.3778433" lon="13.2252317"><ele>469.0</ele><time>2026-04-04T12:52:09.737Z</time></trkpt><trkpt lat="43.3778133" lon="13.2250217"><ele>469.6666666666667</ele><time>2026-04-04T12:52:10.726Z</time></trkpt><trkpt lat="43.3777383" lon="13.2248033"><ele>470.33333333333337</ele><time>2026-04-04T12:52:11.733Z</time></trkpt><trkpt lat="43.377625" lon="13.2245867"><ele>471.0</ele><time>2026-04-04T12:52:12.73Z</time></trkpt><trkpt lat="43.3774933" lon="13.2243867"><ele>471.0</ele><time>2026-04-04T12:52:13.732Z</time></trkpt><trkpt lat="43.3773433" lon="13.2242017"><ele>471.0</ele><time>2026-04-04T12:52:14.729Z</time></trkpt><trkpt lat="43.3771767" lon="13.2240317"><ele>471.0</ele><time>2026-04-04T12:52:15.733Z</time></trkpt><trkpt lat="43.37699" lon="13.2238817"><ele>475.66666666666663</ele><time>2026-04-04T12:52:16.73Z</time></trkpt><trkpt lat="43.37679" lon="13.2237583"><ele>480.3333333333333</ele><time>2026-04-04T12:52:17.729Z</time></trkpt><trkpt lat="43.3765783" lon="13.223655"><ele>485.0</ele><time>2026-04-04T12:52:18.728Z</time></trkpt><trkpt lat="43.3763633" lon="13.2235483"><ele>484.0</ele><time>2026-04-04T12:52:19.732Z</time></trkpt><trkpt lat="43.3761383" lon="13.223435"><ele>483.0</ele><time>2026-04-04T12:52:20.742Z</time></trkpt><trkpt lat="43.3759183" lon="13.2233167"><ele>483.0</ele><time>2026-04-04T12:52:21.73Z</time></trkpt><trkpt lat="43.3757083" lon="13.2231933"><ele>483.0</ele><time>2026-04-04T12:52:22.73Z</time></trkpt><trkpt lat="43.3755067" lon="13.2230567"><ele>489.0</ele><time>2026-04-04T12:52:23.731Z</time></trkpt><trkpt lat="43.3753233" lon="13.222935"><ele>495.0</ele><time>2026-04-04T12:52:24.73Z</time></trkpt><trkpt lat="43.3751367" lon="13.222855"><ele>501.0</ele><time>2026-04-04T12:52:25.733Z</time></trkpt><trkpt lat="43.3749317" lon="13.2228233"><ele>501.0</ele><time>2026-04-04T12:52:26.759Z</time></trkpt><trkpt lat="43.374715" lon="13.2228317"><ele>501.0</ele><time>2026-04-04T12:52:27.732Z</time></trkpt><trkpt lat="43.37449" lon="13.2228667"><ele>501.0</ele><time>2026-04-04T12:52:28.73Z</time></trkpt><trkpt lat="43.3742783" lon="13.2228983"><ele>502.33333333333337</ele><time>2026-04-04T12:52:29.733Z</time></trkpt><trkpt lat="43.3740817" lon="13.22293"><ele>503.6666666666667</ele><time>2026-04-04T12:52:30.727Z</time></trkpt><trkpt lat="43.3739" lon="13.22297"><ele>505.0</ele><time>2026-04-04T12:52:31.735Z</time></trkpt><trkpt lat="43.37374" lon="13.2229917"><ele>506.0</ele><time>2026-04-04T12:52:32.734Z</time></trkpt><trkpt lat="43.373605" lon="13.222975"><ele>507.0</ele><time>2026-04-04T12:52:33.73Z</time></trkpt><trkpt lat="43.3735183" lon="13.2229033"><ele>508.0</ele><time>2026-04-04T12:52:34.731Z</time></trkpt><trkpt lat="43.3734717" lon="13.2227983"><ele>509.0</ele><time>2026-04-04T12:52:35.733Z</time></trkpt><trkpt lat="43.3735017" lon="13.2226617"><ele>510.0</ele><time>2026-04-04T12:52:36.732Z</time></trkpt><trkpt lat="43.3735833" lon="13.2225317"><ele>510.0</ele><time>2026-04-04T12:52:37.732Z</time></trkpt><trkpt lat="43.3737133" lon="13.2224217"><ele>510.0</ele><time>2026-04-04T12:52:38.729Z</time></trkpt><trkpt lat="43.3738583" lon="13.2223067"><ele>510.0</ele><time>2026-04-04T12:52:39.735Z</time></trkpt><trkpt lat="43.3740183" lon="13.2221883"><ele>514.0</ele><time>2026-04-04T12:52:40.728Z</time></trkpt><trkpt lat="43.374185" lon="13.2220617"><ele>518.0</ele><time>2026-04-04T12:52:41.729Z</time></trkpt><trkpt lat="43.3743617" lon="13.22194"><ele>522.0</ele><time>2026-04-04T12:52:42.73Z</time></trkpt><trkpt lat="43.3745517" lon="13.221845"><ele>524.3333333333334</ele><time>2026-04-04T12:52:43.73Z</time></trkpt><trkpt lat="43.3747667" lon="13.2217883"><ele>526.6666666666667</ele><time>2026-04-04T12:52:44.748Z</time></trkpt><trkpt lat="43.3749833" lon="13.2217983"><ele>529.0</ele><time>2026-04-04T12:52:45.732Z</time></trkpt><trkpt lat="43.375195" lon="13.221845"><ele>529.0</ele><time>2026-04-04T12:52:46.729Z</time></trkpt><trkpt lat="43.375395" lon="13.2218967"><ele>529.0</ele><time>2026-04-04T12:52:47.73Z</time></trkpt><trkpt lat="43.3755783" lon="13.22193"><ele>529.0</ele><time>2026-04-04T12:52:48.73Z</time></trkpt><trkpt lat="43.3757467" lon="13.2219167"><ele>529.6666666666667</ele><time>2026-04-04T12:52:49.731Z</time></trkpt><trkpt lat="43.3759117" lon="13.2218617"><ele>530.3333333333334</ele><time>2026-04-04T12:52:50.73Z</time></trkpt><trkpt lat="43.376055" lon="13.22176"><ele>531.0</ele><time>2026-04-04T12:52:51.728Z</time></trkpt><trkpt lat="43.3761767" lon="13.2216233"><ele>530.3333333333334</ele><time>2026-04-04T12:52:52.729Z</time></trkpt><trkpt lat="43.3762817" lon="13.221445"><ele>529.6666666666667</ele><time>2026-04-04T12:52:53.739Z</time></trkpt><trkpt lat="43.3763617" lon="13.2212133"><ele>529.0</ele><time>2026-04-04T12:52:54.731Z</time></trkpt><trkpt lat="43.3764367" lon="13.220955"><ele>529.0</ele><time>2026-04-04T12:52:55.732Z</time></trkpt><trkpt lat="43.3765133" lon="13.2206933"><ele>529.0</ele><time>2026-04-04T12:52:56.73Z</time></trkpt><trkpt lat="43.376615" lon="13.2204417"><ele>529.0</ele><time>2026-04-04T12:52:57.729Z</time></trkpt><trkpt lat="43.3767467" lon="13.22021"><ele>536.3333333333334</ele><time>2026-04-04T12:52:58.731Z</time></trkpt><trkpt lat="43.3768867" lon="13.2199967"><ele>543.6666666666666</ele><time>2026-04-04T12:52:59.731Z</time></trkpt><trkpt lat="43.3770267" lon="13.219775"><ele>551.0</ele><time>2026-04-04T12:53:00.736Z</time></trkpt><trkpt lat="43.3771433" lon="13.2195267"><ele>552.6666666666666</ele><time>2026-04-04T12:53:01.725Z</time></trkpt><trkpt lat="43.3772567" lon="13.219275"><ele>554.3333333333334</ele><time>2026-04-04T12:53:02.745Z</time></trkpt><trkpt lat="43.3773833" lon="13.2190167"><ele>556.0</ele><time>2026-04-04T12:53:03.728Z</time></trkpt><trkpt lat="43.377535" lon="13.21876"><ele>556.0</ele><time>2026-04-04T12:53:04.729Z</time></trkpt><trkpt lat="43.3776967" lon="13.2184967"><ele>556.0</ele><time>2026-04-04T12:53:05.737Z</time></trkpt><trkpt lat="43.3778533" lon="13.218235"><ele>556.0</ele><time>2026-04-04T12:53:06.73Z</time></trkpt><trkpt lat="43.37801" lon="13.2179767"><ele>556.0</ele><time>2026-04-04T12:53:07.733Z</time></trkpt><trkpt lat="43.3781633" lon="13.2177317"><ele>556.0</ele><time>2026-04-04T12:53:08.73Z</time></trkpt><trkpt lat="43.3783067" lon="13.217505"><ele>556.0</ele><time>2026-04-04T12:53:09.733Z</time></trkpt><trkpt lat="43.3784333" lon="13.2173033"><ele>556.0</ele><time>2026-04-04T12:53:10.736Z</time></trkpt><trkpt lat="43.37854" lon="13.2171167"><ele>557.25</ele><time>2026-04-04T12:53:11.738Z</time></trkpt><trkpt lat="43.3786183" lon="13.216935"><ele>558.5</ele><time>2026-04-04T12:53:12.735Z</time></trkpt><trkpt lat="43.3786567" lon="13.2167517"><ele>559.75</ele><time>2026-04-04T12:53:13.729Z</time></trkpt><trkpt lat="43.3786583" lon="13.2165817"><ele>561.0</ele><time>2026-04-04T12:53:14.726Z</time></trkpt><trkpt lat="43.3786267" lon="13.21644"><ele>562.5</ele><time>2026-04-04T12:53:15.735Z</time></trkpt><trkpt lat="43.3785817" lon="13.2163183"><ele>564.0</ele><time>2026-04-04T12:53:16.728Z</time></trkpt><trkpt lat="43.37854" lon="13.216215"><ele>565.5</ele><time>2026-04-04T12:53:17.728Z</time></trkpt><trkpt lat="43.3785067" lon="13.21613"><ele>567.0</ele><time>2026-04-04T12:53:18.728Z</time></trkpt><trkpt lat="43.3784583" lon="13.2160567"><ele>568.5</ele><time>2026-04-04T12:53:20.733Z</time></trkpt><trkpt lat="43.37839" lon="13.2160467"><ele>570.0</ele><time>2026-04-04T12:53:22.73Z</time></trkpt><trkpt lat="43.3782883" lon="13.21611"><ele>570.0</ele><time>2026-04-04T12:53:23.729Z</time></trkpt><trkpt lat="43.3781567" lon="13.2162183"><ele>570.0</ele><time>2026-04-04T12:53:24.731Z</time></trkpt><trkpt lat="43.3780083" lon="13.21634"><ele>570.0</ele><time>2026-04-04T12:53:25.731Z</time></trkpt><trkpt lat="43.3778233" lon="13.2164817"><ele>569.6666666666666</ele><time>2026-04-04T12:53:26.733Z</time></trkpt><trkpt lat="43.37763" lon="13.21663"><ele>569.3333333333333</ele><time>2026-04-04T12:53:27.73Z</time></trkpt><trkpt lat="43.377435" lon="13.21678"><ele>569.0</ele><time>2026-04-04T12:53:28.722Z</time></trkpt><trkpt lat="43.3772333" lon="13.216935"><ele>579.5</ele><time>2026-04-04T12:53:29.735Z</time></trkpt><trkpt lat="43.377025" lon="13.21709"><ele>590.0</ele><time>2026-04-04T12:53:30.73Z</time></trkpt><trkpt lat="43.376815" lon="13.2172517"><ele>581.5</ele><time>2026-04-04T12:53:31.734Z</time></trkpt><trkpt lat="43.3765967" lon="13.2174167"><ele>573.0</ele><time>2026-04-04T12:53:32.733Z</time></trkpt><trkpt lat="43.3763817" lon="13.217585"><ele>584.0</ele><time>2026-04-04T12:53:33.729Z</time></trkpt><trkpt lat="43.3761667" lon="13.2177483"><ele>595.0</ele><time>2026-04-04T12:53:34.727Z</time></trkpt><trkpt lat="43.37595" lon="13.2179133"><ele>595.0</ele><time>2026-04-04T12:53:35.729Z</time></trkpt><trkpt lat="43.37574" lon="13.2180817"><ele>595.0</ele><time>2026-04-04T12:53:36.732Z</time></trkpt><trkpt lat="43.37553" lon="13.2182483"><ele>598.0</ele><time>2026-04-04T12:53:37.731Z</time></trkpt><trkpt lat="43.3753167" lon="13.218415"><ele>601.0</ele><time>2026-04-04T12:53:38.748Z</time></trkpt><trkpt lat="43.3751117" lon="13.2185767"><ele>601.0</ele><time>2026-04-04T12:53:39.729Z</time></trkpt><trkpt lat="43.3749183" lon="13.2187217"><ele>601.0</ele><time>2026-04-04T12:53:40.726Z</time></trkpt><trkpt lat="43.37474" lon="13.2188633"><ele>601.0</ele><time>2026-04-04T12:53:41.733Z</time></trkpt><trkpt lat="43.3745767" lon="13.2190017"><ele>601.3333333333334</ele><time>2026-04-04T12:53:42.733Z</time></trkpt><trkpt lat="43.3744283" lon="13.219125"><ele>601.6666666666666</ele><time>2026-04-04T12:53:43.727Z</time></trkpt><trkpt lat="43.374295" lon="13.2192333"><ele>602.0</ele><time>2026-04-04T12:53:44.734Z</time></trkpt><trkpt lat="43.3741767" lon="13.219315"><ele>602.0</ele><time>2026-04-04T12:53:45.73Z</time></trkpt><trkpt lat="43.37408" lon="13.2193717"><ele>602.0</ele><time>2026-04-04T12:53:46.731Z</time></trkpt><trkpt lat="43.37399" lon="13.2194067"><ele>602.0</ele><time>2026-04-04T12:53:47.726Z</time></trkpt><trkpt lat="43.3739133" lon="13.2194183"><ele>602.0</ele><time>2026-04-04T12:53:48.726Z</time></trkpt><trkpt lat="43.37385" lon="13.21941"><ele>602.0</ele><time>2026-04-04T12:53:49.73Z</time></trkpt><trkpt lat="43.37376" lon="13.219405"><ele>602.0</ele><time>2026-04-04T12:53:51.728Z</time></trkpt><trkpt lat="43.3736817" lon="13.2194217"><ele>605.0</ele><time>2026-04-04T12:53:54.732Z</time></trkpt><trkpt lat="43.37355" lon="13.2194167"><ele>608.0</ele><time>2026-04-04T12:55:07.729Z</time></trkpt><trkpt lat="43.3733817" lon="13.2194767"><ele>611.0</ele><time>2026-04-04T12:55:10.726Z</time></trkpt><trkpt lat="43.37329" lon="13.2195167"><ele>614.0</ele><time>2026-04-04T12:55:11.726Z</time></trkpt><trkpt lat="43.3731783" lon="13.2195667"><ele>614.0</ele><time>2026-04-04T12:55:12.728Z</time></trkpt><trkpt lat="43.3730717" lon="13.219615"><ele>614.0</ele><time>2026-04-04T12:55:13.727Z</time></trkpt><trkpt lat="43.3729633" lon="13.21967"><ele>614.0</ele><time>2026-04-04T12:55:14.733Z</time></trkpt><trkpt lat="43.372855" lon="13.2197233"><ele>614.0</ele><time>2026-04-04T12:55:15.734Z</time></trkpt><trkpt lat="43.3727483" lon="13.21978"><ele>608.5</ele><time>2026-04-04T12:55:16.728Z</time></trkpt><trkpt lat="43.3726433" lon="13.219825"><ele>603.0</ele><time>2026-04-04T12:55:17.729Z</time></trkpt><trkpt lat="43.3725283" lon="13.2198767"><ele>597.5</ele><time>2026-04-04T12:55:18.726Z</time></trkpt><trkpt lat="43.37241" lon="13.21992"><ele>592.0</ele><time>2026-04-04T12:55:19.731Z</time></trkpt><trkpt lat="43.3722967" lon="13.21993"><ele>588.5</ele><time>2026-04-04T12:55:20.728Z</time></trkpt><trkpt lat="43.372185" lon="13.219865"><ele>585.0</ele><time>2026-04-04T12:55:21.733Z</time></trkpt><trkpt lat="43.372085" lon="13.2197667"><ele>581.5</ele><time>2026-04-04T12:55:22.731Z</time></trkpt><trkpt lat="43.3719983" lon="13.2196217"><ele>578.0</ele><time>2026-04-04T12:55:23.729Z</time></trkpt><trkpt lat="43.371915" lon="13.219445"><ele>578.0</ele><time>2026-04-04T12:55:24.73Z</time></trkpt><trkpt lat="43.3718533" lon="13.2192467"><ele>578.0</ele><time>2026-04-04T12:55:25.729Z</time></trkpt><trkpt lat="43.3718217" lon="13.2190317"><ele>578.0</ele><time>2026-04-04T12:55:26.748Z</time></trkpt><trkpt lat="43.371805" lon="13.2188283"><ele>581.0</ele><time>2026-04-04T12:55:27.729Z</time></trkpt><trkpt lat="43.371795" lon="13.2186217"><ele>584.0</ele><time>2026-04-04T12:55:28.723Z</time></trkpt><trkpt lat="43.3717817" lon="13.2184283"><ele>587.0</ele><time>2026-04-04T12:55:29.729Z</time></trkpt><trkpt lat="43.371775" lon="13.2182267"><ele>590.0</ele><time>2026-04-04T12:55:30.73Z</time></trkpt><trkpt lat="43.37177" lon="13.2180483"><ele>590.4</ele><time>2026-04-04T12:55:31.732Z</time></trkpt><trkpt lat="43.37178" lon="13.217885"><ele>590.8</ele><time>2026-04-04T12:55:32.733Z</time></trkpt><trkpt lat="43.3718017" lon="13.2177467"><ele>591.2</ele><time>2026-04-04T12:55:33.728Z</time></trkpt><trkpt lat="43.371855" lon="13.2176433"><ele>591.6</ele><time>2026-04-04T12:55:34.728Z</time></trkpt><trkpt lat="43.3719433" lon="13.21755"><ele>592.0</ele><time>2026-04-04T12:55:35.735Z</time></trkpt><trkpt lat="43.3720617" lon="13.21747"><ele>592.0</ele><time>2026-04-04T12:55:36.733Z</time></trkpt><trkpt lat="43.372175" lon="13.2173783"><ele>592.0</ele><time>2026-04-04T12:55:37.746Z</time></trkpt><trkpt lat="43.37227" lon="13.2172433"><ele>592.0</ele><time>2026-04-04T12:55:38.728Z</time></trkpt><trkpt lat="43.3723683" lon="13.2171083"><ele>592.0</ele><time>2026-04-04T12:55:39.73Z</time></trkpt><trkpt lat="43.3724367" lon="13.2169317"><ele>592.5</ele><time>2026-04-04T12:55:40.725Z</time></trkpt><trkpt lat="43.3724967" lon="13.216755"><ele>593.0</ele><time>2026-04-04T12:55:41.732Z</time></trkpt><trkpt lat="43.3725383" lon="13.21656"><ele>593.5</ele><time>2026-04-04T12:55:42.735Z</time></trkpt><trkpt lat="43.372585" lon="13.2163567"><ele>594.0</ele><time>2026-04-04T12:55:43.731Z</time></trkpt><trkpt lat="43.3726333" lon="13.2161433"><ele>594.0</ele><time>2026-04-04T12:55:44.729Z</time></trkpt><trkpt lat="43.37268" lon="13.21593"><ele>594.0</ele><time>2026-04-04T12:55:45.726Z</time></trkpt><trkpt lat="43.3727317" lon="13.215735"><ele>594.0</ele><time>2026-04-04T12:55:46.735Z</time></trkpt><trkpt lat="43.37278" lon="13.215535"><ele>591.0</ele><time>2026-04-04T12:55:47.726Z</time></trkpt><trkpt lat="43.37284" lon="13.2153267"><ele>588.0</ele><time>2026-04-04T12:55:48.732Z</time></trkpt><trkpt lat="43.3729017" lon="13.2151267"><ele>585.0</ele><time>2026-04-04T12:55:49.73Z</time></trkpt><trkpt lat="43.3729717" lon="13.21493"><ele>589.3333333333334</ele><time>2026-04-04T12:55:50.733Z</time></trkpt><trkpt lat="43.3730533" lon="13.21472"><ele>593.6666666666667</ele><time>2026-04-04T12:55:51.732Z</time></trkpt><trkpt lat="43.3731483" lon="13.2145217"><ele>598.0</ele><time>2026-04-04T12:55:52.729Z</time></trkpt><trkpt lat="43.3732533" lon="13.2143317"><ele>598.0</ele><time>2026-04-04T12:55:53.731Z</time></trkpt><trkpt lat="43.3733667" lon="13.214155"><ele>598.0</ele><time>2026-04-04T12:55:54.728Z</time></trkpt><trkpt lat="43.3734883" lon="13.2140117"><ele>598.0</ele><time>2026-04-04T12:55:55.73Z</time></trkpt><trkpt lat="43.3736233" lon="13.2138683"><ele>597.0</ele><time>2026-04-04T12:55:56.728Z</time></trkpt><trkpt lat="43.3737667" lon="13.2137467"><ele>596.0</ele><time>2026-04-04T12:55:57.726Z</time></trkpt><trkpt lat="43.3739217" lon="13.2136417"><ele>595.0</ele><time>2026-04-04T12:55:58.726Z</time></trkpt><trkpt lat="43.3740867" lon="13.2135483"><ele>595.0</ele><time>2026-04-04T12:55:59.73Z</time></trkpt><trkpt lat="43.37426" lon="13.2134817"><ele>595.0</ele><time>2026-04-04T12:56:00.729Z</time></trkpt><trkpt lat="43.3744267" lon="13.2134367"><ele>595.0</ele><time>2026-04-04T12:56:01.739Z</time></trkpt><trkpt lat="43.3745883" lon="13.213415"><ele>596.0</ele><time>2026-04-04T12:56:02.733Z</time></trkpt><trkpt lat="43.3747517" lon="13.2133917"><ele>597.0</ele><time>2026-04-04T12:56:03.729Z</time></trkpt><trkpt lat="43.3749167" lon="13.213375"><ele>598.0</ele><time>2026-04-04T12:56:04.728Z</time></trkpt><trkpt lat="43.3750767" lon="13.21336"><ele>598.0</ele><time>2026-04-04T12:56:05.728Z</time></trkpt><trkpt lat="43.37522" lon="13.2133367"><ele>598.0</ele><time>2026-04-04T12:56:06.732Z</time></trkpt><trkpt lat="43.37535" lon="13.213325"><ele>598.0</ele><time>2026-04-04T12:56:07.73Z</time></trkpt><trkpt lat="43.3754567" lon="13.213325"><ele>598.0</ele><time>2026-04-04T12:56:08.731Z</time></trkpt><trkpt lat="43.3755517" lon="13.2133017"><ele>598.0</ele><time>2026-04-04T12:56:09.729Z</time></trkpt><trkpt lat="43.37562" lon="13.21325"><ele>598.0</ele><time>2026-04-04T12:56:10.727Z</time></trkpt><trkpt lat="43.37567" lon="13.213165"><ele>598.0</ele><time>2026-04-04T12:56:11.727Z</time></trkpt><trkpt lat="43.3757083" lon="13.21306"><ele>598.0</ele><time>2026-04-04T12:56:12.729Z</time></trkpt><trkpt lat="43.3757283" lon="13.2129417"><ele>598.0</ele><time>2026-04-04T12:56:13.732Z</time></trkpt><trkpt lat="43.3757367" lon="13.2128083"><ele>598.0</ele><time>2026-04-04T12:56:14.729Z</time></trkpt><trkpt lat="43.3757383" lon="13.2126867"><ele>598.0</ele><time>2026-04-04T12:56:15.731Z</time></trkpt><trkpt lat="43.375745" lon="13.21258"><ele>598.0</ele><time>2026-04-04T12:56:16.733Z</time></trkpt><trkpt lat="43.3757567" lon="13.2124933"><ele>598.0</ele><time>2026-04-04T12:56:17.73Z</time></trkpt><trkpt lat="43.3757667" lon="13.2123817"><ele>598.0</ele><time>2026-04-04T12:56:19.726Z</time></trkpt><trkpt lat="43.37575" lon="13.2122683"><ele>598.0</ele><time>2026-04-04T12:57:54.731Z</time></trkpt><trkpt lat="43.3757583" lon="13.2121267"><ele>598.0</ele><time>2026-04-04T12:57:56.73Z</time></trkpt><trkpt lat="43.3757633" lon="13.2120367"><ele>597.0</ele><time>2026-04-04T12:57:57.731Z</time></trkpt><trkpt lat="43.3757667" lon="13.2119333"><ele>596.0</ele><time>2026-04-04T12:57:58.731Z</time></trkpt><trkpt lat="43.3757683" lon="13.21181"><ele>595.0</ele><time>2026-04-04T12:57:59.731Z</time></trkpt><trkpt lat="43.3757683" lon="13.21167"><ele>594.0</ele><time>2026-04-04T12:58:00.728Z</time></trkpt><trkpt lat="43.37577" lon="13.2115167"><ele>593.0</ele><time>2026-04-04T12:58:01.732Z</time></trkpt><trkpt lat="43.3757733" lon="13.2113583"><ele>592.75</ele><time>2026-04-04T12:58:02.736Z</time></trkpt><trkpt lat="43.375775" lon="13.2111967"><ele>592.5</ele><time>2026-04-04T12:58:03.73Z</time></trkpt><trkpt lat="43.3757717" lon="13.2110233"><ele>592.25</ele><time>2026-04-04T12:58:04.737Z</time></trkpt><trkpt lat="43.3757533" lon="13.2108483"><ele>592.0</ele><time>2026-04-04T12:58:05.73Z</time></trkpt><trkpt lat="43.3757133" lon="13.21067"><ele>592.25</ele><time>2026-04-04T12:58:06.729Z</time></trkpt><trkpt lat="43.3756617" lon="13.2104917"><ele>592.5</ele><time>2026-04-04T12:58:07.734Z</time></trkpt><trkpt lat="43.3756033" lon="13.2103133"><ele>592.75</ele><time>2026-04-04T12:58:08.756Z</time></trkpt><trkpt lat="43.375545" lon="13.21013"><ele>593.0</ele><time>2026-04-04T12:58:09.732Z</time></trkpt><trkpt lat="43.3754867" lon="13.2099533"><ele>594.0</ele><time>2026-04-04T12:58:10.729Z</time></trkpt><trkpt lat="43.3754233" lon="13.20978"><ele>595.0</ele><time>2026-04-04T12:58:11.728Z</time></trkpt><trkpt lat="43.375365" lon="13.209615"><ele>596.0</ele><time>2026-04-04T12:58:12.734Z</time></trkpt><trkpt lat="43.3753083" lon="13.2094667"><ele>597.0</ele><time>2026-04-04T12:58:13.734Z</time></trkpt><trkpt lat="43.3752483" lon="13.209345"><ele>597.0</ele><time>2026-04-04T12:58:14.731Z</time></trkpt><trkpt lat="43.375175" lon="13.20926"><ele>597.0</ele><time>2026-04-04T12:58:15.731Z</time></trkpt><trkpt lat="43.37508" lon="13.2092"><ele>597.0</ele><time>2026-04-04T12:58:16.729Z</time></trkpt><trkpt lat="43.3749783" lon="13.2091633"><ele>597.0</ele><time>2026-04-04T12:58:17.733Z</time></trkpt><trkpt lat="43.37487" lon="13.20916"><ele>597.0</ele><time>2026-04-04T12:58:18.729Z</time></trkpt><trkpt lat="43.374755" lon="13.2091817"><ele>598.25</ele><time>2026-04-04T12:58:19.73Z</time></trkpt><trkpt lat="43.3746383" lon="13.20923"><ele>599.5</ele><time>2026-04-04T12:58:20.729Z</time></trkpt><trkpt lat="43.3745283" lon="13.2092917"><ele>600.75</ele><time>2026-04-04T12:58:21.731Z</time></trkpt><trkpt lat="43.3744117" lon="13.209365"><ele>602.0</ele><time>2026-04-04T12:58:22.729Z</time></trkpt><trkpt lat="43.3742983" lon="13.2094417"><ele>602.0</ele><time>2026-04-04T12:58:23.73Z</time></trkpt><trkpt lat="43.37418" lon="13.209485"><ele>602.0</ele><time>2026-04-04T12:58:24.731Z</time></trkpt><trkpt lat="43.37405" lon="13.2094933"><ele>602.0</ele><time>2026-04-04T12:58:25.728Z</time></trkpt><trkpt lat="43.37391" lon="13.2094517"><ele>602.0</ele><time>2026-04-04T12:58:26.726Z</time></trkpt><trkpt lat="43.3737767" lon="13.2093833"><ele>599.3333333333333</ele><time>2026-04-04T12:58:27.73Z</time></trkpt><trkpt lat="43.3736383" lon="13.2092967"><ele>596.6666666666666</ele><time>2026-04-04T12:58:28.729Z</time></trkpt><trkpt lat="43.3734983" lon="13.2092033"><ele>594.0</ele><time>2026-04-04T12:58:29.729Z</time></trkpt><trkpt lat="43.3733583" lon="13.2091067"><ele>594.0</ele><time>2026-04-04T12:58:30.729Z</time></trkpt><trkpt lat="43.3732033" lon="13.2090067"><ele>594.0</ele><time>2026-04-04T12:58:31.728Z</time></trkpt><trkpt lat="43.37306" lon="13.2089183"><ele>594.0</ele><time>2026-04-04T12:58:32.731Z</time></trkpt><trkpt lat="43.3729167" lon="13.2088633"><ele>600.5</ele><time>2026-04-04T12:58:33.732Z</time></trkpt><trkpt lat="43.3727783" lon="13.20884"><ele>607.0</ele><time>2026-04-04T12:58:34.729Z</time></trkpt><trkpt lat="43.37263" lon="13.20886"><ele>613.5</ele><time>2026-04-04T12:58:35.731Z</time></trkpt><trkpt lat="43.3724783" lon="13.20889"><ele>620.0</ele><time>2026-04-04T12:58:36.73Z</time></trkpt><trkpt lat="43.3723317" lon="13.208905"><ele>612.3333333333333</ele><time>2026-04-04T12:58:37.733Z</time></trkpt><trkpt lat="43.3721833" lon="13.2088717"><ele>604.6666666666666</ele><time>2026-04-04T12:58:38.729Z</time></trkpt><trkpt lat="43.372035" lon="13.2087933"><ele>597.0</ele><time>2026-04-04T12:58:39.73Z</time></trkpt><trkpt lat="43.3718933" lon="13.2086867"><ele>597.0</ele><time>2026-04-04T12:58:40.728Z</time></trkpt><trkpt lat="43.3717633" lon="13.2085433"><ele>597.0</ele><time>2026-04-04T12:58:41.729Z</time></trkpt><trkpt lat="43.37166" lon="13.2083517"><ele>597.0</ele><time>2026-04-04T12:58:42.729Z</time></trkpt><trkpt lat="43.3715733" lon="13.2081517"><ele>604.0</ele><time>2026-04-04T12:58:43.729Z</time></trkpt><trkpt lat="43.3715017" lon="13.2079383"><ele>611.0</ele><time>2026-04-04T12:58:44.73Z</time></trkpt><trkpt lat="43.3714383" lon="13.2077033"><ele>618.0</ele><time>2026-04-04T12:58:45.726Z</time></trkpt><trkpt lat="43.37139" lon="13.2074583"><ele>600.0</ele><time>2026-04-04T12:58:46.727Z</time></trkpt><trkpt lat="43.3713567" lon="13.2072283"><ele>582.0</ele><time>2026-04-04T12:58:47.731Z</time></trkpt><trkpt lat="43.3713367" lon="13.207"><ele>564.0</ele><time>2026-04-04T12:58:48.733Z</time></trkpt><trkpt lat="43.3713283" lon="13.20677"><ele>564.0</ele><time>2026-04-04T12:58:49.733Z</time></trkpt><trkpt lat="43.3713267" lon="13.2065367"><ele>564.0</ele><time>2026-04-04T12:58:50.731Z</time></trkpt><trkpt lat="43.3713367" lon="13.2063033"><ele>564.0</ele><time>2026-04-04T12:58:51.728Z</time></trkpt><trkpt lat="43.371355" lon="13.20608"><ele>570.6666666666666</ele><time>2026-04-04T12:58:52.729Z</time></trkpt><trkpt lat="43.3713733" lon="13.205865"><ele>577.3333333333333</ele><time>2026-04-04T12:58:53.728Z</time></trkpt><trkpt lat="43.3713733" lon="13.2056567"><ele>584.0</ele><time>2026-04-04T12:58:54.729Z</time></trkpt><trkpt lat="43.3713367" lon="13.205455"><ele>584.0</ele><time>2026-04-04T12:58:55.729Z</time></trkpt><trkpt lat="43.3712783" lon="13.20526"><ele>584.0</ele><time>2026-04-04T12:58:56.729Z</time></trkpt><trkpt lat="43.3711983" lon="13.2050683"><ele>584.0</ele><time>2026-04-04T12:58:57.726Z</time></trkpt><trkpt lat="43.37111" lon="13.20489"><ele>591.0</ele><time>2026-04-04T12:58:58.728Z</time></trkpt><trkpt lat="43.3710183" lon="13.2047217"><ele>598.0</ele><time>2026-04-04T12:58:59.728Z</time></trkpt><trkpt lat="43.3709383" lon="13.2045433"><ele>605.0</ele><time>2026-04-04T12:59:00.727Z</time></trkpt><trkpt lat="43.3708767" lon="13.2043467"><ele>605.0</ele><time>2026-04-04T12:59:01.73Z</time></trkpt><trkpt lat="43.3708083" lon="13.2041267"><ele>605.0</ele><time>2026-04-04T12:59:02.736Z</time></trkpt><trkpt lat="43.3707283" lon="13.2038867"><ele>605.0</ele><time>2026-04-04T12:59:03.729Z</time></trkpt><trkpt lat="43.370645" lon="13.2036217"><ele>598.5</ele><time>2026-04-04T12:59:04.728Z</time></trkpt><trkpt lat="43.3705733" lon="13.2033317"><ele>592.0</ele><time>2026-04-04T12:59:05.728Z</time></trkpt><trkpt lat="43.370505" lon="13.2030283"><ele>592.0</ele><time>2026-04-04T12:59:06.731Z</time></trkpt><trkpt lat="43.3704367" lon="13.2027167"><ele>592.0</ele><time>2026-04-04T12:59:07.727Z</time></trkpt><trkpt lat="43.3703667" lon="13.2024133"><ele>595.3333333333334</ele><time>2026-04-04T12:59:08.727Z</time></trkpt><trkpt lat="43.3702967" lon="13.2021233"><ele>598.6666666666666</ele><time>2026-04-04T12:59:09.728Z</time></trkpt><trkpt lat="43.370235" lon="13.2018567"><ele>602.0</ele><time>2026-04-04T12:59:10.729Z</time></trkpt><trkpt lat="43.37018" lon="13.2016017"><ele>605.6666666666666</ele><time>2026-04-04T12:59:11.73Z</time></trkpt><trkpt lat="43.3701283" lon="13.2013683"><ele>609.3333333333334</ele><time>2026-04-04T12:59:12.728Z</time></trkpt><trkpt lat="43.3700717" lon="13.20116"><ele>613.0</ele><time>2026-04-04T12:59:13.726Z</time></trkpt><trkpt lat="43.3700033" lon="13.200985"><ele>613.0</ele><time>2026-04-04T12:59:14.731Z</time></trkpt><trkpt lat="43.369935" lon="13.20087"><ele>613.0</ele><time>2026-04-04T12:59:15.728Z</time></trkpt><trkpt lat="43.3698133" lon="13.200775"><ele>613.0</ele><time>2026-04-04T12:59:16.726Z</time></trkpt><trkpt lat="43.369665" lon="13.2007517"><ele>613.0</ele><time>2026-04-04T12:59:17.728Z</time></trkpt><trkpt lat="43.3695183" lon="13.2007717"><ele>615.3333333333334</ele><time>2026-04-04T12:59:18.727Z</time></trkpt><trkpt lat="43.3693717" lon="13.2008817"><ele>617.6666666666666</ele><time>2026-04-04T12:59:19.729Z</time></trkpt><trkpt lat="43.3692167" lon="13.2010567"><ele>620.0</ele><time>2026-04-04T12:59:20.75Z</time></trkpt><trkpt lat="43.36907" lon="13.2012483"><ele>620.0</ele><time>2026-04-04T12:59:21.73Z</time></trkpt><trkpt lat="43.3689283" lon="13.2014517"><ele>620.0</ele><time>2026-04-04T12:59:22.729Z</time></trkpt><trkpt lat="43.3687883" lon="13.20165"><ele>620.0</ele><time>2026-04-04T12:59:23.724Z</time></trkpt><trkpt lat="43.3686433" lon="13.2018383"><ele>618.0</ele><time>2026-04-04T12:59:24.73Z</time></trkpt><trkpt lat="43.3685083" lon="13.2020167"><ele>616.0</ele><time>2026-04-04T12:59:25.731Z</time></trkpt><trkpt lat="43.3684083" lon="13.2022033"><ele>614.0</ele><time>2026-04-04T12:59:26.726Z</time></trkpt><trkpt lat="43.3683517" lon="13.2024083"><ele>614.0</ele><time>2026-04-04T12:59:27.729Z</time></trkpt><trkpt lat="43.36835" lon="13.20263"><ele>614.0</ele><time>2026-04-04T12:59:28.729Z</time></trkpt><trkpt lat="43.3683933" lon="13.2028933"><ele>614.0</ele><time>2026-04-04T12:59:29.732Z</time></trkpt><trkpt lat="43.368435" lon="13.2031733"><ele>616.3333333333333</ele><time>2026-04-04T12:59:30.729Z</time></trkpt><trkpt lat="43.3684733" lon="13.2034683"><ele>618.6666666666666</ele><time>2026-04-04T12:59:31.729Z</time></trkpt><trkpt lat="43.368505" lon="13.20377"><ele>621.0</ele><time>2026-04-04T12:59:32.73Z</time></trkpt><trkpt lat="43.368525" lon="13.2040733"><ele>624.0</ele><time>2026-04-04T12:59:33.728Z</time></trkpt><trkpt lat="43.368535" lon="13.2043833"><ele>627.0</ele><time>2026-04-04T12:59:34.731Z</time></trkpt><trkpt lat="43.36853" lon="13.204695"><ele>627.6666666666666</ele><time>2026-04-04T12:59:35.73Z</time></trkpt><trkpt lat="43.368525" lon="13.2050033"><ele>628.3333333333333</ele><time>2026-04-04T12:59:36.728Z</time></trkpt><trkpt lat="43.368505" lon="13.2053067"><ele>629.0</ele><time>2026-04-04T12:59:37.73Z</time></trkpt><trkpt lat="43.36848" lon="13.2056117"><ele>628.3333333333333</ele><time>2026-04-04T12:59:38.732Z</time></trkpt><trkpt lat="43.3684633" lon="13.205915"><ele>627.6666666666666</ele><time>2026-04-04T12:59:39.728Z</time></trkpt><trkpt lat="43.3684333" lon="13.2062133"><ele>627.0</ele><time>2026-04-04T12:59:40.729Z</time></trkpt><trkpt lat="43.3684083" lon="13.206515"><ele>626.0</ele><time>2026-04-04T12:59:41.729Z</time></trkpt><trkpt lat="43.3683783" lon="13.20682"><ele>625.0</ele><time>2026-04-04T12:59:42.733Z</time></trkpt><trkpt lat="43.3683533" lon="13.2071267"><ele>624.0</ele><time>2026-04-04T12:59:43.73Z</time></trkpt><trkpt lat="43.3683283" lon="13.2074267"><ele>623.0</ele><time>2026-04-04T12:59:44.73Z</time></trkpt><trkpt lat="43.3683033" lon="13.207715"><ele>622.0</ele><time>2026-04-04T12:59:45.728Z</time></trkpt><trkpt lat="43.3682617" lon="13.2079833"><ele>621.0</ele><time>2026-04-04T12:59:46.728Z</time></trkpt><trkpt lat="43.3682233" lon="13.208235"><ele>619.3333333333334</ele><time>2026-04-04T12:59:47.727Z</time></trkpt><trkpt lat="43.36818" lon="13.2084667"><ele>617.6666666666667</ele><time>2026-04-04T12:59:48.729Z</time></trkpt><trkpt lat="43.36814" lon="13.2086817"><ele>616.0</ele><time>2026-04-04T12:59:49.728Z</time></trkpt><trkpt lat="43.3681017" lon="13.20888"><ele>615.0</ele><time>2026-04-04T12:59:50.73Z</time></trkpt><trkpt lat="43.3680417" lon="13.2090467"><ele>614.0</ele><time>2026-04-04T12:59:51.727Z</time></trkpt><trkpt lat="43.3679433" lon="13.2091533"><ele>613.0</ele><time>2026-04-04T12:59:52.728Z</time></trkpt><trkpt lat="43.3678267" lon="13.20919"><ele>612.0</ele><time>2026-04-04T12:59:53.727Z</time></trkpt><trkpt lat="43.3676867" lon="13.2091483"><ele>612.0</ele><time>2026-04-04T12:59:54.73Z</time></trkpt><trkpt lat="43.3675383" lon="13.209035"><ele>612.0</ele><time>2026-04-04T12:59:55.731Z</time></trkpt><trkpt lat="43.367385" lon="13.20889"><ele>612.0</ele><time>2026-04-04T12:59:56.747Z</time></trkpt><trkpt lat="43.3672267" lon="13.2087317"><ele>613.6666666666666</ele><time>2026-04-04T12:59:57.729Z</time></trkpt><trkpt lat="43.3670617" lon="13.208565"><ele>615.3333333333333</ele><time>2026-04-04T12:59:58.727Z</time></trkpt><trkpt lat="43.3669" lon="13.2083833"><ele>617.0</ele><time>2026-04-04T12:59:59.728Z</time></trkpt><trkpt lat="43.3667317" lon="13.2082083"><ele>618.3333333333333</ele><time>2026-04-04T13:00:00.727Z</time></trkpt><trkpt lat="43.3665533" lon="13.2080283"><ele>619.6666666666666</ele><time>2026-04-04T13:00:01.726Z</time></trkpt><trkpt lat="43.3663733" lon="13.20785"><ele>621.0</ele><time>2026-04-04T13:00:02.725Z</time></trkpt><trkpt lat="43.3661933" lon="13.2076617"><ele>621.0</ele><time>2026-04-04T13:00:03.727Z</time></trkpt><trkpt lat="43.3660067" lon="13.2074817"><ele>621.0</ele><time>2026-04-04T13:00:04.727Z</time></trkpt><trkpt lat="43.365825" lon="13.20729"><ele>620.5</ele><time>2026-04-04T13:00:05.731Z</time></trkpt><trkpt lat="43.3656433" lon="13.2070917"><ele>620.0</ele><time>2026-04-04T13:00:06.73Z</time></trkpt><trkpt lat="43.3654633" lon="13.2068833"><ele>620.0</ele><time>2026-04-04T13:00:07.73Z</time></trkpt><trkpt lat="43.36529" lon="13.2066633"><ele>620.0</ele><time>2026-04-04T13:00:08.73Z</time></trkpt><trkpt lat="43.3651167" lon="13.2064433"><ele>634.0</ele><time>2026-04-04T13:00:09.73Z</time></trkpt><trkpt lat="43.364945" lon="13.2062133"><ele>648.0</ele><time>2026-04-04T13:00:10.731Z</time></trkpt><trkpt lat="43.3647783" lon="13.2059767"><ele>638.0</ele><time>2026-04-04T13:00:11.729Z</time></trkpt><trkpt lat="43.3646167" lon="13.2057333"><ele>628.0</ele><time>2026-04-04T13:00:12.729Z</time></trkpt><trkpt lat="43.3644533" lon="13.2054917"><ele>628.0</ele><time>2026-04-04T13:00:13.728Z</time></trkpt><trkpt lat="43.3643017" lon="13.20524"><ele>628.0</ele><time>2026-04-04T13:00:14.727Z</time></trkpt><trkpt lat="43.3641667" lon="13.2049783"><ele>636.6666666666667</ele><time>2026-04-04T13:00:15.724Z</time></trkpt><trkpt lat="43.364045" lon="13.2047183"><ele>645.3333333333334</ele><time>2026-04-04T13:00:16.727Z</time></trkpt><trkpt lat="43.3639567" lon="13.2044517"><ele>654.0</ele><time>2026-04-04T13:00:17.721Z</time></trkpt><trkpt lat="43.3638783" lon="13.2041733"><ele>640.0</ele><time>2026-04-04T13:00:18.723Z</time></trkpt><trkpt lat="43.3638067" lon="13.203885"><ele>626.0</ele><time>2026-04-04T13:00:19.732Z</time></trkpt><trkpt lat="43.3637417" lon="13.2035917"><ele>612.0</ele><time>2026-04-04T13:00:20.725Z</time></trkpt><trkpt lat="43.3636667" lon="13.2033033"><ele>624.0</ele><time>2026-04-04T13:00:21.722Z</time></trkpt><trkpt lat="43.36358" lon="13.2030167"><ele>636.0</ele><time>2026-04-04T13:00:22.725Z</time></trkpt><trkpt lat="43.3634883" lon="13.2027333"><ele>636.0</ele><time>2026-04-04T13:00:23.729Z</time></trkpt><trkpt lat="43.3633867" lon="13.2024567"><ele>636.0</ele><time>2026-04-04T13:00:24.729Z</time></trkpt><trkpt lat="43.3632783" lon="13.2022"><ele>636.0</ele><time>2026-04-04T13:00:25.729Z</time></trkpt><trkpt lat="43.3631817" lon="13.2019633"><ele>640.6666666666666</ele><time>2026-04-04T13:00:26.73Z</time></trkpt><trkpt lat="43.3630833" lon="13.2017583"><ele>645.3333333333333</ele><time>2026-04-04T13:00:27.729Z</time></trkpt><trkpt lat="43.36298" lon="13.201585"><ele>650.0</ele><time>2026-04-04T13:00:28.727Z</time></trkpt><trkpt lat="43.3628967" lon="13.2014333"><ele>650.0</ele><time>2026-04-04T13:00:29.729Z</time></trkpt><trkpt lat="43.362825" lon="13.2012983"><ele>650.0</ele><time>2026-04-04T13:00:30.728Z</time></trkpt><trkpt lat="43.3627583" lon="13.2011833"><ele>650.0</ele><time>2026-04-04T13:00:31.728Z</time></trkpt><trkpt lat="43.362695" lon="13.20109"><ele>650.0</ele><time>2026-04-04T13:00:32.731Z</time></trkpt><trkpt lat="43.362635" lon="13.2010083"><ele>650.0</ele><time>2026-04-04T13:00:33.728Z</time></trkpt><trkpt lat="43.36259" lon="13.200935"><ele>650.0</ele><time>2026-04-04T13:00:34.731Z</time></trkpt><trkpt lat="43.362525" lon="13.2008267"><ele>650.0</ele><time>2026-04-04T13:00:36.724Z</time></trkpt><trkpt lat="43.3624717" lon="13.2007667"><ele>650.0</ele><time>2026-04-04T13:00:38.731Z</time></trkpt><trkpt lat="43.3623983" lon="13.2007017"><ele>650.0</ele><time>2026-04-04T13:01:08.733Z</time></trkpt><trkpt lat="43.36231" lon="13.2006483"><ele>650.0</ele><time>2026-04-04T13:01:10.728Z</time></trkpt><trkpt lat="43.3622433" lon="13.2006067"><ele>650.0</ele><time>2026-04-04T13:01:11.726Z</time></trkpt><trkpt lat="43.362165" lon="13.20056"><ele>655.25</ele><time>2026-04-04T13:01:12.73Z</time></trkpt><trkpt lat="43.3620617" lon="13.2005217"><ele>660.5</ele><time>2026-04-04T13:01:13.728Z</time></trkpt><trkpt lat="43.3619367" lon="13.2005133"><ele>665.75</ele><time>2026-04-04T13:01:14.731Z</time></trkpt><trkpt lat="43.3618167" lon="13.2004967"><ele>671.0</ele><time>2026-04-04T13:01:15.729Z</time></trkpt><trkpt lat="43.3616783" lon="13.2004767"><ele>671.0</ele><time>2026-04-04T13:01:16.734Z</time></trkpt><trkpt lat="43.36153" lon="13.200425"><ele>671.0</ele><time>2026-04-04T13:01:17.729Z</time></trkpt><trkpt lat="43.3613867" lon="13.200335"><ele>671.0</ele><time>2026-04-04T13:01:18.726Z</time></trkpt><trkpt lat="43.3612367" lon="13.20023"><ele>664.6666666666666</ele><time>2026-04-04T13:01:19.729Z</time></trkpt><trkpt lat="43.3610767" lon="13.200135"><ele>658.3333333333334</ele><time>2026-04-04T13:01:20.727Z</time></trkpt><trkpt lat="43.3609117" lon="13.2000633"><ele>652.0</ele><time>2026-04-04T13:01:21.729Z</time></trkpt><trkpt lat="43.3607267" lon="13.2000283"><ele>652.0</ele><time>2026-04-04T13:01:22.729Z</time></trkpt><trkpt lat="43.360545" lon="13.2000017"><ele>652.0</ele><time>2026-04-04T13:01:23.737Z</time></trkpt><trkpt lat="43.3603617" lon="13.1999833"><ele>652.0</ele><time>2026-04-04T13:01:24.728Z</time></trkpt><trkpt lat="43.360185" lon="13.199955"><ele>648.3333333333334</ele><time>2026-04-04T13:01:25.731Z</time></trkpt><trkpt lat="43.3600167" lon="13.1999067"><ele>644.6666666666666</ele><time>2026-04-04T13:01:26.729Z</time></trkpt><trkpt lat="43.3598683" lon="13.19983"><ele>641.0</ele><time>2026-04-04T13:01:27.725Z</time></trkpt><trkpt lat="43.3597417" lon="13.1997283"><ele>650.25</ele><time>2026-04-04T13:01:28.725Z</time></trkpt><trkpt lat="43.3596217" lon="13.1996367"><ele>659.5</ele><time>2026-04-04T13:01:29.737Z</time></trkpt><trkpt lat="43.3595017" lon="13.1995617"><ele>668.75</ele><time>2026-04-04T13:01:30.728Z</time></trkpt><trkpt lat="43.3593767" lon="13.1995067"><ele>678.0</ele><time>2026-04-04T13:01:31.728Z</time></trkpt><trkpt lat="43.35924" lon="13.1995"><ele>678.0</ele><time>2026-04-04T13:01:32.731Z</time></trkpt><trkpt lat="43.3590983" lon="13.199545"><ele>678.0</ele><time>2026-04-04T13:01:33.73Z</time></trkpt><trkpt lat="43.3589617" lon="13.19965"><ele>678.0</ele><time>2026-04-04T13:01:34.728Z</time></trkpt><trkpt lat="43.35885" lon="13.1997733"><ele>678.0</ele><time>2026-04-04T13:01:35.729Z</time></trkpt><trkpt lat="43.3587683" lon="13.1999283"><ele>679.0</ele><time>2026-04-04T13:01:36.728Z</time></trkpt><trkpt lat="43.3587217" lon="13.20012"><ele>680.0</ele><time>2026-04-04T13:01:37.729Z</time></trkpt><trkpt lat="43.3587133" lon="13.20036"><ele>681.0</ele><time>2026-04-04T13:01:38.728Z</time></trkpt><trkpt lat="43.35871" lon="13.200615"><ele>679.0</ele><time>2026-04-04T13:01:39.728Z</time></trkpt><trkpt lat="43.3587067" lon="13.2008817"><ele>677.0</ele><time>2026-04-04T13:01:40.731Z</time></trkpt><trkpt lat="43.3587017" lon="13.201155"><ele>675.0</ele><time>2026-04-04T13:01:41.73Z</time></trkpt><trkpt lat="43.3587017" lon="13.2014183"><ele>672.0</ele><time>2026-04-04T13:01:42.728Z</time></trkpt><trkpt lat="43.3587067" lon="13.201655"><ele>669.0</ele><time>2026-04-04T13:01:43.73Z</time></trkpt><trkpt lat="43.3587033" lon="13.201865"><ele>666.0</ele><time>2026-04-04T13:01:44.733Z</time></trkpt><trkpt lat="43.3586717" lon="13.2020467"><ele>666.0</ele><time>2026-04-04T13:01:45.726Z</time></trkpt><trkpt lat="43.35861" lon="13.20218"><ele>666.0</ele><time>2026-04-04T13:01:46.73Z</time></trkpt><trkpt lat="43.3585183" lon="13.202235"><ele>666.0</ele><time>2026-04-04T13:01:47.726Z</time></trkpt><trkpt lat="43.3584067" lon="13.2022183"><ele>666.0</ele><time>2026-04-04T13:01:48.725Z</time></trkpt><trkpt lat="43.3582633" lon="13.2021567"><ele>666.0</ele><time>2026-04-04T13:01:49.731Z</time></trkpt><trkpt lat="43.3580883" lon="13.2020983"><ele>666.0</ele><time>2026-04-04T13:01:50.731Z</time></trkpt><trkpt lat="43.3579017" lon="13.20206"><ele>666.0</ele><time>2026-04-04T13:01:51.725Z</time></trkpt><trkpt lat="43.3577133" lon="13.2020117"><ele>668.0</ele><time>2026-04-04T13:01:52.727Z</time></trkpt><trkpt lat="43.35752" lon="13.20197"><ele>670.0</ele><time>2026-04-04T13:01:53.727Z</time></trkpt><trkpt lat="43.3573233" lon="13.2019133"><ele>672.0</ele><time>2026-04-04T13:01:54.727Z</time></trkpt><trkpt lat="43.3571233" lon="13.201845"><ele>668.0</ele><time>2026-04-04T13:01:55.725Z</time></trkpt><trkpt lat="43.3569233" lon="13.201775"><ele>664.0</ele><time>2026-04-04T13:01:56.729Z</time></trkpt><trkpt lat="43.35673" lon="13.2016967"><ele>660.0</ele><time>2026-04-04T13:01:57.727Z</time></trkpt><trkpt lat="43.35655" lon="13.2016233"><ele>660.0</ele><time>2026-04-04T13:01:58.73Z</time></trkpt><trkpt lat="43.35639" lon="13.2015233"><ele>660.0</ele><time>2026-04-04T13:01:59.728Z</time></trkpt><trkpt lat="43.3562617" lon="13.2013933"><ele>660.0</ele><time>2026-04-04T13:02:00.73Z</time></trkpt><trkpt lat="43.356165" lon="13.2012333"><ele>661.75</ele><time>2026-04-04T13:02:01.727Z</time></trkpt><trkpt lat="43.3560883" lon="13.2010617"><ele>663.5</ele><time>2026-04-04T13:02:02.729Z</time></trkpt><trkpt lat="43.3560083" lon="13.2009067"><ele>665.25</ele><time>2026-04-04T13:02:03.728Z</time></trkpt><trkpt lat="43.3559167" lon="13.2008017"><ele>667.0</ele><time>2026-04-04T13:02:04.727Z</time></trkpt><trkpt lat="43.3558033" lon="13.2007633"><ele>667.0</ele><time>2026-04-04T13:02:05.73Z</time></trkpt><trkpt lat="43.3556667" lon="13.20077"><ele>667.0</ele><time>2026-04-04T13:02:06.73Z</time></trkpt><trkpt lat="43.3555167" lon="13.2007933"><ele>667.0</ele><time>2026-04-04T13:02:07.727Z</time></trkpt><trkpt lat="43.3553633" lon="13.2008117"><ele>667.0</ele><time>2026-04-04T13:02:08.727Z</time></trkpt><trkpt lat="43.35522" lon="13.200775"><ele>661.3333333333334</ele><time>2026-04-04T13:02:09.729Z</time></trkpt><trkpt lat="43.355085" lon="13.20068"><ele>655.6666666666666</ele><time>2026-04-04T13:02:10.728Z</time></trkpt><trkpt lat="43.35496" lon="13.2005433"><ele>650.0</ele><time>2026-04-04T13:02:11.727Z</time></trkpt><trkpt lat="43.3548417" lon="13.20042"><ele>656.25</ele><time>2026-04-04T13:02:12.726Z</time></trkpt><trkpt lat="43.3547267" lon="13.200305"><ele>662.5</ele><time>2026-04-04T13:02:13.728Z</time></trkpt><trkpt lat="43.3546083" lon="13.2002"><ele>668.75</ele><time>2026-04-04T13:02:14.726Z</time></trkpt><trkpt lat="43.3544817" lon="13.2000933"><ele>675.0</ele><time>2026-04-04T13:02:15.726Z</time></trkpt><trkpt lat="43.35436" lon="13.199995"><ele>675.0</ele><time>2026-04-04T13:02:16.726Z</time></trkpt><trkpt lat="43.3542333" lon="13.1999483"><ele>675.0</ele><time>2026-04-04T13:02:17.728Z</time></trkpt><trkpt lat="43.3541" lon="13.199945"><ele>675.0</ele><time>2026-04-04T13:02:18.729Z</time></trkpt><trkpt lat="43.3539733" lon="13.2000083"><ele>675.0</ele><time>2026-04-04T13:02:19.728Z</time></trkpt><trkpt lat="43.353855" lon="13.20011"><ele>673.3333333333334</ele><time>2026-04-04T13:02:20.731Z</time></trkpt><trkpt lat="43.3537317" lon="13.20021"><ele>671.6666666666667</ele><time>2026-04-04T13:02:21.73Z</time></trkpt><trkpt lat="43.3535883" lon="13.2002417"><ele>670.0</ele><time>2026-04-04T13:02:22.726Z</time></trkpt><trkpt lat="43.3534183" lon="13.2002117"><ele>670.0</ele><time>2026-04-04T13:02:23.726Z</time></trkpt><trkpt lat="43.35323" lon="13.2001467"><ele>670.0</ele><time>2026-04-04T13:02:24.727Z</time></trkpt><trkpt lat="43.3530317" lon="13.2000567"><ele>670.0</ele><time>2026-04-04T13:02:25.73Z</time></trkpt><trkpt lat="43.352845" lon="13.1999633"><ele>665.6666666666667</ele><time>2026-04-04T13:02:26.734Z</time></trkpt><trkpt lat="43.3526667" lon="13.19986"><ele>661.3333333333334</ele><time>2026-04-04T13:02:27.729Z</time></trkpt><trkpt lat="43.35249" lon="13.1997533"><ele>657.0</ele><time>2026-04-04T13:02:28.726Z</time></trkpt><trkpt lat="43.3523083" lon="13.1996383"><ele>661.6666666666666</ele><time>2026-04-04T13:02:29.729Z</time></trkpt><trkpt lat="43.3521233" lon="13.1995217"><ele>666.3333333333333</ele><time>2026-04-04T13:02:30.726Z</time></trkpt><trkpt lat="43.3519367" lon="13.1994033"><ele>671.0</ele><time>2026-04-04T13:02:31.729Z</time></trkpt><trkpt lat="43.3517467" lon="13.1992917"><ele>671.0</ele><time>2026-04-04T13:02:32.737Z</time></trkpt><trkpt lat="43.3515667" lon="13.1991783"><ele>671.0</ele><time>2026-04-04T13:02:33.734Z</time></trkpt><trkpt lat="43.3513883" lon="13.1990717"><ele>671.0</ele><time>2026-04-04T13:02:34.727Z</time></trkpt><trkpt lat="43.3512117" lon="13.1989567"><ele>673.6666666666666</ele><time>2026-04-04T13:02:35.727Z</time></trkpt><trkpt lat="43.35104" lon="13.1988267"><ele>676.3333333333334</ele><time>2026-04-04T13:02:36.726Z</time></trkpt><trkpt lat="43.3508733" lon="13.1986783"><ele>679.0</ele><time>2026-04-04T13:02:37.741Z</time></trkpt><trkpt lat="43.35071" lon="13.1985117"><ele>679.0</ele><time>2026-04-04T13:02:38.746Z</time></trkpt><trkpt lat="43.3505467" lon="13.1983417"><ele>679.0</ele><time>2026-04-04T13:02:39.726Z</time></trkpt><trkpt lat="43.3503783" lon="13.1981717"><ele>679.0</ele><time>2026-04-04T13:02:40.726Z</time></trkpt><trkpt lat="43.3502117" lon="13.1979983"><ele>682.3333333333334</ele><time>2026-04-04T13:02:41.727Z</time></trkpt><trkpt lat="43.3500433" lon="13.1978317"><ele>685.6666666666666</ele><time>2026-04-04T13:02:42.728Z</time></trkpt><trkpt lat="43.3498717" lon="13.1976417"><ele>689.0</ele><time>2026-04-04T13:02:43.729Z</time></trkpt><trkpt lat="43.3497033" lon="13.197445"><ele>690.5</ele><time>2026-04-04T13:02:44.73Z</time></trkpt><trkpt lat="43.34952" lon="13.197265"><ele>692.0</ele><time>2026-04-04T13:02:45.728Z</time></trkpt><trkpt lat="43.3493317" lon="13.1970667"><ele>692.0</ele><time>2026-04-04T13:02:46.739Z</time></trkpt><trkpt lat="43.34915" lon="13.1968733"><ele>692.0</ele><time>2026-04-04T13:02:47.727Z</time></trkpt><trkpt lat="43.3489767" lon="13.1966917"><ele>692.0</ele><time>2026-04-04T13:02:48.749Z</time></trkpt><trkpt lat="43.3488067" lon="13.19651"><ele>682.0</ele><time>2026-04-04T13:02:49.729Z</time></trkpt><trkpt lat="43.3486383" lon="13.1963317"><ele>672.0</ele><time>2026-04-04T13:02:50.735Z</time></trkpt><trkpt lat="43.3485167" lon="13.1961283"><ele>662.0</ele><time>2026-04-04T13:02:51.728Z</time></trkpt><trkpt lat="43.348325" lon="13.195935"><ele>662.0</ele><time>2026-04-04T13:02:52.727Z</time></trkpt><trkpt lat="43.34817" lon="13.1957483"><ele>662.0</ele><time>2026-04-04T13:02:53.725Z</time></trkpt><trkpt lat="43.3480417" lon="13.1955433"><ele>662.0</ele><time>2026-04-04T13:02:54.726Z</time></trkpt><trkpt lat="43.3479283" lon="13.195355"><ele>655.3333333333333</ele><time>2026-04-04T13:02:55.726Z</time></trkpt><trkpt lat="43.3478217" lon="13.1951717"><ele>648.6666666666666</ele><time>2026-04-04T13:02:56.727Z</time></trkpt><trkpt lat="43.3477283" lon="13.19499"><ele>642.0</ele><time>2026-04-04T13:02:57.727Z</time></trkpt><trkpt lat="43.34766" lon="13.1947933"><ele>642.0</ele><time>2026-04-04T13:02:58.727Z</time></trkpt><trkpt lat="43.3476233" lon="13.19458"><ele>642.0</ele><time>2026-04-04T13:02:59.725Z</time></trkpt><trkpt lat="43.34761" lon="13.1943483"><ele>642.0</ele><time>2026-04-04T13:03:00.727Z</time></trkpt><trkpt lat="43.3476167" lon="13.1941133"><ele>640.0</ele><time>2026-04-04T13:03:01.728Z</time></trkpt><trkpt lat="43.3476433" lon="13.1938767"><ele>638.0</ele><time>2026-04-04T13:03:02.734Z</time></trkpt><trkpt lat="43.3476883" lon="13.193645"><ele>636.0</ele><time>2026-04-04T13:03:03.728Z</time></trkpt><trkpt lat="43.3477633" lon="13.1934283"><ele>636.0</ele><time>2026-04-04T13:03:04.729Z</time></trkpt><trkpt lat="43.3478817" lon="13.1932433"><ele>636.0</ele><time>2026-04-04T13:03:05.728Z</time></trkpt><trkpt lat="43.3480167" lon="13.19307"><ele>636.0</ele><time>2026-04-04T13:03:06.728Z</time></trkpt><trkpt lat="43.348155" lon="13.1929083"><ele>636.3333333333334</ele><time>2026-04-04T13:03:07.728Z</time></trkpt><trkpt lat="43.3482967" lon="13.1927617"><ele>636.6666666666667</ele><time>2026-04-04T13:03:08.729Z</time></trkpt><trkpt lat="43.3484383" lon="13.19263"><ele>637.0</ele><time>2026-04-04T13:03:09.73Z</time></trkpt><trkpt lat="43.3485783" lon="13.1925133"><ele>637.0</ele><time>2026-04-04T13:03:10.729Z</time></trkpt><trkpt lat="43.3487267" lon="13.192435"><ele>637.0</ele><time>2026-04-04T13:03:11.728Z</time></trkpt><trkpt lat="43.3488733" lon="13.1923767"><ele>637.0</ele><time>2026-04-04T13:03:12.725Z</time></trkpt><trkpt lat="43.3490167" lon="13.1923483"><ele>635.6666666666667</ele><time>2026-04-04T13:03:13.724Z</time></trkpt><trkpt lat="43.34914" lon="13.1923217"><ele>634.3333333333334</ele><time>2026-04-04T13:03:14.73Z</time></trkpt><trkpt lat="43.34924" lon="13.1922667"><ele>633.0</ele><time>2026-04-04T13:03:15.728Z</time></trkpt><trkpt lat="43.3492983" lon="13.1921867"><ele>631.6666666666666</ele><time>2026-04-04T13:03:16.729Z</time></trkpt><trkpt lat="43.3493117" lon="13.1920917"><ele>630.3333333333333</ele><time>2026-04-04T13:03:17.728Z</time></trkpt><trkpt lat="43.3492933" lon="13.1920083"><ele>629.0</ele><time>2026-04-04T13:03:18.729Z</time></trkpt><trkpt lat="43.349225" lon="13.1919817"><ele>629.0</ele><time>2026-04-04T13:03:19.727Z</time></trkpt><trkpt lat="43.349125" lon="13.19201"><ele>629.0</ele><time>2026-04-04T13:03:20.725Z</time></trkpt><trkpt lat="43.34901" lon="13.1920683"><ele>629.0</ele><time>2026-04-04T13:03:21.728Z</time></trkpt><trkpt lat="43.34887" lon="13.192105"><ele>629.0</ele><time>2026-04-04T13:03:22.727Z</time></trkpt><trkpt lat="43.3487117" lon="13.1921067"><ele>627.3333333333333</ele><time>2026-04-04T13:03:23.728Z</time></trkpt><trkpt lat="43.3485433" lon="13.1920767"><ele>625.6666666666666</ele><time>2026-04-04T13:03:24.727Z</time></trkpt><trkpt lat="43.3483733" lon="13.1920267"><ele>624.0</ele><time>2026-04-04T13:03:25.729Z</time></trkpt><trkpt lat="43.348205" lon="13.191995"><ele>624.0</ele><time>2026-04-04T13:03:26.728Z</time></trkpt><trkpt lat="43.3480483" lon="13.1920217"><ele>624.0</ele><time>2026-04-04T13:03:27.73Z</time></trkpt><trkpt lat="43.347895" lon="13.1921167"><ele>624.0</ele><time>2026-04-04T13:03:28.731Z</time></trkpt><trkpt lat="43.3477317" lon="13.19228"><ele>624.3333333333334</ele><time>2026-04-04T13:03:29.73Z</time></trkpt><trkpt lat="43.3475683" lon="13.1924417"><ele>624.6666666666667</ele><time>2026-04-04T13:03:30.728Z</time></trkpt><trkpt lat="43.3474067" lon="13.1926"><ele>625.0</ele><time>2026-04-04T13:03:31.73Z</time></trkpt><trkpt lat="43.34725" lon="13.1927617"><ele>620.6666666666667</ele><time>2026-04-04T13:03:32.753Z</time></trkpt><trkpt lat="43.3470983" lon="13.1929383"><ele>616.3333333333334</ele><time>2026-04-04T13:03:33.728Z</time></trkpt><trkpt lat="43.3469717" lon="13.1931333"><ele>612.0</ele><time>2026-04-04T13:03:34.728Z</time></trkpt><trkpt lat="43.34688" lon="13.19336"><ele>612.0</ele><time>2026-04-04T13:03:35.727Z</time></trkpt><trkpt lat="43.346815" lon="13.1936167"><ele>612.0</ele><time>2026-04-04T13:03:36.732Z</time></trkpt><trkpt lat="43.346775" lon="13.19389"><ele>612.0</ele><time>2026-04-04T13:03:37.728Z</time></trkpt><trkpt lat="43.3467633" lon="13.1941833"><ele>612.3333333333334</ele><time>2026-04-04T13:03:38.73Z</time></trkpt><trkpt lat="43.346775" lon="13.194475"><ele>612.6666666666667</ele><time>2026-04-04T13:03:39.725Z</time></trkpt><trkpt lat="43.3468017" lon="13.194775"><ele>613.0</ele><time>2026-04-04T13:03:40.729Z</time></trkpt><trkpt lat="43.3468383" lon="13.1950783"><ele>611.0</ele><time>2026-04-04T13:03:41.73Z</time></trkpt><trkpt lat="43.34686" lon="13.1953833"><ele>609.0</ele><time>2026-04-04T13:03:42.73Z</time></trkpt><trkpt lat="43.34686" lon="13.195695"><ele>608.0</ele><time>2026-04-04T13:03:43.729Z</time></trkpt><trkpt lat="43.34684" lon="13.1960067"><ele>607.0</ele><time>2026-04-04T13:03:44.73Z</time></trkpt><trkpt lat="43.3468117" lon="13.1963167"><ele>606.6666666666667</ele><time>2026-04-04T13:03:45.728Z</time></trkpt><trkpt lat="43.3467783" lon="13.1966233"><ele>606.3333333333334</ele><time>2026-04-04T13:03:46.728Z</time></trkpt><trkpt lat="43.3467417" lon="13.1969167"><ele>606.0</ele><time>2026-04-04T13:03:47.733Z</time></trkpt><trkpt lat="43.3466817" lon="13.1971883"><ele>606.3333333333334</ele><time>2026-04-04T13:03:48.73Z</time></trkpt><trkpt lat="43.3466" lon="13.1974283"><ele>606.6666666666667</ele><time>2026-04-04T13:03:49.73Z</time></trkpt><trkpt lat="43.3464883" lon="13.1976317"><ele>607.0</ele><time>2026-04-04T13:03:50.758Z</time></trkpt><trkpt lat="43.3463417" lon="13.197785"><ele>604.0</ele><time>2026-04-04T13:03:51.729Z</time></trkpt><trkpt lat="43.3461883" lon="13.197895"><ele>601.0</ele><time>2026-04-04T13:03:52.73Z</time></trkpt><trkpt lat="43.34603" lon="13.1979717"><ele>598.0</ele><time>2026-04-04T13:03:53.728Z</time></trkpt><trkpt lat="43.345875" lon="13.1980033"><ele>598.0</ele><time>2026-04-04T13:03:54.73Z</time></trkpt><trkpt lat="43.345735" lon="13.1979683"><ele>598.0</ele><time>2026-04-04T13:03:55.73Z</time></trkpt><trkpt lat="43.3456183" lon="13.197865"><ele>598.0</ele><time>2026-04-04T13:03:56.73Z</time></trkpt><trkpt lat="43.34554" lon="13.1976817"><ele>598.0</ele><time>2026-04-04T13:03:57.728Z</time></trkpt><trkpt lat="43.345485" lon="13.1974417"><ele>597.0</ele><time>2026-04-04T13:03:58.728Z</time></trkpt><trkpt lat="43.345425" lon="13.197175"><ele>596.0</ele><time>2026-04-04T13:03:59.731Z</time></trkpt><trkpt lat="43.34536" lon="13.1969033"><ele>595.0</ele><time>2026-04-04T13:04:00.727Z</time></trkpt><trkpt lat="43.3452933" lon="13.1966217"><ele>593.0</ele><time>2026-04-04T13:04:01.73Z</time></trkpt><trkpt lat="43.3452283" lon="13.1963367"><ele>591.0</ele><time>2026-04-04T13:04:02.729Z</time></trkpt><trkpt lat="43.3451633" lon="13.196055"><ele>589.0</ele><time>2026-04-04T13:04:03.727Z</time></trkpt><trkpt lat="43.3451017" lon="13.1957717"><ele>587.0</ele><time>2026-04-04T13:04:04.729Z</time></trkpt><trkpt lat="43.3450333" lon="13.195495"><ele>585.0</ele><time>2026-04-04T13:04:05.73Z</time></trkpt><trkpt lat="43.3449417" lon="13.1952283"><ele>583.0</ele><time>2026-04-04T13:04:06.73Z</time></trkpt><trkpt lat="43.3448267" lon="13.1949733"><ele>585.3333333333334</ele><time>2026-04-04T13:04:07.731Z</time></trkpt><trkpt lat="43.3447" lon="13.1947333"><ele>587.6666666666666</ele><time>2026-04-04T13:04:08.735Z</time></trkpt><trkpt lat="43.3445717" lon="13.194495"><ele>590.0</ele><time>2026-04-04T13:04:09.728Z</time></trkpt><trkpt lat="43.3444517" lon="13.19425"><ele>587.0</ele><time>2026-04-04T13:04:10.73Z</time></trkpt><trkpt lat="43.3443467" lon="13.1940017"><ele>584.0</ele><time>2026-04-04T13:04:11.731Z</time></trkpt><trkpt lat="43.344255" lon="13.19376"><ele>581.0</ele><time>2026-04-04T13:04:12.731Z</time></trkpt><trkpt lat="43.3441717" lon="13.1935283"><ele>581.0</ele><time>2026-04-04T13:04:13.728Z</time></trkpt><trkpt lat="43.34408" lon="13.19332"><ele>581.0</ele><time>2026-04-04T13:04:14.734Z</time></trkpt><trkpt lat="43.343965" lon="13.1931517"><ele>581.0</ele><time>2026-04-04T13:04:15.727Z</time></trkpt><trkpt lat="43.3438217" lon="13.1930317"><ele>579.0</ele><time>2026-04-04T13:04:16.728Z</time></trkpt><trkpt lat="43.3436467" lon="13.19296"><ele>577.0</ele><time>2026-04-04T13:04:17.728Z</time></trkpt><trkpt lat="43.3434467" lon="13.1929533"><ele>575.0</ele><time>2026-04-04T13:04:18.726Z</time></trkpt><trkpt lat="43.3432317" lon="13.192975"><ele>573.0</ele><time>2026-04-04T13:04:19.728Z</time></trkpt><trkpt lat="43.343015" lon="13.193005"><ele>571.0</ele><time>2026-04-04T13:04:20.732Z</time></trkpt><trkpt lat="43.342805" lon="13.1930383"><ele>569.0</ele><time>2026-04-04T13:04:21.727Z</time></trkpt><trkpt lat="43.3426067" lon="13.1931017"><ele>575.0</ele><time>2026-04-04T13:04:22.732Z</time></trkpt><trkpt lat="43.3424133" lon="13.1931983"><ele>581.0</ele><time>2026-04-04T13:04:23.728Z</time></trkpt><trkpt lat="43.3422217" lon="13.193275"><ele>587.0</ele><time>2026-04-04T13:04:24.73Z</time></trkpt><trkpt lat="43.3420217" lon="13.1933067"><ele>587.0</ele><time>2026-04-04T13:04:25.727Z</time></trkpt><trkpt lat="43.3418183" lon="13.1933"><ele>587.0</ele><time>2026-04-04T13:04:26.737Z</time></trkpt><trkpt lat="43.34161" lon="13.1932767"><ele>587.0</ele><time>2026-04-04T13:04:27.73Z</time></trkpt><trkpt lat="43.3413983" lon="13.1932333"><ele>586.0</ele><time>2026-04-04T13:04:28.725Z</time></trkpt><trkpt lat="43.3411867" lon="13.193175"><ele>585.0</ele><time>2026-04-04T13:04:29.728Z</time></trkpt><trkpt lat="43.34097" lon="13.193135"><ele>584.0</ele><time>2026-04-04T13:04:30.729Z</time></trkpt><trkpt lat="43.34075" lon="13.1931233"><ele>578.5</ele><time>2026-04-04T13:04:31.73Z</time></trkpt><trkpt lat="43.340525" lon="13.1931517"><ele>573.0</ele><time>2026-04-04T13:04:32.733Z</time></trkpt><trkpt lat="43.3403017" lon="13.19322"><ele>573.0</ele><time>2026-04-04T13:04:33.729Z</time></trkpt><trkpt lat="43.34008" lon="13.1933033"><ele>573.0</ele><time>2026-04-04T13:04:34.729Z</time></trkpt><trkpt lat="43.3398683" lon="13.1933917"><ele>571.3333333333334</ele><time>2026-04-04T13:04:35.73Z</time></trkpt><trkpt lat="43.3396633" lon="13.1934767"><ele>569.6666666666667</ele><time>2026-04-04T13:04:36.728Z</time></trkpt><trkpt lat="43.3394633" lon="13.1935567"><ele>568.0</ele><time>2026-04-04T13:04:37.727Z</time></trkpt><trkpt lat="43.3392683" lon="13.193635"><ele>568.0</ele><time>2026-04-04T13:04:38.727Z</time></trkpt><trkpt lat="43.3390733" lon="13.1936783"><ele>568.0</ele><time>2026-04-04T13:04:39.729Z</time></trkpt><trkpt lat="43.33888" lon="13.193665"><ele>568.0</ele><time>2026-04-04T13:04:40.726Z</time></trkpt><trkpt lat="43.3386867" lon="13.1936167"><ele>567.3333333333334</ele><time>2026-04-04T13:04:41.73Z</time></trkpt><trkpt lat="43.33849" lon="13.1935783"><ele>566.6666666666666</ele><time>2026-04-04T13:04:42.728Z</time></trkpt><trkpt lat="43.33829" lon="13.1935717"><ele>566.0</ele><time>2026-04-04T13:04:43.726Z</time></trkpt><trkpt lat="43.33809" lon="13.1935867"><ele>566.6666666666666</ele><time>2026-04-04T13:04:44.744Z</time></trkpt><trkpt lat="43.3378883" lon="13.1935733"><ele>567.3333333333334</ele><time>2026-04-04T13:04:45.73Z</time></trkpt><trkpt lat="43.3376967" lon="13.1935317"><ele>568.0</ele><time>2026-04-04T13:04:46.727Z</time></trkpt><trkpt lat="43.337515" lon="13.193525"><ele>568.0</ele><time>2026-04-04T13:04:47.728Z</time></trkpt><trkpt lat="43.3373433" lon="13.1935967"><ele>568.0</ele><time>2026-04-04T13:04:48.731Z</time></trkpt><trkpt lat="43.33718" lon="13.1936967"><ele>568.0</ele><time>2026-04-04T13:04:49.727Z</time></trkpt><trkpt lat="43.33701" lon="13.1937783"><ele>566.6666666666667</ele><time>2026-04-04T13:04:50.73Z</time></trkpt><trkpt lat="43.3368383" lon="13.193815"><ele>565.3333333333334</ele><time>2026-04-04T13:04:51.729Z</time></trkpt><trkpt lat="43.3366733" lon="13.1937883"><ele>564.0</ele><time>2026-04-04T13:04:52.728Z</time></trkpt><trkpt lat="43.336505" lon="13.1936967"><ele>560.6666666666666</ele><time>2026-04-04T13:04:53.728Z</time></trkpt><trkpt lat="43.3363233" lon="13.1935283"><ele>557.3333333333333</ele><time>2026-04-04T13:04:54.726Z</time></trkpt><trkpt lat="43.3361283" lon="13.1933617"><ele>554.0</ele><time>2026-04-04T13:04:55.731Z</time></trkpt><trkpt lat="43.3359283" lon="13.1932233"><ele>554.3333333333333</ele><time>2026-04-04T13:04:56.728Z</time></trkpt><trkpt lat="43.3357283" lon="13.1931133"><ele>554.6666666666666</ele><time>2026-04-04T13:04:57.727Z</time></trkpt><trkpt lat="43.335535" lon="13.1930117"><ele>555.0</ele><time>2026-04-04T13:04:58.729Z</time></trkpt><trkpt lat="43.3353417" lon="13.1929267"><ele>555.0</ele><time>2026-04-04T13:04:59.731Z</time></trkpt><trkpt lat="43.33514" lon="13.1928833"><ele>555.0</ele><time>2026-04-04T13:05:00.732Z</time></trkpt><trkpt lat="43.33493" lon="13.1929"><ele>555.0</ele><time>2026-04-04T13:05:01.733Z</time></trkpt><trkpt lat="43.33471" lon="13.19295"><ele>553.0</ele><time>2026-04-04T13:05:02.738Z</time></trkpt><trkpt lat="43.3344783" lon="13.193005"><ele>551.0</ele><time>2026-04-04T13:05:03.73Z</time></trkpt><trkpt lat="43.334245" lon="13.193055"><ele>551.0</ele><time>2026-04-04T13:05:04.727Z</time></trkpt><trkpt lat="43.3340167" lon="13.1931067"><ele>551.0</ele><time>2026-04-04T13:05:05.728Z</time></trkpt><trkpt lat="43.3337883" lon="13.19316"><ele>549.0</ele><time>2026-04-04T13:05:06.729Z</time></trkpt><trkpt lat="43.33357" lon="13.19321"><ele>547.0</ele><time>2026-04-04T13:05:07.727Z</time></trkpt><trkpt lat="43.3333583" lon="13.1932583"><ele>545.0</ele><time>2026-04-04T13:05:08.73Z</time></trkpt><trkpt lat="43.333155" lon="13.1932933"><ele>544.0</ele><time>2026-04-04T13:05:09.728Z</time></trkpt><trkpt lat="43.3329517" lon="13.193295"><ele>543.0</ele><time>2026-04-04T13:05:10.723Z</time></trkpt><trkpt lat="43.3327467" lon="13.1932533"><ele>542.0</ele><time>2026-04-04T13:05:11.728Z</time></trkpt><trkpt lat="43.3325333" lon="13.1931733"><ele>539.0</ele><time>2026-04-04T13:05:12.727Z</time></trkpt><trkpt lat="43.332315" lon="13.1930867"><ele>536.0</ele><time>2026-04-04T13:05:13.729Z</time></trkpt><trkpt lat="43.3320967" lon="13.19299"><ele>536.0</ele><time>2026-04-04T13:05:14.73Z</time></trkpt><trkpt lat="43.3318767" lon="13.1928917"><ele>536.0</ele><time>2026-04-04T13:05:15.74Z</time></trkpt><trkpt lat="43.3316583" lon="13.1927967"><ele>536.0</ele><time>2026-04-04T13:05:16.73Z</time></trkpt><trkpt lat="43.331445" lon="13.1927067"><ele>536.0</ele><time>2026-04-04T13:05:17.73Z</time></trkpt><trkpt lat="43.3312483" lon="13.1926183"><ele>536.0</ele><time>2026-04-04T13:05:18.732Z</time></trkpt><trkpt lat="43.3310633" lon="13.1925333"><ele>537.0</ele><time>2026-04-04T13:05:19.731Z</time></trkpt><trkpt lat="43.3308883" lon="13.192455"><ele>538.0</ele><time>2026-04-04T13:05:20.731Z</time></trkpt><trkpt lat="43.330725" lon="13.192395"><ele>539.0</ele><time>2026-04-04T13:05:21.727Z</time></trkpt><trkpt lat="43.33057" lon="13.1923617"><ele>541.6666666666666</ele><time>2026-04-04T13:05:22.73Z</time></trkpt><trkpt lat="43.3304133" lon="13.1923867"><ele>544.3333333333334</ele><time>2026-04-04T13:05:23.726Z</time></trkpt><trkpt lat="43.33026" lon="13.1924783"><ele>547.0</ele><time>2026-04-04T13:05:24.727Z</time></trkpt><trkpt lat="43.33012" lon="13.1926217"><ele>547.0</ele><time>2026-04-04T13:05:25.728Z</time></trkpt><trkpt lat="43.3299983" lon="13.1928067"><ele>547.0</ele><time>2026-04-04T13:05:26.727Z</time></trkpt><trkpt lat="43.3299067" lon="13.1930267"><ele>547.0</ele><time>2026-04-04T13:05:27.729Z</time></trkpt><trkpt lat="43.3298317" lon="13.1932667"><ele>548.3333333333334</ele><time>2026-04-04T13:05:28.728Z</time></trkpt><trkpt lat="43.32974" lon="13.1934867"><ele>549.6666666666666</ele><time>2026-04-04T13:05:29.736Z</time></trkpt><trkpt lat="43.32961" lon="13.1936733"><ele>551.0</ele><time>2026-04-04T13:05:30.73Z</time></trkpt><trkpt lat="43.329455" lon="13.193805"><ele>551.0</ele><time>2026-04-04T13:05:31.727Z</time></trkpt><trkpt lat="43.3292917" lon="13.19385"><ele>551.0</ele><time>2026-04-04T13:05:32.727Z</time></trkpt><trkpt lat="43.3291433" lon="13.1938317"><ele>551.0</ele><time>2026-04-04T13:05:33.73Z</time></trkpt><trkpt lat="43.329015" lon="13.19375"><ele>551.0</ele><time>2026-04-04T13:05:34.735Z</time></trkpt><trkpt lat="43.3289117" lon="13.193595"><ele>551.0</ele><time>2026-04-04T13:05:35.731Z</time></trkpt><trkpt lat="43.3288033" lon="13.1934183"><ele>551.0</ele><time>2026-04-04T13:05:36.73Z</time></trkpt><trkpt lat="43.3286667" lon="13.1932717"><ele>550.6666666666666</ele><time>2026-04-04T13:05:37.731Z</time></trkpt><trkpt lat="43.328505" lon="13.1931767"><ele>550.3333333333334</ele><time>2026-04-04T13:05:38.747Z</time></trkpt><trkpt lat="43.3283383" lon="13.19311"><ele>550.0</ele><time>2026-04-04T13:05:39.73Z</time></trkpt><trkpt lat="43.3281883" lon="13.19301"><ele>550.0</ele><time>2026-04-04T13:05:40.729Z</time></trkpt><trkpt lat="43.3280667" lon="13.1928533"><ele>550.0</ele><time>2026-04-04T13:05:41.725Z</time></trkpt><trkpt lat="43.3279783" lon="13.1926217"><ele>550.0</ele><time>2026-04-04T13:05:42.734Z</time></trkpt><trkpt lat="43.3279083" lon="13.192345"><ele>546.3333333333334</ele><time>2026-04-04T13:05:43.727Z</time></trkpt><trkpt lat="43.32783" lon="13.192075"><ele>542.6666666666666</ele><time>2026-04-04T13:05:44.729Z</time></trkpt><trkpt lat="43.3277333" lon="13.19181"><ele>539.0</ele><time>2026-04-04T13:05:45.727Z</time></trkpt><trkpt lat="43.3276233" lon="13.19155"><ele>541.0</ele><time>2026-04-04T13:05:46.726Z</time></trkpt><trkpt lat="43.3274883" lon="13.1913017"><ele>543.0</ele><time>2026-04-04T13:05:47.73Z</time></trkpt><trkpt lat="43.327345" lon="13.1910667"><ele>545.0</ele><time>2026-04-04T13:05:48.728Z</time></trkpt><trkpt lat="43.3271833" lon="13.19086"><ele>543.3333333333333</ele><time>2026-04-04T13:05:49.729Z</time></trkpt><trkpt lat="43.3270083" lon="13.1906833"><ele>541.6666666666666</ele><time>2026-04-04T13:05:50.727Z</time></trkpt><trkpt lat="43.326845" lon="13.1905167"><ele>540.0</ele><time>2026-04-04T13:05:51.727Z</time></trkpt><trkpt lat="43.3266783" lon="13.1903483"><ele>540.0</ele><time>2026-04-04T13:05:52.729Z</time></trkpt><trkpt lat="43.3265067" lon="13.1901783"><ele>540.0</ele><time>2026-04-04T13:05:53.727Z</time></trkpt><trkpt lat="43.3263333" lon="13.1899983"><ele>540.0</ele><time>2026-04-04T13:05:54.728Z</time></trkpt><trkpt lat="43.3261567" lon="13.1898267"><ele>538.3333333333334</ele><time>2026-04-04T13:05:55.729Z</time></trkpt><trkpt lat="43.3259717" lon="13.1896767"><ele>536.6666666666667</ele><time>2026-04-04T13:05:56.75Z</time></trkpt><trkpt lat="43.3257733" lon="13.18956"><ele>535.0</ele><time>2026-04-04T13:05:57.734Z</time></trkpt><trkpt lat="43.3255667" lon="13.1894717"><ele>532.3333333333334</ele><time>2026-04-04T13:05:58.727Z</time></trkpt><trkpt lat="43.325365" lon="13.1893933"><ele>529.6666666666666</ele><time>2026-04-04T13:05:59.732Z</time></trkpt><trkpt lat="43.3251717" lon="13.1893283"><ele>527.0</ele><time>2026-04-04T13:06:00.73Z</time></trkpt><trkpt lat="43.324985" lon="13.1892833"><ele>527.0</ele><time>2026-04-04T13:06:01.728Z</time></trkpt><trkpt lat="43.324805" lon="13.18925"><ele>527.0</ele><time>2026-04-04T13:06:02.731Z</time></trkpt><trkpt lat="43.3246383" lon="13.189195"><ele>527.0</ele><time>2026-04-04T13:06:03.735Z</time></trkpt><trkpt lat="43.32449" lon="13.189095"><ele>523.6666666666666</ele><time>2026-04-04T13:06:04.725Z</time></trkpt><trkpt lat="43.3243733" lon="13.1889333"><ele>520.3333333333334</ele><time>2026-04-04T13:06:05.728Z</time></trkpt><trkpt lat="43.3242933" lon="13.1887283"><ele>517.0</ele><time>2026-04-04T13:06:06.728Z</time></trkpt><trkpt lat="43.3241867" lon="13.1885267"><ele>517.0</ele><time>2026-04-04T13:06:07.727Z</time></trkpt><trkpt lat="43.3240417" lon="13.1883683"><ele>517.0</ele><time>2026-04-04T13:06:08.727Z</time></trkpt><trkpt lat="43.32386" lon="13.18823"><ele>517.0</ele><time>2026-04-04T13:06:09.728Z</time></trkpt><trkpt lat="43.3236883" lon="13.1880983"><ele>514.6666666666667</ele><time>2026-04-04T13:06:10.728Z</time></trkpt><trkpt lat="43.3235433" lon="13.187935"><ele>512.3333333333334</ele><time>2026-04-04T13:06:11.728Z</time></trkpt><trkpt lat="43.3234383" lon="13.18774"><ele>510.0</ele><time>2026-04-04T13:06:12.726Z</time></trkpt><trkpt lat="43.323345" lon="13.1875517"><ele>510.0</ele><time>2026-04-04T13:06:13.727Z</time></trkpt><trkpt lat="43.3232367" lon="13.1874"><ele>510.0</ele><time>2026-04-04T13:06:14.728Z</time></trkpt><trkpt lat="43.3230917" lon="13.1873067"><ele>510.0</ele><time>2026-04-04T13:06:15.729Z</time></trkpt><trkpt lat="43.3229083" lon="13.1872567"><ele>508.33333333333337</ele><time>2026-04-04T13:06:16.727Z</time></trkpt><trkpt lat="43.3227" lon="13.1872183"><ele>506.6666666666667</ele><time>2026-04-04T13:06:17.73Z</time></trkpt><trkpt lat="43.322475" lon="13.1871833"><ele>505.0</ele><time>2026-04-04T13:06:18.728Z</time></trkpt><trkpt lat="43.32225" lon="13.1871533"><ele>504.6666666666667</ele><time>2026-04-04T13:06:19.729Z</time></trkpt><trkpt lat="43.32203" lon="13.187125"><ele>504.33333333333337</ele><time>2026-04-04T13:06:20.73Z</time></trkpt><trkpt lat="43.3218217" lon="13.1870933"><ele>504.0</ele><time>2026-04-04T13:06:21.729Z</time></trkpt><trkpt lat="43.3216367" lon="13.1870283"><ele>504.0</ele><time>2026-04-04T13:06:22.73Z</time></trkpt><trkpt lat="43.32147" lon="13.1869167"><ele>504.0</ele><time>2026-04-04T13:06:23.728Z</time></trkpt><trkpt lat="43.3213317" lon="13.1867367"><ele>504.0</ele><time>2026-04-04T13:06:24.729Z</time></trkpt><trkpt lat="43.3211983" lon="13.1865183"><ele>505.0</ele><time>2026-04-04T13:06:25.733Z</time></trkpt><trkpt lat="43.321075" lon="13.1862767"><ele>506.0</ele><time>2026-04-04T13:06:26.727Z</time></trkpt><trkpt lat="43.3209733" lon="13.1860133"><ele>507.0</ele><time>2026-04-04T13:06:27.73Z</time></trkpt><trkpt lat="43.32089" lon="13.1857383"><ele>505.66666666666663</ele><time>2026-04-04T13:06:28.732Z</time></trkpt><trkpt lat="43.3208117" lon="13.18546"><ele>504.3333333333333</ele><time>2026-04-04T13:06:29.729Z</time></trkpt><trkpt lat="43.320715" lon="13.1851967"><ele>503.0</ele><time>2026-04-04T13:06:30.728Z</time></trkpt><trkpt lat="43.3206067" lon="13.184955"><ele>502.3333333333333</ele><time>2026-04-04T13:06:31.73Z</time></trkpt><trkpt lat="43.320495" lon="13.1847317"><ele>501.66666666666663</ele><time>2026-04-04T13:06:32.752Z</time></trkpt><trkpt lat="43.3203733" lon="13.1845367"><ele>501.0</ele><time>2026-04-04T13:06:33.731Z</time></trkpt><trkpt lat="43.32024" lon="13.1843867"><ele>501.0</ele><time>2026-04-04T13:06:34.727Z</time></trkpt><trkpt lat="43.3200717" lon="13.184285"><ele>501.0</ele><time>2026-04-04T13:06:35.729Z</time></trkpt><trkpt lat="43.3198733" lon="13.1842367"><ele>501.0</ele><time>2026-04-04T13:06:36.731Z</time></trkpt><trkpt lat="43.3196517" lon="13.1842183"><ele>501.0</ele><time>2026-04-04T13:06:37.729Z</time></trkpt><trkpt lat="43.3194217" lon="13.1841983"><ele>501.0</ele><time>2026-04-04T13:06:38.731Z</time></trkpt><trkpt lat="43.3191967" lon="13.18418"><ele>501.0</ele><time>2026-04-04T13:06:39.73Z</time></trkpt><trkpt lat="43.31899" lon="13.1841683"><ele>501.0</ele><time>2026-04-04T13:06:40.728Z</time></trkpt><trkpt lat="43.3188133" lon="13.1841433"><ele>501.0</ele><time>2026-04-04T13:06:41.728Z</time></trkpt><trkpt lat="43.318665" lon="13.1840817"><ele>501.0</ele><time>2026-04-04T13:06:42.73Z</time></trkpt><trkpt lat="43.31855" lon="13.1839767"><ele>501.0</ele><time>2026-04-04T13:06:43.729Z</time></trkpt><trkpt lat="43.31848" lon="13.1838183"><ele>501.0</ele><time>2026-04-04T13:06:44.728Z</time></trkpt><trkpt lat="43.318455" lon="13.1835983"><ele>501.0</ele><time>2026-04-04T13:06:45.726Z</time></trkpt><trkpt lat="43.3184067" lon="13.183345"><ele>498.66666666666663</ele><time>2026-04-04T13:06:46.729Z</time></trkpt><trkpt lat="43.3183283" lon="13.1831017"><ele>496.3333333333333</ele><time>2026-04-04T13:06:47.73Z</time></trkpt><trkpt lat="43.318215" lon="13.18289"><ele>494.0</ele><time>2026-04-04T13:06:48.728Z</time></trkpt><trkpt lat="43.3180717" lon="13.18272"><ele>496.3333333333333</ele><time>2026-04-04T13:06:49.729Z</time></trkpt><trkpt lat="43.31789" lon="13.18259"><ele>498.66666666666663</ele><time>2026-04-04T13:06:50.738Z</time></trkpt><trkpt lat="43.3176933" lon="13.182485"><ele>501.0</ele><time>2026-04-04T13:06:51.728Z</time></trkpt><trkpt lat="43.3174983" lon="13.1823817"><ele>497.33333333333337</ele><time>2026-04-04T13:06:52.726Z</time></trkpt><trkpt lat="43.3173067" lon="13.18228"><ele>493.6666666666667</ele><time>2026-04-04T13:06:53.727Z</time></trkpt><trkpt lat="43.3171233" lon="13.1821683"><ele>490.0</ele><time>2026-04-04T13:06:54.732Z</time></trkpt><trkpt lat="43.3169583" lon="13.1820283"><ele>490.0</ele><time>2026-04-04T13:06:55.729Z</time></trkpt><trkpt lat="43.316825" lon="13.1818617"><ele>490.0</ele><time>2026-04-04T13:06:56.727Z</time></trkpt><trkpt lat="43.3166933" lon="13.1817233"><ele>490.0</ele><time>2026-04-04T13:06:57.728Z</time></trkpt><trkpt lat="43.3165483" lon="13.181625"><ele>490.33333333333337</ele><time>2026-04-04T13:06:58.729Z</time></trkpt><trkpt lat="43.3163783" lon="13.18158"><ele>490.66666666666663</ele><time>2026-04-04T13:06:59.725Z</time></trkpt><trkpt lat="43.3161767" lon="13.181585"><ele>491.0</ele><time>2026-04-04T13:07:00.728Z</time></trkpt><trkpt lat="43.3159733" lon="13.181585"><ele>491.0</ele><time>2026-04-04T13:07:01.729Z</time></trkpt><trkpt lat="43.3157783" lon="13.1815883"><ele>491.0</ele><time>2026-04-04T13:07:02.731Z</time></trkpt><trkpt lat="43.315595" lon="13.1816217"><ele>491.0</ele><time>2026-04-04T13:07:03.73Z</time></trkpt><trkpt lat="43.31542" lon="13.1817017"><ele>491.0</ele><time>2026-04-04T13:07:04.73Z</time></trkpt><trkpt lat="43.3152617" lon="13.18182"><ele>491.0</ele><time>2026-04-04T13:07:05.731Z</time></trkpt><trkpt lat="43.31512" lon="13.1819267"><ele>491.0</ele><time>2026-04-04T13:07:06.725Z</time></trkpt><trkpt lat="43.3149967" lon="13.182"><ele>491.0</ele><time>2026-04-04T13:07:07.731Z</time></trkpt><trkpt lat="43.3148933" lon="13.1820333"><ele>491.0</ele><time>2026-04-04T13:07:08.729Z</time></trkpt><trkpt lat="43.3148033" lon="13.1820217"><ele>491.0</ele><time>2026-04-04T13:07:09.724Z</time></trkpt><trkpt lat="43.3147367" lon="13.1819517"><ele>491.0</ele><time>2026-04-04T13:07:10.727Z</time></trkpt><trkpt lat="43.3146783" lon="13.181845"><ele>491.0</ele><time>2026-04-04T13:07:11.729Z</time></trkpt><trkpt lat="43.3146733" lon="13.1816917"><ele>492.3333333333333</ele><time>2026-04-04T13:07:12.73Z</time></trkpt><trkpt lat="43.31472" lon="13.18146"><ele>493.66666666666663</ele><time>2026-04-04T13:07:13.726Z</time></trkpt><trkpt lat="43.31472" lon="13.1812133"><ele>495.0</ele><time>2026-04-04T13:07:14.73Z</time></trkpt><trkpt lat="43.3146867" lon="13.1809733"><ele>495.0</ele><time>2026-04-04T13:07:15.732Z</time></trkpt><trkpt lat="43.3146583" lon="13.1807117"><ele>495.0</ele><time>2026-04-04T13:07:16.731Z</time></trkpt><trkpt lat="43.3146633" lon="13.1804383"><ele>495.0</ele><time>2026-04-04T13:07:17.729Z</time></trkpt><trkpt lat="43.3146617" lon="13.1801817"><ele>489.66666666666663</ele><time>2026-04-04T13:07:18.73Z</time></trkpt><trkpt lat="43.31464" lon="13.179955"><ele>484.3333333333333</ele><time>2026-04-04T13:07:19.728Z</time></trkpt><trkpt lat="43.3145867" lon="13.1797533"><ele>479.0</ele><time>2026-04-04T13:07:20.731Z</time></trkpt><trkpt lat="43.314485" lon="13.179575"><ele>475.66666666666663</ele><time>2026-04-04T13:07:21.726Z</time></trkpt><trkpt lat="43.3143433" lon="13.17941"><ele>472.33333333333337</ele><time>2026-04-04T13:07:22.729Z</time></trkpt><trkpt lat="43.3141633" lon="13.1792433"><ele>469.0</ele><time>2026-04-04T13:07:23.73Z</time></trkpt><trkpt lat="43.3139817" lon="13.17908"><ele>468.0</ele><time>2026-04-04T13:07:24.731Z</time></trkpt><trkpt lat="43.313805" lon="13.178905"><ele>467.0</ele><time>2026-04-04T13:07:25.731Z</time></trkpt><trkpt lat="43.3136217" lon="13.1787183"><ele>466.0</ele><time>2026-04-04T13:07:26.733Z</time></trkpt><trkpt lat="43.3134333" lon="13.1785183"><ele>466.0</ele><time>2026-04-04T13:07:27.73Z</time></trkpt><trkpt lat="43.3132483" lon="13.1783133"><ele>466.0</ele><time>2026-04-04T13:07:28.727Z</time></trkpt><trkpt lat="43.3130767" lon="13.1781167"><ele>466.33333333333337</ele><time>2026-04-04T13:07:29.729Z</time></trkpt><trkpt lat="43.312915" lon="13.177935"><ele>466.66666666666663</ele><time>2026-04-04T13:07:30.727Z</time></trkpt><trkpt lat="43.31276" lon="13.1777817"><ele>467.0</ele><time>2026-04-04T13:07:31.728Z</time></trkpt><trkpt lat="43.3126083" lon="13.1776683"><ele>467.0</ele><time>2026-04-04T13:07:32.731Z</time></trkpt><trkpt lat="43.3124417" lon="13.1776133"><ele>467.0</ele><time>2026-04-04T13:07:33.729Z</time></trkpt><trkpt lat="43.31228" lon="13.177605"><ele>467.0</ele><time>2026-04-04T13:07:34.728Z</time></trkpt><trkpt lat="43.3121283" lon="13.1776333"><ele>465.0</ele><time>2026-04-04T13:07:35.728Z</time></trkpt><trkpt lat="43.31199" lon="13.1776333"><ele>463.0</ele><time>2026-04-04T13:07:36.725Z</time></trkpt><trkpt lat="43.3118683" lon="13.177595"><ele>461.0</ele><time>2026-04-04T13:07:37.727Z</time></trkpt><trkpt lat="43.3117733" lon="13.1775033"><ele>459.0</ele><time>2026-04-04T13:07:38.728Z</time></trkpt><trkpt lat="43.3117117" lon="13.1773833"><ele>460.6</ele><time>2026-04-04T13:07:39.725Z</time></trkpt><trkpt lat="43.311655" lon="13.1772783"><ele>462.2</ele><time>2026-04-04T13:07:40.725Z</time></trkpt><trkpt lat="43.3115917" lon="13.1772133"><ele>463.80000000000007</ele><time>2026-04-04T13:07:41.727Z</time></trkpt><trkpt lat="43.3115133" lon="13.1772433"><ele>465.40000000000003</ele><time>2026-04-04T13:07:42.728Z</time></trkpt><trkpt lat="43.3114333" lon="13.1773067"><ele>467.0</ele><time>2026-04-04T13:07:43.728Z</time></trkpt><trkpt lat="43.311335" lon="13.177495"><ele>461.0</ele><time>2026-04-04T13:07:44.729Z</time></trkpt><trkpt lat="43.3112383" lon="13.1776567"><ele>455.0</ele><time>2026-04-04T13:07:45.725Z</time></trkpt><trkpt lat="43.3111167" lon="13.1777867"><ele>449.0</ele><time>2026-04-04T13:07:46.729Z</time></trkpt><trkpt lat="43.3109667" lon="13.1778767"><ele>449.0</ele><time>2026-04-04T13:07:47.73Z</time></trkpt><trkpt lat="43.3107833" lon="13.177935"><ele>449.0</ele><time>2026-04-04T13:07:48.726Z</time></trkpt><trkpt lat="43.3105817" lon="13.178005"><ele>449.0</ele><time>2026-04-04T13:07:49.728Z</time></trkpt><trkpt lat="43.3103733" lon="13.1781017"><ele>447.0</ele><time>2026-04-04T13:07:50.729Z</time></trkpt><trkpt lat="43.3101617" lon="13.17822"><ele>445.0</ele><time>2026-04-04T13:07:51.728Z</time></trkpt><trkpt lat="43.3099517" lon="13.17833"><ele>438.0</ele><time>2026-04-04T13:07:52.723Z</time></trkpt><trkpt lat="43.3097417" lon="13.1784467"><ele>431.0</ele><time>2026-04-04T13:07:53.728Z</time></trkpt><trkpt lat="43.309535" lon="13.17857"><ele>431.0</ele><time>2026-04-04T13:07:54.729Z</time></trkpt><trkpt lat="43.3093367" lon="13.1787067"><ele>431.0</ele><time>2026-04-04T13:07:55.727Z</time></trkpt><trkpt lat="43.3091483" lon="13.1788517"><ele>431.0</ele><time>2026-04-04T13:07:56.729Z</time></trkpt><trkpt lat="43.308965" lon="13.178985"><ele>430.3333333333333</ele><time>2026-04-04T13:07:57.731Z</time></trkpt><trkpt lat="43.3087683" lon="13.1791133"><ele>429.66666666666663</ele><time>2026-04-04T13:07:58.725Z</time></trkpt><trkpt lat="43.3085683" lon="13.1792367"><ele>429.0</ele><time>2026-04-04T13:07:59.727Z</time></trkpt><trkpt lat="43.3083583" lon="13.17937"><ele>429.0</ele><time>2026-04-04T13:08:00.733Z</time></trkpt><trkpt lat="43.3081467" lon="13.179515"><ele>429.0</ele><time>2026-04-04T13:08:01.728Z</time></trkpt><trkpt lat="43.3079417" lon="13.1796983"><ele>424.5</ele><time>2026-04-04T13:08:02.755Z</time></trkpt><trkpt lat="43.3077533" lon="13.1798867"><ele>420.0</ele><time>2026-04-04T13:08:03.728Z</time></trkpt><trkpt lat="43.30758" lon="13.1800733"><ele>420.0</ele><time>2026-04-04T13:08:04.726Z</time></trkpt><trkpt lat="43.3074233" lon="13.1802567"><ele>420.0</ele><time>2026-04-04T13:08:05.728Z</time></trkpt><trkpt lat="43.307295" lon="13.1804433"><ele>420.0</ele><time>2026-04-04T13:08:06.728Z</time></trkpt><trkpt lat="43.3071633" lon="13.180625"><ele>419.33333333333337</ele><time>2026-04-04T13:08:07.732Z</time></trkpt><trkpt lat="43.3070283" lon="13.1807683"><ele>418.6666666666667</ele><time>2026-04-04T13:08:08.728Z</time></trkpt><trkpt lat="43.3068733" lon="13.18087"><ele>418.0</ele><time>2026-04-04T13:08:09.726Z</time></trkpt><trkpt lat="43.3066817" lon="13.1809483"><ele>418.0</ele><time>2026-04-04T13:08:10.727Z</time></trkpt><trkpt lat="43.3064883" lon="13.18101"><ele>418.0</ele><time>2026-04-04T13:08:11.727Z</time></trkpt><trkpt lat="43.3063033" lon="13.1810583"><ele>418.0</ele><time>2026-04-04T13:08:12.733Z</time></trkpt><trkpt lat="43.3061283" lon="13.181085"><ele>414.0</ele><time>2026-04-04T13:08:13.73Z</time></trkpt><trkpt lat="43.3059517" lon="13.1810833"><ele>410.0</ele><time>2026-04-04T13:08:14.731Z</time></trkpt><trkpt lat="43.30578" lon="13.1810917"><ele>406.0</ele><time>2026-04-04T13:08:15.726Z</time></trkpt><trkpt lat="43.3056" lon="13.1811367"><ele>401.6666666666667</ele><time>2026-04-04T13:08:16.726Z</time></trkpt><trkpt lat="43.3054283" lon="13.1812133"><ele>397.33333333333337</ele><time>2026-04-04T13:08:17.729Z</time></trkpt><trkpt lat="43.305245" lon="13.18131"><ele>393.0</ele><time>2026-04-04T13:08:18.728Z</time></trkpt><trkpt lat="43.3050483" lon="13.18143"><ele>394.33333333333337</ele><time>2026-04-04T13:08:19.728Z</time></trkpt><trkpt lat="43.3048483" lon="13.1815517"><ele>395.6666666666667</ele><time>2026-04-04T13:08:20.739Z</time></trkpt><trkpt lat="43.3046467" lon="13.1816433"><ele>397.0</ele><time>2026-04-04T13:08:21.73Z</time></trkpt><trkpt lat="43.3044417" lon="13.1816967"><ele>397.0</ele><time>2026-04-04T13:08:22.729Z</time></trkpt><trkpt lat="43.3042417" lon="13.1817333"><ele>397.0</ele><time>2026-04-04T13:08:23.731Z</time></trkpt><trkpt lat="43.30405" lon="13.18176"><ele>397.0</ele><time>2026-04-04T13:08:24.731Z</time></trkpt><trkpt lat="43.30388" lon="13.1817833"><ele>395.0</ele><time>2026-04-04T13:08:25.726Z</time></trkpt><trkpt lat="43.303735" lon="13.1818133"><ele>393.0</ele><time>2026-04-04T13:08:26.731Z</time></trkpt><trkpt lat="43.30362" lon="13.18186"><ele>391.0</ele><time>2026-04-04T13:08:27.727Z</time></trkpt><trkpt lat="43.303535" lon="13.1819417"><ele>389.0</ele><time>2026-04-04T13:08:28.728Z</time></trkpt><trkpt lat="43.303485" lon="13.182075"><ele>389.0</ele><time>2026-04-04T13:08:29.731Z</time></trkpt><trkpt lat="43.3034617" lon="13.1822267"><ele>389.0</ele><time>2026-04-04T13:08:30.729Z</time></trkpt><trkpt lat="43.3034567" lon="13.1824"><ele>389.0</ele><time>2026-04-04T13:08:31.728Z</time></trkpt><trkpt lat="43.3034233" lon="13.1825617"><ele>389.0</ele><time>2026-04-04T13:08:32.738Z</time></trkpt><trkpt lat="43.3033567" lon="13.1827067"><ele>388.75</ele><time>2026-04-04T13:08:33.73Z</time></trkpt><trkpt lat="43.30325" lon="13.18282"><ele>388.5</ele><time>2026-04-04T13:08:34.729Z</time></trkpt><trkpt lat="43.3031067" lon="13.1828883"><ele>388.25</ele><time>2026-04-04T13:08:35.729Z</time></trkpt><trkpt lat="43.3029483" lon="13.1828967"><ele>388.0</ele><time>2026-04-04T13:08:36.732Z</time></trkpt><trkpt lat="43.3028" lon="13.1828433"><ele>388.0</ele><time>2026-04-04T13:08:37.731Z</time></trkpt><trkpt lat="43.30267" lon="13.1827417"><ele>388.0</ele><time>2026-04-04T13:08:38.737Z</time></trkpt><trkpt lat="43.3025667" lon="13.182565"><ele>388.0</ele><time>2026-04-04T13:08:39.73Z</time></trkpt><trkpt lat="43.3024733" lon="13.1823367"><ele>387.0</ele><time>2026-04-04T13:08:40.727Z</time></trkpt><trkpt lat="43.3023833" lon="13.182095"><ele>386.0</ele><time>2026-04-04T13:08:41.73Z</time></trkpt><trkpt lat="43.3023067" lon="13.18184"><ele>385.0</ele><time>2026-04-04T13:08:42.727Z</time></trkpt><trkpt lat="43.3022267" lon="13.181575"><ele>384.0</ele><time>2026-04-04T13:08:43.731Z</time></trkpt><trkpt lat="43.302145" lon="13.181315"><ele>383.0</ele><time>2026-04-04T13:08:44.731Z</time></trkpt><trkpt lat="43.302065" lon="13.1810667"><ele>382.0</ele><time>2026-04-04T13:08:45.729Z</time></trkpt><trkpt lat="43.301985" lon="13.18083"><ele>379.3333333333333</ele><time>2026-04-04T13:08:46.73Z</time></trkpt><trkpt lat="43.3019117" lon="13.1806067"><ele>376.6666666666667</ele><time>2026-04-04T13:08:47.73Z</time></trkpt><trkpt lat="43.3018317" lon="13.1804017"><ele>374.0</ele><time>2026-04-04T13:08:48.725Z</time></trkpt><trkpt lat="43.3017367" lon="13.1802233"><ele>374.0</ele><time>2026-04-04T13:08:49.728Z</time></trkpt><trkpt lat="43.3016133" lon="13.1800917"><ele>374.0</ele><time>2026-04-04T13:08:50.728Z</time></trkpt><trkpt lat="43.3014733" lon="13.1800117"><ele>374.0</ele><time>2026-04-04T13:08:51.728Z</time></trkpt><trkpt lat="43.3013133" lon="13.1799867"><ele>372.0</ele><time>2026-04-04T13:08:52.729Z</time></trkpt><trkpt lat="43.301135" lon="13.1800267"><ele>370.0</ele><time>2026-04-04T13:08:53.727Z</time></trkpt><trkpt lat="43.3009517" lon="13.18011"><ele>368.0</ele><time>2026-04-04T13:08:54.728Z</time></trkpt><trkpt lat="43.3007683" lon="13.1802283"><ele>368.0</ele><time>2026-04-04T13:08:55.726Z</time></trkpt><trkpt lat="43.300585" lon="13.1803867"><ele>368.0</ele><time>2026-04-04T13:08:56.751Z</time></trkpt><trkpt lat="43.3004183" lon="13.1805517"><ele>368.0</ele><time>2026-04-04T13:08:57.729Z</time></trkpt><trkpt lat="43.30026" lon="13.1806833"><ele>367.33333333333337</ele><time>2026-04-04T13:08:58.729Z</time></trkpt><trkpt lat="43.300095" lon="13.1807667"><ele>366.6666666666667</ele><time>2026-04-04T13:08:59.728Z</time></trkpt><trkpt lat="43.2999067" lon="13.1807967"><ele>366.0</ele><time>2026-04-04T13:09:00.735Z</time></trkpt><trkpt lat="43.299705" lon="13.1808033"><ele>363.6666666666667</ele><time>2026-04-04T13:09:01.733Z</time></trkpt><trkpt lat="43.2994933" lon="13.18075"><ele>361.33333333333337</ele><time>2026-04-04T13:09:02.729Z</time></trkpt><trkpt lat="43.2992917" lon="13.1806683"><ele>359.0</ele><time>2026-04-04T13:09:03.728Z</time></trkpt><trkpt lat="43.2991117" lon="13.1805517"><ele>357.33333333333337</ele><time>2026-04-04T13:09:04.729Z</time></trkpt><trkpt lat="43.2989233" lon="13.18045"><ele>355.6666666666667</ele><time>2026-04-04T13:09:05.731Z</time></trkpt><trkpt lat="43.2987167" lon="13.1803783"><ele>354.0</ele><time>2026-04-04T13:09:06.731Z</time></trkpt><trkpt lat="43.2985067" lon="13.180345"><ele>353.0</ele><time>2026-04-04T13:09:07.733Z</time></trkpt><trkpt lat="43.298275" lon="13.1803217"><ele>352.0</ele><time>2026-04-04T13:09:08.729Z</time></trkpt><trkpt lat="43.2980483" lon="13.1803117"><ele>350.5</ele><time>2026-04-04T13:09:09.731Z</time></trkpt><trkpt lat="43.2978233" lon="13.180305"><ele>349.0</ele><time>2026-04-04T13:09:10.728Z</time></trkpt><trkpt lat="43.2975933" lon="13.18029"><ele>349.0</ele><time>2026-04-04T13:09:11.729Z</time></trkpt><trkpt lat="43.2973717" lon="13.180255"><ele>349.0</ele><time>2026-04-04T13:09:12.73Z</time></trkpt><trkpt lat="43.29716" lon="13.18019"><ele>349.0</ele><time>2026-04-04T13:09:13.73Z</time></trkpt><trkpt lat="43.296955" lon="13.1801133"><ele>349.0</ele><time>2026-04-04T13:09:14.739Z</time></trkpt><trkpt lat="43.2967483" lon="13.180035"><ele>349.0</ele><time>2026-04-04T13:09:15.731Z</time></trkpt><trkpt lat="43.296535" lon="13.1799583"><ele>349.0</ele><time>2026-04-04T13:09:16.73Z</time></trkpt><trkpt lat="43.296325" lon="13.1798733"><ele>348.3333333333333</ele><time>2026-04-04T13:09:17.732Z</time></trkpt><trkpt lat="43.2961117" lon="13.1797917"><ele>347.6666666666667</ele><time>2026-04-04T13:09:18.731Z</time></trkpt><trkpt lat="43.2959033" lon="13.1797233"><ele>347.0</ele><time>2026-04-04T13:09:19.727Z</time></trkpt><trkpt lat="43.2956983" lon="13.179685"><ele>345.6666666666667</ele><time>2026-04-04T13:09:20.731Z</time></trkpt><trkpt lat="43.2954917" lon="13.1796933"><ele>344.3333333333333</ele><time>2026-04-04T13:09:21.731Z</time></trkpt><trkpt lat="43.2952883" lon="13.1797633"><ele>343.0</ele><time>2026-04-04T13:09:22.728Z</time></trkpt><trkpt lat="43.2950867" lon="13.1798883"><ele>341.0</ele><time>2026-04-04T13:09:23.734Z</time></trkpt><trkpt lat="43.29489" lon="13.180045"><ele>339.0</ele><time>2026-04-04T13:09:24.731Z</time></trkpt><trkpt lat="43.2946867" lon="13.1802083"><ele>339.0</ele><time>2026-04-04T13:09:25.73Z</time></trkpt><trkpt lat="43.2944767" lon="13.1803717"><ele>339.0</ele><time>2026-04-04T13:09:26.732Z</time></trkpt><trkpt lat="43.2942683" lon="13.18053"><ele>338.5</ele><time>2026-04-04T13:09:27.726Z</time></trkpt><trkpt lat="43.2940683" lon="13.1806867"><ele>338.0</ele><time>2026-04-04T13:09:28.728Z</time></trkpt><trkpt lat="43.2938783" lon="13.1808433"><ele>337.33333333333337</ele><time>2026-04-04T13:09:29.732Z</time></trkpt><trkpt lat="43.2936933" lon="13.1809917"><ele>336.6666666666667</ele><time>2026-04-04T13:09:30.729Z</time></trkpt><trkpt lat="43.29352" lon="13.181115"><ele>336.0</ele><time>2026-04-04T13:09:31.729Z</time></trkpt><trkpt lat="43.29334" lon="13.1811967"><ele>336.0</ele><time>2026-04-04T13:09:32.744Z</time></trkpt><trkpt lat="43.29315" lon="13.18122"><ele>336.0</ele><time>2026-04-04T13:09:33.732Z</time></trkpt><trkpt lat="43.29296" lon="13.1811833"><ele>336.0</ele><time>2026-04-04T13:09:34.73Z</time></trkpt><trkpt lat="43.2927683" lon="13.18112"><ele>334.3333333333333</ele><time>2026-04-04T13:09:35.732Z</time></trkpt><trkpt lat="43.29259" lon="13.1810567"><ele>332.66666666666663</ele><time>2026-04-04T13:09:36.73Z</time></trkpt><trkpt lat="43.2924383" lon="13.1809517"><ele>331.0</ele><time>2026-04-04T13:09:37.729Z</time></trkpt><trkpt lat="43.2923117" lon="13.180835"><ele>332.5</ele><time>2026-04-04T13:09:38.73Z</time></trkpt><trkpt lat="43.292195" lon="13.18074"><ele>334.0</ele><time>2026-04-04T13:09:39.732Z</time></trkpt><trkpt lat="43.2920733" lon="13.18069"><ele>335.5</ele><time>2026-04-04T13:09:40.728Z</time></trkpt><trkpt lat="43.2919483" lon="13.1807067"><ele>337.0</ele><time>2026-04-04T13:09:41.728Z</time></trkpt><trkpt lat="43.29182" lon="13.1807883"><ele>337.0</ele><time>2026-04-04T13:09:42.728Z</time></trkpt><trkpt lat="43.29169" lon="13.1809283"><ele>337.0</ele><time>2026-04-04T13:09:43.728Z</time></trkpt><trkpt lat="43.291535" lon="13.181065"><ele>337.0</ele><time>2026-04-04T13:09:44.73Z</time></trkpt><trkpt lat="43.2913467" lon="13.181155"><ele>339.66666666666663</ele><time>2026-04-04T13:09:45.73Z</time></trkpt><trkpt lat="43.29115" lon="13.1812183"><ele>342.3333333333333</ele><time>2026-04-04T13:09:46.73Z</time></trkpt><trkpt lat="43.290945" lon="13.18125"><ele>345.0</ele><time>2026-04-04T13:09:47.732Z</time></trkpt><trkpt lat="43.2907517" lon="13.1812983"><ele>346.6666666666667</ele><time>2026-04-04T13:09:48.727Z</time></trkpt><trkpt lat="43.2905733" lon="13.1813933"><ele>348.33333333333337</ele><time>2026-04-04T13:09:49.727Z</time></trkpt><trkpt lat="43.2904117" lon="13.1815283"><ele>350.0</ele><time>2026-04-04T13:09:50.738Z</time></trkpt><trkpt lat="43.2902783" lon="13.1817033"><ele>344.33333333333337</ele><time>2026-04-04T13:09:51.728Z</time></trkpt><trkpt lat="43.2901317" lon="13.18185"><ele>338.6666666666667</ele><time>2026-04-04T13:09:52.727Z</time></trkpt><trkpt lat="43.2899733" lon="13.1819533"><ele>333.0</ele><time>2026-04-04T13:09:53.727Z</time></trkpt><trkpt lat="43.2897883" lon="13.182015"><ele>334.0</ele><time>2026-04-04T13:09:54.729Z</time></trkpt><trkpt lat="43.2895817" lon="13.1820433"><ele>335.0</ele><time>2026-04-04T13:09:55.728Z</time></trkpt><trkpt lat="43.2893733" lon="13.1820467"><ele>336.0</ele><time>2026-04-04T13:09:56.731Z</time></trkpt><trkpt lat="43.2891617" lon="13.1820233"><ele>336.0</ele><time>2026-04-04T13:09:57.73Z</time></trkpt><trkpt lat="43.2889533" lon="13.1819833"><ele>336.0</ele><time>2026-04-04T13:09:58.727Z</time></trkpt><trkpt lat="43.2887467" lon="13.18193"><ele>336.0</ele><time>2026-04-04T13:09:59.726Z</time></trkpt><trkpt lat="43.2885317" lon="13.18186"><ele>332.5</ele><time>2026-04-04T13:10:00.737Z</time></trkpt><trkpt lat="43.2883167" lon="13.18176"><ele>329.0</ele><time>2026-04-04T13:10:01.728Z</time></trkpt><trkpt lat="43.2881033" lon="13.18163"><ele>334.5</ele><time>2026-04-04T13:10:02.727Z</time></trkpt><trkpt lat="43.2878933" lon="13.1815217"><ele>340.0</ele><time>2026-04-04T13:10:03.724Z</time></trkpt><trkpt lat="43.2876733" lon="13.18144"><ele>340.0</ele><time>2026-04-04T13:10:04.729Z</time></trkpt><trkpt lat="43.287445" lon="13.1813967"><ele>340.0</ele><time>2026-04-04T13:10:05.731Z</time></trkpt><trkpt lat="43.2872183" lon="13.1813733"><ele>341.0</ele><time>2026-04-04T13:10:06.729Z</time></trkpt><trkpt lat="43.2869883" lon="13.18135"><ele>342.0</ele><time>2026-04-04T13:10:07.726Z</time></trkpt><trkpt lat="43.2867567" lon="13.18133"><ele>342.0</ele><time>2026-04-04T13:10:08.738Z</time></trkpt><trkpt lat="43.2865217" lon="13.1813083"><ele>342.0</ele><time>2026-04-04T13:10:09.727Z</time></trkpt><trkpt lat="43.2862883" lon="13.1812867"><ele>341.0</ele><time>2026-04-04T13:10:10.727Z</time></trkpt><trkpt lat="43.2860567" lon="13.1812667"><ele>340.0</ele><time>2026-04-04T13:10:11.733Z</time></trkpt><trkpt lat="43.2858283" lon="13.18125"><ele>340.0</ele><time>2026-04-04T13:10:12.732Z</time></trkpt><trkpt lat="43.285605" lon="13.18123"><ele>340.0</ele><time>2026-04-04T13:10:13.729Z</time></trkpt><trkpt lat="43.2853933" lon="13.1812183"><ele>340.0</ele><time>2026-04-04T13:10:14.729Z</time></trkpt><trkpt lat="43.2851917" lon="13.181235"><ele>339.3333333333333</ele><time>2026-04-04T13:10:15.728Z</time></trkpt><trkpt lat="43.284995" lon="13.181295"><ele>338.6666666666667</ele><time>2026-04-04T13:10:16.728Z</time></trkpt><trkpt lat="43.2847933" lon="13.1813983"><ele>338.0</ele><time>2026-04-04T13:10:17.728Z</time></trkpt><trkpt lat="43.284585" lon="13.1815133"><ele>330.0</ele><time>2026-04-04T13:10:18.73Z</time></trkpt><trkpt lat="43.2843667" lon="13.1816183"><ele>322.0</ele><time>2026-04-04T13:10:19.728Z</time></trkpt><trkpt lat="43.2841433" lon="13.1817383"><ele>320.0</ele><time>2026-04-04T13:10:20.728Z</time></trkpt><trkpt lat="43.28392" lon="13.18186"><ele>318.0</ele><time>2026-04-04T13:10:21.731Z</time></trkpt><trkpt lat="43.2837" lon="13.1819883"><ele>318.0</ele><time>2026-04-04T13:10:22.731Z</time></trkpt><trkpt lat="43.2834783" lon="13.1821167"><ele>318.0</ele><time>2026-04-04T13:10:23.727Z</time></trkpt><trkpt lat="43.2832567" lon="13.182245"><ele>315.5</ele><time>2026-04-04T13:10:24.729Z</time></trkpt><trkpt lat="43.28304" lon="13.182375"><ele>313.0</ele><time>2026-04-04T13:10:25.729Z</time></trkpt><trkpt lat="43.28283" lon="13.1824983"><ele>313.0</ele><time>2026-04-04T13:10:26.732Z</time></trkpt><trkpt lat="43.2826283" lon="13.1826117"><ele>313.0</ele><time>2026-04-04T13:10:27.728Z</time></trkpt><trkpt lat="43.2824317" lon="13.1827167"><ele>313.0</ele><time>2026-04-04T13:10:28.727Z</time></trkpt><trkpt lat="43.2822467" lon="13.1828117"><ele>309.0</ele><time>2026-04-04T13:10:29.73Z</time></trkpt><trkpt lat="43.282075" lon="13.1829033"><ele>305.0</ele><time>2026-04-04T13:10:30.73Z</time></trkpt><trkpt lat="43.2819167" lon="13.1830017"><ele>301.0</ele><time>2026-04-04T13:10:31.728Z</time></trkpt><trkpt lat="43.281775" lon="13.1831233"><ele>301.66666666666663</ele><time>2026-04-04T13:10:32.73Z</time></trkpt><trkpt lat="43.2816567" lon="13.1832917"><ele>302.3333333333333</ele><time>2026-04-04T13:10:33.729Z</time></trkpt><trkpt lat="43.281565" lon="13.1835117"><ele>303.0</ele><time>2026-04-04T13:10:34.725Z</time></trkpt><trkpt lat="43.2814917" lon="13.1837533"><ele>300.3333333333333</ele><time>2026-04-04T13:10:35.729Z</time></trkpt><trkpt lat="43.28142" lon="13.1839717"><ele>297.66666666666663</ele><time>2026-04-04T13:10:36.73Z</time></trkpt><trkpt lat="43.2813383" lon="13.18416"><ele>295.0</ele><time>2026-04-04T13:10:37.729Z</time></trkpt><trkpt lat="43.2812317" lon="13.1843067"><ele>295.0</ele><time>2026-04-04T13:10:38.732Z</time></trkpt><trkpt lat="43.2810817" lon="13.1844"><ele>295.0</ele><time>2026-04-04T13:10:39.73Z</time></trkpt><trkpt lat="43.2809133" lon="13.18444"><ele>295.0</ele><time>2026-04-04T13:10:40.729Z</time></trkpt><trkpt lat="43.28073" lon="13.18446"><ele>293.3333333333333</ele><time>2026-04-04T13:10:41.727Z</time></trkpt><trkpt lat="43.280545" lon="13.1844867"><ele>291.6666666666667</ele><time>2026-04-04T13:10:42.731Z</time></trkpt><trkpt lat="43.280375" lon="13.184555"><ele>290.0</ele><time>2026-04-04T13:10:43.729Z</time></trkpt><trkpt lat="43.28023" lon="13.1846383"><ele>290.0</ele><time>2026-04-04T13:10:44.744Z</time></trkpt><trkpt lat="43.2801117" lon="13.1847367"><ele>290.0</ele><time>2026-04-04T13:10:45.727Z</time></trkpt><trkpt lat="43.280035" lon="13.184855"><ele>290.0</ele><time>2026-04-04T13:10:46.729Z</time></trkpt><trkpt lat="43.28001" lon="13.18499"><ele>290.0</ele><time>2026-04-04T13:10:47.73Z</time></trkpt><trkpt lat="43.280035" lon="13.185125"><ele>289.83333333333337</ele><time>2026-04-04T13:10:48.728Z</time></trkpt><trkpt lat="43.2800683" lon="13.1852433"><ele>289.6666666666667</ele><time>2026-04-04T13:10:49.729Z</time></trkpt><trkpt lat="43.280085" lon="13.1853533"><ele>289.5</ele><time>2026-04-04T13:10:50.727Z</time></trkpt><trkpt lat="43.2800333" lon="13.1854033"><ele>289.3333333333333</ele><time>2026-04-04T13:10:51.727Z</time></trkpt><trkpt lat="43.2799133" lon="13.1853617"><ele>289.16666666666663</ele><time>2026-04-04T13:10:53.728Z</time></trkpt><trkpt lat="43.27985" lon="13.1852783"><ele>289.0</ele><time>2026-04-04T13:10:54.729Z</time></trkpt><trkpt lat="43.279835" lon="13.1851"><ele>289.0</ele><time>2026-04-04T13:10:55.727Z</time></trkpt><trkpt lat="43.2797967" lon="13.1849417"><ele>289.0</ele><time>2026-04-04T13:10:56.73Z</time></trkpt><trkpt lat="43.2797133" lon="13.1848017"><ele>289.0</ele><time>2026-04-04T13:10:57.728Z</time></trkpt><trkpt lat="43.2795983" lon="13.184685"><ele>289.0</ele><time>2026-04-04T13:10:58.728Z</time></trkpt><trkpt lat="43.279445" lon="13.184595"><ele>293.3333333333333</ele><time>2026-04-04T13:10:59.728Z</time></trkpt><trkpt lat="43.2792817" lon="13.1845433"><ele>297.6666666666667</ele><time>2026-04-04T13:11:00.728Z</time></trkpt><trkpt lat="43.2791133" lon="13.1845333"><ele>302.0</ele><time>2026-04-04T13:11:01.727Z</time></trkpt><trkpt lat="43.2789333" lon="13.1845883"><ele>300.0</ele><time>2026-04-04T13:11:02.759Z</time></trkpt><trkpt lat="43.2787417" lon="13.184675"><ele>298.0</ele><time>2026-04-04T13:11:03.729Z</time></trkpt><trkpt lat="43.2785417" lon="13.1847733"><ele>296.0</ele><time>2026-04-04T13:11:04.728Z</time></trkpt><trkpt lat="43.2783333" lon="13.1848617"><ele>296.0</ele><time>2026-04-04T13:11:05.729Z</time></trkpt><trkpt lat="43.2781183" lon="13.1849317"><ele>296.0</ele><time>2026-04-04T13:11:06.729Z</time></trkpt><trkpt lat="43.27791" lon="13.18495"><ele>296.0</ele><time>2026-04-04T13:11:07.728Z</time></trkpt><trkpt lat="43.277715" lon="13.184965"><ele>296.0</ele><time>2026-04-04T13:11:08.733Z</time></trkpt><trkpt lat="43.2775267" lon="13.1849683"><ele>296.0</ele><time>2026-04-04T13:11:09.728Z</time></trkpt><trkpt lat="43.277355" lon="13.1849467"><ele>296.0</ele><time>2026-04-04T13:11:10.727Z</time></trkpt><trkpt lat="43.27719" lon="13.1849217"><ele>296.0</ele><time>2026-04-04T13:11:11.726Z</time></trkpt><trkpt lat="43.2770483" lon="13.1848967"><ele>296.0</ele><time>2026-04-04T13:11:12.73Z</time></trkpt><trkpt lat="43.2769133" lon="13.1848567"><ele>296.0</ele><time>2026-04-04T13:11:13.73Z</time></trkpt><trkpt lat="43.2767867" lon="13.1848167"><ele>296.0</ele><time>2026-04-04T13:11:14.733Z</time></trkpt><trkpt lat="43.276665" lon="13.18477"><ele>298.5</ele><time>2026-04-04T13:11:15.729Z</time></trkpt><trkpt lat="43.2765533" lon="13.1847167"><ele>301.0</ele><time>2026-04-04T13:11:16.731Z</time></trkpt><trkpt lat="43.2764467" lon="13.1846633"><ele>303.5</ele><time>2026-04-04T13:11:17.729Z</time></trkpt><trkpt lat="43.2763383" lon="13.1846183"><ele>306.0</ele><time>2026-04-04T13:11:18.728Z</time></trkpt><trkpt lat="43.2762283" lon="13.18457"><ele>306.0</ele><time>2026-04-04T13:11:19.728Z</time></trkpt><trkpt lat="43.27612" lon="13.1845233"><ele>306.0</ele><time>2026-04-04T13:11:20.729Z</time></trkpt><trkpt lat="43.2760133" lon="13.1844817"><ele>306.0</ele><time>2026-04-04T13:11:21.727Z</time></trkpt><trkpt lat="43.2759083" lon="13.184455"><ele>306.0</ele><time>2026-04-04T13:11:22.727Z</time></trkpt><trkpt lat="43.275795" lon="13.1844867"><ele>306.0</ele><time>2026-04-04T13:11:23.733Z</time></trkpt><trkpt lat="43.275695" lon="13.1845417"><ele>305.5</ele><time>2026-04-04T13:11:24.727Z</time></trkpt><trkpt lat="43.2755883" lon="13.1846133"><ele>305.0</ele><time>2026-04-04T13:11:25.729Z</time></trkpt><trkpt lat="43.2754767" lon="13.1847017"><ele>304.5</ele><time>2026-04-04T13:11:26.73Z</time></trkpt><trkpt lat="43.2753517" lon="13.1848233"><ele>304.0</ele><time>2026-04-04T13:11:27.728Z</time></trkpt><trkpt lat="43.275205" lon="13.184965"><ele>304.0</ele><time>2026-04-04T13:11:28.731Z</time></trkpt><trkpt lat="43.275035" lon="13.1850983"><ele>304.0</ele><time>2026-04-04T13:11:29.729Z</time></trkpt><trkpt lat="43.27484" lon="13.1852467"><ele>304.0</ele><time>2026-04-04T13:11:30.732Z</time></trkpt><trkpt lat="43.2746367" lon="13.1854"><ele>304.0</ele><time>2026-04-04T13:11:31.727Z</time></trkpt><trkpt lat="43.27443" lon="13.1855667"><ele>304.0</ele><time>2026-04-04T13:11:32.732Z</time></trkpt><trkpt lat="43.27422" lon="13.1857367"><ele>301.0</ele><time>2026-04-04T13:11:33.729Z</time></trkpt><trkpt lat="43.2740083" lon="13.1859117"><ele>298.0</ele><time>2026-04-04T13:11:34.729Z</time></trkpt><trkpt lat="43.2737967" lon="13.1860867"><ele>304.5</ele><time>2026-04-04T13:11:35.73Z</time></trkpt><trkpt lat="43.2735883" lon="13.186265"><ele>311.0</ele><time>2026-04-04T13:11:36.731Z</time></trkpt><trkpt lat="43.2733733" lon="13.1864433"><ele>305.0</ele><time>2026-04-04T13:11:37.728Z</time></trkpt><trkpt lat="43.27316" lon="13.1866217"><ele>299.0</ele><time>2026-04-04T13:11:38.755Z</time></trkpt><trkpt lat="43.2729517" lon="13.1868"><ele>299.0</ele><time>2026-04-04T13:11:39.731Z</time></trkpt><trkpt lat="43.2727517" lon="13.18697"><ele>299.0</ele><time>2026-04-04T13:11:40.729Z</time></trkpt><trkpt lat="43.2725517" lon="13.1871383"><ele>299.0</ele><time>2026-04-04T13:11:41.729Z</time></trkpt><trkpt lat="43.27235" lon="13.1872967"><ele>299.0</ele><time>2026-04-04T13:11:42.735Z</time></trkpt><trkpt lat="43.27214" lon="13.1874383"><ele>295.5</ele><time>2026-04-04T13:11:43.731Z</time></trkpt><trkpt lat="43.271925" lon="13.1875617"><ele>292.0</ele><time>2026-04-04T13:11:44.73Z</time></trkpt><trkpt lat="43.2717083" lon="13.1876733"><ele>292.0</ele><time>2026-04-04T13:11:45.73Z</time></trkpt><trkpt lat="43.2714883" lon="13.18778"><ele>292.0</ele><time>2026-04-04T13:11:46.728Z</time></trkpt><trkpt lat="43.2712767" lon="13.1878833"><ele>290.66666666666663</ele><time>2026-04-04T13:11:47.73Z</time></trkpt><trkpt lat="43.2710767" lon="13.1879867"><ele>289.3333333333333</ele><time>2026-04-04T13:11:48.728Z</time></trkpt><trkpt lat="43.2708933" lon="13.1881033"><ele>288.0</ele><time>2026-04-04T13:11:49.732Z</time></trkpt><trkpt lat="43.270735" lon="13.1882483"><ele>297.0</ele><time>2026-04-04T13:11:50.732Z</time></trkpt><trkpt lat="43.2706067" lon="13.188435"><ele>306.0</ele><time>2026-04-04T13:11:51.729Z</time></trkpt><trkpt lat="43.2704933" lon="13.1886567"><ele>315.0</ele><time>2026-04-04T13:11:52.729Z</time></trkpt><trkpt lat="43.27036" lon="13.18888"><ele>306.6666666666667</ele><time>2026-04-04T13:11:53.729Z</time></trkpt><trkpt lat="43.2702033" lon="13.1890833"><ele>298.33333333333337</ele><time>2026-04-04T13:11:54.728Z</time></trkpt><trkpt lat="43.270025" lon="13.1892667"><ele>290.0</ele><time>2026-04-04T13:11:55.728Z</time></trkpt><trkpt lat="43.269835" lon="13.189445"><ele>299.0</ele><time>2026-04-04T13:11:56.731Z</time></trkpt><trkpt lat="43.2696317" lon="13.1896067"><ele>308.0</ele><time>2026-04-04T13:11:57.733Z</time></trkpt><trkpt lat="43.2694267" lon="13.1897567"><ele>297.6666666666667</ele><time>2026-04-04T13:11:58.727Z</time></trkpt><trkpt lat="43.26923" lon="13.1898867"><ele>287.3333333333333</ele><time>2026-04-04T13:11:59.729Z</time></trkpt><trkpt lat="43.2690267" lon="13.1899617"><ele>277.0</ele><time>2026-04-04T13:12:00.73Z</time></trkpt><trkpt lat="43.2688267" lon="13.1899933"><ele>276.66666666666663</ele><time>2026-04-04T13:12:01.727Z</time></trkpt><trkpt lat="43.2686367" lon="13.189965"><ele>276.3333333333333</ele><time>2026-04-04T13:12:02.73Z</time></trkpt><trkpt lat="43.2684633" lon="13.189895"><ele>276.0</ele><time>2026-04-04T13:12:03.729Z</time></trkpt><trkpt lat="43.2682983" lon="13.1898267"><ele>279.0</ele><time>2026-04-04T13:12:04.726Z</time></trkpt><trkpt lat="43.268145" lon="13.1898"><ele>282.0</ele><time>2026-04-04T13:12:05.728Z</time></trkpt><trkpt lat="43.2680017" lon="13.1897867"><ele>285.0</ele><time>2026-04-04T13:12:06.728Z</time></trkpt><trkpt lat="43.2678633" lon="13.1898483"><ele>288.0</ele><time>2026-04-04T13:12:07.728Z</time></trkpt><trkpt lat="43.26774" lon="13.189935"><ele>288.0</ele><time>2026-04-04T13:12:08.728Z</time></trkpt><trkpt lat="43.2676417" lon="13.190045"><ele>288.0</ele><time>2026-04-04T13:12:09.729Z</time></trkpt><trkpt lat="43.267555" lon="13.1901767"><ele>288.0</ele><time>2026-04-04T13:12:10.731Z</time></trkpt><trkpt lat="43.2674517" lon="13.1903217"><ele>288.0</ele><time>2026-04-04T13:12:11.729Z</time></trkpt><trkpt lat="43.2673117" lon="13.19048"><ele>289.3333333333333</ele><time>2026-04-04T13:12:12.727Z</time></trkpt><trkpt lat="43.2671567" lon="13.1906317"><ele>290.66666666666663</ele><time>2026-04-04T13:12:13.729Z</time></trkpt><trkpt lat="43.266985" lon="13.1908"><ele>292.0</ele><time>2026-04-04T13:12:14.731Z</time></trkpt><trkpt lat="43.2668133" lon="13.19097"><ele>286.66666666666663</ele><time>2026-04-04T13:12:15.727Z</time></trkpt><trkpt lat="43.266635" lon="13.1911167"><ele>281.3333333333333</ele><time>2026-04-04T13:12:16.729Z</time></trkpt><trkpt lat="43.2664583" lon="13.19125"><ele>276.0</ele><time>2026-04-04T13:12:17.731Z</time></trkpt><trkpt lat="43.2662917" lon="13.1913767"><ele>275.0</ele><time>2026-04-04T13:12:18.727Z</time></trkpt><trkpt lat="43.2661267" lon="13.19149"><ele>274.0</ele><time>2026-04-04T13:12:19.727Z</time></trkpt><trkpt lat="43.265965" lon="13.1915867"><ele>273.0</ele><time>2026-04-04T13:12:20.731Z</time></trkpt><trkpt lat="43.26581" lon="13.19169"><ele>269.0</ele><time>2026-04-04T13:12:21.727Z</time></trkpt><trkpt lat="43.2656583" lon="13.1917833"><ele>265.0</ele><time>2026-04-04T13:12:22.73Z</time></trkpt><trkpt lat="43.2655117" lon="13.19187"><ele>261.0</ele><time>2026-04-04T13:12:23.728Z</time></trkpt><trkpt lat="43.265365" lon="13.1919633"><ele>259.6666666666667</ele><time>2026-04-04T13:12:24.73Z</time></trkpt><trkpt lat="43.265215" lon="13.1920483"><ele>258.33333333333337</ele><time>2026-04-04T13:12:25.724Z</time></trkpt><trkpt lat="43.2650633" lon="13.1921367"><ele>257.0</ele><time>2026-04-04T13:12:26.731Z</time></trkpt><trkpt lat="43.2649117" lon="13.19222"><ele>256.33333333333337</ele><time>2026-04-04T13:12:27.728Z</time></trkpt><trkpt lat="43.2647617" lon="13.1923033"><ele>255.66666666666669</ele><time>2026-04-04T13:12:28.727Z</time></trkpt><trkpt lat="43.264615" lon="13.192385"><ele>255.0</ele><time>2026-04-04T13:12:29.73Z</time></trkpt><trkpt lat="43.2644683" lon="13.1924917"><ele>255.0</ele><time>2026-04-04T13:12:30.725Z</time></trkpt><trkpt lat="43.2643267" lon="13.1926"><ele>255.0</ele><time>2026-04-04T13:12:31.73Z</time></trkpt><trkpt lat="43.2641883" lon="13.192725"><ele>255.0</ele><time>2026-04-04T13:12:32.745Z</time></trkpt><trkpt lat="43.26405" lon="13.1928667"><ele>255.66666666666669</ele><time>2026-04-04T13:12:33.73Z</time></trkpt><trkpt lat="43.2639117" lon="13.193005"><ele>256.33333333333337</ele><time>2026-04-04T13:12:34.728Z</time></trkpt><trkpt lat="43.26377" lon="13.1931433"><ele>257.0</ele><time>2026-04-04T13:12:35.727Z</time></trkpt><trkpt lat="43.2636283" lon="13.1932783"><ele>257.0</ele><time>2026-04-04T13:12:36.726Z</time></trkpt><trkpt lat="43.263485" lon="13.1934167"><ele>257.0</ele><time>2026-04-04T13:12:37.729Z</time></trkpt><trkpt lat="43.26334" lon="13.1935467"><ele>257.0</ele><time>2026-04-04T13:12:38.727Z</time></trkpt><trkpt lat="43.2631933" lon="13.1936533"><ele>259.33333333333337</ele><time>2026-04-04T13:12:39.726Z</time></trkpt><trkpt lat="43.2630417" lon="13.1937183"><ele>261.6666666666667</ele><time>2026-04-04T13:12:40.728Z</time></trkpt><trkpt lat="43.2628767" lon="13.1937667"><ele>264.0</ele><time>2026-04-04T13:12:41.723Z</time></trkpt><trkpt lat="43.2627083" lon="13.1937867"><ele>264.0</ele><time>2026-04-04T13:12:42.728Z</time></trkpt><trkpt lat="43.2625333" lon="13.19381"><ele>264.0</ele><time>2026-04-04T13:12:43.73Z</time></trkpt><trkpt lat="43.262355" lon="13.1938317"><ele>264.0</ele><time>2026-04-04T13:12:44.727Z</time></trkpt><trkpt lat="43.2621833" lon="13.1938517"><ele>265.3333333333333</ele><time>2026-04-04T13:12:45.728Z</time></trkpt><trkpt lat="43.2620133" lon="13.193875"><ele>266.66666666666663</ele><time>2026-04-04T13:12:46.727Z</time></trkpt><trkpt lat="43.2618433" lon="13.193895"><ele>268.0</ele><time>2026-04-04T13:12:47.726Z</time></trkpt><trkpt lat="43.2616733" lon="13.1939317"><ele>268.0</ele><time>2026-04-04T13:12:48.727Z</time></trkpt><trkpt lat="43.2615083" lon="13.1939683"><ele>268.0</ele><time>2026-04-04T13:12:49.728Z</time></trkpt><trkpt lat="43.2613617" lon="13.1940083"><ele>268.0</ele><time>2026-04-04T13:12:50.74Z</time></trkpt><trkpt lat="43.2612283" lon="13.1940617"><ele>265.5</ele><time>2026-04-04T13:12:51.727Z</time></trkpt><trkpt lat="43.2611083" lon="13.1941117"><ele>263.0</ele><time>2026-04-04T13:12:52.727Z</time></trkpt><trkpt lat="43.2609967" lon="13.1941633"><ele>260.5</ele><time>2026-04-04T13:12:53.729Z</time></trkpt><trkpt lat="43.26089" lon="13.1942133"><ele>258.0</ele><time>2026-04-04T13:12:54.73Z</time></trkpt><trkpt lat="43.2607917" lon="13.1942567"><ele>258.0</ele><time>2026-04-04T13:12:55.73Z</time></trkpt><trkpt lat="43.2606883" lon="13.1943033"><ele>258.0</ele><time>2026-04-04T13:12:56.729Z</time></trkpt><trkpt lat="43.2605767" lon="13.194355"><ele>258.0</ele><time>2026-04-04T13:12:57.726Z</time></trkpt><trkpt lat="43.26046" lon="13.1944067"><ele>258.0</ele><time>2026-04-04T13:12:58.726Z</time></trkpt><trkpt lat="43.260355" lon="13.1944517"><ele>257.6</ele><time>2026-04-04T13:12:59.729Z</time></trkpt><trkpt lat="43.2602583" lon="13.1944967"><ele>257.20000000000005</ele><time>2026-04-04T13:13:00.728Z</time></trkpt><trkpt lat="43.26017" lon="13.1945367"><ele>256.8</ele><time>2026-04-04T13:13:01.728Z</time></trkpt><trkpt lat="43.2600833" lon="13.1945783"><ele>256.40000000000003</ele><time>2026-04-04T13:13:02.731Z</time></trkpt><trkpt lat="43.260005" lon="13.194615"><ele>256.0</ele><time>2026-04-04T13:13:03.732Z</time></trkpt><trkpt lat="43.2599283" lon="13.19465"><ele>255.99999999999997</ele><time>2026-04-04T13:13:04.728Z</time></trkpt><trkpt lat="43.259855" lon="13.19468"><ele>256.0</ele><time>2026-04-04T13:13:05.728Z</time></trkpt><trkpt lat="43.259785" lon="13.19471"><ele>256.0</ele><time>2026-04-04T13:13:06.728Z</time></trkpt><trkpt lat="43.2597133" lon="13.1947383"><ele>256.0</ele><time>2026-04-04T13:13:07.728Z</time></trkpt><trkpt lat="43.2596383" lon="13.1947567"><ele>255.99999999999997</ele><time>2026-04-04T13:13:08.733Z</time></trkpt><trkpt lat="43.2595483" lon="13.194775"><ele>256.0</ele><time>2026-04-04T13:13:09.728Z</time></trkpt><trkpt lat="43.2594417" lon="13.1947883"><ele>256.66666666666663</ele><time>2026-04-04T13:13:10.728Z</time></trkpt><trkpt lat="43.2593167" lon="13.1947817"><ele>257.3333333333333</ele><time>2026-04-04T13:13:11.727Z</time></trkpt><trkpt lat="43.2591483" lon="13.1947483"><ele>258.0</ele><time>2026-04-04T13:13:12.726Z</time></trkpt><trkpt lat="43.2589433" lon="13.1947133"><ele>259.0</ele><time>2026-04-04T13:13:13.728Z</time></trkpt><trkpt lat="43.2587217" lon="13.194685"><ele>260.0</ele><time>2026-04-04T13:13:14.73Z</time></trkpt><trkpt lat="43.2585117" lon="13.19466"><ele>261.0</ele><time>2026-04-04T13:13:15.729Z</time></trkpt><trkpt lat="43.2583033" lon="13.1946383"><ele>260.6666666666667</ele><time>2026-04-04T13:13:16.728Z</time></trkpt><trkpt lat="43.2580917" lon="13.194615"><ele>260.33333333333337</ele><time>2026-04-04T13:13:17.722Z</time></trkpt><trkpt lat="43.2578917" lon="13.19458"><ele>260.0</ele><time>2026-04-04T13:13:18.728Z</time></trkpt><trkpt lat="43.2577067" lon="13.1945417"><ele>260.0</ele><time>2026-04-04T13:13:19.727Z</time></trkpt><trkpt lat="43.2575367" lon="13.194495"><ele>260.0</ele><time>2026-04-04T13:13:20.73Z</time></trkpt><trkpt lat="43.257395" lon="13.1944417"><ele>260.0</ele><time>2026-04-04T13:13:21.729Z</time></trkpt><trkpt lat="43.2572617" lon="13.1943767"><ele>259.0</ele><time>2026-04-04T13:13:22.73Z</time></trkpt><trkpt lat="43.25713" lon="13.1943017"><ele>258.0</ele><time>2026-04-04T13:13:23.73Z</time></trkpt><trkpt lat="43.2569933" lon="13.1942233"><ele>257.0</ele><time>2026-04-04T13:13:24.732Z</time></trkpt><trkpt lat="43.2568533" lon="13.19414"><ele>256.0</ele><time>2026-04-04T13:13:25.728Z</time></trkpt><trkpt lat="43.2567083" lon="13.1940583"><ele>256.3333333333333</ele><time>2026-04-04T13:13:26.738Z</time></trkpt><trkpt lat="43.256555" lon="13.1939733"><ele>256.6666666666667</ele><time>2026-04-04T13:13:27.728Z</time></trkpt><trkpt lat="43.2564" lon="13.1938917"><ele>257.0</ele><time>2026-04-04T13:13:28.73Z</time></trkpt><trkpt lat="43.2562333" lon="13.1938083"><ele>257.0</ele><time>2026-04-04T13:13:29.73Z</time></trkpt><trkpt lat="43.25606" lon="13.1937283"><ele>257.0</ele><time>2026-04-04T13:13:30.731Z</time></trkpt><trkpt lat="43.2558733" lon="13.19364"><ele>257.0</ele><time>2026-04-04T13:13:31.731Z</time></trkpt><trkpt lat="43.2556867" lon="13.1935433"><ele>257.0</ele><time>2026-04-04T13:13:32.732Z</time></trkpt><trkpt lat="43.2554967" lon="13.1934433"><ele>257.0</ele><time>2026-04-04T13:13:33.729Z</time></trkpt><trkpt lat="43.255305" lon="13.1933367"><ele>257.0</ele><time>2026-04-04T13:13:34.729Z</time></trkpt><trkpt lat="43.255105" lon="13.1932333"><ele>257.0</ele><time>2026-04-04T13:13:35.731Z</time></trkpt><trkpt lat="43.2549067" lon="13.1931267"><ele>257.0</ele><time>2026-04-04T13:13:36.731Z</time></trkpt><trkpt lat="43.2547033" lon="13.1930183"><ele>257.0</ele><time>2026-04-04T13:13:37.731Z</time></trkpt><trkpt lat="43.2544967" lon="13.1929083"><ele>257.0</ele><time>2026-04-04T13:13:38.727Z</time></trkpt><trkpt lat="43.2542883" lon="13.1928"><ele>257.0</ele><time>2026-04-04T13:13:39.729Z</time></trkpt><trkpt lat="43.2540817" lon="13.1926917"><ele>257.0</ele><time>2026-04-04T13:13:40.73Z</time></trkpt><trkpt lat="43.253875" lon="13.1925783"><ele>256.6666666666667</ele><time>2026-04-04T13:13:41.729Z</time></trkpt><trkpt lat="43.2536667" lon="13.1924667"><ele>256.3333333333333</ele><time>2026-04-04T13:13:42.729Z</time></trkpt><trkpt lat="43.25346" lon="13.192355"><ele>256.0</ele><time>2026-04-04T13:13:43.729Z</time></trkpt><trkpt lat="43.25325" lon="13.1922417"><ele>256.0</ele><time>2026-04-04T13:13:44.745Z</time></trkpt><trkpt lat="43.2530417" lon="13.1921267"><ele>256.0</ele><time>2026-04-04T13:13:45.729Z</time></trkpt><trkpt lat="43.252835" lon="13.1920133"><ele>256.0</ele><time>2026-04-04T13:13:46.73Z</time></trkpt><trkpt lat="43.2526267" lon="13.1919033"><ele>256.0</ele><time>2026-04-04T13:13:47.728Z</time></trkpt><trkpt lat="43.25242" lon="13.191795"><ele>256.0</ele><time>2026-04-04T13:13:48.732Z</time></trkpt><trkpt lat="43.2522117" lon="13.1916833"><ele>256.0</ele><time>2026-04-04T13:13:49.728Z</time></trkpt><trkpt lat="43.252" lon="13.1915767"><ele>256.5</ele><time>2026-04-04T13:13:50.727Z</time></trkpt><trkpt lat="43.25179" lon="13.191465"><ele>257.0</ele><time>2026-04-04T13:13:51.728Z</time></trkpt><trkpt lat="43.2515783" lon="13.1913517"><ele>256.5</ele><time>2026-04-04T13:13:52.729Z</time></trkpt><trkpt lat="43.2513683" lon="13.19124"><ele>256.0</ele><time>2026-04-04T13:13:53.73Z</time></trkpt><trkpt lat="43.2511583" lon="13.1911233"><ele>256.0</ele><time>2026-04-04T13:13:54.733Z</time></trkpt><trkpt lat="43.2509483" lon="13.19101"><ele>256.0</ele><time>2026-04-04T13:13:55.728Z</time></trkpt><trkpt lat="43.2507433" lon="13.1909"><ele>256.0</ele><time>2026-04-04T13:13:56.733Z</time></trkpt><trkpt lat="43.2505367" lon="13.19079"><ele>255.33333333333331</ele><time>2026-04-04T13:13:57.728Z</time></trkpt><trkpt lat="43.2503267" lon="13.1906817"><ele>254.66666666666669</ele><time>2026-04-04T13:13:58.73Z</time></trkpt><trkpt lat="43.2501183" lon="13.1905733"><ele>254.0</ele><time>2026-04-04T13:13:59.727Z</time></trkpt><trkpt lat="43.2499067" lon="13.190465"><ele>254.0</ele><time>2026-04-04T13:14:00.731Z</time></trkpt><trkpt lat="43.2496933" lon="13.190355"><ele>254.0</ele><time>2026-04-04T13:14:01.73Z</time></trkpt><trkpt lat="43.24948" lon="13.190245"><ele>254.0</ele><time>2026-04-04T13:14:02.733Z</time></trkpt><trkpt lat="43.249265" lon="13.1901317"><ele>254.0</ele><time>2026-04-04T13:14:03.732Z</time></trkpt><trkpt lat="43.2490533" lon="13.19002"><ele>254.0</ele><time>2026-04-04T13:14:04.728Z</time></trkpt><trkpt lat="43.2488417" lon="13.1899083"><ele>254.0</ele><time>2026-04-04T13:14:05.731Z</time></trkpt><trkpt lat="43.2486283" lon="13.1897983"><ele>254.0</ele><time>2026-04-04T13:14:06.731Z</time></trkpt><trkpt lat="43.248415" lon="13.1896817"><ele>254.0</ele><time>2026-04-04T13:14:07.729Z</time></trkpt><trkpt lat="43.2482017" lon="13.18957"><ele>255.0</ele><time>2026-04-04T13:14:08.731Z</time></trkpt><trkpt lat="43.2479883" lon="13.18946"><ele>256.0</ele><time>2026-04-04T13:14:09.73Z</time></trkpt><trkpt lat="43.2477767" lon="13.18935"><ele>256.0</ele><time>2026-04-04T13:14:10.729Z</time></trkpt><trkpt lat="43.247565" lon="13.18924"><ele>256.0</ele><time>2026-04-04T13:14:11.729Z</time></trkpt><trkpt lat="43.2473533" lon="13.1891317"><ele>255.5</ele><time>2026-04-04T13:14:12.731Z</time></trkpt><trkpt lat="43.2471433" lon="13.1890217"><ele>255.0</ele><time>2026-04-04T13:14:13.73Z</time></trkpt><trkpt lat="43.2469333" lon="13.1889117"><ele>255.0</ele><time>2026-04-04T13:14:14.73Z</time></trkpt><trkpt lat="43.2467183" lon="13.1888017"><ele>255.0</ele><time>2026-04-04T13:14:15.732Z</time></trkpt><trkpt lat="43.2465033" lon="13.1886983"><ele>256.5</ele><time>2026-04-04T13:14:16.731Z</time></trkpt><trkpt lat="43.24629" lon="13.1885983"><ele>258.0</ele><time>2026-04-04T13:14:17.732Z</time></trkpt><trkpt lat="43.246075" lon="13.1884933"><ele>258.0</ele><time>2026-04-04T13:14:18.732Z</time></trkpt><trkpt lat="43.2458667" lon="13.18838"><ele>258.0</ele><time>2026-04-04T13:14:19.729Z</time></trkpt><trkpt lat="43.2456617" lon="13.1882533"><ele>258.0</ele><time>2026-04-04T13:14:20.731Z</time></trkpt><trkpt lat="43.2454567" lon="13.1881283"><ele>262.0</ele><time>2026-04-04T13:14:21.731Z</time></trkpt><trkpt lat="43.24525" lon="13.18801"><ele>266.0</ele><time>2026-04-04T13:14:22.73Z</time></trkpt><trkpt lat="43.245035" lon="13.1878983"><ele>266.0</ele><time>2026-04-04T13:14:23.73Z</time></trkpt><trkpt lat="43.2448217" lon="13.1877867"><ele>266.0</ele><time>2026-04-04T13:14:24.73Z</time></trkpt><trkpt lat="43.2446067" lon="13.187675"><ele>265.5</ele><time>2026-04-04T13:14:25.732Z</time></trkpt><trkpt lat="43.2443933" lon="13.1875667"><ele>265.0</ele><time>2026-04-04T13:14:26.73Z</time></trkpt><trkpt lat="43.2441817" lon="13.1874567"><ele>265.0</ele><time>2026-04-04T13:14:27.728Z</time></trkpt><trkpt lat="43.2439683" lon="13.187345"><ele>265.0</ele><time>2026-04-04T13:14:28.732Z</time></trkpt><trkpt lat="43.24376" lon="13.187235"><ele>265.3333333333333</ele><time>2026-04-04T13:14:29.731Z</time></trkpt><trkpt lat="43.2435533" lon="13.187125"><ele>265.6666666666667</ele><time>2026-04-04T13:14:30.73Z</time></trkpt><trkpt lat="43.2433417" lon="13.1870183"><ele>266.0</ele><time>2026-04-04T13:14:31.729Z</time></trkpt><trkpt lat="43.24313" lon="13.1869267"><ele>266.0</ele><time>2026-04-04T13:14:32.729Z</time></trkpt><trkpt lat="43.242915" lon="13.1868533"><ele>266.0</ele><time>2026-04-04T13:14:33.73Z</time></trkpt><trkpt lat="43.242705" lon="13.186815"><ele>266.0</ele><time>2026-04-04T13:14:34.731Z</time></trkpt><trkpt lat="43.24249" lon="13.18681"><ele>266.6666666666667</ele><time>2026-04-04T13:14:35.732Z</time></trkpt><trkpt lat="43.24227" lon="13.186835"><ele>267.3333333333333</ele><time>2026-04-04T13:14:36.73Z</time></trkpt><trkpt lat="43.242055" lon="13.1868833"><ele>268.0</ele><time>2026-04-04T13:14:37.731Z</time></trkpt><trkpt lat="43.24185" lon="13.1869367"><ele>268.0</ele><time>2026-04-04T13:14:38.731Z</time></trkpt><trkpt lat="43.241655" lon="13.1869917"><ele>268.0</ele><time>2026-04-04T13:14:39.731Z</time></trkpt><trkpt lat="43.2414583" lon="13.1870533"><ele>268.0</ele><time>2026-04-04T13:14:40.729Z</time></trkpt><trkpt lat="43.2412483" lon="13.18712"><ele>267.5</ele><time>2026-04-04T13:14:41.731Z</time></trkpt><trkpt lat="43.2410283" lon="13.1871783"><ele>267.0</ele><time>2026-04-04T13:14:42.728Z</time></trkpt><trkpt lat="43.2408017" lon="13.1872233"><ele>264.0</ele><time>2026-04-04T13:14:43.729Z</time></trkpt><trkpt lat="43.24058" lon="13.18728"><ele>261.0</ele><time>2026-04-04T13:14:44.732Z</time></trkpt><trkpt lat="43.2403633" lon="13.1873683"><ele>261.0</ele><time>2026-04-04T13:14:45.73Z</time></trkpt><trkpt lat="43.240155" lon="13.1874883"><ele>261.0</ele><time>2026-04-04T13:14:46.726Z</time></trkpt><trkpt lat="43.2399567" lon="13.1876333"><ele>257.5</ele><time>2026-04-04T13:14:47.731Z</time></trkpt><trkpt lat="43.23977" lon="13.1878083"><ele>254.0</ele><time>2026-04-04T13:14:48.731Z</time></trkpt><trkpt lat="43.23959" lon="13.1879983"><ele>255.5</ele><time>2026-04-04T13:14:49.73Z</time></trkpt><trkpt lat="43.239415" lon="13.1881933"><ele>257.0</ele><time>2026-04-04T13:14:50.73Z</time></trkpt><trkpt lat="43.23924" lon="13.1883867"><ele>257.0</ele><time>2026-04-04T13:14:51.731Z</time></trkpt><trkpt lat="43.239065" lon="13.18858"><ele>257.0</ele><time>2026-04-04T13:14:52.728Z</time></trkpt><trkpt lat="43.2388967" lon="13.1887683"><ele>257.0</ele><time>2026-04-04T13:14:53.73Z</time></trkpt><trkpt lat="43.2387333" lon="13.18895"><ele>256.0</ele><time>2026-04-04T13:14:54.731Z</time></trkpt><trkpt lat="43.2385717" lon="13.1891233"><ele>255.0</ele><time>2026-04-04T13:14:55.73Z</time></trkpt><trkpt lat="43.23841" lon="13.1892783"><ele>254.0</ele><time>2026-04-04T13:14:56.733Z</time></trkpt><trkpt lat="43.2382483" lon="13.1894133"><ele>251.66666666666669</ele><time>2026-04-04T13:14:57.729Z</time></trkpt><trkpt lat="43.2380867" lon="13.1895183"><ele>249.33333333333331</ele><time>2026-04-04T13:14:58.727Z</time></trkpt><trkpt lat="43.2379233" lon="13.1895883"><ele>247.0</ele><time>2026-04-04T13:14:59.731Z</time></trkpt><trkpt lat="43.2377617" lon="13.1896133"><ele>247.0</ele><time>2026-04-04T13:15:00.727Z</time></trkpt><trkpt lat="43.2376167" lon="13.1896033"><ele>247.0</ele><time>2026-04-04T13:15:01.727Z</time></trkpt><trkpt lat="43.2374933" lon="13.189555"><ele>247.0</ele><time>2026-04-04T13:15:02.732Z</time></trkpt><trkpt lat="43.237395" lon="13.18947"><ele>247.0</ele><time>2026-04-04T13:15:03.728Z</time></trkpt><trkpt lat="43.23733" lon="13.1893433"><ele>246.0</ele><time>2026-04-04T13:15:04.727Z</time></trkpt><trkpt lat="43.2372883" lon="13.1891833"><ele>245.0</ele><time>2026-04-04T13:15:05.73Z</time></trkpt><trkpt lat="43.2372433" lon="13.1889933"><ele>244.0</ele><time>2026-04-04T13:15:06.729Z</time></trkpt><trkpt lat="43.2371783" lon="13.18878"><ele>243.0</ele><time>2026-04-04T13:15:07.727Z</time></trkpt><trkpt lat="43.2370933" lon="13.1885533"><ele>243.0</ele><time>2026-04-04T13:15:08.73Z</time></trkpt><trkpt lat="43.237" lon="13.1882967"><ele>243.0</ele><time>2026-04-04T13:15:09.732Z</time></trkpt><trkpt lat="43.2369283" lon="13.1880267"><ele>243.0</ele><time>2026-04-04T13:15:10.729Z</time></trkpt><trkpt lat="43.2368717" lon="13.1877483"><ele>243.66666666666669</ele><time>2026-04-04T13:15:11.73Z</time></trkpt><trkpt lat="43.23682" lon="13.18747"><ele>244.33333333333334</ele><time>2026-04-04T13:15:12.73Z</time></trkpt><trkpt lat="43.23677" lon="13.1872033"><ele>245.0</ele><time>2026-04-04T13:15:13.739Z</time></trkpt><trkpt lat="43.236725" lon="13.186955"><ele>246.0</ele><time>2026-04-04T13:15:14.756Z</time></trkpt><trkpt lat="43.236685" lon="13.1867333"><ele>247.0</ele><time>2026-04-04T13:15:15.731Z</time></trkpt><trkpt lat="43.2366567" lon="13.186545"><ele>248.0</ele><time>2026-04-04T13:15:16.73Z</time></trkpt><trkpt lat="43.2366417" lon="13.1863933"><ele>249.0</ele><time>2026-04-04T13:15:17.733Z</time></trkpt><trkpt lat="43.2366433" lon="13.1862733"><ele>249.39999999999998</ele><time>2026-04-04T13:15:18.728Z</time></trkpt><trkpt lat="43.2366517" lon="13.1861817"><ele>249.79999999999998</ele><time>2026-04-04T13:15:19.726Z</time></trkpt><trkpt lat="43.2366533" lon="13.1860683"><ele>250.20000000000002</ele><time>2026-04-04T13:15:21.731Z</time></trkpt><trkpt lat="43.236555" lon="13.1859817"><ele>250.60000000000002</ele><time>2026-04-04T13:15:23.73Z</time></trkpt><trkpt lat="43.2364533" lon="13.1859433"><ele>251.0</ele><time>2026-04-04T13:15:24.732Z</time></trkpt><trkpt lat="43.2363233" lon="13.185915"><ele>248.0</ele><time>2026-04-04T13:15:25.726Z</time></trkpt><trkpt lat="43.2361833" lon="13.18588"><ele>245.0</ele><time>2026-04-04T13:15:26.732Z</time></trkpt><trkpt lat="43.2360317" lon="13.18586"><ele>242.0</ele><time>2026-04-04T13:15:27.732Z</time></trkpt><trkpt lat="43.2358767" lon="13.1858417"><ele>242.0</ele><time>2026-04-04T13:15:28.727Z</time></trkpt><trkpt lat="43.2357217" lon="13.1858133"><ele>242.0</ele><time>2026-04-04T13:15:29.731Z</time></trkpt><trkpt lat="43.2355733" lon="13.1857833"><ele>242.0</ele><time>2026-04-04T13:15:30.731Z</time></trkpt><trkpt lat="43.2354267" lon="13.1857467"><ele>240.0</ele><time>2026-04-04T13:15:31.73Z</time></trkpt><trkpt lat="43.235285" lon="13.18572"><ele>238.0</ele><time>2026-04-04T13:15:32.731Z</time></trkpt><trkpt lat="43.2351483" lon="13.1857"><ele>236.0</ele><time>2026-04-04T13:15:33.73Z</time></trkpt><trkpt lat="43.2350233" lon="13.18568"><ele>234.0</ele><time>2026-04-04T13:15:34.729Z</time></trkpt><trkpt lat="43.2349017" lon="13.185655"><ele>233.79999999999998</ele><time>2026-04-04T13:15:35.733Z</time></trkpt><trkpt lat="43.2347833" lon="13.1856333"><ele>233.59999999999997</ele><time>2026-04-04T13:15:36.728Z</time></trkpt><trkpt lat="43.2346783" lon="13.185615"><ele>233.4</ele><time>2026-04-04T13:15:37.731Z</time></trkpt><trkpt lat="43.2345867" lon="13.185595"><ele>233.2</ele><time>2026-04-04T13:15:38.73Z</time></trkpt><trkpt lat="43.23451" lon="13.18556"><ele>233.0</ele><time>2026-04-04T13:15:39.729Z</time></trkpt><trkpt lat="43.23445" lon="13.1855117"><ele>233.0</ele><time>2026-04-04T13:15:40.729Z</time></trkpt><trkpt lat="43.2344067" lon="13.185435"><ele>233.0</ele><time>2026-04-04T13:15:41.726Z</time></trkpt><trkpt lat="43.2343767" lon="13.1853333"><ele>233.0</ele><time>2026-04-04T13:15:42.729Z</time></trkpt><trkpt lat="43.234355" lon="13.1851883"><ele>233.0</ele><time>2026-04-04T13:15:43.728Z</time></trkpt><trkpt lat="43.2343333" lon="13.1850017"><ele>233.0</ele><time>2026-04-04T13:15:44.727Z</time></trkpt><trkpt lat="43.2343083" lon="13.1848133"><ele>233.25</ele><time>2026-04-04T13:15:45.728Z</time></trkpt><trkpt lat="43.2342917" lon="13.18462"><ele>233.5</ele><time>2026-04-04T13:15:46.729Z</time></trkpt><trkpt lat="43.2342917" lon="13.1844183"><ele>233.75</ele><time>2026-04-04T13:15:47.729Z</time></trkpt><trkpt lat="43.2343017" lon="13.1842"><ele>234.0</ele><time>2026-04-04T13:15:48.73Z</time></trkpt><trkpt lat="43.23432" lon="13.1839683"><ele>235.33333333333331</ele><time>2026-04-04T13:15:49.728Z</time></trkpt><trkpt lat="43.2343433" lon="13.1837267"><ele>236.66666666666666</ele><time>2026-04-04T13:15:50.755Z</time></trkpt><trkpt lat="43.2343617" lon="13.1834717"><ele>238.0</ele><time>2026-04-04T13:15:51.731Z</time></trkpt><trkpt lat="43.2343633" lon="13.1832133"><ele>238.33333333333331</ele><time>2026-04-04T13:15:52.728Z</time></trkpt><trkpt lat="43.2343433" lon="13.182945"><ele>238.66666666666669</ele><time>2026-04-04T13:15:53.728Z</time></trkpt><trkpt lat="43.2343067" lon="13.18267"><ele>239.0</ele><time>2026-04-04T13:15:54.729Z</time></trkpt><trkpt lat="43.2342567" lon="13.1823933"><ele>239.33333333333334</ele><time>2026-04-04T13:15:55.73Z</time></trkpt><trkpt lat="43.2341983" lon="13.1821167"><ele>239.66666666666669</ele><time>2026-04-04T13:15:56.726Z</time></trkpt><trkpt lat="43.2341367" lon="13.1818267"><ele>240.0</ele><time>2026-04-04T13:15:57.732Z</time></trkpt><trkpt lat="43.2340767" lon="13.1815283"><ele>238.0</ele><time>2026-04-04T13:15:58.728Z</time></trkpt><trkpt lat="43.234015" lon="13.1812233"><ele>236.0</ele><time>2026-04-04T13:15:59.728Z</time></trkpt><trkpt lat="43.23395" lon="13.18092"><ele>238.0</ele><time>2026-04-04T13:16:00.731Z</time></trkpt><trkpt lat="43.2338867" lon="13.1806183"><ele>240.0</ele><time>2026-04-04T13:16:01.728Z</time></trkpt><trkpt lat="43.2338233" lon="13.1803183"><ele>240.0</ele><time>2026-04-04T13:16:02.73Z</time></trkpt><trkpt lat="43.233765" lon="13.1800167"><ele>240.0</ele><time>2026-04-04T13:16:03.729Z</time></trkpt><trkpt lat="43.23371" lon="13.1797133"><ele>241.0</ele><time>2026-04-04T13:16:04.728Z</time></trkpt><trkpt lat="43.23367" lon="13.1794067"><ele>242.0</ele><time>2026-04-04T13:16:05.732Z</time></trkpt><trkpt lat="43.233645" lon="13.179095"><ele>243.0</ele><time>2026-04-04T13:16:06.743Z</time></trkpt><trkpt lat="43.233635" lon="13.1787833"><ele>244.0</ele><time>2026-04-04T13:16:07.73Z</time></trkpt><trkpt lat="43.2336433" lon="13.178475"><ele>244.5</ele><time>2026-04-04T13:16:08.732Z</time></trkpt><trkpt lat="43.23366" lon="13.1781667"><ele>245.0</ele><time>2026-04-04T13:16:09.731Z</time></trkpt><trkpt lat="43.2336867" lon="13.1778517"><ele>245.0</ele><time>2026-04-04T13:16:10.729Z</time></trkpt><trkpt lat="43.2337083" lon="13.1775383"><ele>245.0</ele><time>2026-04-04T13:16:11.729Z</time></trkpt><trkpt lat="43.23372" lon="13.177225"><ele>245.5</ele><time>2026-04-04T13:16:12.731Z</time></trkpt><trkpt lat="43.233725" lon="13.1769083"><ele>246.0</ele><time>2026-04-04T13:16:13.727Z</time></trkpt><trkpt lat="43.2337267" lon="13.17659"><ele>248.0</ele><time>2026-04-04T13:16:14.728Z</time></trkpt><trkpt lat="43.23373" lon="13.1762733"><ele>250.0</ele><time>2026-04-04T13:16:15.729Z</time></trkpt><trkpt lat="43.2337367" lon="13.1759583"><ele>250.0</ele><time>2026-04-04T13:16:16.727Z</time></trkpt><trkpt lat="43.2337417" lon="13.175645"><ele>250.0</ele><time>2026-04-04T13:16:17.73Z</time></trkpt><trkpt lat="43.2337433" lon="13.17533"><ele>250.0</ele><time>2026-04-04T13:16:18.728Z</time></trkpt><trkpt lat="43.2337483" lon="13.1750117"><ele>250.0</ele><time>2026-04-04T13:16:19.731Z</time></trkpt><trkpt lat="43.2337533" lon="13.1746917"><ele>250.0</ele><time>2026-04-04T13:16:20.729Z</time></trkpt><trkpt lat="43.233755" lon="13.174375"><ele>250.0</ele><time>2026-04-04T13:16:21.728Z</time></trkpt><trkpt lat="43.2337483" lon="13.17406"><ele>249.0</ele><time>2026-04-04T13:16:22.731Z</time></trkpt><trkpt lat="43.23373" lon="13.1737483"><ele>248.0</ele><time>2026-04-04T13:16:23.727Z</time></trkpt><trkpt lat="43.2336917" lon="13.17344"><ele>250.5</ele><time>2026-04-04T13:16:24.728Z</time></trkpt><trkpt lat="43.2336467" lon="13.1731367"><ele>253.0</ele><time>2026-04-04T13:16:25.731Z</time></trkpt><trkpt lat="43.2335933" lon="13.1728283"><ele>253.0</ele><time>2026-04-04T13:16:26.73Z</time></trkpt><trkpt lat="43.2335367" lon="13.17252"><ele>253.0</ele><time>2026-04-04T13:16:27.729Z</time></trkpt><trkpt lat="43.2334683" lon="13.1722133"><ele>256.5</ele><time>2026-04-04T13:16:28.731Z</time></trkpt><trkpt lat="43.2334033" lon="13.171905"><ele>260.0</ele><time>2026-04-04T13:16:29.73Z</time></trkpt><trkpt lat="43.2333383" lon="13.171595"><ele>262.0</ele><time>2026-04-04T13:16:30.734Z</time></trkpt><trkpt lat="43.2332767" lon="13.1712833"><ele>264.0</ele><time>2026-04-04T13:16:31.73Z</time></trkpt><trkpt lat="43.2332133" lon="13.1709717"><ele>264.5</ele><time>2026-04-04T13:16:32.732Z</time></trkpt><trkpt lat="43.23315" lon="13.1706617"><ele>265.0</ele><time>2026-04-04T13:16:33.728Z</time></trkpt><trkpt lat="43.2330833" lon="13.1703483"><ele>256.5</ele><time>2026-04-04T13:16:34.73Z</time></trkpt><trkpt lat="43.2330167" lon="13.1700383"><ele>248.0</ele><time>2026-04-04T13:16:35.729Z</time></trkpt><trkpt lat="43.2329533" lon="13.1697333"><ele>248.0</ele><time>2026-04-04T13:16:36.729Z</time></trkpt><trkpt lat="43.23289" lon="13.16943"><ele>248.0</ele><time>2026-04-04T13:16:37.733Z</time></trkpt><trkpt lat="43.2328283" lon="13.169135"><ele>248.0</ele><time>2026-04-04T13:16:38.729Z</time></trkpt><trkpt lat="43.2327683" lon="13.16884"><ele>248.0</ele><time>2026-04-04T13:16:39.729Z</time></trkpt><trkpt lat="43.2327067" lon="13.1685433"><ele>248.0</ele><time>2026-04-04T13:16:40.727Z</time></trkpt><trkpt lat="43.2326383" lon="13.1682483"><ele>247.5</ele><time>2026-04-04T13:16:41.73Z</time></trkpt><trkpt lat="43.2325583" lon="13.16796"><ele>247.0</ele><time>2026-04-04T13:16:42.728Z</time></trkpt><trkpt lat="43.232465" lon="13.1676783"><ele>247.0</ele><time>2026-04-04T13:16:43.73Z</time></trkpt><trkpt lat="43.2323583" lon="13.1674017"><ele>247.0</ele><time>2026-04-04T13:16:44.733Z</time></trkpt><trkpt lat="43.2322417" lon="13.1671267"><ele>244.5</ele><time>2026-04-04T13:16:45.728Z</time></trkpt><trkpt lat="43.2321133" lon="13.1668583"><ele>242.0</ele><time>2026-04-04T13:16:46.728Z</time></trkpt><trkpt lat="43.2319817" lon="13.1665917"><ele>247.0</ele><time>2026-04-04T13:16:47.729Z</time></trkpt><trkpt lat="43.2318517" lon="13.1663267"><ele>252.0</ele><time>2026-04-04T13:16:48.728Z</time></trkpt><trkpt lat="43.2317233" lon="13.1660617"><ele>252.0</ele><time>2026-04-04T13:16:49.731Z</time></trkpt><trkpt lat="43.2315983" lon="13.1657967"><ele>252.0</ele><time>2026-04-04T13:16:50.73Z</time></trkpt><trkpt lat="43.231475" lon="13.1655333"><ele>251.0</ele><time>2026-04-04T13:16:51.726Z</time></trkpt><trkpt lat="43.231355" lon="13.1652667"><ele>250.0</ele><time>2026-04-04T13:16:52.727Z</time></trkpt><trkpt lat="43.2312483" lon="13.1649917"><ele>255.0</ele><time>2026-04-04T13:16:53.73Z</time></trkpt><trkpt lat="43.2311617" lon="13.164705"><ele>260.0</ele><time>2026-04-04T13:16:54.732Z</time></trkpt><trkpt lat="43.231085" lon="13.16441"><ele>260.0</ele><time>2026-04-04T13:16:55.731Z</time></trkpt><trkpt lat="43.231025" lon="13.1641083"><ele>260.0</ele><time>2026-04-04T13:16:56.73Z</time></trkpt><trkpt lat="43.2309883" lon="13.1637983"><ele>260.5</ele><time>2026-04-04T13:16:57.731Z</time></trkpt><trkpt lat="43.2309717" lon="13.1634833"><ele>261.0</ele><time>2026-04-04T13:16:58.73Z</time></trkpt><trkpt lat="43.230965" lon="13.1631717"><ele>261.0</ele><time>2026-04-04T13:16:59.729Z</time></trkpt><trkpt lat="43.2309717" lon="13.1628567"><ele>261.0</ele><time>2026-04-04T13:17:00.727Z</time></trkpt><trkpt lat="43.230975" lon="13.1625383"><ele>259.5</ele><time>2026-04-04T13:17:01.728Z</time></trkpt><trkpt lat="43.2309767" lon="13.1622233"><ele>258.0</ele><time>2026-04-04T13:17:02.734Z</time></trkpt><trkpt lat="43.23097" lon="13.1619033"><ele>258.0</ele><time>2026-04-04T13:17:03.732Z</time></trkpt><trkpt lat="43.2309583" lon="13.1615883"><ele>258.0</ele><time>2026-04-04T13:17:04.728Z</time></trkpt><trkpt lat="43.2309417" lon="13.161275"><ele>258.0</ele><time>2026-04-04T13:17:05.73Z</time></trkpt><trkpt lat="43.2309267" lon="13.1609617"><ele>258.0</ele><time>2026-04-04T13:17:06.729Z</time></trkpt><trkpt lat="43.2309133" lon="13.16065"><ele>258.0</ele><time>2026-04-04T13:17:07.732Z</time></trkpt><trkpt lat="43.2308967" lon="13.1603383"><ele>258.0</ele><time>2026-04-04T13:17:08.729Z</time></trkpt><trkpt lat="43.2308817" lon="13.1600267"><ele>259.3333333333333</ele><time>2026-04-04T13:17:09.729Z</time></trkpt><trkpt lat="43.2308683" lon="13.1597333"><ele>260.66666666666663</ele><time>2026-04-04T13:17:10.728Z</time></trkpt><trkpt lat="43.2308517" lon="13.15946"><ele>262.0</ele><time>2026-04-04T13:17:11.73Z</time></trkpt><trkpt lat="43.2308367" lon="13.159215"><ele>263.5</ele><time>2026-04-04T13:17:12.73Z</time></trkpt><trkpt lat="43.23082" lon="13.1589983"><ele>265.0</ele><time>2026-04-04T13:17:13.73Z</time></trkpt><trkpt lat="43.2308017" lon="13.158815"><ele>266.5</ele><time>2026-04-04T13:17:14.732Z</time></trkpt><trkpt lat="43.2307817" lon="13.1586583"><ele>268.0</ele><time>2026-04-04T13:17:15.729Z</time></trkpt><trkpt lat="43.2307633" lon="13.1585317"><ele>268.0</ele><time>2026-04-04T13:17:16.727Z</time></trkpt><trkpt lat="43.230745" lon="13.1584267"><ele>268.0</ele><time>2026-04-04T13:17:17.73Z</time></trkpt><trkpt lat="43.2307267" lon="13.1583383"><ele>268.0</ele><time>2026-04-04T13:17:18.727Z</time></trkpt><trkpt lat="43.2306933" lon="13.1581983"><ele>268.0</ele><time>2026-04-04T13:17:20.734Z</time></trkpt><trkpt lat="43.2306533" lon="13.1580817"><ele>268.0</ele><time>2026-04-04T13:17:22.728Z</time></trkpt><trkpt lat="43.2306117" lon="13.1579683"><ele>268.0</ele><time>2026-04-04T13:17:24.726Z</time></trkpt><trkpt lat="43.2305717" lon="13.157855"><ele>264.16666666666663</ele><time>2026-04-04T13:17:26.727Z</time></trkpt><trkpt lat="43.230535" lon="13.1577517"><ele>260.3333333333333</ele><time>2026-04-04T13:17:28.73Z</time></trkpt><trkpt lat="43.230485" lon="13.157675"><ele>256.5</ele><time>2026-04-04T13:17:30.729Z</time></trkpt><trkpt lat="43.2303767" lon="13.1576267"><ele>252.66666666666669</ele><time>2026-04-04T13:17:32.728Z</time></trkpt><trkpt lat="43.2303133" lon="13.15763"><ele>248.83333333333334</ele><time>2026-04-04T13:17:33.726Z</time></trkpt><trkpt lat="43.2302333" lon="13.1577267"><ele>245.0</ele><time>2026-04-04T13:17:35.728Z</time></trkpt><trkpt lat="43.2301933" lon="13.157875"><ele>245.0</ele><time>2026-04-04T13:17:37.729Z</time></trkpt><trkpt lat="43.2301883" lon="13.158005"><ele>245.0</ele><time>2026-04-04T13:17:39.726Z</time></trkpt><trkpt lat="43.23026" lon="13.158035"><ele>245.0</ele><time>2026-04-04T13:17:42.731Z</time></trkpt><trkpt lat="43.2303017" lon="13.1579683"><ele>245.0</ele><time>2026-04-04T13:17:43.727Z</time></trkpt><trkpt lat="43.2303583" lon="13.1578833"><ele>245.0</ele><time>2026-04-04T13:17:44.728Z</time></trkpt><trkpt lat="43.23041" lon="13.157825"><ele>245.0</ele><time>2026-04-04T13:17:45.728Z</time></trkpt><trkpt lat="43.230465" lon="13.15778"><ele>245.0</ele><time>2026-04-04T13:17:46.727Z</time></trkpt><trkpt lat="43.23056" lon="13.1578933"><ele>245.0</ele><time>2026-04-04T13:17:48.729Z</time></trkpt><trkpt lat="43.2306133" lon="13.15806"><ele>245.0</ele><time>2026-04-04T13:17:49.73Z</time></trkpt><trkpt lat="43.230665" lon="13.158275"><ele>245.0</ele><time>2026-04-04T13:17:50.728Z</time></trkpt><trkpt lat="43.230705" lon="13.15849"><ele>249.25</ele><time>2026-04-04T13:17:51.73Z</time></trkpt><trkpt lat="43.2307333" lon="13.1586833"><ele>253.5</ele><time>2026-04-04T13:17:52.727Z</time></trkpt><trkpt lat="43.2307533" lon="13.1588517"><ele>257.75</ele><time>2026-04-04T13:17:53.727Z</time></trkpt><trkpt lat="43.2307717" lon="13.1590167"><ele>262.0</ele><time>2026-04-04T13:17:54.731Z</time></trkpt><trkpt lat="43.2307883" lon="13.1591833"><ele>262.0</ele><time>2026-04-04T13:17:55.729Z</time></trkpt><trkpt lat="43.2307983" lon="13.15936"><ele>262.0</ele><time>2026-04-04T13:17:56.731Z</time></trkpt><trkpt lat="43.230805" lon="13.15953"><ele>262.0</ele><time>2026-04-04T13:17:57.727Z</time></trkpt><trkpt lat="43.230815" lon="13.1596983"><ele>262.0</ele><time>2026-04-04T13:17:58.727Z</time></trkpt><trkpt lat="43.230825" lon="13.1598717"><ele>261.0</ele><time>2026-04-04T13:17:59.73Z</time></trkpt><trkpt lat="43.2308333" lon="13.160035"><ele>260.0</ele><time>2026-04-04T13:18:00.73Z</time></trkpt><trkpt lat="43.23084" lon="13.16018"><ele>259.0</ele><time>2026-04-04T13:18:01.73Z</time></trkpt><trkpt lat="43.230845" lon="13.16033"><ele>258.0</ele><time>2026-04-04T13:18:02.728Z</time></trkpt><trkpt lat="43.2308517" lon="13.16049"><ele>258.0</ele><time>2026-04-04T13:18:03.728Z</time></trkpt><trkpt lat="43.23086" lon="13.16064"><ele>258.0</ele><time>2026-04-04T13:18:04.729Z</time></trkpt><trkpt lat="43.230875" lon="13.1607667"><ele>258.0</ele><time>2026-04-04T13:18:05.731Z</time></trkpt><trkpt lat="43.2308917" lon="13.160875"><ele>258.0</ele><time>2026-04-04T13:18:06.729Z</time></trkpt><trkpt lat="43.2309633" lon="13.160915"><ele>258.0</ele><time>2026-04-04T13:18:08.728Z</time></trkpt><trkpt lat="43.231015" lon="13.160865"><ele>258.0</ele><time>2026-04-04T13:18:10.728Z</time></trkpt><trkpt lat="43.2310567" lon="13.1607833"><ele>258.0</ele><time>2026-04-04T13:18:12.727Z</time></trkpt><trkpt lat="43.2310983" lon="13.16071"><ele>258.0</ele><time>2026-04-04T13:18:14.729Z</time></trkpt><trkpt lat="43.231135" lon="13.160625"><ele>258.0</ele><time>2026-04-04T13:18:17.728Z</time></trkpt><trkpt lat="43.2311217" lon="13.160405"><ele>258.0</ele><time>2026-04-04T13:22:33.727Z</time></trkpt><trkpt lat="43.2310667" lon="13.1603383"><ele>258.0</ele><time>2026-04-04T13:22:54.728Z</time></trkpt><trkpt lat="43.2309933" lon="13.160325"><ele>258.0</ele><time>2026-04-04T13:22:56.736Z</time></trkpt><trkpt lat="43.2309083" lon="13.160315"><ele>258.0</ele><time>2026-04-04T13:22:59.738Z</time></trkpt><trkpt lat="43.2308433" lon="13.1602117"><ele>258.0</ele><time>2026-04-04T13:23:02.752Z</time></trkpt><trkpt lat="43.23083" lon="13.1599817"><ele>258.0</ele><time>2026-04-04T13:23:04.732Z</time></trkpt><trkpt lat="43.230825" lon="13.15982"><ele>258.0</ele><time>2026-04-04T13:23:05.727Z</time></trkpt><trkpt lat="43.23082" lon="13.1596517"><ele>259.0</ele><time>2026-04-04T13:23:06.728Z</time></trkpt><trkpt lat="43.2308133" lon="13.15947"><ele>260.0</ele><time>2026-04-04T13:23:07.73Z</time></trkpt><trkpt lat="43.230805" lon="13.1592783"><ele>261.0</ele><time>2026-04-04T13:23:08.729Z</time></trkpt><trkpt lat="43.23079" lon="13.1590767"><ele>262.0</ele><time>2026-04-04T13:23:09.73Z</time></trkpt><trkpt lat="43.2307683" lon="13.158865"><ele>264.0</ele><time>2026-04-04T13:23:10.73Z</time></trkpt><trkpt lat="43.23074" lon="13.158655"><ele>266.0</ele><time>2026-04-04T13:23:11.727Z</time></trkpt><trkpt lat="43.2307033" lon="13.1584433"><ele>268.0</ele><time>2026-04-04T13:23:12.725Z</time></trkpt><trkpt lat="43.230655" lon="13.1582317"><ele>262.25</ele><time>2026-04-04T13:23:13.726Z</time></trkpt><trkpt lat="43.2305983" lon="13.1580317"><ele>256.5</ele><time>2026-04-04T13:23:14.727Z</time></trkpt><trkpt lat="43.23054" lon="13.1578433"><ele>250.75</ele><time>2026-04-04T13:23:15.726Z</time></trkpt><trkpt lat="43.2304783" lon="13.1576667"><ele>245.0</ele><time>2026-04-04T13:23:16.728Z</time></trkpt><trkpt lat="43.2304133" lon="13.1575017"><ele>247.0</ele><time>2026-04-04T13:23:17.731Z</time></trkpt><trkpt lat="43.23035" lon="13.1573417"><ele>249.0</ele><time>2026-04-04T13:23:18.725Z</time></trkpt><trkpt lat="43.230285" lon="13.1571833"><ele>251.0</ele><time>2026-04-04T13:23:19.73Z</time></trkpt><trkpt lat="43.23022" lon="13.15702"><ele>253.0</ele><time>2026-04-04T13:23:20.753Z</time></trkpt><trkpt lat="43.230155" lon="13.1568517"><ele>253.0</ele><time>2026-04-04T13:23:21.732Z</time></trkpt><trkpt lat="43.2300883" lon="13.1566867"><ele>253.0</ele><time>2026-04-04T13:23:22.722Z</time></trkpt><trkpt lat="43.230025" lon="13.1565267"><ele>253.0</ele><time>2026-04-04T13:23:23.728Z</time></trkpt><trkpt lat="43.2299633" lon="13.1563683"><ele>253.0</ele><time>2026-04-04T13:23:24.733Z</time></trkpt><trkpt lat="43.2298983" lon="13.1562083"><ele>254.25</ele><time>2026-04-04T13:23:25.729Z</time></trkpt><trkpt lat="43.229835" lon="13.1560467"><ele>255.5</ele><time>2026-04-04T13:23:26.729Z</time></trkpt><trkpt lat="43.2297733" lon="13.155885"><ele>256.75</ele><time>2026-04-04T13:23:27.729Z</time></trkpt><trkpt lat="43.2297133" lon="13.1557267"><ele>258.0</ele><time>2026-04-04T13:23:28.727Z</time></trkpt><trkpt lat="43.2296517" lon="13.1555717"><ele>254.25</ele><time>2026-04-04T13:23:29.723Z</time></trkpt><trkpt lat="43.229595" lon="13.1554167"><ele>250.5</ele><time>2026-04-04T13:23:30.722Z</time></trkpt><trkpt lat="43.229535" lon="13.1552667"><ele>246.75</ele><time>2026-04-04T13:23:31.723Z</time></trkpt><trkpt lat="43.2294767" lon="13.155105"><ele>243.0</ele><time>2026-04-04T13:23:32.728Z</time></trkpt><trkpt lat="43.2294133" lon="13.1549383"><ele>245.5</ele><time>2026-04-04T13:23:33.725Z</time></trkpt><trkpt lat="43.2293533" lon="13.1547767"><ele>248.0</ele><time>2026-04-04T13:23:34.724Z</time></trkpt><trkpt lat="43.229295" lon="13.1546267"><ele>250.5</ele><time>2026-04-04T13:23:35.727Z</time></trkpt><trkpt lat="43.2292317" lon="13.1544717"><ele>253.0</ele><time>2026-04-04T13:23:36.726Z</time></trkpt><trkpt lat="43.2291683" lon="13.1543183"><ele>253.0</ele><time>2026-04-04T13:23:37.726Z</time></trkpt><trkpt lat="43.2291067" lon="13.1541633"><ele>253.0</ele><time>2026-04-04T13:23:38.728Z</time></trkpt><trkpt lat="43.2290417" lon="13.154005"><ele>253.0</ele><time>2026-04-04T13:23:39.735Z</time></trkpt><trkpt lat="43.2289783" lon="13.1538483"><ele>253.0</ele><time>2026-04-04T13:23:40.728Z</time></trkpt><trkpt lat="43.2289133" lon="13.1536883"><ele>253.0</ele><time>2026-04-04T13:23:41.726Z</time></trkpt><trkpt lat="43.22885" lon="13.1535317"><ele>253.0</ele><time>2026-04-04T13:23:42.728Z</time></trkpt><trkpt lat="43.2287883" lon="13.153375"><ele>253.0</ele><time>2026-04-04T13:23:43.724Z</time></trkpt><trkpt lat="43.2287217" lon="13.15321"><ele>253.0</ele><time>2026-04-04T13:23:44.744Z</time></trkpt><trkpt lat="43.2286483" lon="13.15304"><ele>253.0</ele><time>2026-04-04T13:23:45.729Z</time></trkpt><trkpt lat="43.2285733" lon="13.1528667"><ele>253.0</ele><time>2026-04-04T13:23:46.726Z</time></trkpt><trkpt lat="43.2284967" lon="13.1526817"><ele>253.0</ele><time>2026-04-04T13:23:47.736Z</time></trkpt><trkpt lat="43.2284233" lon="13.152495"><ele>256.3333333333333</ele><time>2026-04-04T13:23:48.724Z</time></trkpt><trkpt lat="43.2283467" lon="13.1523067"><ele>259.6666666666667</ele><time>2026-04-04T13:23:49.729Z</time></trkpt><trkpt lat="43.228275" lon="13.1521217"><ele>263.0</ele><time>2026-04-04T13:23:50.727Z</time></trkpt><trkpt lat="43.228205" lon="13.1519383"><ele>258.0</ele><time>2026-04-04T13:23:51.725Z</time></trkpt><trkpt lat="43.228135" lon="13.1517517"><ele>253.0</ele><time>2026-04-04T13:23:52.726Z</time></trkpt><trkpt lat="43.228065" lon="13.1515667"><ele>248.0</ele><time>2026-04-04T13:23:53.729Z</time></trkpt><trkpt lat="43.2279833" lon="13.15138"><ele>248.0</ele><time>2026-04-04T13:23:54.726Z</time></trkpt><trkpt lat="43.2279033" lon="13.1511883"><ele>248.0</ele><time>2026-04-04T13:23:55.728Z</time></trkpt><trkpt lat="43.227825" lon="13.150995"><ele>248.0</ele><time>2026-04-04T13:23:56.728Z</time></trkpt><trkpt lat="43.2277483" lon="13.1507967"><ele>250.33333333333334</ele><time>2026-04-04T13:23:57.726Z</time></trkpt><trkpt lat="43.2276683" lon="13.1505983"><ele>252.66666666666669</ele><time>2026-04-04T13:23:58.726Z</time></trkpt><trkpt lat="43.2275833" lon="13.1504"><ele>255.0</ele><time>2026-04-04T13:23:59.728Z</time></trkpt><trkpt lat="43.2275017" lon="13.150195"><ele>255.0</ele><time>2026-04-04T13:24:00.725Z</time></trkpt><trkpt lat="43.2274183" lon="13.1499817"><ele>255.0</ele><time>2026-04-04T13:24:01.727Z</time></trkpt><trkpt lat="43.227335" lon="13.1497617"><ele>255.0</ele><time>2026-04-04T13:24:02.731Z</time></trkpt><trkpt lat="43.2272517" lon="13.1495367"><ele>253.66666666666669</ele><time>2026-04-04T13:24:03.727Z</time></trkpt><trkpt lat="43.2271733" lon="13.1493017"><ele>252.33333333333334</ele><time>2026-04-04T13:24:04.73Z</time></trkpt><trkpt lat="43.227105" lon="13.14906"><ele>251.0</ele><time>2026-04-04T13:24:05.729Z</time></trkpt><trkpt lat="43.2270517" lon="13.1488083"><ele>250.66666666666669</ele><time>2026-04-04T13:24:06.735Z</time></trkpt><trkpt lat="43.22701" lon="13.1485517"><ele>250.33333333333331</ele><time>2026-04-04T13:24:07.723Z</time></trkpt><trkpt lat="43.2269833" lon="13.1482867"><ele>250.0</ele><time>2026-04-04T13:24:08.731Z</time></trkpt><trkpt lat="43.2269733" lon="13.1480183"><ele>250.0</ele><time>2026-04-04T13:24:09.728Z</time></trkpt><trkpt lat="43.2269867" lon="13.1477533"><ele>250.0</ele><time>2026-04-04T13:24:10.727Z</time></trkpt><trkpt lat="43.2270133" lon="13.1474833"><ele>250.0</ele><time>2026-04-04T13:24:11.734Z</time></trkpt><trkpt lat="43.2270567" lon="13.14721"><ele>249.0</ele><time>2026-04-04T13:24:12.729Z</time></trkpt><trkpt lat="43.2271267" lon="13.14694"><ele>248.0</ele><time>2026-04-04T13:24:13.733Z</time></trkpt><trkpt lat="43.2272" lon="13.1466783"><ele>247.0</ele><time>2026-04-04T13:24:14.756Z</time></trkpt><trkpt lat="43.2272783" lon="13.1464083"><ele>250.33333333333331</ele><time>2026-04-04T13:24:15.731Z</time></trkpt><trkpt lat="43.227365" lon="13.1461383"><ele>253.66666666666669</ele><time>2026-04-04T13:24:16.732Z</time></trkpt><trkpt lat="43.227445" lon="13.1458667"><ele>257.0</ele><time>2026-04-04T13:24:17.729Z</time></trkpt><trkpt lat="43.2275133" lon="13.1455867"><ele>257.6666666666667</ele><time>2026-04-04T13:24:18.728Z</time></trkpt><trkpt lat="43.227565" lon="13.1453017"><ele>258.3333333333333</ele><time>2026-04-04T13:24:19.729Z</time></trkpt><trkpt lat="43.2275983" lon="13.1450067"><ele>259.0</ele><time>2026-04-04T13:24:20.729Z</time></trkpt><trkpt lat="43.22761" lon="13.1447083"><ele>260.0</ele><time>2026-04-04T13:24:21.729Z</time></trkpt><trkpt lat="43.22761" lon="13.144405"><ele>261.0</ele><time>2026-04-04T13:24:22.728Z</time></trkpt><trkpt lat="43.2276067" lon="13.1441"><ele>262.0</ele><time>2026-04-04T13:24:23.729Z</time></trkpt><trkpt lat="43.2275983" lon="13.1437933"><ele>262.0</ele><time>2026-04-04T13:24:24.727Z</time></trkpt><trkpt lat="43.22759" lon="13.1434917"><ele>262.0</ele><time>2026-04-04T13:24:25.731Z</time></trkpt><trkpt lat="43.22758" lon="13.143185"><ele>262.0</ele><time>2026-04-04T13:24:26.73Z</time></trkpt><trkpt lat="43.2275683" lon="13.14288"><ele>261.3333333333333</ele><time>2026-04-04T13:24:27.73Z</time></trkpt><trkpt lat="43.2275667" lon="13.142575"><ele>260.6666666666667</ele><time>2026-04-04T13:24:28.728Z</time></trkpt><trkpt lat="43.2275667" lon="13.142275"><ele>260.0</ele><time>2026-04-04T13:24:29.734Z</time></trkpt><trkpt lat="43.2275433" lon="13.1419733"><ele>260.0</ele><time>2026-04-04T13:24:30.732Z</time></trkpt><trkpt lat="43.2275033" lon="13.1416767"><ele>260.0</ele><time>2026-04-04T13:24:31.727Z</time></trkpt><trkpt lat="43.227445" lon="13.1413883"><ele>260.0</ele><time>2026-04-04T13:24:32.723Z</time></trkpt><trkpt lat="43.2273683" lon="13.1411117"><ele>261.6666666666667</ele><time>2026-04-04T13:24:33.731Z</time></trkpt><trkpt lat="43.2272667" lon="13.1408617"><ele>263.3333333333333</ele><time>2026-04-04T13:24:34.729Z</time></trkpt><trkpt lat="43.2271433" lon="13.1406267"><ele>265.0</ele><time>2026-04-04T13:24:35.728Z</time></trkpt><trkpt lat="43.2270133" lon="13.1403933"><ele>265.0</ele><time>2026-04-04T13:24:36.73Z</time></trkpt><trkpt lat="43.226885" lon="13.14016"><ele>265.0</ele><time>2026-04-04T13:24:37.731Z</time></trkpt><trkpt lat="43.22676" lon="13.1399333"><ele>265.0</ele><time>2026-04-04T13:24:38.733Z</time></trkpt><trkpt lat="43.2266317" lon="13.1397133"><ele>262.3333333333333</ele><time>2026-04-04T13:24:39.728Z</time></trkpt><trkpt lat="43.226495" lon="13.1395033"><ele>259.6666666666667</ele><time>2026-04-04T13:24:40.727Z</time></trkpt><trkpt lat="43.226345" lon="13.139295"><ele>257.0</ele><time>2026-04-04T13:24:41.727Z</time></trkpt><trkpt lat="43.22619" lon="13.1390933"><ele>261.33333333333337</ele><time>2026-04-04T13:24:42.728Z</time></trkpt><trkpt lat="43.2260267" lon="13.1388983"><ele>265.6666666666667</ele><time>2026-04-04T13:24:43.729Z</time></trkpt><trkpt lat="43.225855" lon="13.1387083"><ele>270.0</ele><time>2026-04-04T13:24:44.729Z</time></trkpt><trkpt lat="43.225675" lon="13.1385183"><ele>266.0</ele><time>2026-04-04T13:24:45.726Z</time></trkpt><trkpt lat="43.22549" lon="13.13833"><ele>262.0</ele><time>2026-04-04T13:24:46.737Z</time></trkpt><trkpt lat="43.2253017" lon="13.13814"><ele>262.0</ele><time>2026-04-04T13:24:47.728Z</time></trkpt><trkpt lat="43.2251133" lon="13.137945"><ele>262.0</ele><time>2026-04-04T13:24:48.727Z</time></trkpt><trkpt lat="43.2249233" lon="13.1377433"><ele>261.5</ele><time>2026-04-04T13:24:49.73Z</time></trkpt><trkpt lat="43.2247333" lon="13.13754"><ele>261.0</ele><time>2026-04-04T13:24:50.734Z</time></trkpt><trkpt lat="43.2245467" lon="13.137335"><ele>261.0</ele><time>2026-04-04T13:24:51.725Z</time></trkpt><trkpt lat="43.2243617" lon="13.137125"><ele>261.0</ele><time>2026-04-04T13:24:52.727Z</time></trkpt><trkpt lat="43.2241833" lon="13.1369083"><ele>261.0</ele><time>2026-04-04T13:24:53.731Z</time></trkpt><trkpt lat="43.2240133" lon="13.1366867"><ele>261.0</ele><time>2026-04-04T13:24:54.728Z</time></trkpt><trkpt lat="43.22385" lon="13.13647"><ele>261.3333333333333</ele><time>2026-04-04T13:24:55.727Z</time></trkpt><trkpt lat="43.2237017" lon="13.1362467"><ele>261.66666666666663</ele><time>2026-04-04T13:24:56.734Z</time></trkpt><trkpt lat="43.2235733" lon="13.135995"><ele>262.0</ele><time>2026-04-04T13:24:57.722Z</time></trkpt><trkpt lat="43.223465" lon="13.1357183"><ele>262.0</ele><time>2026-04-04T13:24:58.727Z</time></trkpt><trkpt lat="43.2233817" lon="13.1354183"><ele>262.0</ele><time>2026-04-04T13:24:59.728Z</time></trkpt><trkpt lat="43.2233083" lon="13.1351083"><ele>264.5</ele><time>2026-04-04T13:25:00.728Z</time></trkpt><trkpt lat="43.2232417" lon="13.134795"><ele>267.0</ele><time>2026-04-04T13:25:01.728Z</time></trkpt><trkpt lat="43.2231833" lon="13.1344733"><ele>261.0</ele><time>2026-04-04T13:25:02.727Z</time></trkpt><trkpt lat="43.2231317" lon="13.1341533"><ele>255.0</ele><time>2026-04-04T13:25:03.729Z</time></trkpt><trkpt lat="43.2230867" lon="13.1338367"><ele>255.0</ele><time>2026-04-04T13:25:04.729Z</time></trkpt><trkpt lat="43.2230567" lon="13.1335217"><ele>255.0</ele><time>2026-04-04T13:25:05.733Z</time></trkpt><trkpt lat="43.2230467" lon="13.1332033"><ele>255.0</ele><time>2026-04-04T13:25:06.731Z</time></trkpt><trkpt lat="43.2230567" lon="13.13288"><ele>255.0</ele><time>2026-04-04T13:25:07.741Z</time></trkpt><trkpt lat="43.2230783" lon="13.1325567"><ele>254.5</ele><time>2026-04-04T13:25:08.731Z</time></trkpt><trkpt lat="43.22311" lon="13.1322317"><ele>254.0</ele><time>2026-04-04T13:25:09.738Z</time></trkpt><trkpt lat="43.22316" lon="13.1319117"><ele>257.0</ele><time>2026-04-04T13:25:10.73Z</time></trkpt><trkpt lat="43.22323" lon="13.1316017"><ele>260.0</ele><time>2026-04-04T13:25:11.734Z</time></trkpt><trkpt lat="43.22332" lon="13.1313017"><ele>260.0</ele><time>2026-04-04T13:25:12.734Z</time></trkpt><trkpt lat="43.22342" lon="13.131"><ele>260.0</ele><time>2026-04-04T13:25:13.732Z</time></trkpt><trkpt lat="43.2235283" lon="13.13069"><ele>256.5</ele><time>2026-04-04T13:25:14.729Z</time></trkpt><trkpt lat="43.223635" lon="13.1303733"><ele>253.0</ele><time>2026-04-04T13:25:15.729Z</time></trkpt><trkpt lat="43.2237383" lon="13.130055"><ele>252.0</ele><time>2026-04-04T13:25:16.728Z</time></trkpt><trkpt lat="43.22384" lon="13.1297317"><ele>251.0</ele><time>2026-04-04T13:25:17.735Z</time></trkpt><trkpt lat="43.22394" lon="13.1294033"><ele>263.5</ele><time>2026-04-04T13:25:18.726Z</time></trkpt><trkpt lat="43.2240267" lon="13.1290717"><ele>276.0</ele><time>2026-04-04T13:25:19.728Z</time></trkpt><trkpt lat="43.2240867" lon="13.1287317"><ele>276.0</ele><time>2026-04-04T13:25:20.734Z</time></trkpt><trkpt lat="43.2241167" lon="13.12839"><ele>276.0</ele><time>2026-04-04T13:25:21.728Z</time></trkpt><trkpt lat="43.22412" lon="13.1280483"><ele>277.0</ele><time>2026-04-04T13:25:22.727Z</time></trkpt><trkpt lat="43.2240983" lon="13.1277017"><ele>278.0</ele><time>2026-04-04T13:25:23.729Z</time></trkpt><trkpt lat="43.2240583" lon="13.1273517"><ele>280.5</ele><time>2026-04-04T13:25:24.729Z</time></trkpt><trkpt lat="43.2240167" lon="13.127005"><ele>283.0</ele><time>2026-04-04T13:25:25.728Z</time></trkpt><trkpt lat="43.2239783" lon="13.126655"><ele>269.5</ele><time>2026-04-04T13:25:26.733Z</time></trkpt><trkpt lat="43.2239417" lon="13.1263033"><ele>256.0</ele><time>2026-04-04T13:25:27.727Z</time></trkpt><trkpt lat="43.223905" lon="13.1259483"><ele>255.0</ele><time>2026-04-04T13:25:28.729Z</time></trkpt><trkpt lat="43.2238717" lon="13.1255883"><ele>254.0</ele><time>2026-04-04T13:25:29.727Z</time></trkpt><trkpt lat="43.2238483" lon="13.1252233"><ele>254.5</ele><time>2026-04-04T13:25:30.735Z</time></trkpt><trkpt lat="43.2238333" lon="13.1248567"><ele>255.0</ele><time>2026-04-04T13:25:31.727Z</time></trkpt><trkpt lat="43.2238383" lon="13.1244867"><ele>255.0</ele><time>2026-04-04T13:25:32.73Z</time></trkpt><trkpt lat="43.2238583" lon="13.1241133"><ele>255.0</ele><time>2026-04-04T13:25:33.727Z</time></trkpt><trkpt lat="43.223885" lon="13.1237367"><ele>255.5</ele><time>2026-04-04T13:25:34.727Z</time></trkpt><trkpt lat="43.2239133" lon="13.1233583"><ele>256.0</ele><time>2026-04-04T13:25:35.73Z</time></trkpt><trkpt lat="43.2239367" lon="13.1229867"><ele>256.5</ele><time>2026-04-04T13:25:36.726Z</time></trkpt><trkpt lat="43.223975" lon="13.1226167"><ele>257.0</ele><time>2026-04-04T13:25:37.731Z</time></trkpt><trkpt lat="43.2240167" lon="13.1222433"><ele>267.0</ele><time>2026-04-04T13:25:38.733Z</time></trkpt><trkpt lat="43.2240483" lon="13.12188"><ele>277.0</ele><time>2026-04-04T13:25:39.727Z</time></trkpt><trkpt lat="43.2240533" lon="13.1215167"><ele>277.0</ele><time>2026-04-04T13:25:40.732Z</time></trkpt><trkpt lat="43.2240517" lon="13.1211533"><ele>277.0</ele><time>2026-04-04T13:25:41.733Z</time></trkpt><trkpt lat="43.2240617" lon="13.1207933"><ele>275.5</ele><time>2026-04-04T13:25:42.727Z</time></trkpt><trkpt lat="43.2240817" lon="13.1204233"><ele>274.0</ele><time>2026-04-04T13:25:43.729Z</time></trkpt><trkpt lat="43.2241117" lon="13.1200517"><ele>272.5</ele><time>2026-04-04T13:25:44.73Z</time></trkpt><trkpt lat="43.2241417" lon="13.1196767"><ele>271.0</ele><time>2026-04-04T13:25:45.729Z</time></trkpt><trkpt lat="43.2241733" lon="13.119305"><ele>268.5</ele><time>2026-04-04T13:25:46.728Z</time></trkpt><trkpt lat="43.2242117" lon="13.1189383"><ele>266.0</ele><time>2026-04-04T13:25:47.727Z</time></trkpt><trkpt lat="43.224255" lon="13.1185733"><ele>264.5</ele><time>2026-04-04T13:25:48.728Z</time></trkpt><trkpt lat="43.2242967" lon="13.11821"><ele>263.0</ele><time>2026-04-04T13:25:49.729Z</time></trkpt><trkpt lat="43.2243333" lon="13.1178433"><ele>263.0</ele><time>2026-04-04T13:25:50.733Z</time></trkpt><trkpt lat="43.22437" lon="13.117475"><ele>263.0</ele><time>2026-04-04T13:25:51.729Z</time></trkpt><trkpt lat="43.2244133" lon="13.1171033"><ele>262.5</ele><time>2026-04-04T13:25:52.729Z</time></trkpt><trkpt lat="43.2244583" lon="13.116725"><ele>262.0</ele><time>2026-04-04T13:25:53.727Z</time></trkpt><trkpt lat="43.2245" lon="13.1163483"><ele>261.5</ele><time>2026-04-04T13:25:54.729Z</time></trkpt><trkpt lat="43.224525" lon="13.1159683"><ele>261.0</ele><time>2026-04-04T13:25:55.729Z</time></trkpt><trkpt lat="43.22452" lon="13.1155883"><ele>263.5</ele><time>2026-04-04T13:25:56.724Z</time></trkpt><trkpt lat="43.2244833" lon="13.1152133"><ele>266.0</ele><time>2026-04-04T13:25:57.732Z</time></trkpt><trkpt lat="43.2244167" lon="13.1148517"><ele>271.5</ele><time>2026-04-04T13:25:58.728Z</time></trkpt><trkpt lat="43.224325" lon="13.1145083"><ele>277.0</ele><time>2026-04-04T13:25:59.727Z</time></trkpt><trkpt lat="43.224215" lon="13.1141767"><ele>270.5</ele><time>2026-04-04T13:26:00.731Z</time></trkpt><trkpt lat="43.22409" lon="13.1138517"><ele>264.0</ele><time>2026-04-04T13:26:01.728Z</time></trkpt><trkpt lat="43.2239617" lon="13.1135233"><ele>264.0</ele><time>2026-04-04T13:26:02.733Z</time></trkpt><trkpt lat="43.2238433" lon="13.113185"><ele>264.0</ele><time>2026-04-04T13:26:03.728Z</time></trkpt><trkpt lat="43.22374" lon="13.11284"><ele>264.0</ele><time>2026-04-04T13:26:04.727Z</time></trkpt><trkpt lat="43.22365" lon="13.1124867"><ele>264.0</ele><time>2026-04-04T13:26:05.729Z</time></trkpt><trkpt lat="43.2235667" lon="13.112125"><ele>267.0</ele><time>2026-04-04T13:26:06.729Z</time></trkpt><trkpt lat="43.2234883" lon="13.11176"><ele>270.0</ele><time>2026-04-04T13:26:07.728Z</time></trkpt><trkpt lat="43.2234033" lon="13.111395"><ele>271.0</ele><time>2026-04-04T13:26:08.732Z</time></trkpt><trkpt lat="43.2233167" lon="13.1110267"><ele>272.0</ele><time>2026-04-04T13:26:09.729Z</time></trkpt><trkpt lat="43.2232283" lon="13.1106583"><ele>266.5</ele><time>2026-04-04T13:26:10.729Z</time></trkpt><trkpt lat="43.2231433" lon="13.1102867"><ele>261.0</ele><time>2026-04-04T13:26:11.728Z</time></trkpt><trkpt lat="43.223065" lon="13.1099117"><ele>261.0</ele><time>2026-04-04T13:26:12.729Z</time></trkpt><trkpt lat="43.2229933" lon="13.1095333"><ele>261.0</ele><time>2026-04-04T13:26:13.726Z</time></trkpt><trkpt lat="43.2229283" lon="13.1091533"><ele>263.0</ele><time>2026-04-04T13:26:14.727Z</time></trkpt><trkpt lat="43.22287" lon="13.10877"><ele>265.0</ele><time>2026-04-04T13:26:15.727Z</time></trkpt><trkpt lat="43.22282" lon="13.1083883"><ele>266.0</ele><time>2026-04-04T13:26:16.729Z</time></trkpt><trkpt lat="43.2227833" lon="13.108"><ele>267.0</ele><time>2026-04-04T13:26:17.729Z</time></trkpt><trkpt lat="43.2227567" lon="13.1076117"><ele>269.0</ele><time>2026-04-04T13:26:18.729Z</time></trkpt><trkpt lat="43.2227433" lon="13.1072217"><ele>271.0</ele><time>2026-04-04T13:26:19.729Z</time></trkpt><trkpt lat="43.222735" lon="13.1068283"><ele>271.0</ele><time>2026-04-04T13:26:20.734Z</time></trkpt><trkpt lat="43.222735" lon="13.1064333"><ele>271.0</ele><time>2026-04-04T13:26:21.728Z</time></trkpt><trkpt lat="43.2227383" lon="13.1060383"><ele>271.0</ele><time>2026-04-04T13:26:22.73Z</time></trkpt><trkpt lat="43.22274" lon="13.10564"><ele>271.0</ele><time>2026-04-04T13:26:23.731Z</time></trkpt><trkpt lat="43.2227433" lon="13.1052417"><ele>270.5</ele><time>2026-04-04T13:26:24.73Z</time></trkpt><trkpt lat="43.22275" lon="13.1048433"><ele>270.0</ele><time>2026-04-04T13:26:25.732Z</time></trkpt><trkpt lat="43.2227583" lon="13.10445"><ele>267.5</ele><time>2026-04-04T13:26:26.73Z</time></trkpt><trkpt lat="43.2227783" lon="13.104065"><ele>265.0</ele><time>2026-04-04T13:26:27.729Z</time></trkpt><trkpt lat="43.22281" lon="13.1036867"><ele>265.0</ele><time>2026-04-04T13:26:28.73Z</time></trkpt><trkpt lat="43.22285" lon="13.1033267"><ele>265.0</ele><time>2026-04-04T13:26:29.729Z</time></trkpt><trkpt lat="43.2228833" lon="13.1029817"><ele>266.5</ele><time>2026-04-04T13:26:30.729Z</time></trkpt><trkpt lat="43.2229" lon="13.1026533"><ele>268.0</ele><time>2026-04-04T13:26:31.73Z</time></trkpt><trkpt lat="43.2228833" lon="13.1023367"><ele>273.0</ele><time>2026-04-04T13:26:32.73Z</time></trkpt><trkpt lat="43.2228267" lon="13.10203"><ele>278.0</ele><time>2026-04-04T13:26:33.728Z</time></trkpt><trkpt lat="43.2227317" lon="13.1017383"><ele>287.5</ele><time>2026-04-04T13:26:34.727Z</time></trkpt><trkpt lat="43.2226017" lon="13.10148"><ele>297.0</ele><time>2026-04-04T13:26:35.729Z</time></trkpt><trkpt lat="43.222445" lon="13.1012567"><ele>291.3333333333333</ele><time>2026-04-04T13:26:36.729Z</time></trkpt><trkpt lat="43.2222633" lon="13.101085"><ele>285.66666666666663</ele><time>2026-04-04T13:26:37.732Z</time></trkpt><trkpt lat="43.22206" lon="13.100955"><ele>280.0</ele><time>2026-04-04T13:26:38.734Z</time></trkpt><trkpt lat="43.2218467" lon="13.1008583"><ele>280.0</ele><time>2026-04-04T13:26:39.728Z</time></trkpt><trkpt lat="43.22164" lon="13.1007833"><ele>280.0</ele><time>2026-04-04T13:26:40.729Z</time></trkpt><trkpt lat="43.22145" lon="13.1007183"><ele>280.0</ele><time>2026-04-04T13:26:41.728Z</time></trkpt><trkpt lat="43.22128" lon="13.1006567"><ele>278.3333333333333</ele><time>2026-04-04T13:26:42.735Z</time></trkpt><trkpt lat="43.221125" lon="13.100585"><ele>276.6666666666667</ele><time>2026-04-04T13:26:43.727Z</time></trkpt><trkpt lat="43.2209883" lon="13.10049"><ele>275.0</ele><time>2026-04-04T13:26:44.73Z</time></trkpt><trkpt lat="43.2208867" lon="13.100355"><ele>275.0</ele><time>2026-04-04T13:26:45.73Z</time></trkpt><trkpt lat="43.2208033" lon="13.1001967"><ele>275.0</ele><time>2026-04-04T13:26:46.728Z</time></trkpt><trkpt lat="43.22075" lon="13.1000083"><ele>275.0</ele><time>2026-04-04T13:26:47.728Z</time></trkpt><trkpt lat="43.2207067" lon="13.09979"><ele>275.6666666666667</ele><time>2026-04-04T13:26:48.729Z</time></trkpt><trkpt lat="43.2206583" lon="13.099555"><ele>276.3333333333333</ele><time>2026-04-04T13:26:49.729Z</time></trkpt><trkpt lat="43.2206083" lon="13.099315"><ele>277.0</ele><time>2026-04-04T13:26:50.73Z</time></trkpt><trkpt lat="43.2205617" lon="13.0990717"><ele>275.3333333333333</ele><time>2026-04-04T13:26:51.729Z</time></trkpt><trkpt lat="43.2205367" lon="13.0988167"><ele>273.6666666666667</ele><time>2026-04-04T13:26:52.729Z</time></trkpt><trkpt lat="43.22054" lon="13.0985433"><ele>272.0</ele><time>2026-04-04T13:26:53.73Z</time></trkpt><trkpt lat="43.2205567" lon="13.0982617"><ele>270.5</ele><time>2026-04-04T13:26:54.729Z</time></trkpt><trkpt lat="43.2205867" lon="13.0979633"><ele>269.0</ele><time>2026-04-04T13:26:55.73Z</time></trkpt><trkpt lat="43.2206267" lon="13.0976517"><ele>272.5</ele><time>2026-04-04T13:26:56.74Z</time></trkpt><trkpt lat="43.2206817" lon="13.09734"><ele>276.0</ele><time>2026-04-04T13:26:57.73Z</time></trkpt><trkpt lat="43.2207467" lon="13.0970367"><ele>276.0</ele><time>2026-04-04T13:26:58.728Z</time></trkpt><trkpt lat="43.2208167" lon="13.0967367"><ele>276.0</ele><time>2026-04-04T13:26:59.73Z</time></trkpt><trkpt lat="43.2208833" lon="13.0964333"><ele>276.0</ele><time>2026-04-04T13:27:00.73Z</time></trkpt><trkpt lat="43.2209333" lon="13.0961317"><ele>276.0</ele><time>2026-04-04T13:27:01.73Z</time></trkpt><trkpt lat="43.2209717" lon="13.09584"><ele>276.0</ele><time>2026-04-04T13:27:02.734Z</time></trkpt><trkpt lat="43.2209917" lon="13.095545"><ele>276.0</ele><time>2026-04-04T13:27:03.73Z</time></trkpt><trkpt lat="43.2209867" lon="13.0952433"><ele>276.0</ele><time>2026-04-04T13:27:04.73Z</time></trkpt><trkpt lat="43.2209617" lon="13.0949333"><ele>276.0</ele><time>2026-04-04T13:27:05.732Z</time></trkpt><trkpt lat="43.22093" lon="13.0946133"><ele>276.0</ele><time>2026-04-04T13:27:06.725Z</time></trkpt><trkpt lat="43.2209017" lon="13.094285"><ele>276.0</ele><time>2026-04-04T13:27:07.731Z</time></trkpt><trkpt lat="43.2208783" lon="13.0939483"><ele>277.0</ele><time>2026-04-04T13:27:08.73Z</time></trkpt><trkpt lat="43.2208583" lon="13.093615"><ele>278.0</ele><time>2026-04-04T13:27:09.728Z</time></trkpt><trkpt lat="43.2208417" lon="13.0932917"><ele>279.0</ele><time>2026-04-04T13:27:10.73Z</time></trkpt><trkpt lat="43.2208217" lon="13.0929683"><ele>280.0</ele><time>2026-04-04T13:27:11.731Z</time></trkpt><trkpt lat="43.220795" lon="13.092655"><ele>283.5</ele><time>2026-04-04T13:27:12.728Z</time></trkpt><trkpt lat="43.2207533" lon="13.092345"><ele>287.0</ele><time>2026-04-04T13:27:13.727Z</time></trkpt><trkpt lat="43.2206967" lon="13.0920333"><ele>280.0</ele><time>2026-04-04T13:27:14.732Z</time></trkpt><trkpt lat="43.2206333" lon="13.0917217"><ele>273.0</ele><time>2026-04-04T13:27:15.73Z</time></trkpt><trkpt lat="43.22057" lon="13.0914117"><ele>273.0</ele><time>2026-04-04T13:27:16.728Z</time></trkpt><trkpt lat="43.2205067" lon="13.0911133"><ele>273.0</ele><time>2026-04-04T13:27:17.73Z</time></trkpt><trkpt lat="43.22045" lon="13.0908267"><ele>273.0</ele><time>2026-04-04T13:27:18.733Z</time></trkpt><trkpt lat="43.2204" lon="13.09055"><ele>273.3333333333333</ele><time>2026-04-04T13:27:19.731Z</time></trkpt><trkpt lat="43.220355" lon="13.0902833"><ele>273.66666666666663</ele><time>2026-04-04T13:27:20.732Z</time></trkpt><trkpt lat="43.2203233" lon="13.0900233"><ele>274.0</ele><time>2026-04-04T13:27:21.728Z</time></trkpt><trkpt lat="43.2203117" lon="13.0897733"><ele>274.0</ele><time>2026-04-04T13:27:22.728Z</time></trkpt><trkpt lat="43.2203283" lon="13.0895333"><ele>274.0</ele><time>2026-04-04T13:27:23.73Z</time></trkpt><trkpt lat="43.2203633" lon="13.0893133"><ele>274.0</ele><time>2026-04-04T13:27:24.731Z</time></trkpt><trkpt lat="43.2204367" lon="13.0891217"><ele>274.3333333333333</ele><time>2026-04-04T13:27:25.731Z</time></trkpt><trkpt lat="43.2205517" lon="13.0889583"><ele>274.6666666666667</ele><time>2026-04-04T13:27:26.729Z</time></trkpt><trkpt lat="43.2206833" lon="13.0888167"><ele>275.0</ele><time>2026-04-04T13:27:27.73Z</time></trkpt><trkpt lat="43.2208233" lon="13.0886867"><ele>274.6666666666667</ele><time>2026-04-04T13:27:28.727Z</time></trkpt><trkpt lat="43.2209583" lon="13.0885567"><ele>274.3333333333333</ele><time>2026-04-04T13:27:29.73Z</time></trkpt><trkpt lat="43.221075" lon="13.0884167"><ele>274.0</ele><time>2026-04-04T13:27:30.731Z</time></trkpt><trkpt lat="43.2211633" lon="13.0882533"><ele>274.0</ele><time>2026-04-04T13:27:31.731Z</time></trkpt><trkpt lat="43.22123" lon="13.0880583"><ele>274.0</ele><time>2026-04-04T13:27:32.755Z</time></trkpt><trkpt lat="43.2212583" lon="13.0878333"><ele>274.0</ele><time>2026-04-04T13:27:33.729Z</time></trkpt><trkpt lat="43.221265" lon="13.0875933"><ele>273.66666666666663</ele><time>2026-04-04T13:27:34.725Z</time></trkpt><trkpt lat="43.2212533" lon="13.0873267"><ele>273.3333333333333</ele><time>2026-04-04T13:27:35.727Z</time></trkpt><trkpt lat="43.2212217" lon="13.0870383"><ele>273.0</ele><time>2026-04-04T13:27:36.732Z</time></trkpt><trkpt lat="43.221185" lon="13.0867417"><ele>273.6666666666667</ele><time>2026-04-04T13:27:37.732Z</time></trkpt><trkpt lat="43.2211567" lon="13.08644"><ele>274.33333333333337</ele><time>2026-04-04T13:27:38.729Z</time></trkpt><trkpt lat="43.22113" lon="13.08614"><ele>275.0</ele><time>2026-04-04T13:27:39.728Z</time></trkpt><trkpt lat="43.2211017" lon="13.0858283"><ele>275.0</ele><time>2026-04-04T13:27:40.729Z</time></trkpt><trkpt lat="43.2210683" lon="13.08551"><ele>275.0</ele><time>2026-04-04T13:27:41.729Z</time></trkpt><trkpt lat="43.2210383" lon="13.085185"><ele>275.0</ele><time>2026-04-04T13:27:42.73Z</time></trkpt><trkpt lat="43.221005" lon="13.0848483"><ele>275.0</ele><time>2026-04-04T13:27:43.727Z</time></trkpt><trkpt lat="43.2209717" lon="13.0845067"><ele>275.0</ele><time>2026-04-04T13:27:44.725Z</time></trkpt><trkpt lat="43.22094" lon="13.0841633"><ele>275.0</ele><time>2026-04-04T13:27:45.731Z</time></trkpt><trkpt lat="43.22091" lon="13.0838217"><ele>275.0</ele><time>2026-04-04T13:27:46.73Z</time></trkpt><trkpt lat="43.2208767" lon="13.0834833"><ele>275.0</ele><time>2026-04-04T13:27:47.73Z</time></trkpt><trkpt lat="43.2208467" lon="13.0831533"><ele>275.0</ele><time>2026-04-04T13:27:48.727Z</time></trkpt><trkpt lat="43.2208117" lon="13.0828233"><ele>275.0</ele><time>2026-04-04T13:27:49.729Z</time></trkpt><trkpt lat="43.220775" lon="13.0824933"><ele>277.0</ele><time>2026-04-04T13:27:50.738Z</time></trkpt><trkpt lat="43.220735" lon="13.0821667"><ele>279.0</ele><time>2026-04-04T13:27:51.728Z</time></trkpt><trkpt lat="43.2206917" lon="13.0818433"><ele>278.0</ele><time>2026-04-04T13:27:52.727Z</time></trkpt><trkpt lat="43.2206467" lon="13.0815167"><ele>277.0</ele><time>2026-04-04T13:27:53.729Z</time></trkpt><trkpt lat="43.2206017" lon="13.0811883"><ele>277.0</ele><time>2026-04-04T13:27:54.729Z</time></trkpt><trkpt lat="43.2205617" lon="13.080865"><ele>277.0</ele><time>2026-04-04T13:27:55.729Z</time></trkpt><trkpt lat="43.2205283" lon="13.0805417"><ele>279.0</ele><time>2026-04-04T13:27:56.728Z</time></trkpt><trkpt lat="43.2205017" lon="13.080215"><ele>281.0</ele><time>2026-04-04T13:27:57.729Z</time></trkpt><trkpt lat="43.2204733" lon="13.0798917"><ele>282.5</ele><time>2026-04-04T13:27:58.732Z</time></trkpt><trkpt lat="43.2204283" lon="13.0795717"><ele>284.0</ele><time>2026-04-04T13:27:59.73Z</time></trkpt><trkpt lat="43.2203683" lon="13.0792533"><ele>285.5</ele><time>2026-04-04T13:28:00.731Z</time></trkpt><trkpt lat="43.2202983" lon="13.0789417"><ele>287.0</ele><time>2026-04-04T13:28:01.731Z</time></trkpt><trkpt lat="43.2202267" lon="13.07863"><ele>287.0</ele><time>2026-04-04T13:28:02.73Z</time></trkpt><trkpt lat="43.2201633" lon="13.0783167"><ele>287.0</ele><time>2026-04-04T13:28:03.726Z</time></trkpt><trkpt lat="43.22011" lon="13.0780117"><ele>288.0</ele><time>2026-04-04T13:28:04.727Z</time></trkpt><trkpt lat="43.2200667" lon="13.07772"><ele>289.0</ele><time>2026-04-04T13:28:05.729Z</time></trkpt><trkpt lat="43.2200267" lon="13.0774417"><ele>290.0</ele><time>2026-04-04T13:28:06.727Z</time></trkpt><trkpt lat="43.2199817" lon="13.0771717"><ele>290.33333333333337</ele><time>2026-04-04T13:28:07.731Z</time></trkpt><trkpt lat="43.2199367" lon="13.0769183"><ele>290.6666666666667</ele><time>2026-04-04T13:28:08.732Z</time></trkpt><trkpt lat="43.2198883" lon="13.0766817"><ele>291.0</ele><time>2026-04-04T13:28:09.728Z</time></trkpt><trkpt lat="43.2198417" lon="13.07646"><ele>289.0</ele><time>2026-04-04T13:28:10.73Z</time></trkpt><trkpt lat="43.219795" lon="13.0762517"><ele>287.0</ele><time>2026-04-04T13:28:11.73Z</time></trkpt><trkpt lat="43.2197533" lon="13.076055"><ele>285.0</ele><time>2026-04-04T13:28:12.727Z</time></trkpt><trkpt lat="43.2197083" lon="13.0758517"><ele>285.6666666666667</ele><time>2026-04-04T13:28:13.729Z</time></trkpt><trkpt lat="43.2196667" lon="13.0756467"><ele>286.33333333333337</ele><time>2026-04-04T13:28:14.729Z</time></trkpt><trkpt lat="43.21962" lon="13.075445"><ele>287.0</ele><time>2026-04-04T13:28:15.731Z</time></trkpt><trkpt lat="43.219565" lon="13.0752317"><ele>287.0</ele><time>2026-04-04T13:28:16.728Z</time></trkpt><trkpt lat="43.2195133" lon="13.0749983"><ele>287.0</ele><time>2026-04-04T13:28:17.729Z</time></trkpt><trkpt lat="43.2194667" lon="13.0747567"><ele>287.0</ele><time>2026-04-04T13:28:18.73Z</time></trkpt><trkpt lat="43.2194233" lon="13.0745183"><ele>287.0</ele><time>2026-04-04T13:28:19.727Z</time></trkpt><trkpt lat="43.21938" lon="13.074285"><ele>287.0</ele><time>2026-04-04T13:28:20.731Z</time></trkpt><trkpt lat="43.2193333" lon="13.0740517"><ele>287.0</ele><time>2026-04-04T13:28:21.732Z</time></trkpt><trkpt lat="43.2192883" lon="13.0738217"><ele>287.6666666666667</ele><time>2026-04-04T13:28:22.727Z</time></trkpt><trkpt lat="43.2192417" lon="13.073585"><ele>288.3333333333333</ele><time>2026-04-04T13:28:23.732Z</time></trkpt><trkpt lat="43.2192033" lon="13.0733467"><ele>289.0</ele><time>2026-04-04T13:28:24.73Z</time></trkpt><trkpt lat="43.2191717" lon="13.0730967"><ele>289.0</ele><time>2026-04-04T13:28:25.729Z</time></trkpt><trkpt lat="43.2191483" lon="13.07284"><ele>289.0</ele><time>2026-04-04T13:28:26.76Z</time></trkpt><trkpt lat="43.21914" lon="13.07258"><ele>289.0</ele><time>2026-04-04T13:28:27.73Z</time></trkpt><trkpt lat="43.2191383" lon="13.0723217"><ele>289.0</ele><time>2026-04-04T13:28:28.726Z</time></trkpt><trkpt lat="43.219135" lon="13.0720617"><ele>289.0</ele><time>2026-04-04T13:28:29.726Z</time></trkpt><trkpt lat="43.2191317" lon="13.071805"><ele>289.0</ele><time>2026-04-04T13:28:30.727Z</time></trkpt><trkpt lat="43.2191283" lon="13.0715533"><ele>289.0</ele><time>2026-04-04T13:28:31.732Z</time></trkpt><trkpt lat="43.2191267" lon="13.071315"><ele>289.0</ele><time>2026-04-04T13:28:32.728Z</time></trkpt><trkpt lat="43.219125" lon="13.0710867"><ele>289.0</ele><time>2026-04-04T13:28:33.731Z</time></trkpt><trkpt lat="43.2191217" lon="13.0708683"><ele>289.25</ele><time>2026-04-04T13:28:34.73Z</time></trkpt><trkpt lat="43.21912" lon="13.0706533"><ele>289.5</ele><time>2026-04-04T13:28:35.73Z</time></trkpt><trkpt lat="43.2191167" lon="13.07045"><ele>289.75</ele><time>2026-04-04T13:28:36.729Z</time></trkpt><trkpt lat="43.21911" lon="13.0702533"><ele>290.0</ele><time>2026-04-04T13:28:37.731Z</time></trkpt><trkpt lat="43.2191033" lon="13.0700567"><ele>290.0</ele><time>2026-04-04T13:28:38.729Z</time></trkpt><trkpt lat="43.2190983" lon="13.0698767"><ele>290.0</ele><time>2026-04-04T13:28:39.727Z</time></trkpt><trkpt lat="43.2190967" lon="13.0697133"><ele>290.0</ele><time>2026-04-04T13:28:40.733Z</time></trkpt><trkpt lat="43.2191" lon="13.06956"><ele>290.0</ele><time>2026-04-04T13:28:41.73Z</time></trkpt><trkpt lat="43.2190967" lon="13.0693933"><ele>290.0</ele><time>2026-04-04T13:28:42.731Z</time></trkpt><trkpt lat="43.2191" lon="13.0692117"><ele>290.0</ele><time>2026-04-04T13:28:43.729Z</time></trkpt><trkpt lat="43.21911" lon="13.0690283"><ele>290.0</ele><time>2026-04-04T13:28:44.731Z</time></trkpt><trkpt lat="43.2191333" lon="13.0688367"><ele>290.0</ele><time>2026-04-04T13:28:45.73Z</time></trkpt><trkpt lat="43.2191583" lon="13.06864"><ele>289.75</ele><time>2026-04-04T13:28:46.729Z</time></trkpt><trkpt lat="43.2191733" lon="13.0684417"><ele>289.5</ele><time>2026-04-04T13:28:47.729Z</time></trkpt><trkpt lat="43.2191733" lon="13.068245"><ele>289.25</ele><time>2026-04-04T13:28:48.728Z</time></trkpt><trkpt lat="43.21915" lon="13.06805"><ele>289.0</ele><time>2026-04-04T13:28:49.728Z</time></trkpt><trkpt lat="43.2191183" lon="13.0678467"><ele>288.66666666666663</ele><time>2026-04-04T13:28:50.732Z</time></trkpt><trkpt lat="43.2190767" lon="13.0676317"><ele>288.3333333333333</ele><time>2026-04-04T13:28:51.732Z</time></trkpt><trkpt lat="43.2190283" lon="13.0674133"><ele>288.0</ele><time>2026-04-04T13:28:52.729Z</time></trkpt><trkpt lat="43.21898" lon="13.0672083"><ele>288.0</ele><time>2026-04-04T13:28:53.73Z</time></trkpt><trkpt lat="43.2189383" lon="13.0670267"><ele>288.0</ele><time>2026-04-04T13:28:54.729Z</time></trkpt><trkpt lat="43.2188983" lon="13.0668683"><ele>288.0</ele><time>2026-04-04T13:28:55.731Z</time></trkpt><trkpt lat="43.2188567" lon="13.066725"><ele>288.0</ele><time>2026-04-04T13:28:56.727Z</time></trkpt><trkpt lat="43.2188067" lon="13.06659"><ele>289.3333333333333</ele><time>2026-04-04T13:28:57.73Z</time></trkpt><trkpt lat="43.2187267" lon="13.0664467"><ele>290.66666666666663</ele><time>2026-04-04T13:28:58.727Z</time></trkpt><trkpt lat="43.2186267" lon="13.0662817"><ele>292.0</ele><time>2026-04-04T13:28:59.725Z</time></trkpt><trkpt lat="43.2185117" lon="13.0661067"><ele>292.0</ele><time>2026-04-04T13:29:00.727Z</time></trkpt><trkpt lat="43.218385" lon="13.0659317"><ele>292.0</ele><time>2026-04-04T13:29:01.729Z</time></trkpt><trkpt lat="43.218255" lon="13.0657633"><ele>292.0</ele><time>2026-04-04T13:29:02.755Z</time></trkpt><trkpt lat="43.2181217" lon="13.0655867"><ele>291.0</ele><time>2026-04-04T13:29:03.73Z</time></trkpt><trkpt lat="43.2179933" lon="13.0653967"><ele>290.0</ele><time>2026-04-04T13:29:04.729Z</time></trkpt><trkpt lat="43.2178717" lon="13.0651867"><ele>289.0</ele><time>2026-04-04T13:29:05.729Z</time></trkpt><trkpt lat="43.2177633" lon="13.064955"><ele>289.66666666666663</ele><time>2026-04-04T13:29:06.728Z</time></trkpt><trkpt lat="43.2176833" lon="13.0647117"><ele>290.3333333333333</ele><time>2026-04-04T13:29:07.73Z</time></trkpt><trkpt lat="43.2176133" lon="13.0644483"><ele>291.0</ele><time>2026-04-04T13:29:08.733Z</time></trkpt><trkpt lat="43.2175433" lon="13.0641783"><ele>292.6666666666667</ele><time>2026-04-04T13:29:09.729Z</time></trkpt><trkpt lat="43.2174667" lon="13.063915"><ele>294.33333333333337</ele><time>2026-04-04T13:29:10.728Z</time></trkpt><trkpt lat="43.2173717" lon="13.063665"><ele>296.0</ele><time>2026-04-04T13:29:11.732Z</time></trkpt><trkpt lat="43.2172517" lon="13.0634317"><ele>295.0</ele><time>2026-04-04T13:29:12.728Z</time></trkpt><trkpt lat="43.21711" lon="13.0632117"><ele>294.0</ele><time>2026-04-04T13:29:13.728Z</time></trkpt><trkpt lat="43.216955" lon="13.062995"><ele>293.0</ele><time>2026-04-04T13:29:14.73Z</time></trkpt><trkpt lat="43.2167967" lon="13.0627783"><ele>293.0</ele><time>2026-04-04T13:29:15.731Z</time></trkpt><trkpt lat="43.2166383" lon="13.062565"><ele>293.0</ele><time>2026-04-04T13:29:16.729Z</time></trkpt><trkpt lat="43.2164767" lon="13.0623617"><ele>293.0</ele><time>2026-04-04T13:29:17.729Z</time></trkpt><trkpt lat="43.2162983" lon="13.06218"><ele>293.0</ele><time>2026-04-04T13:29:18.73Z</time></trkpt><trkpt lat="43.21611" lon="13.0620417"><ele>293.0</ele><time>2026-04-04T13:29:19.734Z</time></trkpt><trkpt lat="43.21591" lon="13.0619367"><ele>293.0</ele><time>2026-04-04T13:29:20.732Z</time></trkpt><trkpt lat="43.2157067" lon="13.0618433"><ele>293.33333333333337</ele><time>2026-04-04T13:29:21.729Z</time></trkpt><trkpt lat="43.2155083" lon="13.0617233"><ele>293.6666666666667</ele><time>2026-04-04T13:29:22.728Z</time></trkpt><trkpt lat="43.2153283" lon="13.0615683"><ele>294.0</ele><time>2026-04-04T13:29:23.728Z</time></trkpt><trkpt lat="43.2151617" lon="13.061385"><ele>294.0</ele><time>2026-04-04T13:29:24.732Z</time></trkpt><trkpt lat="43.2150017" lon="13.061165"><ele>294.0</ele><time>2026-04-04T13:29:25.729Z</time></trkpt><trkpt lat="43.214845" lon="13.0609433"><ele>292.6666666666667</ele><time>2026-04-04T13:29:26.728Z</time></trkpt><trkpt lat="43.2146883" lon="13.0607483"><ele>291.33333333333337</ele><time>2026-04-04T13:29:27.734Z</time></trkpt><trkpt lat="43.2145467" lon="13.0605817"><ele>290.0</ele><time>2026-04-04T13:29:28.728Z</time></trkpt><trkpt lat="43.21442" lon="13.0604317"><ele>290.0</ele><time>2026-04-04T13:29:29.727Z</time></trkpt><trkpt lat="43.2142867" lon="13.0603083"><ele>290.0</ele><time>2026-04-04T13:29:30.727Z</time></trkpt><trkpt lat="43.2141467" lon="13.0602117"><ele>290.0</ele><time>2026-04-04T13:29:31.728Z</time></trkpt><trkpt lat="43.2139983" lon="13.0601433"><ele>290.0</ele><time>2026-04-04T13:29:32.731Z</time></trkpt><trkpt lat="43.2138367" lon="13.0601"><ele>290.0</ele><time>2026-04-04T13:29:33.728Z</time></trkpt><trkpt lat="43.213665" lon="13.06008"><ele>290.0</ele><time>2026-04-04T13:29:34.729Z</time></trkpt><trkpt lat="43.2134783" lon="13.0600783"><ele>290.0</ele><time>2026-04-04T13:29:35.729Z</time></trkpt><trkpt lat="43.2132817" lon="13.0600883"><ele>290.0</ele><time>2026-04-04T13:29:36.728Z</time></trkpt><trkpt lat="43.2130767" lon="13.0601017"><ele>290.0</ele><time>2026-04-04T13:29:37.731Z</time></trkpt><trkpt lat="43.2128733" lon="13.06012"><ele>290.33333333333337</ele><time>2026-04-04T13:29:38.757Z</time></trkpt><trkpt lat="43.2126667" lon="13.060135"><ele>290.6666666666667</ele><time>2026-04-04T13:29:39.73Z</time></trkpt><trkpt lat="43.2124567" lon="13.06015"><ele>291.0</ele><time>2026-04-04T13:29:40.728Z</time></trkpt><trkpt lat="43.2122467" lon="13.06015"><ele>290.0</ele><time>2026-04-04T13:29:41.732Z</time></trkpt><trkpt lat="43.2120467" lon="13.06013"><ele>289.0</ele><time>2026-04-04T13:29:42.731Z</time></trkpt><trkpt lat="43.21186" lon="13.0600933"><ele>288.0</ele><time>2026-04-04T13:29:43.73Z</time></trkpt><trkpt lat="43.21169" lon="13.0600433"><ele>288.0</ele><time>2026-04-04T13:29:44.73Z</time></trkpt><trkpt lat="43.2115267" lon="13.0599767"><ele>288.0</ele><time>2026-04-04T13:29:45.729Z</time></trkpt><trkpt lat="43.2113733" lon="13.0599"><ele>288.0</ele><time>2026-04-04T13:29:46.728Z</time></trkpt><trkpt lat="43.2112283" lon="13.0598433"><ele>291.3333333333333</ele><time>2026-04-04T13:29:47.731Z</time></trkpt><trkpt lat="43.21107" lon="13.0598133"><ele>294.66666666666663</ele><time>2026-04-04T13:29:48.729Z</time></trkpt><trkpt lat="43.210905" lon="13.0598083"><ele>298.0</ele><time>2026-04-04T13:29:49.73Z</time></trkpt><trkpt lat="43.2107433" lon="13.05982"><ele>297.3333333333333</ele><time>2026-04-04T13:29:50.731Z</time></trkpt><trkpt lat="43.2105817" lon="13.0598167"><ele>296.6666666666667</ele><time>2026-04-04T13:29:51.729Z</time></trkpt><trkpt lat="43.2104267" lon="13.0598067"><ele>296.0</ele><time>2026-04-04T13:29:52.73Z</time></trkpt><trkpt lat="43.210285" lon="13.0597817"><ele>296.0</ele><time>2026-04-04T13:29:53.73Z</time></trkpt><trkpt lat="43.2101583" lon="13.0597433"><ele>296.0</ele><time>2026-04-04T13:29:54.727Z</time></trkpt><trkpt lat="43.2100433" lon="13.059685"><ele>296.0</ele><time>2026-04-04T13:29:55.728Z</time></trkpt><trkpt lat="43.2099333" lon="13.059595"><ele>296.0</ele><time>2026-04-04T13:29:56.728Z</time></trkpt><trkpt lat="43.2098217" lon="13.0594767"><ele>295.75</ele><time>2026-04-04T13:29:57.729Z</time></trkpt><trkpt lat="43.2097083" lon="13.0593417"><ele>295.5</ele><time>2026-04-04T13:29:58.728Z</time></trkpt><trkpt lat="43.2096" lon="13.059205"><ele>295.25</ele><time>2026-04-04T13:29:59.731Z</time></trkpt><trkpt lat="43.2094967" lon="13.0590767"><ele>295.0</ele><time>2026-04-04T13:30:00.729Z</time></trkpt><trkpt lat="43.2094017" lon="13.05896"><ele>296.0</ele><time>2026-04-04T13:30:01.729Z</time></trkpt><trkpt lat="43.2093167" lon="13.0588533"><ele>297.0</ele><time>2026-04-04T13:30:02.73Z</time></trkpt><trkpt lat="43.2092317" lon="13.0587567"><ele>298.0</ele><time>2026-04-04T13:30:03.726Z</time></trkpt><trkpt lat="43.2091417" lon="13.058655"><ele>299.0</ele><time>2026-04-04T13:30:04.726Z</time></trkpt><trkpt lat="43.2090417" lon="13.0585333"><ele>300.6666666666667</ele><time>2026-04-04T13:30:05.732Z</time></trkpt><trkpt lat="43.2089317" lon="13.0583967"><ele>302.3333333333333</ele><time>2026-04-04T13:30:06.729Z</time></trkpt><trkpt lat="43.20881" lon="13.0582483"><ele>304.0</ele><time>2026-04-04T13:30:07.727Z</time></trkpt><trkpt lat="43.20868" lon="13.058095"><ele>306.0</ele><time>2026-04-04T13:30:08.729Z</time></trkpt><trkpt lat="43.2085383" lon="13.0579583"><ele>308.0</ele><time>2026-04-04T13:30:09.729Z</time></trkpt><trkpt lat="43.2083833" lon="13.05785"><ele>310.0</ele><time>2026-04-04T13:30:10.728Z</time></trkpt><trkpt lat="43.2082233" lon="13.0577667"><ele>309.75</ele><time>2026-04-04T13:30:11.73Z</time></trkpt><trkpt lat="43.20807" lon="13.0577083"><ele>309.5</ele><time>2026-04-04T13:30:12.731Z</time></trkpt><trkpt lat="43.2079283" lon="13.0576467"><ele>309.25</ele><time>2026-04-04T13:30:13.725Z</time></trkpt><trkpt lat="43.2078017" lon="13.0575867"><ele>309.0</ele><time>2026-04-04T13:30:14.727Z</time></trkpt><trkpt lat="43.207695" lon="13.0575167"><ele>309.2</ele><time>2026-04-04T13:30:15.727Z</time></trkpt><trkpt lat="43.2076133" lon="13.057435"><ele>309.4</ele><time>2026-04-04T13:30:16.727Z</time></trkpt><trkpt lat="43.20754" lon="13.0573617"><ele>309.6</ele><time>2026-04-04T13:30:17.731Z</time></trkpt><trkpt lat="43.2074617" lon="13.05732"><ele>309.8</ele><time>2026-04-04T13:30:18.731Z</time></trkpt><trkpt lat="43.2073733" lon="13.0573017"><ele>310.0</ele><time>2026-04-04T13:30:19.731Z</time></trkpt><trkpt lat="43.20726" lon="13.0572533"><ele>310.5</ele><time>2026-04-04T13:30:20.729Z</time></trkpt><trkpt lat="43.20714" lon="13.0572083"><ele>311.0</ele><time>2026-04-04T13:30:21.727Z</time></trkpt><trkpt lat="43.20702" lon="13.0571667"><ele>311.5</ele><time>2026-04-04T13:30:22.727Z</time></trkpt><trkpt lat="43.206895" lon="13.05712"><ele>312.0</ele><time>2026-04-04T13:30:23.727Z</time></trkpt><trkpt lat="43.206775" lon="13.0570783"><ele>312.0</ele><time>2026-04-04T13:30:24.73Z</time></trkpt><trkpt lat="43.2066567" lon="13.057035"><ele>312.0</ele><time>2026-04-04T13:30:25.727Z</time></trkpt><trkpt lat="43.2065317" lon="13.0569967"><ele>312.0</ele><time>2026-04-04T13:30:26.731Z</time></trkpt><trkpt lat="43.20641" lon="13.0569567"><ele>312.0</ele><time>2026-04-04T13:30:27.727Z</time></trkpt><trkpt lat="43.2062817" lon="13.0569067"><ele>311.3333333333333</ele><time>2026-04-04T13:30:28.727Z</time></trkpt><trkpt lat="43.2061533" lon="13.05685"><ele>310.66666666666663</ele><time>2026-04-04T13:30:29.728Z</time></trkpt><trkpt lat="43.20601" lon="13.0567783"><ele>310.0</ele><time>2026-04-04T13:30:30.726Z</time></trkpt><trkpt lat="43.2058567" lon="13.0567017"><ele>309.66666666666663</ele><time>2026-04-04T13:30:31.73Z</time></trkpt><trkpt lat="43.2056967" lon="13.0566167"><ele>309.3333333333333</ele><time>2026-04-04T13:30:32.758Z</time></trkpt><trkpt lat="43.2055517" lon="13.0564733"><ele>309.0</ele><time>2026-04-04T13:30:33.727Z</time></trkpt><trkpt lat="43.2054183" lon="13.0562983"><ele>309.0</ele><time>2026-04-04T13:30:34.728Z</time></trkpt><trkpt lat="43.2053067" lon="13.0561083"><ele>309.0</ele><time>2026-04-04T13:30:35.73Z</time></trkpt><trkpt lat="43.2052033" lon="13.055935"><ele>309.0</ele><time>2026-04-04T13:30:36.73Z</time></trkpt><trkpt lat="43.2051083" lon="13.0557767"><ele>310.0</ele><time>2026-04-04T13:30:37.734Z</time></trkpt><trkpt lat="43.2050067" lon="13.0556333"><ele>311.0</ele><time>2026-04-04T13:30:38.734Z</time></trkpt><trkpt lat="43.2049033" lon="13.0554967"><ele>312.0</ele><time>2026-04-04T13:30:39.731Z</time></trkpt><trkpt lat="43.20481" lon="13.0553717"><ele>313.0</ele><time>2026-04-04T13:30:40.728Z</time></trkpt><trkpt lat="43.2047217" lon="13.055265"><ele>314.2</ele><time>2026-04-04T13:30:41.731Z</time></trkpt><trkpt lat="43.2046283" lon="13.05517"><ele>315.4</ele><time>2026-04-04T13:30:42.729Z</time></trkpt><trkpt lat="43.20454" lon="13.055085"><ele>316.59999999999997</ele><time>2026-04-04T13:30:43.728Z</time></trkpt><trkpt lat="43.2044533" lon="13.05501"><ele>317.8</ele><time>2026-04-04T13:30:44.73Z</time></trkpt><trkpt lat="43.2043833" lon="13.0549333"><ele>319.0</ele><time>2026-04-04T13:30:45.731Z</time></trkpt><trkpt lat="43.20433" lon="13.0548467"><ele>319.0</ele><time>2026-04-04T13:30:46.728Z</time></trkpt><trkpt lat="43.2042983" lon="13.05475"><ele>319.0</ele><time>2026-04-04T13:30:47.727Z</time></trkpt><trkpt lat="43.204285" lon="13.0546583"><ele>319.0</ele><time>2026-04-04T13:30:48.728Z</time></trkpt><trkpt lat="43.204275" lon="13.054545"><ele>319.0</ele><time>2026-04-04T13:30:50.734Z</time></trkpt><trkpt lat="43.204225" lon="13.05443"><ele>319.0</ele><time>2026-04-04T13:30:53.727Z</time></trkpt><trkpt lat="43.20409" lon="13.0543617"><ele>318.75</ele><time>2026-04-04T13:30:55.73Z</time></trkpt><trkpt lat="43.2039783" lon="13.05433"><ele>318.5</ele><time>2026-04-04T13:30:56.731Z</time></trkpt><trkpt lat="43.20383" lon="13.05432"><ele>318.25</ele><time>2026-04-04T13:30:57.732Z</time></trkpt><trkpt lat="43.2036817" lon="13.05432"><ele>318.0</ele><time>2026-04-04T13:30:58.727Z</time></trkpt><trkpt lat="43.2035183" lon="13.0543167"><ele>318.0</ele><time>2026-04-04T13:30:59.731Z</time></trkpt><trkpt lat="43.2033417" lon="13.0543183"><ele>318.0</ele><time>2026-04-04T13:31:00.728Z</time></trkpt><trkpt lat="43.2031667" lon="13.0543333"><ele>318.0</ele><time>2026-04-04T13:31:01.728Z</time></trkpt><trkpt lat="43.2030117" lon="13.0543517"><ele>318.5</ele><time>2026-04-04T13:31:02.73Z</time></trkpt><trkpt lat="43.202865" lon="13.0543733"><ele>319.0</ele><time>2026-04-04T13:31:03.729Z</time></trkpt><trkpt lat="43.2027217" lon="13.0543917"><ele>319.5</ele><time>2026-04-04T13:31:04.734Z</time></trkpt><trkpt lat="43.2025767" lon="13.054405"><ele>320.0</ele><time>2026-04-04T13:31:05.726Z</time></trkpt><trkpt lat="43.2024167" lon="13.0544083"><ele>317.33333333333337</ele><time>2026-04-04T13:31:06.729Z</time></trkpt><trkpt lat="43.2022467" lon="13.0543983"><ele>314.6666666666667</ele><time>2026-04-04T13:31:07.728Z</time></trkpt><trkpt lat="43.2020733" lon="13.05436"><ele>312.0</ele><time>2026-04-04T13:31:08.756Z</time></trkpt><trkpt lat="43.2018967" lon="13.0543017"><ele>312.0</ele><time>2026-04-04T13:31:09.731Z</time></trkpt><trkpt lat="43.2017117" lon="13.0542217"><ele>312.0</ele><time>2026-04-04T13:31:10.729Z</time></trkpt><trkpt lat="43.2015283" lon="13.0541167"><ele>312.0</ele><time>2026-04-04T13:31:11.733Z</time></trkpt><trkpt lat="43.2013417" lon="13.0539917"><ele>312.6666666666667</ele><time>2026-04-04T13:31:12.729Z</time></trkpt><trkpt lat="43.201155" lon="13.053855"><ele>313.33333333333337</ele><time>2026-04-04T13:31:13.731Z</time></trkpt><trkpt lat="43.200975" lon="13.0537233"><ele>314.0</ele><time>2026-04-04T13:31:14.729Z</time></trkpt><trkpt lat="43.2007933" lon="13.0535983"><ele>313.6666666666667</ele><time>2026-04-04T13:31:15.728Z</time></trkpt><trkpt lat="43.2006233" lon="13.0534817"><ele>313.3333333333333</ele><time>2026-04-04T13:31:16.732Z</time></trkpt><trkpt lat="43.2004617" lon="13.05337"><ele>313.0</ele><time>2026-04-04T13:31:17.727Z</time></trkpt><trkpt lat="43.2003067" lon="13.0532583"><ele>313.0</ele><time>2026-04-04T13:31:18.725Z</time></trkpt><trkpt lat="43.2001517" lon="13.053145"><ele>313.0</ele><time>2026-04-04T13:31:19.731Z</time></trkpt><trkpt lat="43.2000067" lon="13.0530283"><ele>313.0</ele><time>2026-04-04T13:31:20.73Z</time></trkpt><trkpt lat="43.1998633" lon="13.052895"><ele>312.0</ele><time>2026-04-04T13:31:21.731Z</time></trkpt><trkpt lat="43.1997217" lon="13.0527467"><ele>311.0</ele><time>2026-04-04T13:31:22.727Z</time></trkpt><trkpt lat="43.19958" lon="13.05259"><ele>310.0</ele><time>2026-04-04T13:31:23.73Z</time></trkpt><trkpt lat="43.19943" lon="13.0524283"><ele>310.0</ele><time>2026-04-04T13:31:24.729Z</time></trkpt><trkpt lat="43.19928" lon="13.0522633"><ele>310.0</ele><time>2026-04-04T13:31:25.727Z</time></trkpt><trkpt lat="43.1991317" lon="13.0521017"><ele>310.0</ele><time>2026-04-04T13:31:26.757Z</time></trkpt><trkpt lat="43.19899" lon="13.0519467"><ele>309.3333333333333</ele><time>2026-04-04T13:31:27.728Z</time></trkpt><trkpt lat="43.1988567" lon="13.0517983"><ele>308.6666666666667</ele><time>2026-04-04T13:31:28.729Z</time></trkpt><trkpt lat="43.1987233" lon="13.0516483"><ele>308.0</ele><time>2026-04-04T13:31:29.73Z</time></trkpt><trkpt lat="43.198585" lon="13.0514967"><ele>307.6666666666667</ele><time>2026-04-04T13:31:30.729Z</time></trkpt><trkpt lat="43.19844" lon="13.0513417"><ele>307.3333333333333</ele><time>2026-04-04T13:31:31.728Z</time></trkpt><trkpt lat="43.198295" lon="13.05118"><ele>307.0</ele><time>2026-04-04T13:31:32.729Z</time></trkpt><trkpt lat="43.19815" lon="13.0510183"><ele>307.0</ele><time>2026-04-04T13:31:33.73Z</time></trkpt><trkpt lat="43.1980133" lon="13.0508633"><ele>307.0</ele><time>2026-04-04T13:31:34.726Z</time></trkpt><trkpt lat="43.197885" lon="13.0507183"><ele>307.0</ele><time>2026-04-04T13:31:35.725Z</time></trkpt><trkpt lat="43.197765" lon="13.0505867"><ele>307.5</ele><time>2026-04-04T13:31:36.727Z</time></trkpt><trkpt lat="43.1976517" lon="13.0504683"><ele>308.0</ele><time>2026-04-04T13:31:37.729Z</time></trkpt><trkpt lat="43.1975433" lon="13.050365"><ele>308.5</ele><time>2026-04-04T13:31:38.731Z</time></trkpt><trkpt lat="43.1974333" lon="13.0502717"><ele>309.0</ele><time>2026-04-04T13:31:39.729Z</time></trkpt><trkpt lat="43.1973117" lon="13.0501833"><ele>309.0</ele><time>2026-04-04T13:31:40.727Z</time></trkpt><trkpt lat="43.1971867" lon="13.0500917"><ele>309.0</ele><time>2026-04-04T13:31:41.728Z</time></trkpt><trkpt lat="43.1970767" lon="13.0499967"><ele>309.0</ele><time>2026-04-04T13:31:42.729Z</time></trkpt><trkpt lat="43.196975" lon="13.0499067"><ele>309.0</ele><time>2026-04-04T13:31:43.727Z</time></trkpt><trkpt lat="43.1968833" lon="13.049815"><ele>309.25</ele><time>2026-04-04T13:31:44.728Z</time></trkpt><trkpt lat="43.1968167" lon="13.049705"><ele>309.5</ele><time>2026-04-04T13:31:45.729Z</time></trkpt><trkpt lat="43.196775" lon="13.0495633"><ele>309.75</ele><time>2026-04-04T13:31:46.729Z</time></trkpt><trkpt lat="43.19675" lon="13.049385"><ele>310.0</ele><time>2026-04-04T13:31:47.729Z</time></trkpt><trkpt lat="43.19674" lon="13.049175"><ele>311.66666666666663</ele><time>2026-04-04T13:31:48.73Z</time></trkpt><trkpt lat="43.1967333" lon="13.04895"><ele>313.3333333333333</ele><time>2026-04-04T13:31:49.728Z</time></trkpt><trkpt lat="43.1967217" lon="13.0487333"><ele>315.0</ele><time>2026-04-04T13:31:50.726Z</time></trkpt><trkpt lat="43.1967017" lon="13.0485283"><ele>315.0</ele><time>2026-04-04T13:31:51.727Z</time></trkpt><trkpt lat="43.196675" lon="13.0483433"><ele>315.0</ele><time>2026-04-04T13:31:52.728Z</time></trkpt><trkpt lat="43.196625" lon="13.048185"><ele>315.0</ele><time>2026-04-04T13:31:53.727Z</time></trkpt><trkpt lat="43.1965533" lon="13.0480517"><ele>315.0</ele><time>2026-04-04T13:31:54.733Z</time></trkpt><trkpt lat="43.1964533" lon="13.0479317"><ele>315.0</ele><time>2026-04-04T13:31:55.729Z</time></trkpt><trkpt lat="43.196325" lon="13.0478317"><ele>315.0</ele><time>2026-04-04T13:31:56.727Z</time></trkpt><trkpt lat="43.1961633" lon="13.0477483"><ele>315.0</ele><time>2026-04-04T13:31:57.726Z</time></trkpt><trkpt lat="43.19598" lon="13.047675"><ele>315.0</ele><time>2026-04-04T13:31:58.728Z</time></trkpt><trkpt lat="43.1958" lon="13.0475983"><ele>315.0</ele><time>2026-04-04T13:31:59.727Z</time></trkpt><trkpt lat="43.1956367" lon="13.04751"><ele>315.0</ele><time>2026-04-04T13:32:00.741Z</time></trkpt><trkpt lat="43.1954917" lon="13.0474033"><ele>314.6666666666667</ele><time>2026-04-04T13:32:01.73Z</time></trkpt><trkpt lat="43.19536" lon="13.0472667"><ele>314.33333333333337</ele><time>2026-04-04T13:32:02.755Z</time></trkpt><trkpt lat="43.1952367" lon="13.0471083"><ele>314.0</ele><time>2026-04-04T13:32:03.73Z</time></trkpt><trkpt lat="43.1951083" lon="13.04693"><ele>314.0</ele><time>2026-04-04T13:32:04.731Z</time></trkpt><trkpt lat="43.1949717" lon="13.0467383"><ele>314.0</ele><time>2026-04-04T13:32:05.729Z</time></trkpt><trkpt lat="43.1948367" lon="13.046545"><ele>314.0</ele><time>2026-04-04T13:32:06.73Z</time></trkpt><trkpt lat="43.1947083" lon="13.0463617"><ele>314.0</ele><time>2026-04-04T13:32:07.732Z</time></trkpt><trkpt lat="43.1945867" lon="13.0461883"><ele>314.0</ele><time>2026-04-04T13:32:08.729Z</time></trkpt><trkpt lat="43.1944717" lon="13.0460233"><ele>314.0</ele><time>2026-04-04T13:32:09.728Z</time></trkpt><trkpt lat="43.1943583" lon="13.0458717"><ele>313.75</ele><time>2026-04-04T13:32:10.728Z</time></trkpt><trkpt lat="43.1942433" lon="13.0457383"><ele>313.5</ele><time>2026-04-04T13:32:11.726Z</time></trkpt><trkpt lat="43.1941283" lon="13.0456217"><ele>313.25</ele><time>2026-04-04T13:32:12.727Z</time></trkpt><trkpt lat="43.1940067" lon="13.0455083"><ele>313.0</ele><time>2026-04-04T13:32:13.728Z</time></trkpt><trkpt lat="43.193885" lon="13.0454033"><ele>313.0</ele><time>2026-04-04T13:32:14.73Z</time></trkpt><trkpt lat="43.1937667" lon="13.045305"><ele>313.0</ele><time>2026-04-04T13:32:15.729Z</time></trkpt><trkpt lat="43.19365" lon="13.0452117"><ele>313.0</ele><time>2026-04-04T13:32:16.729Z</time></trkpt><trkpt lat="43.1935217" lon="13.0451233"><ele>313.0</ele><time>2026-04-04T13:32:17.727Z</time></trkpt><trkpt lat="43.1933783" lon="13.0450583"><ele>313.0</ele><time>2026-04-04T13:32:18.729Z</time></trkpt><trkpt lat="43.1932217" lon="13.045"><ele>313.0</ele><time>2026-04-04T13:32:19.725Z</time></trkpt><trkpt lat="43.1930633" lon="13.04491"><ele>313.0</ele><time>2026-04-04T13:32:20.731Z</time></trkpt><trkpt lat="43.192905" lon="13.04478"><ele>313.3333333333333</ele><time>2026-04-04T13:32:21.728Z</time></trkpt><trkpt lat="43.1927567" lon="13.0446267"><ele>313.6666666666667</ele><time>2026-04-04T13:32:22.733Z</time></trkpt><trkpt lat="43.1926133" lon="13.04445"><ele>314.0</ele><time>2026-04-04T13:32:23.727Z</time></trkpt><trkpt lat="43.19248" lon="13.044265"><ele>313.6666666666667</ele><time>2026-04-04T13:32:24.735Z</time></trkpt><trkpt lat="43.1923433" lon="13.0440633"><ele>313.3333333333333</ele><time>2026-04-04T13:32:25.73Z</time></trkpt><trkpt lat="43.1922233" lon="13.0438417"><ele>313.0</ele><time>2026-04-04T13:32:26.729Z</time></trkpt><trkpt lat="43.1921083" lon="13.043625"><ele>313.0</ele><time>2026-04-04T13:32:27.73Z</time></trkpt><trkpt lat="43.1920017" lon="13.0434183"><ele>313.0</ele><time>2026-04-04T13:32:28.727Z</time></trkpt><trkpt lat="43.191905" lon="13.0432283"><ele>313.0</ele><time>2026-04-04T13:32:29.727Z</time></trkpt><trkpt lat="43.1918117" lon="13.04304"><ele>313.66666666666663</ele><time>2026-04-04T13:32:30.729Z</time></trkpt><trkpt lat="43.1917233" lon="13.0428533"><ele>314.3333333333333</ele><time>2026-04-04T13:32:31.728Z</time></trkpt><trkpt lat="43.1916167" lon="13.0426667"><ele>315.0</ele><time>2026-04-04T13:32:32.727Z</time></trkpt><trkpt lat="43.191495" lon="13.04248"><ele>315.0</ele><time>2026-04-04T13:32:33.73Z</time></trkpt><trkpt lat="43.1913717" lon="13.0423067"><ele>315.0</ele><time>2026-04-04T13:32:34.73Z</time></trkpt><trkpt lat="43.1912533" lon="13.0421467"><ele>315.0</ele><time>2026-04-04T13:32:35.729Z</time></trkpt><trkpt lat="43.1911517" lon="13.0419917"><ele>315.0</ele><time>2026-04-04T13:32:36.729Z</time></trkpt><trkpt lat="43.19106" lon="13.0418217"><ele>315.0</ele><time>2026-04-04T13:32:37.728Z</time></trkpt><trkpt lat="43.1909783" lon="13.0416367"><ele>315.0</ele><time>2026-04-04T13:32:38.731Z</time></trkpt><trkpt lat="43.1909083" lon="13.0414467"><ele>315.25</ele><time>2026-04-04T13:32:39.73Z</time></trkpt><trkpt lat="43.190845" lon="13.041255"><ele>315.5</ele><time>2026-04-04T13:32:40.731Z</time></trkpt><trkpt lat="43.19079" lon="13.041065"><ele>315.75</ele><time>2026-04-04T13:32:41.729Z</time></trkpt><trkpt lat="43.1907433" lon="13.040875"><ele>316.0</ele><time>2026-04-04T13:32:42.725Z</time></trkpt><trkpt lat="43.1906933" lon="13.0406983"><ele>316.0</ele><time>2026-04-04T13:32:43.729Z</time></trkpt><trkpt lat="43.1906233" lon="13.0405433"><ele>316.0</ele><time>2026-04-04T13:32:44.728Z</time></trkpt><trkpt lat="43.1905217" lon="13.0404183"><ele>316.0</ele><time>2026-04-04T13:32:45.726Z</time></trkpt><trkpt lat="43.19039" lon="13.0403233"><ele>316.0</ele><time>2026-04-04T13:32:46.735Z</time></trkpt><trkpt lat="43.1902483" lon="13.0402533"><ele>316.0</ele><time>2026-04-04T13:32:47.731Z</time></trkpt><trkpt lat="43.190105" lon="13.0401783"><ele>316.0</ele><time>2026-04-04T13:32:48.728Z</time></trkpt><trkpt lat="43.1899733" lon="13.0400717"><ele>316.0</ele><time>2026-04-04T13:32:49.727Z</time></trkpt><trkpt lat="43.189855" lon="13.03991"><ele>316.3333333333333</ele><time>2026-04-04T13:32:50.728Z</time></trkpt><trkpt lat="43.1897433" lon="13.0397133"><ele>316.6666666666667</ele><time>2026-04-04T13:32:51.73Z</time></trkpt><trkpt lat="43.1896383" lon="13.039495"><ele>317.0</ele><time>2026-04-04T13:32:52.729Z</time></trkpt><trkpt lat="43.189545" lon="13.039275"><ele>318.6666666666667</ele><time>2026-04-04T13:32:53.741Z</time></trkpt><trkpt lat="43.1894583" lon="13.039065"><ele>320.3333333333333</ele><time>2026-04-04T13:32:54.73Z</time></trkpt><trkpt lat="43.1893767" lon="13.03887"><ele>322.0</ele><time>2026-04-04T13:32:55.729Z</time></trkpt><trkpt lat="43.1892967" lon="13.0386867"><ele>322.0</ele><time>2026-04-04T13:32:56.752Z</time></trkpt><trkpt lat="43.1892233" lon="13.0385133"><ele>322.0</ele><time>2026-04-04T13:32:57.727Z</time></trkpt><trkpt lat="43.189155" lon="13.0383383"><ele>322.0</ele><time>2026-04-04T13:32:58.729Z</time></trkpt><trkpt lat="43.189085" lon="13.038155"><ele>322.0</ele><time>2026-04-04T13:32:59.731Z</time></trkpt><trkpt lat="43.1890167" lon="13.0379667"><ele>322.5</ele><time>2026-04-04T13:33:00.728Z</time></trkpt><trkpt lat="43.1889667" lon="13.037775"><ele>323.0</ele><time>2026-04-04T13:33:01.73Z</time></trkpt><trkpt lat="43.1889217" lon="13.0375883"><ele>323.5</ele><time>2026-04-04T13:33:02.731Z</time></trkpt><trkpt lat="43.1888767" lon="13.0374"><ele>324.0</ele><time>2026-04-04T13:33:03.728Z</time></trkpt><trkpt lat="43.188825" lon="13.0372067"><ele>324.0</ele><time>2026-04-04T13:33:04.733Z</time></trkpt><trkpt lat="43.1887617" lon="13.037005"><ele>324.0</ele><time>2026-04-04T13:33:05.729Z</time></trkpt><trkpt lat="43.1886767" lon="13.036795"><ele>324.0</ele><time>2026-04-04T13:33:06.729Z</time></trkpt><trkpt lat="43.18856" lon="13.0365767"><ele>325.5</ele><time>2026-04-04T13:33:07.741Z</time></trkpt><trkpt lat="43.18841" lon="13.036355"><ele>327.0</ele><time>2026-04-04T13:33:08.734Z</time></trkpt><trkpt lat="43.1882383" lon="13.0361117"><ele>327.0</ele><time>2026-04-04T13:33:09.728Z</time></trkpt><trkpt lat="43.1880533" lon="13.0358483"><ele>327.0</ele><time>2026-04-04T13:33:10.729Z</time></trkpt><trkpt lat="43.187875" lon="13.0355867"><ele>330.0</ele><time>2026-04-04T13:33:11.73Z</time></trkpt><trkpt lat="43.1877067" lon="13.0353367"><ele>333.0</ele><time>2026-04-04T13:33:12.73Z</time></trkpt><trkpt lat="43.1875467" lon="13.0350933"><ele>333.3333333333333</ele><time>2026-04-04T13:33:13.73Z</time></trkpt><trkpt lat="43.1873967" lon="13.0348617"><ele>333.66666666666663</ele><time>2026-04-04T13:33:14.759Z</time></trkpt><trkpt lat="43.187255" lon="13.0346483"><ele>334.0</ele><time>2026-04-04T13:33:15.73Z</time></trkpt><trkpt lat="43.1871183" lon="13.03444"><ele>333.0</ele><time>2026-04-04T13:33:16.727Z</time></trkpt><trkpt lat="43.1869983" lon="13.0342267"><ele>332.0</ele><time>2026-04-04T13:33:17.734Z</time></trkpt><trkpt lat="43.1868983" lon="13.0340017"><ele>331.0</ele><time>2026-04-04T13:33:18.739Z</time></trkpt><trkpt lat="43.18682" lon="13.0337633"><ele>331.0</ele><time>2026-04-04T13:33:19.731Z</time></trkpt><trkpt lat="43.1867567" lon="13.0335133"><ele>331.0</ele><time>2026-04-04T13:33:20.73Z</time></trkpt><trkpt lat="43.1867067" lon="13.033255"><ele>331.0</ele><time>2026-04-04T13:33:21.732Z</time></trkpt><trkpt lat="43.1866717" lon="13.032975"><ele>332.5</ele><time>2026-04-04T13:33:22.728Z</time></trkpt><trkpt lat="43.1866417" lon="13.0326717"><ele>334.0</ele><time>2026-04-04T13:33:23.729Z</time></trkpt><trkpt lat="43.186605" lon="13.032365"><ele>334.0</ele><time>2026-04-04T13:33:24.731Z</time></trkpt><trkpt lat="43.1865467" lon="13.03207"><ele>334.0</ele><time>2026-04-04T13:33:25.729Z</time></trkpt><trkpt lat="43.1864733" lon="13.0317883"><ele>334.0</ele><time>2026-04-04T13:33:26.732Z</time></trkpt><trkpt lat="43.1863933" lon="13.0314967"><ele>333.5</ele><time>2026-04-04T13:33:27.729Z</time></trkpt><trkpt lat="43.1863083" lon="13.031205"><ele>333.0</ele><time>2026-04-04T13:33:28.729Z</time></trkpt><trkpt lat="43.1862067" lon="13.0309133"><ele>333.5</ele><time>2026-04-04T13:33:29.732Z</time></trkpt><trkpt lat="43.1860833" lon="13.0306317"><ele>334.0</ele><time>2026-04-04T13:33:30.733Z</time></trkpt><trkpt lat="43.1859467" lon="13.0303517"><ele>334.0</ele><time>2026-04-04T13:33:31.728Z</time></trkpt><trkpt lat="43.1858" lon="13.03007"><ele>334.0</ele><time>2026-04-04T13:33:32.748Z</time></trkpt><trkpt lat="43.1856567" lon="13.0297933"><ele>334.0</ele><time>2026-04-04T13:33:33.731Z</time></trkpt><trkpt lat="43.18552" lon="13.0295183"><ele>334.0</ele><time>2026-04-04T13:33:34.73Z</time></trkpt><trkpt lat="43.1853867" lon="13.0292517"><ele>336.0</ele><time>2026-04-04T13:33:35.731Z</time></trkpt><trkpt lat="43.1852567" lon="13.0289833"><ele>338.0</ele><time>2026-04-04T13:33:36.729Z</time></trkpt><trkpt lat="43.1851217" lon="13.0287117"><ele>338.0</ele><time>2026-04-04T13:33:37.73Z</time></trkpt><trkpt lat="43.1849883" lon="13.0284383"><ele>338.0</ele><time>2026-04-04T13:33:38.727Z</time></trkpt><trkpt lat="43.184855" lon="13.0281633"><ele>337.5</ele><time>2026-04-04T13:33:39.729Z</time></trkpt><trkpt lat="43.1847217" lon="13.0278883"><ele>337.0</ele><time>2026-04-04T13:33:40.733Z</time></trkpt><trkpt lat="43.1845933" lon="13.0276133"><ele>338.5</ele><time>2026-04-04T13:33:41.733Z</time></trkpt><trkpt lat="43.18446" lon="13.02734"><ele>340.0</ele><time>2026-04-04T13:33:42.735Z</time></trkpt><trkpt lat="43.1843283" lon="13.0270633"><ele>340.0</ele><time>2026-04-04T13:33:43.729Z</time></trkpt><trkpt lat="43.184195" lon="13.0267867"><ele>340.0</ele><time>2026-04-04T13:33:44.73Z</time></trkpt><trkpt lat="43.1840617" lon="13.0265067"><ele>339.5</ele><time>2026-04-04T13:33:45.729Z</time></trkpt><trkpt lat="43.18393" lon="13.02622"><ele>339.0</ele><time>2026-04-04T13:33:46.731Z</time></trkpt><trkpt lat="43.1838033" lon="13.0259283"><ele>340.0</ele><time>2026-04-04T13:33:47.727Z</time></trkpt><trkpt lat="43.1836767" lon="13.02563"><ele>341.0</ele><time>2026-04-04T13:33:48.73Z</time></trkpt><trkpt lat="43.18355" lon="13.02533"><ele>341.0</ele><time>2026-04-04T13:33:49.73Z</time></trkpt><trkpt lat="43.1834267" lon="13.025035"><ele>341.0</ele><time>2026-04-04T13:33:50.733Z</time></trkpt><trkpt lat="43.1833083" lon="13.02474"><ele>340.0</ele><time>2026-04-04T13:33:51.73Z</time></trkpt><trkpt lat="43.1832" lon="13.0244433"><ele>339.0</ele><time>2026-04-04T13:33:52.728Z</time></trkpt><trkpt lat="43.1831083" lon="13.0241333"><ele>341.0</ele><time>2026-04-04T13:33:53.727Z</time></trkpt><trkpt lat="43.1830333" lon="13.0238133"><ele>343.0</ele><time>2026-04-04T13:33:54.73Z</time></trkpt><trkpt lat="43.18297" lon="13.0234883"><ele>343.5</ele><time>2026-04-04T13:33:55.727Z</time></trkpt><trkpt lat="43.182915" lon="13.0231617"><ele>344.0</ele><time>2026-04-04T13:33:56.73Z</time></trkpt><trkpt lat="43.1828583" lon="13.0228333"><ele>344.0</ele><time>2026-04-04T13:33:57.729Z</time></trkpt><trkpt lat="43.1827983" lon="13.0225"><ele>344.0</ele><time>2026-04-04T13:33:58.728Z</time></trkpt><trkpt lat="43.1827383" lon="13.022165"><ele>344.5</ele><time>2026-04-04T13:33:59.73Z</time></trkpt><trkpt lat="43.1826783" lon="13.0218317"><ele>345.0</ele><time>2026-04-04T13:34:00.73Z</time></trkpt><trkpt lat="43.1826167" lon="13.0215"><ele>348.0</ele><time>2026-04-04T13:34:01.73Z</time></trkpt><trkpt lat="43.1825533" lon="13.0211817"><ele>351.0</ele><time>2026-04-04T13:34:02.729Z</time></trkpt><trkpt lat="43.1824967" lon="13.0208783"><ele>353.0</ele><time>2026-04-04T13:34:03.73Z</time></trkpt><trkpt lat="43.182445" lon="13.02058"><ele>355.0</ele><time>2026-04-04T13:34:04.728Z</time></trkpt><trkpt lat="43.1824033" lon="13.0202917"><ele>357.0</ele><time>2026-04-04T13:34:05.738Z</time></trkpt><trkpt lat="43.1823817" lon="13.0200083"><ele>357.0</ele><time>2026-04-04T13:34:06.727Z</time></trkpt><trkpt lat="43.1823933" lon="13.0197217"><ele>357.0</ele><time>2026-04-04T13:34:07.729Z</time></trkpt><trkpt lat="43.1824167" lon="13.01943"><ele>357.0</ele><time>2026-04-04T13:34:08.732Z</time></trkpt><trkpt lat="43.1824583" lon="13.01914"><ele>357.0</ele><time>2026-04-04T13:34:09.729Z</time></trkpt><trkpt lat="43.1825" lon="13.01885"><ele>357.0</ele><time>2026-04-04T13:34:10.735Z</time></trkpt><trkpt lat="43.1825467" lon="13.0185583"><ele>357.0</ele><time>2026-04-04T13:34:11.731Z</time></trkpt><trkpt lat="43.1825883" lon="13.0182633"><ele>357.6666666666667</ele><time>2026-04-04T13:34:12.727Z</time></trkpt><trkpt lat="43.1826367" lon="13.0179733"><ele>358.33333333333337</ele><time>2026-04-04T13:34:13.728Z</time></trkpt><trkpt lat="43.1826767" lon="13.017695"><ele>359.0</ele><time>2026-04-04T13:34:14.729Z</time></trkpt><trkpt lat="43.1827117" lon="13.01743"><ele>360.6666666666667</ele><time>2026-04-04T13:34:15.729Z</time></trkpt><trkpt lat="43.18271" lon="13.0171817"><ele>362.3333333333333</ele><time>2026-04-04T13:34:16.728Z</time></trkpt><trkpt lat="43.1826617" lon="13.0169367"><ele>364.0</ele><time>2026-04-04T13:34:17.732Z</time></trkpt><trkpt lat="43.1825867" lon="13.0166817"><ele>364.66666666666663</ele><time>2026-04-04T13:34:18.732Z</time></trkpt><trkpt lat="43.1824917" lon="13.016415"><ele>365.3333333333333</ele><time>2026-04-04T13:34:19.731Z</time></trkpt><trkpt lat="43.1823917" lon="13.0161383"><ele>366.0</ele><time>2026-04-04T13:34:20.731Z</time></trkpt><trkpt lat="43.182295" lon="13.015855"><ele>362.0</ele><time>2026-04-04T13:34:21.73Z</time></trkpt><trkpt lat="43.1821917" lon="13.0155633"><ele>358.0</ele><time>2026-04-04T13:34:22.731Z</time></trkpt><trkpt lat="43.182085" lon="13.0152733"><ele>358.0</ele><time>2026-04-04T13:34:23.733Z</time></trkpt><trkpt lat="43.1819783" lon="13.0149917"><ele>358.0</ele><time>2026-04-04T13:34:24.731Z</time></trkpt><trkpt lat="43.1818817" lon="13.01472"><ele>359.3333333333333</ele><time>2026-04-04T13:34:25.728Z</time></trkpt><trkpt lat="43.18179" lon="13.0144583"><ele>360.6666666666667</ele><time>2026-04-04T13:34:26.731Z</time></trkpt><trkpt lat="43.1816967" lon="13.0142133"><ele>362.0</ele><time>2026-04-04T13:34:27.728Z</time></trkpt><trkpt lat="43.18159" lon="13.0139767"><ele>360.33333333333337</ele><time>2026-04-04T13:34:28.731Z</time></trkpt><trkpt lat="43.1814633" lon="13.013755"><ele>358.6666666666667</ele><time>2026-04-04T13:34:29.728Z</time></trkpt><trkpt lat="43.1813233" lon="13.01355"><ele>357.0</ele><time>2026-04-04T13:34:30.732Z</time></trkpt><trkpt lat="43.181175" lon="13.0133583"><ele>358.6666666666667</ele><time>2026-04-04T13:34:31.729Z</time></trkpt><trkpt lat="43.1810317" lon="13.0131733"><ele>360.33333333333337</ele><time>2026-04-04T13:34:32.73Z</time></trkpt><trkpt lat="43.180895" lon="13.012995"><ele>362.0</ele><time>2026-04-04T13:34:33.728Z</time></trkpt><trkpt lat="43.1807667" lon="13.0128233"><ele>359.0</ele><time>2026-04-04T13:34:34.731Z</time></trkpt><trkpt lat="43.1806483" lon="13.01266"><ele>356.0</ele><time>2026-04-04T13:34:35.728Z</time></trkpt><trkpt lat="43.180545" lon="13.01249"><ele>353.0</ele><time>2026-04-04T13:34:36.73Z</time></trkpt><trkpt lat="43.1804633" lon="13.012295"><ele>353.0</ele><time>2026-04-04T13:34:37.73Z</time></trkpt><trkpt lat="43.1803983" lon="13.012075"><ele>353.0</ele><time>2026-04-04T13:34:38.731Z</time></trkpt><trkpt lat="43.180355" lon="13.011825"><ele>353.0</ele><time>2026-04-04T13:34:39.727Z</time></trkpt><trkpt lat="43.1803017" lon="13.0115733"><ele>355.0</ele><time>2026-04-04T13:34:40.73Z</time></trkpt><trkpt lat="43.18023" lon="13.0113183"><ele>357.0</ele><time>2026-04-04T13:34:41.728Z</time></trkpt><trkpt lat="43.1801183" lon="13.0110683"><ele>359.0</ele><time>2026-04-04T13:34:42.73Z</time></trkpt><trkpt lat="43.1799817" lon="13.0108217"><ele>357.5</ele><time>2026-04-04T13:34:43.729Z</time></trkpt><trkpt lat="43.1798433" lon="13.01057"><ele>356.0</ele><time>2026-04-04T13:34:44.732Z</time></trkpt><trkpt lat="43.1796967" lon="13.0102917"><ele>356.0</ele><time>2026-04-04T13:34:45.73Z</time></trkpt><trkpt lat="43.1795583" lon="13.0099983"><ele>356.0</ele><time>2026-04-04T13:34:46.729Z</time></trkpt><trkpt lat="43.1794167" lon="13.0097033"><ele>359.0</ele><time>2026-04-04T13:34:47.729Z</time></trkpt><trkpt lat="43.1792767" lon="13.0094183"><ele>362.0</ele><time>2026-04-04T13:34:48.726Z</time></trkpt><trkpt lat="43.179145" lon="13.0091483"><ele>359.5</ele><time>2026-04-04T13:34:49.729Z</time></trkpt><trkpt lat="43.1790067" lon="13.0088867"><ele>357.0</ele><time>2026-04-04T13:34:50.729Z</time></trkpt><trkpt lat="43.1788583" lon="13.0086333"><ele>357.0</ele><time>2026-04-04T13:34:51.727Z</time></trkpt><trkpt lat="43.1787" lon="13.00839"><ele>357.0</ele><time>2026-04-04T13:34:52.729Z</time></trkpt><trkpt lat="43.1785333" lon="13.0081633"><ele>358.6666666666667</ele><time>2026-04-04T13:34:53.725Z</time></trkpt><trkpt lat="43.1783783" lon="13.00796"><ele>360.33333333333337</ele><time>2026-04-04T13:34:54.729Z</time></trkpt><trkpt lat="43.178235" lon="13.0077733"><ele>362.0</ele><time>2026-04-04T13:34:55.729Z</time></trkpt><trkpt lat="43.1780967" lon="13.00759"><ele>363.33333333333337</ele><time>2026-04-04T13:34:56.729Z</time></trkpt><trkpt lat="43.17797" lon="13.007415"><ele>364.6666666666667</ele><time>2026-04-04T13:34:57.732Z</time></trkpt><trkpt lat="43.177845" lon="13.0072517"><ele>366.0</ele><time>2026-04-04T13:34:58.726Z</time></trkpt><trkpt lat="43.1777233" lon="13.007095"><ele>366.0</ele><time>2026-04-04T13:34:59.729Z</time></trkpt><trkpt lat="43.1775983" lon="13.00693"><ele>366.0</ele><time>2026-04-04T13:35:00.728Z</time></trkpt><trkpt lat="43.17748" lon="13.00675"><ele>366.0</ele><time>2026-04-04T13:35:01.728Z</time></trkpt><trkpt lat="43.1773933" lon="13.0065433"><ele>366.0</ele><time>2026-04-04T13:35:02.737Z</time></trkpt><trkpt lat="43.1773383" lon="13.00632"><ele>366.0</ele><time>2026-04-04T13:35:03.728Z</time></trkpt><trkpt lat="43.1773183" lon="13.0060817"><ele>366.0</ele><time>2026-04-04T13:35:04.729Z</time></trkpt><trkpt lat="43.1773567" lon="13.0058367"><ele>366.0</ele><time>2026-04-04T13:35:05.727Z</time></trkpt><trkpt lat="43.1774433" lon="13.0055867"><ele>366.0</ele><time>2026-04-04T13:35:06.729Z</time></trkpt><trkpt lat="43.1775333" lon="13.0053367"><ele>366.0</ele><time>2026-04-04T13:35:07.727Z</time></trkpt><trkpt lat="43.1776233" lon="13.0050883"><ele>366.0</ele><time>2026-04-04T13:35:08.731Z</time></trkpt><trkpt lat="43.1777017" lon="13.004845"><ele>366.0</ele><time>2026-04-04T13:35:09.727Z</time></trkpt><trkpt lat="43.1777683" lon="13.0046"><ele>366.0</ele><time>2026-04-04T13:35:10.729Z</time></trkpt><trkpt lat="43.177805" lon="13.0043583"><ele>365.0</ele><time>2026-04-04T13:35:11.73Z</time></trkpt><trkpt lat="43.17781" lon="13.0041217"><ele>364.0</ele><time>2026-04-04T13:35:12.732Z</time></trkpt><trkpt lat="43.17779" lon="13.0038783"><ele>363.0</ele><time>2026-04-04T13:35:13.73Z</time></trkpt><trkpt lat="43.1777517" lon="13.0036117"><ele>364.0</ele><time>2026-04-04T13:35:14.729Z</time></trkpt><trkpt lat="43.177705" lon="13.003325"><ele>365.0</ele><time>2026-04-04T13:35:15.73Z</time></trkpt><trkpt lat="43.1776567" lon="13.0030267"><ele>366.0</ele><time>2026-04-04T13:35:16.728Z</time></trkpt><trkpt lat="43.1776133" lon="13.0027267"><ele>366.0</ele><time>2026-04-04T13:35:17.731Z</time></trkpt><trkpt lat="43.1775717" lon="13.0024383"><ele>366.0</ele><time>2026-04-04T13:35:18.728Z</time></trkpt><trkpt lat="43.1775317" lon="13.002155"><ele>366.0</ele><time>2026-04-04T13:35:19.731Z</time></trkpt><trkpt lat="43.1775233" lon="13.001875"><ele>366.6666666666667</ele><time>2026-04-04T13:35:20.734Z</time></trkpt><trkpt lat="43.1775417" lon="13.0015867"><ele>367.33333333333337</ele><time>2026-04-04T13:35:21.731Z</time></trkpt><trkpt lat="43.177585" lon="13.001295"><ele>368.0</ele><time>2026-04-04T13:35:22.729Z</time></trkpt><trkpt lat="43.1776383" lon="13.001005"><ele>369.33333333333337</ele><time>2026-04-04T13:35:23.727Z</time></trkpt><trkpt lat="43.1776917" lon="13.00073"><ele>370.6666666666667</ele><time>2026-04-04T13:35:24.731Z</time></trkpt><trkpt lat="43.1777317" lon="13.0004667"><ele>372.0</ele><time>2026-04-04T13:35:25.73Z</time></trkpt><trkpt lat="43.1777517" lon="13.0002017"><ele>372.0</ele><time>2026-04-04T13:35:26.729Z</time></trkpt><trkpt lat="43.1777683" lon="12.999935"><ele>372.0</ele><time>2026-04-04T13:35:27.731Z</time></trkpt><trkpt lat="43.1777667" lon="12.99968"><ele>372.0</ele><time>2026-04-04T13:35:28.727Z</time></trkpt><trkpt lat="43.177755" lon="12.9994467"><ele>372.0</ele><time>2026-04-04T13:35:29.729Z</time></trkpt><trkpt lat="43.1777317" lon="12.9992317"><ele>372.0</ele><time>2026-04-04T13:35:30.73Z</time></trkpt><trkpt lat="43.1777117" lon="12.99903"><ele>372.0</ele><time>2026-04-04T13:35:31.728Z</time></trkpt><trkpt lat="43.177665" lon="12.9988483"><ele>372.0</ele><time>2026-04-04T13:35:32.728Z</time></trkpt><trkpt lat="43.1775733" lon="12.9986917"><ele>373.6666666666667</ele><time>2026-04-04T13:35:33.728Z</time></trkpt><trkpt lat="43.17746" lon="12.9985567"><ele>375.33333333333337</ele><time>2026-04-04T13:35:34.728Z</time></trkpt><trkpt lat="43.1773283" lon="12.9984283"><ele>377.0</ele><time>2026-04-04T13:35:35.73Z</time></trkpt><trkpt lat="43.1771967" lon="12.9983083"><ele>378.6666666666667</ele><time>2026-04-04T13:35:36.728Z</time></trkpt><trkpt lat="43.17706" lon="12.998185"><ele>380.3333333333333</ele><time>2026-04-04T13:35:37.723Z</time></trkpt><trkpt lat="43.1769367" lon="12.9980717"><ele>382.0</ele><time>2026-04-04T13:35:38.729Z</time></trkpt><trkpt lat="43.1768217" lon="12.9979683"><ele>382.0</ele><time>2026-04-04T13:35:39.728Z</time></trkpt><trkpt lat="43.17672" lon="12.9978667"><ele>382.0</ele><time>2026-04-04T13:35:40.727Z</time></trkpt><trkpt lat="43.1766217" lon="12.997745"><ele>382.0</ele><time>2026-04-04T13:35:41.728Z</time></trkpt><trkpt lat="43.1765467" lon="12.9975967"><ele>382.0</ele><time>2026-04-04T13:35:42.727Z</time></trkpt><trkpt lat="43.1765167" lon="12.9974283"><ele>381.0</ele><time>2026-04-04T13:35:43.73Z</time></trkpt><trkpt lat="43.17652" lon="12.9972433"><ele>380.0</ele><time>2026-04-04T13:35:44.731Z</time></trkpt><trkpt lat="43.1765717" lon="12.9970483"><ele>379.0</ele><time>2026-04-04T13:35:45.727Z</time></trkpt><trkpt lat="43.176685" lon="12.9968333"><ele>389.5</ele><time>2026-04-04T13:35:46.729Z</time></trkpt><trkpt lat="43.176855" lon="12.9965983"><ele>400.0</ele><time>2026-04-04T13:35:47.731Z</time></trkpt><trkpt lat="43.177065" lon="12.9963483"><ele>400.0</ele><time>2026-04-04T13:35:48.726Z</time></trkpt><trkpt lat="43.1772767" lon="12.99609"><ele>400.0</ele><time>2026-04-04T13:35:49.73Z</time></trkpt><trkpt lat="43.1774717" lon="12.9958283"><ele>396.0</ele><time>2026-04-04T13:35:50.732Z</time></trkpt><trkpt lat="43.1776083" lon="12.995565"><ele>392.0</ele><time>2026-04-04T13:35:51.728Z</time></trkpt><trkpt lat="43.177725" lon="12.9953317"><ele>388.0</ele><time>2026-04-04T13:35:52.728Z</time></trkpt><trkpt lat="43.17781" lon="12.9951433"><ele>393.2</ele><time>2026-04-04T13:35:53.73Z</time></trkpt><trkpt lat="43.1778867" lon="12.9949983"><ele>398.4</ele><time>2026-04-04T13:35:54.727Z</time></trkpt><trkpt lat="43.1779467" lon="12.9949"><ele>403.59999999999997</ele><time>2026-04-04T13:35:55.727Z</time></trkpt><trkpt lat="43.1780183" lon="12.994785"><ele>408.79999999999995</ele><time>2026-04-04T13:35:57.727Z</time></trkpt><trkpt lat="43.1780017" lon="12.9946833"><ele>414.0</ele><time>2026-04-04T13:37:52.731Z</time></trkpt><trkpt lat="43.17804" lon="12.9945883"><ele>414.0</ele><time>2026-04-04T13:37:54.729Z</time></trkpt><trkpt lat="43.178115" lon="12.99443"><ele>414.0</ele><time>2026-04-04T13:37:56.729Z</time></trkpt><trkpt lat="43.1781667" lon="12.9943267"><ele>414.0</ele><time>2026-04-04T13:37:57.732Z</time></trkpt><trkpt lat="43.1782017" lon="12.9941983"><ele>414.0</ele><time>2026-04-04T13:37:58.727Z</time></trkpt><trkpt lat="43.1782233" lon="12.994045"><ele>414.0</ele><time>2026-04-04T13:37:59.73Z</time></trkpt><trkpt lat="43.1782233" lon="12.9938667"><ele>412.25</ele><time>2026-04-04T13:38:00.729Z</time></trkpt><trkpt lat="43.1782283" lon="12.99369"><ele>410.5</ele><time>2026-04-04T13:38:01.731Z</time></trkpt><trkpt lat="43.1782433" lon="12.9935083"><ele>408.75</ele><time>2026-04-04T13:38:02.731Z</time></trkpt><trkpt lat="43.17829" lon="12.9932867"><ele>407.0</ele><time>2026-04-04T13:38:03.727Z</time></trkpt><trkpt lat="43.1783167" lon="12.9930883"><ele>407.0</ele><time>2026-04-04T13:38:04.73Z</time></trkpt><trkpt lat="43.1783433" lon="12.992895"><ele>407.0</ele><time>2026-04-04T13:38:05.723Z</time></trkpt><trkpt lat="43.17837" lon="12.9927083"><ele>407.0</ele><time>2026-04-04T13:38:06.728Z</time></trkpt><trkpt lat="43.1783967" lon="12.9925167"><ele>407.0</ele><time>2026-04-04T13:38:07.729Z</time></trkpt><trkpt lat="43.1784233" lon="12.992325"><ele>516.0</ele><time>2026-04-04T13:38:08.729Z</time></trkpt><trkpt lat="43.1781083" lon="12.9915167"><ele>516.0</ele><time>2026-04-04T13:38:23.728Z</time></trkpt><trkpt lat="43.178165" lon="12.9914383"><ele>516.0</ele><time>2026-04-04T13:38:24.73Z</time></trkpt><trkpt lat="43.1781767" lon="12.991305"><ele>516.0</ele><time>2026-04-04T13:38:26.729Z</time></trkpt><trkpt lat="43.1782367" lon="12.9911883"><ele>516.0</ele><time>2026-04-04T13:38:28.731Z</time></trkpt><trkpt lat="43.1783833" lon="12.991125"><ele>516.0</ele><time>2026-04-04T13:38:29.731Z</time></trkpt><trkpt lat="43.1783583" lon="12.9909983"><ele>489.0</ele><time>2026-04-04T13:38:30.73Z</time></trkpt><trkpt lat="43.178275" lon="12.99077"><ele>462.0</ele><time>2026-04-04T13:38:31.731Z</time></trkpt><trkpt lat="43.17833" lon="12.990555"><ele>435.0</ele><time>2026-04-04T13:38:32.728Z</time></trkpt><trkpt lat="43.1783667" lon="12.9903933"><ele>435.0</ele><time>2026-04-04T13:38:33.729Z</time></trkpt><trkpt lat="43.178375" lon="12.9902267"><ele>435.0</ele><time>2026-04-04T13:38:34.729Z</time></trkpt><trkpt lat="43.17838" lon="12.99006"><ele>435.0</ele><time>2026-04-04T13:38:35.727Z</time></trkpt><trkpt lat="43.1783967" lon="12.9898633"><ele>435.0</ele><time>2026-04-04T13:38:36.731Z</time></trkpt><trkpt lat="43.1784067" lon="12.9896517"><ele>435.5</ele><time>2026-04-04T13:38:37.731Z</time></trkpt><trkpt lat="43.1784267" lon="12.9894317"><ele>436.0</ele><time>2026-04-04T13:38:38.729Z</time></trkpt><trkpt lat="43.178435" lon="12.9892317"><ele>436.5</ele><time>2026-04-04T13:38:39.729Z</time></trkpt><trkpt lat="43.178445" lon="12.9890517"><ele>437.0</ele><time>2026-04-04T13:38:40.73Z</time></trkpt><trkpt lat="43.1784683" lon="12.98888"><ele>437.40000000000003</ele><time>2026-04-04T13:38:41.732Z</time></trkpt><trkpt lat="43.1784783" lon="12.9887367"><ele>437.80000000000007</ele><time>2026-04-04T13:38:42.729Z</time></trkpt><trkpt lat="43.1784867" lon="12.9886"><ele>438.2</ele><time>2026-04-04T13:38:43.726Z</time></trkpt><trkpt lat="43.1784917" lon="12.9884617"><ele>438.6</ele><time>2026-04-04T13:38:44.73Z</time></trkpt><trkpt lat="43.1784817" lon="12.988315"><ele>439.0</ele><time>2026-04-04T13:38:45.728Z</time></trkpt><trkpt lat="43.178475" lon="12.988165"><ele>443.0</ele><time>2026-04-04T13:38:46.73Z</time></trkpt><trkpt lat="43.1784617" lon="12.9880067"><ele>447.0</ele><time>2026-04-04T13:38:47.728Z</time></trkpt><trkpt lat="43.1784483" lon="12.9878433"><ele>451.0</ele><time>2026-04-04T13:38:48.729Z</time></trkpt><trkpt lat="43.1784367" lon="12.9876783"><ele>455.0</ele><time>2026-04-04T13:38:49.727Z</time></trkpt><trkpt lat="43.178425" lon="12.9875133"><ele>455.25</ele><time>2026-04-04T13:38:50.731Z</time></trkpt><trkpt lat="43.1784117" lon="12.9873467"><ele>455.5</ele><time>2026-04-04T13:38:51.729Z</time></trkpt><trkpt lat="43.1784" lon="12.98718"><ele>455.75</ele><time>2026-04-04T13:38:52.729Z</time></trkpt><trkpt lat="43.1783883" lon="12.987015"><ele>456.0</ele><time>2026-04-04T13:38:53.726Z</time></trkpt><trkpt lat="43.1782017" lon="12.98605"><ele>455.8</ele><time>2026-04-04T13:39:00.733Z</time></trkpt><trkpt lat="43.1781233" lon="12.98601"><ele>455.6</ele><time>2026-04-04T13:39:01.731Z</time></trkpt><trkpt lat="43.17807" lon="12.9859033"><ele>455.4</ele><time>2026-04-04T13:39:02.73Z</time></trkpt><trkpt lat="43.178015" lon="12.9858183"><ele>455.2</ele><time>2026-04-04T13:39:03.727Z</time></trkpt><trkpt lat="43.177985" lon="12.9856733"><ele>455.0</ele><time>2026-04-04T13:39:05.728Z</time></trkpt><trkpt lat="43.17798" lon="12.9855417"><ele>454.99999999999994</ele><time>2026-04-04T13:39:07.73Z</time></trkpt><trkpt lat="43.1779817" lon="12.9854133"><ele>455.0</ele><time>2026-04-04T13:39:09.727Z</time></trkpt><trkpt lat="43.1779917" lon="12.985275"><ele>455.0</ele><time>2026-04-04T13:39:11.73Z</time></trkpt><trkpt lat="43.1779767" lon="12.985155"><ele>455.0</ele><time>2026-04-04T13:39:13.73Z</time></trkpt><trkpt lat="43.1779083" lon="12.9850833"><ele>454.99999999999994</ele><time>2026-04-04T13:39:15.73Z</time></trkpt><trkpt lat="43.1778317" lon="12.98508"><ele>455.0</ele><time>2026-04-04T13:39:16.728Z</time></trkpt><trkpt lat="43.17775" lon="12.9851083"><ele>455.0</ele><time>2026-04-04T13:39:17.728Z</time></trkpt><trkpt lat="43.1776717" lon="12.9851467"><ele>455.0</ele><time>2026-04-04T13:39:18.728Z</time></trkpt><trkpt lat="43.1775883" lon="12.9852"><ele>455.0</ele><time>2026-04-04T13:39:19.73Z</time></trkpt><trkpt lat="43.177505" lon="12.9852517"><ele>455.0</ele><time>2026-04-04T13:39:20.728Z</time></trkpt><trkpt lat="43.1774183" lon="12.985325"><ele>455.0</ele><time>2026-04-04T13:39:21.728Z</time></trkpt><trkpt lat="43.1773117" lon="12.985405"><ele>456.75</ele><time>2026-04-04T13:39:22.731Z</time></trkpt><trkpt lat="43.1771967" lon="12.9854883"><ele>458.5</ele><time>2026-04-04T13:39:23.733Z</time></trkpt><trkpt lat="43.177065" lon="12.9855833"><ele>460.25</ele><time>2026-04-04T13:39:24.726Z</time></trkpt><trkpt lat="43.1769233" lon="12.9856667"><ele>462.0</ele><time>2026-04-04T13:39:25.73Z</time></trkpt><trkpt lat="43.1767867" lon="12.985755"><ele>462.0</ele><time>2026-04-04T13:39:26.729Z</time></trkpt><trkpt lat="43.1766533" lon="12.9858433"><ele>462.0</ele><time>2026-04-04T13:39:27.728Z</time></trkpt><trkpt lat="43.1765383" lon="12.98591"><ele>462.0</ele><time>2026-04-04T13:39:28.727Z</time></trkpt><trkpt lat="43.1764317" lon="12.9859383"><ele>462.0</ele><time>2026-04-04T13:39:29.729Z</time></trkpt><trkpt lat="43.1763267" lon="12.985935"><ele>463.66666666666663</ele><time>2026-04-04T13:39:30.728Z</time></trkpt><trkpt lat="43.1762" lon="12.98591"><ele>465.3333333333333</ele><time>2026-04-04T13:39:31.729Z</time></trkpt><trkpt lat="43.1760517" lon="12.9858767"><ele>467.0</ele><time>2026-04-04T13:39:32.729Z</time></trkpt><trkpt lat="43.17588" lon="12.985845"><ele>467.0</ele><time>2026-04-04T13:39:33.728Z</time></trkpt><trkpt lat="43.175705" lon="12.9858133"><ele>467.0</ele><time>2026-04-04T13:39:34.729Z</time></trkpt><trkpt lat="43.175525" lon="12.9857767"><ele>467.0</ele><time>2026-04-04T13:39:35.73Z</time></trkpt><trkpt lat="43.175335" lon="12.9857383"><ele>467.3333333333333</ele><time>2026-04-04T13:39:36.73Z</time></trkpt><trkpt lat="43.17514" lon="12.9856967"><ele>467.66666666666663</ele><time>2026-04-04T13:39:37.729Z</time></trkpt><trkpt lat="43.1749433" lon="12.9856567"><ele>468.0</ele><time>2026-04-04T13:39:38.728Z</time></trkpt><trkpt lat="43.1747433" lon="12.9856083"><ele>470.0</ele><time>2026-04-04T13:39:39.729Z</time></trkpt><trkpt lat="43.1745317" lon="12.9855567"><ele>472.0</ele><time>2026-04-04T13:39:40.739Z</time></trkpt><trkpt lat="43.1743233" lon="12.9855017"><ele>474.0</ele><time>2026-04-04T13:39:41.73Z</time></trkpt><trkpt lat="43.1741133" lon="12.98545"><ele>477.0</ele><time>2026-04-04T13:39:42.73Z</time></trkpt><trkpt lat="43.1739117" lon="12.9854033"><ele>480.0</ele><time>2026-04-04T13:39:43.73Z</time></trkpt><trkpt lat="43.17372" lon="12.98537"><ele>483.0</ele><time>2026-04-04T13:39:44.729Z</time></trkpt><trkpt lat="43.17354" lon="12.9853517"><ele>483.0</ele><time>2026-04-04T13:39:45.729Z</time></trkpt><trkpt lat="43.1733717" lon="12.9853433"><ele>483.0</ele><time>2026-04-04T13:39:46.726Z</time></trkpt><trkpt lat="43.1732067" lon="12.9853183"><ele>483.0</ele><time>2026-04-04T13:39:47.728Z</time></trkpt><trkpt lat="43.1730417" lon="12.985255"><ele>484.0</ele><time>2026-04-04T13:39:48.728Z</time></trkpt><trkpt lat="43.17288" lon="12.9851667"><ele>485.0</ele><time>2026-04-04T13:39:49.731Z</time></trkpt><trkpt lat="43.1727183" lon="12.985065"><ele>486.0</ele><time>2026-04-04T13:39:50.73Z</time></trkpt><trkpt lat="43.172565" lon="12.9849617"><ele>480.0</ele><time>2026-04-04T13:39:51.728Z</time></trkpt><trkpt lat="43.1724033" lon="12.984845"><ele>474.0</ele><time>2026-04-04T13:39:52.727Z</time></trkpt><trkpt lat="43.172235" lon="12.984725"><ele>468.0</ele><time>2026-04-04T13:39:53.727Z</time></trkpt><trkpt lat="43.1720633" lon="12.984595"><ele>468.0</ele><time>2026-04-04T13:39:54.729Z</time></trkpt><trkpt lat="43.1718967" lon="12.98446"><ele>468.0</ele><time>2026-04-04T13:39:55.73Z</time></trkpt><trkpt lat="43.1717333" lon="12.9843133"><ele>468.0</ele><time>2026-04-04T13:39:56.728Z</time></trkpt><trkpt lat="43.1715783" lon="12.9841617"><ele>474.66666666666663</ele><time>2026-04-04T13:39:57.729Z</time></trkpt><trkpt lat="43.171425" lon="12.98401"><ele>481.3333333333333</ele><time>2026-04-04T13:39:58.731Z</time></trkpt><trkpt lat="43.1712717" lon="12.9838517"><ele>488.0</ele><time>2026-04-04T13:39:59.729Z</time></trkpt><trkpt lat="43.1711317" lon="12.9836817"><ele>488.0</ele><time>2026-04-04T13:40:00.73Z</time></trkpt><trkpt lat="43.171005" lon="12.9834883"><ele>488.0</ele><time>2026-04-04T13:40:01.73Z</time></trkpt><trkpt lat="43.17091" lon="12.9832517"><ele>488.0</ele><time>2026-04-04T13:40:02.728Z</time></trkpt><trkpt lat="43.17084" lon="12.982995"><ele>481.0</ele><time>2026-04-04T13:40:03.726Z</time></trkpt><trkpt lat="43.1707817" lon="12.9827283"><ele>474.0</ele><time>2026-04-04T13:40:04.726Z</time></trkpt><trkpt lat="43.1707383" lon="12.9824533"><ele>467.0</ele><time>2026-04-04T13:40:05.727Z</time></trkpt><trkpt lat="43.1707117" lon="12.98217"><ele>465.3333333333333</ele><time>2026-04-04T13:40:06.728Z</time></trkpt><trkpt lat="43.1707017" lon="12.9818683"><ele>463.66666666666663</ele><time>2026-04-04T13:40:07.729Z</time></trkpt><trkpt lat="43.170695" lon="12.9815633"><ele>462.0</ele><time>2026-04-04T13:40:08.732Z</time></trkpt><trkpt lat="43.17069" lon="12.9812583"><ele>473.33333333333337</ele><time>2026-04-04T13:40:09.735Z</time></trkpt><trkpt lat="43.170685" lon="12.9809633"><ele>484.6666666666667</ele><time>2026-04-04T13:40:10.731Z</time></trkpt><trkpt lat="43.1706767" lon="12.9806867"><ele>496.0</ele><time>2026-04-04T13:40:11.734Z</time></trkpt><trkpt lat="43.1706533" lon="12.9804283"><ele>496.0</ele><time>2026-04-04T13:40:12.732Z</time></trkpt><trkpt lat="43.1706017" lon="12.98021"><ele>496.0</ele><time>2026-04-04T13:40:13.729Z</time></trkpt><trkpt lat="43.1705267" lon="12.9800383"><ele>496.0</ele><time>2026-04-04T13:40:14.731Z</time></trkpt><trkpt lat="43.170405" lon="12.9799133"><ele>489.33333333333337</ele><time>2026-04-04T13:40:15.731Z</time></trkpt><trkpt lat="43.1702383" lon="12.9798317"><ele>482.66666666666663</ele><time>2026-04-04T13:40:16.728Z</time></trkpt><trkpt lat="43.1700583" lon="12.9797067"><ele>476.0</ele><time>2026-04-04T13:40:17.728Z</time></trkpt><trkpt lat="43.169885" lon="12.97951"><ele>481.5</ele><time>2026-04-04T13:40:18.729Z</time></trkpt><trkpt lat="43.169715" lon="12.9792883"><ele>487.0</ele><time>2026-04-04T13:40:19.728Z</time></trkpt><trkpt lat="43.1695617" lon="12.9790417"><ele>487.0</ele><time>2026-04-04T13:40:20.728Z</time></trkpt><trkpt lat="43.169415" lon="12.9787983"><ele>487.0</ele><time>2026-04-04T13:40:21.728Z</time></trkpt><trkpt lat="43.169295" lon="12.9785583"><ele>487.0</ele><time>2026-04-04T13:40:22.729Z</time></trkpt><trkpt lat="43.1691933" lon="12.9783233"><ele>487.0</ele><time>2026-04-04T13:40:23.727Z</time></trkpt><trkpt lat="43.1691033" lon="12.978105"><ele>487.0</ele><time>2026-04-04T13:40:24.73Z</time></trkpt><trkpt lat="43.1689967" lon="12.977925"><ele>487.0</ele><time>2026-04-04T13:40:25.73Z</time></trkpt><trkpt lat="43.1688583" lon="12.9778017"><ele>487.0</ele><time>2026-04-04T13:40:26.734Z</time></trkpt><trkpt lat="43.1686767" lon="12.9777367"><ele>487.0</ele><time>2026-04-04T13:40:27.729Z</time></trkpt><trkpt lat="43.16848" lon="12.97768"><ele>487.0</ele><time>2026-04-04T13:40:28.731Z</time></trkpt><trkpt lat="43.1682833" lon="12.9775917"><ele>486.6666666666667</ele><time>2026-04-04T13:40:29.73Z</time></trkpt><trkpt lat="43.1680983" lon="12.97744"><ele>486.33333333333337</ele><time>2026-04-04T13:40:30.73Z</time></trkpt><trkpt lat="43.1679283" lon="12.9772517"><ele>486.0</ele><time>2026-04-04T13:40:31.73Z</time></trkpt><trkpt lat="43.16777" lon="12.9770683"><ele>486.0</ele><time>2026-04-04T13:40:32.73Z</time></trkpt><trkpt lat="43.1676283" lon="12.9768883"><ele>486.0</ele><time>2026-04-04T13:40:33.729Z</time></trkpt><trkpt lat="43.1674817" lon="12.97674"><ele>486.0</ele><time>2026-04-04T13:40:34.73Z</time></trkpt><trkpt lat="43.167315" lon="12.9766217"><ele>484.33333333333337</ele><time>2026-04-04T13:40:35.727Z</time></trkpt><trkpt lat="43.16711" lon="12.976555"><ele>482.6666666666667</ele><time>2026-04-04T13:40:36.73Z</time></trkpt><trkpt lat="43.166905" lon="12.9764717"><ele>481.0</ele><time>2026-04-04T13:40:37.728Z</time></trkpt><trkpt lat="43.16672" lon="12.9763367"><ele>481.0</ele><time>2026-04-04T13:40:38.73Z</time></trkpt><trkpt lat="43.1665483" lon="12.9761783"><ele>481.0</ele><time>2026-04-04T13:40:39.732Z</time></trkpt><trkpt lat="43.1663783" lon="12.976045"><ele>481.0</ele><time>2026-04-04T13:40:40.73Z</time></trkpt><trkpt lat="43.1661783" lon="12.975955"><ele>475.0</ele><time>2026-04-04T13:40:41.731Z</time></trkpt><trkpt lat="43.16596" lon="12.9758983"><ele>469.0</ele><time>2026-04-04T13:40:42.73Z</time></trkpt><trkpt lat="43.165725" lon="12.975835"><ele>476.5</ele><time>2026-04-04T13:40:43.729Z</time></trkpt><trkpt lat="43.16551" lon="12.975745"><ele>484.0</ele><time>2026-04-04T13:40:44.73Z</time></trkpt><trkpt lat="43.1653083" lon="12.9756033"><ele>484.0</ele><time>2026-04-04T13:40:45.729Z</time></trkpt><trkpt lat="43.1651317" lon="12.9754067"><ele>484.0</ele><time>2026-04-04T13:40:46.728Z</time></trkpt><trkpt lat="43.1649667" lon="12.9751883"><ele>485.6666666666667</ele><time>2026-04-04T13:40:47.728Z</time></trkpt><trkpt lat="43.1648167" lon="12.974975"><ele>487.33333333333337</ele><time>2026-04-04T13:40:48.729Z</time></trkpt><trkpt lat="43.16467" lon="12.9747767"><ele>489.0</ele><time>2026-04-04T13:40:49.731Z</time></trkpt><trkpt lat="43.1645083" lon="12.9746"><ele>489.0</ele><time>2026-04-04T13:40:50.729Z</time></trkpt><trkpt lat="43.1643267" lon="12.97446"><ele>489.0</ele><time>2026-04-04T13:40:51.73Z</time></trkpt><trkpt lat="43.1641467" lon="12.97436"><ele>489.0</ele><time>2026-04-04T13:40:52.729Z</time></trkpt><trkpt lat="43.1639483" lon="12.974315"><ele>493.66666666666663</ele><time>2026-04-04T13:40:53.73Z</time></trkpt><trkpt lat="43.163725" lon="12.9743117"><ele>498.3333333333333</ele><time>2026-04-04T13:40:54.726Z</time></trkpt><trkpt lat="43.1635" lon="12.97431"><ele>503.0</ele><time>2026-04-04T13:40:55.727Z</time></trkpt><trkpt lat="43.163255" lon="12.9743117"><ele>499.0</ele><time>2026-04-04T13:40:56.73Z</time></trkpt><trkpt lat="43.1630083" lon="12.9742917"><ele>495.0</ele><time>2026-04-04T13:40:57.73Z</time></trkpt><trkpt lat="43.1627667" lon="12.9742233"><ele>481.5</ele><time>2026-04-04T13:40:58.729Z</time></trkpt><trkpt lat="43.1625333" lon="12.974115"><ele>468.0</ele><time>2026-04-04T13:40:59.731Z</time></trkpt><trkpt lat="43.1622933" lon="12.973995"><ele>468.0</ele><time>2026-04-04T13:41:00.731Z</time></trkpt><trkpt lat="43.16205" lon="12.9738617"><ele>468.0</ele><time>2026-04-04T13:41:01.729Z</time></trkpt><trkpt lat="43.1618083" lon="12.9737333"><ele>468.0</ele><time>2026-04-04T13:41:02.73Z</time></trkpt><trkpt lat="43.1615683" lon="12.9736017"><ele>468.0</ele><time>2026-04-04T13:41:03.729Z</time></trkpt><trkpt lat="43.161335" lon="12.97346"><ele>469.5</ele><time>2026-04-04T13:41:04.728Z</time></trkpt><trkpt lat="43.1611117" lon="12.973305"><ele>471.0</ele><time>2026-04-04T13:41:05.729Z</time></trkpt><trkpt lat="43.160895" lon="12.973135"><ele>473.0</ele><time>2026-04-04T13:41:06.728Z</time></trkpt><trkpt lat="43.160675" lon="12.9729817"><ele>475.0</ele><time>2026-04-04T13:41:07.73Z</time></trkpt><trkpt lat="43.1604583" lon="12.9728733"><ele>475.0</ele><time>2026-04-04T13:41:08.73Z</time></trkpt><trkpt lat="43.1602383" lon="12.9727983"><ele>475.0</ele><time>2026-04-04T13:41:09.727Z</time></trkpt><trkpt lat="43.160005" lon="12.9727333"><ele>480.0</ele><time>2026-04-04T13:41:10.728Z</time></trkpt><trkpt lat="43.15977" lon="12.9726567"><ele>485.0</ele><time>2026-04-04T13:41:11.73Z</time></trkpt><trkpt lat="43.1595333" lon="12.9725733"><ele>476.5</ele><time>2026-04-04T13:41:12.729Z</time></trkpt><trkpt lat="43.159295" lon="12.9724867"><ele>468.0</ele><time>2026-04-04T13:41:13.728Z</time></trkpt><trkpt lat="43.15906" lon="12.9723983"><ele>476.0</ele><time>2026-04-04T13:41:14.731Z</time></trkpt><trkpt lat="43.15884" lon="12.9722867"><ele>484.0</ele><time>2026-04-04T13:41:15.731Z</time></trkpt><trkpt lat="43.1586433" lon="12.97214"><ele>484.0</ele><time>2026-04-04T13:41:16.729Z</time></trkpt><trkpt lat="43.158475" lon="12.9719767"><ele>484.0</ele><time>2026-04-04T13:41:17.729Z</time></trkpt><trkpt lat="43.1583117" lon="12.97181"><ele>484.0</ele><time>2026-04-04T13:41:18.728Z</time></trkpt><trkpt lat="43.1581483" lon="12.9716633"><ele>482.0</ele><time>2026-04-04T13:41:19.728Z</time></trkpt><trkpt lat="43.1579833" lon="12.9715317"><ele>480.0</ele><time>2026-04-04T13:41:20.731Z</time></trkpt><trkpt lat="43.1578117" lon="12.9714333"><ele>478.0</ele><time>2026-04-04T13:41:21.729Z</time></trkpt><trkpt lat="43.15764" lon="12.9713617"><ele>478.0</ele><time>2026-04-04T13:41:22.727Z</time></trkpt><trkpt lat="43.1574717" lon="12.97132"><ele>478.0</ele><time>2026-04-04T13:41:23.728Z</time></trkpt><trkpt lat="43.1573017" lon="12.97128"><ele>478.0</ele><time>2026-04-04T13:41:24.727Z</time></trkpt><trkpt lat="43.1571333" lon="12.9712367"><ele>477.6666666666667</ele><time>2026-04-04T13:41:25.728Z</time></trkpt><trkpt lat="43.1569683" lon="12.971175"><ele>477.33333333333337</ele><time>2026-04-04T13:41:26.728Z</time></trkpt><trkpt lat="43.156815" lon="12.9710683"><ele>477.0</ele><time>2026-04-04T13:41:27.732Z</time></trkpt><trkpt lat="43.1566833" lon="12.9709133"><ele>476.33333333333337</ele><time>2026-04-04T13:41:28.729Z</time></trkpt><trkpt lat="43.1565683" lon="12.9707217"><ele>475.6666666666667</ele><time>2026-04-04T13:41:29.73Z</time></trkpt><trkpt lat="43.1564583" lon="12.9705067"><ele>475.0</ele><time>2026-04-04T13:41:30.73Z</time></trkpt><trkpt lat="43.1563617" lon="12.97028"><ele>482.0</ele><time>2026-04-04T13:41:31.728Z</time></trkpt><trkpt lat="43.1562717" lon="12.9700317"><ele>489.0</ele><time>2026-04-04T13:41:32.728Z</time></trkpt><trkpt lat="43.1561833" lon="12.969785"><ele>496.0</ele><time>2026-04-04T13:41:33.731Z</time></trkpt><trkpt lat="43.1561017" lon="12.9695283"><ele>497.0</ele><time>2026-04-04T13:41:34.728Z</time></trkpt><trkpt lat="43.156035" lon="12.9692583"><ele>498.0</ele><time>2026-04-04T13:41:35.729Z</time></trkpt><trkpt lat="43.1559967" lon="12.968985"><ele>499.0</ele><time>2026-04-04T13:41:36.728Z</time></trkpt><trkpt lat="43.15596" lon="12.9687233"><ele>495.33333333333337</ele><time>2026-04-04T13:41:37.729Z</time></trkpt><trkpt lat="43.1559117" lon="12.96848"><ele>491.66666666666663</ele><time>2026-04-04T13:41:38.73Z</time></trkpt><trkpt lat="43.1558533" lon="12.9682533"><ele>488.0</ele><time>2026-04-04T13:41:39.729Z</time></trkpt><trkpt lat="43.1557883" lon="12.9680467"><ele>486.0</ele><time>2026-04-04T13:41:40.726Z</time></trkpt><trkpt lat="43.1556933" lon="12.967855"><ele>484.0</ele><time>2026-04-04T13:41:41.73Z</time></trkpt><trkpt lat="43.1555567" lon="12.9676883"><ele>482.0</ele><time>2026-04-04T13:41:42.729Z</time></trkpt><trkpt lat="43.1553783" lon="12.9675217"><ele>482.0</ele><time>2026-04-04T13:41:43.728Z</time></trkpt><trkpt lat="43.15519" lon="12.967355"><ele>482.0</ele><time>2026-04-04T13:41:44.729Z</time></trkpt><trkpt lat="43.155005" lon="12.9671733"><ele>495.5</ele><time>2026-04-04T13:41:45.729Z</time></trkpt><trkpt lat="43.1548167" lon="12.9669833"><ele>509.0</ele><time>2026-04-04T13:41:46.729Z</time></trkpt><trkpt lat="43.1546417" lon="12.9667783"><ele>499.0</ele><time>2026-04-04T13:41:47.728Z</time></trkpt><trkpt lat="43.1544817" lon="12.9665517"><ele>489.0</ele><time>2026-04-04T13:41:48.727Z</time></trkpt><trkpt lat="43.1543317" lon="12.9663067"><ele>489.0</ele><time>2026-04-04T13:41:49.728Z</time></trkpt><trkpt lat="43.15418" lon="12.966055"><ele>489.0</ele><time>2026-04-04T13:41:50.73Z</time></trkpt><trkpt lat="43.1540383" lon="12.965795"><ele>500.5</ele><time>2026-04-04T13:41:51.73Z</time></trkpt><trkpt lat="43.1538967" lon="12.9655467"><ele>512.0</ele><time>2026-04-04T13:41:52.732Z</time></trkpt><trkpt lat="43.15376" lon="12.96531"><ele>512.0</ele><time>2026-04-04T13:41:53.725Z</time></trkpt><trkpt lat="43.153625" lon="12.96509"><ele>512.0</ele><time>2026-04-04T13:41:54.729Z</time></trkpt><trkpt lat="43.153495" lon="12.9648833"><ele>512.0</ele><time>2026-04-04T13:41:55.732Z</time></trkpt><trkpt lat="43.1533817" lon="12.9646783"><ele>510.3333333333333</ele><time>2026-04-04T13:41:56.728Z</time></trkpt><trkpt lat="43.1532617" lon="12.9644733"><ele>508.66666666666663</ele><time>2026-04-04T13:41:57.731Z</time></trkpt><trkpt lat="43.1531633" lon="12.96424"><ele>507.0</ele><time>2026-04-04T13:41:58.727Z</time></trkpt><trkpt lat="43.153075" lon="12.96401"><ele>504.0</ele><time>2026-04-04T13:41:59.726Z</time></trkpt><trkpt lat="43.1529667" lon="12.9638033"><ele>501.0</ele><time>2026-04-04T13:42:00.729Z</time></trkpt><trkpt lat="43.1528383" lon="12.9636067"><ele>498.0</ele><time>2026-04-04T13:42:01.731Z</time></trkpt><trkpt lat="43.1526917" lon="12.9634217"><ele>500.33333333333337</ele><time>2026-04-04T13:42:02.73Z</time></trkpt><trkpt lat="43.1525367" lon="12.963245"><ele>502.6666666666667</ele><time>2026-04-04T13:42:03.73Z</time></trkpt><trkpt lat="43.1523883" lon="12.9630533"><ele>505.0</ele><time>2026-04-04T13:42:04.728Z</time></trkpt><trkpt lat="43.1522533" lon="12.9628267"><ele>505.0</ele><time>2026-04-04T13:42:05.731Z</time></trkpt><trkpt lat="43.1521283" lon="12.962585"><ele>505.0</ele><time>2026-04-04T13:42:06.727Z</time></trkpt><trkpt lat="43.1520183" lon="12.9623317"><ele>505.0</ele><time>2026-04-04T13:42:07.731Z</time></trkpt><trkpt lat="43.1519283" lon="12.9620683"><ele>501.33333333333337</ele><time>2026-04-04T13:42:08.728Z</time></trkpt><trkpt lat="43.15185" lon="12.9617983"><ele>497.66666666666663</ele><time>2026-04-04T13:42:09.731Z</time></trkpt><trkpt lat="43.1517767" lon="12.9615167"><ele>494.0</ele><time>2026-04-04T13:42:10.728Z</time></trkpt><trkpt lat="43.15171" lon="12.9612233"><ele>493.66666666666663</ele><time>2026-04-04T13:42:11.728Z</time></trkpt><trkpt lat="43.151645" lon="12.96093"><ele>493.33333333333337</ele><time>2026-04-04T13:42:12.728Z</time></trkpt><trkpt lat="43.1515867" lon="12.9606367"><ele>493.0</ele><time>2026-04-04T13:42:13.728Z</time></trkpt><trkpt lat="43.151535" lon="12.9603583"><ele>493.0</ele><time>2026-04-04T13:42:14.735Z</time></trkpt><trkpt lat="43.1514783" lon="12.9600983"><ele>493.0</ele><time>2026-04-04T13:42:15.729Z</time></trkpt><trkpt lat="43.1514017" lon="12.9598467"><ele>493.0</ele><time>2026-04-04T13:42:16.728Z</time></trkpt><trkpt lat="43.1513" lon="12.9596067"><ele>492.6666666666667</ele><time>2026-04-04T13:42:17.729Z</time></trkpt><trkpt lat="43.1511833" lon="12.9593717"><ele>492.33333333333337</ele><time>2026-04-04T13:42:18.727Z</time></trkpt><trkpt lat="43.1510583" lon="12.9591383"><ele>492.0</ele><time>2026-04-04T13:42:19.727Z</time></trkpt><trkpt lat="43.15094" lon="12.958895"><ele>492.0</ele><time>2026-04-04T13:42:20.729Z</time></trkpt><trkpt lat="43.1508533" lon="12.9586317"><ele>492.0</ele><time>2026-04-04T13:42:21.728Z</time></trkpt><trkpt lat="43.1507983" lon="12.9583567"><ele>492.0</ele><time>2026-04-04T13:42:22.729Z</time></trkpt><trkpt lat="43.1507717" lon="12.958085"><ele>490.33333333333337</ele><time>2026-04-04T13:42:23.729Z</time></trkpt><trkpt lat="43.1507617" lon="12.9578233"><ele>488.6666666666667</ele><time>2026-04-04T13:42:24.728Z</time></trkpt><trkpt lat="43.15076" lon="12.95758"><ele>487.0</ele><time>2026-04-04T13:42:25.727Z</time></trkpt><trkpt lat="43.1507433" lon="12.9573533"><ele>500.6666666666667</ele><time>2026-04-04T13:42:26.733Z</time></trkpt><trkpt lat="43.1507" lon="12.95714"><ele>514.3333333333334</ele><time>2026-04-04T13:42:27.727Z</time></trkpt><trkpt lat="43.1506183" lon="12.956935"><ele>528.0</ele><time>2026-04-04T13:42:28.726Z</time></trkpt><trkpt lat="43.1505233" lon="12.9567383"><ele>523.3333333333334</ele><time>2026-04-04T13:42:29.728Z</time></trkpt><trkpt lat="43.15042" lon="12.9565533"><ele>518.6666666666667</ele><time>2026-04-04T13:42:30.727Z</time></trkpt><trkpt lat="43.1503133" lon="12.95638"><ele>514.0</ele><time>2026-04-04T13:42:31.728Z</time></trkpt><trkpt lat="43.1502133" lon="12.9562017"><ele>514.0</ele><time>2026-04-04T13:42:32.73Z</time></trkpt><trkpt lat="43.1501217" lon="12.9560117"><ele>514.0</ele><time>2026-04-04T13:42:33.729Z</time></trkpt><trkpt lat="43.1500367" lon="12.9558083"><ele>514.0</ele><time>2026-04-04T13:42:34.726Z</time></trkpt><trkpt lat="43.149995" lon="12.9555867"><ele>509.0</ele><time>2026-04-04T13:42:35.725Z</time></trkpt><trkpt lat="43.14996" lon="12.9553517"><ele>504.0</ele><time>2026-04-04T13:42:36.731Z</time></trkpt><trkpt lat="43.1499617" lon="12.9550967"><ele>499.0</ele><time>2026-04-04T13:42:37.729Z</time></trkpt><trkpt lat="43.1499817" lon="12.95485"><ele>498.0</ele><time>2026-04-04T13:42:38.729Z</time></trkpt><trkpt lat="43.149975" lon="12.9546033"><ele>497.0</ele><time>2026-04-04T13:42:39.729Z</time></trkpt><trkpt lat="43.1499633" lon="12.9543667"><ele>496.0</ele><time>2026-04-04T13:42:40.728Z</time></trkpt><trkpt lat="43.1499433" lon="12.95414"><ele>495.6666666666667</ele><time>2026-04-04T13:42:41.731Z</time></trkpt><trkpt lat="43.149915" lon="12.9539267"><ele>495.33333333333337</ele><time>2026-04-04T13:42:42.726Z</time></trkpt><trkpt lat="43.149885" lon="12.9537167"><ele>495.0</ele><time>2026-04-04T13:42:43.73Z</time></trkpt><trkpt lat="43.1498433" lon="12.95351"><ele>505.5</ele><time>2026-04-04T13:42:44.73Z</time></trkpt><trkpt lat="43.1498033" lon="12.9533067"><ele>516.0</ele><time>2026-04-04T13:42:45.729Z</time></trkpt><trkpt lat="43.149765" lon="12.9531133"><ele>526.5</ele><time>2026-04-04T13:42:46.728Z</time></trkpt><trkpt lat="43.1497317" lon="12.9529283"><ele>537.0</ele><time>2026-04-04T13:42:47.725Z</time></trkpt><trkpt lat="43.1496833" lon="12.9527517"><ele>537.0</ele><time>2026-04-04T13:42:48.725Z</time></trkpt><trkpt lat="43.14962" lon="12.9525917"><ele>537.0</ele><time>2026-04-04T13:42:49.727Z</time></trkpt><trkpt lat="43.14955" lon="12.952445"><ele>537.0</ele><time>2026-04-04T13:42:50.73Z</time></trkpt><trkpt lat="43.1494717" lon="12.9523267"><ele>537.0</ele><time>2026-04-04T13:42:51.728Z</time></trkpt><trkpt lat="43.149375" lon="12.95224"><ele>539.2</ele><time>2026-04-04T13:42:52.73Z</time></trkpt><trkpt lat="43.1492817" lon="12.95216"><ele>541.4000000000001</ele><time>2026-04-04T13:42:53.729Z</time></trkpt><trkpt lat="43.149195" lon="12.95208"><ele>543.5999999999999</ele><time>2026-04-04T13:42:54.727Z</time></trkpt><trkpt lat="43.14911" lon="12.9520083"><ele>545.8</ele><time>2026-04-04T13:42:55.728Z</time></trkpt><trkpt lat="43.1490267" lon="12.95194"><ele>548.0</ele><time>2026-04-04T13:42:56.727Z</time></trkpt><trkpt lat="43.1489533" lon="12.951855"><ele>548.0</ele><time>2026-04-04T13:42:57.728Z</time></trkpt><trkpt lat="43.1488933" lon="12.9517433"><ele>548.0</ele><time>2026-04-04T13:42:58.727Z</time></trkpt><trkpt lat="43.14883" lon="12.9516367"><ele>548.0</ele><time>2026-04-04T13:42:59.726Z</time></trkpt><trkpt lat="43.1487633" lon="12.9515167"><ele>548.0</ele><time>2026-04-04T13:43:00.727Z</time></trkpt><trkpt lat="43.1487" lon="12.951385"><ele>548.0</ele><time>2026-04-04T13:43:01.729Z</time></trkpt><trkpt lat="43.1486333" lon="12.9512567"><ele>541.8</ele><time>2026-04-04T13:43:02.731Z</time></trkpt><trkpt lat="43.1485683" lon="12.9511267"><ele>535.5999999999999</ele><time>2026-04-04T13:43:03.727Z</time></trkpt><trkpt lat="43.1485017" lon="12.9509983"><ele>529.4000000000001</ele><time>2026-04-04T13:43:04.731Z</time></trkpt><trkpt lat="43.1484317" lon="12.9508933"><ele>523.2</ele><time>2026-04-04T13:43:05.728Z</time></trkpt><trkpt lat="43.1483417" lon="12.9508017"><ele>517.0</ele><time>2026-04-04T13:43:06.728Z</time></trkpt><trkpt lat="43.1482433" lon="12.9507183"><ele>516.25</ele><time>2026-04-04T13:43:07.728Z</time></trkpt><trkpt lat="43.14814" lon="12.9506433"><ele>515.5</ele><time>2026-04-04T13:43:08.735Z</time></trkpt><trkpt lat="43.1480317" lon="12.950575"><ele>514.75</ele><time>2026-04-04T13:43:09.733Z</time></trkpt><trkpt lat="43.14792" lon="12.9504983"><ele>514.0</ele><time>2026-04-04T13:43:10.727Z</time></trkpt><trkpt lat="43.1477983" lon="12.9504233"><ele>514.0</ele><time>2026-04-04T13:43:11.728Z</time></trkpt><trkpt lat="43.14769" lon="12.95034"><ele>514.0</ele><time>2026-04-04T13:43:12.729Z</time></trkpt><trkpt lat="43.1475867" lon="12.95026"><ele>514.0</ele><time>2026-04-04T13:43:13.726Z</time></trkpt><trkpt lat="43.147485" lon="12.9501817"><ele>514.0</ele><time>2026-04-04T13:43:14.731Z</time></trkpt><trkpt lat="43.147385" lon="12.95009"><ele>514.8</ele><time>2026-04-04T13:43:15.728Z</time></trkpt><trkpt lat="43.14729" lon="12.9500167"><ele>515.5999999999999</ele><time>2026-04-04T13:43:16.73Z</time></trkpt><trkpt lat="43.1472067" lon="12.9499567"><ele>516.4</ele><time>2026-04-04T13:43:17.732Z</time></trkpt><trkpt lat="43.1471417" lon="12.9499"><ele>517.1999999999999</ele><time>2026-04-04T13:43:18.729Z</time></trkpt><trkpt lat="43.1470867" lon="12.9498467"><ele>518.0</ele><time>2026-04-04T13:43:19.73Z</time></trkpt><trkpt lat="43.1469917" lon="12.949765"><ele>518.0</ele><time>2026-04-04T13:43:21.73Z</time></trkpt><trkpt lat="43.1468667" lon="12.9496717"><ele>518.0</ele><time>2026-04-04T13:43:23.728Z</time></trkpt><trkpt lat="43.14679" lon="12.9496167"><ele>518.0</ele><time>2026-04-04T13:43:24.727Z</time></trkpt><trkpt lat="43.14671" lon="12.9495617"><ele>518.0</ele><time>2026-04-04T13:43:25.728Z</time></trkpt><trkpt lat="43.146645" lon="12.949505"><ele>518.0</ele><time>2026-04-04T13:43:26.733Z</time></trkpt><trkpt lat="43.14657" lon="12.9494567"><ele>519.1999999999999</ele><time>2026-04-04T13:43:27.729Z</time></trkpt><trkpt lat="43.14649" lon="12.949425"><ele>520.4</ele><time>2026-04-04T13:43:28.728Z</time></trkpt><trkpt lat="43.1463983" lon="12.949395"><ele>521.5999999999999</ele><time>2026-04-04T13:43:29.728Z</time></trkpt><trkpt lat="43.146305" lon="12.949375"><ele>522.8</ele><time>2026-04-04T13:43:30.728Z</time></trkpt><trkpt lat="43.14621" lon="12.9493617"><ele>524.0</ele><time>2026-04-04T13:43:31.728Z</time></trkpt><trkpt lat="43.1461017" lon="12.94935"><ele>524.0</ele><time>2026-04-04T13:43:32.731Z</time></trkpt><trkpt lat="43.1459933" lon="12.94934"><ele>524.0</ele><time>2026-04-04T13:43:33.728Z</time></trkpt><trkpt lat="43.1458617" lon="12.9493483"><ele>524.0</ele><time>2026-04-04T13:43:34.728Z</time></trkpt><trkpt lat="43.1457433" lon="12.949385"><ele>524.0</ele><time>2026-04-04T13:43:35.73Z</time></trkpt><trkpt lat="43.1456283" lon="12.9494383"><ele>523.6</ele><time>2026-04-04T13:43:36.727Z</time></trkpt><trkpt lat="43.1455367" lon="12.9494933"><ele>523.2</ele><time>2026-04-04T13:43:37.729Z</time></trkpt><trkpt lat="43.14544" lon="12.9495367"><ele>522.8000000000001</ele><time>2026-04-04T13:43:38.73Z</time></trkpt><trkpt lat="43.1453483" lon="12.9495717"><ele>522.4</ele><time>2026-04-04T13:43:39.726Z</time></trkpt><trkpt lat="43.145255" lon="12.94961"><ele>522.0</ele><time>2026-04-04T13:43:40.729Z</time></trkpt><trkpt lat="43.14516" lon="12.9496467"><ele>522.0</ele><time>2026-04-04T13:43:41.729Z</time></trkpt><trkpt lat="43.1450567" lon="12.9496533"><ele>522.0</ele><time>2026-04-04T13:43:42.725Z</time></trkpt><trkpt lat="43.14494" lon="12.94964"><ele>522.0</ele><time>2026-04-04T13:43:43.729Z</time></trkpt><trkpt lat="43.1448117" lon="12.949615"><ele>522.0</ele><time>2026-04-04T13:43:44.728Z</time></trkpt><trkpt lat="43.1446767" lon="12.9495783"><ele>523.0</ele><time>2026-04-04T13:43:45.73Z</time></trkpt><trkpt lat="43.14454" lon="12.9495433"><ele>524.0</ele><time>2026-04-04T13:43:46.728Z</time></trkpt><trkpt lat="43.1444067" lon="12.9495083"><ele>525.0</ele><time>2026-04-04T13:43:47.733Z</time></trkpt><trkpt lat="43.1442667" lon="12.9494733"><ele>526.0</ele><time>2026-04-04T13:43:48.729Z</time></trkpt><trkpt lat="43.1441317" lon="12.949435"><ele>525.5</ele><time>2026-04-04T13:43:49.727Z</time></trkpt><trkpt lat="43.1439833" lon="12.9493883"><ele>525.0</ele><time>2026-04-04T13:43:50.727Z</time></trkpt><trkpt lat="43.143835" lon="12.9493417"><ele>524.5</ele><time>2026-04-04T13:43:51.726Z</time></trkpt><trkpt lat="43.143695" lon="12.9493083"><ele>524.0</ele><time>2026-04-04T13:43:52.727Z</time></trkpt><trkpt lat="43.1435583" lon="12.9492883"><ele>524.0</ele><time>2026-04-04T13:43:53.726Z</time></trkpt><trkpt lat="43.143425" lon="12.9492883"><ele>524.0</ele><time>2026-04-04T13:43:54.727Z</time></trkpt><trkpt lat="43.14329" lon="12.94931"><ele>524.0</ele><time>2026-04-04T13:43:55.728Z</time></trkpt><trkpt lat="43.1431483" lon="12.9493617"><ele>524.0</ele><time>2026-04-04T13:43:56.728Z</time></trkpt><trkpt lat="43.142995" lon="12.949435"><ele>522.3333333333333</ele><time>2026-04-04T13:43:57.73Z</time></trkpt><trkpt lat="43.1428317" lon="12.949515"><ele>520.6666666666666</ele><time>2026-04-04T13:43:58.73Z</time></trkpt><trkpt lat="43.1426683" lon="12.949605"><ele>519.0</ele><time>2026-04-04T13:43:59.729Z</time></trkpt><trkpt lat="43.1425067" lon="12.9496817"><ele>519.6666666666666</ele><time>2026-04-04T13:44:00.73Z</time></trkpt><trkpt lat="43.1423467" lon="12.9497567"><ele>520.3333333333333</ele><time>2026-04-04T13:44:01.727Z</time></trkpt><trkpt lat="43.1421883" lon="12.949825"><ele>521.0</ele><time>2026-04-04T13:44:02.726Z</time></trkpt><trkpt lat="43.1420317" lon="12.9498883"><ele>521.0</ele><time>2026-04-04T13:44:03.729Z</time></trkpt><trkpt lat="43.1418833" lon="12.949935"><ele>521.0</ele><time>2026-04-04T13:44:04.729Z</time></trkpt><trkpt lat="43.141735" lon="12.9499433"><ele>521.0</ele><time>2026-04-04T13:44:05.726Z</time></trkpt><trkpt lat="43.1415867" lon="12.9499017"><ele>522.0</ele><time>2026-04-04T13:44:06.728Z</time></trkpt><trkpt lat="43.1414567" lon="12.9498233"><ele>523.0</ele><time>2026-04-04T13:44:07.73Z</time></trkpt><trkpt lat="43.141325" lon="12.9497283"><ele>524.0</ele><time>2026-04-04T13:44:08.729Z</time></trkpt><trkpt lat="43.1411933" lon="12.9496583"><ele>525.0</ele><time>2026-04-04T13:44:09.73Z</time></trkpt><trkpt lat="43.141065" lon="12.9496167"><ele>525.0</ele><time>2026-04-04T13:44:10.729Z</time></trkpt><trkpt lat="43.14094" lon="12.9496133"><ele>525.0</ele><time>2026-04-04T13:44:11.73Z</time></trkpt><trkpt lat="43.1408233" lon="12.949655"><ele>525.0</ele><time>2026-04-04T13:44:12.73Z</time></trkpt><trkpt lat="43.140705" lon="12.9497267"><ele>525.0</ele><time>2026-04-04T13:44:13.731Z</time></trkpt><trkpt lat="43.1405783" lon="12.94982"><ele>524.6666666666666</ele><time>2026-04-04T13:44:14.732Z</time></trkpt><trkpt lat="43.1404417" lon="12.9499267"><ele>524.3333333333333</ele><time>2026-04-04T13:44:15.729Z</time></trkpt><trkpt lat="43.1402917" lon="12.9500417"><ele>524.0</ele><time>2026-04-04T13:44:16.727Z</time></trkpt><trkpt lat="43.1401417" lon="12.9501467"><ele>524.0</ele><time>2026-04-04T13:44:17.729Z</time></trkpt><trkpt lat="43.1400017" lon="12.9502383"><ele>524.0</ele><time>2026-04-04T13:44:18.728Z</time></trkpt><trkpt lat="43.1398683" lon="12.9503233"><ele>524.0</ele><time>2026-04-04T13:44:19.732Z</time></trkpt><trkpt lat="43.139735" lon="12.9504133"><ele>522.5</ele><time>2026-04-04T13:44:20.734Z</time></trkpt><trkpt lat="43.139605" lon="12.9504983"><ele>521.0</ele><time>2026-04-04T13:44:21.728Z</time></trkpt><trkpt lat="43.1394733" lon="12.950585"><ele>519.5</ele><time>2026-04-04T13:44:22.729Z</time></trkpt><trkpt lat="43.139335" lon="12.95066"><ele>518.0</ele><time>2026-04-04T13:44:23.729Z</time></trkpt><trkpt lat="43.1391917" lon="12.9507233"><ele>519.3333333333333</ele><time>2026-04-04T13:44:24.73Z</time></trkpt><trkpt lat="43.1390383" lon="12.950765"><ele>520.6666666666666</ele><time>2026-04-04T13:44:25.731Z</time></trkpt><trkpt lat="43.1388783" lon="12.950795"><ele>522.0</ele><time>2026-04-04T13:44:26.732Z</time></trkpt><trkpt lat="43.1387217" lon="12.9508267"><ele>522.0</ele><time>2026-04-04T13:44:27.729Z</time></trkpt><trkpt lat="43.13857" lon="12.95086"><ele>522.0</ele><time>2026-04-04T13:44:28.728Z</time></trkpt><trkpt lat="43.1384217" lon="12.95089"><ele>522.0</ele><time>2026-04-04T13:44:29.728Z</time></trkpt><trkpt lat="43.1382783" lon="12.9509117"><ele>522.0</ele><time>2026-04-04T13:44:30.727Z</time></trkpt><trkpt lat="43.13814" lon="12.950915"><ele>523.75</ele><time>2026-04-04T13:44:31.729Z</time></trkpt><trkpt lat="43.13801" lon="12.950915"><ele>525.5</ele><time>2026-04-04T13:44:32.73Z</time></trkpt><trkpt lat="43.13788" lon="12.95093"><ele>527.25</ele><time>2026-04-04T13:44:33.725Z</time></trkpt><trkpt lat="43.137745" lon="12.9509683"><ele>529.0</ele><time>2026-04-04T13:44:34.729Z</time></trkpt><trkpt lat="43.1376133" lon="12.9510367"><ele>529.0</ele><time>2026-04-04T13:44:35.729Z</time></trkpt><trkpt lat="43.1374817" lon="12.9511217"><ele>529.0</ele><time>2026-04-04T13:44:36.728Z</time></trkpt><trkpt lat="43.1373617" lon="12.9512217"><ele>529.0</ele><time>2026-04-04T13:44:37.731Z</time></trkpt><trkpt lat="43.13724" lon="12.9513217"><ele>529.0</ele><time>2026-04-04T13:44:38.729Z</time></trkpt><trkpt lat="43.1370983" lon="12.9514033"><ele>529.75</ele><time>2026-04-04T13:44:39.73Z</time></trkpt><trkpt lat="43.1369567" lon="12.9514733"><ele>530.5</ele><time>2026-04-04T13:44:40.727Z</time></trkpt><trkpt lat="43.1368117" lon="12.9515317"><ele>531.25</ele><time>2026-04-04T13:44:41.73Z</time></trkpt><trkpt lat="43.1366833" lon="12.9515917"><ele>532.0</ele><time>2026-04-04T13:44:42.728Z</time></trkpt><trkpt lat="43.1365483" lon="12.9516383"><ele>535.25</ele><time>2026-04-04T13:44:43.728Z</time></trkpt><trkpt lat="43.13642" lon="12.9516583"><ele>538.5</ele><time>2026-04-04T13:44:44.731Z</time></trkpt><trkpt lat="43.1362933" lon="12.951645"><ele>541.75</ele><time>2026-04-04T13:44:45.727Z</time></trkpt><trkpt lat="43.1361817" lon="12.9515917"><ele>545.0</ele><time>2026-04-04T13:44:46.731Z</time></trkpt><trkpt lat="43.13609" lon="12.9514983"><ele>545.0</ele><time>2026-04-04T13:44:47.727Z</time></trkpt><trkpt lat="43.1360233" lon="12.9513867"><ele>545.0</ele><time>2026-04-04T13:44:48.729Z</time></trkpt><trkpt lat="43.1359467" lon="12.95128"><ele>545.0</ele><time>2026-04-04T13:44:49.729Z</time></trkpt><trkpt lat="43.135845" lon="12.95118"><ele>545.0</ele><time>2026-04-04T13:44:50.727Z</time></trkpt><trkpt lat="43.1357233" lon="12.9511067"><ele>546.75</ele><time>2026-04-04T13:44:51.729Z</time></trkpt><trkpt lat="43.13559" lon="12.9510483"><ele>548.5</ele><time>2026-04-04T13:44:52.738Z</time></trkpt><trkpt lat="43.1354517" lon="12.9509883"><ele>550.25</ele><time>2026-04-04T13:44:53.729Z</time></trkpt><trkpt lat="43.1353" lon="12.950945"><ele>552.0</ele><time>2026-04-04T13:44:54.727Z</time></trkpt><trkpt lat="43.135115" lon="12.95093"><ele>552.0</ele><time>2026-04-04T13:44:55.729Z</time></trkpt><trkpt lat="43.1349517" lon="12.95093"><ele>552.0</ele><time>2026-04-04T13:44:56.729Z</time></trkpt><trkpt lat="43.1348017" lon="12.9509283"><ele>552.0</ele><time>2026-04-04T13:44:57.728Z</time></trkpt><trkpt lat="43.1346517" lon="12.9509233"><ele>552.0</ele><time>2026-04-04T13:44:58.727Z</time></trkpt><trkpt lat="43.13451" lon="12.9509117"><ele>552.0</ele><time>2026-04-04T13:44:59.732Z</time></trkpt><trkpt lat="43.1343767" lon="12.9509017"><ele>552.0</ele><time>2026-04-04T13:45:00.728Z</time></trkpt><trkpt lat="43.13425" lon="12.9508983"><ele>552.0</ele><time>2026-04-04T13:45:01.729Z</time></trkpt><trkpt lat="43.13413" lon="12.9508983"><ele>551.4</ele><time>2026-04-04T13:45:02.729Z</time></trkpt><trkpt lat="43.1340117" lon="12.9508867"><ele>550.8000000000001</ele><time>2026-04-04T13:45:03.729Z</time></trkpt><trkpt lat="43.1339067" lon="12.9508517"><ele>550.2</ele><time>2026-04-04T13:45:04.727Z</time></trkpt><trkpt lat="43.1338167" lon="12.9507817"><ele>549.6</ele><time>2026-04-04T13:45:05.731Z</time></trkpt><trkpt lat="43.133725" lon="12.95069"><ele>549.0</ele><time>2026-04-04T13:45:06.731Z</time></trkpt><trkpt lat="43.1336167" lon="12.9505933"><ele>546.6666666666666</ele><time>2026-04-04T13:45:07.726Z</time></trkpt><trkpt lat="43.1334867" lon="12.9505067"><ele>544.3333333333333</ele><time>2026-04-04T13:45:08.727Z</time></trkpt><trkpt lat="43.1333367" lon="12.95044"><ele>542.0</ele><time>2026-04-04T13:45:09.727Z</time></trkpt><trkpt lat="43.133175" lon="12.950375"><ele>549.3333333333333</ele><time>2026-04-04T13:45:10.726Z</time></trkpt><trkpt lat="43.133005" lon="12.950305"><ele>556.6666666666666</ele><time>2026-04-04T13:45:11.726Z</time></trkpt><trkpt lat="43.1328283" lon="12.9502283"><ele>564.0</ele><time>2026-04-04T13:45:12.728Z</time></trkpt><trkpt lat="43.1326633" lon="12.9501567"><ele>564.0</ele><time>2026-04-04T13:45:13.728Z</time></trkpt><trkpt lat="43.1325033" lon="12.9500667"><ele>564.0</ele><time>2026-04-04T13:45:14.73Z</time></trkpt><trkpt lat="43.1323567" lon="12.94997"><ele>564.0</ele><time>2026-04-04T13:45:15.731Z</time></trkpt><trkpt lat="43.13223" lon="12.94992"><ele>568.25</ele><time>2026-04-04T13:45:16.73Z</time></trkpt><trkpt lat="43.13211" lon="12.9499283"><ele>572.5</ele><time>2026-04-04T13:45:17.731Z</time></trkpt><trkpt lat="43.1319833" lon="12.9500083"><ele>576.75</ele><time>2026-04-04T13:45:18.727Z</time></trkpt><trkpt lat="43.1318533" lon="12.9500883"><ele>581.0</ele><time>2026-04-04T13:45:19.733Z</time></trkpt><trkpt lat="43.1317267" lon="12.9501383"><ele>581.0</ele><time>2026-04-04T13:45:20.73Z</time></trkpt><trkpt lat="43.131605" lon="12.9501533"><ele>581.0</ele><time>2026-04-04T13:45:21.73Z</time></trkpt><trkpt lat="43.1314833" lon="12.95011"><ele>581.0</ele><time>2026-04-04T13:45:22.727Z</time></trkpt><trkpt lat="43.1313633" lon="12.9500233"><ele>581.0</ele><time>2026-04-04T13:45:23.726Z</time></trkpt><trkpt lat="43.1312383" lon="12.9498967"><ele>575.6666666666666</ele><time>2026-04-04T13:45:24.727Z</time></trkpt><trkpt lat="43.1311133" lon="12.94975"><ele>570.3333333333334</ele><time>2026-04-04T13:45:25.727Z</time></trkpt><trkpt lat="43.1309733" lon="12.9496067"><ele>565.0</ele><time>2026-04-04T13:45:26.729Z</time></trkpt><trkpt lat="43.130825" lon="12.9494733"><ele>566.6666666666667</ele><time>2026-04-04T13:45:27.725Z</time></trkpt><trkpt lat="43.1306767" lon="12.94934"><ele>568.3333333333334</ele><time>2026-04-04T13:45:28.728Z</time></trkpt><trkpt lat="43.1305333" lon="12.9492033"><ele>570.0</ele><time>2026-04-04T13:45:29.726Z</time></trkpt><trkpt lat="43.1304133" lon="12.9490633"><ele>570.0</ele><time>2026-04-04T13:45:30.728Z</time></trkpt><trkpt lat="43.13032" lon="12.9489233"><ele>570.0</ele><time>2026-04-04T13:45:31.727Z</time></trkpt><trkpt lat="43.1302267" lon="12.94878"><ele>570.0</ele><time>2026-04-04T13:45:32.731Z</time></trkpt><trkpt lat="43.130155" lon="12.9486533"><ele>570.0</ele><time>2026-04-04T13:45:33.726Z</time></trkpt><trkpt lat="43.13009" lon="12.948535"><ele>570.0</ele><time>2026-04-04T13:45:34.729Z</time></trkpt><trkpt lat="43.1300433" lon="12.948435"><ele>570.0</ele><time>2026-04-04T13:45:35.727Z</time></trkpt><trkpt lat="43.129975" lon="12.9483333"><ele>570.0</ele><time>2026-04-04T13:45:36.729Z</time></trkpt><trkpt lat="43.1298967" lon="12.9482333"><ele>570.0</ele><time>2026-04-04T13:45:37.733Z</time></trkpt><trkpt lat="43.1298217" lon="12.94813"><ele>570.0</ele><time>2026-04-04T13:45:38.726Z</time></trkpt><trkpt lat="43.1297467" lon="12.948025"><ele>569.4</ele><time>2026-04-04T13:45:39.728Z</time></trkpt><trkpt lat="43.1296633" lon="12.9479133"><ele>568.8</ele><time>2026-04-04T13:45:40.729Z</time></trkpt><trkpt lat="43.129595" lon="12.9478117"><ele>568.2</ele><time>2026-04-04T13:45:41.729Z</time></trkpt><trkpt lat="43.12953" lon="12.9476933"><ele>567.6</ele><time>2026-04-04T13:45:42.731Z</time></trkpt><trkpt lat="43.1294717" lon="12.9475683"><ele>567.0</ele><time>2026-04-04T13:45:43.728Z</time></trkpt><trkpt lat="43.129435" lon="12.94744"><ele>567.0</ele><time>2026-04-04T13:45:44.728Z</time></trkpt><trkpt lat="43.1294033" lon="12.9473133"><ele>567.0</ele><time>2026-04-04T13:45:45.728Z</time></trkpt><trkpt lat="43.1293717" lon="12.9471967"><ele>567.0</ele><time>2026-04-04T13:45:46.726Z</time></trkpt><trkpt lat="43.1293317" lon="12.94708"><ele>567.0</ele><time>2026-04-04T13:45:47.729Z</time></trkpt><trkpt lat="43.1292833" lon="12.9469733"><ele>567.0</ele><time>2026-04-04T13:45:48.728Z</time></trkpt><trkpt lat="43.1292283" lon="12.9468833"><ele>567.0</ele><time>2026-04-04T13:45:49.727Z</time></trkpt><trkpt lat="43.1291567" lon="12.9467917"><ele>567.0</ele><time>2026-04-04T13:45:50.733Z</time></trkpt><trkpt lat="43.1290783" lon="12.9467283"><ele>567.0</ele><time>2026-04-04T13:45:51.727Z</time></trkpt><trkpt lat="43.1289783" lon="12.9466833"><ele>567.0</ele><time>2026-04-04T13:45:52.729Z</time></trkpt><trkpt lat="43.1289" lon="12.94661"><ele>567.0</ele><time>2026-04-04T13:45:53.725Z</time></trkpt><trkpt lat="43.128835" lon="12.9465217"><ele>567.6</ele><time>2026-04-04T13:45:54.73Z</time></trkpt><trkpt lat="43.1287717" lon="12.9464267"><ele>568.2</ele><time>2026-04-04T13:45:55.728Z</time></trkpt><trkpt lat="43.1287067" lon="12.9463217"><ele>568.8</ele><time>2026-04-04T13:45:56.729Z</time></trkpt><trkpt lat="43.1286317" lon="12.9462333"><ele>569.4</ele><time>2026-04-04T13:45:57.729Z</time></trkpt><trkpt lat="43.128545" lon="12.94616"><ele>570.0</ele><time>2026-04-04T13:45:58.73Z</time></trkpt><trkpt lat="43.12845" lon="12.9461083"><ele>570.0</ele><time>2026-04-04T13:45:59.729Z</time></trkpt><trkpt lat="43.128345" lon="12.9460783"><ele>570.0</ele><time>2026-04-04T13:46:00.725Z</time></trkpt><trkpt lat="43.1282367" lon="12.946055"><ele>570.0</ele><time>2026-04-04T13:46:01.727Z</time></trkpt><trkpt lat="43.1281317" lon="12.946045"><ele>570.0</ele><time>2026-04-04T13:46:02.73Z</time></trkpt><trkpt lat="43.128035" lon="12.9460383"><ele>570.0</ele><time>2026-04-04T13:46:03.729Z</time></trkpt><trkpt lat="43.1279483" lon="12.9460267"><ele>569.1666666666666</ele><time>2026-04-04T13:46:04.728Z</time></trkpt><trkpt lat="43.1278683" lon="12.9459983"><ele>568.3333333333334</ele><time>2026-04-04T13:46:05.731Z</time></trkpt><trkpt lat="43.12779" lon="12.945945"><ele>567.5</ele><time>2026-04-04T13:46:06.729Z</time></trkpt><trkpt lat="43.1277267" lon="12.94587"><ele>566.6666666666667</ele><time>2026-04-04T13:46:07.729Z</time></trkpt><trkpt lat="43.12767" lon="12.9457783"><ele>565.8333333333334</ele><time>2026-04-04T13:46:08.728Z</time></trkpt><trkpt lat="43.127615" lon="12.9456917"><ele>565.0</ele><time>2026-04-04T13:46:09.728Z</time></trkpt><trkpt lat="43.12754" lon="12.9456133"><ele>565.0</ele><time>2026-04-04T13:46:10.727Z</time></trkpt><trkpt lat="43.1274483" lon="12.9455517"><ele>565.0</ele><time>2026-04-04T13:46:11.732Z</time></trkpt><trkpt lat="43.127345" lon="12.945505"><ele>565.0</ele><time>2026-04-04T13:46:12.727Z</time></trkpt><trkpt lat="43.1272383" lon="12.94548"><ele>565.0</ele><time>2026-04-04T13:46:13.729Z</time></trkpt><trkpt lat="43.1271283" lon="12.94547"><ele>565.0</ele><time>2026-04-04T13:46:14.729Z</time></trkpt><trkpt lat="43.127025" lon="12.9454667"><ele>566.6</ele><time>2026-04-04T13:46:15.729Z</time></trkpt><trkpt lat="43.1269233" lon="12.945465"><ele>568.2</ele><time>2026-04-04T13:46:16.73Z</time></trkpt><trkpt lat="43.1268183" lon="12.9454733"><ele>569.8</ele><time>2026-04-04T13:46:17.729Z</time></trkpt><trkpt lat="43.1267133" lon="12.9454933"><ele>571.4</ele><time>2026-04-04T13:46:18.729Z</time></trkpt><trkpt lat="43.1265983" lon="12.9455167"><ele>573.0</ele><time>2026-04-04T13:46:19.726Z</time></trkpt><trkpt lat="43.1264917" lon="12.9455367"><ele>573.8</ele><time>2026-04-04T13:46:20.728Z</time></trkpt><trkpt lat="43.1263933" lon="12.9455467"><ele>574.5999999999999</ele><time>2026-04-04T13:46:21.728Z</time></trkpt><trkpt lat="43.126295" lon="12.9455417"><ele>575.4000000000001</ele><time>2026-04-04T13:46:22.726Z</time></trkpt><trkpt lat="43.1261967" lon="12.945535"><ele>576.2</ele><time>2026-04-04T13:46:23.728Z</time></trkpt><trkpt lat="43.1261033" lon="12.9455083"><ele>577.0</ele><time>2026-04-04T13:46:24.728Z</time></trkpt><trkpt lat="43.1259983" lon="12.9454733"><ele>577.0</ele><time>2026-04-04T13:46:25.728Z</time></trkpt><trkpt lat="43.125875" lon="12.9454467"><ele>577.0</ele><time>2026-04-04T13:46:26.733Z</time></trkpt><trkpt lat="43.1257383" lon="12.9454567"><ele>577.0</ele><time>2026-04-04T13:46:27.727Z</time></trkpt><trkpt lat="43.1255883" lon="12.9455117"><ele>577.0</ele><time>2026-04-04T13:46:28.729Z</time></trkpt><trkpt lat="43.1254083" lon="12.945585"><ele>578.0</ele><time>2026-04-04T13:46:29.728Z</time></trkpt><trkpt lat="43.1252317" lon="12.9456717"><ele>579.0</ele><time>2026-04-04T13:46:30.726Z</time></trkpt><trkpt lat="43.1250517" lon="12.94574"><ele>580.0</ele><time>2026-04-04T13:46:31.727Z</time></trkpt><trkpt lat="43.1248783" lon="12.94578"><ele>583.3333333333334</ele><time>2026-04-04T13:46:32.727Z</time></trkpt><trkpt lat="43.1247183" lon="12.94579"><ele>586.6666666666666</ele><time>2026-04-04T13:46:33.727Z</time></trkpt><trkpt lat="43.1245617" lon="12.9457433"><ele>590.0</ele><time>2026-04-04T13:46:34.73Z</time></trkpt><trkpt lat="43.12443" lon="12.9456667"><ele>590.0</ele><time>2026-04-04T13:46:35.729Z</time></trkpt><trkpt lat="43.1242983" lon="12.9455933"><ele>590.0</ele><time>2026-04-04T13:46:36.728Z</time></trkpt><trkpt lat="43.1241517" lon="12.94554"><ele>590.0</ele><time>2026-04-04T13:46:37.729Z</time></trkpt><trkpt lat="43.1239917" lon="12.9454633"><ele>594.3333333333333</ele><time>2026-04-04T13:46:38.725Z</time></trkpt><trkpt lat="43.12384" lon="12.945355"><ele>598.6666666666666</ele><time>2026-04-04T13:46:39.728Z</time></trkpt><trkpt lat="43.12368" lon="12.9452567"><ele>603.0</ele><time>2026-04-04T13:46:40.73Z</time></trkpt><trkpt lat="43.1235217" lon="12.9451933"><ele>603.0</ele><time>2026-04-04T13:46:41.727Z</time></trkpt><trkpt lat="43.1233717" lon="12.945155"><ele>603.0</ele><time>2026-04-04T13:46:42.73Z</time></trkpt><trkpt lat="43.123235" lon="12.945125"><ele>603.0</ele><time>2026-04-04T13:46:43.731Z</time></trkpt><trkpt lat="43.123115" lon="12.945115"><ele>603.0</ele><time>2026-04-04T13:46:44.732Z</time></trkpt><trkpt lat="43.123" lon="12.9451167"><ele>602.25</ele><time>2026-04-04T13:46:45.727Z</time></trkpt><trkpt lat="43.1228867" lon="12.9451367"><ele>601.5</ele><time>2026-04-04T13:46:46.727Z</time></trkpt><trkpt lat="43.1227717" lon="12.945185"><ele>600.75</ele><time>2026-04-04T13:46:47.727Z</time></trkpt><trkpt lat="43.1226583" lon="12.945255"><ele>600.0</ele><time>2026-04-04T13:46:48.728Z</time></trkpt><trkpt lat="43.1225483" lon="12.9453483"><ele>600.0</ele><time>2026-04-04T13:46:49.729Z</time></trkpt><trkpt lat="43.1224417" lon="12.9454467"><ele>600.0</ele><time>2026-04-04T13:46:50.742Z</time></trkpt><trkpt lat="43.122335" lon="12.94555"><ele>600.0</ele><time>2026-04-04T13:46:51.728Z</time></trkpt><trkpt lat="43.1222267" lon="12.9456533"><ele>600.0</ele><time>2026-04-04T13:46:52.73Z</time></trkpt><trkpt lat="43.1220983" lon="12.9457517"><ele>602.3333333333334</ele><time>2026-04-04T13:46:53.727Z</time></trkpt><trkpt lat="43.1219633" lon="12.9458517"><ele>604.6666666666667</ele><time>2026-04-04T13:46:54.728Z</time></trkpt><trkpt lat="43.1218317" lon="12.945955"><ele>607.0</ele><time>2026-04-04T13:46:55.726Z</time></trkpt><trkpt lat="43.121705" lon="12.946065"><ele>607.5</ele><time>2026-04-04T13:46:56.728Z</time></trkpt><trkpt lat="43.121595" lon="12.9461817"><ele>608.0</ele><time>2026-04-04T13:46:57.729Z</time></trkpt><trkpt lat="43.1215067" lon="12.946305"><ele>608.5</ele><time>2026-04-04T13:46:58.726Z</time></trkpt><trkpt lat="43.1214383" lon="12.9464567"><ele>609.0</ele><time>2026-04-04T13:46:59.728Z</time></trkpt><trkpt lat="43.1214033" lon="12.9466517"><ele>610.75</ele><time>2026-04-04T13:47:00.727Z</time></trkpt><trkpt lat="43.121375" lon="12.9468583"><ele>612.5</ele><time>2026-04-04T13:47:01.728Z</time></trkpt><trkpt lat="43.121335" lon="12.947055"><ele>614.25</ele><time>2026-04-04T13:47:02.728Z</time></trkpt><trkpt lat="43.12129" lon="12.947235"><ele>616.0</ele><time>2026-04-04T13:47:03.729Z</time></trkpt><trkpt lat="43.12121" lon="12.9473767"><ele>616.0</ele><time>2026-04-04T13:47:04.728Z</time></trkpt><trkpt lat="43.1210983" lon="12.947485"><ele>616.0</ele><time>2026-04-04T13:47:05.727Z</time></trkpt><trkpt lat="43.1209583" lon="12.94759"><ele>616.0</ele><time>2026-04-04T13:47:06.731Z</time></trkpt><trkpt lat="43.12081" lon="12.9477233"><ele>617.0</ele><time>2026-04-04T13:47:07.728Z</time></trkpt><trkpt lat="43.12065" lon="12.94788"><ele>618.0</ele><time>2026-04-04T13:47:08.728Z</time></trkpt><trkpt lat="43.1204917" lon="12.9480383"><ele>619.0</ele><time>2026-04-04T13:47:09.728Z</time></trkpt><trkpt lat="43.1203483" lon="12.9481783"><ele>619.0</ele><time>2026-04-04T13:47:10.725Z</time></trkpt><trkpt lat="43.1202317" lon="12.9483217"><ele>619.0</ele><time>2026-04-04T13:47:11.731Z</time></trkpt><trkpt lat="43.1201417" lon="12.948475"><ele>619.0</ele><time>2026-04-04T13:47:12.729Z</time></trkpt><trkpt lat="43.12007" lon="12.9486583"><ele>618.6666666666667</ele><time>2026-04-04T13:47:13.727Z</time></trkpt><trkpt lat="43.1200183" lon="12.948895"><ele>618.3333333333334</ele><time>2026-04-04T13:47:14.729Z</time></trkpt><trkpt lat="43.1199733" lon="12.9491417"><ele>618.0</ele><time>2026-04-04T13:47:15.727Z</time></trkpt><trkpt lat="43.1199383" lon="12.9493733"><ele>619.6666666666666</ele><time>2026-04-04T13:47:16.724Z</time></trkpt><trkpt lat="43.1198983" lon="12.9495833"><ele>621.3333333333333</ele><time>2026-04-04T13:47:17.728Z</time></trkpt><trkpt lat="43.11984" lon="12.9497733"><ele>623.0</ele><time>2026-04-04T13:47:18.73Z</time></trkpt><trkpt lat="43.119735" lon="12.9499217"><ele>624.6666666666666</ele><time>2026-04-04T13:47:19.729Z</time></trkpt><trkpt lat="43.1195783" lon="12.9500467"><ele>626.3333333333334</ele><time>2026-04-04T13:47:20.727Z</time></trkpt><trkpt lat="43.119405" lon="12.9501467"><ele>628.0</ele><time>2026-04-04T13:47:21.727Z</time></trkpt><trkpt lat="43.1192383" lon="12.95024"><ele>628.0</ele><time>2026-04-04T13:47:22.733Z</time></trkpt><trkpt lat="43.1190883" lon="12.9503217"><ele>628.0</ele><time>2026-04-04T13:47:23.729Z</time></trkpt><trkpt lat="43.118955" lon="12.9503933"><ele>628.0</ele><time>2026-04-04T13:47:24.727Z</time></trkpt><trkpt lat="43.1188267" lon="12.9504517"><ele>628.0</ele><time>2026-04-04T13:47:25.727Z</time></trkpt><trkpt lat="43.1187017" lon="12.9504733"><ele>632.3333333333334</ele><time>2026-04-04T13:47:26.729Z</time></trkpt><trkpt lat="43.1185617" lon="12.9504433"><ele>636.6666666666666</ele><time>2026-04-04T13:47:27.73Z</time></trkpt><trkpt lat="43.1184117" lon="12.95037"><ele>641.0</ele><time>2026-04-04T13:47:28.726Z</time></trkpt><trkpt lat="43.11825" lon="12.9502883"><ele>645.0</ele><time>2026-04-04T13:47:29.725Z</time></trkpt><trkpt lat="43.1180817" lon="12.9502567"><ele>649.0</ele><time>2026-04-04T13:47:30.727Z</time></trkpt><trkpt lat="43.1179383" lon="12.9502417"><ele>653.0</ele><time>2026-04-04T13:47:31.729Z</time></trkpt><trkpt lat="43.1178117" lon="12.9502583"><ele>657.0</ele><time>2026-04-04T13:47:32.731Z</time></trkpt><trkpt lat="43.1177183" lon="12.9503067"><ele>657.0</ele><time>2026-04-04T13:47:33.728Z</time></trkpt><trkpt lat="43.1176367" lon="12.9503683"><ele>657.0</ele><time>2026-04-04T13:47:34.728Z</time></trkpt><trkpt lat="43.11763" lon="12.9505167"><ele>657.0</ele><time>2026-04-04T13:47:36.728Z</time></trkpt><trkpt lat="43.11781" lon="12.9506333"><ele>657.0</ele><time>2026-04-04T13:47:38.73Z</time></trkpt><trkpt lat="43.1179317" lon="12.9506867"><ele>657.0</ele><time>2026-04-04T13:47:39.728Z</time></trkpt><trkpt lat="43.1180383" lon="12.95076"><ele>657.0</ele><time>2026-04-04T13:47:40.728Z</time></trkpt><trkpt lat="43.1181367" lon="12.9508817"><ele>657.0</ele><time>2026-04-04T13:47:41.729Z</time></trkpt><trkpt lat="43.1182317" lon="12.951045"><ele>657.0</ele><time>2026-04-04T13:47:42.728Z</time></trkpt><trkpt lat="43.11833" lon="12.9512417"><ele>657.6666666666666</ele><time>2026-04-04T13:47:43.727Z</time></trkpt><trkpt lat="43.11842" lon="12.9514517"><ele>658.3333333333333</ele><time>2026-04-04T13:47:44.727Z</time></trkpt><trkpt lat="43.11852" lon="12.9516533"><ele>659.0</ele><time>2026-04-04T13:47:45.73Z</time></trkpt><trkpt lat="43.1186383" lon="12.9518217"><ele>659.25</ele><time>2026-04-04T13:47:46.73Z</time></trkpt><trkpt lat="43.118765" lon="12.9519467"><ele>659.5</ele><time>2026-04-04T13:47:47.729Z</time></trkpt><trkpt lat="43.1188833" lon="12.952045"><ele>659.75</ele><time>2026-04-04T13:47:48.727Z</time></trkpt><trkpt lat="43.1189917" lon="12.9521433"><ele>660.0</ele><time>2026-04-04T13:47:49.728Z</time></trkpt><trkpt lat="43.119095" lon="12.9522533"><ele>660.0</ele><time>2026-04-04T13:47:50.73Z</time></trkpt><trkpt lat="43.1191967" lon="12.9523567"><ele>660.0</ele><time>2026-04-04T13:47:51.727Z</time></trkpt><trkpt lat="43.1192967" lon="12.9524383"><ele>660.0</ele><time>2026-04-04T13:47:52.73Z</time></trkpt><trkpt lat="43.1194067" lon="12.9524917"><ele>660.0</ele><time>2026-04-04T13:47:53.729Z</time></trkpt><trkpt lat="43.1195167" lon="12.9525217"><ele>660.0</ele><time>2026-04-04T13:47:54.733Z</time></trkpt><trkpt lat="43.1196283" lon="12.9525133"><ele>660.0</ele><time>2026-04-04T13:47:55.73Z</time></trkpt><trkpt lat="43.1197467" lon="12.952445"><ele>660.0</ele><time>2026-04-04T13:47:56.732Z</time></trkpt><trkpt lat="43.1198617" lon="12.9523333"><ele>660.0</ele><time>2026-04-04T13:47:57.725Z</time></trkpt><trkpt lat="43.1199783" lon="12.95219"><ele>661.75</ele><time>2026-04-04T13:47:58.727Z</time></trkpt><trkpt lat="43.1200917" lon="12.9520517"><ele>663.5</ele><time>2026-04-04T13:47:59.725Z</time></trkpt><trkpt lat="43.1201917" lon="12.95193"><ele>665.25</ele><time>2026-04-04T13:48:00.727Z</time></trkpt><trkpt lat="43.12029" lon="12.9518283"><ele>667.0</ele><time>2026-04-04T13:48:01.727Z</time></trkpt><trkpt lat="43.1204033" lon="12.9517617"><ele>667.0</ele><time>2026-04-04T13:48:02.731Z</time></trkpt><trkpt lat="43.12053" lon="12.95174"><ele>667.0</ele><time>2026-04-04T13:48:03.727Z</time></trkpt><trkpt lat="43.1206517" lon="12.9517517"><ele>667.0</ele><time>2026-04-04T13:48:04.73Z</time></trkpt><trkpt lat="43.1207617" lon="12.9517717"><ele>667.0</ele><time>2026-04-04T13:48:05.728Z</time></trkpt><trkpt lat="43.12086" lon="12.9517767"><ele>667.6</ele><time>2026-04-04T13:48:06.733Z</time></trkpt><trkpt lat="43.1209383" lon="12.9517683"><ele>668.2</ele><time>2026-04-04T13:48:07.729Z</time></trkpt><trkpt lat="43.1210167" lon="12.9517433"><ele>668.8</ele><time>2026-04-04T13:48:08.727Z</time></trkpt><trkpt lat="43.121065" lon="12.9516433"><ele>669.4</ele><time>2026-04-04T13:48:09.726Z</time></trkpt><trkpt lat="43.1211267" lon="12.9515183"><ele>670.0</ele><time>2026-04-04T13:48:10.73Z</time></trkpt><trkpt lat="43.1211983" lon="12.9513583"><ele>670.0</ele><time>2026-04-04T13:48:11.73Z</time></trkpt><trkpt lat="43.1212783" lon="12.9512033"><ele>670.0</ele><time>2026-04-04T13:48:12.731Z</time></trkpt><trkpt lat="43.1213967" lon="12.9510633"><ele>670.0</ele><time>2026-04-04T13:48:13.724Z</time></trkpt><trkpt lat="43.1215367" lon="12.95095"><ele>671.0</ele><time>2026-04-04T13:48:14.726Z</time></trkpt><trkpt lat="43.12169" lon="12.9508417"><ele>672.0</ele><time>2026-04-04T13:48:15.727Z</time></trkpt><trkpt lat="43.1218483" lon="12.9507217"><ele>673.0</ele><time>2026-04-04T13:48:16.721Z</time></trkpt><trkpt lat="43.1220233" lon="12.9505983"><ele>673.0</ele><time>2026-04-04T13:48:17.732Z</time></trkpt><trkpt lat="43.1222" lon="12.9504683"><ele>673.0</ele><time>2026-04-04T13:48:18.73Z</time></trkpt><trkpt lat="43.12239" lon="12.95035"><ele>673.0</ele><time>2026-04-04T13:48:19.727Z</time></trkpt><trkpt lat="43.1225833" lon="12.9502467"><ele>674.0</ele><time>2026-04-04T13:48:20.729Z</time></trkpt><trkpt lat="43.12277" lon="12.95015"><ele>675.0</ele><time>2026-04-04T13:48:21.73Z</time></trkpt><trkpt lat="43.12295" lon="12.9500617"><ele>676.0</ele><time>2026-04-04T13:48:22.728Z</time></trkpt><trkpt lat="43.1231283" lon="12.949995"><ele>680.0</ele><time>2026-04-04T13:48:23.73Z</time></trkpt><trkpt lat="43.1233133" lon="12.94996"><ele>684.0</ele><time>2026-04-04T13:48:24.731Z</time></trkpt><trkpt lat="43.1235067" lon="12.9499417"><ele>688.0</ele><time>2026-04-04T13:48:25.729Z</time></trkpt><trkpt lat="43.1236933" lon="12.9499167"><ele>688.0</ele><time>2026-04-04T13:48:26.728Z</time></trkpt><trkpt lat="43.1238783" lon="12.9498933"><ele>688.0</ele><time>2026-04-04T13:48:27.732Z</time></trkpt><trkpt lat="43.1240617" lon="12.94988"><ele>688.0</ele><time>2026-04-04T13:48:28.728Z</time></trkpt><trkpt lat="43.1242483" lon="12.94988"><ele>691.0</ele><time>2026-04-04T13:48:29.728Z</time></trkpt><trkpt lat="43.124445" lon="12.9499017"><ele>694.0</ele><time>2026-04-04T13:48:30.728Z</time></trkpt><trkpt lat="43.1246483" lon="12.9499417"><ele>697.0</ele><time>2026-04-04T13:48:31.727Z</time></trkpt><trkpt lat="43.1248517" lon="12.95"><ele>703.0</ele><time>2026-04-04T13:48:32.729Z</time></trkpt><trkpt lat="43.1250533" lon="12.9500733"><ele>709.0</ele><time>2026-04-04T13:48:33.729Z</time></trkpt><trkpt lat="43.12525" lon="12.9501517"><ele>715.0</ele><time>2026-04-04T13:48:34.73Z</time></trkpt><trkpt lat="43.1254533" lon="12.9502267"><ele>715.0</ele><time>2026-04-04T13:48:35.728Z</time></trkpt><trkpt lat="43.1256583" lon="12.950295"><ele>715.0</ele><time>2026-04-04T13:48:36.73Z</time></trkpt><trkpt lat="43.1258683" lon="12.9503583"><ele>715.0</ele><time>2026-04-04T13:48:37.73Z</time></trkpt><trkpt lat="43.1260767" lon="12.9504067"><ele>716.3333333333334</ele><time>2026-04-04T13:48:38.726Z</time></trkpt><trkpt lat="43.1262817" lon="12.9504433"><ele>717.6666666666666</ele><time>2026-04-04T13:48:39.728Z</time></trkpt><trkpt lat="43.12649" lon="12.9504767"><ele>719.0</ele><time>2026-04-04T13:48:40.727Z</time></trkpt><trkpt lat="43.1266967" lon="12.9505117"><ele>719.0</ele><time>2026-04-04T13:48:41.728Z</time></trkpt><trkpt lat="43.1268967" lon="12.95054"><ele>719.0</ele><time>2026-04-04T13:48:42.73Z</time></trkpt><trkpt lat="43.12709" lon="12.9505667"><ele>719.0</ele><time>2026-04-04T13:48:43.728Z</time></trkpt><trkpt lat="43.12727" lon="12.9505933"><ele>720.0</ele><time>2026-04-04T13:48:44.729Z</time></trkpt><trkpt lat="43.1274433" lon="12.950645"><ele>721.0</ele><time>2026-04-04T13:48:45.727Z</time></trkpt><trkpt lat="43.1276133" lon="12.95074"><ele>722.0</ele><time>2026-04-04T13:48:46.737Z</time></trkpt><trkpt lat="43.1277817" lon="12.9508617"><ele>726.6666666666666</ele><time>2026-04-04T13:48:47.732Z</time></trkpt><trkpt lat="43.1279483" lon="12.9509783"><ele>731.3333333333334</ele><time>2026-04-04T13:48:48.73Z</time></trkpt><trkpt lat="43.1280967" lon="12.9510917"><ele>736.0</ele><time>2026-04-04T13:48:49.73Z</time></trkpt><trkpt lat="43.1282317" lon="12.951195"><ele>736.0</ele><time>2026-04-04T13:48:50.729Z</time></trkpt><trkpt lat="43.128355" lon="12.9512883"><ele>736.0</ele><time>2026-04-04T13:48:51.728Z</time></trkpt><trkpt lat="43.1284467" lon="12.9513717"><ele>736.0</ele><time>2026-04-04T13:48:52.729Z</time></trkpt><trkpt lat="43.1284983" lon="12.9514583"><ele>736.0</ele><time>2026-04-04T13:48:53.73Z</time></trkpt><trkpt lat="43.128515" lon="12.9515417"><ele>736.0</ele><time>2026-04-04T13:48:54.727Z</time></trkpt><trkpt lat="43.1284283" lon="12.9515867"><ele>736.0</ele><time>2026-04-04T13:48:56.728Z</time></trkpt><trkpt lat="43.128265" lon="12.9515267"><ele>736.0</ele><time>2026-04-04T13:48:58.73Z</time></trkpt><trkpt lat="43.1281383" lon="12.951475"><ele>736.0</ele><time>2026-04-04T13:48:59.727Z</time></trkpt><trkpt lat="43.1279633" lon="12.9514383"><ele>738.0</ele><time>2026-04-04T13:49:00.729Z</time></trkpt><trkpt lat="43.127785" lon="12.9514367"><ele>740.0</ele><time>2026-04-04T13:49:01.729Z</time></trkpt><trkpt lat="43.1276" lon="12.9514567"><ele>742.0</ele><time>2026-04-04T13:49:02.732Z</time></trkpt><trkpt lat="43.12742" lon="12.9515017"><ele>741.0</ele><time>2026-04-04T13:49:03.73Z</time></trkpt><trkpt lat="43.1272417" lon="12.9515683"><ele>740.0</ele><time>2026-04-04T13:49:04.728Z</time></trkpt><trkpt lat="43.1270633" lon="12.951665"><ele>739.0</ele><time>2026-04-04T13:49:05.728Z</time></trkpt><trkpt lat="43.1268783" lon="12.9517717"><ele>744.6666666666667</ele><time>2026-04-04T13:49:06.729Z</time></trkpt><trkpt lat="43.1267033" lon="12.9518883"><ele>750.3333333333334</ele><time>2026-04-04T13:49:07.728Z</time></trkpt><trkpt lat="43.1265267" lon="12.9520017"><ele>756.0</ele><time>2026-04-04T13:49:08.735Z</time></trkpt><trkpt lat="43.12635" lon="12.9521167"><ele>756.0</ele><time>2026-04-04T13:49:09.729Z</time></trkpt><trkpt lat="43.126165" lon="12.9522283"><ele>756.0</ele><time>2026-04-04T13:49:10.727Z</time></trkpt><trkpt lat="43.1259867" lon="12.9523417"><ele>756.0</ele><time>2026-04-04T13:49:11.729Z</time></trkpt><trkpt lat="43.1258033" lon="12.9524367"><ele>754.6666666666666</ele><time>2026-04-04T13:49:12.728Z</time></trkpt><trkpt lat="43.1256167" lon="12.9524983"><ele>753.3333333333333</ele><time>2026-04-04T13:49:13.733Z</time></trkpt><trkpt lat="43.1254267" lon="12.95255"><ele>752.0</ele><time>2026-04-04T13:49:14.726Z</time></trkpt><trkpt lat="43.125235" lon="12.9526217"><ele>756.3333333333333</ele><time>2026-04-04T13:49:15.728Z</time></trkpt><trkpt lat="43.12504" lon="12.9527117"><ele>760.6666666666666</ele><time>2026-04-04T13:49:16.731Z</time></trkpt><trkpt lat="43.1248533" lon="12.9528167"><ele>765.0</ele><time>2026-04-04T13:49:17.731Z</time></trkpt><trkpt lat="43.124665" lon="12.9529367"><ele>765.0</ele><time>2026-04-04T13:49:18.728Z</time></trkpt><trkpt lat="43.12448" lon="12.9530667"><ele>765.0</ele><time>2026-04-04T13:49:19.727Z</time></trkpt><trkpt lat="43.1242967" lon="12.9532"><ele>765.0</ele><time>2026-04-04T13:49:20.731Z</time></trkpt><trkpt lat="43.124115" lon="12.9533383"><ele>768.0</ele><time>2026-04-04T13:49:21.733Z</time></trkpt><trkpt lat="43.1239333" lon="12.953475"><ele>771.0</ele><time>2026-04-04T13:49:22.729Z</time></trkpt><trkpt lat="43.1237583" lon="12.9536083"><ele>774.0</ele><time>2026-04-04T13:49:23.73Z</time></trkpt><trkpt lat="43.123585" lon="12.9537467"><ele>774.0</ele><time>2026-04-04T13:49:24.731Z</time></trkpt><trkpt lat="43.1234167" lon="12.9538917"><ele>774.0</ele><time>2026-04-04T13:49:25.729Z</time></trkpt><trkpt lat="43.1232617" lon="12.9540517"><ele>774.0</ele><time>2026-04-04T13:49:26.725Z</time></trkpt><trkpt lat="43.123125" lon="12.9542133"><ele>776.3333333333333</ele><time>2026-04-04T13:49:27.728Z</time></trkpt><trkpt lat="43.1229833" lon="12.9543767"><ele>778.6666666666666</ele><time>2026-04-04T13:49:28.726Z</time></trkpt><trkpt lat="43.1228317" lon="12.9545283"><ele>781.0</ele><time>2026-04-04T13:49:29.727Z</time></trkpt><trkpt lat="43.1226617" lon="12.95465"><ele>781.0</ele><time>2026-04-04T13:49:30.73Z</time></trkpt><trkpt lat="43.1224817" lon="12.9547667"><ele>781.0</ele><time>2026-04-04T13:49:31.732Z</time></trkpt><trkpt lat="43.1223017" lon="12.9548967"><ele>781.0</ele><time>2026-04-04T13:49:32.73Z</time></trkpt><trkpt lat="43.1221333" lon="12.955045"><ele>784.3333333333333</ele><time>2026-04-04T13:49:33.727Z</time></trkpt><trkpt lat="43.1219717" lon="12.955205"><ele>787.6666666666667</ele><time>2026-04-04T13:49:34.731Z</time></trkpt><trkpt lat="43.1218183" lon="12.95537"><ele>791.0</ele><time>2026-04-04T13:49:35.73Z</time></trkpt><trkpt lat="43.1216867" lon="12.9555433"><ele>791.0</ele><time>2026-04-04T13:49:36.727Z</time></trkpt><trkpt lat="43.121575" lon="12.955715"><ele>791.0</ele><time>2026-04-04T13:49:37.727Z</time></trkpt><trkpt lat="43.1214583" lon="12.9558617"><ele>791.0</ele><time>2026-04-04T13:49:38.73Z</time></trkpt><trkpt lat="43.1213217" lon="12.9559583"><ele>794.0</ele><time>2026-04-04T13:49:39.732Z</time></trkpt><trkpt lat="43.1211617" lon="12.9560267"><ele>797.0</ele><time>2026-04-04T13:49:40.727Z</time></trkpt><trkpt lat="43.121005" lon="12.95612"><ele>800.0</ele><time>2026-04-04T13:49:41.728Z</time></trkpt><trkpt lat="43.1208567" lon="12.956225"><ele>800.0</ele><time>2026-04-04T13:49:42.731Z</time></trkpt><trkpt lat="43.1207367" lon="12.9563317"><ele>800.0</ele><time>2026-04-04T13:49:43.729Z</time></trkpt><trkpt lat="43.1206567" lon="12.9564317"><ele>800.0</ele><time>2026-04-04T13:49:44.731Z</time></trkpt><trkpt lat="43.1206167" lon="12.9565217"><ele>800.0</ele><time>2026-04-04T13:49:45.726Z</time></trkpt><trkpt lat="43.1206683" lon="12.95664"><ele>800.0</ele><time>2026-04-04T13:49:47.73Z</time></trkpt><trkpt lat="43.1207483" lon="12.9566067"><ele>800.0</ele><time>2026-04-04T13:49:48.727Z</time></trkpt><trkpt lat="43.1208217" lon="12.9565033"><ele>800.0</ele><time>2026-04-04T13:49:49.725Z</time></trkpt><trkpt lat="43.12093" lon="12.9563833"><ele>800.0</ele><time>2026-04-04T13:49:50.729Z</time></trkpt><trkpt lat="43.12106" lon="12.956285"><ele>800.0</ele><time>2026-04-04T13:49:51.728Z</time></trkpt><trkpt lat="43.1212333" lon="12.956245"><ele>800.0</ele><time>2026-04-04T13:49:52.727Z</time></trkpt><trkpt lat="43.12142" lon="12.956235"><ele>800.0</ele><time>2026-04-04T13:49:53.729Z</time></trkpt><trkpt lat="43.1216167" lon="12.9562017"><ele>800.0</ele><time>2026-04-04T13:49:54.731Z</time></trkpt><trkpt lat="43.121815" lon="12.95612"><ele>802.3333333333334</ele><time>2026-04-04T13:49:55.73Z</time></trkpt><trkpt lat="43.1220067" lon="12.9560167"><ele>804.6666666666667</ele><time>2026-04-04T13:49:56.729Z</time></trkpt><trkpt lat="43.1222133" lon="12.95593"><ele>807.0</ele><time>2026-04-04T13:49:57.73Z</time></trkpt><trkpt lat="43.1224267" lon="12.955855"><ele>807.0</ele><time>2026-04-04T13:49:58.727Z</time></trkpt><trkpt lat="43.1226467" lon="12.955785"><ele>807.0</ele><time>2026-04-04T13:49:59.73Z</time></trkpt><trkpt lat="43.1228667" lon="12.9557"><ele>807.0</ele><time>2026-04-04T13:50:00.737Z</time></trkpt><trkpt lat="43.1230983" lon="12.9556033"><ele>807.0</ele><time>2026-04-04T13:50:01.729Z</time></trkpt><trkpt lat="43.123335" lon="12.9555"><ele>813.6666666666667</ele><time>2026-04-04T13:50:02.725Z</time></trkpt><trkpt lat="43.1235567" lon="12.9553983"><ele>820.3333333333334</ele><time>2026-04-04T13:50:03.73Z</time></trkpt><trkpt lat="43.1237567" lon="12.95529"><ele>827.0</ele><time>2026-04-04T13:50:04.733Z</time></trkpt><trkpt lat="43.12394" lon="12.955185"><ele>824.3333333333334</ele><time>2026-04-04T13:50:05.726Z</time></trkpt><trkpt lat="43.1241167" lon="12.9551033"><ele>821.6666666666667</ele><time>2026-04-04T13:50:06.73Z</time></trkpt><trkpt lat="43.1243017" lon="12.9550383"><ele>819.0</ele><time>2026-04-04T13:50:07.731Z</time></trkpt><trkpt lat="43.124505" lon="12.9550083"><ele>819.0</ele><time>2026-04-04T13:50:08.729Z</time></trkpt><trkpt lat="43.12472" lon="12.9550017"><ele>819.0</ele><time>2026-04-04T13:50:09.729Z</time></trkpt><trkpt lat="43.1249317" lon="12.9549967"><ele>819.0</ele><time>2026-04-04T13:50:10.727Z</time></trkpt><trkpt lat="43.12514" lon="12.955"><ele>822.0</ele><time>2026-04-04T13:50:11.728Z</time></trkpt><trkpt lat="43.12535" lon="12.9550083"><ele>825.0</ele><time>2026-04-04T13:50:12.728Z</time></trkpt><trkpt lat="43.1255717" lon="12.9550333"><ele>828.0</ele><time>2026-04-04T13:50:13.728Z</time></trkpt><trkpt lat="43.1257917" lon="12.95509"><ele>839.0</ele><time>2026-04-04T13:50:14.731Z</time></trkpt><trkpt lat="43.12601" lon="12.9551417"><ele>850.0</ele><time>2026-04-04T13:50:15.727Z</time></trkpt><trkpt lat="43.12623" lon="12.9551717"><ele>861.0</ele><time>2026-04-04T13:50:16.73Z</time></trkpt><trkpt lat="43.126455" lon="12.9551883"><ele>863.3333333333333</ele><time>2026-04-04T13:50:17.73Z</time></trkpt><trkpt lat="43.1266783" lon="12.9551817"><ele>865.6666666666666</ele><time>2026-04-04T13:50:18.731Z</time></trkpt><trkpt lat="43.12689" lon="12.95515"><ele>868.0</ele><time>2026-04-04T13:50:19.729Z</time></trkpt><trkpt lat="43.1270867" lon="12.9551183"><ele>868.0</ele><time>2026-04-04T13:50:20.732Z</time></trkpt><trkpt lat="43.1272733" lon="12.9550983"><ele>868.0</ele><time>2026-04-04T13:50:21.729Z</time></trkpt><trkpt lat="43.1274483" lon="12.9550883"><ele>868.0</ele><time>2026-04-04T13:50:22.73Z</time></trkpt><trkpt lat="43.127615" lon="12.9550917"><ele>869.3333333333333</ele><time>2026-04-04T13:50:23.729Z</time></trkpt><trkpt lat="43.1277833" lon="12.9551233"><ele>870.6666666666667</ele><time>2026-04-04T13:50:24.731Z</time></trkpt><trkpt lat="43.12795" lon="12.9551667"><ele>872.0</ele><time>2026-04-04T13:50:25.729Z</time></trkpt><trkpt lat="43.1281167" lon="12.95523"><ele>870.5</ele><time>2026-04-04T13:50:26.726Z</time></trkpt><trkpt lat="43.12827" lon="12.9552983"><ele>869.0</ele><time>2026-04-04T13:50:27.73Z</time></trkpt><trkpt lat="43.1283933" lon="12.95536"><ele>867.5</ele><time>2026-04-04T13:50:28.727Z</time></trkpt><trkpt lat="43.128495" lon="12.9554283"><ele>866.0</ele><time>2026-04-04T13:50:29.735Z</time></trkpt><trkpt lat="43.128555" lon="12.9555083"><ele>866.0</ele><time>2026-04-04T13:50:30.729Z</time></trkpt><trkpt lat="43.1285817" lon="12.9555883"><ele>865.9999999999999</ele><time>2026-04-04T13:50:31.726Z</time></trkpt><trkpt lat="43.1284667" lon="12.9556467"><ele>865.9999999999999</ele><time>2026-04-04T13:50:33.724Z</time></trkpt><trkpt lat="43.128405" lon="12.9555967"><ele>866.0</ele><time>2026-04-04T13:50:34.729Z</time></trkpt><trkpt lat="43.12832" lon="12.9555233"><ele>866.0</ele><time>2026-04-04T13:50:35.729Z</time></trkpt><trkpt lat="43.1281983" lon="12.9554583"><ele>868.0</ele><time>2026-04-04T13:50:36.729Z</time></trkpt><trkpt lat="43.1280467" lon="12.9554283"><ele>870.0</ele><time>2026-04-04T13:50:37.731Z</time></trkpt><trkpt lat="43.1278817" lon="12.9554317"><ele>872.0</ele><time>2026-04-04T13:50:38.729Z</time></trkpt><trkpt lat="43.1277117" lon="12.95547"><ele>872.0</ele><time>2026-04-04T13:50:39.729Z</time></trkpt><trkpt lat="43.1275333" lon="12.95554"><ele>872.0</ele><time>2026-04-04T13:50:40.728Z</time></trkpt><trkpt lat="43.127345" lon="12.9556167"><ele>872.0</ele><time>2026-04-04T13:50:41.73Z</time></trkpt><trkpt lat="43.127155" lon="12.9557117"><ele>870.6666666666667</ele><time>2026-04-04T13:50:42.73Z</time></trkpt><trkpt lat="43.1269517" lon="12.9558167"><ele>869.3333333333333</ele><time>2026-04-04T13:50:43.725Z</time></trkpt><trkpt lat="43.1267483" lon="12.9559333"><ele>868.0</ele><time>2026-04-04T13:50:44.731Z</time></trkpt><trkpt lat="43.1265467" lon="12.956045"><ele>875.3333333333333</ele><time>2026-04-04T13:50:45.729Z</time></trkpt><trkpt lat="43.12634" lon="12.9561433"><ele>882.6666666666667</ele><time>2026-04-04T13:50:46.731Z</time></trkpt><trkpt lat="43.12612" lon="12.9562283"><ele>890.0</ele><time>2026-04-04T13:50:47.729Z</time></trkpt><trkpt lat="43.1259017" lon="12.9563133"><ele>888.3333333333334</ele><time>2026-04-04T13:50:48.73Z</time></trkpt><trkpt lat="43.125685" lon="12.9563933"><ele>886.6666666666667</ele><time>2026-04-04T13:50:49.728Z</time></trkpt><trkpt lat="43.1254717" lon="12.9564683"><ele>885.0</ele><time>2026-04-04T13:50:50.725Z</time></trkpt><trkpt lat="43.125265" lon="12.956545"><ele>885.0</ele><time>2026-04-04T13:50:51.731Z</time></trkpt><trkpt lat="43.125065" lon="12.956635"><ele>885.0</ele><time>2026-04-04T13:50:52.728Z</time></trkpt><trkpt lat="43.12486" lon="12.9567433"><ele>885.0</ele><time>2026-04-04T13:50:53.728Z</time></trkpt><trkpt lat="43.124665" lon="12.9568683"><ele>890.0</ele><time>2026-04-04T13:50:54.731Z</time></trkpt><trkpt lat="43.1244717" lon="12.9570117"><ele>895.0</ele><time>2026-04-04T13:50:55.729Z</time></trkpt><trkpt lat="43.12428" lon="12.95716"><ele>900.0</ele><time>2026-04-04T13:50:56.729Z</time></trkpt><trkpt lat="43.1240833" lon="12.9573"><ele>894.6666666666667</ele><time>2026-04-04T13:50:57.729Z</time></trkpt><trkpt lat="43.123885" lon="12.9574383"><ele>889.3333333333334</ele><time>2026-04-04T13:50:58.728Z</time></trkpt><trkpt lat="43.12369" lon="12.957585"><ele>884.0</ele><time>2026-04-04T13:50:59.728Z</time></trkpt><trkpt lat="43.1234933" lon="12.9577367"><ele>891.0</ele><time>2026-04-04T13:51:00.728Z</time></trkpt><trkpt lat="43.1232967" lon="12.9578917"><ele>898.0</ele><time>2026-04-04T13:51:01.73Z</time></trkpt><trkpt lat="43.1231017" lon="12.958055"><ele>898.0</ele><time>2026-04-04T13:51:02.73Z</time></trkpt><trkpt lat="43.1229117" lon="12.9582183"><ele>898.0</ele><time>2026-04-04T13:51:03.727Z</time></trkpt><trkpt lat="43.122715" lon="12.9583733"><ele>902.3333333333333</ele><time>2026-04-04T13:51:04.728Z</time></trkpt><trkpt lat="43.1225167" lon="12.9585167"><ele>906.6666666666667</ele><time>2026-04-04T13:51:05.728Z</time></trkpt><trkpt lat="43.1223183" lon="12.95865"><ele>911.0</ele><time>2026-04-04T13:51:06.728Z</time></trkpt><trkpt lat="43.1221117" lon="12.9587783"><ele>911.0</ele><time>2026-04-04T13:51:07.729Z</time></trkpt><trkpt lat="43.12191" lon="12.9589133"><ele>911.0</ele><time>2026-04-04T13:51:08.73Z</time></trkpt><trkpt lat="43.121705" lon="12.959055"><ele>921.0</ele><time>2026-04-04T13:51:09.729Z</time></trkpt><trkpt lat="43.121505" lon="12.9592067"><ele>931.0</ele><time>2026-04-04T13:51:10.729Z</time></trkpt><trkpt lat="43.12131" lon="12.959355"><ele>931.0</ele><time>2026-04-04T13:51:11.729Z</time></trkpt><trkpt lat="43.1211083" lon="12.9595017"><ele>931.0</ele><time>2026-04-04T13:51:12.728Z</time></trkpt><trkpt lat="43.1209183" lon="12.9596483"><ele>931.0</ele><time>2026-04-04T13:51:13.728Z</time></trkpt><trkpt lat="43.120725" lon="12.9597867"><ele>934.3333333333333</ele><time>2026-04-04T13:51:14.732Z</time></trkpt><trkpt lat="43.1205433" lon="12.9599283"><ele>937.6666666666667</ele><time>2026-04-04T13:51:15.729Z</time></trkpt><trkpt lat="43.1203783" lon="12.9600583"><ele>941.0</ele><time>2026-04-04T13:51:16.731Z</time></trkpt><trkpt lat="43.12022" lon="12.960175"><ele>941.0</ele><time>2026-04-04T13:51:17.727Z</time></trkpt><trkpt lat="43.1200683" lon="12.9602783"><ele>941.0</ele><time>2026-04-04T13:51:18.733Z</time></trkpt><trkpt lat="43.1199183" lon="12.960385"><ele>941.0</ele><time>2026-04-04T13:51:19.734Z</time></trkpt><trkpt lat="43.11977" lon="12.96051"><ele>938.6666666666667</ele><time>2026-04-04T13:51:20.73Z</time></trkpt><trkpt lat="43.1196317" lon="12.9606633"><ele>936.3333333333333</ele><time>2026-04-04T13:51:21.732Z</time></trkpt><trkpt lat="43.1195033" lon="12.9608317"><ele>934.0</ele><time>2026-04-04T13:51:22.729Z</time></trkpt><trkpt lat="43.11939" lon="12.9610067"><ele>934.0</ele><time>2026-04-04T13:51:23.73Z</time></trkpt><trkpt lat="43.1192883" lon="12.9611783"><ele>934.0</ele><time>2026-04-04T13:51:24.731Z</time></trkpt><trkpt lat="43.1191967" lon="12.9613367"><ele>934.0</ele><time>2026-04-04T13:51:25.73Z</time></trkpt><trkpt lat="43.1191283" lon="12.96149"><ele>934.0</ele><time>2026-04-04T13:51:26.729Z</time></trkpt><trkpt lat="43.1190833" lon="12.9616417"><ele>940.0</ele><time>2026-04-04T13:51:27.728Z</time></trkpt><trkpt lat="43.1190483" lon="12.96179"><ele>946.0</ele><time>2026-04-04T13:51:28.729Z</time></trkpt><trkpt lat="43.1190233" lon="12.9619383"><ele>952.0</ele><time>2026-04-04T13:51:29.73Z</time></trkpt><trkpt lat="43.1190017" lon="12.962095"><ele>958.0</ele><time>2026-04-04T13:51:30.729Z</time></trkpt><trkpt lat="43.11898" lon="12.9622567"><ele>958.0</ele><time>2026-04-04T13:51:31.732Z</time></trkpt><trkpt lat="43.1189567" lon="12.9624183"><ele>958.0</ele><time>2026-04-04T13:51:32.728Z</time></trkpt><trkpt lat="43.118935" lon="12.9625817"><ele>958.0</ele><time>2026-04-04T13:51:33.731Z</time></trkpt><trkpt lat="43.1189117" lon="12.9627417"><ele>958.0</ele><time>2026-04-04T13:51:34.728Z</time></trkpt><trkpt lat="43.1188883" lon="12.9629133"><ele>956.75</ele><time>2026-04-04T13:51:35.727Z</time></trkpt><trkpt lat="43.11887" lon="12.963085"><ele>955.5</ele><time>2026-04-04T13:51:36.73Z</time></trkpt><trkpt lat="43.118855" lon="12.9632533"><ele>954.25</ele><time>2026-04-04T13:51:37.731Z</time></trkpt><trkpt lat="43.1188433" lon="12.9634283"><ele>953.0</ele><time>2026-04-04T13:51:38.73Z</time></trkpt><trkpt lat="43.1188367" lon="12.9635967"><ele>952.25</ele><time>2026-04-04T13:51:39.731Z</time></trkpt><trkpt lat="43.118835" lon="12.963765"><ele>951.5</ele><time>2026-04-04T13:51:40.729Z</time></trkpt><trkpt lat="43.1188317" lon="12.9639383"><ele>950.75</ele><time>2026-04-04T13:51:41.731Z</time></trkpt><trkpt lat="43.1188217" lon="12.9641083"><ele>950.0</ele><time>2026-04-04T13:51:42.728Z</time></trkpt><trkpt lat="43.1188133" lon="12.964275"><ele>948.5</ele><time>2026-04-04T13:51:43.727Z</time></trkpt><trkpt lat="43.118805" lon="12.9644433"><ele>947.0</ele><time>2026-04-04T13:51:44.729Z</time></trkpt><trkpt lat="43.1187917" lon="12.9646133"><ele>945.5</ele><time>2026-04-04T13:51:45.726Z</time></trkpt><trkpt lat="43.11878" lon="12.964775"><ele>944.0</ele><time>2026-04-04T13:51:46.731Z</time></trkpt><trkpt lat="43.1187633" lon="12.9649317"><ele>941.6</ele><time>2026-04-04T13:51:47.726Z</time></trkpt><trkpt lat="43.1187433" lon="12.9650717"><ele>939.2</ele><time>2026-04-04T13:51:48.727Z</time></trkpt><trkpt lat="43.11873" lon="12.9652117"><ele>936.8000000000001</ele><time>2026-04-04T13:51:49.728Z</time></trkpt><trkpt lat="43.1187167" lon="12.9653683"><ele>934.4000000000001</ele><time>2026-04-04T13:51:50.73Z</time></trkpt><trkpt lat="43.1186983" lon="12.9655283"><ele>932.0</ele><time>2026-04-04T13:51:51.728Z</time></trkpt><trkpt lat="43.1186733" lon="12.96569"><ele>932.0</ele><time>2026-04-04T13:51:52.727Z</time></trkpt><trkpt lat="43.1186367" lon="12.9658483"><ele>932.0</ele><time>2026-04-04T13:51:53.73Z</time></trkpt><trkpt lat="43.11859" lon="12.9659967"><ele>932.0</ele><time>2026-04-04T13:51:54.729Z</time></trkpt><trkpt lat="43.1185483" lon="12.966155"><ele>932.0</ele><time>2026-04-04T13:51:55.728Z</time></trkpt><trkpt lat="43.118505" lon="12.9663117"><ele>927.25</ele><time>2026-04-04T13:51:56.735Z</time></trkpt><trkpt lat="43.1184533" lon="12.9664583"><ele>922.5</ele><time>2026-04-04T13:51:57.73Z</time></trkpt><trkpt lat="43.11839" lon="12.96659"><ele>917.75</ele><time>2026-04-04T13:51:58.728Z</time></trkpt><trkpt lat="43.1183183" lon="12.9667067"><ele>913.0</ele><time>2026-04-04T13:51:59.728Z</time></trkpt><trkpt lat="43.1182333" lon="12.96681"><ele>912.25</ele><time>2026-04-04T13:52:00.729Z</time></trkpt><trkpt lat="43.118135" lon="12.9669083"><ele>911.5</ele><time>2026-04-04T13:52:01.729Z</time></trkpt><trkpt lat="43.118035" lon="12.96701"><ele>910.75</ele><time>2026-04-04T13:52:02.728Z</time></trkpt><trkpt lat="43.1179333" lon="12.96711"><ele>910.0</ele><time>2026-04-04T13:52:03.727Z</time></trkpt><trkpt lat="43.1178383" lon="12.9672117"><ele>910.0</ele><time>2026-04-04T13:52:04.727Z</time></trkpt><trkpt lat="43.11775" lon="12.9673167"><ele>910.0</ele><time>2026-04-04T13:52:05.727Z</time></trkpt><trkpt lat="43.1176617" lon="12.967425"><ele>910.0</ele><time>2026-04-04T13:52:06.729Z</time></trkpt><trkpt lat="43.1175717" lon="12.967545"><ele>910.0</ele><time>2026-04-04T13:52:07.728Z</time></trkpt><trkpt lat="43.1174783" lon="12.9676783"><ele>908.0</ele><time>2026-04-04T13:52:08.73Z</time></trkpt><trkpt lat="43.1173817" lon="12.96782"><ele>906.0</ele><time>2026-04-04T13:52:09.731Z</time></trkpt><trkpt lat="43.1172867" lon="12.9679683"><ele>904.0</ele><time>2026-04-04T13:52:10.728Z</time></trkpt><trkpt lat="43.11719" lon="12.9681183"><ele>902.0</ele><time>2026-04-04T13:52:11.729Z</time></trkpt><trkpt lat="43.1170917" lon="12.9682783"><ele>900.6666666666667</ele><time>2026-04-04T13:52:12.728Z</time></trkpt><trkpt lat="43.11699" lon="12.9684367"><ele>899.3333333333333</ele><time>2026-04-04T13:52:13.729Z</time></trkpt><trkpt lat="43.116895" lon="12.968605"><ele>898.0</ele><time>2026-04-04T13:52:14.728Z</time></trkpt><trkpt lat="43.1167983" lon="12.9687717"><ele>898.0</ele><time>2026-04-04T13:52:15.73Z</time></trkpt><trkpt lat="43.1167" lon="12.968935"><ele>898.0</ele><time>2026-04-04T13:52:16.728Z</time></trkpt><trkpt lat="43.1166" lon="12.9691033"><ele>898.0</ele><time>2026-04-04T13:52:17.728Z</time></trkpt><trkpt lat="43.1165" lon="12.96927"><ele>899.0</ele><time>2026-04-04T13:52:18.726Z</time></trkpt><trkpt lat="43.1164" lon="12.9694333"><ele>900.0</ele><time>2026-04-04T13:52:19.728Z</time></trkpt><trkpt lat="43.1163017" lon="12.9695933"><ele>901.0</ele><time>2026-04-04T13:52:20.727Z</time></trkpt><trkpt lat="43.1162083" lon="12.9697483"><ele>901.0</ele><time>2026-04-04T13:52:21.731Z</time></trkpt><trkpt lat="43.1161167" lon="12.9698883"><ele>901.0</ele><time>2026-04-04T13:52:22.73Z</time></trkpt><trkpt lat="43.11603" lon="12.9700217"><ele>901.0</ele><time>2026-04-04T13:52:23.727Z</time></trkpt><trkpt lat="43.11595" lon="12.9701467"><ele>901.0</ele><time>2026-04-04T13:52:24.729Z</time></trkpt><trkpt lat="43.1158767" lon="12.9702683"><ele>901.1999999999999</ele><time>2026-04-04T13:52:25.731Z</time></trkpt><trkpt lat="43.1158067" lon="12.97039"><ele>901.3999999999999</ele><time>2026-04-04T13:52:26.741Z</time></trkpt><trkpt lat="43.1157367" lon="12.9705083"><ele>901.6</ele><time>2026-04-04T13:52:27.73Z</time></trkpt><trkpt lat="43.1156733" lon="12.9706283"><ele>901.8</ele><time>2026-04-04T13:52:28.728Z</time></trkpt><trkpt lat="43.1156233" lon="12.970755"><ele>902.0</ele><time>2026-04-04T13:52:29.725Z</time></trkpt><trkpt lat="43.1156033" lon="12.9708883"><ele>904.0</ele><time>2026-04-04T13:52:30.73Z</time></trkpt><trkpt lat="43.1156067" lon="12.97102"><ele>906.0</ele><time>2026-04-04T13:52:31.729Z</time></trkpt><trkpt lat="43.1156483" lon="12.9711433"><ele>908.0</ele><time>2026-04-04T13:52:32.729Z</time></trkpt><trkpt lat="43.115715" lon="12.9712467"><ele>910.0</ele><time>2026-04-04T13:52:33.727Z</time></trkpt><trkpt lat="43.1157983" lon="12.9713433"><ele>912.0</ele><time>2026-04-04T13:52:34.728Z</time></trkpt><trkpt lat="43.1158817" lon="12.9714383"><ele>912.0</ele><time>2026-04-04T13:52:35.729Z</time></trkpt><trkpt lat="43.1159583" lon="12.971545"><ele>912.0</ele><time>2026-04-04T13:52:36.728Z</time></trkpt><trkpt lat="43.1160317" lon="12.9716567"><ele>912.0</ele><time>2026-04-04T13:52:37.729Z</time></trkpt><trkpt lat="43.1160867" lon="12.971775"><ele>912.0</ele><time>2026-04-04T13:52:38.729Z</time></trkpt><trkpt lat="43.1161267" lon="12.9719067"><ele>912.0</ele><time>2026-04-04T13:52:39.73Z</time></trkpt><trkpt lat="43.1161467" lon="12.9720467"><ele>914.2</ele><time>2026-04-04T13:52:40.728Z</time></trkpt><trkpt lat="43.116145" lon="12.97219"><ele>916.4000000000001</ele><time>2026-04-04T13:52:41.732Z</time></trkpt><trkpt lat="43.1161217" lon="12.972325"><ele>918.5999999999999</ele><time>2026-04-04T13:52:42.729Z</time></trkpt><trkpt lat="43.11608" lon="12.9724517"><ele>920.8</ele><time>2026-04-04T13:52:43.726Z</time></trkpt><trkpt lat="43.11601" lon="12.972565"><ele>923.0</ele><time>2026-04-04T13:52:44.728Z</time></trkpt><trkpt lat="43.1159267" lon="12.9726633"><ele>923.5</ele><time>2026-04-04T13:52:45.726Z</time></trkpt><trkpt lat="43.11583" lon="12.9727467"><ele>924.0</ele><time>2026-04-04T13:52:46.725Z</time></trkpt><trkpt lat="43.11573" lon="12.9728283"><ele>924.5</ele><time>2026-04-04T13:52:47.726Z</time></trkpt><trkpt lat="43.115635" lon="12.9728917"><ele>925.0</ele><time>2026-04-04T13:52:48.729Z</time></trkpt><trkpt lat="43.115525" lon="12.9729383"><ele>923.5</ele><time>2026-04-04T13:52:49.728Z</time></trkpt><trkpt lat="43.1154133" lon="12.9729633"><ele>922.0</ele><time>2026-04-04T13:52:50.727Z</time></trkpt><trkpt lat="43.1152967" lon="12.9729617"><ele>920.5</ele><time>2026-04-04T13:52:51.728Z</time></trkpt><trkpt lat="43.1151683" lon="12.9729417"><ele>919.0</ele><time>2026-04-04T13:52:52.728Z</time></trkpt><trkpt lat="43.11504" lon="12.9729183"><ele>919.0</ele><time>2026-04-04T13:52:53.729Z</time></trkpt><trkpt lat="43.114905" lon="12.9728917"><ele>919.0</ele><time>2026-04-04T13:52:54.728Z</time></trkpt><trkpt lat="43.1147633" lon="12.9728633"><ele>919.0</ele><time>2026-04-04T13:52:55.73Z</time></trkpt><trkpt lat="43.1146167" lon="12.9728383"><ele>919.0</ele><time>2026-04-04T13:52:56.727Z</time></trkpt><trkpt lat="43.114465" lon="12.972815"><ele>919.3333333333333</ele><time>2026-04-04T13:52:57.73Z</time></trkpt><trkpt lat="43.1143133" lon="12.9727917"><ele>919.6666666666667</ele><time>2026-04-04T13:52:58.728Z</time></trkpt><trkpt lat="43.11416" lon="12.97277"><ele>920.0</ele><time>2026-04-04T13:52:59.73Z</time></trkpt><trkpt lat="43.114005" lon="12.9727517"><ele>919.0</ele><time>2026-04-04T13:53:00.727Z</time></trkpt><trkpt lat="43.1138467" lon="12.97273"><ele>918.0</ele><time>2026-04-04T13:53:01.728Z</time></trkpt><trkpt lat="43.11369" lon="12.9727117"><ele>917.0</ele><time>2026-04-04T13:53:02.729Z</time></trkpt><trkpt lat="43.1135367" lon="12.9726933"><ele>917.0</ele><time>2026-04-04T13:53:03.728Z</time></trkpt><trkpt lat="43.113385" lon="12.9726717"><ele>917.0</ele><time>2026-04-04T13:53:04.73Z</time></trkpt><trkpt lat="43.1132317" lon="12.9726467"><ele>917.0</ele><time>2026-04-04T13:53:05.727Z</time></trkpt><trkpt lat="43.1130783" lon="12.972625"><ele>917.3333333333334</ele><time>2026-04-04T13:53:06.728Z</time></trkpt><trkpt lat="43.112925" lon="12.9726083"><ele>917.6666666666667</ele><time>2026-04-04T13:53:07.728Z</time></trkpt><trkpt lat="43.112775" lon="12.9725967"><ele>918.0</ele><time>2026-04-04T13:53:08.729Z</time></trkpt><trkpt lat="43.11262" lon="12.9725867"><ele>918.0</ele><time>2026-04-04T13:53:09.728Z</time></trkpt><trkpt lat="43.1124667" lon="12.972575"><ele>918.0</ele><time>2026-04-04T13:53:10.726Z</time></trkpt><trkpt lat="43.1123133" lon="12.9725667"><ele>918.0</ele><time>2026-04-04T13:53:11.729Z</time></trkpt><trkpt lat="43.1121633" lon="12.97256"><ele>918.6666666666667</ele><time>2026-04-04T13:53:12.73Z</time></trkpt><trkpt lat="43.1120117" lon="12.9725567"><ele>919.3333333333334</ele><time>2026-04-04T13:53:13.724Z</time></trkpt><trkpt lat="43.1118633" lon="12.9725517"><ele>920.0</ele><time>2026-04-04T13:53:14.725Z</time></trkpt><trkpt lat="43.1117133" lon="12.9725467"><ele>919.3333333333334</ele><time>2026-04-04T13:53:15.729Z</time></trkpt><trkpt lat="43.1115617" lon="12.97254"><ele>918.6666666666667</ele><time>2026-04-04T13:53:16.726Z</time></trkpt><trkpt lat="43.11141" lon="12.9725383"><ele>918.0</ele><time>2026-04-04T13:53:17.728Z</time></trkpt><trkpt lat="43.1112583" lon="12.9725367"><ele>918.0</ele><time>2026-04-04T13:53:18.728Z</time></trkpt><trkpt lat="43.111105" lon="12.9725367"><ele>918.0</ele><time>2026-04-04T13:53:19.728Z</time></trkpt><trkpt lat="43.1109533" lon="12.972535"><ele>918.0</ele><time>2026-04-04T13:53:20.731Z</time></trkpt><trkpt lat="43.110805" lon="12.9725267"><ele>921.25</ele><time>2026-04-04T13:53:21.728Z</time></trkpt><trkpt lat="43.11066" lon="12.9725133"><ele>924.5</ele><time>2026-04-04T13:53:22.727Z</time></trkpt><trkpt lat="43.11052" lon="12.9724967"><ele>927.75</ele><time>2026-04-04T13:53:23.727Z</time></trkpt><trkpt lat="43.1103833" lon="12.9724717"><ele>931.0</ele><time>2026-04-04T13:53:24.724Z</time></trkpt><trkpt lat="43.1102467" lon="12.97243"><ele>931.0</ele><time>2026-04-04T13:53:25.729Z</time></trkpt><trkpt lat="43.1101117" lon="12.9723717"><ele>931.0</ele><time>2026-04-04T13:53:26.73Z</time></trkpt><trkpt lat="43.1099783" lon="12.9723"><ele>931.0</ele><time>2026-04-04T13:53:27.728Z</time></trkpt><trkpt lat="43.1098433" lon="12.97222"><ele>931.0</ele><time>2026-04-04T13:53:28.725Z</time></trkpt><trkpt lat="43.1097067" lon="12.9721383"><ele>929.25</ele><time>2026-04-04T13:53:29.728Z</time></trkpt><trkpt lat="43.109575" lon="12.9720517"><ele>927.5</ele><time>2026-04-04T13:53:30.73Z</time></trkpt><trkpt lat="43.1094433" lon="12.9719567"><ele>925.75</ele><time>2026-04-04T13:53:31.726Z</time></trkpt><trkpt lat="43.1093167" lon="12.97186"><ele>924.0</ele><time>2026-04-04T13:53:32.726Z</time></trkpt><trkpt lat="43.1091883" lon="12.971765"><ele>925.0</ele><time>2026-04-04T13:53:33.724Z</time></trkpt><trkpt lat="43.10906" lon="12.9716667"><ele>926.0</ele><time>2026-04-04T13:53:34.727Z</time></trkpt><trkpt lat="43.1089317" lon="12.971565"><ele>927.0</ele><time>2026-04-04T13:53:35.73Z</time></trkpt><trkpt lat="43.108805" lon="12.97146"><ele>928.0</ele><time>2026-04-04T13:53:36.729Z</time></trkpt><trkpt lat="43.108685" lon="12.9713383"><ele>928.0</ele><time>2026-04-04T13:53:37.728Z</time></trkpt><trkpt lat="43.1085767" lon="12.9711983"><ele>928.0</ele><time>2026-04-04T13:53:38.73Z</time></trkpt><trkpt lat="43.1084783" lon="12.9710517"><ele>928.0</ele><time>2026-04-04T13:53:39.726Z</time></trkpt><trkpt lat="43.108385" lon="12.970895"><ele>928.0</ele><time>2026-04-04T13:53:40.729Z</time></trkpt><trkpt lat="43.1082967" lon="12.9707217"><ele>928.3333333333333</ele><time>2026-04-04T13:53:41.728Z</time></trkpt><trkpt lat="43.1082133" lon="12.97054"><ele>928.6666666666667</ele><time>2026-04-04T13:53:42.727Z</time></trkpt><trkpt lat="43.1081367" lon="12.9703483"><ele>929.0</ele><time>2026-04-04T13:53:43.73Z</time></trkpt><trkpt lat="43.1080633" lon="12.970145"><ele>931.6666666666667</ele><time>2026-04-04T13:53:44.729Z</time></trkpt><trkpt lat="43.1079983" lon="12.969935"><ele>934.3333333333333</ele><time>2026-04-04T13:53:45.728Z</time></trkpt><trkpt lat="43.1079367" lon="12.9697217"><ele>937.0</ele><time>2026-04-04T13:53:46.728Z</time></trkpt><trkpt lat="43.1078833" lon="12.969505"><ele>937.0</ele><time>2026-04-04T13:53:47.729Z</time></trkpt><trkpt lat="43.1078383" lon="12.969285"><ele>937.0</ele><time>2026-04-04T13:53:48.726Z</time></trkpt><trkpt lat="43.107795" lon="12.9690617"><ele>937.0</ele><time>2026-04-04T13:53:49.729Z</time></trkpt><trkpt lat="43.10775" lon="12.9688367"><ele>940.3333333333333</ele><time>2026-04-04T13:53:50.727Z</time></trkpt><trkpt lat="43.1077033" lon="12.96861"><ele>943.6666666666667</ele><time>2026-04-04T13:53:51.728Z</time></trkpt><trkpt lat="43.107665" lon="12.9683833"><ele>947.0</ele><time>2026-04-04T13:53:52.73Z</time></trkpt><trkpt lat="43.1076333" lon="12.9681483"><ele>950.6666666666667</ele><time>2026-04-04T13:53:53.728Z</time></trkpt><trkpt lat="43.1076033" lon="12.967915"><ele>954.3333333333333</ele><time>2026-04-04T13:53:54.727Z</time></trkpt><trkpt lat="43.107565" lon="12.9676833"><ele>958.0</ele><time>2026-04-04T13:53:55.727Z</time></trkpt><trkpt lat="43.1075117" lon="12.967455"><ele>955.0</ele><time>2026-04-04T13:53:56.728Z</time></trkpt><trkpt lat="43.1074533" lon="12.967225"><ele>952.0</ele><time>2026-04-04T13:53:57.731Z</time></trkpt><trkpt lat="43.1073983" lon="12.9669983"><ele>949.0</ele><time>2026-04-04T13:53:58.727Z</time></trkpt><trkpt lat="43.10734" lon="12.9667717"><ele>952.0</ele><time>2026-04-04T13:53:59.727Z</time></trkpt><trkpt lat="43.1072833" lon="12.9665433"><ele>955.0</ele><time>2026-04-04T13:54:00.726Z</time></trkpt><trkpt lat="43.10723" lon="12.9663133"><ele>958.0</ele><time>2026-04-04T13:54:01.727Z</time></trkpt><trkpt lat="43.1071683" lon="12.9660883"><ele>958.0</ele><time>2026-04-04T13:54:02.726Z</time></trkpt><trkpt lat="43.1071067" lon="12.965865"><ele>958.0</ele><time>2026-04-04T13:54:03.727Z</time></trkpt><trkpt lat="43.1070517" lon="12.96565"><ele>958.0</ele><time>2026-04-04T13:54:04.727Z</time></trkpt><trkpt lat="43.106995" lon="12.9654717"><ele>961.2</ele><time>2026-04-04T13:54:05.729Z</time></trkpt><trkpt lat="43.1069417" lon="12.965325"><ele>964.4</ele><time>2026-04-04T13:54:06.731Z</time></trkpt><trkpt lat="43.1068683" lon="12.96522"><ele>967.6000000000001</ele><time>2026-04-04T13:54:07.728Z</time></trkpt><trkpt lat="43.1067967" lon="12.9651567"><ele>970.8000000000001</ele><time>2026-04-04T13:54:08.729Z</time></trkpt><trkpt lat="43.1067167" lon="12.9651067"><ele>974.0</ele><time>2026-04-04T13:54:09.729Z</time></trkpt><trkpt lat="43.1066167" lon="12.965095"><ele>975.0</ele><time>2026-04-04T13:54:10.728Z</time></trkpt><trkpt lat="43.1064967" lon="12.965125"><ele>976.0</ele><time>2026-04-04T13:54:11.727Z</time></trkpt><trkpt lat="43.1063583" lon="12.9651983"><ele>977.0</ele><time>2026-04-04T13:54:12.73Z</time></trkpt><trkpt lat="43.1062117" lon="12.96527"><ele>978.0</ele><time>2026-04-04T13:54:13.729Z</time></trkpt><trkpt lat="43.10606" lon="12.965345"><ele>978.0</ele><time>2026-04-04T13:54:14.73Z</time></trkpt><trkpt lat="43.10592" lon="12.9654117"><ele>978.0</ele><time>2026-04-04T13:54:15.728Z</time></trkpt><trkpt lat="43.105795" lon="12.9654633"><ele>978.0</ele><time>2026-04-04T13:54:16.728Z</time></trkpt><trkpt lat="43.10568" lon="12.9654833"><ele>978.0</ele><time>2026-04-04T13:54:17.73Z</time></trkpt><trkpt lat="43.1055617" lon="12.9654783"><ele>980.25</ele><time>2026-04-04T13:54:18.727Z</time></trkpt><trkpt lat="43.10544" lon="12.965415"><ele>982.5</ele><time>2026-04-04T13:54:19.73Z</time></trkpt><trkpt lat="43.1053283" lon="12.9652817"><ele>984.75</ele><time>2026-04-04T13:54:20.728Z</time></trkpt><trkpt lat="43.1052267" lon="12.965105"><ele>987.0</ele><time>2026-04-04T13:54:21.728Z</time></trkpt><trkpt lat="43.1051333" lon="12.9649267"><ele>987.0</ele><time>2026-04-04T13:54:22.729Z</time></trkpt><trkpt lat="43.1050517" lon="12.9647317"><ele>987.0</ele><time>2026-04-04T13:54:23.727Z</time></trkpt><trkpt lat="43.10499" lon="12.9645217"><ele>987.0</ele><time>2026-04-04T13:54:24.727Z</time></trkpt><trkpt lat="43.1049617" lon="12.964295"><ele>992.3333333333333</ele><time>2026-04-04T13:54:25.726Z</time></trkpt><trkpt lat="43.1049483" lon="12.96407"><ele>997.6666666666666</ele><time>2026-04-04T13:54:26.731Z</time></trkpt><trkpt lat="43.104975" lon="12.9638483"><ele>1003.0</ele><time>2026-04-04T13:54:27.726Z</time></trkpt><trkpt lat="43.1050017" lon="12.9636417"><ele>1003.0</ele><time>2026-04-04T13:54:28.726Z</time></trkpt><trkpt lat="43.1050083" lon="12.96346"><ele>1003.0</ele><time>2026-04-04T13:54:29.73Z</time></trkpt><trkpt lat="43.1049783" lon="12.963305"><ele>1003.0</ele><time>2026-04-04T13:54:30.729Z</time></trkpt><trkpt lat="43.1049167" lon="12.9631633"><ele>1003.0</ele><time>2026-04-04T13:54:31.729Z</time></trkpt><trkpt lat="43.1048483" lon="12.96302"><ele>1002.0</ele><time>2026-04-04T13:54:32.73Z</time></trkpt><trkpt lat="43.1047967" lon="12.9628517"><ele>1001.0</ele><time>2026-04-04T13:54:33.728Z</time></trkpt><trkpt lat="43.1047633" lon="12.9626717"><ele>1000.0</ele><time>2026-04-04T13:54:34.728Z</time></trkpt><trkpt lat="43.10474" lon="12.9624833"><ele>999.0</ele><time>2026-04-04T13:54:35.731Z</time></trkpt><trkpt lat="43.1047283" lon="12.9622933"><ele>1003.75</ele><time>2026-04-04T13:54:36.729Z</time></trkpt><trkpt lat="43.104725" lon="12.962115"><ele>1008.5</ele><time>2026-04-04T13:54:37.728Z</time></trkpt><trkpt lat="43.1047017" lon="12.9619483"><ele>1013.25</ele><time>2026-04-04T13:54:38.731Z</time></trkpt><trkpt lat="43.10465" lon="12.9618133"><ele>1018.0</ele><time>2026-04-04T13:54:39.73Z</time></trkpt><trkpt lat="43.104575" lon="12.9616967"><ele>1018.75</ele><time>2026-04-04T13:54:40.728Z</time></trkpt><trkpt lat="43.104495" lon="12.9615783"><ele>1019.5</ele><time>2026-04-04T13:54:41.73Z</time></trkpt><trkpt lat="43.1044217" lon="12.9614583"><ele>1020.25</ele><time>2026-04-04T13:54:42.728Z</time></trkpt><trkpt lat="43.104355" lon="12.96133"><ele>1021.0</ele><time>2026-04-04T13:54:43.728Z</time></trkpt><trkpt lat="43.1043017" lon="12.961195"><ele>1021.0</ele><time>2026-04-04T13:54:44.73Z</time></trkpt><trkpt lat="43.10425" lon="12.9610667"><ele>1020.9999999999999</ele><time>2026-04-04T13:54:45.728Z</time></trkpt><trkpt lat="43.1041933" lon="12.960965"><ele>1020.9999999999999</ele><time>2026-04-04T13:54:46.731Z</time></trkpt><trkpt lat="43.104135" lon="12.9608817"><ele>1021.0</ele><time>2026-04-04T13:54:47.727Z</time></trkpt><trkpt lat="43.10406" lon="12.9608217"><ele>1021.0</ele><time>2026-04-04T13:54:48.727Z</time></trkpt><trkpt lat="43.1039583" lon="12.96081"><ele>1019.0</ele><time>2026-04-04T13:54:49.73Z</time></trkpt><trkpt lat="43.1038517" lon="12.9607917"><ele>1017.0</ele><time>2026-04-04T13:54:50.731Z</time></trkpt><trkpt lat="43.1037383" lon="12.9607367"><ele>1015.0</ele><time>2026-04-04T13:54:51.73Z</time></trkpt><trkpt lat="43.1036183" lon="12.9606433"><ele>1013.0</ele><time>2026-04-04T13:54:52.728Z</time></trkpt><trkpt lat="43.1034933" lon="12.9605383"><ele>1013.0</ele><time>2026-04-04T13:54:53.726Z</time></trkpt><trkpt lat="43.1033733" lon="12.9604317"><ele>1013.0</ele><time>2026-04-04T13:54:54.731Z</time></trkpt><trkpt lat="43.10324" lon="12.96033"><ele>1013.0</ele><time>2026-04-04T13:54:55.728Z</time></trkpt><trkpt lat="43.1031017" lon="12.960215"><ele>1014.0</ele><time>2026-04-04T13:54:56.733Z</time></trkpt><trkpt lat="43.1029733" lon="12.9601017"><ele>1015.0</ele><time>2026-04-04T13:54:57.724Z</time></trkpt><trkpt lat="43.1028367" lon="12.96001"><ele>1016.0</ele><time>2026-04-04T13:54:58.731Z</time></trkpt><trkpt lat="43.1026983" lon="12.959935"><ele>1009.3333333333334</ele><time>2026-04-04T13:54:59.729Z</time></trkpt><trkpt lat="43.1025517" lon="12.9598717"><ele>1002.6666666666667</ele><time>2026-04-04T13:55:00.732Z</time></trkpt><trkpt lat="43.1023933" lon="12.9598133"><ele>996.0</ele><time>2026-04-04T13:55:01.73Z</time></trkpt><trkpt lat="43.1022367" lon="12.9597633"><ele>996.0</ele><time>2026-04-04T13:55:02.729Z</time></trkpt><trkpt lat="43.102085" lon="12.9597183"><ele>996.0</ele><time>2026-04-04T13:55:03.728Z</time></trkpt><trkpt lat="43.1019367" lon="12.9596633"><ele>996.0</ele><time>2026-04-04T13:55:04.728Z</time></trkpt><trkpt lat="43.10179" lon="12.9596033"><ele>996.0</ele><time>2026-04-04T13:55:05.729Z</time></trkpt><trkpt lat="43.1016417" lon="12.9595367"><ele>996.0</ele><time>2026-04-04T13:55:06.73Z</time></trkpt><trkpt lat="43.101495" lon="12.9594633"><ele>996.0</ele><time>2026-04-04T13:55:07.726Z</time></trkpt><trkpt lat="43.10135" lon="12.959385"><ele>999.3333333333333</ele><time>2026-04-04T13:55:08.741Z</time></trkpt><trkpt lat="43.101205" lon="12.9593017"><ele>1002.6666666666666</ele><time>2026-04-04T13:55:09.729Z</time></trkpt><trkpt lat="43.101065" lon="12.9592167"><ele>1006.0</ele><time>2026-04-04T13:55:10.726Z</time></trkpt><trkpt lat="43.100925" lon="12.9591333"><ele>1000.75</ele><time>2026-04-04T13:55:11.729Z</time></trkpt><trkpt lat="43.100785" lon="12.95906"><ele>995.5</ele><time>2026-04-04T13:55:12.729Z</time></trkpt><trkpt lat="43.10065" lon="12.958995"><ele>990.25</ele><time>2026-04-04T13:55:13.728Z</time></trkpt><trkpt lat="43.100515" lon="12.95894"><ele>985.0</ele><time>2026-04-04T13:55:14.732Z</time></trkpt><trkpt lat="43.10038" lon="12.95888"><ele>985.0</ele><time>2026-04-04T13:55:15.726Z</time></trkpt><trkpt lat="43.1002467" lon="12.9588167"><ele>985.0</ele><time>2026-04-04T13:55:16.726Z</time></trkpt><trkpt lat="43.1001167" lon="12.9587533"><ele>985.0</ele><time>2026-04-04T13:55:17.73Z</time></trkpt><trkpt lat="43.0999833" lon="12.9586917"><ele>985.0</ele><time>2026-04-04T13:55:18.728Z</time></trkpt><trkpt lat="43.0998517" lon="12.958635"><ele>987.25</ele><time>2026-04-04T13:55:19.727Z</time></trkpt><trkpt lat="43.0997233" lon="12.9585783"><ele>989.5</ele><time>2026-04-04T13:55:20.728Z</time></trkpt><trkpt lat="43.0995933" lon="12.958525"><ele>991.75</ele><time>2026-04-04T13:55:21.726Z</time></trkpt><trkpt lat="43.099465" lon="12.9584683"><ele>994.0</ele><time>2026-04-04T13:55:22.724Z</time></trkpt><trkpt lat="43.0993383" lon="12.9584117"><ele>985.0</ele><time>2026-04-04T13:55:23.727Z</time></trkpt><trkpt lat="43.099215" lon="12.958355"><ele>976.0</ele><time>2026-04-04T13:55:24.728Z</time></trkpt><trkpt lat="43.0990983" lon="12.9582917"><ele>967.0</ele><time>2026-04-04T13:55:25.728Z</time></trkpt><trkpt lat="43.0989833" lon="12.9582333"><ele>958.0</ele><time>2026-04-04T13:55:26.729Z</time></trkpt><trkpt lat="43.0988667" lon="12.9581833"><ele>958.0</ele><time>2026-04-04T13:55:27.724Z</time></trkpt><trkpt lat="43.0987583" lon="12.958135"><ele>958.0</ele><time>2026-04-04T13:55:28.735Z</time></trkpt><trkpt lat="43.0986433" lon="12.9580883"><ele>958.0</ele><time>2026-04-04T13:55:29.724Z</time></trkpt><trkpt lat="43.0985233" lon="12.9580367"><ele>958.0</ele><time>2026-04-04T13:55:30.73Z</time></trkpt><trkpt lat="43.098395" lon="12.957985"><ele>958.0</ele><time>2026-04-04T13:55:31.727Z</time></trkpt><trkpt lat="43.0982667" lon="12.9579367"><ele>958.0</ele><time>2026-04-04T13:55:32.728Z</time></trkpt><trkpt lat="43.0981367" lon="12.9578917"><ele>958.0</ele><time>2026-04-04T13:55:33.727Z</time></trkpt><trkpt lat="43.0980067" lon="12.95785"><ele>958.0</ele><time>2026-04-04T13:55:34.725Z</time></trkpt><trkpt lat="43.0978817" lon="12.9578217"><ele>957.0</ele><time>2026-04-04T13:55:35.728Z</time></trkpt><trkpt lat="43.0977583" lon="12.9578067"><ele>956.0</ele><time>2026-04-04T13:55:36.727Z</time></trkpt><trkpt lat="43.0976433" lon="12.9578133"><ele>955.0</ele><time>2026-04-04T13:55:37.727Z</time></trkpt><trkpt lat="43.0975267" lon="12.9578417"><ele>954.0</ele><time>2026-04-04T13:55:38.727Z</time></trkpt><trkpt lat="43.097405" lon="12.9578817"><ele>954.0</ele><time>2026-04-04T13:55:39.727Z</time></trkpt><trkpt lat="43.0972883" lon="12.957925"><ele>954.0</ele><time>2026-04-04T13:55:40.726Z</time></trkpt><trkpt lat="43.0971517" lon="12.957945"><ele>954.0</ele><time>2026-04-04T13:55:41.727Z</time></trkpt><trkpt lat="43.0970283" lon="12.9579233"><ele>954.0</ele><time>2026-04-04T13:55:42.729Z</time></trkpt><trkpt lat="43.09692" lon="12.9578667"><ele>954.0</ele><time>2026-04-04T13:55:43.73Z</time></trkpt><trkpt lat="43.0968217" lon="12.957775"><ele>954.0</ele><time>2026-04-04T13:55:44.724Z</time></trkpt><trkpt lat="43.0967183" lon="12.9576783"><ele>954.0</ele><time>2026-04-04T13:55:45.729Z</time></trkpt><trkpt lat="43.0966" lon="12.957595"><ele>954.0</ele><time>2026-04-04T13:55:46.726Z</time></trkpt><trkpt lat="43.096475" lon="12.9575067"><ele>946.25</ele><time>2026-04-04T13:55:47.728Z</time></trkpt><trkpt lat="43.0963383" lon="12.9574333"><ele>938.5</ele><time>2026-04-04T13:55:48.727Z</time></trkpt><trkpt lat="43.0962017" lon="12.9573567"><ele>930.75</ele><time>2026-04-04T13:55:49.726Z</time></trkpt><trkpt lat="43.0960717" lon="12.9572833"><ele>923.0</ele><time>2026-04-04T13:55:50.729Z</time></trkpt><trkpt lat="43.0959483" lon="12.9571967"><ele>923.0</ele><time>2026-04-04T13:55:51.725Z</time></trkpt><trkpt lat="43.0958317" lon="12.9571083"><ele>923.0</ele><time>2026-04-04T13:55:52.728Z</time></trkpt><trkpt lat="43.0957067" lon="12.9570283"><ele>923.0</ele><time>2026-04-04T13:55:53.727Z</time></trkpt><trkpt lat="43.0955817" lon="12.95696"><ele>923.0</ele><time>2026-04-04T13:55:54.729Z</time></trkpt><trkpt lat="43.0954517" lon="12.9569033"><ele>920.5</ele><time>2026-04-04T13:55:55.729Z</time></trkpt><trkpt lat="43.095315" lon="12.9568667"><ele>918.0</ele><time>2026-04-04T13:55:56.728Z</time></trkpt><trkpt lat="43.095185" lon="12.956865"><ele>915.5</ele><time>2026-04-04T13:55:57.727Z</time></trkpt><trkpt lat="43.095075" lon="12.956905"><ele>913.0</ele><time>2026-04-04T13:55:58.728Z</time></trkpt><trkpt lat="43.094985" lon="12.956975"><ele>911.0</ele><time>2026-04-04T13:55:59.726Z</time></trkpt><trkpt lat="43.0949083" lon="12.957065"><ele>909.0</ele><time>2026-04-04T13:56:00.732Z</time></trkpt><trkpt lat="43.0948433" lon="12.957175"><ele>907.0</ele><time>2026-04-04T13:56:01.725Z</time></trkpt><trkpt lat="43.094795" lon="12.957285"><ele>905.0</ele><time>2026-04-04T13:56:02.732Z</time></trkpt><trkpt lat="43.094755" lon="12.9574033"><ele>903.0</ele><time>2026-04-04T13:56:03.727Z</time></trkpt><trkpt lat="43.0947167" lon="12.9575183"><ele>903.0</ele><time>2026-04-04T13:56:04.732Z</time></trkpt><trkpt lat="43.0946783" lon="12.9576117"><ele>903.0</ele><time>2026-04-04T13:56:05.728Z</time></trkpt><trkpt lat="43.0946367" lon="12.9576817"><ele>903.0</ele><time>2026-04-04T13:56:06.73Z</time></trkpt><trkpt lat="43.0945517" lon="12.9576933"><ele>903.0</ele><time>2026-04-04T13:56:08.728Z</time></trkpt><trkpt lat="43.0945883" lon="12.95754"><ele>903.0</ele><time>2026-04-04T13:56:10.727Z</time></trkpt><trkpt lat="43.094645" lon="12.9574033"><ele>903.0</ele><time>2026-04-04T13:56:11.728Z</time></trkpt><trkpt lat="43.0947067" lon="12.9572333"><ele>903.0</ele><time>2026-04-04T13:56:12.727Z</time></trkpt><trkpt lat="43.0947667" lon="12.9570467"><ele>903.0</ele><time>2026-04-04T13:56:13.727Z</time></trkpt><trkpt lat="43.0948233" lon="12.9568533"><ele>903.0</ele><time>2026-04-04T13:56:14.727Z</time></trkpt><trkpt lat="43.0948767" lon="12.9566567"><ele>901.0</ele><time>2026-04-04T13:56:15.729Z</time></trkpt><trkpt lat="43.0949283" lon="12.95646"><ele>899.0</ele><time>2026-04-04T13:56:16.727Z</time></trkpt><trkpt lat="43.0949733" lon="12.9562867"><ele>897.0</ele><time>2026-04-04T13:56:17.728Z</time></trkpt><trkpt lat="43.0950217" lon="12.9561433"><ele>895.0</ele><time>2026-04-04T13:56:18.727Z</time></trkpt><trkpt lat="43.0950733" lon="12.956035"><ele>895.0</ele><time>2026-04-04T13:56:19.728Z</time></trkpt><trkpt lat="43.0951417" lon="12.9559567"><ele>895.0</ele><time>2026-04-04T13:56:20.73Z</time></trkpt><trkpt lat="43.09523" lon="12.9559017"><ele>895.0</ele><time>2026-04-04T13:56:21.727Z</time></trkpt><trkpt lat="43.0953533" lon="12.9558817"><ele>895.0</ele><time>2026-04-04T13:56:22.726Z</time></trkpt><trkpt lat="43.0955217" lon="12.955895"><ele>895.0</ele><time>2026-04-04T13:56:23.729Z</time></trkpt><trkpt lat="43.0956833" lon="12.9559083"><ele>895.0</ele><time>2026-04-04T13:56:24.727Z</time></trkpt><trkpt lat="43.0958517" lon="12.9559217"><ele>895.0</ele><time>2026-04-04T13:56:25.729Z</time></trkpt><trkpt lat="43.0960233" lon="12.9559333"><ele>896.3333333333333</ele><time>2026-04-04T13:56:26.727Z</time></trkpt><trkpt lat="43.096195" lon="12.955935"><ele>897.6666666666667</ele><time>2026-04-04T13:56:27.728Z</time></trkpt><trkpt lat="43.096375" lon="12.955925"><ele>899.0</ele><time>2026-04-04T13:56:28.726Z</time></trkpt><trkpt lat="43.09655" lon="12.9559083"><ele>898.6666666666667</ele><time>2026-04-04T13:56:29.729Z</time></trkpt><trkpt lat="43.0967283" lon="12.95589"><ele>898.3333333333333</ele><time>2026-04-04T13:56:30.728Z</time></trkpt><trkpt lat="43.0969" lon="12.9558683"><ele>898.0</ele><time>2026-04-04T13:56:31.728Z</time></trkpt><trkpt lat="43.0970717" lon="12.955845"><ele>890.3333333333333</ele><time>2026-04-04T13:56:32.731Z</time></trkpt><trkpt lat="43.0972317" lon="12.955825"><ele>882.6666666666667</ele><time>2026-04-04T13:56:33.728Z</time></trkpt><trkpt lat="43.0973917" lon="12.9557983"><ele>875.0</ele><time>2026-04-04T13:56:34.731Z</time></trkpt><trkpt lat="43.0975483" lon="12.95577"><ele>873.0</ele><time>2026-04-04T13:56:35.73Z</time></trkpt><trkpt lat="43.097705" lon="12.9557483"><ele>871.0</ele><time>2026-04-04T13:56:36.729Z</time></trkpt><trkpt lat="43.0978567" lon="12.9557383"><ele>869.0</ele><time>2026-04-04T13:56:37.728Z</time></trkpt><trkpt lat="43.0980033" lon="12.9557333"><ele>869.0</ele><time>2026-04-04T13:56:38.729Z</time></trkpt><trkpt lat="43.09816" lon="12.9557467"><ele>869.0</ele><time>2026-04-04T13:56:39.727Z</time></trkpt><trkpt lat="43.0983333" lon="12.9557767"><ele>869.0</ele><time>2026-04-04T13:56:40.731Z</time></trkpt><trkpt lat="43.098495" lon="12.9558117"><ele>866.0</ele><time>2026-04-04T13:56:41.727Z</time></trkpt><trkpt lat="43.0986583" lon="12.955845"><ele>863.0</ele><time>2026-04-04T13:56:42.73Z</time></trkpt><trkpt lat="43.09883" lon="12.95589"><ele>860.0</ele><time>2026-04-04T13:56:43.726Z</time></trkpt><trkpt lat="43.0990083" lon="12.9559417"><ele>865.3333333333334</ele><time>2026-04-04T13:56:44.728Z</time></trkpt><trkpt lat="43.0991867" lon="12.9560117"><ele>870.6666666666667</ele><time>2026-04-04T13:56:45.727Z</time></trkpt><trkpt lat="43.0993617" lon="12.9560983"><ele>876.0</ele><time>2026-04-04T13:56:46.729Z</time></trkpt><trkpt lat="43.099535" lon="12.9561833"><ele>876.0</ele><time>2026-04-04T13:56:47.726Z</time></trkpt><trkpt lat="43.0996917" lon="12.9562483"><ele>876.0</ele><time>2026-04-04T13:56:48.729Z</time></trkpt><trkpt lat="43.0998217" lon="12.9562867"><ele>876.0</ele><time>2026-04-04T13:56:49.727Z</time></trkpt><trkpt lat="43.0999533" lon="12.9563133"><ele>876.0</ele><time>2026-04-04T13:56:50.728Z</time></trkpt><trkpt lat="43.1000867" lon="12.9563333"><ele>873.1999999999999</ele><time>2026-04-04T13:56:51.726Z</time></trkpt><trkpt lat="43.1002017" lon="12.9563367"><ele>870.3999999999999</ele><time>2026-04-04T13:56:52.725Z</time></trkpt><trkpt lat="43.1002967" lon="12.9563"><ele>867.6</ele><time>2026-04-04T13:56:53.729Z</time></trkpt><trkpt lat="43.1003517" lon="12.9562133"><ele>864.8</ele><time>2026-04-04T13:56:54.727Z</time></trkpt><trkpt lat="43.1003933" lon="12.95612"><ele>862.0</ele><time>2026-04-04T13:56:55.727Z</time></trkpt><trkpt lat="43.1004" lon="12.9560083"><ele>862.0</ele><time>2026-04-04T13:56:56.73Z</time></trkpt><trkpt lat="43.10031" lon="12.955885"><ele>862.0</ele><time>2026-04-04T13:56:57.728Z</time></trkpt><trkpt lat="43.100215" lon="12.9557633"><ele>862.0</ele><time>2026-04-04T13:56:58.727Z</time></trkpt><trkpt lat="43.1001267" lon="12.9556383"><ele>862.0</ele><time>2026-04-04T13:56:59.727Z</time></trkpt><trkpt lat="43.1000283" lon="12.9554933"><ele>857.75</ele><time>2026-04-04T13:57:00.728Z</time></trkpt><trkpt lat="43.0999433" lon="12.9553417"><ele>853.5</ele><time>2026-04-04T13:57:01.726Z</time></trkpt><trkpt lat="43.0998733" lon="12.955185"><ele>849.25</ele><time>2026-04-04T13:57:02.727Z</time></trkpt><trkpt lat="43.09981" lon="12.95502"><ele>845.0</ele><time>2026-04-04T13:57:03.726Z</time></trkpt><trkpt lat="43.0997483" lon="12.9548533"><ele>840.75</ele><time>2026-04-04T13:57:04.726Z</time></trkpt><trkpt lat="43.0996867" lon="12.954695"><ele>836.5</ele><time>2026-04-04T13:57:05.727Z</time></trkpt><trkpt lat="43.0996233" lon="12.9545383"><ele>832.25</ele><time>2026-04-04T13:57:06.728Z</time></trkpt><trkpt lat="43.0995567" lon="12.95438"><ele>828.0</ele><time>2026-04-04T13:57:07.729Z</time></trkpt><trkpt lat="43.099495" lon="12.9542267"><ele>825.0</ele><time>2026-04-04T13:57:08.728Z</time></trkpt><trkpt lat="43.0994367" lon="12.9540783"><ele>822.0</ele><time>2026-04-04T13:57:09.726Z</time></trkpt><trkpt lat="43.0993767" lon="12.9539283"><ele>819.0</ele><time>2026-04-04T13:57:10.729Z</time></trkpt><trkpt lat="43.0993167" lon="12.9537783"><ele>816.0</ele><time>2026-04-04T13:57:11.731Z</time></trkpt><trkpt lat="43.0992617" lon="12.9536267"><ele>816.0</ele><time>2026-04-04T13:57:12.73Z</time></trkpt><trkpt lat="43.0992083" lon="12.9534733"><ele>816.0</ele><time>2026-04-04T13:57:13.733Z</time></trkpt><trkpt lat="43.09915" lon="12.95331"><ele>816.0</ele><time>2026-04-04T13:57:14.734Z</time></trkpt><trkpt lat="43.0990867" lon="12.9531367"><ele>816.0</ele><time>2026-04-04T13:57:15.727Z</time></trkpt><trkpt lat="43.09903" lon="12.9529533"><ele>813.6666666666667</ele><time>2026-04-04T13:57:16.727Z</time></trkpt><trkpt lat="43.09898" lon="12.9527583"><ele>811.3333333333334</ele><time>2026-04-04T13:57:17.731Z</time></trkpt><trkpt lat="43.0989367" lon="12.9525567"><ele>809.0</ele><time>2026-04-04T13:57:18.725Z</time></trkpt><trkpt lat="43.09889" lon="12.9523567"><ele>806.3333333333334</ele><time>2026-04-04T13:57:19.73Z</time></trkpt><trkpt lat="43.098835" lon="12.9521533"><ele>803.6666666666667</ele><time>2026-04-04T13:57:20.728Z</time></trkpt><trkpt lat="43.0987767" lon="12.9519517"><ele>801.0</ele><time>2026-04-04T13:57:21.728Z</time></trkpt><trkpt lat="43.0987217" lon="12.951755"><ele>799.5</ele><time>2026-04-04T13:57:22.725Z</time></trkpt><trkpt lat="43.098675" lon="12.9515583"><ele>798.0</ele><time>2026-04-04T13:57:23.725Z</time></trkpt><trkpt lat="43.0986267" lon="12.9513683"><ele>796.5</ele><time>2026-04-04T13:57:24.725Z</time></trkpt><trkpt lat="43.098565" lon="12.95119"><ele>795.0</ele><time>2026-04-04T13:57:25.729Z</time></trkpt><trkpt lat="43.0984883" lon="12.9510367"><ele>795.0</ele><time>2026-04-04T13:57:26.73Z</time></trkpt><trkpt lat="43.09839" lon="12.95091"><ele>795.0</ele><time>2026-04-04T13:57:27.728Z</time></trkpt><trkpt lat="43.0982783" lon="12.950805"><ele>795.0</ele><time>2026-04-04T13:57:28.733Z</time></trkpt><trkpt lat="43.0981667" lon="12.9507067"><ele>795.0</ele><time>2026-04-04T13:57:29.73Z</time></trkpt><trkpt lat="43.0980517" lon="12.9506017"><ele>794.25</ele><time>2026-04-04T13:57:30.728Z</time></trkpt><trkpt lat="43.0979333" lon="12.9504983"><ele>793.5</ele><time>2026-04-04T13:57:31.729Z</time></trkpt><trkpt lat="43.0978183" lon="12.950395"><ele>792.75</ele><time>2026-04-04T13:57:32.728Z</time></trkpt><trkpt lat="43.0977083" lon="12.9502883"><ele>792.0</ele><time>2026-04-04T13:57:33.724Z</time></trkpt><trkpt lat="43.0976083" lon="12.95019"><ele>792.0</ele><time>2026-04-04T13:57:34.728Z</time></trkpt><trkpt lat="43.0975133" lon="12.9501117"><ele>792.0</ele><time>2026-04-04T13:57:35.727Z</time></trkpt><trkpt lat="43.0974233" lon="12.950055"><ele>792.0</ele><time>2026-04-04T13:57:36.731Z</time></trkpt><trkpt lat="43.0973333" lon="12.9500183"><ele>792.0</ele><time>2026-04-04T13:57:37.725Z</time></trkpt><trkpt lat="43.09723" lon="12.9499817"><ele>792.0</ele><time>2026-04-04T13:57:38.728Z</time></trkpt><trkpt lat="43.0971267" lon="12.9499333"><ele>790.25</ele><time>2026-04-04T13:57:39.726Z</time></trkpt><trkpt lat="43.0970217" lon="12.9498883"><ele>788.5</ele><time>2026-04-04T13:57:40.73Z</time></trkpt><trkpt lat="43.09691" lon="12.94987"><ele>786.75</ele><time>2026-04-04T13:57:41.728Z</time></trkpt><trkpt lat="43.0967983" lon="12.949875"><ele>785.0</ele><time>2026-04-04T13:57:42.73Z</time></trkpt><trkpt lat="43.0966817" lon="12.9499"><ele>785.5</ele><time>2026-04-04T13:57:43.725Z</time></trkpt><trkpt lat="43.0965567" lon="12.9499467"><ele>786.0</ele><time>2026-04-04T13:57:44.727Z</time></trkpt><trkpt lat="43.0964283" lon="12.949995"><ele>786.5</ele><time>2026-04-04T13:57:45.725Z</time></trkpt><trkpt lat="43.0963133" lon="12.950035"><ele>787.0</ele><time>2026-04-04T13:57:46.727Z</time></trkpt><trkpt lat="43.0961917" lon="12.950055"><ele>787.0</ele><time>2026-04-04T13:57:47.728Z</time></trkpt><trkpt lat="43.0960767" lon="12.9500333"><ele>787.0</ele><time>2026-04-04T13:57:48.725Z</time></trkpt><trkpt lat="43.09596" lon="12.9499617"><ele>787.0</ele><time>2026-04-04T13:57:49.729Z</time></trkpt><trkpt lat="43.095835" lon="12.9498867"><ele>787.0</ele><time>2026-04-04T13:57:50.729Z</time></trkpt><trkpt lat="43.09571" lon="12.9498183"><ele>787.25</ele><time>2026-04-04T13:57:51.728Z</time></trkpt><trkpt lat="43.0955883" lon="12.949765"><ele>787.5</ele><time>2026-04-04T13:57:52.725Z</time></trkpt><trkpt lat="43.0954633" lon="12.94972"><ele>787.75</ele><time>2026-04-04T13:57:53.728Z</time></trkpt><trkpt lat="43.0953367" lon="12.9496767"><ele>788.0</ele><time>2026-04-04T13:57:54.729Z</time></trkpt><trkpt lat="43.0952033" lon="12.94963"><ele>788.0</ele><time>2026-04-04T13:57:55.729Z</time></trkpt><trkpt lat="43.0950783" lon="12.9495667"><ele>788.0</ele><time>2026-04-04T13:57:56.728Z</time></trkpt><trkpt lat="43.0949433" lon="12.9495167"><ele>788.0</ele><time>2026-04-04T13:57:57.727Z</time></trkpt><trkpt lat="43.0948017" lon="12.9494933"><ele>788.0</ele><time>2026-04-04T13:57:58.725Z</time></trkpt><trkpt lat="43.09466" lon="12.949495"><ele>785.0</ele><time>2026-04-04T13:57:59.731Z</time></trkpt><trkpt lat="43.0945067" lon="12.9495083"><ele>782.0</ele><time>2026-04-04T13:58:00.728Z</time></trkpt><trkpt lat="43.0943317" lon="12.9495067"><ele>779.0</ele><time>2026-04-04T13:58:01.728Z</time></trkpt><trkpt lat="43.09416" lon="12.9494883"><ele>781.6666666666667</ele><time>2026-04-04T13:58:02.728Z</time></trkpt><trkpt lat="43.093995" lon="12.94946"><ele>784.3333333333333</ele><time>2026-04-04T13:58:03.727Z</time></trkpt><trkpt lat="43.09383" lon="12.94943"><ele>787.0</ele><time>2026-04-04T13:58:04.727Z</time></trkpt><trkpt lat="43.093645" lon="12.9493883"><ele>787.0</ele><time>2026-04-04T13:58:05.728Z</time></trkpt><trkpt lat="43.0934717" lon="12.949345"><ele>787.0</ele><time>2026-04-04T13:58:06.727Z</time></trkpt><trkpt lat="43.0933033" lon="12.9493017"><ele>787.0</ele><time>2026-04-04T13:58:07.73Z</time></trkpt><trkpt lat="43.093125" lon="12.9492583"><ele>790.6666666666666</ele><time>2026-04-04T13:58:08.728Z</time></trkpt><trkpt lat="43.0929517" lon="12.949215"><ele>794.3333333333333</ele><time>2026-04-04T13:58:09.729Z</time></trkpt><trkpt lat="43.0927733" lon="12.94917"><ele>798.0</ele><time>2026-04-04T13:58:10.726Z</time></trkpt><trkpt lat="43.09259" lon="12.94912"><ele>788.3333333333333</ele><time>2026-04-04T13:58:11.727Z</time></trkpt><trkpt lat="43.0924133" lon="12.949065"><ele>778.6666666666666</ele><time>2026-04-04T13:58:12.727Z</time></trkpt><trkpt lat="43.0922417" lon="12.949"><ele>769.0</ele><time>2026-04-04T13:58:13.726Z</time></trkpt><trkpt lat="43.092065" lon="12.9489417"><ele>769.0</ele><time>2026-04-04T13:58:14.73Z</time></trkpt><trkpt lat="43.0918817" lon="12.94889"><ele>769.0</ele><time>2026-04-04T13:58:15.727Z</time></trkpt><trkpt lat="43.091695" lon="12.9488467"><ele>769.0</ele><time>2026-04-04T13:58:16.733Z</time></trkpt><trkpt lat="43.0915133" lon="12.9488133"><ele>770.3333333333333</ele><time>2026-04-04T13:58:17.73Z</time></trkpt><trkpt lat="43.091335" lon="12.9487933"><ele>771.6666666666667</ele><time>2026-04-04T13:58:18.728Z</time></trkpt><trkpt lat="43.09116" lon="12.9487783"><ele>773.0</ele><time>2026-04-04T13:58:19.729Z</time></trkpt><trkpt lat="43.0909867" lon="12.9487717"><ele>773.0</ele><time>2026-04-04T13:58:20.733Z</time></trkpt><trkpt lat="43.090815" lon="12.9487683"><ele>773.0</ele><time>2026-04-04T13:58:21.729Z</time></trkpt><trkpt lat="43.0906517" lon="12.9487617"><ele>773.0</ele><time>2026-04-04T13:58:22.728Z</time></trkpt><trkpt lat="43.090495" lon="12.94875"><ele>776.0</ele><time>2026-04-04T13:58:23.729Z</time></trkpt><trkpt lat="43.0903483" lon="12.9487267"><ele>779.0</ele><time>2026-04-04T13:58:24.73Z</time></trkpt><trkpt lat="43.0902083" lon="12.9486833"><ele>782.0</ele><time>2026-04-04T13:58:25.729Z</time></trkpt><trkpt lat="43.09008" lon="12.9486067"><ele>785.0</ele><time>2026-04-04T13:58:26.731Z</time></trkpt><trkpt lat="43.089965" lon="12.9485067"><ele>787.5</ele><time>2026-04-04T13:58:27.729Z</time></trkpt><trkpt lat="43.0898533" lon="12.9483967"><ele>790.0</ele><time>2026-04-04T13:58:28.728Z</time></trkpt><trkpt lat="43.08973" lon="12.9482867"><ele>792.5</ele><time>2026-04-04T13:58:29.727Z</time></trkpt><trkpt lat="43.0896017" lon="12.94818"><ele>795.0</ele><time>2026-04-04T13:58:30.729Z</time></trkpt><trkpt lat="43.0894783" lon="12.9480883"><ele>785.75</ele><time>2026-04-04T13:58:31.724Z</time></trkpt><trkpt lat="43.0893667" lon="12.9480133"><ele>776.5</ele><time>2026-04-04T13:58:32.725Z</time></trkpt><trkpt lat="43.089255" lon="12.947925"><ele>767.25</ele><time>2026-04-04T13:58:33.727Z</time></trkpt><trkpt lat="43.0891483" lon="12.9478467"><ele>758.0</ele><time>2026-04-04T13:58:34.728Z</time></trkpt><trkpt lat="43.089035" lon="12.9477733"><ele>756.0</ele><time>2026-04-04T13:58:35.728Z</time></trkpt><trkpt lat="43.0889183" lon="12.9477033"><ele>754.0</ele><time>2026-04-04T13:58:36.722Z</time></trkpt><trkpt lat="43.088805" lon="12.94765"><ele>752.0</ele><time>2026-04-04T13:58:37.73Z</time></trkpt><trkpt lat="43.08869" lon="12.947625"><ele>750.0</ele><time>2026-04-04T13:58:38.726Z</time></trkpt><trkpt lat="43.0885683" lon="12.947625"><ele>750.0</ele><time>2026-04-04T13:58:39.729Z</time></trkpt><trkpt lat="43.08846" lon="12.9476533"><ele>750.0</ele><time>2026-04-04T13:58:40.725Z</time></trkpt><trkpt lat="43.0883467" lon="12.947695"><ele>750.0</ele><time>2026-04-04T13:58:41.729Z</time></trkpt><trkpt lat="43.088235" lon="12.9477633"><ele>750.0</ele><time>2026-04-04T13:58:42.729Z</time></trkpt><trkpt lat="43.088115" lon="12.9478433"><ele>743.25</ele><time>2026-04-04T13:58:43.731Z</time></trkpt><trkpt lat="43.0880083" lon="12.9479083"><ele>736.5</ele><time>2026-04-04T13:58:44.733Z</time></trkpt><trkpt lat="43.0878933" lon="12.9479583"><ele>729.75</ele><time>2026-04-04T13:58:45.729Z</time></trkpt><trkpt lat="43.0877683" lon="12.9479967"><ele>723.0</ele><time>2026-04-04T13:58:46.727Z</time></trkpt><trkpt lat="43.0876433" lon="12.9480367"><ele>723.0</ele><time>2026-04-04T13:58:47.729Z</time></trkpt><trkpt lat="43.0875167" lon="12.94809"><ele>723.0</ele><time>2026-04-04T13:58:48.727Z</time></trkpt><trkpt lat="43.0873933" lon="12.9481667"><ele>723.0</ele><time>2026-04-04T13:58:49.723Z</time></trkpt><trkpt lat="43.0872717" lon="12.9482533"><ele>723.0</ele><time>2026-04-04T13:58:50.726Z</time></trkpt><trkpt lat="43.087135" lon="12.948365"><ele>718.6666666666666</ele><time>2026-04-04T13:58:51.721Z</time></trkpt><trkpt lat="43.0870067" lon="12.9485083"><ele>714.3333333333333</ele><time>2026-04-04T13:58:52.725Z</time></trkpt><trkpt lat="43.08687" lon="12.9486517"><ele>710.0</ele><time>2026-04-04T13:58:53.723Z</time></trkpt><trkpt lat="43.0867483" lon="12.9488"><ele>710.0</ele><time>2026-04-04T13:58:54.724Z</time></trkpt><trkpt lat="43.0866333" lon="12.9489533"><ele>710.0</ele><time>2026-04-04T13:58:55.728Z</time></trkpt><trkpt lat="43.0865183" lon="12.9491167"><ele>710.0</ele><time>2026-04-04T13:58:56.73Z</time></trkpt><trkpt lat="43.0864183" lon="12.9492917"><ele>705.3333333333333</ele><time>2026-04-04T13:58:57.723Z</time></trkpt><trkpt lat="43.0863167" lon="12.949455"><ele>700.6666666666666</ele><time>2026-04-04T13:58:58.739Z</time></trkpt><trkpt lat="43.0861917" lon="12.9495883"><ele>696.0</ele><time>2026-04-04T13:58:59.728Z</time></trkpt><trkpt lat="43.086065" lon="12.9497083"><ele>696.0</ele><time>2026-04-04T13:59:00.728Z</time></trkpt><trkpt lat="43.0859533" lon="12.949855"><ele>696.0</ele><time>2026-04-04T13:59:01.731Z</time></trkpt><trkpt lat="43.0858567" lon="12.950015"><ele>696.0</ele><time>2026-04-04T13:59:02.726Z</time></trkpt><trkpt lat="43.0857533" lon="12.9501867"><ele>694.0</ele><time>2026-04-04T13:59:03.728Z</time></trkpt><trkpt lat="43.085645" lon="12.9503717"><ele>692.0</ele><time>2026-04-04T13:59:04.726Z</time></trkpt><trkpt lat="43.0855333" lon="12.9505617"><ele>690.0</ele><time>2026-04-04T13:59:05.729Z</time></trkpt><trkpt lat="43.0854167" lon="12.9507517"><ele>693.3333333333334</ele><time>2026-04-04T13:59:06.729Z</time></trkpt><trkpt lat="43.0852983" lon="12.95092"><ele>696.6666666666667</ele><time>2026-04-04T13:59:07.728Z</time></trkpt><trkpt lat="43.0851833" lon="12.9510783"><ele>700.0</ele><time>2026-04-04T13:59:08.727Z</time></trkpt><trkpt lat="43.0850717" lon="12.9512217"><ele>700.0</ele><time>2026-04-04T13:59:09.727Z</time></trkpt><trkpt lat="43.0849717" lon="12.9513617"><ele>700.0</ele><time>2026-04-04T13:59:10.73Z</time></trkpt><trkpt lat="43.0848767" lon="12.951505"><ele>700.0</ele><time>2026-04-04T13:59:11.728Z</time></trkpt><trkpt lat="43.084815" lon="12.9516633"><ele>700.0</ele><time>2026-04-04T13:59:12.729Z</time></trkpt><trkpt lat="43.0847733" lon="12.95185"><ele>692.3333333333334</ele><time>2026-04-04T13:59:13.724Z</time></trkpt><trkpt lat="43.08475" lon="12.95206"><ele>684.6666666666666</ele><time>2026-04-04T13:59:14.729Z</time></trkpt><trkpt lat="43.0847167" lon="12.9522867"><ele>677.0</ele><time>2026-04-04T13:59:15.727Z</time></trkpt><trkpt lat="43.0846583" lon="12.9525183"><ele>678.6666666666666</ele><time>2026-04-04T13:59:16.726Z</time></trkpt><trkpt lat="43.0845867" lon="12.95274"><ele>680.3333333333334</ele><time>2026-04-04T13:59:17.727Z</time></trkpt><trkpt lat="43.0844917" lon="12.95295"><ele>682.0</ele><time>2026-04-04T13:59:18.729Z</time></trkpt><trkpt lat="43.0844017" lon="12.953155"><ele>682.0</ele><time>2026-04-04T13:59:19.729Z</time></trkpt><trkpt lat="43.0842983" lon="12.9533517"><ele>682.0</ele><time>2026-04-04T13:59:20.741Z</time></trkpt><trkpt lat="43.08419" lon="12.9535433"><ele>682.0</ele><time>2026-04-04T13:59:21.727Z</time></trkpt><trkpt lat="43.0840617" lon="12.9537283"><ele>678.6666666666667</ele><time>2026-04-04T13:59:22.729Z</time></trkpt><trkpt lat="43.08392" lon="12.9538967"><ele>675.3333333333334</ele><time>2026-04-04T13:59:23.725Z</time></trkpt><trkpt lat="43.0837783" lon="12.954055"><ele>672.0</ele><time>2026-04-04T13:59:24.726Z</time></trkpt><trkpt lat="43.0836317" lon="12.9542117"><ele>670.6666666666666</ele><time>2026-04-04T13:59:25.728Z</time></trkpt><trkpt lat="43.0834867" lon="12.9543733"><ele>669.3333333333333</ele><time>2026-04-04T13:59:26.73Z</time></trkpt><trkpt lat="43.0833433" lon="12.9545367"><ele>668.0</ele><time>2026-04-04T13:59:27.726Z</time></trkpt><trkpt lat="43.0831983" lon="12.95469"><ele>668.0</ele><time>2026-04-04T13:59:28.728Z</time></trkpt><trkpt lat="43.08306" lon="12.9548367"><ele>668.0</ele><time>2026-04-04T13:59:29.73Z</time></trkpt><trkpt lat="43.0829267" lon="12.954985"><ele>668.0</ele><time>2026-04-04T13:59:30.729Z</time></trkpt><trkpt lat="43.0828" lon="12.9551283"><ele>665.0</ele><time>2026-04-04T13:59:31.724Z</time></trkpt><trkpt lat="43.0826667" lon="12.9552583"><ele>662.0</ele><time>2026-04-04T13:59:32.729Z</time></trkpt><trkpt lat="43.0825133" lon="12.9553667"><ele>659.0</ele><time>2026-04-04T13:59:33.726Z</time></trkpt><trkpt lat="43.0823567" lon="12.9554683"><ele>659.0</ele><time>2026-04-04T13:59:34.728Z</time></trkpt><trkpt lat="43.0822183" lon="12.955575"><ele>659.0</ele><time>2026-04-04T13:59:35.728Z</time></trkpt><trkpt lat="43.0821033" lon="12.9557033"><ele>659.0</ele><time>2026-04-04T13:59:36.726Z</time></trkpt><trkpt lat="43.082025" lon="12.9558483"><ele>659.0</ele><time>2026-04-04T13:59:37.73Z</time></trkpt><trkpt lat="43.0819683" lon="12.956025"><ele>659.0</ele><time>2026-04-04T13:59:38.731Z</time></trkpt><trkpt lat="43.0819217" lon="12.956215"><ele>659.0</ele><time>2026-04-04T13:59:39.729Z</time></trkpt><trkpt lat="43.0818717" lon="12.9564133"><ele>659.0</ele><time>2026-04-04T13:59:40.727Z</time></trkpt><trkpt lat="43.0818233" lon="12.9566133"><ele>661.3333333333333</ele><time>2026-04-04T13:59:41.728Z</time></trkpt><trkpt lat="43.081765" lon="12.95681"><ele>663.6666666666666</ele><time>2026-04-04T13:59:42.726Z</time></trkpt><trkpt lat="43.0817133" lon="12.9570017"><ele>666.0</ele><time>2026-04-04T13:59:43.728Z</time></trkpt><trkpt lat="43.081655" lon="12.957195"><ele>666.6666666666666</ele><time>2026-04-04T13:59:44.728Z</time></trkpt><trkpt lat="43.0815817" lon="12.9573767"><ele>667.3333333333333</ele><time>2026-04-04T13:59:45.731Z</time></trkpt><trkpt lat="43.0814783" lon="12.95755"><ele>668.0</ele><time>2026-04-04T13:59:46.728Z</time></trkpt><trkpt lat="43.0813483" lon="12.95772"><ele>668.0</ele><time>2026-04-04T13:59:47.725Z</time></trkpt><trkpt lat="43.081215" lon="12.957885"><ele>668.0</ele><time>2026-04-04T13:59:48.729Z</time></trkpt><trkpt lat="43.081085" lon="12.9580433"><ele>668.0</ele><time>2026-04-04T13:59:49.727Z</time></trkpt><trkpt lat="43.0809633" lon="12.9581867"><ele>668.0</ele><time>2026-04-04T13:59:50.729Z</time></trkpt><trkpt lat="43.080835" lon="12.9583033"><ele>668.0</ele><time>2026-04-04T13:59:51.728Z</time></trkpt><trkpt lat="43.0806867" lon="12.9583817"><ele>668.0</ele><time>2026-04-04T13:59:52.734Z</time></trkpt><trkpt lat="43.0805283" lon="12.9584167"><ele>664.3333333333333</ele><time>2026-04-04T13:59:53.727Z</time></trkpt><trkpt lat="43.08037" lon="12.95842"><ele>660.6666666666666</ele><time>2026-04-04T13:59:54.728Z</time></trkpt><trkpt lat="43.0802067" lon="12.958395"><ele>657.0</ele><time>2026-04-04T13:59:55.729Z</time></trkpt><trkpt lat="43.0800417" lon="12.958355"><ele>655.0</ele><time>2026-04-04T13:59:56.73Z</time></trkpt><trkpt lat="43.0798817" lon="12.9583017"><ele>653.0</ele><time>2026-04-04T13:59:57.728Z</time></trkpt><trkpt lat="43.079725" lon="12.95826"><ele>651.0</ele><time>2026-04-04T13:59:58.73Z</time></trkpt><trkpt lat="43.0795717" lon="12.95825"><ele>651.0</ele><time>2026-04-04T13:59:59.729Z</time></trkpt><trkpt lat="43.079415" lon="12.958285"><ele>651.0</ele><time>2026-04-04T14:00:00.73Z</time></trkpt><trkpt lat="43.0792533" lon="12.9583533"><ele>651.0</ele><time>2026-04-04T14:00:01.729Z</time></trkpt><trkpt lat="43.079085" lon="12.9584417"><ele>654.6666666666666</ele><time>2026-04-04T14:00:02.731Z</time></trkpt><trkpt lat="43.078915" lon="12.95854"><ele>658.3333333333333</ele><time>2026-04-04T14:00:03.727Z</time></trkpt><trkpt lat="43.0787433" lon="12.9586317"><ele>662.0</ele><time>2026-04-04T14:00:04.727Z</time></trkpt><trkpt lat="43.07857" lon="12.958715"><ele>662.0</ele><time>2026-04-04T14:00:05.727Z</time></trkpt><trkpt lat="43.0783983" lon="12.9587933"><ele>662.0</ele><time>2026-04-04T14:00:06.728Z</time></trkpt><trkpt lat="43.078225" lon="12.9588667"><ele>662.0</ele><time>2026-04-04T14:00:07.73Z</time></trkpt><trkpt lat="43.078055" lon="12.958925"><ele>657.3333333333333</ele><time>2026-04-04T14:00:08.725Z</time></trkpt><trkpt lat="43.0778817" lon="12.9589583"><ele>652.6666666666666</ele><time>2026-04-04T14:00:09.729Z</time></trkpt><trkpt lat="43.077725" lon="12.9589767"><ele>648.0</ele><time>2026-04-04T14:00:10.729Z</time></trkpt><trkpt lat="43.0775717" lon="12.9589867"><ele>645.25</ele><time>2026-04-04T14:00:11.73Z</time></trkpt><trkpt lat="43.0774133" lon="12.958975"><ele>642.5</ele><time>2026-04-04T14:00:12.729Z</time></trkpt><trkpt lat="43.077295" lon="12.9589633"><ele>639.75</ele><time>2026-04-04T14:00:13.722Z</time></trkpt><trkpt lat="43.07718" lon="12.9589517"><ele>637.0</ele><time>2026-04-04T14:00:14.72Z</time></trkpt><trkpt lat="43.0770717" lon="12.958895"><ele>637.0</ele><time>2026-04-04T14:00:15.723Z</time></trkpt><trkpt lat="43.0769767" lon="12.95881"><ele>637.0</ele><time>2026-04-04T14:00:16.721Z</time></trkpt><trkpt lat="43.0768933" lon="12.958715"><ele>637.0</ele><time>2026-04-04T14:00:17.721Z</time></trkpt><trkpt lat="43.0768167" lon="12.95861"><ele>637.0</ele><time>2026-04-04T14:00:18.723Z</time></trkpt><trkpt lat="43.0767367" lon="12.9585083"><ele>637.0</ele><time>2026-04-04T14:00:19.732Z</time></trkpt><trkpt lat="43.0766617" lon="12.9584133"><ele>635.4</ele><time>2026-04-04T14:00:20.723Z</time></trkpt><trkpt lat="43.0765883" lon="12.9583183"><ele>633.8000000000001</ele><time>2026-04-04T14:00:21.728Z</time></trkpt><trkpt lat="43.0765133" lon="12.9582267"><ele>632.2</ele><time>2026-04-04T14:00:22.728Z</time></trkpt><trkpt lat="43.0764367" lon="12.95813"><ele>630.6</ele><time>2026-04-04T14:00:23.724Z</time></trkpt><trkpt lat="43.0763617" lon="12.9580367"><ele>629.0</ele><time>2026-04-04T14:00:24.728Z</time></trkpt><trkpt lat="43.07629" lon="12.957945"><ele>629.0</ele><time>2026-04-04T14:00:25.728Z</time></trkpt><trkpt lat="43.0762233" lon="12.957855"><ele>629.0</ele><time>2026-04-04T14:00:26.729Z</time></trkpt><trkpt lat="43.07616" lon="12.957765"><ele>629.0</ele><time>2026-04-04T14:00:27.727Z</time></trkpt><trkpt lat="43.0761" lon="12.9576733"><ele>629.0</ele><time>2026-04-04T14:00:28.73Z</time></trkpt><trkpt lat="43.0760417" lon="12.9575633"><ele>629.0</ele><time>2026-04-04T14:00:29.729Z</time></trkpt><trkpt lat="43.0759733" lon="12.95743"><ele>629.3333333333333</ele><time>2026-04-04T14:00:30.731Z</time></trkpt><trkpt lat="43.07588" lon="12.95728"><ele>629.6666666666666</ele><time>2026-04-04T14:00:31.73Z</time></trkpt><trkpt lat="43.07577" lon="12.9571217"><ele>630.0</ele><time>2026-04-04T14:00:32.73Z</time></trkpt><trkpt lat="43.07565" lon="12.95695"><ele>630.0</ele><time>2026-04-04T14:00:33.728Z</time></trkpt><trkpt lat="43.0755167" lon="12.956775"><ele>630.0</ele><time>2026-04-04T14:00:34.728Z</time></trkpt><trkpt lat="43.0753817" lon="12.9565917"><ele>630.0</ele><time>2026-04-04T14:00:35.727Z</time></trkpt><trkpt lat="43.07525" lon="12.956405"><ele>631.6666666666666</ele><time>2026-04-04T14:00:36.73Z</time></trkpt><trkpt lat="43.0751133" lon="12.9562117"><ele>633.3333333333333</ele><time>2026-04-04T14:00:37.733Z</time></trkpt><trkpt lat="43.0749683" lon="12.9560283"><ele>635.0</ele><time>2026-04-04T14:00:38.726Z</time></trkpt><trkpt lat="43.0748233" lon="12.9558467"><ele>636.3333333333333</ele><time>2026-04-04T14:00:39.725Z</time></trkpt><trkpt lat="43.0746617" lon="12.9556767"><ele>637.6666666666666</ele><time>2026-04-04T14:00:40.729Z</time></trkpt><trkpt lat="43.0745" lon="12.9555017"><ele>639.0</ele><time>2026-04-04T14:00:41.728Z</time></trkpt><trkpt lat="43.07433" lon="12.95534"><ele>639.0</ele><time>2026-04-04T14:00:42.727Z</time></trkpt><trkpt lat="43.0741583" lon="12.9552033"><ele>639.0</ele><time>2026-04-04T14:00:43.73Z</time></trkpt><trkpt lat="43.0739933" lon="12.9550617"><ele>639.0</ele><time>2026-04-04T14:00:44.73Z</time></trkpt><trkpt lat="43.0738433" lon="12.9549067"><ele>640.6666666666666</ele><time>2026-04-04T14:00:45.729Z</time></trkpt><trkpt lat="43.0736983" lon="12.9547483"><ele>642.3333333333333</ele><time>2026-04-04T14:00:46.727Z</time></trkpt><trkpt lat="43.073575" lon="12.9545517"><ele>644.0</ele><time>2026-04-04T14:00:47.727Z</time></trkpt><trkpt lat="43.0734517" lon="12.9543183"><ele>643.6666666666666</ele><time>2026-04-04T14:00:48.729Z</time></trkpt><trkpt lat="43.073345" lon="12.9540517"><ele>643.3333333333334</ele><time>2026-04-04T14:00:49.728Z</time></trkpt><trkpt lat="43.07323" lon="12.9537917"><ele>643.0</ele><time>2026-04-04T14:00:50.73Z</time></trkpt><trkpt lat="43.0731117" lon="12.9535317"><ele>644.3333333333334</ele><time>2026-04-04T14:00:51.729Z</time></trkpt><trkpt lat="43.073" lon="12.9532733"><ele>645.6666666666666</ele><time>2026-04-04T14:00:52.727Z</time></trkpt><trkpt lat="43.0728917" lon="12.9530283"><ele>647.0</ele><time>2026-04-04T14:00:53.727Z</time></trkpt><trkpt lat="43.0727967" lon="12.9528017"><ele>647.0</ele><time>2026-04-04T14:00:54.733Z</time></trkpt><trkpt lat="43.0726983" lon="12.952595"><ele>647.0</ele><time>2026-04-04T14:00:55.73Z</time></trkpt><trkpt lat="43.0726117" lon="12.952385"><ele>647.0</ele><time>2026-04-04T14:00:56.727Z</time></trkpt><trkpt lat="43.0725367" lon="12.9521833"><ele>648.3333333333333</ele><time>2026-04-04T14:00:57.729Z</time></trkpt><trkpt lat="43.07248" lon="12.9519583"><ele>649.6666666666666</ele><time>2026-04-04T14:00:58.728Z</time></trkpt><trkpt lat="43.0724433" lon="12.9517117"><ele>651.0</ele><time>2026-04-04T14:00:59.73Z</time></trkpt><trkpt lat="43.072425" lon="12.9514483"><ele>651.0</ele><time>2026-04-04T14:01:00.726Z</time></trkpt><trkpt lat="43.0724117" lon="12.95116"><ele>651.0</ele><time>2026-04-04T14:01:01.725Z</time></trkpt><trkpt lat="43.0723917" lon="12.9508617"><ele>651.0</ele><time>2026-04-04T14:01:02.729Z</time></trkpt><trkpt lat="43.0723567" lon="12.9505667"><ele>651.6666666666666</ele><time>2026-04-04T14:01:03.727Z</time></trkpt><trkpt lat="43.07229" lon="12.9502783"><ele>652.3333333333333</ele><time>2026-04-04T14:01:04.728Z</time></trkpt><trkpt lat="43.0722133" lon="12.9499883"><ele>653.0</ele><time>2026-04-04T14:01:05.729Z</time></trkpt><trkpt lat="43.072115" lon="12.9497183"><ele>654.0</ele><time>2026-04-04T14:01:06.728Z</time></trkpt><trkpt lat="43.07201" lon="12.94947"><ele>655.0</ele><time>2026-04-04T14:01:07.729Z</time></trkpt><trkpt lat="43.071875" lon="12.9492567"><ele>656.0</ele><time>2026-04-04T14:01:08.729Z</time></trkpt><trkpt lat="43.071725" lon="12.949045"><ele>657.6666666666666</ele><time>2026-04-04T14:01:09.729Z</time></trkpt><trkpt lat="43.071565" lon="12.9488417"><ele>659.3333333333334</ele><time>2026-04-04T14:01:10.729Z</time></trkpt><trkpt lat="43.0714167" lon="12.948655"><ele>661.0</ele><time>2026-04-04T14:01:11.727Z</time></trkpt><trkpt lat="43.0712767" lon="12.9484733"><ele>662.6666666666667</ele><time>2026-04-04T14:01:12.73Z</time></trkpt><trkpt lat="43.0711467" lon="12.948305"><ele>664.3333333333334</ele><time>2026-04-04T14:01:13.727Z</time></trkpt><trkpt lat="43.0710133" lon="12.9481433"><ele>666.0</ele><time>2026-04-04T14:01:14.726Z</time></trkpt><trkpt lat="43.0708667" lon="12.94799"><ele>664.6666666666666</ele><time>2026-04-04T14:01:15.729Z</time></trkpt><trkpt lat="43.07072" lon="12.947845"><ele>663.3333333333333</ele><time>2026-04-04T14:01:16.731Z</time></trkpt><trkpt lat="43.0705667" lon="12.947725"><ele>662.0</ele><time>2026-04-04T14:01:17.728Z</time></trkpt><trkpt lat="43.070425" lon="12.9476133"><ele>664.3333333333333</ele><time>2026-04-04T14:01:18.727Z</time></trkpt><trkpt lat="43.0702783" lon="12.94752"><ele>666.6666666666666</ele><time>2026-04-04T14:01:19.727Z</time></trkpt><trkpt lat="43.0701317" lon="12.9474333"><ele>669.0</ele><time>2026-04-04T14:01:20.727Z</time></trkpt><trkpt lat="43.0699917" lon="12.9473467"><ele>667.75</ele><time>2026-04-04T14:01:21.725Z</time></trkpt><trkpt lat="43.069855" lon="12.9472683"><ele>666.5</ele><time>2026-04-04T14:01:22.73Z</time></trkpt><trkpt lat="43.0697283" lon="12.9471883"><ele>665.25</ele><time>2026-04-04T14:01:23.728Z</time></trkpt><trkpt lat="43.0695983" lon="12.947115"><ele>664.0</ele><time>2026-04-04T14:01:24.727Z</time></trkpt><trkpt lat="43.0694683" lon="12.9470467"><ele>664.0</ele><time>2026-04-04T14:01:25.726Z</time></trkpt><trkpt lat="43.0693233" lon="12.9469983"><ele>664.0</ele><time>2026-04-04T14:01:26.727Z</time></trkpt><trkpt lat="43.0691667" lon="12.946975"><ele>664.0</ele><time>2026-04-04T14:01:27.729Z</time></trkpt><trkpt lat="43.0690067" lon="12.9469717"><ele>665.6666666666667</ele><time>2026-04-04T14:01:28.728Z</time></trkpt><trkpt lat="43.068845" lon="12.9469783"><ele>667.3333333333334</ele><time>2026-04-04T14:01:29.728Z</time></trkpt><trkpt lat="43.0686783" lon="12.9469817"><ele>669.0</ele><time>2026-04-04T14:01:30.728Z</time></trkpt><trkpt lat="43.068515" lon="12.9469433"><ele>669.0</ele><time>2026-04-04T14:01:31.728Z</time></trkpt><trkpt lat="43.0683483" lon="12.946885"><ele>669.0</ele><time>2026-04-04T14:01:32.729Z</time></trkpt><trkpt lat="43.0681967" lon="12.946805"><ele>669.0</ele><time>2026-04-04T14:01:33.728Z</time></trkpt><trkpt lat="43.068055" lon="12.94668"><ele>668.6666666666666</ele><time>2026-04-04T14:01:34.727Z</time></trkpt><trkpt lat="43.0679283" lon="12.9465433"><ele>668.3333333333333</ele><time>2026-04-04T14:01:35.726Z</time></trkpt><trkpt lat="43.0678183" lon="12.9463767"><ele>668.0</ele><time>2026-04-04T14:01:36.727Z</time></trkpt><trkpt lat="43.067725" lon="12.9461883"><ele>668.0</ele><time>2026-04-04T14:01:37.727Z</time></trkpt><trkpt lat="43.0676667" lon="12.9459683"><ele>668.0</ele><time>2026-04-04T14:01:38.728Z</time></trkpt><trkpt lat="43.06763" lon="12.9457417"><ele>668.0</ele><time>2026-04-04T14:01:39.725Z</time></trkpt><trkpt lat="43.0676017" lon="12.94552"><ele>670.0</ele><time>2026-04-04T14:01:40.732Z</time></trkpt><trkpt lat="43.067575" lon="12.9453117"><ele>672.0</ele><time>2026-04-04T14:01:41.729Z</time></trkpt><trkpt lat="43.0675383" lon="12.9451083"><ele>674.0</ele><time>2026-04-04T14:01:42.727Z</time></trkpt><trkpt lat="43.0674883" lon="12.944915"><ele>678.3333333333333</ele><time>2026-04-04T14:01:43.727Z</time></trkpt><trkpt lat="43.067425" lon="12.9447067"><ele>682.6666666666666</ele><time>2026-04-04T14:01:44.732Z</time></trkpt><trkpt lat="43.0673433" lon="12.9444833"><ele>687.0</ele><time>2026-04-04T14:01:45.726Z</time></trkpt><trkpt lat="43.0672317" lon="12.94427"><ele>684.0</ele><time>2026-04-04T14:01:46.73Z</time></trkpt><trkpt lat="43.0671033" lon="12.9440817"><ele>681.0</ele><time>2026-04-04T14:01:47.726Z</time></trkpt><trkpt lat="43.066965" lon="12.94392"><ele>678.0</ele><time>2026-04-04T14:01:48.73Z</time></trkpt><trkpt lat="43.06683" lon="12.943765"><ele>678.0</ele><time>2026-04-04T14:01:49.727Z</time></trkpt><trkpt lat="43.0666867" lon="12.9436333"><ele>678.0</ele><time>2026-04-04T14:01:50.724Z</time></trkpt><trkpt lat="43.0665517" lon="12.94352"><ele>678.0</ele><time>2026-04-04T14:01:51.728Z</time></trkpt><trkpt lat="43.0664267" lon="12.943415"><ele>680.0</ele><time>2026-04-04T14:01:52.727Z</time></trkpt><trkpt lat="43.0663067" lon="12.9433117"><ele>682.0</ele><time>2026-04-04T14:01:53.727Z</time></trkpt><trkpt lat="43.0661933" lon="12.9432183"><ele>684.0</ele><time>2026-04-04T14:01:54.725Z</time></trkpt><trkpt lat="43.0660817" lon="12.9431133"><ele>686.0</ele><time>2026-04-04T14:01:55.725Z</time></trkpt><trkpt lat="43.0659683" lon="12.9429967"><ele>686.0</ele><time>2026-04-04T14:01:56.731Z</time></trkpt><trkpt lat="43.06587" lon="12.9428567"><ele>686.0</ele><time>2026-04-04T14:01:57.729Z</time></trkpt><trkpt lat="43.0657867" lon="12.9427033"><ele>686.0</ele><time>2026-04-04T14:01:58.726Z</time></trkpt><trkpt lat="43.06571" lon="12.9425583"><ele>686.0</ele><time>2026-04-04T14:01:59.728Z</time></trkpt><trkpt lat="43.065645" lon="12.9424067"><ele>690.6666666666666</ele><time>2026-04-04T14:02:00.724Z</time></trkpt><trkpt lat="43.0655933" lon="12.9422367"><ele>695.3333333333334</ele><time>2026-04-04T14:02:01.736Z</time></trkpt><trkpt lat="43.0655683" lon="12.94203"><ele>700.0</ele><time>2026-04-04T14:02:02.73Z</time></trkpt><trkpt lat="43.0655633" lon="12.9418"><ele>697.0</ele><time>2026-04-04T14:02:03.728Z</time></trkpt><trkpt lat="43.065585" lon="12.9415633"><ele>694.0</ele><time>2026-04-04T14:02:04.728Z</time></trkpt><trkpt lat="43.0656233" lon="12.94132"><ele>691.0</ele><time>2026-04-04T14:02:05.727Z</time></trkpt><trkpt lat="43.0656783" lon="12.9410567"><ele>695.0</ele><time>2026-04-04T14:02:06.729Z</time></trkpt><trkpt lat="43.0657383" lon="12.9408067"><ele>699.0</ele><time>2026-04-04T14:02:07.73Z</time></trkpt><trkpt lat="43.06581" lon="12.9405483"><ele>703.0</ele><time>2026-04-04T14:02:08.73Z</time></trkpt><trkpt lat="43.06588" lon="12.9402883"><ele>704.0</ele><time>2026-04-04T14:02:09.732Z</time></trkpt><trkpt lat="43.0659417" lon="12.94004"><ele>705.0</ele><time>2026-04-04T14:02:10.728Z</time></trkpt><trkpt lat="43.066015" lon="12.939795"><ele>706.0</ele><time>2026-04-04T14:02:11.731Z</time></trkpt><trkpt lat="43.0660833" lon="12.93957"><ele>706.0</ele><time>2026-04-04T14:02:12.73Z</time></trkpt><trkpt lat="43.0661583" lon="12.939375"><ele>706.0</ele><time>2026-04-04T14:02:13.727Z</time></trkpt><trkpt lat="43.0662383" lon="12.9392133"><ele>706.0</ele><time>2026-04-04T14:02:14.729Z</time></trkpt><trkpt lat="43.0663" lon="12.939065"><ele>706.0</ele><time>2026-04-04T14:02:15.729Z</time></trkpt><trkpt lat="43.0663133" lon="12.9389333"><ele>707.5999999999999</ele><time>2026-04-04T14:02:16.726Z</time></trkpt><trkpt lat="43.0662767" lon="12.9388283"><ele>709.2</ele><time>2026-04-04T14:02:17.726Z</time></trkpt><trkpt lat="43.0662133" lon="12.938765"><ele>710.8</ele><time>2026-04-04T14:02:18.728Z</time></trkpt><trkpt lat="43.06614" lon="12.9387283"><ele>712.4000000000001</ele><time>2026-04-04T14:02:19.728Z</time></trkpt><trkpt lat="43.0659883" lon="12.938835"><ele>714.0</ele><time>2026-04-04T14:02:20.732Z</time></trkpt><trkpt lat="43.0658467" lon="12.938955"><ele>718.6666666666666</ele><time>2026-04-04T14:02:21.726Z</time></trkpt><trkpt lat="43.0656967" lon="12.9391083"><ele>723.3333333333333</ele><time>2026-04-04T14:02:22.724Z</time></trkpt><trkpt lat="43.0655233" lon="12.9393067"><ele>728.0</ele><time>2026-04-04T14:02:23.727Z</time></trkpt><trkpt lat="43.0653817" lon="12.9395267"><ele>728.0</ele><time>2026-04-04T14:02:24.73Z</time></trkpt><trkpt lat="43.065255" lon="12.9397633"><ele>728.0</ele><time>2026-04-04T14:02:25.73Z</time></trkpt><trkpt lat="43.065155" lon="12.9400217"><ele>728.0</ele><time>2026-04-04T14:02:26.727Z</time></trkpt><trkpt lat="43.0650817" lon="12.9402683"><ele>722.0</ele><time>2026-04-04T14:02:27.729Z</time></trkpt><trkpt lat="43.0649983" lon="12.94048"><ele>716.0</ele><time>2026-04-04T14:02:28.728Z</time></trkpt><trkpt lat="43.0649117" lon="12.9406567"><ele>710.0</ele><time>2026-04-04T14:02:29.728Z</time></trkpt><trkpt lat="43.064805" lon="12.9407817"><ele>710.0</ele><time>2026-04-04T14:02:30.728Z</time></trkpt><trkpt lat="43.0646983" lon="12.940845"><ele>710.0</ele><time>2026-04-04T14:02:31.727Z</time></trkpt><trkpt lat="43.0645683" lon="12.9407683"><ele>710.0</ele><time>2026-04-04T14:02:32.728Z</time></trkpt><trkpt lat="43.064445" lon="12.9406467"><ele>710.0</ele><time>2026-04-04T14:02:33.727Z</time></trkpt><trkpt lat="43.0643317" lon="12.94047"><ele>710.0</ele><time>2026-04-04T14:02:34.726Z</time></trkpt><trkpt lat="43.06425" lon="12.9402467"><ele>710.0</ele><time>2026-04-04T14:02:35.727Z</time></trkpt><trkpt lat="43.0641917" lon="12.9399917"><ele>710.0</ele><time>2026-04-04T14:02:36.729Z</time></trkpt><trkpt lat="43.064115" lon="12.93976"><ele>710.3333333333333</ele><time>2026-04-04T14:02:37.728Z</time></trkpt><trkpt lat="43.0640033" lon="12.9395667"><ele>710.6666666666666</ele><time>2026-04-04T14:02:38.731Z</time></trkpt><trkpt lat="43.06384" lon="12.9394"><ele>711.0</ele><time>2026-04-04T14:02:39.727Z</time></trkpt><trkpt lat="43.06364" lon="12.93925"><ele>713.0</ele><time>2026-04-04T14:02:40.727Z</time></trkpt><trkpt lat="43.063435" lon="12.93911"><ele>715.0</ele><time>2026-04-04T14:02:41.728Z</time></trkpt><trkpt lat="43.063235" lon="12.938965"><ele>715.0</ele><time>2026-04-04T14:02:42.728Z</time></trkpt><trkpt lat="43.0630433" lon="12.9388083"><ele>715.0</ele><time>2026-04-04T14:02:43.729Z</time></trkpt><trkpt lat="43.0628583" lon="12.938635"><ele>715.0</ele><time>2026-04-04T14:02:44.732Z</time></trkpt><trkpt lat="43.06268" lon="12.9384383"><ele>717.0</ele><time>2026-04-04T14:02:45.726Z</time></trkpt><trkpt lat="43.062505" lon="12.938225"><ele>719.0</ele><time>2026-04-04T14:02:46.727Z</time></trkpt><trkpt lat="43.0623317" lon="12.9380033"><ele>719.0</ele><time>2026-04-04T14:02:47.724Z</time></trkpt><trkpt lat="43.062145" lon="12.9377917"><ele>719.0</ele><time>2026-04-04T14:02:48.725Z</time></trkpt><trkpt lat="43.0619483" lon="12.9376067"><ele>727.0</ele><time>2026-04-04T14:02:49.731Z</time></trkpt><trkpt lat="43.0617433" lon="12.9374367"><ele>735.0</ele><time>2026-04-04T14:02:50.731Z</time></trkpt><trkpt lat="43.0615333" lon="12.93728"><ele>735.0</ele><time>2026-04-04T14:02:51.729Z</time></trkpt><trkpt lat="43.0613167" lon="12.9371467"><ele>735.0</ele><time>2026-04-04T14:02:52.729Z</time></trkpt><trkpt lat="43.061095" lon="12.9370383"><ele>735.0</ele><time>2026-04-04T14:02:53.73Z</time></trkpt><trkpt lat="43.0608833" lon="12.9369533"><ele>735.0</ele><time>2026-04-04T14:02:54.73Z</time></trkpt><trkpt lat="43.060685" lon="12.9368767"><ele>735.0</ele><time>2026-04-04T14:02:55.731Z</time></trkpt><trkpt lat="43.0605" lon="12.9367717"><ele>738.0</ele><time>2026-04-04T14:02:56.732Z</time></trkpt><trkpt lat="43.0603283" lon="12.9366233"><ele>741.0</ele><time>2026-04-04T14:02:57.73Z</time></trkpt><trkpt lat="43.06018" lon="12.9364317"><ele>744.0</ele><time>2026-04-04T14:02:58.728Z</time></trkpt><trkpt lat="43.0600467" lon="12.9361933"><ele>741.0</ele><time>2026-04-04T14:02:59.731Z</time></trkpt><trkpt lat="43.0599133" lon="12.9359383"><ele>738.0</ele><time>2026-04-04T14:03:00.726Z</time></trkpt><trkpt lat="43.0597833" lon="12.9356717"><ele>738.0</ele><time>2026-04-04T14:03:01.729Z</time></trkpt><trkpt lat="43.0596367" lon="12.935405"><ele>738.0</ele><time>2026-04-04T14:03:02.728Z</time></trkpt><trkpt lat="43.059475" lon="12.93515"><ele>745.5</ele><time>2026-04-04T14:03:03.725Z</time></trkpt><trkpt lat="43.0593017" lon="12.934915"><ele>753.0</ele><time>2026-04-04T14:03:04.737Z</time></trkpt><trkpt lat="43.0591267" lon="12.9346817"><ele>746.0</ele><time>2026-04-04T14:03:05.737Z</time></trkpt><trkpt lat="43.0589467" lon="12.9344533"><ele>739.0</ele><time>2026-04-04T14:03:06.73Z</time></trkpt><trkpt lat="43.0587717" lon="12.9342317"><ele>746.0</ele><time>2026-04-04T14:03:07.73Z</time></trkpt><trkpt lat="43.0585917" lon="12.9340133"><ele>753.0</ele><time>2026-04-04T14:03:08.733Z</time></trkpt><trkpt lat="43.0584117" lon="12.9337933"><ele>752.0</ele><time>2026-04-04T14:03:09.728Z</time></trkpt><trkpt lat="43.05823" lon="12.9335767"><ele>751.0</ele><time>2026-04-04T14:03:10.728Z</time></trkpt><trkpt lat="43.05805" lon="12.93336"><ele>751.0</ele><time>2026-04-04T14:03:11.727Z</time></trkpt><trkpt lat="43.0578767" lon="12.9331367"><ele>751.0</ele><time>2026-04-04T14:03:12.73Z</time></trkpt><trkpt lat="43.0577017" lon="12.9329133"><ele>751.0</ele><time>2026-04-04T14:03:13.73Z</time></trkpt><trkpt lat="43.0575283" lon="12.9327017"><ele>751.0</ele><time>2026-04-04T14:03:14.731Z</time></trkpt><trkpt lat="43.0573567" lon="12.9325017"><ele>753.0</ele><time>2026-04-04T14:03:15.732Z</time></trkpt><trkpt lat="43.0571933" lon="12.9323217"><ele>755.0</ele><time>2026-04-04T14:03:16.73Z</time></trkpt><trkpt lat="43.0570333" lon="12.932145"><ele>757.0</ele><time>2026-04-04T14:03:17.728Z</time></trkpt><trkpt lat="43.05687" lon="12.9319767"><ele>757.0</ele><time>2026-04-04T14:03:18.727Z</time></trkpt><trkpt lat="43.0567" lon="12.9318167"><ele>757.0</ele><time>2026-04-04T14:03:19.73Z</time></trkpt><trkpt lat="43.0565283" lon="12.9316583"><ele>757.0</ele><time>2026-04-04T14:03:20.73Z</time></trkpt><trkpt lat="43.056355" lon="12.9315083"><ele>759.3333333333334</ele><time>2026-04-04T14:03:21.73Z</time></trkpt><trkpt lat="43.0561867" lon="12.931355"><ele>761.6666666666666</ele><time>2026-04-04T14:03:22.728Z</time></trkpt><trkpt lat="43.0560267" lon="12.9311933"><ele>764.0</ele><time>2026-04-04T14:03:23.73Z</time></trkpt><trkpt lat="43.0558667" lon="12.9310133"><ele>766.3333333333333</ele><time>2026-04-04T14:03:24.727Z</time></trkpt><trkpt lat="43.055715" lon="12.9308183"><ele>768.6666666666666</ele><time>2026-04-04T14:03:25.729Z</time></trkpt><trkpt lat="43.0555683" lon="12.9306133"><ele>771.0</ele><time>2026-04-04T14:03:26.729Z</time></trkpt><trkpt lat="43.0554233" lon="12.9303967"><ele>771.0</ele><time>2026-04-04T14:03:27.727Z</time></trkpt><trkpt lat="43.0552783" lon="12.9301833"><ele>771.0</ele><time>2026-04-04T14:03:28.727Z</time></trkpt><trkpt lat="43.0551367" lon="12.9299667"><ele>771.0</ele><time>2026-04-04T14:03:29.729Z</time></trkpt><trkpt lat="43.055" lon="12.9297567"><ele>769.6666666666666</ele><time>2026-04-04T14:03:30.728Z</time></trkpt><trkpt lat="43.0548667" lon="12.9295483"><ele>768.3333333333333</ele><time>2026-04-04T14:03:31.729Z</time></trkpt><trkpt lat="43.054735" lon="12.9293467"><ele>767.0</ele><time>2026-04-04T14:03:32.733Z</time></trkpt><trkpt lat="43.0545983" lon="12.92914"><ele>766.3333333333333</ele><time>2026-04-04T14:03:33.732Z</time></trkpt><trkpt lat="43.0544617" lon="12.928925"><ele>765.6666666666666</ele><time>2026-04-04T14:03:34.729Z</time></trkpt><trkpt lat="43.0543233" lon="12.9287017"><ele>765.0</ele><time>2026-04-04T14:03:35.73Z</time></trkpt><trkpt lat="43.0541883" lon="12.92847"><ele>762.6666666666666</ele><time>2026-04-04T14:03:36.728Z</time></trkpt><trkpt lat="43.0540567" lon="12.9282317"><ele>760.3333333333333</ele><time>2026-04-04T14:03:37.731Z</time></trkpt><trkpt lat="43.053925" lon="12.9279917"><ele>758.0</ele><time>2026-04-04T14:03:38.73Z</time></trkpt><trkpt lat="43.0537917" lon="12.92775"><ele>759.0</ele><time>2026-04-04T14:03:39.726Z</time></trkpt><trkpt lat="43.05366" lon="12.9274983"><ele>760.0</ele><time>2026-04-04T14:03:40.728Z</time></trkpt><trkpt lat="43.0535317" lon="12.9272417"><ele>760.0</ele><time>2026-04-04T14:03:41.728Z</time></trkpt><trkpt lat="43.05341" lon="12.9269717"><ele>760.0</ele><time>2026-04-04T14:03:42.728Z</time></trkpt><trkpt lat="43.05329" lon="12.9266967"><ele>757.0</ele><time>2026-04-04T14:03:43.729Z</time></trkpt><trkpt lat="43.05317" lon="12.9264167"><ele>754.0</ele><time>2026-04-04T14:03:44.729Z</time></trkpt><trkpt lat="43.0530533" lon="12.926135"><ele>754.5</ele><time>2026-04-04T14:03:45.73Z</time></trkpt><trkpt lat="43.05294" lon="12.9258517"><ele>755.0</ele><time>2026-04-04T14:03:46.731Z</time></trkpt><trkpt lat="43.052835" lon="12.92557"><ele>755.0</ele><time>2026-04-04T14:03:47.728Z</time></trkpt><trkpt lat="43.0527467" lon="12.9252867"><ele>755.0</ele><time>2026-04-04T14:03:48.729Z</time></trkpt><trkpt lat="43.052685" lon="12.9249917"><ele>755.0</ele><time>2026-04-04T14:03:49.732Z</time></trkpt><trkpt lat="43.05264" lon="12.9246833"><ele>755.0</ele><time>2026-04-04T14:03:50.733Z</time></trkpt><trkpt lat="43.052605" lon="12.9243767"><ele>755.0</ele><time>2026-04-04T14:03:51.727Z</time></trkpt><trkpt lat="43.052575" lon="12.9240767"><ele>755.0</ele><time>2026-04-04T14:03:52.73Z</time></trkpt><trkpt lat="43.05255" lon="12.9237933"><ele>755.0</ele><time>2026-04-04T14:03:53.73Z</time></trkpt><trkpt lat="43.0525333" lon="12.92352"><ele>755.0</ele><time>2026-04-04T14:03:54.728Z</time></trkpt><trkpt lat="43.0525367" lon="12.9232567"><ele>755.0</ele><time>2026-04-04T14:03:55.729Z</time></trkpt><trkpt lat="43.0525633" lon="12.9229967"><ele>757.0</ele><time>2026-04-04T14:03:56.728Z</time></trkpt><trkpt lat="43.0526067" lon="12.922735"><ele>759.0</ele><time>2026-04-04T14:03:57.726Z</time></trkpt><trkpt lat="43.0526517" lon="12.9224783"><ele>761.0</ele><time>2026-04-04T14:03:58.728Z</time></trkpt><trkpt lat="43.0526867" lon="12.9222167"><ele>761.0</ele><time>2026-04-04T14:03:59.731Z</time></trkpt><trkpt lat="43.0527067" lon="12.92195"><ele>761.0</ele><time>2026-04-04T14:04:00.727Z</time></trkpt><trkpt lat="43.0526983" lon="12.921675"><ele>761.0</ele><time>2026-04-04T14:04:01.731Z</time></trkpt><trkpt lat="43.052675" lon="12.9213983"><ele>760.6666666666666</ele><time>2026-04-04T14:04:02.733Z</time></trkpt><trkpt lat="43.0526433" lon="12.9211283"><ele>760.3333333333334</ele><time>2026-04-04T14:04:03.728Z</time></trkpt><trkpt lat="43.052615" lon="12.9208533"><ele>760.0</ele><time>2026-04-04T14:04:04.73Z</time></trkpt><trkpt lat="43.052595" lon="12.9205767"><ele>759.0</ele><time>2026-04-04T14:04:05.729Z</time></trkpt><trkpt lat="43.0525817" lon="12.9202967"><ele>758.0</ele><time>2026-04-04T14:04:06.729Z</time></trkpt><trkpt lat="43.0525733" lon="12.9200217"><ele>757.0</ele><time>2026-04-04T14:04:07.725Z</time></trkpt><trkpt lat="43.052545" lon="12.9197467"><ele>756.0</ele><time>2026-04-04T14:04:08.731Z</time></trkpt><trkpt lat="43.05249" lon="12.9194717"><ele>755.0</ele><time>2026-04-04T14:04:09.729Z</time></trkpt><trkpt lat="43.0524217" lon="12.9192017"><ele>754.0</ele><time>2026-04-04T14:04:10.729Z</time></trkpt><trkpt lat="43.0523467" lon="12.9189367"><ele>753.3333333333334</ele><time>2026-04-04T14:04:11.727Z</time></trkpt><trkpt lat="43.05227" lon="12.9186717"><ele>752.6666666666666</ele><time>2026-04-04T14:04:12.726Z</time></trkpt><trkpt lat="43.052195" lon="12.9184067"><ele>752.0</ele><time>2026-04-04T14:04:13.73Z</time></trkpt><trkpt lat="43.0521167" lon="12.9181433"><ele>752.0</ele><time>2026-04-04T14:04:14.729Z</time></trkpt><trkpt lat="43.05204" lon="12.9178767"><ele>752.0</ele><time>2026-04-04T14:04:15.728Z</time></trkpt><trkpt lat="43.0519633" lon="12.9176067"><ele>752.0</ele><time>2026-04-04T14:04:16.728Z</time></trkpt><trkpt lat="43.0518867" lon="12.9173383"><ele>752.3333333333333</ele><time>2026-04-04T14:04:17.728Z</time></trkpt><trkpt lat="43.0518083" lon="12.917065"><ele>752.6666666666666</ele><time>2026-04-04T14:04:18.727Z</time></trkpt><trkpt lat="43.0517283" lon="12.91679"><ele>753.0</ele><time>2026-04-04T14:04:19.728Z</time></trkpt><trkpt lat="43.0516467" lon="12.9165133"><ele>753.0</ele><time>2026-04-04T14:04:20.727Z</time></trkpt><trkpt lat="43.05156" lon="12.916235"><ele>753.0</ele><time>2026-04-04T14:04:21.731Z</time></trkpt><trkpt lat="43.0514733" lon="12.91596"><ele>753.0</ele><time>2026-04-04T14:04:22.728Z</time></trkpt><trkpt lat="43.05138" lon="12.9156883"><ele>752.6666666666666</ele><time>2026-04-04T14:04:23.73Z</time></trkpt><trkpt lat="43.0512833" lon="12.91542"><ele>752.3333333333333</ele><time>2026-04-04T14:04:24.729Z</time></trkpt><trkpt lat="43.05118" lon="12.9151533"><ele>752.0</ele><time>2026-04-04T14:04:25.728Z</time></trkpt><trkpt lat="43.0510733" lon="12.9148933"><ele>752.0</ele><time>2026-04-04T14:04:26.731Z</time></trkpt><trkpt lat="43.0509683" lon="12.9146283"><ele>752.0</ele><time>2026-04-04T14:04:27.728Z</time></trkpt><trkpt lat="43.0508683" lon="12.9143583"><ele>752.0</ele><time>2026-04-04T14:04:28.731Z</time></trkpt><trkpt lat="43.050775" lon="12.914085"><ele>751.6666666666666</ele><time>2026-04-04T14:04:29.728Z</time></trkpt><trkpt lat="43.05069" lon="12.9138067"><ele>751.3333333333334</ele><time>2026-04-04T14:04:30.727Z</time></trkpt><trkpt lat="43.0506167" lon="12.9135217"><ele>751.0</ele><time>2026-04-04T14:04:31.728Z</time></trkpt><trkpt lat="43.050545" lon="12.913235"><ele>751.0</ele><time>2026-04-04T14:04:32.736Z</time></trkpt><trkpt lat="43.0504733" lon="12.91295"><ele>751.0</ele><time>2026-04-04T14:04:33.727Z</time></trkpt><trkpt lat="43.0503967" lon="12.9126767"><ele>751.0</ele><time>2026-04-04T14:04:34.727Z</time></trkpt><trkpt lat="43.0503167" lon="12.9124117"><ele>752.0</ele><time>2026-04-04T14:04:35.731Z</time></trkpt><trkpt lat="43.0502267" lon="12.912145"><ele>753.0</ele><time>2026-04-04T14:04:36.727Z</time></trkpt><trkpt lat="43.0501217" lon="12.911885"><ele>754.0</ele><time>2026-04-04T14:04:37.727Z</time></trkpt><trkpt lat="43.0500017" lon="12.9116317"><ele>752.6666666666667</ele><time>2026-04-04T14:04:38.728Z</time></trkpt><trkpt lat="43.0498683" lon="12.9113867"><ele>751.3333333333334</ele><time>2026-04-04T14:04:39.733Z</time></trkpt><trkpt lat="43.0497283" lon="12.9111517"><ele>750.0</ele><time>2026-04-04T14:04:40.728Z</time></trkpt><trkpt lat="43.049585" lon="12.9109167"><ele>751.0</ele><time>2026-04-04T14:04:41.732Z</time></trkpt><trkpt lat="43.0494433" lon="12.9106833"><ele>752.0</ele><time>2026-04-04T14:04:42.726Z</time></trkpt><trkpt lat="43.0493033" lon="12.9104517"><ele>753.0</ele><time>2026-04-04T14:04:43.73Z</time></trkpt><trkpt lat="43.0491633" lon="12.9102167"><ele>752.6666666666666</ele><time>2026-04-04T14:04:44.734Z</time></trkpt><trkpt lat="43.0490233" lon="12.909975"><ele>752.3333333333333</ele><time>2026-04-04T14:04:45.728Z</time></trkpt><trkpt lat="43.0488867" lon="12.909735"><ele>752.0</ele><time>2026-04-04T14:04:46.726Z</time></trkpt><trkpt lat="43.04875" lon="12.9094917"><ele>752.0</ele><time>2026-04-04T14:04:47.728Z</time></trkpt><trkpt lat="43.0486167" lon="12.90925"><ele>752.0</ele><time>2026-04-04T14:04:48.728Z</time></trkpt><trkpt lat="43.0484883" lon="12.909005"><ele>752.0</ele><time>2026-04-04T14:04:49.727Z</time></trkpt><trkpt lat="43.0483633" lon="12.908755"><ele>752.0</ele><time>2026-04-04T14:04:50.728Z</time></trkpt><trkpt lat="43.0482383" lon="12.9084917"><ele>752.0</ele><time>2026-04-04T14:04:51.73Z</time></trkpt><trkpt lat="43.048115" lon="12.908225"><ele>752.0</ele><time>2026-04-04T14:04:52.729Z</time></trkpt><trkpt lat="43.0479983" lon="12.9079567"><ele>752.0</ele><time>2026-04-04T14:04:53.727Z</time></trkpt><trkpt lat="43.0478833" lon="12.9076817"><ele>753.0</ele><time>2026-04-04T14:04:54.732Z</time></trkpt><trkpt lat="43.0477717" lon="12.9074017"><ele>754.0</ele><time>2026-04-04T14:04:55.729Z</time></trkpt><trkpt lat="43.0476633" lon="12.9071233"><ele>754.0</ele><time>2026-04-04T14:04:56.727Z</time></trkpt><trkpt lat="43.0475567" lon="12.9068383"><ele>754.0</ele><time>2026-04-04T14:04:57.728Z</time></trkpt><trkpt lat="43.04745" lon="12.9065517"><ele>752.5</ele><time>2026-04-04T14:04:58.728Z</time></trkpt><trkpt lat="43.0473383" lon="12.9062633"><ele>751.0</ele><time>2026-04-04T14:04:59.731Z</time></trkpt><trkpt lat="43.047225" lon="12.9059733"><ele>751.5</ele><time>2026-04-04T14:05:00.729Z</time></trkpt><trkpt lat="43.047115" lon="12.9056783"><ele>752.0</ele><time>2026-04-04T14:05:01.73Z</time></trkpt><trkpt lat="43.0470117" lon="12.9053767"><ele>752.5</ele><time>2026-04-04T14:05:02.744Z</time></trkpt><trkpt lat="43.0469167" lon="12.90507"><ele>753.0</ele><time>2026-04-04T14:05:03.728Z</time></trkpt><trkpt lat="43.0468267" lon="12.9047567"><ele>753.0</ele><time>2026-04-04T14:05:04.727Z</time></trkpt><trkpt lat="43.0467417" lon="12.90444"><ele>753.0</ele><time>2026-04-04T14:05:05.729Z</time></trkpt><trkpt lat="43.04666" lon="12.9041217"><ele>752.5</ele><time>2026-04-04T14:05:06.728Z</time></trkpt><trkpt lat="43.0465817" lon="12.90381"><ele>752.0</ele><time>2026-04-04T14:05:07.73Z</time></trkpt><trkpt lat="43.0465033" lon="12.9035017"><ele>751.5</ele><time>2026-04-04T14:05:08.727Z</time></trkpt><trkpt lat="43.0464283" lon="12.903195"><ele>751.0</ele><time>2026-04-04T14:05:09.727Z</time></trkpt><trkpt lat="43.046355" lon="12.9028917"><ele>751.0</ele><time>2026-04-04T14:05:10.727Z</time></trkpt><trkpt lat="43.0462867" lon="12.9025983"><ele>751.0</ele><time>2026-04-04T14:05:11.728Z</time></trkpt><trkpt lat="43.046225" lon="12.9023167"><ele>751.0</ele><time>2026-04-04T14:05:12.729Z</time></trkpt><trkpt lat="43.0461717" lon="12.9020433"><ele>751.0</ele><time>2026-04-04T14:05:13.729Z</time></trkpt><trkpt lat="43.0461267" lon="12.90177"><ele>751.0</ele><time>2026-04-04T14:05:14.729Z</time></trkpt><trkpt lat="43.0460867" lon="12.9014867"><ele>751.0</ele><time>2026-04-04T14:05:15.734Z</time></trkpt><trkpt lat="43.0460483" lon="12.9011967"><ele>751.6666666666667</ele><time>2026-04-04T14:05:16.726Z</time></trkpt><trkpt lat="43.0460133" lon="12.9009067"><ele>752.3333333333334</ele><time>2026-04-04T14:05:17.728Z</time></trkpt><trkpt lat="43.045975" lon="12.9006217"><ele>753.0</ele><time>2026-04-04T14:05:18.725Z</time></trkpt><trkpt lat="43.04593" lon="12.9003483"><ele>752.6666666666666</ele><time>2026-04-04T14:05:19.73Z</time></trkpt><trkpt lat="43.04588" lon="12.9000783"><ele>752.3333333333333</ele><time>2026-04-04T14:05:20.73Z</time></trkpt><trkpt lat="43.0458267" lon="12.899815"><ele>752.0</ele><time>2026-04-04T14:05:21.728Z</time></trkpt><trkpt lat="43.0457633" lon="12.89955"><ele>752.0</ele><time>2026-04-04T14:05:22.726Z</time></trkpt><trkpt lat="43.0456867" lon="12.899295"><ele>752.0</ele><time>2026-04-04T14:05:23.728Z</time></trkpt><trkpt lat="43.0455933" lon="12.8990567"><ele>752.0</ele><time>2026-04-04T14:05:24.728Z</time></trkpt><trkpt lat="43.04548" lon="12.898835"><ele>752.0</ele><time>2026-04-04T14:05:25.731Z</time></trkpt><trkpt lat="43.04535" lon="12.8986317"><ele>752.0</ele><time>2026-04-04T14:05:26.729Z</time></trkpt><trkpt lat="43.0452033" lon="12.8984483"><ele>752.0</ele><time>2026-04-04T14:05:27.726Z</time></trkpt><trkpt lat="43.0450433" lon="12.89829"><ele>755.3333333333333</ele><time>2026-04-04T14:05:28.727Z</time></trkpt><trkpt lat="43.04487" lon="12.8981617"><ele>758.6666666666666</ele><time>2026-04-04T14:05:29.727Z</time></trkpt><trkpt lat="43.04469" lon="12.8980567"><ele>762.0</ele><time>2026-04-04T14:05:30.73Z</time></trkpt><trkpt lat="43.0445067" lon="12.897985"><ele>762.0</ele><time>2026-04-04T14:05:31.73Z</time></trkpt><trkpt lat="43.0443217" lon="12.8979433"><ele>762.0</ele><time>2026-04-04T14:05:32.729Z</time></trkpt><trkpt lat="43.0441383" lon="12.8979133"><ele>762.0</ele><time>2026-04-04T14:05:33.728Z</time></trkpt><trkpt lat="43.0439583" lon="12.89789"><ele>760.3333333333334</ele><time>2026-04-04T14:05:34.727Z</time></trkpt><trkpt lat="43.0437833" lon="12.8978683"><ele>758.6666666666667</ele><time>2026-04-04T14:05:35.726Z</time></trkpt><trkpt lat="43.04362" lon="12.8978583"><ele>757.0</ele><time>2026-04-04T14:05:36.726Z</time></trkpt><trkpt lat="43.0434633" lon="12.8978517"><ele>757.0</ele><time>2026-04-04T14:05:37.727Z</time></trkpt><trkpt lat="43.0433067" lon="12.897855"><ele>757.0</ele><time>2026-04-04T14:05:38.727Z</time></trkpt><trkpt lat="43.0431467" lon="12.8978617"><ele>757.0</ele><time>2026-04-04T14:05:39.728Z</time></trkpt><trkpt lat="43.0429883" lon="12.89787"><ele>757.3333333333334</ele><time>2026-04-04T14:05:40.724Z</time></trkpt><trkpt lat="43.0428267" lon="12.897885"><ele>757.6666666666666</ele><time>2026-04-04T14:05:41.726Z</time></trkpt><trkpt lat="43.04266" lon="12.8979017"><ele>758.0</ele><time>2026-04-04T14:05:42.727Z</time></trkpt><trkpt lat="43.04249" lon="12.8979183"><ele>756.6666666666666</ele><time>2026-04-04T14:05:43.727Z</time></trkpt><trkpt lat="43.0423233" lon="12.8979333"><ele>755.3333333333334</ele><time>2026-04-04T14:05:44.729Z</time></trkpt><trkpt lat="43.042155" lon="12.8979467"><ele>754.0</ele><time>2026-04-04T14:05:45.727Z</time></trkpt><trkpt lat="43.0419783" lon="12.8979633"><ele>754.0</ele><time>2026-04-04T14:05:46.725Z</time></trkpt><trkpt lat="43.0417967" lon="12.8979733"><ele>754.0</ele><time>2026-04-04T14:05:47.725Z</time></trkpt><trkpt lat="43.04162" lon="12.89798"><ele>754.0</ele><time>2026-04-04T14:05:48.727Z</time></trkpt><trkpt lat="43.0414467" lon="12.89798"><ele>754.0</ele><time>2026-04-04T14:05:49.729Z</time></trkpt><trkpt lat="43.041275" lon="12.8979833"><ele>754.0</ele><time>2026-04-04T14:05:50.728Z</time></trkpt><trkpt lat="43.0411" lon="12.897985"><ele>754.0</ele><time>2026-04-04T14:05:51.725Z</time></trkpt><trkpt lat="43.0409233" lon="12.8979867"><ele>754.0</ele><time>2026-04-04T14:05:52.728Z</time></trkpt><trkpt lat="43.040745" lon="12.8979833"><ele>754.0</ele><time>2026-04-04T14:05:53.728Z</time></trkpt><trkpt lat="43.040565" lon="12.8979767"><ele>754.0</ele><time>2026-04-04T14:05:54.728Z</time></trkpt><trkpt lat="43.0403833" lon="12.89796"><ele>754.0</ele><time>2026-04-04T14:05:55.728Z</time></trkpt><trkpt lat="43.0402017" lon="12.8979333"><ele>754.0</ele><time>2026-04-04T14:05:56.73Z</time></trkpt><trkpt lat="43.0400233" lon="12.8978933"><ele>754.0</ele><time>2026-04-04T14:05:57.728Z</time></trkpt><trkpt lat="43.039845" lon="12.8978467"><ele>754.6666666666667</ele><time>2026-04-04T14:05:58.726Z</time></trkpt><trkpt lat="43.0396667" lon="12.897795"><ele>755.3333333333334</ele><time>2026-04-04T14:05:59.728Z</time></trkpt><trkpt lat="43.03949" lon="12.8977417"><ele>756.0</ele><time>2026-04-04T14:06:00.73Z</time></trkpt><trkpt lat="43.0393183" lon="12.8976867"><ele>756.0</ele><time>2026-04-04T14:06:01.729Z</time></trkpt><trkpt lat="43.039145" lon="12.897635"><ele>756.0</ele><time>2026-04-04T14:06:02.73Z</time></trkpt><trkpt lat="43.0389683" lon="12.897575"><ele>756.0</ele><time>2026-04-04T14:06:03.726Z</time></trkpt><trkpt lat="43.0387883" lon="12.8975083"><ele>756.0</ele><time>2026-04-04T14:06:04.724Z</time></trkpt><trkpt lat="43.03861" lon="12.8974317"><ele>756.0</ele><time>2026-04-04T14:06:05.729Z</time></trkpt><trkpt lat="43.038435" lon="12.8973483"><ele>756.0</ele><time>2026-04-04T14:06:06.725Z</time></trkpt><trkpt lat="43.038265" lon="12.8972633"><ele>756.0</ele><time>2026-04-04T14:06:07.729Z</time></trkpt><trkpt lat="43.038095" lon="12.897175"><ele>756.0</ele><time>2026-04-04T14:06:08.729Z</time></trkpt><trkpt lat="43.0379217" lon="12.8970817"><ele>756.0</ele><time>2026-04-04T14:06:09.726Z</time></trkpt><trkpt lat="43.0377483" lon="12.89699"><ele>756.0</ele><time>2026-04-04T14:06:10.727Z</time></trkpt><trkpt lat="43.0375717" lon="12.8968967"><ele>756.0</ele><time>2026-04-04T14:06:11.728Z</time></trkpt><trkpt lat="43.037395" lon="12.8968033"><ele>756.0</ele><time>2026-04-04T14:06:12.727Z</time></trkpt><trkpt lat="43.03722" lon="12.89671"><ele>756.6666666666666</ele><time>2026-04-04T14:06:13.731Z</time></trkpt><trkpt lat="43.0370483" lon="12.896615"><ele>757.3333333333333</ele><time>2026-04-04T14:06:14.732Z</time></trkpt><trkpt lat="43.03688" lon="12.8965233"><ele>758.0</ele><time>2026-04-04T14:06:15.727Z</time></trkpt><trkpt lat="43.036715" lon="12.8964333"><ele>758.3333333333333</ele><time>2026-04-04T14:06:16.725Z</time></trkpt><trkpt lat="43.0365467" lon="12.89634"><ele>758.6666666666666</ele><time>2026-04-04T14:06:17.726Z</time></trkpt><trkpt lat="43.0363783" lon="12.896245"><ele>759.0</ele><time>2026-04-04T14:06:18.728Z</time></trkpt><trkpt lat="43.0362167" lon="12.896155"><ele>759.0</ele><time>2026-04-04T14:06:19.728Z</time></trkpt><trkpt lat="43.03606" lon="12.8960633"><ele>759.0</ele><time>2026-04-04T14:06:20.729Z</time></trkpt><trkpt lat="43.0358983" lon="12.8959633"><ele>759.0</ele><time>2026-04-04T14:06:21.727Z</time></trkpt><trkpt lat="43.0357333" lon="12.8958667"><ele>759.3333333333334</ele><time>2026-04-04T14:06:22.728Z</time></trkpt><trkpt lat="43.0355683" lon="12.8957733"><ele>759.6666666666667</ele><time>2026-04-04T14:06:23.729Z</time></trkpt><trkpt lat="43.0354033" lon="12.8956783"><ele>760.0</ele><time>2026-04-04T14:06:24.732Z</time></trkpt><trkpt lat="43.035235" lon="12.89558"><ele>760.0</ele><time>2026-04-04T14:06:25.731Z</time></trkpt><trkpt lat="43.0350683" lon="12.8954817"><ele>760.0</ele><time>2026-04-04T14:06:26.728Z</time></trkpt><trkpt lat="43.0348967" lon="12.8953833"><ele>760.0</ele><time>2026-04-04T14:06:27.73Z</time></trkpt><trkpt lat="43.0347283" lon="12.8952883"><ele>759.3333333333334</ele><time>2026-04-04T14:06:28.727Z</time></trkpt><trkpt lat="43.0345667" lon="12.895195"><ele>758.6666666666666</ele><time>2026-04-04T14:06:29.729Z</time></trkpt><trkpt lat="43.0344067" lon="12.8951017"><ele>758.0</ele><time>2026-04-04T14:06:30.729Z</time></trkpt><trkpt lat="43.034245" lon="12.8950067"><ele>758.0</ele><time>2026-04-04T14:06:31.726Z</time></trkpt><trkpt lat="43.0340783" lon="12.8949083"><ele>758.0</ele><time>2026-04-04T14:06:32.739Z</time></trkpt><trkpt lat="43.0339167" lon="12.89481"><ele>758.0</ele><time>2026-04-04T14:06:33.728Z</time></trkpt><trkpt lat="43.0337583" lon="12.8947167"><ele>758.0</ele><time>2026-04-04T14:06:34.728Z</time></trkpt><trkpt lat="43.03361" lon="12.89463"><ele>758.0</ele><time>2026-04-04T14:06:35.728Z</time></trkpt><trkpt lat="43.0334667" lon="12.8945467"><ele>758.0</ele><time>2026-04-04T14:06:36.729Z</time></trkpt><trkpt lat="43.0333283" lon="12.894465"><ele>758.25</ele><time>2026-04-04T14:06:37.729Z</time></trkpt><trkpt lat="43.0331917" lon="12.894385"><ele>758.5</ele><time>2026-04-04T14:06:38.726Z</time></trkpt><trkpt lat="43.03306" lon="12.8943067"><ele>758.75</ele><time>2026-04-04T14:06:39.726Z</time></trkpt><trkpt lat="43.0329317" lon="12.8942317"><ele>759.0</ele><time>2026-04-04T14:06:40.726Z</time></trkpt><trkpt lat="43.0328033" lon="12.894155"><ele>758.75</ele><time>2026-04-04T14:06:41.724Z</time></trkpt><trkpt lat="43.0326783" lon="12.8940767"><ele>758.5</ele><time>2026-04-04T14:06:42.73Z</time></trkpt><trkpt lat="43.0325533" lon="12.8940017"><ele>758.25</ele><time>2026-04-04T14:06:43.726Z</time></trkpt><trkpt lat="43.0324283" lon="12.8939283"><ele>758.0</ele><time>2026-04-04T14:06:44.731Z</time></trkpt><trkpt lat="43.0323067" lon="12.8938567"><ele>758.0</ele><time>2026-04-04T14:06:45.727Z</time></trkpt><trkpt lat="43.03219" lon="12.89378"><ele>758.0</ele><time>2026-04-04T14:06:46.729Z</time></trkpt><trkpt lat="43.0320783" lon="12.8937033"><ele>758.0</ele><time>2026-04-04T14:06:47.73Z</time></trkpt><trkpt lat="43.0319767" lon="12.89363"><ele>758.0</ele><time>2026-04-04T14:06:48.725Z</time></trkpt><trkpt lat="43.0318867" lon="12.8935683"><ele>758.0</ele><time>2026-04-04T14:06:49.726Z</time></trkpt><trkpt lat="43.03181" lon="12.8935117"><ele>758.0</ele><time>2026-04-04T14:06:50.728Z</time></trkpt><trkpt lat="43.0317483" lon="12.893465"><ele>758.0</ele><time>2026-04-04T14:06:51.725Z</time></trkpt><trkpt lat="43.0316533" lon="12.8934183"><ele>758.0</ele><time>2026-04-04T14:06:53.729Z</time></trkpt><trkpt lat="43.03157" lon="12.89342"><ele>758.0</ele><time>2026-04-04T14:06:55.73Z</time></trkpt><trkpt lat="43.031495" lon="12.8933983"><ele>758.0</ele><time>2026-04-04T14:06:57.735Z</time></trkpt><trkpt lat="43.0314217" lon="12.89343"><ele>758.0</ele><time>2026-04-04T14:07:00.728Z</time></trkpt><trkpt lat="43.031365" lon="12.8935183"><ele>758.0</ele><time>2026-04-04T14:07:03.727Z</time></trkpt><trkpt lat="43.0313983" lon="12.8936333"><ele>758.0</ele><time>2026-04-04T14:09:11.728Z</time></trkpt><trkpt lat="43.0313" lon="12.89365"><ele>758.0</ele><time>2026-04-04T14:09:18.727Z</time></trkpt><trkpt lat="43.03122" lon="12.8936533"><ele>758.0</ele><time>2026-04-04T14:09:22.727Z</time></trkpt><trkpt lat="43.031315" lon="12.893665"><ele>758.0</ele><time>2026-04-04T14:09:40.729Z</time></trkpt><trkpt lat="43.0314" lon="12.8936267"><ele>758.0</ele><time>2026-04-04T14:09:56.73Z</time></trkpt><trkpt lat="43.03146" lon="12.893575"><ele>758.0</ele><time>2026-04-04T14:10:00.73Z</time></trkpt><trkpt lat="43.0314931" lon="12.893773"><ele>758.0</ele><time>2026-04-04T14:10:31.913Z</time></trkpt><trkpt lat="43.0314286" lon="12.8937025"><ele>758.0</ele><time>2026-04-04T14:16:23.755Z</time></trkpt><trkpt lat="43.031382" lon="12.8936345"><ele>758.0</ele><time>2026-04-04T14:16:34.726Z</time></trkpt><trkpt lat="43.0313657" lon="12.8934959"><ele>758.0</ele><time>2026-04-04T14:24:03.729Z</time></trkpt><trkpt lat="43.0314267" lon="12.893469"><ele>758.0</ele><time>2026-04-04T14:24:07.729Z</time></trkpt><trkpt lat="43.0313333" lon="12.8934567"><ele>758.0</ele><time>2026-04-04T14:31:44.727Z</time></trkpt><trkpt lat="43.0313033" lon="12.8933733"><ele>758.0</ele><time>2026-04-04T14:31:46.726Z</time></trkpt><trkpt lat="43.0312783" lon="12.8932767"><ele>758.0</ele><time>2026-04-04T14:31:48.729Z</time></trkpt><trkpt lat="43.0312567" lon="12.89318"><ele>758.5999999999999</ele><time>2026-04-04T14:31:50.726Z</time></trkpt><trkpt lat="43.03121" lon="12.893075"><ele>759.1999999999999</ele><time>2026-04-04T14:31:52.726Z</time></trkpt><trkpt lat="43.0311183" lon="12.89296"><ele>759.8</ele><time>2026-04-04T14:31:54.726Z</time></trkpt><trkpt lat="43.0310583" lon="12.892905"><ele>760.4</ele><time>2026-04-04T14:31:55.726Z</time></trkpt><trkpt lat="43.030975" lon="12.8928417"><ele>761.0</ele><time>2026-04-04T14:31:56.728Z</time></trkpt><trkpt lat="43.0308783" lon="12.892765"><ele>761.0</ele><time>2026-04-04T14:31:57.727Z</time></trkpt><trkpt lat="43.030775" lon="12.8926833"><ele>761.0</ele><time>2026-04-04T14:31:58.729Z</time></trkpt><trkpt lat="43.0306667" lon="12.8925983"><ele>761.0</ele><time>2026-04-04T14:31:59.73Z</time></trkpt><trkpt lat="43.03056" lon="12.8925083"><ele>761.0</ele><time>2026-04-04T14:32:00.732Z</time></trkpt><trkpt lat="43.030445" lon="12.892425"><ele>761.0</ele><time>2026-04-04T14:32:01.728Z</time></trkpt><trkpt lat="43.0303283" lon="12.892335"><ele>761.0</ele><time>2026-04-04T14:32:02.728Z</time></trkpt><trkpt lat="43.0302067" lon="12.8922467"><ele>761.0</ele><time>2026-04-04T14:32:03.729Z</time></trkpt><trkpt lat="43.030085" lon="12.8921517"><ele>761.0</ele><time>2026-04-04T14:32:04.729Z</time></trkpt><trkpt lat="43.0299617" lon="12.8920517"><ele>760.75</ele><time>2026-04-04T14:32:05.724Z</time></trkpt><trkpt lat="43.029835" lon="12.89196"><ele>760.5</ele><time>2026-04-04T14:32:06.733Z</time></trkpt><trkpt lat="43.02971" lon="12.8918717"><ele>760.25</ele><time>2026-04-04T14:32:07.731Z</time></trkpt><trkpt lat="43.0295883" lon="12.8918033"><ele>760.0</ele><time>2026-04-04T14:32:08.725Z</time></trkpt><trkpt lat="43.02947" lon="12.891745"><ele>760.0</ele><time>2026-04-04T14:32:09.731Z</time></trkpt><trkpt lat="43.0293567" lon="12.8916867"><ele>760.0</ele><time>2026-04-04T14:32:10.732Z</time></trkpt><trkpt lat="43.0292433" lon="12.89163"><ele>760.0</ele><time>2026-04-04T14:32:11.732Z</time></trkpt><trkpt lat="43.0291333" lon="12.8915717"><ele>760.0</ele><time>2026-04-04T14:32:12.729Z</time></trkpt><trkpt lat="43.0290333" lon="12.8915283"><ele>760.6666666666667</ele><time>2026-04-04T14:32:13.731Z</time></trkpt><trkpt lat="43.0289417" lon="12.8914833"><ele>761.3333333333334</ele><time>2026-04-04T14:32:14.727Z</time></trkpt><trkpt lat="43.0288517" lon="12.8914433"><ele>762.0</ele><time>2026-04-04T14:32:15.724Z</time></trkpt><trkpt lat="43.0287733" lon="12.8914067"><ele>762.6666666666666</ele><time>2026-04-04T14:32:16.728Z</time></trkpt><trkpt lat="43.0287033" lon="12.8913733"><ele>763.3333333333333</ele><time>2026-04-04T14:32:17.728Z</time></trkpt><trkpt lat="43.0286383" lon="12.8913433"><ele>764.0</ele><time>2026-04-04T14:32:18.727Z</time></trkpt><trkpt lat="43.0285233" lon="12.891345"><ele>764.0</ele><time>2026-04-04T14:32:20.734Z</time></trkpt><trkpt lat="43.0284567" lon="12.8914667"><ele>764.0</ele><time>2026-04-04T14:32:22.727Z</time></trkpt><trkpt lat="43.02844" lon="12.8915833"><ele>764.0</ele><time>2026-04-04T14:32:23.728Z</time></trkpt><trkpt lat="43.0284367" lon="12.8917217"><ele>764.0</ele><time>2026-04-04T14:32:24.731Z</time></trkpt><trkpt lat="43.0284733" lon="12.8919083"><ele>764.0</ele><time>2026-04-04T14:32:25.728Z</time></trkpt><trkpt lat="43.028505" lon="12.8920883"><ele>764.25</ele><time>2026-04-04T14:32:26.732Z</time></trkpt><trkpt lat="43.0285433" lon="12.892265"><ele>764.5</ele><time>2026-04-04T14:32:27.728Z</time></trkpt><trkpt lat="43.02857" lon="12.8924267"><ele>764.75</ele><time>2026-04-04T14:32:28.726Z</time></trkpt><trkpt lat="43.0285933" lon="12.8925833"><ele>765.0</ele><time>2026-04-04T14:32:29.726Z</time></trkpt><trkpt lat="43.028615" lon="12.892735"><ele>765.0</ele><time>2026-04-04T14:32:30.729Z</time></trkpt><trkpt lat="43.0286333" lon="12.8928883"><ele>765.0</ele><time>2026-04-04T14:32:31.728Z</time></trkpt><trkpt lat="43.0286567" lon="12.89304"><ele>765.0</ele><time>2026-04-04T14:32:32.73Z</time></trkpt><trkpt lat="43.02867" lon="12.893185"><ele>765.0</ele><time>2026-04-04T14:32:33.727Z</time></trkpt><trkpt lat="43.0286967" lon="12.89332"><ele>765.0</ele><time>2026-04-04T14:32:34.73Z</time></trkpt><trkpt lat="43.0287217" lon="12.8934683"><ele>764.0</ele><time>2026-04-04T14:32:35.73Z</time></trkpt><trkpt lat="43.02875" lon="12.89364"><ele>763.0</ele><time>2026-04-04T14:32:36.729Z</time></trkpt><trkpt lat="43.0287783" lon="12.8938367"><ele>762.0</ele><time>2026-04-04T14:32:37.729Z</time></trkpt><trkpt lat="43.0287933" lon="12.8940483"><ele>761.0</ele><time>2026-04-04T14:32:38.732Z</time></trkpt><trkpt lat="43.0288017" lon="12.8942733"><ele>760.6666666666666</ele><time>2026-04-04T14:32:39.726Z</time></trkpt><trkpt lat="43.028795" lon="12.894495"><ele>760.3333333333334</ele><time>2026-04-04T14:32:40.728Z</time></trkpt><trkpt lat="43.0287833" lon="12.8947183"><ele>760.0</ele><time>2026-04-04T14:32:41.728Z</time></trkpt><trkpt lat="43.0287667" lon="12.894945"><ele>760.3333333333334</ele><time>2026-04-04T14:32:42.73Z</time></trkpt><trkpt lat="43.028745" lon="12.89518"><ele>760.6666666666666</ele><time>2026-04-04T14:32:43.725Z</time></trkpt><trkpt lat="43.02872" lon="12.8954133"><ele>761.0</ele><time>2026-04-04T14:32:44.728Z</time></trkpt><trkpt lat="43.028695" lon="12.8956483"><ele>761.0</ele><time>2026-04-04T14:32:45.726Z</time></trkpt><trkpt lat="43.02867" lon="12.8958783"><ele>761.0</ele><time>2026-04-04T14:32:46.728Z</time></trkpt><trkpt lat="43.02865" lon="12.8961017"><ele>761.0</ele><time>2026-04-04T14:32:47.725Z</time></trkpt><trkpt lat="43.0286333" lon="12.89633"><ele>760.6666666666666</ele><time>2026-04-04T14:32:48.728Z</time></trkpt><trkpt lat="43.02862" lon="12.8965567"><ele>760.3333333333334</ele><time>2026-04-04T14:32:49.727Z</time></trkpt><trkpt lat="43.028615" lon="12.8967817"><ele>760.0</ele><time>2026-04-04T14:32:50.73Z</time></trkpt><trkpt lat="43.02861" lon="12.89701"><ele>760.0</ele><time>2026-04-04T14:32:51.736Z</time></trkpt><trkpt lat="43.028605" lon="12.89724"><ele>760.0</ele><time>2026-04-04T14:32:52.728Z</time></trkpt><trkpt lat="43.0286067" lon="12.8974567"><ele>760.0</ele><time>2026-04-04T14:32:53.726Z</time></trkpt><trkpt lat="43.028605" lon="12.8976667"><ele>760.0</ele><time>2026-04-04T14:32:54.727Z</time></trkpt><trkpt lat="43.0286" lon="12.89786"><ele>760.0</ele><time>2026-04-04T14:32:55.727Z</time></trkpt><trkpt lat="43.0286017" lon="12.8980467"><ele>760.0</ele><time>2026-04-04T14:32:56.728Z</time></trkpt><trkpt lat="43.0286017" lon="12.8982267"><ele>760.0</ele><time>2026-04-04T14:32:57.73Z</time></trkpt><trkpt lat="43.0286" lon="12.8983867"><ele>760.2</ele><time>2026-04-04T14:32:58.727Z</time></trkpt><trkpt lat="43.0285917" lon="12.8985417"><ele>760.4</ele><time>2026-04-04T14:32:59.726Z</time></trkpt><trkpt lat="43.028565" lon="12.8986817"><ele>760.5999999999999</ele><time>2026-04-04T14:33:00.726Z</time></trkpt><trkpt lat="43.0285333" lon="12.8988017"><ele>760.8</ele><time>2026-04-04T14:33:01.728Z</time></trkpt><trkpt lat="43.028515" lon="12.8989233"><ele>761.0</ele><time>2026-04-04T14:33:02.727Z</time></trkpt><trkpt lat="43.0285217" lon="12.89903"><ele>761.0</ele><time>2026-04-04T14:33:03.725Z</time></trkpt><trkpt lat="43.0285617" lon="12.8991367"><ele>761.0</ele><time>2026-04-04T14:33:04.728Z</time></trkpt><trkpt lat="43.0286283" lon="12.8992533"><ele>761.0</ele><time>2026-04-04T14:33:05.733Z</time></trkpt><trkpt lat="43.0287183" lon="12.8994117"><ele>761.0</ele><time>2026-04-04T14:33:06.727Z</time></trkpt><trkpt lat="43.0287917" lon="12.8995883"><ele>760.3333333333333</ele><time>2026-04-04T14:33:07.726Z</time></trkpt><trkpt lat="43.0288633" lon="12.8997817"><ele>759.6666666666666</ele><time>2026-04-04T14:33:08.727Z</time></trkpt><trkpt lat="43.028935" lon="12.89999"><ele>759.0</ele><time>2026-04-04T14:33:09.728Z</time></trkpt><trkpt lat="43.0290117" lon="12.9002067"><ele>758.6666666666666</ele><time>2026-04-04T14:33:10.727Z</time></trkpt><trkpt lat="43.0290883" lon="12.9004233"><ele>758.3333333333333</ele><time>2026-04-04T14:33:11.728Z</time></trkpt><trkpt lat="43.0291733" lon="12.900635"><ele>758.0</ele><time>2026-04-04T14:33:12.727Z</time></trkpt><trkpt lat="43.0292683" lon="12.9008433"><ele>758.0</ele><time>2026-04-04T14:33:13.726Z</time></trkpt><trkpt lat="43.029375" lon="12.9010533"><ele>758.0</ele><time>2026-04-04T14:33:14.751Z</time></trkpt><trkpt lat="43.0294883" lon="12.9012567"><ele>758.0</ele><time>2026-04-04T14:33:15.728Z</time></trkpt><trkpt lat="43.0296017" lon="12.9014533"><ele>758.0</ele><time>2026-04-04T14:33:16.727Z</time></trkpt><trkpt lat="43.02971" lon="12.90164"><ele>758.0</ele><time>2026-04-04T14:33:17.728Z</time></trkpt><trkpt lat="43.029815" lon="12.90183"><ele>758.0</ele><time>2026-04-04T14:33:18.727Z</time></trkpt><trkpt lat="43.0299283" lon="12.9020317"><ele>758.0</ele><time>2026-04-04T14:33:19.728Z</time></trkpt><trkpt lat="43.0300483" lon="12.9022367"><ele>758.0</ele><time>2026-04-04T14:33:20.729Z</time></trkpt><trkpt lat="43.03017" lon="12.9024433"><ele>758.0</ele><time>2026-04-04T14:33:21.729Z</time></trkpt><trkpt lat="43.0302933" lon="12.9026467"><ele>758.0</ele><time>2026-04-04T14:33:22.731Z</time></trkpt><trkpt lat="43.0304083" lon="12.9028417"><ele>758.0</ele><time>2026-04-04T14:33:23.729Z</time></trkpt><trkpt lat="43.0305167" lon="12.9030267"><ele>758.0</ele><time>2026-04-04T14:33:24.731Z</time></trkpt><trkpt lat="43.0306217" lon="12.9032083"><ele>758.0</ele><time>2026-04-04T14:33:25.728Z</time></trkpt><trkpt lat="43.03073" lon="12.9033933"><ele>758.0</ele><time>2026-04-04T14:33:26.73Z</time></trkpt><trkpt lat="43.0308283" lon="12.9035817"><ele>758.0</ele><time>2026-04-04T14:33:27.727Z</time></trkpt><trkpt lat="43.030895" lon="12.9037767"><ele>758.25</ele><time>2026-04-04T14:33:28.729Z</time></trkpt><trkpt lat="43.0309283" lon="12.9039767"><ele>758.5</ele><time>2026-04-04T14:33:29.726Z</time></trkpt><trkpt lat="43.0309083" lon="12.9041683"><ele>758.75</ele><time>2026-04-04T14:33:30.729Z</time></trkpt><trkpt lat="43.030845" lon="12.9043467"><ele>759.0</ele><time>2026-04-04T14:33:31.728Z</time></trkpt><trkpt lat="43.0307383" lon="12.904515"><ele>758.3333333333334</ele><time>2026-04-04T14:33:32.728Z</time></trkpt><trkpt lat="43.0306" lon="12.904675"><ele>757.6666666666667</ele><time>2026-04-04T14:33:33.726Z</time></trkpt><trkpt lat="43.0304517" lon="12.9048333"><ele>757.0</ele><time>2026-04-04T14:33:34.726Z</time></trkpt><trkpt lat="43.0303033" lon="12.9049917"><ele>757.3333333333334</ele><time>2026-04-04T14:33:35.732Z</time></trkpt><trkpt lat="43.0301567" lon="12.90515"><ele>757.6666666666666</ele><time>2026-04-04T14:33:36.729Z</time></trkpt><trkpt lat="43.0300167" lon="12.9053017"><ele>758.0</ele><time>2026-04-04T14:33:37.728Z</time></trkpt><trkpt lat="43.0298867" lon="12.9054567"><ele>758.0</ele><time>2026-04-04T14:33:38.728Z</time></trkpt><trkpt lat="43.029765" lon="12.9056167"><ele>758.0</ele><time>2026-04-04T14:33:39.727Z</time></trkpt><trkpt lat="43.0296583" lon="12.9057983"><ele>758.0</ele><time>2026-04-04T14:33:40.726Z</time></trkpt><trkpt lat="43.029575" lon="12.9060017"><ele>758.0</ele><time>2026-04-04T14:33:41.726Z</time></trkpt><trkpt lat="43.0295017" lon="12.9062117"><ele>758.0</ele><time>2026-04-04T14:33:42.725Z</time></trkpt><trkpt lat="43.0294333" lon="12.90643"><ele>758.0</ele><time>2026-04-04T14:33:43.725Z</time></trkpt><trkpt lat="43.0293717" lon="12.906675"><ele>758.0</ele><time>2026-04-04T14:33:44.73Z</time></trkpt><trkpt lat="43.0293067" lon="12.906935"><ele>758.0</ele><time>2026-04-04T14:33:45.727Z</time></trkpt><trkpt lat="43.0292467" lon="12.9071983"><ele>758.0</ele><time>2026-04-04T14:33:46.724Z</time></trkpt><trkpt lat="43.0291883" lon="12.90746"><ele>759.6666666666666</ele><time>2026-04-04T14:33:47.727Z</time></trkpt><trkpt lat="43.02914" lon="12.9077167"><ele>761.3333333333334</ele><time>2026-04-04T14:33:48.727Z</time></trkpt><trkpt lat="43.029085" lon="12.9079717"><ele>763.0</ele><time>2026-04-04T14:33:49.727Z</time></trkpt><trkpt lat="43.029015" lon="12.90822"><ele>762.3333333333334</ele><time>2026-04-04T14:33:50.738Z</time></trkpt><trkpt lat="43.0289367" lon="12.908455"><ele>761.6666666666666</ele><time>2026-04-04T14:33:51.727Z</time></trkpt><trkpt lat="43.02884" lon="12.90868"><ele>761.0</ele><time>2026-04-04T14:33:52.727Z</time></trkpt><trkpt lat="43.0287233" lon="12.908895"><ele>761.0</ele><time>2026-04-04T14:33:53.728Z</time></trkpt><trkpt lat="43.0285967" lon="12.9090967"><ele>761.0</ele><time>2026-04-04T14:33:54.728Z</time></trkpt><trkpt lat="43.0284667" lon="12.9092933"><ele>761.0</ele><time>2026-04-04T14:33:55.728Z</time></trkpt><trkpt lat="43.02834" lon="12.9094883"><ele>761.6666666666666</ele><time>2026-04-04T14:33:56.726Z</time></trkpt><trkpt lat="43.0282217" lon="12.90969"><ele>762.3333333333334</ele><time>2026-04-04T14:33:57.726Z</time></trkpt><trkpt lat="43.0281083" lon="12.9099017"><ele>763.0</ele><time>2026-04-04T14:33:58.727Z</time></trkpt><trkpt lat="43.0280133" lon="12.9101233"><ele>763.0</ele><time>2026-04-04T14:33:59.729Z</time></trkpt><trkpt lat="43.0279333" lon="12.9103467"><ele>763.0</ele><time>2026-04-04T14:34:00.727Z</time></trkpt><trkpt lat="43.027875" lon="12.910585"><ele>763.0</ele><time>2026-04-04T14:34:01.729Z</time></trkpt><trkpt lat="43.027845" lon="12.9108483"><ele>762.6666666666667</ele><time>2026-04-04T14:34:02.729Z</time></trkpt><trkpt lat="43.0278483" lon="12.9111267"><ele>762.3333333333334</ele><time>2026-04-04T14:34:03.726Z</time></trkpt><trkpt lat="43.0278583" lon="12.9114167"><ele>762.0</ele><time>2026-04-04T14:34:04.726Z</time></trkpt><trkpt lat="43.02787" lon="12.9117133"><ele>762.3333333333334</ele><time>2026-04-04T14:34:05.726Z</time></trkpt><trkpt lat="43.0278817" lon="12.912015"><ele>762.6666666666667</ele><time>2026-04-04T14:34:06.726Z</time></trkpt><trkpt lat="43.027895" lon="12.9123167"><ele>763.0</ele><time>2026-04-04T14:34:07.734Z</time></trkpt><trkpt lat="43.027905" lon="12.9126117"><ele>763.0</ele><time>2026-04-04T14:34:08.73Z</time></trkpt><trkpt lat="43.0279167" lon="12.9129067"><ele>763.0</ele><time>2026-04-04T14:34:09.727Z</time></trkpt><trkpt lat="43.0279333" lon="12.913195"><ele>763.0</ele><time>2026-04-04T14:34:10.731Z</time></trkpt><trkpt lat="43.0279567" lon="12.91348"><ele>763.0</ele><time>2026-04-04T14:34:11.727Z</time></trkpt><trkpt lat="43.0279767" lon="12.9137583"><ele>763.0</ele><time>2026-04-04T14:34:12.729Z</time></trkpt><trkpt lat="43.0280017" lon="12.9140333"><ele>763.0</ele><time>2026-04-04T14:34:13.727Z</time></trkpt><trkpt lat="43.0280233" lon="12.914305"><ele>762.3333333333334</ele><time>2026-04-04T14:34:14.728Z</time></trkpt><trkpt lat="43.0280433" lon="12.9145683"><ele>761.6666666666666</ele><time>2026-04-04T14:34:15.728Z</time></trkpt><trkpt lat="43.0280667" lon="12.9148183"><ele>761.0</ele><time>2026-04-04T14:34:16.728Z</time></trkpt><trkpt lat="43.0280867" lon="12.9150583"><ele>761.0</ele><time>2026-04-04T14:34:17.724Z</time></trkpt><trkpt lat="43.0281067" lon="12.9152883"><ele>761.0</ele><time>2026-04-04T14:34:18.726Z</time></trkpt><trkpt lat="43.0281233" lon="12.9155133"><ele>761.0</ele><time>2026-04-04T14:34:19.741Z</time></trkpt><trkpt lat="43.0281467" lon="12.915735"><ele>761.6666666666666</ele><time>2026-04-04T14:34:20.732Z</time></trkpt><trkpt lat="43.0281667" lon="12.915955"><ele>762.3333333333334</ele><time>2026-04-04T14:34:21.728Z</time></trkpt><trkpt lat="43.0281833" lon="12.9161767"><ele>763.0</ele><time>2026-04-04T14:34:22.726Z</time></trkpt><trkpt lat="43.0282" lon="12.9164"><ele>763.0</ele><time>2026-04-04T14:34:23.727Z</time></trkpt><trkpt lat="43.0282233" lon="12.9166183"><ele>763.0</ele><time>2026-04-04T14:34:24.728Z</time></trkpt><trkpt lat="43.0282433" lon="12.9168333"><ele>763.0</ele><time>2026-04-04T14:34:25.728Z</time></trkpt><trkpt lat="43.02827" lon="12.9170483"><ele>762.6666666666667</ele><time>2026-04-04T14:34:26.73Z</time></trkpt><trkpt lat="43.0283117" lon="12.9172617"><ele>762.3333333333334</ele><time>2026-04-04T14:34:27.729Z</time></trkpt><trkpt lat="43.028365" lon="12.9174667"><ele>762.0</ele><time>2026-04-04T14:34:28.725Z</time></trkpt><trkpt lat="43.0284383" lon="12.91768"><ele>762.0</ele><time>2026-04-04T14:34:29.73Z</time></trkpt><trkpt lat="43.0285283" lon="12.9179067"><ele>762.0</ele><time>2026-04-04T14:34:30.728Z</time></trkpt><trkpt lat="43.0286233" lon="12.918145"><ele>762.0</ele><time>2026-04-04T14:34:31.727Z</time></trkpt><trkpt lat="43.028725" lon="12.918395"><ele>762.0</ele><time>2026-04-04T14:34:32.73Z</time></trkpt><trkpt lat="43.0288283" lon="12.91865"><ele>762.0</ele><time>2026-04-04T14:34:33.728Z</time></trkpt><trkpt lat="43.0289333" lon="12.91891"><ele>762.0</ele><time>2026-04-04T14:34:34.728Z</time></trkpt><trkpt lat="43.0290383" lon="12.9191683"><ele>760.6666666666666</ele><time>2026-04-04T14:34:35.733Z</time></trkpt><trkpt lat="43.029145" lon="12.9194217"><ele>759.3333333333333</ele><time>2026-04-04T14:34:36.726Z</time></trkpt><trkpt lat="43.0292617" lon="12.9196633"><ele>758.0</ele><time>2026-04-04T14:34:37.729Z</time></trkpt><trkpt lat="43.0293883" lon="12.919895"><ele>758.0</ele><time>2026-04-04T14:34:38.729Z</time></trkpt><trkpt lat="43.0295183" lon="12.920125"><ele>758.0</ele><time>2026-04-04T14:34:39.728Z</time></trkpt><trkpt lat="43.0296517" lon="12.920355"><ele>758.0</ele><time>2026-04-04T14:34:40.727Z</time></trkpt><trkpt lat="43.0297833" lon="12.9205817"><ele>758.0</ele><time>2026-04-04T14:34:41.731Z</time></trkpt><trkpt lat="43.029915" lon="12.920805"><ele>758.0</ele><time>2026-04-04T14:34:42.73Z</time></trkpt><trkpt lat="43.030045" lon="12.921025"><ele>758.0</ele><time>2026-04-04T14:34:43.73Z</time></trkpt><trkpt lat="43.03018" lon="12.921245"><ele>759.6666666666666</ele><time>2026-04-04T14:34:44.737Z</time></trkpt><trkpt lat="43.0303117" lon="12.9214667"><ele>761.3333333333334</ele><time>2026-04-04T14:34:45.73Z</time></trkpt><trkpt lat="43.0304417" lon="12.92169"><ele>763.0</ele><time>2026-04-04T14:34:46.728Z</time></trkpt><trkpt lat="43.030575" lon="12.9219217"><ele>763.3333333333334</ele><time>2026-04-04T14:34:47.725Z</time></trkpt><trkpt lat="43.0307083" lon="12.9221533"><ele>763.6666666666666</ele><time>2026-04-04T14:34:48.729Z</time></trkpt><trkpt lat="43.0308433" lon="12.9223817"><ele>764.0</ele><time>2026-04-04T14:34:49.729Z</time></trkpt><trkpt lat="43.0309767" lon="12.9226117"><ele>764.3333333333333</ele><time>2026-04-04T14:34:50.731Z</time></trkpt><trkpt lat="43.0311083" lon="12.9228467"><ele>764.6666666666666</ele><time>2026-04-04T14:34:51.728Z</time></trkpt><trkpt lat="43.0312383" lon="12.9230833"><ele>765.0</ele><time>2026-04-04T14:34:52.729Z</time></trkpt><trkpt lat="43.0313583" lon="12.9233267"><ele>767.3333333333333</ele><time>2026-04-04T14:34:53.73Z</time></trkpt><trkpt lat="43.0314683" lon="12.9235717"><ele>769.6666666666666</ele><time>2026-04-04T14:34:54.729Z</time></trkpt><trkpt lat="43.0315617" lon="12.9238167"><ele>772.0</ele><time>2026-04-04T14:34:55.73Z</time></trkpt><trkpt lat="43.031635" lon="12.9240617"><ele>771.3333333333333</ele><time>2026-04-04T14:34:56.729Z</time></trkpt><trkpt lat="43.03168" lon="12.9243"><ele>770.6666666666667</ele><time>2026-04-04T14:34:57.73Z</time></trkpt><trkpt lat="43.03171" lon="12.9245267"><ele>770.0</ele><time>2026-04-04T14:34:58.729Z</time></trkpt><trkpt lat="43.03174" lon="12.9247467"><ele>770.0</ele><time>2026-04-04T14:34:59.73Z</time></trkpt><trkpt lat="43.0317717" lon="12.9249667"><ele>770.0</ele><time>2026-04-04T14:35:00.73Z</time></trkpt><trkpt lat="43.0318017" lon="12.9251783"><ele>770.0</ele><time>2026-04-04T14:35:01.729Z</time></trkpt><trkpt lat="43.0318233" lon="12.9253817"><ele>770.25</ele><time>2026-04-04T14:35:02.761Z</time></trkpt><trkpt lat="43.03182" lon="12.925575"><ele>770.5</ele><time>2026-04-04T14:35:03.729Z</time></trkpt><trkpt lat="43.03179" lon="12.9257667"><ele>770.75</ele><time>2026-04-04T14:35:04.73Z</time></trkpt><trkpt lat="43.031745" lon="12.9259617"><ele>771.0</ele><time>2026-04-04T14:35:05.729Z</time></trkpt><trkpt lat="43.0316833" lon="12.9261733"><ele>772.3333333333333</ele><time>2026-04-04T14:35:06.731Z</time></trkpt><trkpt lat="43.031565" lon="12.9263783"><ele>773.6666666666666</ele><time>2026-04-04T14:35:07.727Z</time></trkpt><trkpt lat="43.0314583" lon="12.92659"><ele>775.0</ele><time>2026-04-04T14:35:08.728Z</time></trkpt><trkpt lat="43.0313717" lon="12.92681"><ele>775.0</ele><time>2026-04-04T14:35:09.728Z</time></trkpt><trkpt lat="43.0313133" lon="12.927065"><ele>775.0</ele><time>2026-04-04T14:35:10.729Z</time></trkpt><trkpt lat="43.0312667" lon="12.9273417"><ele>775.0</ele><time>2026-04-04T14:35:11.731Z</time></trkpt><trkpt lat="43.0312167" lon="12.9276333"><ele>775.0</ele><time>2026-04-04T14:35:12.73Z</time></trkpt><trkpt lat="43.0311667" lon="12.9279317"><ele>775.0</ele><time>2026-04-04T14:35:13.73Z</time></trkpt><trkpt lat="43.03112" lon="12.9282267"><ele>775.0</ele><time>2026-04-04T14:35:14.732Z</time></trkpt><trkpt lat="43.03107" lon="12.9285133"><ele>775.6666666666666</ele><time>2026-04-04T14:35:15.729Z</time></trkpt><trkpt lat="43.031015" lon="12.9287967"><ele>776.3333333333333</ele><time>2026-04-04T14:35:16.729Z</time></trkpt><trkpt lat="43.0309417" lon="12.929075"><ele>777.0</ele><time>2026-04-04T14:35:17.728Z</time></trkpt><trkpt lat="43.030845" lon="12.9293417"><ele>779.0</ele><time>2026-04-04T14:35:18.728Z</time></trkpt><trkpt lat="43.0307317" lon="12.929595"><ele>781.0</ele><time>2026-04-04T14:35:19.73Z</time></trkpt><trkpt lat="43.030605" lon="12.9298317"><ele>783.0</ele><time>2026-04-04T14:35:20.751Z</time></trkpt><trkpt lat="43.0304617" lon="12.93005"><ele>782.6666666666667</ele><time>2026-04-04T14:35:21.728Z</time></trkpt><trkpt lat="43.0303067" lon="12.93026"><ele>782.3333333333334</ele><time>2026-04-04T14:35:22.734Z</time></trkpt><trkpt lat="43.030145" lon="12.93047"><ele>782.0</ele><time>2026-04-04T14:35:23.729Z</time></trkpt><trkpt lat="43.0299833" lon="12.9306933"><ele>784.5</ele><time>2026-04-04T14:35:24.729Z</time></trkpt><trkpt lat="43.0298233" lon="12.9309267"><ele>787.0</ele><time>2026-04-04T14:35:25.731Z</time></trkpt><trkpt lat="43.0296667" lon="12.9311667"><ele>787.0</ele><time>2026-04-04T14:35:26.731Z</time></trkpt><trkpt lat="43.0295167" lon="12.93141"><ele>787.0</ele><time>2026-04-04T14:35:27.731Z</time></trkpt><trkpt lat="43.0293767" lon="12.9316617"><ele>788.0</ele><time>2026-04-04T14:35:28.727Z</time></trkpt><trkpt lat="43.0292533" lon="12.9319267"><ele>789.0</ele><time>2026-04-04T14:35:29.731Z</time></trkpt><trkpt lat="43.0291417" lon="12.9322083"><ele>789.0</ele><time>2026-04-04T14:35:30.729Z</time></trkpt><trkpt lat="43.0290417" lon="12.9325"><ele>789.0</ele><time>2026-04-04T14:35:31.727Z</time></trkpt><trkpt lat="43.028945" lon="12.9327933"><ele>789.0</ele><time>2026-04-04T14:35:32.729Z</time></trkpt><trkpt lat="43.0288517" lon="12.9330783"><ele>789.0</ele><time>2026-04-04T14:35:33.728Z</time></trkpt><trkpt lat="43.0287583" lon="12.933345"><ele>789.0</ele><time>2026-04-04T14:35:34.725Z</time></trkpt><trkpt lat="43.028665" lon="12.9335933"><ele>790.3333333333333</ele><time>2026-04-04T14:35:35.729Z</time></trkpt><trkpt lat="43.0285783" lon="12.9338217"><ele>791.6666666666666</ele><time>2026-04-04T14:35:36.732Z</time></trkpt><trkpt lat="43.0284983" lon="12.9340267"><ele>793.0</ele><time>2026-04-04T14:35:37.728Z</time></trkpt><trkpt lat="43.028425" lon="12.9342083"><ele>793.4</ele><time>2026-04-04T14:35:38.728Z</time></trkpt><trkpt lat="43.02836" lon="12.9343633"><ele>793.8</ele><time>2026-04-04T14:35:39.729Z</time></trkpt><trkpt lat="43.0283117" lon="12.9344883"><ele>794.2</ele><time>2026-04-04T14:35:40.727Z</time></trkpt><trkpt lat="43.02827" lon="12.9346"><ele>794.6</ele><time>2026-04-04T14:35:41.726Z</time></trkpt><trkpt lat="43.0282383" lon="12.9346867"><ele>795.0</ele><time>2026-04-04T14:35:42.727Z</time></trkpt><trkpt lat="43.0282033" lon="12.9347867"><ele>795.0</ele><time>2026-04-04T14:35:44.73Z</time></trkpt><trkpt lat="43.0282" lon="12.9349583"><ele>795.0</ele><time>2026-04-04T14:36:32.729Z</time></trkpt><trkpt lat="43.0281617" lon="12.9350383"><ele>795.0</ele><time>2026-04-04T14:36:33.729Z</time></trkpt><trkpt lat="43.028115" lon="12.9351433"><ele>795.0</ele><time>2026-04-04T14:36:34.725Z</time></trkpt><trkpt lat="43.0280617" lon="12.9352583"><ele>795.0</ele><time>2026-04-04T14:36:35.726Z</time></trkpt><trkpt lat="43.0280067" lon="12.93539"><ele>796.25</ele><time>2026-04-04T14:36:36.729Z</time></trkpt><trkpt lat="43.027935" lon="12.9355317"><ele>797.5</ele><time>2026-04-04T14:36:37.726Z</time></trkpt><trkpt lat="43.027855" lon="12.9356717"><ele>798.75</ele><time>2026-04-04T14:36:38.729Z</time></trkpt><trkpt lat="43.0277733" lon="12.9358133"><ele>800.0</ele><time>2026-04-04T14:36:39.729Z</time></trkpt><trkpt lat="43.0276817" lon="12.935965"><ele>800.6666666666667</ele><time>2026-04-04T14:36:40.729Z</time></trkpt><trkpt lat="43.027585" lon="12.93613"><ele>801.3333333333333</ele><time>2026-04-04T14:36:41.728Z</time></trkpt><trkpt lat="43.0274767" lon="12.9362917"><ele>802.0</ele><time>2026-04-04T14:36:42.726Z</time></trkpt><trkpt lat="43.0273533" lon="12.9364483"><ele>802.0</ele><time>2026-04-04T14:36:43.728Z</time></trkpt><trkpt lat="43.0272217" lon="12.9366"><ele>802.0</ele><time>2026-04-04T14:36:44.731Z</time></trkpt><trkpt lat="43.027105" lon="12.9367617"><ele>802.0</ele><time>2026-04-04T14:36:45.725Z</time></trkpt><trkpt lat="43.027015" lon="12.9369333"><ele>803.0</ele><time>2026-04-04T14:36:46.728Z</time></trkpt><trkpt lat="43.0269433" lon="12.9371117"><ele>804.0</ele><time>2026-04-04T14:36:47.728Z</time></trkpt><trkpt lat="43.0269017" lon="12.9373233"><ele>805.0</ele><time>2026-04-04T14:36:48.728Z</time></trkpt><trkpt lat="43.02687" lon="12.9375583"><ele>806.3333333333333</ele><time>2026-04-04T14:36:49.726Z</time></trkpt><trkpt lat="43.0268367" lon="12.937815"><ele>807.6666666666667</ele><time>2026-04-04T14:36:50.758Z</time></trkpt><trkpt lat="43.0267967" lon="12.9380783"><ele>809.0</ele><time>2026-04-04T14:36:51.73Z</time></trkpt><trkpt lat="43.02675" lon="12.9383383"><ele>808.0</ele><time>2026-04-04T14:36:52.726Z</time></trkpt><trkpt lat="43.026685" lon="12.9386"><ele>807.0</ele><time>2026-04-04T14:36:53.729Z</time></trkpt><trkpt lat="43.026595" lon="12.93885"><ele>806.0</ele><time>2026-04-04T14:36:54.733Z</time></trkpt><trkpt lat="43.0264833" lon="12.9390833"><ele>805.3333333333334</ele><time>2026-04-04T14:36:55.728Z</time></trkpt><trkpt lat="43.0263667" lon="12.9393067"><ele>804.6666666666667</ele><time>2026-04-04T14:36:56.729Z</time></trkpt><trkpt lat="43.0262667" lon="12.93953"><ele>804.0</ele><time>2026-04-04T14:36:57.73Z</time></trkpt><trkpt lat="43.026185" lon="12.93976"><ele>804.0</ele><time>2026-04-04T14:36:58.727Z</time></trkpt><trkpt lat="43.026125" lon="12.9400017"><ele>804.0</ele><time>2026-04-04T14:36:59.73Z</time></trkpt><trkpt lat="43.026115" lon="12.94026"><ele>804.0</ele><time>2026-04-04T14:37:00.729Z</time></trkpt><trkpt lat="43.0261183" lon="12.9405133"><ele>806.0</ele><time>2026-04-04T14:37:01.732Z</time></trkpt><trkpt lat="43.0261067" lon="12.9407533"><ele>808.0</ele><time>2026-04-04T14:37:02.731Z</time></trkpt><trkpt lat="43.0260467" lon="12.9409783"><ele>810.0</ele><time>2026-04-04T14:37:03.73Z</time></trkpt><trkpt lat="43.0259567" lon="12.9412"><ele>810.0</ele><time>2026-04-04T14:37:04.727Z</time></trkpt><trkpt lat="43.0258267" lon="12.9414"><ele>810.0</ele><time>2026-04-04T14:37:05.727Z</time></trkpt><trkpt lat="43.0256817" lon="12.9415917"><ele>810.0</ele><time>2026-04-04T14:37:06.727Z</time></trkpt><trkpt lat="43.025535" lon="12.9417733"><ele>814.0</ele><time>2026-04-04T14:37:07.729Z</time></trkpt><trkpt lat="43.0254033" lon="12.941945"><ele>818.0</ele><time>2026-04-04T14:37:08.755Z</time></trkpt><trkpt lat="43.0252967" lon="12.9421233"><ele>822.0</ele><time>2026-04-04T14:37:09.728Z</time></trkpt><trkpt lat="43.025215" lon="12.9423283"><ele>822.0</ele><time>2026-04-04T14:37:10.731Z</time></trkpt><trkpt lat="43.0251483" lon="12.94258"><ele>822.0</ele><time>2026-04-04T14:37:11.728Z</time></trkpt><trkpt lat="43.0250683" lon="12.942845"><ele>822.0</ele><time>2026-04-04T14:37:12.725Z</time></trkpt><trkpt lat="43.0249633" lon="12.9431117"><ele>822.0</ele><time>2026-04-04T14:37:13.728Z</time></trkpt><trkpt lat="43.0248483" lon="12.94337"><ele>822.0</ele><time>2026-04-04T14:37:14.729Z</time></trkpt><trkpt lat="43.024735" lon="12.9436283"><ele>822.0</ele><time>2026-04-04T14:37:15.726Z</time></trkpt><trkpt lat="43.02463" lon="12.9438933"><ele>825.0</ele><time>2026-04-04T14:37:16.727Z</time></trkpt><trkpt lat="43.0245417" lon="12.94418"><ele>828.0</ele><time>2026-04-04T14:37:17.728Z</time></trkpt><trkpt lat="43.02447" lon="12.9444767"><ele>832.0</ele><time>2026-04-04T14:37:18.729Z</time></trkpt><trkpt lat="43.024415" lon="12.9447833"><ele>836.0</ele><time>2026-04-04T14:37:19.73Z</time></trkpt><trkpt lat="43.0243717" lon="12.9450967"><ele>841.0</ele><time>2026-04-04T14:37:20.728Z</time></trkpt><trkpt lat="43.0243217" lon="12.9454183"><ele>846.0</ele><time>2026-04-04T14:37:21.726Z</time></trkpt><trkpt lat="43.024255" lon="12.945735"><ele>840.5</ele><time>2026-04-04T14:37:22.726Z</time></trkpt><trkpt lat="43.024165" lon="12.946025"><ele>835.0</ele><time>2026-04-04T14:37:23.728Z</time></trkpt><trkpt lat="43.0240767" lon="12.9463117"><ele>835.0</ele><time>2026-04-04T14:37:24.733Z</time></trkpt><trkpt lat="43.024" lon="12.9466"><ele>835.0</ele><time>2026-04-04T14:37:25.73Z</time></trkpt><trkpt lat="43.023925" lon="12.946885"><ele>835.0</ele><time>2026-04-04T14:37:26.749Z</time></trkpt><trkpt lat="43.02387" lon="12.94716"><ele>838.3333333333333</ele><time>2026-04-04T14:37:27.729Z</time></trkpt><trkpt lat="43.0238317" lon="12.94742"><ele>841.6666666666667</ele><time>2026-04-04T14:37:28.73Z</time></trkpt><trkpt lat="43.0237867" lon="12.9476583"><ele>845.0</ele><time>2026-04-04T14:37:29.728Z</time></trkpt><trkpt lat="43.0237167" lon="12.947875"><ele>850.0</ele><time>2026-04-04T14:37:30.73Z</time></trkpt><trkpt lat="43.0236283" lon="12.9480667"><ele>855.0</ele><time>2026-04-04T14:37:31.73Z</time></trkpt><trkpt lat="43.0235533" lon="12.94824"><ele>860.0</ele><time>2026-04-04T14:37:32.732Z</time></trkpt><trkpt lat="43.0235033" lon="12.9484183"><ele>862.6666666666667</ele><time>2026-04-04T14:37:33.728Z</time></trkpt><trkpt lat="43.0234867" lon="12.9486167"><ele>865.3333333333333</ele><time>2026-04-04T14:37:34.725Z</time></trkpt><trkpt lat="43.023515" lon="12.94883"><ele>868.0</ele><time>2026-04-04T14:37:35.726Z</time></trkpt><trkpt lat="43.02357" lon="12.9490583"><ele>873.3333333333333</ele><time>2026-04-04T14:37:36.727Z</time></trkpt><trkpt lat="43.02363" lon="12.9492833"><ele>878.6666666666667</ele><time>2026-04-04T14:37:37.728Z</time></trkpt><trkpt lat="43.0236883" lon="12.94949"><ele>884.0</ele><time>2026-04-04T14:37:38.728Z</time></trkpt><trkpt lat="43.0237433" lon="12.94968"><ele>884.0</ele><time>2026-04-04T14:37:39.726Z</time></trkpt><trkpt lat="43.0237983" lon="12.9498717"><ele>884.0</ele><time>2026-04-04T14:37:40.727Z</time></trkpt><trkpt lat="43.0238667" lon="12.9500767"><ele>884.0</ele><time>2026-04-04T14:37:41.728Z</time></trkpt><trkpt lat="43.0239483" lon="12.9502867"><ele>882.6666666666667</ele><time>2026-04-04T14:37:42.726Z</time></trkpt><trkpt lat="43.02404" lon="12.950505"><ele>881.3333333333333</ele><time>2026-04-04T14:37:43.728Z</time></trkpt><trkpt lat="43.0241383" lon="12.9507233"><ele>880.0</ele><time>2026-04-04T14:37:44.733Z</time></trkpt><trkpt lat="43.0242383" lon="12.95094"><ele>880.0</ele><time>2026-04-04T14:37:45.73Z</time></trkpt><trkpt lat="43.02434" lon="12.9511617"><ele>880.0</ele><time>2026-04-04T14:37:46.723Z</time></trkpt><trkpt lat="43.0244483" lon="12.9513817"><ele>880.0</ele><time>2026-04-04T14:37:47.729Z</time></trkpt><trkpt lat="43.0245617" lon="12.9516033"><ele>886.3333333333333</ele><time>2026-04-04T14:37:48.729Z</time></trkpt><trkpt lat="43.024675" lon="12.9518333"><ele>892.6666666666667</ele><time>2026-04-04T14:37:49.728Z</time></trkpt><trkpt lat="43.024785" lon="12.952075"><ele>899.0</ele><time>2026-04-04T14:37:50.729Z</time></trkpt><trkpt lat="43.0248867" lon="12.95232"><ele>889.0</ele><time>2026-04-04T14:37:51.726Z</time></trkpt><trkpt lat="43.0249967" lon="12.9525633"><ele>879.0</ele><time>2026-04-04T14:37:52.727Z</time></trkpt><trkpt lat="43.0251083" lon="12.9528067"><ele>869.0</ele><time>2026-04-04T14:37:53.729Z</time></trkpt><trkpt lat="43.0252333" lon="12.953045"><ele>869.0</ele><time>2026-04-04T14:37:54.729Z</time></trkpt><trkpt lat="43.0253467" lon="12.9532783"><ele>869.0</ele><time>2026-04-04T14:37:55.731Z</time></trkpt><trkpt lat="43.0254567" lon="12.9535067"><ele>869.0</ele><time>2026-04-04T14:37:56.73Z</time></trkpt><trkpt lat="43.0255683" lon="12.9537417"><ele>875.3333333333334</ele><time>2026-04-04T14:37:57.727Z</time></trkpt><trkpt lat="43.02567" lon="12.9539867"><ele>881.6666666666667</ele><time>2026-04-04T14:37:58.726Z</time></trkpt><trkpt lat="43.025755" lon="12.9542333"><ele>888.0</ele><time>2026-04-04T14:37:59.732Z</time></trkpt><trkpt lat="43.0258367" lon="12.95448"><ele>877.3333333333333</ele><time>2026-04-04T14:38:00.728Z</time></trkpt><trkpt lat="43.025915" lon="12.9547233"><ele>866.6666666666666</ele><time>2026-04-04T14:38:01.729Z</time></trkpt><trkpt lat="43.0259833" lon="12.9549717"><ele>856.0</ele><time>2026-04-04T14:38:02.728Z</time></trkpt><trkpt lat="43.0260433" lon="12.95523"><ele>856.0</ele><time>2026-04-04T14:38:03.728Z</time></trkpt><trkpt lat="43.02611" lon="12.9554917"><ele>856.0</ele><time>2026-04-04T14:38:04.728Z</time></trkpt><trkpt lat="43.02617" lon="12.955755"><ele>856.0</ele><time>2026-04-04T14:38:05.731Z</time></trkpt><trkpt lat="43.0262433" lon="12.9560167"><ele>856.3333333333333</ele><time>2026-04-04T14:38:06.73Z</time></trkpt><trkpt lat="43.0263033" lon="12.9562783"><ele>856.6666666666667</ele><time>2026-04-04T14:38:07.729Z</time></trkpt><trkpt lat="43.02635" lon="12.9565367"><ele>857.0</ele><time>2026-04-04T14:38:08.728Z</time></trkpt><trkpt lat="43.0263867" lon="12.956785"><ele>853.3333333333334</ele><time>2026-04-04T14:38:09.728Z</time></trkpt><trkpt lat="43.0264067" lon="12.957015"><ele>849.6666666666667</ele><time>2026-04-04T14:38:10.731Z</time></trkpt><trkpt lat="43.0263933" lon="12.9572433"><ele>846.0</ele><time>2026-04-04T14:38:11.731Z</time></trkpt><trkpt lat="43.026365" lon="12.9574567"><ele>840.0</ele><time>2026-04-04T14:38:12.726Z</time></trkpt><trkpt lat="43.026305" lon="12.9576683"><ele>834.0</ele><time>2026-04-04T14:38:13.727Z</time></trkpt><trkpt lat="43.0262133" lon="12.95789"><ele>828.0</ele><time>2026-04-04T14:38:14.728Z</time></trkpt><trkpt lat="43.0261233" lon="12.9581033"><ele>828.0</ele><time>2026-04-04T14:38:15.729Z</time></trkpt><trkpt lat="43.0260467" lon="12.9583117"><ele>828.0</ele><time>2026-04-04T14:38:16.725Z</time></trkpt><trkpt lat="43.0259867" lon="12.9585367"><ele>828.0</ele><time>2026-04-04T14:38:17.73Z</time></trkpt><trkpt lat="43.0259433" lon="12.9587883"><ele>824.3333333333333</ele><time>2026-04-04T14:38:18.726Z</time></trkpt><trkpt lat="43.0259117" lon="12.9590433"><ele>820.6666666666666</ele><time>2026-04-04T14:38:19.731Z</time></trkpt><trkpt lat="43.0259" lon="12.9592883"><ele>817.0</ele><time>2026-04-04T14:38:20.731Z</time></trkpt><trkpt lat="43.0258917" lon="12.959515"><ele>813.3333333333333</ele><time>2026-04-04T14:38:21.726Z</time></trkpt><trkpt lat="43.025875" lon="12.9597183"><ele>809.6666666666667</ele><time>2026-04-04T14:38:22.728Z</time></trkpt><trkpt lat="43.0258317" lon="12.9599083"><ele>806.0</ele><time>2026-04-04T14:38:23.727Z</time></trkpt><trkpt lat="43.025755" lon="12.9600967"><ele>801.6666666666667</ele><time>2026-04-04T14:38:24.727Z</time></trkpt><trkpt lat="43.02565" lon="12.9602817"><ele>797.3333333333333</ele><time>2026-04-04T14:38:25.727Z</time></trkpt><trkpt lat="43.0255283" lon="12.960455"><ele>793.0</ele><time>2026-04-04T14:38:26.729Z</time></trkpt><trkpt lat="43.025385" lon="12.9606033"><ele>793.0</ele><time>2026-04-04T14:38:27.727Z</time></trkpt><trkpt lat="43.025215" lon="12.960725"><ele>793.0</ele><time>2026-04-04T14:38:28.725Z</time></trkpt><trkpt lat="43.0250233" lon="12.9608133"><ele>793.0</ele><time>2026-04-04T14:38:29.729Z</time></trkpt><trkpt lat="43.024825" lon="12.9608833"><ele>788.6666666666666</ele><time>2026-04-04T14:38:30.728Z</time></trkpt><trkpt lat="43.02463" lon="12.9609467"><ele>784.3333333333333</ele><time>2026-04-04T14:38:31.73Z</time></trkpt><trkpt lat="43.0244467" lon="12.9610167"><ele>780.0</ele><time>2026-04-04T14:38:32.729Z</time></trkpt><trkpt lat="43.0242767" lon="12.9610967"><ele>782.3333333333333</ele><time>2026-04-04T14:38:33.728Z</time></trkpt><trkpt lat="43.02413" lon="12.961205"><ele>784.6666666666666</ele><time>2026-04-04T14:38:34.726Z</time></trkpt><trkpt lat="43.0240083" lon="12.9613317"><ele>787.0</ele><time>2026-04-04T14:38:35.728Z</time></trkpt><trkpt lat="43.023925" lon="12.9614833"><ele>787.0</ele><time>2026-04-04T14:38:36.726Z</time></trkpt><trkpt lat="43.0238817" lon="12.9616567"><ele>787.0</ele><time>2026-04-04T14:38:37.728Z</time></trkpt><trkpt lat="43.0239067" lon="12.9618433"><ele>787.0</ele><time>2026-04-04T14:38:38.727Z</time></trkpt><trkpt lat="43.0239867" lon="12.96201"><ele>787.0</ele><time>2026-04-04T14:38:39.729Z</time></trkpt><trkpt lat="43.024115" lon="12.962135"><ele>787.3333333333333</ele><time>2026-04-04T14:38:40.728Z</time></trkpt><trkpt lat="43.0243" lon="12.96221"><ele>787.6666666666667</ele><time>2026-04-04T14:38:41.729Z</time></trkpt><trkpt lat="43.0245067" lon="12.9622417"><ele>788.0</ele><time>2026-04-04T14:38:42.73Z</time></trkpt><trkpt lat="43.024725" lon="12.9622233"><ele>788.0</ele><time>2026-04-04T14:38:43.729Z</time></trkpt><trkpt lat="43.0249433" lon="12.9621867"><ele>788.0</ele><time>2026-04-04T14:38:44.728Z</time></trkpt><trkpt lat="43.02516" lon="12.9621467"><ele>788.0</ele><time>2026-04-04T14:38:45.725Z</time></trkpt><trkpt lat="43.0253833" lon="12.962105"><ele>785.0</ele><time>2026-04-04T14:38:46.727Z</time></trkpt><trkpt lat="43.025605" lon="12.962065"><ele>782.0</ele><time>2026-04-04T14:38:47.728Z</time></trkpt><trkpt lat="43.02582" lon="12.9620333"><ele>779.0</ele><time>2026-04-04T14:38:48.725Z</time></trkpt><trkpt lat="43.026025" lon="12.9619967"><ele>779.0</ele><time>2026-04-04T14:38:49.728Z</time></trkpt><trkpt lat="43.02622" lon="12.9619583"><ele>779.0</ele><time>2026-04-04T14:38:50.729Z</time></trkpt><trkpt lat="43.0263917" lon="12.96192"><ele>779.0</ele><time>2026-04-04T14:38:51.732Z</time></trkpt><trkpt lat="43.026555" lon="12.961885"><ele>776.0</ele><time>2026-04-04T14:38:52.724Z</time></trkpt><trkpt lat="43.0267133" lon="12.9618533"><ele>773.0</ele><time>2026-04-04T14:38:53.726Z</time></trkpt><trkpt lat="43.0268633" lon="12.9618217"><ele>770.0</ele><time>2026-04-04T14:38:54.732Z</time></trkpt><trkpt lat="43.0270067" lon="12.9617917"><ele>770.0</ele><time>2026-04-04T14:38:55.726Z</time></trkpt><trkpt lat="43.0271433" lon="12.96177"><ele>770.0</ele><time>2026-04-04T14:38:56.727Z</time></trkpt><trkpt lat="43.0272783" lon="12.9617733"><ele>770.0</ele><time>2026-04-04T14:38:57.731Z</time></trkpt><trkpt lat="43.0273967" lon="12.9618167"><ele>770.0</ele><time>2026-04-04T14:38:58.727Z</time></trkpt><trkpt lat="43.0275083" lon="12.9619083"><ele>767.3333333333334</ele><time>2026-04-04T14:38:59.728Z</time></trkpt><trkpt lat="43.027585" lon="12.9620667"><ele>764.6666666666667</ele><time>2026-04-04T14:39:00.726Z</time></trkpt><trkpt lat="43.0276383" lon="12.96227"><ele>762.0</ele><time>2026-04-04T14:39:01.727Z</time></trkpt><trkpt lat="43.0276783" lon="12.9625083"><ele>760.3333333333334</ele><time>2026-04-04T14:39:02.729Z</time></trkpt><trkpt lat="43.0277183" lon="12.9627417"><ele>758.6666666666667</ele><time>2026-04-04T14:39:03.726Z</time></trkpt><trkpt lat="43.0277533" lon="12.9629767"><ele>757.0</ele><time>2026-04-04T14:39:04.729Z</time></trkpt><trkpt lat="43.02778" lon="12.9632183"><ele>756.0</ele><time>2026-04-04T14:39:05.725Z</time></trkpt><trkpt lat="43.0278017" lon="12.9634617"><ele>755.0</ele><time>2026-04-04T14:39:06.727Z</time></trkpt><trkpt lat="43.02782" lon="12.963695"><ele>754.0</ele><time>2026-04-04T14:39:07.728Z</time></trkpt><trkpt lat="43.027835" lon="12.9639267"><ele>754.0</ele><time>2026-04-04T14:39:08.726Z</time></trkpt><trkpt lat="43.0278483" lon="12.9641417"><ele>754.0</ele><time>2026-04-04T14:39:09.728Z</time></trkpt><trkpt lat="43.02785" lon="12.9643583"><ele>754.0</ele><time>2026-04-04T14:39:10.728Z</time></trkpt><trkpt lat="43.0278267" lon="12.9645683"><ele>752.5</ele><time>2026-04-04T14:39:11.728Z</time></trkpt><trkpt lat="43.0277633" lon="12.9647583"><ele>751.0</ele><time>2026-04-04T14:39:12.727Z</time></trkpt><trkpt lat="43.0276917" lon="12.9649417"><ele>749.5</ele><time>2026-04-04T14:39:13.729Z</time></trkpt><trkpt lat="43.02763" lon="12.9651183"><ele>748.0</ele><time>2026-04-04T14:39:14.727Z</time></trkpt><trkpt lat="43.0275867" lon="12.9653083"><ele>747.3333333333334</ele><time>2026-04-04T14:39:15.731Z</time></trkpt><trkpt lat="43.0275783" lon="12.9655217"><ele>746.6666666666666</ele><time>2026-04-04T14:39:16.732Z</time></trkpt><trkpt lat="43.0276017" lon="12.9657383"><ele>746.0</ele><time>2026-04-04T14:39:17.724Z</time></trkpt><trkpt lat="43.02765" lon="12.9659517"><ele>747.3333333333333</ele><time>2026-04-04T14:39:18.728Z</time></trkpt><trkpt lat="43.0277217" lon="12.9661633"><ele>748.6666666666666</ele><time>2026-04-04T14:39:19.729Z</time></trkpt><trkpt lat="43.0278217" lon="12.966365"><ele>750.0</ele><time>2026-04-04T14:39:20.731Z</time></trkpt><trkpt lat="43.02794" lon="12.9665683"><ele>748.0</ele><time>2026-04-04T14:39:21.729Z</time></trkpt><trkpt lat="43.028075" lon="12.9667783"><ele>746.0</ele><time>2026-04-04T14:39:22.728Z</time></trkpt><trkpt lat="43.0282317" lon="12.96699"><ele>744.0</ele><time>2026-04-04T14:39:23.727Z</time></trkpt><trkpt lat="43.0284017" lon="12.9671933"><ele>744.0</ele><time>2026-04-04T14:39:24.729Z</time></trkpt><trkpt lat="43.0285717" lon="12.9673967"><ele>744.0</ele><time>2026-04-04T14:39:25.726Z</time></trkpt><trkpt lat="43.0287367" lon="12.9676"><ele>744.0</ele><time>2026-04-04T14:39:26.732Z</time></trkpt><trkpt lat="43.0288983" lon="12.9678017"><ele>744.3333333333334</ele><time>2026-04-04T14:39:27.729Z</time></trkpt><trkpt lat="43.0290617" lon="12.9680033"><ele>744.6666666666667</ele><time>2026-04-04T14:39:28.73Z</time></trkpt><trkpt lat="43.0292217" lon="12.9682017"><ele>745.0</ele><time>2026-04-04T14:39:29.729Z</time></trkpt><trkpt lat="43.0293767" lon="12.968395"><ele>745.0</ele><time>2026-04-04T14:39:30.728Z</time></trkpt><trkpt lat="43.029535" lon="12.9685883"><ele>745.0</ele><time>2026-04-04T14:39:31.729Z</time></trkpt><trkpt lat="43.029695" lon="12.9687783"><ele>745.0</ele><time>2026-04-04T14:39:32.732Z</time></trkpt><trkpt lat="43.029855" lon="12.9689683"><ele>743.3333333333334</ele><time>2026-04-04T14:39:33.729Z</time></trkpt><trkpt lat="43.030015" lon="12.9691567"><ele>741.6666666666666</ele><time>2026-04-04T14:39:34.727Z</time></trkpt><trkpt lat="43.0301733" lon="12.9693533"><ele>740.0</ele><time>2026-04-04T14:39:35.729Z</time></trkpt><trkpt lat="43.0303267" lon="12.969545"><ele>740.0</ele><time>2026-04-04T14:39:36.727Z</time></trkpt><trkpt lat="43.0304767" lon="12.96974"><ele>740.0</ele><time>2026-04-04T14:39:37.729Z</time></trkpt><trkpt lat="43.0306233" lon="12.9699433"><ele>740.0</ele><time>2026-04-04T14:39:38.729Z</time></trkpt><trkpt lat="43.0307717" lon="12.9701433"><ele>738.3333333333333</ele><time>2026-04-04T14:39:39.727Z</time></trkpt><trkpt lat="43.0309233" lon="12.9703333"><ele>736.6666666666666</ele><time>2026-04-04T14:39:40.727Z</time></trkpt><trkpt lat="43.0310933" lon="12.9705033"><ele>735.0</ele><time>2026-04-04T14:39:41.729Z</time></trkpt><trkpt lat="43.0312767" lon="12.9706617"><ele>735.0</ele><time>2026-04-04T14:39:42.727Z</time></trkpt><trkpt lat="43.0314683" lon="12.9708167"><ele>735.0</ele><time>2026-04-04T14:39:43.731Z</time></trkpt><trkpt lat="43.03165" lon="12.9709717"><ele>735.0</ele><time>2026-04-04T14:39:44.731Z</time></trkpt><trkpt lat="43.0318217" lon="12.9711383"><ele>732.6666666666666</ele><time>2026-04-04T14:39:45.728Z</time></trkpt><trkpt lat="43.03199" lon="12.9713067"><ele>730.3333333333333</ele><time>2026-04-04T14:39:46.728Z</time></trkpt><trkpt lat="43.0321533" lon="12.9714817"><ele>728.0</ele><time>2026-04-04T14:39:47.728Z</time></trkpt><trkpt lat="43.0323133" lon="12.9716683"><ele>729.3333333333333</ele><time>2026-04-04T14:39:48.727Z</time></trkpt><trkpt lat="43.0324633" lon="12.9718717"><ele>730.6666666666666</ele><time>2026-04-04T14:39:49.742Z</time></trkpt><trkpt lat="43.0326033" lon="12.972085"><ele>732.0</ele><time>2026-04-04T14:39:50.731Z</time></trkpt><trkpt lat="43.032725" lon="12.972315"><ele>725.6666666666666</ele><time>2026-04-04T14:39:51.728Z</time></trkpt><trkpt lat="43.032835" lon="12.9725517"><ele>719.3333333333333</ele><time>2026-04-04T14:39:52.729Z</time></trkpt><trkpt lat="43.03295" lon="12.9727917"><ele>713.0</ele><time>2026-04-04T14:39:53.728Z</time></trkpt><trkpt lat="43.0330833" lon="12.97301"><ele>713.0</ele><time>2026-04-04T14:39:54.732Z</time></trkpt><trkpt lat="43.033225" lon="12.9732183"><ele>713.0</ele><time>2026-04-04T14:39:55.734Z</time></trkpt><trkpt lat="43.0333717" lon="12.9734217"><ele>713.0</ele><time>2026-04-04T14:39:56.73Z</time></trkpt><trkpt lat="43.033515" lon="12.97362"><ele>712.3333333333333</ele><time>2026-04-04T14:39:57.727Z</time></trkpt><trkpt lat="43.03365" lon="12.9738117"><ele>711.6666666666666</ele><time>2026-04-04T14:39:58.729Z</time></trkpt><trkpt lat="43.0337767" lon="12.9739917"><ele>711.0</ele><time>2026-04-04T14:39:59.73Z</time></trkpt><trkpt lat="43.033895" lon="12.9741617"><ele>711.0</ele><time>2026-04-04T14:40:00.728Z</time></trkpt><trkpt lat="43.0339933" lon="12.974325"><ele>711.0</ele><time>2026-04-04T14:40:01.73Z</time></trkpt><trkpt lat="43.0340717" lon="12.9744933"><ele>711.0</ele><time>2026-04-04T14:40:02.73Z</time></trkpt><trkpt lat="43.0341217" lon="12.974675"><ele>711.0</ele><time>2026-04-04T14:40:03.727Z</time></trkpt><trkpt lat="43.0341617" lon="12.97487"><ele>710.0</ele><time>2026-04-04T14:40:04.727Z</time></trkpt><trkpt lat="43.0342" lon="12.9750567"><ele>709.0</ele><time>2026-04-04T14:40:05.728Z</time></trkpt><trkpt lat="43.0342433" lon="12.9752433"><ele>708.0</ele><time>2026-04-04T14:40:06.728Z</time></trkpt><trkpt lat="43.03429" lon="12.97542"><ele>707.0</ele><time>2026-04-04T14:40:07.727Z</time></trkpt><trkpt lat="43.034355" lon="12.9755767"><ele>707.0</ele><time>2026-04-04T14:40:08.733Z</time></trkpt><trkpt lat="43.0344333" lon="12.9757183"><ele>707.0</ele><time>2026-04-04T14:40:09.73Z</time></trkpt><trkpt lat="43.034525" lon="12.975855"><ele>707.0</ele><time>2026-04-04T14:40:10.73Z</time></trkpt><trkpt lat="43.0346267" lon="12.97599"><ele>707.0</ele><time>2026-04-04T14:40:11.726Z</time></trkpt><trkpt lat="43.03473" lon="12.97612"><ele>708.0</ele><time>2026-04-04T14:40:12.728Z</time></trkpt><trkpt lat="43.034835" lon="12.9762617"><ele>709.0</ele><time>2026-04-04T14:40:13.73Z</time></trkpt><trkpt lat="43.03495" lon="12.9764067"><ele>710.0</ele><time>2026-04-04T14:40:14.73Z</time></trkpt><trkpt lat="43.0350583" lon="12.976545"><ele>708.0</ele><time>2026-04-04T14:40:15.725Z</time></trkpt><trkpt lat="43.03517" lon="12.9766867"><ele>706.0</ele><time>2026-04-04T14:40:16.727Z</time></trkpt><trkpt lat="43.0352783" lon="12.9768233"><ele>704.0</ele><time>2026-04-04T14:40:17.726Z</time></trkpt><trkpt lat="43.0353733" lon="12.97696"><ele>702.0</ele><time>2026-04-04T14:40:18.727Z</time></trkpt><trkpt lat="43.0354583" lon="12.9771017"><ele>702.0</ele><time>2026-04-04T14:40:19.726Z</time></trkpt><trkpt lat="43.035535" lon="12.9772533"><ele>702.0</ele><time>2026-04-04T14:40:20.731Z</time></trkpt><trkpt lat="43.0356033" lon="12.97742"><ele>702.0</ele><time>2026-04-04T14:40:21.729Z</time></trkpt><trkpt lat="43.0356683" lon="12.9776"><ele>702.0</ele><time>2026-04-04T14:40:22.727Z</time></trkpt><trkpt lat="43.0357217" lon="12.9777883"><ele>702.25</ele><time>2026-04-04T14:40:23.729Z</time></trkpt><trkpt lat="43.0357883" lon="12.9779783"><ele>702.5</ele><time>2026-04-04T14:40:24.727Z</time></trkpt><trkpt lat="43.035845" lon="12.9781517"><ele>702.75</ele><time>2026-04-04T14:40:25.727Z</time></trkpt><trkpt lat="43.0358967" lon="12.97832"><ele>703.0</ele><time>2026-04-04T14:40:26.729Z</time></trkpt><trkpt lat="43.0359433" lon="12.9784833"><ele>703.0</ele><time>2026-04-04T14:40:27.728Z</time></trkpt><trkpt lat="43.0359883" lon="12.9786417"><ele>703.0</ele><time>2026-04-04T14:40:28.728Z</time></trkpt><trkpt lat="43.0360333" lon="12.9787983"><ele>703.0</ele><time>2026-04-04T14:40:29.726Z</time></trkpt><trkpt lat="43.036085" lon="12.9789533"><ele>703.0</ele><time>2026-04-04T14:40:30.727Z</time></trkpt><trkpt lat="43.0361417" lon="12.979115"><ele>702.25</ele><time>2026-04-04T14:40:31.731Z</time></trkpt><trkpt lat="43.0361917" lon="12.9792783"><ele>701.5</ele><time>2026-04-04T14:40:32.732Z</time></trkpt><trkpt lat="43.0362467" lon="12.979445"><ele>700.75</ele><time>2026-04-04T14:40:33.731Z</time></trkpt><trkpt lat="43.0362983" lon="12.9796033"><ele>700.0</ele><time>2026-04-04T14:40:34.727Z</time></trkpt><trkpt lat="43.0363417" lon="12.9797633"><ele>700.0</ele><time>2026-04-04T14:40:35.728Z</time></trkpt><trkpt lat="43.0363767" lon="12.9799233"><ele>700.0</ele><time>2026-04-04T14:40:36.732Z</time></trkpt><trkpt lat="43.0363983" lon="12.98009"><ele>700.0</ele><time>2026-04-04T14:40:37.73Z</time></trkpt><trkpt lat="43.0364" lon="12.9802633"><ele>700.0</ele><time>2026-04-04T14:40:38.728Z</time></trkpt><trkpt lat="43.0363867" lon="12.9804333"><ele>699.75</ele><time>2026-04-04T14:40:39.729Z</time></trkpt><trkpt lat="43.0363567" lon="12.9806067"><ele>699.5</ele><time>2026-04-04T14:40:40.729Z</time></trkpt><trkpt lat="43.0363217" lon="12.9807833"><ele>699.25</ele><time>2026-04-04T14:40:41.731Z</time></trkpt><trkpt lat="43.0362767" lon="12.9809733"><ele>699.0</ele><time>2026-04-04T14:40:42.729Z</time></trkpt><trkpt lat="43.0362417" lon="12.98117"><ele>699.0</ele><time>2026-04-04T14:40:43.73Z</time></trkpt><trkpt lat="43.0362067" lon="12.9813667"><ele>699.0</ele><time>2026-04-04T14:40:44.729Z</time></trkpt><trkpt lat="43.0361817" lon="12.9815617"><ele>699.0</ele><time>2026-04-04T14:40:45.729Z</time></trkpt><trkpt lat="43.0361717" lon="12.98175"><ele>699.0</ele><time>2026-04-04T14:40:46.731Z</time></trkpt><trkpt lat="43.036175" lon="12.9819267"><ele>699.0</ele><time>2026-04-04T14:40:47.729Z</time></trkpt><trkpt lat="43.0362167" lon="12.9821"><ele>699.0</ele><time>2026-04-04T14:40:48.728Z</time></trkpt><trkpt lat="43.0362883" lon="12.9822883"><ele>699.0</ele><time>2026-04-04T14:40:49.731Z</time></trkpt><trkpt lat="43.0363767" lon="12.982505"><ele>698.6666666666666</ele><time>2026-04-04T14:40:50.729Z</time></trkpt><trkpt lat="43.0364733" lon="12.9827367"><ele>698.3333333333333</ele><time>2026-04-04T14:40:51.731Z</time></trkpt><trkpt lat="43.0365767" lon="12.9829717"><ele>698.0</ele><time>2026-04-04T14:40:52.731Z</time></trkpt><trkpt lat="43.03668" lon="12.9831933"><ele>693.0</ele><time>2026-04-04T14:40:53.734Z</time></trkpt><trkpt lat="43.0367933" lon="12.9834017"><ele>688.0</ele><time>2026-04-04T14:40:54.729Z</time></trkpt><trkpt lat="43.0369133" lon="12.9836017"><ele>683.0</ele><time>2026-04-04T14:40:55.731Z</time></trkpt><trkpt lat="43.0370217" lon="12.9837983"><ele>683.0</ele><time>2026-04-04T14:40:56.73Z</time></trkpt><trkpt lat="43.0371083" lon="12.9840183"><ele>683.0</ele><time>2026-04-04T14:40:57.729Z</time></trkpt><trkpt lat="43.0371717" lon="12.9842517"><ele>683.0</ele><time>2026-04-04T14:40:58.737Z</time></trkpt><trkpt lat="43.0372233" lon="12.984495"><ele>683.6666666666666</ele><time>2026-04-04T14:40:59.732Z</time></trkpt><trkpt lat="43.037275" lon="12.9847383"><ele>684.3333333333334</ele><time>2026-04-04T14:41:00.731Z</time></trkpt><trkpt lat="43.0373233" lon="12.9849767"><ele>685.0</ele><time>2026-04-04T14:41:01.727Z</time></trkpt><trkpt lat="43.0373683" lon="12.9852067"><ele>685.0</ele><time>2026-04-04T14:41:02.731Z</time></trkpt><trkpt lat="43.0374183" lon="12.9854217"><ele>685.0</ele><time>2026-04-04T14:41:03.727Z</time></trkpt><trkpt lat="43.0374717" lon="12.9856367"><ele>685.0</ele><time>2026-04-04T14:41:04.73Z</time></trkpt><trkpt lat="43.03755" lon="12.9858317"><ele>682.0</ele><time>2026-04-04T14:41:05.729Z</time></trkpt><trkpt lat="43.037655" lon="12.986005"><ele>679.0</ele><time>2026-04-04T14:41:06.729Z</time></trkpt><trkpt lat="43.0377733" lon="12.98618"><ele>676.0</ele><time>2026-04-04T14:41:07.725Z</time></trkpt><trkpt lat="43.0379" lon="12.9863583"><ele>676.0</ele><time>2026-04-04T14:41:08.726Z</time></trkpt><trkpt lat="43.0380233" lon="12.9865333"><ele>676.0</ele><time>2026-04-04T14:41:09.73Z</time></trkpt><trkpt lat="43.038145" lon="12.9867117"><ele>676.0</ele><time>2026-04-04T14:41:10.728Z</time></trkpt><trkpt lat="43.03826" lon="12.9868883"><ele>675.0</ele><time>2026-04-04T14:41:11.732Z</time></trkpt><trkpt lat="43.03837" lon="12.9870633"><ele>674.0</ele><time>2026-04-04T14:41:12.728Z</time></trkpt><trkpt lat="43.03847" lon="12.98723"><ele>673.0</ele><time>2026-04-04T14:41:13.726Z</time></trkpt><trkpt lat="43.03857" lon="12.9873883"><ele>674.3333333333334</ele><time>2026-04-04T14:41:14.729Z</time></trkpt><trkpt lat="43.0386833" lon="12.987545"><ele>675.6666666666666</ele><time>2026-04-04T14:41:15.727Z</time></trkpt><trkpt lat="43.038815" lon="12.9876967"><ele>677.0</ele><time>2026-04-04T14:41:16.73Z</time></trkpt><trkpt lat="43.0389567" lon="12.9878383"><ele>677.0</ele><time>2026-04-04T14:41:17.727Z</time></trkpt><trkpt lat="43.0391" lon="12.9879733"><ele>677.0</ele><time>2026-04-04T14:41:18.728Z</time></trkpt><trkpt lat="43.0392367" lon="12.9881133"><ele>677.0</ele><time>2026-04-04T14:41:19.731Z</time></trkpt><trkpt lat="43.0393633" lon="12.9882633"><ele>673.0</ele><time>2026-04-04T14:41:20.733Z</time></trkpt><trkpt lat="43.039475" lon="12.9884367"><ele>669.0</ele><time>2026-04-04T14:41:21.731Z</time></trkpt><trkpt lat="43.0395683" lon="12.9886367"><ele>665.0</ele><time>2026-04-04T14:41:22.727Z</time></trkpt><trkpt lat="43.039655" lon="12.9888433"><ele>665.0</ele><time>2026-04-04T14:41:23.73Z</time></trkpt><trkpt lat="43.0397483" lon="12.98906"><ele>665.0</ele><time>2026-04-04T14:41:24.732Z</time></trkpt><trkpt lat="43.03984" lon="12.9892767"><ele>665.0</ele><time>2026-04-04T14:41:25.729Z</time></trkpt><trkpt lat="43.03993" lon="12.98949"><ele>665.0</ele><time>2026-04-04T14:41:26.729Z</time></trkpt><trkpt lat="43.0400167" lon="12.989695"><ele>665.0</ele><time>2026-04-04T14:41:27.728Z</time></trkpt><trkpt lat="43.0400967" lon="12.98989"><ele>665.0</ele><time>2026-04-04T14:41:28.728Z</time></trkpt><trkpt lat="43.0401583" lon="12.9900883"><ele>664.3333333333333</ele><time>2026-04-04T14:41:29.727Z</time></trkpt><trkpt lat="43.0401883" lon="12.9903067"><ele>663.6666666666666</ele><time>2026-04-04T14:41:30.727Z</time></trkpt><trkpt lat="43.04019" lon="12.990545"><ele>663.0</ele><time>2026-04-04T14:41:31.727Z</time></trkpt><trkpt lat="43.040175" lon="12.9907967"><ele>662.3333333333334</ele><time>2026-04-04T14:41:32.73Z</time></trkpt><trkpt lat="43.0401533" lon="12.9910433"><ele>661.6666666666667</ele><time>2026-04-04T14:41:33.728Z</time></trkpt><trkpt lat="43.040125" lon="12.9912833"><ele>661.0</ele><time>2026-04-04T14:41:34.729Z</time></trkpt><trkpt lat="43.0401017" lon="12.9915233"><ele>660.3333333333334</ele><time>2026-04-04T14:41:35.727Z</time></trkpt><trkpt lat="43.0400983" lon="12.9917717"><ele>659.6666666666666</ele><time>2026-04-04T14:41:36.728Z</time></trkpt><trkpt lat="43.0401167" lon="12.9920283"><ele>659.0</ele><time>2026-04-04T14:41:37.73Z</time></trkpt><trkpt lat="43.04014" lon="12.9922833"><ele>658.0</ele><time>2026-04-04T14:41:38.728Z</time></trkpt><trkpt lat="43.04017" lon="12.9925333"><ele>657.0</ele><time>2026-04-04T14:41:39.728Z</time></trkpt><trkpt lat="43.0402017" lon="12.992785"><ele>656.0</ele><time>2026-04-04T14:41:40.722Z</time></trkpt><trkpt lat="43.040235" lon="12.9930333"><ele>656.0</ele><time>2026-04-04T14:41:41.728Z</time></trkpt><trkpt lat="43.0402683" lon="12.9932817"><ele>656.0</ele><time>2026-04-04T14:41:42.733Z</time></trkpt><trkpt lat="43.040295" lon="12.99352"><ele>656.0</ele><time>2026-04-04T14:41:43.728Z</time></trkpt><trkpt lat="43.0403083" lon="12.9937583"><ele>658.0</ele><time>2026-04-04T14:41:44.73Z</time></trkpt><trkpt lat="43.0403017" lon="12.9939983"><ele>660.0</ele><time>2026-04-04T14:41:45.726Z</time></trkpt><trkpt lat="43.0402617" lon="12.9942317"><ele>662.0</ele><time>2026-04-04T14:41:46.727Z</time></trkpt><trkpt lat="43.04021" lon="12.9944367"><ele>662.0</ele><time>2026-04-04T14:41:47.729Z</time></trkpt><trkpt lat="43.040155" lon="12.9946317"><ele>662.0</ele><time>2026-04-04T14:41:48.729Z</time></trkpt><trkpt lat="43.040125" lon="12.9948233"><ele>662.0</ele><time>2026-04-04T14:41:49.729Z</time></trkpt><trkpt lat="43.0401417" lon="12.99502"><ele>662.0</ele><time>2026-04-04T14:41:50.729Z</time></trkpt><trkpt lat="43.0401933" lon="12.99523"><ele>663.0</ele><time>2026-04-04T14:41:51.73Z</time></trkpt><trkpt lat="43.0402683" lon="12.9954417"><ele>664.0</ele><time>2026-04-04T14:41:52.727Z</time></trkpt><trkpt lat="43.0403483" lon="12.99564"><ele>665.0</ele><time>2026-04-04T14:41:53.724Z</time></trkpt><trkpt lat="43.04043" lon="12.995835"><ele>668.0</ele><time>2026-04-04T14:41:54.728Z</time></trkpt><trkpt lat="43.040505" lon="12.99603"><ele>671.0</ele><time>2026-04-04T14:41:55.726Z</time></trkpt><trkpt lat="43.0405533" lon="12.9962283"><ele>674.0</ele><time>2026-04-04T14:41:56.731Z</time></trkpt><trkpt lat="43.04058" lon="12.9964433"><ele>675.6666666666666</ele><time>2026-04-04T14:41:57.727Z</time></trkpt><trkpt lat="43.040595" lon="12.996675"><ele>677.3333333333334</ele><time>2026-04-04T14:41:58.729Z</time></trkpt><trkpt lat="43.0406033" lon="12.9969017"><ele>679.0</ele><time>2026-04-04T14:41:59.733Z</time></trkpt><trkpt lat="43.0406167" lon="12.9971217"><ele>679.0</ele><time>2026-04-04T14:42:00.727Z</time></trkpt><trkpt lat="43.0406433" lon="12.9973333"><ele>679.0</ele><time>2026-04-04T14:42:01.727Z</time></trkpt><trkpt lat="43.0407017" lon="12.997535"><ele>679.0</ele><time>2026-04-04T14:42:02.727Z</time></trkpt><trkpt lat="43.0407917" lon="12.9977333"><ele>671.3333333333334</ele><time>2026-04-04T14:42:03.73Z</time></trkpt><trkpt lat="43.040895" lon="12.9979267"><ele>663.6666666666666</ele><time>2026-04-04T14:42:04.731Z</time></trkpt><trkpt lat="43.040995" lon="12.998135"><ele>656.0</ele><time>2026-04-04T14:42:05.727Z</time></trkpt><trkpt lat="43.041085" lon="12.9983383"><ele>655.3333333333333</ele><time>2026-04-04T14:42:06.725Z</time></trkpt><trkpt lat="43.0411683" lon="12.9985383"><ele>654.6666666666666</ele><time>2026-04-04T14:42:07.728Z</time></trkpt><trkpt lat="43.0412433" lon="12.9987367"><ele>654.0</ele><time>2026-04-04T14:42:08.728Z</time></trkpt><trkpt lat="43.0413033" lon="12.99893"><ele>654.0</ele><time>2026-04-04T14:42:09.727Z</time></trkpt><trkpt lat="43.04135" lon="12.9991167"><ele>654.0</ele><time>2026-04-04T14:42:10.728Z</time></trkpt><trkpt lat="43.041375" lon="12.9992883"><ele>654.0</ele><time>2026-04-04T14:42:11.726Z</time></trkpt><trkpt lat="43.04138" lon="12.9994467"><ele>654.0</ele><time>2026-04-04T14:42:12.726Z</time></trkpt><trkpt lat="43.0413733" lon="12.9996067"><ele>654.0</ele><time>2026-04-04T14:42:13.728Z</time></trkpt><trkpt lat="43.0413733" lon="12.999765"><ele>654.0</ele><time>2026-04-04T14:42:14.73Z</time></trkpt><trkpt lat="43.0413967" lon="12.9999467"><ele>654.0</ele><time>2026-04-04T14:42:15.729Z</time></trkpt><trkpt lat="43.04145" lon="13.0001467"><ele>654.0</ele><time>2026-04-04T14:42:16.729Z</time></trkpt><trkpt lat="43.0415133" lon="13.0003533"><ele>654.0</ele><time>2026-04-04T14:42:17.729Z</time></trkpt><trkpt lat="43.0415717" lon="13.0005517"><ele>654.0</ele><time>2026-04-04T14:42:18.727Z</time></trkpt><trkpt lat="43.0416333" lon="13.0007483"><ele>654.0</ele><time>2026-04-04T14:42:19.728Z</time></trkpt><trkpt lat="43.0416917" lon="13.00095"><ele>649.0</ele><time>2026-04-04T14:42:20.729Z</time></trkpt><trkpt lat="43.0417467" lon="13.0011617"><ele>644.0</ele><time>2026-04-04T14:42:21.728Z</time></trkpt><trkpt lat="43.0418033" lon="13.001375"><ele>639.0</ele><time>2026-04-04T14:42:22.728Z</time></trkpt><trkpt lat="43.0418583" lon="13.0015933"><ele>638.3333333333334</ele><time>2026-04-04T14:42:23.727Z</time></trkpt><trkpt lat="43.0419067" lon="13.0018117"><ele>637.6666666666667</ele><time>2026-04-04T14:42:24.727Z</time></trkpt><trkpt lat="43.0419583" lon="13.0020183"><ele>637.0</ele><time>2026-04-04T14:42:25.731Z</time></trkpt><trkpt lat="43.0420067" lon="13.002215"><ele>637.0</ele><time>2026-04-04T14:42:26.73Z</time></trkpt><trkpt lat="43.0420583" lon="13.002405"><ele>637.0</ele><time>2026-04-04T14:42:27.73Z</time></trkpt><trkpt lat="43.042105" lon="13.002595"><ele>637.0</ele><time>2026-04-04T14:42:28.727Z</time></trkpt><trkpt lat="43.04216" lon="13.0027817"><ele>637.0</ele><time>2026-04-04T14:42:29.726Z</time></trkpt><trkpt lat="43.042235" lon="13.00295"><ele>636.6666666666667</ele><time>2026-04-04T14:42:30.728Z</time></trkpt><trkpt lat="43.042345" lon="13.0030767"><ele>636.3333333333334</ele><time>2026-04-04T14:42:31.729Z</time></trkpt><trkpt lat="43.0424917" lon="13.0031733"><ele>636.0</ele><time>2026-04-04T14:42:32.728Z</time></trkpt><trkpt lat="43.04265" lon="13.0032617"><ele>635.6666666666666</ele><time>2026-04-04T14:42:33.727Z</time></trkpt><trkpt lat="43.0428067" lon="13.0033567"><ele>635.3333333333333</ele><time>2026-04-04T14:42:34.728Z</time></trkpt><trkpt lat="43.0429533" lon="13.003455"><ele>635.0</ele><time>2026-04-04T14:42:35.731Z</time></trkpt><trkpt lat="43.0430883" lon="13.0035833"><ele>635.0</ele><time>2026-04-04T14:42:36.724Z</time></trkpt><trkpt lat="43.0432133" lon="13.0037383"><ele>635.0</ele><time>2026-04-04T14:42:37.728Z</time></trkpt><trkpt lat="43.043335" lon="13.0039033"><ele>635.0</ele><time>2026-04-04T14:42:38.728Z</time></trkpt><trkpt lat="43.0434533" lon="13.0040767"><ele>633.6666666666666</ele><time>2026-04-04T14:42:39.728Z</time></trkpt><trkpt lat="43.0435717" lon="13.004245"><ele>632.3333333333334</ele><time>2026-04-04T14:42:40.732Z</time></trkpt><trkpt lat="43.04369" lon="13.00441"><ele>631.0</ele><time>2026-04-04T14:42:41.735Z</time></trkpt><trkpt lat="43.0438133" lon="13.0045517"><ele>631.0</ele><time>2026-04-04T14:42:42.726Z</time></trkpt><trkpt lat="43.043925" lon="13.0046883"><ele>631.0</ele><time>2026-04-04T14:42:43.731Z</time></trkpt><trkpt lat="43.0440067" lon="13.004845"><ele>631.0</ele><time>2026-04-04T14:42:44.731Z</time></trkpt><trkpt lat="43.04405" lon="13.0050117"><ele>631.0</ele><time>2026-04-04T14:42:45.729Z</time></trkpt><trkpt lat="43.044035" lon="13.0052133"><ele>637.0</ele><time>2026-04-04T14:42:46.729Z</time></trkpt><trkpt lat="43.0440217" lon="13.005425"><ele>643.0</ele><time>2026-04-04T14:42:47.724Z</time></trkpt><trkpt lat="43.04404" lon="13.0056517"><ele>649.0</ele><time>2026-04-04T14:42:48.727Z</time></trkpt><trkpt lat="43.0440783" lon="13.0058767"><ele>652.6666666666667</ele><time>2026-04-04T14:42:49.726Z</time></trkpt><trkpt lat="43.0441167" lon="13.006095"><ele>656.3333333333334</ele><time>2026-04-04T14:42:50.726Z</time></trkpt><trkpt lat="43.0441467" lon="13.006305"><ele>660.0</ele><time>2026-04-04T14:42:51.727Z</time></trkpt><trkpt lat="43.04417" lon="13.0065033"><ele>657.5</ele><time>2026-04-04T14:42:52.73Z</time></trkpt><trkpt lat="43.0441817" lon="13.0067"><ele>655.0</ele><time>2026-04-04T14:42:53.725Z</time></trkpt><trkpt lat="43.0441767" lon="13.0068933"><ele>652.5</ele><time>2026-04-04T14:42:54.725Z</time></trkpt><trkpt lat="43.0441767" lon="13.00708"><ele>650.0</ele><time>2026-04-04T14:42:55.729Z</time></trkpt><trkpt lat="43.0441883" lon="13.0072617"><ele>650.0</ele><time>2026-04-04T14:42:56.728Z</time></trkpt><trkpt lat="43.0442233" lon="13.0074483"><ele>650.0</ele><time>2026-04-04T14:42:57.729Z</time></trkpt><trkpt lat="43.04432" lon="13.0076317"><ele>650.0</ele><time>2026-04-04T14:42:58.726Z</time></trkpt><trkpt lat="43.0444467" lon="13.0078083"><ele>656.3333333333333</ele><time>2026-04-04T14:42:59.73Z</time></trkpt><trkpt lat="43.0445617" lon="13.0079783"><ele>662.6666666666666</ele><time>2026-04-04T14:43:00.729Z</time></trkpt><trkpt lat="43.04468" lon="13.0081533"><ele>669.0</ele><time>2026-04-04T14:43:01.73Z</time></trkpt><trkpt lat="43.04477" lon="13.00835"><ele>672.0</ele><time>2026-04-04T14:43:02.729Z</time></trkpt><trkpt lat="43.044855" lon="13.0085517"><ele>675.0</ele><time>2026-04-04T14:43:03.728Z</time></trkpt><trkpt lat="43.04494" lon="13.008745"><ele>678.0</ele><time>2026-04-04T14:43:04.727Z</time></trkpt><trkpt lat="43.0450117" lon="13.008925"><ele>678.25</ele><time>2026-04-04T14:43:05.733Z</time></trkpt><trkpt lat="43.0450367" lon="13.0091017"><ele>678.5</ele><time>2026-04-04T14:43:06.728Z</time></trkpt><trkpt lat="43.045" lon="13.0092933"><ele>678.75</ele><time>2026-04-04T14:43:07.727Z</time></trkpt><trkpt lat="43.04493" lon="13.0095083"><ele>679.0</ele><time>2026-04-04T14:43:08.73Z</time></trkpt><trkpt lat="43.0448683" lon="13.0097367"><ele>679.0</ele><time>2026-04-04T14:43:09.728Z</time></trkpt><trkpt lat="43.0448183" lon="13.0099517"><ele>679.0</ele><time>2026-04-04T14:43:10.727Z</time></trkpt><trkpt lat="43.0447567" lon="13.0101483"><ele>679.0</ele><time>2026-04-04T14:43:11.73Z</time></trkpt><trkpt lat="43.0446767" lon="13.010305"><ele>671.0</ele><time>2026-04-04T14:43:12.729Z</time></trkpt><trkpt lat="43.044555" lon="13.0104283"><ele>663.0</ele><time>2026-04-04T14:43:13.729Z</time></trkpt><trkpt lat="43.044415" lon="13.0105517"><ele>655.0</ele><time>2026-04-04T14:43:14.733Z</time></trkpt><trkpt lat="43.044285" lon="13.010675"><ele>646.0</ele><time>2026-04-04T14:43:15.729Z</time></trkpt><trkpt lat="43.04418" lon="13.0108283"><ele>637.0</ele><time>2026-04-04T14:43:16.727Z</time></trkpt><trkpt lat="43.0441017" lon="13.0110183"><ele>628.0</ele><time>2026-04-04T14:43:17.727Z</time></trkpt><trkpt lat="43.044015" lon="13.0112183"><ele>639.6666666666667</ele><time>2026-04-04T14:43:18.729Z</time></trkpt><trkpt lat="43.0439" lon="13.0114267"><ele>651.3333333333334</ele><time>2026-04-04T14:43:19.727Z</time></trkpt><trkpt lat="43.0437833" lon="13.0116417"><ele>663.0</ele><time>2026-04-04T14:43:20.728Z</time></trkpt><trkpt lat="43.0436883" lon="13.0118517"><ele>663.0</ele><time>2026-04-04T14:43:21.729Z</time></trkpt><trkpt lat="43.0436083" lon="13.0120517"><ele>663.0</ele><time>2026-04-04T14:43:22.728Z</time></trkpt><trkpt lat="43.0435467" lon="13.01222"><ele>663.0</ele><time>2026-04-04T14:43:23.73Z</time></trkpt><trkpt lat="43.043525" lon="13.0123983"><ele>663.0</ele><time>2026-04-04T14:43:24.729Z</time></trkpt><trkpt lat="43.043535" lon="13.012595"><ele>656.6666666666666</ele><time>2026-04-04T14:43:25.73Z</time></trkpt><trkpt lat="43.04358" lon="13.0128233"><ele>650.3333333333333</ele><time>2026-04-04T14:43:26.728Z</time></trkpt><trkpt lat="43.043605" lon="13.013055"><ele>644.0</ele><time>2026-04-04T14:43:27.728Z</time></trkpt><trkpt lat="43.043605" lon="13.0132767"><ele>635.0</ele><time>2026-04-04T14:43:28.728Z</time></trkpt><trkpt lat="43.043555" lon="13.0134917"><ele>626.0</ele><time>2026-04-04T14:43:29.731Z</time></trkpt><trkpt lat="43.0434717" lon="13.013695"><ele>617.0</ele><time>2026-04-04T14:43:30.727Z</time></trkpt><trkpt lat="43.0433583" lon="13.01387"><ele>617.3333333333333</ele><time>2026-04-04T14:43:31.727Z</time></trkpt><trkpt lat="43.0432517" lon="13.0140467"><ele>617.6666666666666</ele><time>2026-04-04T14:43:32.731Z</time></trkpt><trkpt lat="43.0431567" lon="13.0142533"><ele>618.0</ele><time>2026-04-04T14:43:33.728Z</time></trkpt><trkpt lat="43.0430683" lon="13.014465"><ele>618.0</ele><time>2026-04-04T14:43:34.728Z</time></trkpt><trkpt lat="43.043" lon="13.014685"><ele>618.0</ele><time>2026-04-04T14:43:35.727Z</time></trkpt><trkpt lat="43.04296" lon="13.0149233"><ele>618.0</ele><time>2026-04-04T14:43:36.728Z</time></trkpt><trkpt lat="43.042955" lon="13.0151817"><ele>618.6666666666666</ele><time>2026-04-04T14:43:37.727Z</time></trkpt><trkpt lat="43.042955" lon="13.0154317"><ele>619.3333333333333</ele><time>2026-04-04T14:43:38.726Z</time></trkpt><trkpt lat="43.04293" lon="13.0156783"><ele>620.0</ele><time>2026-04-04T14:43:39.731Z</time></trkpt><trkpt lat="43.04289" lon="13.0159283"><ele>620.0</ele><time>2026-04-04T14:43:40.727Z</time></trkpt><trkpt lat="43.0428683" lon="13.0161817"><ele>620.0</ele><time>2026-04-04T14:43:41.728Z</time></trkpt><trkpt lat="43.0428667" lon="13.0164467"><ele>620.0</ele><time>2026-04-04T14:43:42.73Z</time></trkpt><trkpt lat="43.0428633" lon="13.016715"><ele>618.6666666666666</ele><time>2026-04-04T14:43:43.729Z</time></trkpt><trkpt lat="43.0428483" lon="13.016985"><ele>617.3333333333334</ele><time>2026-04-04T14:43:44.732Z</time></trkpt><trkpt lat="43.0428233" lon="13.017255"><ele>616.0</ele><time>2026-04-04T14:43:45.729Z</time></trkpt><trkpt lat="43.0427983" lon="13.017525"><ele>612.3333333333334</ele><time>2026-04-04T14:43:46.73Z</time></trkpt><trkpt lat="43.0427767" lon="13.0177833"><ele>608.6666666666666</ele><time>2026-04-04T14:43:47.728Z</time></trkpt><trkpt lat="43.0427683" lon="13.0180283"><ele>605.0</ele><time>2026-04-04T14:43:48.729Z</time></trkpt><trkpt lat="43.04278" lon="13.01826"><ele>602.6666666666666</ele><time>2026-04-04T14:43:49.73Z</time></trkpt><trkpt lat="43.0428267" lon="13.0184783"><ele>600.3333333333334</ele><time>2026-04-04T14:43:50.731Z</time></trkpt><trkpt lat="43.0429033" lon="13.0186767"><ele>598.0</ele><time>2026-04-04T14:43:51.727Z</time></trkpt><trkpt lat="43.0429783" lon="13.0188617"><ele>598.0</ele><time>2026-04-04T14:43:52.727Z</time></trkpt><trkpt lat="43.0430367" lon="13.01906"><ele>598.0</ele><time>2026-04-04T14:43:53.726Z</time></trkpt><trkpt lat="43.04304" lon="13.019265"><ele>598.0</ele><time>2026-04-04T14:43:54.726Z</time></trkpt><trkpt lat="43.0430083" lon="13.0194633"><ele>597.0</ele><time>2026-04-04T14:43:55.728Z</time></trkpt><trkpt lat="43.0429867" lon="13.0196567"><ele>596.0</ele><time>2026-04-04T14:43:56.725Z</time></trkpt><trkpt lat="43.0430117" lon="13.0198567"><ele>595.0</ele><time>2026-04-04T14:43:57.731Z</time></trkpt><trkpt lat="43.0430933" lon="13.0200433"><ele>591.6666666666667</ele><time>2026-04-04T14:43:58.727Z</time></trkpt><trkpt lat="43.04321" lon="13.0202083"><ele>588.3333333333334</ele><time>2026-04-04T14:43:59.728Z</time></trkpt><trkpt lat="43.043345" lon="13.0203517"><ele>585.0</ele><time>2026-04-04T14:44:00.728Z</time></trkpt><trkpt lat="43.0434617" lon="13.0204967"><ele>574.3333333333334</ele><time>2026-04-04T14:44:01.727Z</time></trkpt><trkpt lat="43.04355" lon="13.02067"><ele>563.6666666666667</ele><time>2026-04-04T14:44:02.729Z</time></trkpt><trkpt lat="43.0435983" lon="13.0208883"><ele>553.0</ele><time>2026-04-04T14:44:03.729Z</time></trkpt><trkpt lat="43.0436133" lon="13.0211467"><ele>552.0</ele><time>2026-04-04T14:44:04.724Z</time></trkpt><trkpt lat="43.0436283" lon="13.021405"><ele>551.0</ele><time>2026-04-04T14:44:05.729Z</time></trkpt><trkpt lat="43.0436367" lon="13.0216583"><ele>550.0</ele><time>2026-04-04T14:44:06.728Z</time></trkpt><trkpt lat="43.0436533" lon="13.0219067"><ele>550.0</ele><time>2026-04-04T14:44:07.731Z</time></trkpt><trkpt lat="43.0436783" lon="13.022155"><ele>550.0</ele><time>2026-04-04T14:44:08.728Z</time></trkpt><trkpt lat="43.0437083" lon="13.0224"><ele>550.0</ele><time>2026-04-04T14:44:09.731Z</time></trkpt><trkpt lat="43.0437333" lon="13.0226483"><ele>549.6666666666667</ele><time>2026-04-04T14:44:10.73Z</time></trkpt><trkpt lat="43.043735" lon="13.022905"><ele>549.3333333333334</ele><time>2026-04-04T14:44:11.73Z</time></trkpt><trkpt lat="43.0437167" lon="13.0231583"><ele>549.0</ele><time>2026-04-04T14:44:12.733Z</time></trkpt><trkpt lat="43.043695" lon="13.02342"><ele>547.3333333333334</ele><time>2026-04-04T14:44:13.731Z</time></trkpt><trkpt lat="43.0436867" lon="13.0236817"><ele>545.6666666666667</ele><time>2026-04-04T14:44:14.73Z</time></trkpt><trkpt lat="43.043695" lon="13.0239367"><ele>544.0</ele><time>2026-04-04T14:44:15.727Z</time></trkpt><trkpt lat="43.04371" lon="13.0241883"><ele>544.0</ele><time>2026-04-04T14:44:16.728Z</time></trkpt><trkpt lat="43.0437283" lon="13.0244283"><ele>544.0</ele><time>2026-04-04T14:44:17.728Z</time></trkpt><trkpt lat="43.0437283" lon="13.0246517"><ele>544.0</ele><time>2026-04-04T14:44:18.729Z</time></trkpt><trkpt lat="43.0436883" lon="13.0248733"><ele>545.0</ele><time>2026-04-04T14:44:19.732Z</time></trkpt><trkpt lat="43.0436417" lon="13.025105"><ele>546.0</ele><time>2026-04-04T14:44:20.732Z</time></trkpt><trkpt lat="43.04359" lon="13.02534"><ele>547.0</ele><time>2026-04-04T14:44:21.731Z</time></trkpt><trkpt lat="43.04354" lon="13.0255867"><ele>546.0</ele><time>2026-04-04T14:44:22.729Z</time></trkpt><trkpt lat="43.043505" lon="13.0258433"><ele>545.0</ele><time>2026-04-04T14:44:23.731Z</time></trkpt><trkpt lat="43.0434883" lon="13.026105"><ele>544.0</ele><time>2026-04-04T14:44:24.732Z</time></trkpt><trkpt lat="43.0434933" lon="13.0263683"><ele>544.0</ele><time>2026-04-04T14:44:25.729Z</time></trkpt><trkpt lat="43.0435" lon="13.0266317"><ele>544.0</ele><time>2026-04-04T14:44:26.732Z</time></trkpt><trkpt lat="43.043505" lon="13.026895"><ele>544.0</ele><time>2026-04-04T14:44:27.731Z</time></trkpt><trkpt lat="43.043505" lon="13.0271567"><ele>543.3333333333334</ele><time>2026-04-04T14:44:28.728Z</time></trkpt><trkpt lat="43.043505" lon="13.0274217"><ele>542.6666666666666</ele><time>2026-04-04T14:44:29.73Z</time></trkpt><trkpt lat="43.043495" lon="13.027695"><ele>542.0</ele><time>2026-04-04T14:44:30.733Z</time></trkpt><trkpt lat="43.0434733" lon="13.027965"><ele>540.0</ele><time>2026-04-04T14:44:31.732Z</time></trkpt><trkpt lat="43.0434483" lon="13.0282333"><ele>538.0</ele><time>2026-04-04T14:44:32.728Z</time></trkpt><trkpt lat="43.0434317" lon="13.028505"><ele>536.0</ele><time>2026-04-04T14:44:33.73Z</time></trkpt><trkpt lat="43.0434367" lon="13.0287717"><ele>536.0</ele><time>2026-04-04T14:44:34.731Z</time></trkpt><trkpt lat="43.0434733" lon="13.0290283"><ele>536.0</ele><time>2026-04-04T14:44:35.731Z</time></trkpt><trkpt lat="43.043535" lon="13.0292717"><ele>536.0</ele><time>2026-04-04T14:44:36.727Z</time></trkpt><trkpt lat="43.0435983" lon="13.0295167"><ele>535.3333333333333</ele><time>2026-04-04T14:44:37.73Z</time></trkpt><trkpt lat="43.0436483" lon="13.0297767"><ele>534.6666666666666</ele><time>2026-04-04T14:44:38.73Z</time></trkpt><trkpt lat="43.0436867" lon="13.0300383"><ele>534.0</ele><time>2026-04-04T14:44:39.728Z</time></trkpt><trkpt lat="43.0437133" lon="13.0303017"><ele>532.0</ele><time>2026-04-04T14:44:40.729Z</time></trkpt><trkpt lat="43.0437367" lon="13.0305567"><ele>530.0</ele><time>2026-04-04T14:44:41.729Z</time></trkpt><trkpt lat="43.04373" lon="13.0308117"><ele>528.0</ele><time>2026-04-04T14:44:42.727Z</time></trkpt><trkpt lat="43.0437" lon="13.0310567"><ele>526.3333333333334</ele><time>2026-04-04T14:44:43.726Z</time></trkpt><trkpt lat="43.0436583" lon="13.0312833"><ele>524.6666666666667</ele><time>2026-04-04T14:44:44.729Z</time></trkpt><trkpt lat="43.0436367" lon="13.031505"><ele>523.0</ele><time>2026-04-04T14:44:45.73Z</time></trkpt><trkpt lat="43.04365" lon="13.03172"><ele>521.3333333333334</ele><time>2026-04-04T14:44:46.728Z</time></trkpt><trkpt lat="43.0436983" lon="13.031935"><ele>519.6666666666666</ele><time>2026-04-04T14:44:47.731Z</time></trkpt><trkpt lat="43.0437583" lon="13.0321583"><ele>518.0</ele><time>2026-04-04T14:44:48.728Z</time></trkpt><trkpt lat="43.04381" lon="13.0323933"><ele>516.6666666666666</ele><time>2026-04-04T14:44:49.731Z</time></trkpt><trkpt lat="43.0438483" lon="13.0326433"><ele>515.3333333333334</ele><time>2026-04-04T14:44:50.729Z</time></trkpt><trkpt lat="43.043865" lon="13.0329083"><ele>514.0</ele><time>2026-04-04T14:44:51.734Z</time></trkpt><trkpt lat="43.04387" lon="13.0331717"><ele>514.0</ele><time>2026-04-04T14:44:52.728Z</time></trkpt><trkpt lat="43.0438683" lon="13.0334283"><ele>514.0</ele><time>2026-04-04T14:44:53.726Z</time></trkpt><trkpt lat="43.0438683" lon="13.0336733"><ele>514.0</ele><time>2026-04-04T14:44:54.729Z</time></trkpt><trkpt lat="43.0438683" lon="13.033915"><ele>513.3333333333334</ele><time>2026-04-04T14:44:55.728Z</time></trkpt><trkpt lat="43.0438717" lon="13.0341583"><ele>512.6666666666666</ele><time>2026-04-04T14:44:56.733Z</time></trkpt><trkpt lat="43.0438717" lon="13.0344083"><ele>512.0</ele><time>2026-04-04T14:44:57.727Z</time></trkpt><trkpt lat="43.0438533" lon="13.0346633"><ele>512.0</ele><time>2026-04-04T14:44:58.731Z</time></trkpt><trkpt lat="43.0438183" lon="13.034915"><ele>512.0</ele><time>2026-04-04T14:44:59.727Z</time></trkpt><trkpt lat="43.0437717" lon="13.0351617"><ele>512.0</ele><time>2026-04-04T14:45:00.729Z</time></trkpt><trkpt lat="43.0437233" lon="13.0354"><ele>511.3333333333333</ele><time>2026-04-04T14:45:01.731Z</time></trkpt><trkpt lat="43.0436717" lon="13.0356217"><ele>510.66666666666663</ele><time>2026-04-04T14:45:02.73Z</time></trkpt><trkpt lat="43.0436183" lon="13.0358367"><ele>510.0</ele><time>2026-04-04T14:45:03.727Z</time></trkpt><trkpt lat="43.0435667" lon="13.0360417"><ele>508.75</ele><time>2026-04-04T14:45:04.728Z</time></trkpt><trkpt lat="43.0435267" lon="13.03624"><ele>507.5</ele><time>2026-04-04T14:45:05.728Z</time></trkpt><trkpt lat="43.043495" lon="13.0364317"><ele>506.25</ele><time>2026-04-04T14:45:06.731Z</time></trkpt><trkpt lat="43.0434567" lon="13.0366217"><ele>505.0</ele><time>2026-04-04T14:45:07.729Z</time></trkpt><trkpt lat="43.04343" lon="13.0368183"><ele>505.0</ele><time>2026-04-04T14:45:08.731Z</time></trkpt><trkpt lat="43.0434233" lon="13.037015"><ele>505.0</ele><time>2026-04-04T14:45:09.727Z</time></trkpt><trkpt lat="43.043425" lon="13.0372067"><ele>505.0</ele><time>2026-04-04T14:45:10.729Z</time></trkpt><trkpt lat="43.0434267" lon="13.0373933"><ele>505.0</ele><time>2026-04-04T14:45:11.729Z</time></trkpt><trkpt lat="43.0434317" lon="13.03758"><ele>504.0</ele><time>2026-04-04T14:45:12.729Z</time></trkpt><trkpt lat="43.0434367" lon="13.0377783"><ele>503.0</ele><time>2026-04-04T14:45:13.728Z</time></trkpt><trkpt lat="43.0434383" lon="13.0379717"><ele>502.0</ele><time>2026-04-04T14:45:14.731Z</time></trkpt><trkpt lat="43.04344" lon="13.0381667"><ele>501.0</ele><time>2026-04-04T14:45:15.727Z</time></trkpt><trkpt lat="43.043445" lon="13.0383667"><ele>501.0</ele><time>2026-04-04T14:45:16.73Z</time></trkpt><trkpt lat="43.043445" lon="13.0385633"><ele>501.0</ele><time>2026-04-04T14:45:17.726Z</time></trkpt><trkpt lat="43.0434483" lon="13.0387633"><ele>501.0</ele><time>2026-04-04T14:45:18.735Z</time></trkpt><trkpt lat="43.0434367" lon="13.03897"><ele>501.0</ele><time>2026-04-04T14:45:19.728Z</time></trkpt><trkpt lat="43.0434367" lon="13.0391783"><ele>500.5</ele><time>2026-04-04T14:45:20.728Z</time></trkpt><trkpt lat="43.0434383" lon="13.0393767"><ele>500.0</ele><time>2026-04-04T14:45:21.731Z</time></trkpt><trkpt lat="43.0434367" lon="13.039575"><ele>499.5</ele><time>2026-04-04T14:45:22.731Z</time></trkpt><trkpt lat="43.043435" lon="13.0397733"><ele>499.0</ele><time>2026-04-04T14:45:23.73Z</time></trkpt><trkpt lat="43.0434333" lon="13.0399683"><ele>498.5</ele><time>2026-04-04T14:45:24.729Z</time></trkpt><trkpt lat="43.0434333" lon="13.0401617"><ele>498.0</ele><time>2026-04-04T14:45:25.731Z</time></trkpt><trkpt lat="43.0434383" lon="13.0403583"><ele>497.5</ele><time>2026-04-04T14:45:26.731Z</time></trkpt><trkpt lat="43.0434383" lon="13.0405533"><ele>497.0</ele><time>2026-04-04T14:45:27.731Z</time></trkpt><trkpt lat="43.0434367" lon="13.040745"><ele>496.25</ele><time>2026-04-04T14:45:28.728Z</time></trkpt><trkpt lat="43.04343" lon="13.04094"><ele>495.5</ele><time>2026-04-04T14:45:29.73Z</time></trkpt><trkpt lat="43.0434267" lon="13.0411333"><ele>494.75</ele><time>2026-04-04T14:45:30.728Z</time></trkpt><trkpt lat="43.0434267" lon="13.0413267"><ele>494.0</ele><time>2026-04-04T14:45:31.728Z</time></trkpt><trkpt lat="43.0434267" lon="13.0415217"><ele>494.25</ele><time>2026-04-04T14:45:32.732Z</time></trkpt><trkpt lat="43.0434283" lon="13.0417183"><ele>494.5</ele><time>2026-04-04T14:45:33.727Z</time></trkpt><trkpt lat="43.0434317" lon="13.0419133"><ele>494.75</ele><time>2026-04-04T14:45:34.727Z</time></trkpt><trkpt lat="43.04343" lon="13.0421017"><ele>495.0</ele><time>2026-04-04T14:45:35.729Z</time></trkpt><trkpt lat="43.0434283" lon="13.0422783"><ele>495.0</ele><time>2026-04-04T14:45:36.729Z</time></trkpt><trkpt lat="43.043425" lon="13.0424467"><ele>495.0</ele><time>2026-04-04T14:45:37.731Z</time></trkpt><trkpt lat="43.0434233" lon="13.0426067"><ele>495.0</ele><time>2026-04-04T14:45:38.73Z</time></trkpt><trkpt lat="43.0434217" lon="13.0427583"><ele>495.0</ele><time>2026-04-04T14:45:39.728Z</time></trkpt><trkpt lat="43.043425" lon="13.0429067"><ele>494.5</ele><time>2026-04-04T14:45:40.729Z</time></trkpt><trkpt lat="43.0434283" lon="13.0430667"><ele>494.0</ele><time>2026-04-04T14:45:41.728Z</time></trkpt><trkpt lat="43.0434333" lon="13.0432367"><ele>493.5</ele><time>2026-04-04T14:45:42.726Z</time></trkpt><trkpt lat="43.0434333" lon="13.0433983"><ele>493.0</ele><time>2026-04-04T14:45:43.724Z</time></trkpt><trkpt lat="43.0434283" lon="13.04356"><ele>492.25</ele><time>2026-04-04T14:45:44.727Z</time></trkpt><trkpt lat="43.0434317" lon="13.0437217"><ele>491.5</ele><time>2026-04-04T14:45:45.726Z</time></trkpt><trkpt lat="43.0434333" lon="13.0438783"><ele>490.75</ele><time>2026-04-04T14:45:46.73Z</time></trkpt><trkpt lat="43.043435" lon="13.0440383"><ele>490.0</ele><time>2026-04-04T14:45:47.727Z</time></trkpt><trkpt lat="43.0434367" lon="13.0441967"><ele>489.75</ele><time>2026-04-04T14:45:48.729Z</time></trkpt><trkpt lat="43.0434383" lon="13.0443567"><ele>489.5</ele><time>2026-04-04T14:45:49.73Z</time></trkpt><trkpt lat="43.0434417" lon="13.0445167"><ele>489.25</ele><time>2026-04-04T14:45:50.729Z</time></trkpt><trkpt lat="43.0434433" lon="13.0446783"><ele>489.0</ele><time>2026-04-04T14:45:51.733Z</time></trkpt><trkpt lat="43.0434467" lon="13.0448383"><ele>489.2</ele><time>2026-04-04T14:45:52.727Z</time></trkpt><trkpt lat="43.04345" lon="13.04499"><ele>489.4</ele><time>2026-04-04T14:45:53.728Z</time></trkpt><trkpt lat="43.0434483" lon="13.0451317"><ele>489.6</ele><time>2026-04-04T14:45:54.731Z</time></trkpt><trkpt lat="43.0434483" lon="13.0452583"><ele>489.8</ele><time>2026-04-04T14:45:55.726Z</time></trkpt><trkpt lat="43.0434533" lon="13.0453667"><ele>490.0</ele><time>2026-04-04T14:45:56.728Z</time></trkpt><trkpt lat="43.0434617" lon="13.0454633"><ele>490.00000000000006</ele><time>2026-04-04T14:45:57.727Z</time></trkpt><trkpt lat="43.0434667" lon="13.0455533"><ele>490.0</ele><time>2026-04-04T14:45:58.729Z</time></trkpt><trkpt lat="43.043455" lon="13.0456467"><ele>490.0</ele><time>2026-04-04T14:45:59.728Z</time></trkpt><trkpt lat="43.04343" lon="13.0457433"><ele>490.0</ele><time>2026-04-04T14:46:00.728Z</time></trkpt><trkpt lat="43.0434033" lon="13.0458467"><ele>490.00000000000006</ele><time>2026-04-04T14:46:01.726Z</time></trkpt><trkpt lat="43.0433733" lon="13.0459533"><ele>490.0</ele><time>2026-04-04T14:46:02.73Z</time></trkpt><trkpt lat="43.04333" lon="13.0460517"><ele>489.1666666666667</ele><time>2026-04-04T14:46:03.73Z</time></trkpt><trkpt lat="43.0432867" lon="13.0461517"><ele>488.33333333333337</ele><time>2026-04-04T14:46:04.727Z</time></trkpt><trkpt lat="43.0432367" lon="13.04625"><ele>487.5</ele><time>2026-04-04T14:46:05.73Z</time></trkpt><trkpt lat="43.0431833" lon="13.04635"><ele>486.66666666666663</ele><time>2026-04-04T14:46:06.728Z</time></trkpt><trkpt lat="43.04313" lon="13.04645"><ele>485.8333333333333</ele><time>2026-04-04T14:46:07.727Z</time></trkpt><trkpt lat="43.0430767" lon="13.0465567"><ele>485.0</ele><time>2026-04-04T14:46:08.73Z</time></trkpt><trkpt lat="43.043015" lon="13.0466633"><ele>485.0</ele><time>2026-04-04T14:46:09.73Z</time></trkpt><trkpt lat="43.0429567" lon="13.0467733"><ele>485.0</ele><time>2026-04-04T14:46:10.728Z</time></trkpt><trkpt lat="43.0428917" lon="13.0468817"><ele>485.0</ele><time>2026-04-04T14:46:11.726Z</time></trkpt><trkpt lat="43.042825" lon="13.0469833"><ele>485.0</ele><time>2026-04-04T14:46:12.728Z</time></trkpt><trkpt lat="43.0427583" lon="13.0470817"><ele>485.0</ele><time>2026-04-04T14:46:13.725Z</time></trkpt><trkpt lat="43.0426883" lon="13.0471717"><ele>485.0</ele><time>2026-04-04T14:46:14.736Z</time></trkpt><trkpt lat="43.042625" lon="13.0472633"><ele>485.0</ele><time>2026-04-04T14:46:15.727Z</time></trkpt><trkpt lat="43.0425633" lon="13.0473533"><ele>485.0</ele><time>2026-04-04T14:46:16.726Z</time></trkpt><trkpt lat="43.0424967" lon="13.0474417"><ele>485.0</ele><time>2026-04-04T14:46:17.733Z</time></trkpt><trkpt lat="43.0424267" lon="13.0475133"><ele>485.0</ele><time>2026-04-04T14:46:18.729Z</time></trkpt><trkpt lat="43.042355" lon="13.0475917"><ele>483.49999999999994</ele><time>2026-04-04T14:46:19.732Z</time></trkpt><trkpt lat="43.0422883" lon="13.0476683"><ele>482.0</ele><time>2026-04-04T14:46:20.729Z</time></trkpt><trkpt lat="43.0422233" lon="13.0477483"><ele>480.5</ele><time>2026-04-04T14:46:21.727Z</time></trkpt><trkpt lat="43.0421617" lon="13.0478217"><ele>479.0</ele><time>2026-04-04T14:46:22.73Z</time></trkpt><trkpt lat="43.042095" lon="13.047875"><ele>477.49999999999994</ele><time>2026-04-04T14:46:23.73Z</time></trkpt><trkpt lat="43.0420233" lon="13.04791"><ele>476.0</ele><time>2026-04-04T14:46:24.732Z</time></trkpt><trkpt lat="43.041945" lon="13.0479217"><ele>476.0</ele><time>2026-04-04T14:46:25.729Z</time></trkpt><trkpt lat="43.0418533" lon="13.0479333"><ele>476.0</ele><time>2026-04-04T14:46:26.726Z</time></trkpt><trkpt lat="43.0417533" lon="13.0479183"><ele>476.0</ele><time>2026-04-04T14:46:27.724Z</time></trkpt><trkpt lat="43.0416467" lon="13.04793"><ele>476.0</ele><time>2026-04-04T14:46:28.727Z</time></trkpt><trkpt lat="43.0415367" lon="13.047935"><ele>476.0</ele><time>2026-04-04T14:46:29.732Z</time></trkpt><trkpt lat="43.04143" lon="13.04794"><ele>475.8333333333333</ele><time>2026-04-04T14:46:30.73Z</time></trkpt><trkpt lat="43.0413317" lon="13.0479433"><ele>475.66666666666663</ele><time>2026-04-04T14:46:31.728Z</time></trkpt><trkpt lat="43.0412367" lon="13.0479483"><ele>475.5</ele><time>2026-04-04T14:46:32.727Z</time></trkpt><trkpt lat="43.0411483" lon="13.047955"><ele>475.33333333333337</ele><time>2026-04-04T14:46:33.728Z</time></trkpt><trkpt lat="43.0410683" lon="13.0479617"><ele>475.1666666666667</ele><time>2026-04-04T14:46:34.728Z</time></trkpt><trkpt lat="43.0409933" lon="13.04797"><ele>475.0</ele><time>2026-04-04T14:46:35.729Z</time></trkpt><trkpt lat="43.04093" lon="13.0479817"><ele>475.0</ele><time>2026-04-04T14:46:36.728Z</time></trkpt><trkpt lat="43.0408467" lon="13.0479983"><ele>475.0</ele><time>2026-04-04T14:46:38.726Z</time></trkpt><trkpt lat="43.0408617" lon="13.0481367"><ele>475.0</ele><time>2026-04-04T14:46:43.725Z</time></trkpt><trkpt lat="43.0409117" lon="13.0482067"><ele>475.0</ele><time>2026-04-04T14:46:44.729Z</time></trkpt><trkpt lat="43.040985" lon="13.048285"><ele>475.0</ele><time>2026-04-04T14:46:45.728Z</time></trkpt><trkpt lat="43.041085" lon="13.0483817"><ele>475.25</ele><time>2026-04-04T14:46:46.727Z</time></trkpt><trkpt lat="43.041195" lon="13.0484783"><ele>475.5</ele><time>2026-04-04T14:46:47.727Z</time></trkpt><trkpt lat="43.0413117" lon="13.0485817"><ele>475.75</ele><time>2026-04-04T14:46:48.728Z</time></trkpt><trkpt lat="43.041435" lon="13.0486933"><ele>476.0</ele><time>2026-04-04T14:46:49.729Z</time></trkpt><trkpt lat="43.0415617" lon="13.0488233"><ele>475.66666666666663</ele><time>2026-04-04T14:46:50.733Z</time></trkpt><trkpt lat="43.04171" lon="13.048955"><ele>475.33333333333337</ele><time>2026-04-04T14:46:51.727Z</time></trkpt><trkpt lat="43.0418633" lon="13.0491"><ele>475.0</ele><time>2026-04-04T14:46:52.729Z</time></trkpt><trkpt lat="43.0420133" lon="13.04925"><ele>474.0</ele><time>2026-04-04T14:46:53.732Z</time></trkpt><trkpt lat="43.0421683" lon="13.0493917"><ele>473.0</ele><time>2026-04-04T14:46:54.729Z</time></trkpt><trkpt lat="43.0423217" lon="13.0495333"><ele>472.0</ele><time>2026-04-04T14:46:55.731Z</time></trkpt><trkpt lat="43.042475" lon="13.0496717"><ele>472.0</ele><time>2026-04-04T14:46:56.728Z</time></trkpt><trkpt lat="43.04263" lon="13.0498133"><ele>472.0</ele><time>2026-04-04T14:46:57.728Z</time></trkpt><trkpt lat="43.0427933" lon="13.0499533"><ele>472.0</ele><time>2026-04-04T14:46:58.732Z</time></trkpt><trkpt lat="43.0429583" lon="13.050095"><ele>471.6666666666667</ele><time>2026-04-04T14:46:59.731Z</time></trkpt><trkpt lat="43.0431283" lon="13.05024"><ele>471.33333333333337</ele><time>2026-04-04T14:47:00.729Z</time></trkpt><trkpt lat="43.0433017" lon="13.05039"><ele>471.0</ele><time>2026-04-04T14:47:01.733Z</time></trkpt><trkpt lat="43.043475" lon="13.0505367"><ele>471.0</ele><time>2026-04-04T14:47:02.734Z</time></trkpt><trkpt lat="43.0436517" lon="13.0506817"><ele>471.0</ele><time>2026-04-04T14:47:03.728Z</time></trkpt><trkpt lat="43.043825" lon="13.0508233"><ele>471.0</ele><time>2026-04-04T14:47:04.731Z</time></trkpt><trkpt lat="43.044" lon="13.0509667"><ele>471.33333333333337</ele><time>2026-04-04T14:47:05.73Z</time></trkpt><trkpt lat="43.044175" lon="13.0511083"><ele>471.6666666666667</ele><time>2026-04-04T14:47:06.732Z</time></trkpt><trkpt lat="43.04435" lon="13.0512483"><ele>472.0</ele><time>2026-04-04T14:47:07.732Z</time></trkpt><trkpt lat="43.04452" lon="13.0513933"><ele>472.0</ele><time>2026-04-04T14:47:08.729Z</time></trkpt><trkpt lat="43.0446933" lon="13.0515433"><ele>472.0</ele><time>2026-04-04T14:47:09.731Z</time></trkpt><trkpt lat="43.04487" lon="13.0516833"><ele>472.0</ele><time>2026-04-04T14:47:10.727Z</time></trkpt><trkpt lat="43.0450467" lon="13.0518083"><ele>470.6666666666667</ele><time>2026-04-04T14:47:11.729Z</time></trkpt><trkpt lat="43.0452233" lon="13.05191"><ele>469.33333333333337</ele><time>2026-04-04T14:47:12.729Z</time></trkpt><trkpt lat="43.0454117" lon="13.05199"><ele>468.0</ele><time>2026-04-04T14:47:13.731Z</time></trkpt><trkpt lat="43.0456083" lon="13.05205"><ele>468.33333333333337</ele><time>2026-04-04T14:47:14.732Z</time></trkpt><trkpt lat="43.0458067" lon="13.0520867"><ele>468.6666666666667</ele><time>2026-04-04T14:47:15.728Z</time></trkpt><trkpt lat="43.0460083" lon="13.0520967"><ele>469.0</ele><time>2026-04-04T14:47:16.727Z</time></trkpt><trkpt lat="43.0462133" lon="13.0520983"><ele>469.0</ele><time>2026-04-04T14:47:17.73Z</time></trkpt><trkpt lat="43.046415" lon="13.052105"><ele>469.0</ele><time>2026-04-04T14:47:18.729Z</time></trkpt><trkpt lat="43.04661" lon="13.0521283"><ele>469.0</ele><time>2026-04-04T14:47:19.732Z</time></trkpt><trkpt lat="43.0468" lon="13.0521767"><ele>469.6666666666667</ele><time>2026-04-04T14:47:20.734Z</time></trkpt><trkpt lat="43.0469817" lon="13.0522533"><ele>470.33333333333337</ele><time>2026-04-04T14:47:21.728Z</time></trkpt><trkpt lat="43.0471617" lon="13.0523383"><ele>471.0</ele><time>2026-04-04T14:47:22.728Z</time></trkpt><trkpt lat="43.0473483" lon="13.0524317"><ele>469.0</ele><time>2026-04-04T14:47:23.73Z</time></trkpt><trkpt lat="43.0475367" lon="13.052525"><ele>467.0</ele><time>2026-04-04T14:47:24.722Z</time></trkpt><trkpt lat="43.0477233" lon="13.05262"><ele>465.0</ele><time>2026-04-04T14:47:25.728Z</time></trkpt><trkpt lat="43.0479083" lon="13.0527083"><ele>465.0</ele><time>2026-04-04T14:47:26.728Z</time></trkpt><trkpt lat="43.0481" lon="13.0527983"><ele>465.0</ele><time>2026-04-04T14:47:27.731Z</time></trkpt><trkpt lat="43.0482917" lon="13.0528833"><ele>465.0</ele><time>2026-04-04T14:47:28.727Z</time></trkpt><trkpt lat="43.0484867" lon="13.0529717"><ele>465.33333333333337</ele><time>2026-04-04T14:47:29.73Z</time></trkpt><trkpt lat="43.0486817" lon="13.0530667"><ele>465.6666666666667</ele><time>2026-04-04T14:47:30.73Z</time></trkpt><trkpt lat="43.04888" lon="13.0531683"><ele>466.0</ele><time>2026-04-04T14:47:31.734Z</time></trkpt><trkpt lat="43.0490717" lon="13.0532817"><ele>465.0</ele><time>2026-04-04T14:47:32.727Z</time></trkpt><trkpt lat="43.0492567" lon="13.0534033"><ele>464.0</ele><time>2026-04-04T14:47:33.726Z</time></trkpt><trkpt lat="43.0494383" lon="13.0535367"><ele>463.0</ele><time>2026-04-04T14:47:34.729Z</time></trkpt><trkpt lat="43.0496217" lon="13.0536833"><ele>463.0</ele><time>2026-04-04T14:47:35.73Z</time></trkpt><trkpt lat="43.049805" lon="13.05384"><ele>463.0</ele><time>2026-04-04T14:47:36.73Z</time></trkpt><trkpt lat="43.0499867" lon="13.054"><ele>463.0</ele><time>2026-04-04T14:47:37.73Z</time></trkpt><trkpt lat="43.0501683" lon="13.0541667"><ele>462.0</ele><time>2026-04-04T14:47:38.73Z</time></trkpt><trkpt lat="43.05035" lon="13.0543333"><ele>461.0</ele><time>2026-04-04T14:47:39.726Z</time></trkpt><trkpt lat="43.05053" lon="13.0545"><ele>460.0</ele><time>2026-04-04T14:47:40.73Z</time></trkpt><trkpt lat="43.05071" lon="13.054665"><ele>459.6666666666667</ele><time>2026-04-04T14:47:41.729Z</time></trkpt><trkpt lat="43.050885" lon="13.0548233"><ele>459.33333333333337</ele><time>2026-04-04T14:47:42.73Z</time></trkpt><trkpt lat="43.0510617" lon="13.0549817"><ele>459.0</ele><time>2026-04-04T14:47:43.73Z</time></trkpt><trkpt lat="43.051235" lon="13.05514"><ele>458.66666666666663</ele><time>2026-04-04T14:47:44.729Z</time></trkpt><trkpt lat="43.051405" lon="13.0552967"><ele>458.3333333333333</ele><time>2026-04-04T14:47:45.727Z</time></trkpt><trkpt lat="43.0515767" lon="13.0554567"><ele>458.0</ele><time>2026-04-04T14:47:46.728Z</time></trkpt><trkpt lat="43.051745" lon="13.05562"><ele>458.3333333333333</ele><time>2026-04-04T14:47:47.731Z</time></trkpt><trkpt lat="43.0519117" lon="13.0557883"><ele>458.66666666666663</ele><time>2026-04-04T14:47:48.729Z</time></trkpt><trkpt lat="43.0520767" lon="13.0559667"><ele>459.0</ele><time>2026-04-04T14:47:49.729Z</time></trkpt><trkpt lat="43.052235" lon="13.0561583"><ele>459.0</ele><time>2026-04-04T14:47:50.733Z</time></trkpt><trkpt lat="43.0523867" lon="13.0563483"><ele>459.0</ele><time>2026-04-04T14:47:51.729Z</time></trkpt><trkpt lat="43.0525417" lon="13.0565417"><ele>459.0</ele><time>2026-04-04T14:47:52.726Z</time></trkpt><trkpt lat="43.0526983" lon="13.05674"><ele>459.0</ele><time>2026-04-04T14:47:53.732Z</time></trkpt><trkpt lat="43.0528583" lon="13.05694"><ele>459.0</ele><time>2026-04-04T14:47:54.727Z</time></trkpt><trkpt lat="43.053025" lon="13.0571367"><ele>459.0</ele><time>2026-04-04T14:47:55.731Z</time></trkpt><trkpt lat="43.0531967" lon="13.057325"><ele>458.33333333333337</ele><time>2026-04-04T14:47:56.729Z</time></trkpt><trkpt lat="43.053375" lon="13.0575067"><ele>457.6666666666667</ele><time>2026-04-04T14:47:57.724Z</time></trkpt><trkpt lat="43.0535567" lon="13.0576817"><ele>457.0</ele><time>2026-04-04T14:47:58.726Z</time></trkpt><trkpt lat="43.0537367" lon="13.0578433"><ele>457.0</ele><time>2026-04-04T14:47:59.73Z</time></trkpt><trkpt lat="43.053925" lon="13.0579983"><ele>457.0</ele><time>2026-04-04T14:48:00.728Z</time></trkpt><trkpt lat="43.0541167" lon="13.0581367"><ele>457.0</ele><time>2026-04-04T14:48:01.729Z</time></trkpt><trkpt lat="43.0543117" lon="13.0582633"><ele>457.33333333333337</ele><time>2026-04-04T14:48:02.729Z</time></trkpt><trkpt lat="43.0545067" lon="13.05838"><ele>457.66666666666663</ele><time>2026-04-04T14:48:03.728Z</time></trkpt><trkpt lat="43.0547033" lon="13.0585017"><ele>458.0</ele><time>2026-04-04T14:48:04.731Z</time></trkpt><trkpt lat="43.0548983" lon="13.0586333"><ele>459.3333333333333</ele><time>2026-04-04T14:48:05.732Z</time></trkpt><trkpt lat="43.05509" lon="13.0587633"><ele>460.66666666666663</ele><time>2026-04-04T14:48:06.729Z</time></trkpt><trkpt lat="43.0552817" lon="13.0589"><ele>462.0</ele><time>2026-04-04T14:48:07.724Z</time></trkpt><trkpt lat="43.0554767" lon="13.05904"><ele>461.33333333333337</ele><time>2026-04-04T14:48:08.732Z</time></trkpt><trkpt lat="43.0556683" lon="13.0591783"><ele>460.6666666666667</ele><time>2026-04-04T14:48:09.727Z</time></trkpt><trkpt lat="43.0558617" lon="13.059315"><ele>460.0</ele><time>2026-04-04T14:48:10.729Z</time></trkpt><trkpt lat="43.0560533" lon="13.0594533"><ele>460.0</ele><time>2026-04-04T14:48:11.731Z</time></trkpt><trkpt lat="43.0562417" lon="13.0595883"><ele>460.0</ele><time>2026-04-04T14:48:12.728Z</time></trkpt><trkpt lat="43.05643" lon="13.059725"><ele>460.0</ele><time>2026-04-04T14:48:13.73Z</time></trkpt><trkpt lat="43.05662" lon="13.059865"><ele>458.0</ele><time>2026-04-04T14:48:14.731Z</time></trkpt><trkpt lat="43.05681" lon="13.0600033"><ele>456.0</ele><time>2026-04-04T14:48:15.73Z</time></trkpt><trkpt lat="43.057" lon="13.060145"><ele>454.0</ele><time>2026-04-04T14:48:16.73Z</time></trkpt><trkpt lat="43.0571883" lon="13.0602867"><ele>454.0</ele><time>2026-04-04T14:48:17.728Z</time></trkpt><trkpt lat="43.05738" lon="13.060425"><ele>454.0</ele><time>2026-04-04T14:48:18.729Z</time></trkpt><trkpt lat="43.0575717" lon="13.0605667"><ele>454.0</ele><time>2026-04-04T14:48:19.731Z</time></trkpt><trkpt lat="43.057765" lon="13.060705"><ele>453.6666666666667</ele><time>2026-04-04T14:48:20.729Z</time></trkpt><trkpt lat="43.0579583" lon="13.060845"><ele>453.33333333333337</ele><time>2026-04-04T14:48:21.731Z</time></trkpt><trkpt lat="43.0581533" lon="13.06098"><ele>453.0</ele><time>2026-04-04T14:48:22.729Z</time></trkpt><trkpt lat="43.05835" lon="13.0611"><ele>453.0</ele><time>2026-04-04T14:48:23.731Z</time></trkpt><trkpt lat="43.058555" lon="13.0612067"><ele>453.0</ele><time>2026-04-04T14:48:24.729Z</time></trkpt><trkpt lat="43.0587667" lon="13.0613"><ele>453.0</ele><time>2026-04-04T14:48:25.731Z</time></trkpt><trkpt lat="43.0589817" lon="13.06138"><ele>454.0</ele><time>2026-04-04T14:48:26.727Z</time></trkpt><trkpt lat="43.0592033" lon="13.06145"><ele>455.0</ele><time>2026-04-04T14:48:27.728Z</time></trkpt><trkpt lat="43.0594283" lon="13.0615017"><ele>455.0</ele><time>2026-04-04T14:48:28.727Z</time></trkpt><trkpt lat="43.059655" lon="13.0615483"><ele>455.0</ele><time>2026-04-04T14:48:29.726Z</time></trkpt><trkpt lat="43.0598817" lon="13.06159"><ele>451.0</ele><time>2026-04-04T14:48:30.731Z</time></trkpt><trkpt lat="43.0601067" lon="13.0616333"><ele>447.0</ele><time>2026-04-04T14:48:31.732Z</time></trkpt><trkpt lat="43.06033" lon="13.061675"><ele>447.0</ele><time>2026-04-04T14:48:32.733Z</time></trkpt><trkpt lat="43.0605533" lon="13.06172"><ele>447.0</ele><time>2026-04-04T14:48:33.728Z</time></trkpt><trkpt lat="43.0607733" lon="13.06176"><ele>447.0</ele><time>2026-04-04T14:48:34.731Z</time></trkpt><trkpt lat="43.06099" lon="13.061805"><ele>447.5</ele><time>2026-04-04T14:48:35.727Z</time></trkpt><trkpt lat="43.06122" lon="13.0618533"><ele>448.0</ele><time>2026-04-04T14:48:36.729Z</time></trkpt><trkpt lat="43.0614367" lon="13.061895"><ele>447.6666666666667</ele><time>2026-04-04T14:48:37.729Z</time></trkpt><trkpt lat="43.0616533" lon="13.0619333"><ele>447.33333333333337</ele><time>2026-04-04T14:48:38.73Z</time></trkpt><trkpt lat="43.0618817" lon="13.061975"><ele>447.0</ele><time>2026-04-04T14:48:39.729Z</time></trkpt><trkpt lat="43.062115" lon="13.0620267"><ele>447.0</ele><time>2026-04-04T14:48:40.728Z</time></trkpt><trkpt lat="43.06235" lon="13.0620833"><ele>447.0</ele><time>2026-04-04T14:48:41.731Z</time></trkpt><trkpt lat="43.0625833" lon="13.0621333"><ele>446.0</ele><time>2026-04-04T14:48:42.728Z</time></trkpt><trkpt lat="43.0628133" lon="13.0621767"><ele>445.0</ele><time>2026-04-04T14:48:43.731Z</time></trkpt><trkpt lat="43.0630383" lon="13.06222"><ele>445.0</ele><time>2026-04-04T14:48:44.73Z</time></trkpt><trkpt lat="43.0632567" lon="13.0622633"><ele>445.0</ele><time>2026-04-04T14:48:45.727Z</time></trkpt><trkpt lat="43.0634767" lon="13.0623067"><ele>445.0</ele><time>2026-04-04T14:48:46.728Z</time></trkpt><trkpt lat="43.063695" lon="13.06235"><ele>445.0</ele><time>2026-04-04T14:48:47.73Z</time></trkpt><trkpt lat="43.0639083" lon="13.062395"><ele>445.0</ele><time>2026-04-04T14:48:48.727Z</time></trkpt><trkpt lat="43.064125" lon="13.0624383"><ele>445.0</ele><time>2026-04-04T14:48:49.728Z</time></trkpt><trkpt lat="43.06434" lon="13.0624833"><ele>443.6666666666667</ele><time>2026-04-04T14:48:50.733Z</time></trkpt><trkpt lat="43.0645517" lon="13.0625283"><ele>442.33333333333337</ele><time>2026-04-04T14:48:51.732Z</time></trkpt><trkpt lat="43.064765" lon="13.06257"><ele>441.0</ele><time>2026-04-04T14:48:52.731Z</time></trkpt><trkpt lat="43.0649833" lon="13.0626133"><ele>441.0</ele><time>2026-04-04T14:48:53.731Z</time></trkpt><trkpt lat="43.0652" lon="13.062655"><ele>441.0</ele><time>2026-04-04T14:48:54.734Z</time></trkpt><trkpt lat="43.0654217" lon="13.0626983"><ele>441.0</ele><time>2026-04-04T14:48:55.731Z</time></trkpt><trkpt lat="43.06564" lon="13.0627433"><ele>443.0</ele><time>2026-04-04T14:48:56.731Z</time></trkpt><trkpt lat="43.0658617" lon="13.0627883"><ele>445.0</ele><time>2026-04-04T14:48:57.73Z</time></trkpt><trkpt lat="43.0660817" lon="13.0628367"><ele>447.0</ele><time>2026-04-04T14:48:58.728Z</time></trkpt><trkpt lat="43.0663" lon="13.0628883"><ele>447.0</ele><time>2026-04-04T14:48:59.729Z</time></trkpt><trkpt lat="43.06651" lon="13.0629383"><ele>447.0</ele><time>2026-04-04T14:49:00.731Z</time></trkpt><trkpt lat="43.0667183" lon="13.0629833"><ele>447.0</ele><time>2026-04-04T14:49:01.727Z</time></trkpt><trkpt lat="43.0669267" lon="13.063035"><ele>447.0</ele><time>2026-04-04T14:49:02.732Z</time></trkpt><trkpt lat="43.0671333" lon="13.0630833"><ele>447.0</ele><time>2026-04-04T14:49:03.729Z</time></trkpt><trkpt lat="43.0673367" lon="13.0631317"><ele>447.0</ele><time>2026-04-04T14:49:04.732Z</time></trkpt><trkpt lat="43.0675467" lon="13.0631767"><ele>445.0</ele><time>2026-04-04T14:49:05.728Z</time></trkpt><trkpt lat="43.067755" lon="13.0632167"><ele>443.0</ele><time>2026-04-04T14:49:06.728Z</time></trkpt><trkpt lat="43.0679583" lon="13.06326"><ele>441.0</ele><time>2026-04-04T14:49:07.728Z</time></trkpt><trkpt lat="43.0681617" lon="13.0632983"><ele>438.33333333333337</ele><time>2026-04-04T14:49:08.734Z</time></trkpt><trkpt lat="43.068365" lon="13.0633417"><ele>435.6666666666667</ele><time>2026-04-04T14:49:09.731Z</time></trkpt><trkpt lat="43.0685717" lon="13.0633817"><ele>433.0</ele><time>2026-04-04T14:49:10.73Z</time></trkpt><trkpt lat="43.0687783" lon="13.063425"><ele>433.0</ele><time>2026-04-04T14:49:11.728Z</time></trkpt><trkpt lat="43.068985" lon="13.0634667"><ele>433.0</ele><time>2026-04-04T14:49:12.731Z</time></trkpt><trkpt lat="43.0691917" lon="13.0635033"><ele>433.0</ele><time>2026-04-04T14:49:13.731Z</time></trkpt><trkpt lat="43.0694" lon="13.06354"><ele>433.0</ele><time>2026-04-04T14:49:14.731Z</time></trkpt><trkpt lat="43.06961" lon="13.063575"><ele>433.0</ele><time>2026-04-04T14:49:15.729Z</time></trkpt><trkpt lat="43.0698217" lon="13.0636083"><ele>433.0</ele><time>2026-04-04T14:49:16.728Z</time></trkpt><trkpt lat="43.0700333" lon="13.0636433"><ele>432.0</ele><time>2026-04-04T14:49:17.733Z</time></trkpt><trkpt lat="43.0702433" lon="13.0636833"><ele>431.0</ele><time>2026-04-04T14:49:18.727Z</time></trkpt><trkpt lat="43.070455" lon="13.0637267"><ele>430.0</ele><time>2026-04-04T14:49:19.734Z</time></trkpt><trkpt lat="43.0706683" lon="13.0637717"><ele>432.6666666666667</ele><time>2026-04-04T14:49:20.731Z</time></trkpt><trkpt lat="43.0708833" lon="13.0638183"><ele>435.33333333333337</ele><time>2026-04-04T14:49:21.731Z</time></trkpt><trkpt lat="43.0710967" lon="13.0638633"><ele>438.0</ele><time>2026-04-04T14:49:22.729Z</time></trkpt><trkpt lat="43.07131" lon="13.063905"><ele>438.0</ele><time>2026-04-04T14:49:23.731Z</time></trkpt><trkpt lat="43.0715233" lon="13.0639433"><ele>438.0</ele><time>2026-04-04T14:49:24.731Z</time></trkpt><trkpt lat="43.0717367" lon="13.0639733"><ele>438.0</ele><time>2026-04-04T14:49:25.73Z</time></trkpt><trkpt lat="43.0719467" lon="13.0639983"><ele>437.66666666666663</ele><time>2026-04-04T14:49:26.735Z</time></trkpt><trkpt lat="43.0721583" lon="13.06402"><ele>437.3333333333333</ele><time>2026-04-04T14:49:27.731Z</time></trkpt><trkpt lat="43.0723717" lon="13.0640367"><ele>437.0</ele><time>2026-04-04T14:49:28.73Z</time></trkpt><trkpt lat="43.0725817" lon="13.06405"><ele>437.66666666666663</ele><time>2026-04-04T14:49:29.734Z</time></trkpt><trkpt lat="43.0727833" lon="13.06406"><ele>438.33333333333337</ele><time>2026-04-04T14:49:30.732Z</time></trkpt><trkpt lat="43.0729733" lon="13.0640667"><ele>439.0</ele><time>2026-04-04T14:49:31.733Z</time></trkpt><trkpt lat="43.0731533" lon="13.06407"><ele>438.0</ele><time>2026-04-04T14:49:32.732Z</time></trkpt><trkpt lat="43.07332" lon="13.0640683"><ele>437.0</ele><time>2026-04-04T14:49:33.729Z</time></trkpt><trkpt lat="43.0734717" lon="13.0640567"><ele>436.0</ele><time>2026-04-04T14:49:34.728Z</time></trkpt><trkpt lat="43.073595" lon="13.0640367"><ele>435.0</ele><time>2026-04-04T14:49:35.726Z</time></trkpt><trkpt lat="43.0736967" lon="13.0640067"><ele>435.0</ele><time>2026-04-04T14:49:36.726Z</time></trkpt><trkpt lat="43.073795" lon="13.0639867"><ele>435.0</ele><time>2026-04-04T14:49:37.729Z</time></trkpt><trkpt lat="43.0739033" lon="13.0639733"><ele>435.0</ele><time>2026-04-04T14:49:38.726Z</time></trkpt><trkpt lat="43.07402" lon="13.06396"><ele>435.0</ele><time>2026-04-04T14:49:39.729Z</time></trkpt><trkpt lat="43.0741417" lon="13.0639517"><ele>435.0</ele><time>2026-04-04T14:49:40.728Z</time></trkpt><trkpt lat="43.0742683" lon="13.0639533"><ele>433.25</ele><time>2026-04-04T14:49:41.728Z</time></trkpt><trkpt lat="43.0744033" lon="13.0639633"><ele>431.5</ele><time>2026-04-04T14:49:42.73Z</time></trkpt><trkpt lat="43.0745467" lon="13.0639583"><ele>429.75</ele><time>2026-04-04T14:49:43.729Z</time></trkpt><trkpt lat="43.0746933" lon="13.0639483"><ele>428.0</ele><time>2026-04-04T14:49:44.726Z</time></trkpt><trkpt lat="43.074835" lon="13.0639317"><ele>428.0</ele><time>2026-04-04T14:49:45.725Z</time></trkpt><trkpt lat="43.0749733" lon="13.0639167"><ele>428.0</ele><time>2026-04-04T14:49:46.728Z</time></trkpt><trkpt lat="43.0751067" lon="13.0639067"><ele>428.0</ele><time>2026-04-04T14:49:47.728Z</time></trkpt><trkpt lat="43.075235" lon="13.0638983"><ele>428.0</ele><time>2026-04-04T14:49:48.727Z</time></trkpt><trkpt lat="43.0753483" lon="13.0638933"><ele>427.99999999999994</ele><time>2026-04-04T14:49:49.728Z</time></trkpt><trkpt lat="43.0754467" lon="13.0638967"><ele>428.0</ele><time>2026-04-04T14:49:50.729Z</time></trkpt><trkpt lat="43.0755383" lon="13.0639133"><ele>428.0</ele><time>2026-04-04T14:49:51.73Z</time></trkpt><trkpt lat="43.0756183" lon="13.0639483"><ele>428.0</ele><time>2026-04-04T14:49:52.731Z</time></trkpt><trkpt lat="43.0756833" lon="13.0640083"><ele>427.99999999999994</ele><time>2026-04-04T14:49:53.73Z</time></trkpt><trkpt lat="43.075735" lon="13.0641017"><ele>428.0</ele><time>2026-04-04T14:49:54.731Z</time></trkpt><trkpt lat="43.0757733" lon="13.0642167"><ele>428.75</ele><time>2026-04-04T14:49:55.727Z</time></trkpt><trkpt lat="43.075795" lon="13.064355"><ele>429.5</ele><time>2026-04-04T14:49:56.728Z</time></trkpt><trkpt lat="43.0758317" lon="13.0644967"><ele>430.25</ele><time>2026-04-04T14:49:57.729Z</time></trkpt><trkpt lat="43.075885" lon="13.0646483"><ele>431.0</ele><time>2026-04-04T14:49:58.728Z</time></trkpt><trkpt lat="43.075965" lon="13.0648067"><ele>430.3333333333333</ele><time>2026-04-04T14:49:59.73Z</time></trkpt><trkpt lat="43.0760667" lon="13.0649533"><ele>429.66666666666663</ele><time>2026-04-04T14:50:00.727Z</time></trkpt><trkpt lat="43.0761783" lon="13.0650917"><ele>429.0</ele><time>2026-04-04T14:50:01.727Z</time></trkpt><trkpt lat="43.0763017" lon="13.06523"><ele>429.0</ele><time>2026-04-04T14:50:02.732Z</time></trkpt><trkpt lat="43.0764183" lon="13.0653817"><ele>429.0</ele><time>2026-04-04T14:50:03.731Z</time></trkpt><trkpt lat="43.0765067" lon="13.065565"><ele>429.0</ele><time>2026-04-04T14:50:04.73Z</time></trkpt><trkpt lat="43.0765633" lon="13.0657567"><ele>428.0</ele><time>2026-04-04T14:50:05.728Z</time></trkpt><trkpt lat="43.0765867" lon="13.0659483"><ele>427.0</ele><time>2026-04-04T14:50:06.729Z</time></trkpt><trkpt lat="43.0765817" lon="13.0661417"><ele>426.0</ele><time>2026-04-04T14:50:07.724Z</time></trkpt><trkpt lat="43.07657" lon="13.06634"><ele>425.0</ele><time>2026-04-04T14:50:08.728Z</time></trkpt><trkpt lat="43.0765483" lon="13.06657"><ele>425.0</ele><time>2026-04-04T14:50:09.731Z</time></trkpt><trkpt lat="43.0765317" lon="13.066815"><ele>425.0</ele><time>2026-04-04T14:50:10.731Z</time></trkpt><trkpt lat="43.0765233" lon="13.0670583"><ele>425.0</ele><time>2026-04-04T14:50:11.728Z</time></trkpt><trkpt lat="43.0765417" lon="13.0672983"><ele>424.3333333333333</ele><time>2026-04-04T14:50:12.729Z</time></trkpt><trkpt lat="43.076585" lon="13.067545"><ele>423.66666666666663</ele><time>2026-04-04T14:50:13.73Z</time></trkpt><trkpt lat="43.07665" lon="13.0677967"><ele>423.0</ele><time>2026-04-04T14:50:14.729Z</time></trkpt><trkpt lat="43.0767217" lon="13.0680533"><ele>422.66666666666663</ele><time>2026-04-04T14:50:15.731Z</time></trkpt><trkpt lat="43.07679" lon="13.0683083"><ele>422.3333333333333</ele><time>2026-04-04T14:50:16.727Z</time></trkpt><trkpt lat="43.0768617" lon="13.0685533"><ele>422.0</ele><time>2026-04-04T14:50:17.728Z</time></trkpt><trkpt lat="43.0769367" lon="13.0687933"><ele>422.0</ele><time>2026-04-04T14:50:18.726Z</time></trkpt><trkpt lat="43.07701" lon="13.069025"><ele>422.0</ele><time>2026-04-04T14:50:19.731Z</time></trkpt><trkpt lat="43.07708" lon="13.0692433"><ele>422.0</ele><time>2026-04-04T14:50:20.728Z</time></trkpt><trkpt lat="43.0771467" lon="13.0694517"><ele>421.66666666666663</ele><time>2026-04-04T14:50:21.727Z</time></trkpt><trkpt lat="43.0772083" lon="13.069645"><ele>421.33333333333337</ele><time>2026-04-04T14:50:22.731Z</time></trkpt><trkpt lat="43.07727" lon="13.069835"><ele>421.0</ele><time>2026-04-04T14:50:23.728Z</time></trkpt><trkpt lat="43.077335" lon="13.0700217"><ele>421.0</ele><time>2026-04-04T14:50:24.731Z</time></trkpt><trkpt lat="43.0774033" lon="13.0702117"><ele>421.0</ele><time>2026-04-04T14:50:25.731Z</time></trkpt><trkpt lat="43.0774767" lon="13.0704067"><ele>421.0</ele><time>2026-04-04T14:50:26.732Z</time></trkpt><trkpt lat="43.0775483" lon="13.07061"><ele>420.33333333333337</ele><time>2026-04-04T14:50:27.737Z</time></trkpt><trkpt lat="43.0776183" lon="13.0708167"><ele>419.66666666666663</ele><time>2026-04-04T14:50:28.728Z</time></trkpt><trkpt lat="43.07769" lon="13.0710217"><ele>419.0</ele><time>2026-04-04T14:50:29.73Z</time></trkpt><trkpt lat="43.0777617" lon="13.0712267"><ele>419.0</ele><time>2026-04-04T14:50:30.729Z</time></trkpt><trkpt lat="43.0778333" lon="13.0714283"><ele>419.0</ele><time>2026-04-04T14:50:31.73Z</time></trkpt><trkpt lat="43.0778983" lon="13.07162"><ele>419.0</ele><time>2026-04-04T14:50:32.733Z</time></trkpt><trkpt lat="43.077965" lon="13.0718067"><ele>418.0</ele><time>2026-04-04T14:50:33.728Z</time></trkpt><trkpt lat="43.0780317" lon="13.071995"><ele>417.0</ele><time>2026-04-04T14:50:34.727Z</time></trkpt><trkpt lat="43.0780983" lon="13.0721867"><ele>416.0</ele><time>2026-04-04T14:50:35.731Z</time></trkpt><trkpt lat="43.078165" lon="13.072375"><ele>416.0</ele><time>2026-04-04T14:50:36.731Z</time></trkpt><trkpt lat="43.0782283" lon="13.0725617"><ele>416.0</ele><time>2026-04-04T14:50:37.73Z</time></trkpt><trkpt lat="43.0782917" lon="13.0727417"><ele>416.0</ele><time>2026-04-04T14:50:38.73Z</time></trkpt><trkpt lat="43.0783517" lon="13.0729117"><ele>416.0</ele><time>2026-04-04T14:50:39.73Z</time></trkpt><trkpt lat="43.0784083" lon="13.0730667"><ele>415.8</ele><time>2026-04-04T14:50:40.73Z</time></trkpt><trkpt lat="43.0784683" lon="13.0732067"><ele>415.6</ele><time>2026-04-04T14:50:41.728Z</time></trkpt><trkpt lat="43.07853" lon="13.0733367"><ele>415.4</ele><time>2026-04-04T14:50:42.727Z</time></trkpt><trkpt lat="43.07859" lon="13.07346"><ele>415.2</ele><time>2026-04-04T14:50:43.729Z</time></trkpt><trkpt lat="43.0786467" lon="13.0735817"><ele>415.0</ele><time>2026-04-04T14:50:44.729Z</time></trkpt><trkpt lat="43.0786917" lon="13.073695"><ele>415.00000000000006</ele><time>2026-04-04T14:50:45.726Z</time></trkpt><trkpt lat="43.0787317" lon="13.0738"><ele>415.0</ele><time>2026-04-04T14:50:46.728Z</time></trkpt><trkpt lat="43.0787683" lon="13.0739033"><ele>415.0</ele><time>2026-04-04T14:50:47.728Z</time></trkpt><trkpt lat="43.0788" lon="13.07401"><ele>415.0</ele><time>2026-04-04T14:50:48.728Z</time></trkpt><trkpt lat="43.0788267" lon="13.074115"><ele>415.00000000000006</ele><time>2026-04-04T14:50:49.729Z</time></trkpt><trkpt lat="43.0788417" lon="13.0742217"><ele>415.0</ele><time>2026-04-04T14:50:50.731Z</time></trkpt><trkpt lat="43.078845" lon="13.0743317"><ele>415.00000000000006</ele><time>2026-04-04T14:50:51.726Z</time></trkpt><trkpt lat="43.0788383" lon="13.07444"><ele>415.0</ele><time>2026-04-04T14:50:52.727Z</time></trkpt><trkpt lat="43.0788367" lon="13.0745517"><ele>415.0</ele><time>2026-04-04T14:50:53.726Z</time></trkpt><trkpt lat="43.07886" lon="13.0746633"><ele>415.0</ele><time>2026-04-04T14:50:54.729Z</time></trkpt><trkpt lat="43.0789033" lon="13.0747717"><ele>415.00000000000006</ele><time>2026-04-04T14:50:55.727Z</time></trkpt><trkpt lat="43.0789583" lon="13.0748583"><ele>415.0</ele><time>2026-04-04T14:50:56.727Z</time></trkpt><trkpt lat="43.0790183" lon="13.0749317"><ele>415.2</ele><time>2026-04-04T14:50:57.728Z</time></trkpt><trkpt lat="43.079075" lon="13.0750117"><ele>415.4</ele><time>2026-04-04T14:50:58.728Z</time></trkpt><trkpt lat="43.07913" lon="13.07511"><ele>415.6</ele><time>2026-04-04T14:50:59.73Z</time></trkpt><trkpt lat="43.0791783" lon="13.0752117"><ele>415.8</ele><time>2026-04-04T14:51:00.732Z</time></trkpt><trkpt lat="43.0792283" lon="13.075335"><ele>416.0</ele><time>2026-04-04T14:51:01.73Z</time></trkpt><trkpt lat="43.0792733" lon="13.0754667"><ele>416.0</ele><time>2026-04-04T14:51:02.728Z</time></trkpt><trkpt lat="43.0793183" lon="13.0756083"><ele>416.0</ele><time>2026-04-04T14:51:03.729Z</time></trkpt><trkpt lat="43.0793533" lon="13.0757533"><ele>416.0</ele><time>2026-04-04T14:51:04.728Z</time></trkpt><trkpt lat="43.0793717" lon="13.0759083"><ele>416.0</ele><time>2026-04-04T14:51:05.727Z</time></trkpt><trkpt lat="43.0793817" lon="13.0760717"><ele>415.5</ele><time>2026-04-04T14:51:06.73Z</time></trkpt><trkpt lat="43.0793817" lon="13.0762533"><ele>415.0</ele><time>2026-04-04T14:51:07.729Z</time></trkpt><trkpt lat="43.079375" lon="13.07644"><ele>414.5</ele><time>2026-04-04T14:51:08.729Z</time></trkpt><trkpt lat="43.0793617" lon="13.0766283"><ele>414.0</ele><time>2026-04-04T14:51:09.728Z</time></trkpt><trkpt lat="43.0793533" lon="13.0768117"><ele>413.75</ele><time>2026-04-04T14:51:10.731Z</time></trkpt><trkpt lat="43.079345" lon="13.07699"><ele>413.5</ele><time>2026-04-04T14:51:11.73Z</time></trkpt><trkpt lat="43.0793383" lon="13.077175"><ele>413.25</ele><time>2026-04-04T14:51:12.726Z</time></trkpt><trkpt lat="43.079335" lon="13.07737"><ele>413.0</ele><time>2026-04-04T14:51:13.728Z</time></trkpt><trkpt lat="43.07933" lon="13.0775667"><ele>412.75</ele><time>2026-04-04T14:51:14.728Z</time></trkpt><trkpt lat="43.07932" lon="13.07776"><ele>412.5</ele><time>2026-04-04T14:51:15.729Z</time></trkpt><trkpt lat="43.079305" lon="13.077945"><ele>412.25</ele><time>2026-04-04T14:51:16.729Z</time></trkpt><trkpt lat="43.0792883" lon="13.0781283"><ele>412.0</ele><time>2026-04-04T14:51:17.727Z</time></trkpt><trkpt lat="43.0792717" lon="13.0783067"><ele>412.0</ele><time>2026-04-04T14:51:18.728Z</time></trkpt><trkpt lat="43.079255" lon="13.07849"><ele>412.0</ele><time>2026-04-04T14:51:19.729Z</time></trkpt><trkpt lat="43.0792383" lon="13.0786717"><ele>412.0</ele><time>2026-04-04T14:51:20.73Z</time></trkpt><trkpt lat="43.07922" lon="13.0788567"><ele>412.0</ele><time>2026-04-04T14:51:21.729Z</time></trkpt><trkpt lat="43.0792017" lon="13.0790433"><ele>412.25</ele><time>2026-04-04T14:51:22.73Z</time></trkpt><trkpt lat="43.0791883" lon="13.07922"><ele>412.5</ele><time>2026-04-04T14:51:23.727Z</time></trkpt><trkpt lat="43.0791717" lon="13.0793967"><ele>412.75</ele><time>2026-04-04T14:51:24.729Z</time></trkpt><trkpt lat="43.0791567" lon="13.0795717"><ele>413.0</ele><time>2026-04-04T14:51:25.728Z</time></trkpt><trkpt lat="43.0791417" lon="13.0797433"><ele>413.0</ele><time>2026-04-04T14:51:26.731Z</time></trkpt><trkpt lat="43.0791283" lon="13.0799117"><ele>413.0</ele><time>2026-04-04T14:51:27.734Z</time></trkpt><trkpt lat="43.079115" lon="13.08007"><ele>413.0</ele><time>2026-04-04T14:51:28.727Z</time></trkpt><trkpt lat="43.0791" lon="13.080225"><ele>413.0</ele><time>2026-04-04T14:51:29.726Z</time></trkpt><trkpt lat="43.0790817" lon="13.0803733"><ele>412.2</ele><time>2026-04-04T14:51:30.728Z</time></trkpt><trkpt lat="43.0790617" lon="13.0805183"><ele>411.4</ele><time>2026-04-04T14:51:31.726Z</time></trkpt><trkpt lat="43.0790417" lon="13.080665"><ele>410.59999999999997</ele><time>2026-04-04T14:51:32.728Z</time></trkpt><trkpt lat="43.0790133" lon="13.0808133"><ele>409.79999999999995</ele><time>2026-04-04T14:51:33.729Z</time></trkpt><trkpt lat="43.07898" lon="13.0809617"><ele>409.0</ele><time>2026-04-04T14:51:34.728Z</time></trkpt><trkpt lat="43.07894" lon="13.0811067"><ele>409.0</ele><time>2026-04-04T14:51:35.73Z</time></trkpt><trkpt lat="43.0789033" lon="13.0812583"><ele>409.0</ele><time>2026-04-04T14:51:36.728Z</time></trkpt><trkpt lat="43.078895" lon="13.0814217"><ele>409.0</ele><time>2026-04-04T14:51:37.727Z</time></trkpt><trkpt lat="43.078885" lon="13.0815867"><ele>409.0</ele><time>2026-04-04T14:51:38.728Z</time></trkpt><trkpt lat="43.0788917" lon="13.0817567"><ele>409.6666666666667</ele><time>2026-04-04T14:51:39.729Z</time></trkpt><trkpt lat="43.078905" lon="13.0819433"><ele>410.33333333333337</ele><time>2026-04-04T14:51:40.728Z</time></trkpt><trkpt lat="43.078945" lon="13.0821667"><ele>411.0</ele><time>2026-04-04T14:51:41.727Z</time></trkpt><trkpt lat="43.078995" lon="13.08242"><ele>411.66666666666663</ele><time>2026-04-04T14:51:42.728Z</time></trkpt><trkpt lat="43.0790483" lon="13.08269"><ele>412.3333333333333</ele><time>2026-04-04T14:51:43.727Z</time></trkpt><trkpt lat="43.0791033" lon="13.0829633"><ele>413.0</ele><time>2026-04-04T14:51:44.728Z</time></trkpt><trkpt lat="43.0791617" lon="13.08324"><ele>412.3333333333333</ele><time>2026-04-04T14:51:45.731Z</time></trkpt><trkpt lat="43.0792317" lon="13.083525"><ele>411.66666666666663</ele><time>2026-04-04T14:51:46.73Z</time></trkpt><trkpt lat="43.0793133" lon="13.0838183"><ele>411.0</ele><time>2026-04-04T14:51:47.728Z</time></trkpt><trkpt lat="43.0794" lon="13.0841133"><ele>410.5</ele><time>2026-04-04T14:51:48.728Z</time></trkpt><trkpt lat="43.0794917" lon="13.0844117"><ele>410.0</ele><time>2026-04-04T14:51:49.727Z</time></trkpt><trkpt lat="43.0795833" lon="13.084705"><ele>408.5</ele><time>2026-04-04T14:51:50.746Z</time></trkpt><trkpt lat="43.0796717" lon="13.0849967"><ele>407.0</ele><time>2026-04-04T14:51:51.728Z</time></trkpt><trkpt lat="43.0797617" lon="13.085285"><ele>407.0</ele><time>2026-04-04T14:51:52.732Z</time></trkpt><trkpt lat="43.0798517" lon="13.0855783"><ele>407.0</ele><time>2026-04-04T14:51:53.729Z</time></trkpt><trkpt lat="43.0799417" lon="13.0858683"><ele>406.5</ele><time>2026-04-04T14:51:54.729Z</time></trkpt><trkpt lat="43.0800317" lon="13.0861617"><ele>406.0</ele><time>2026-04-04T14:51:55.73Z</time></trkpt><trkpt lat="43.0801217" lon="13.086455"><ele>406.0</ele><time>2026-04-04T14:51:56.728Z</time></trkpt><trkpt lat="43.0802083" lon="13.0867467"><ele>406.0</ele><time>2026-04-04T14:51:57.731Z</time></trkpt><trkpt lat="43.0802917" lon="13.087035"><ele>406.0</ele><time>2026-04-04T14:51:58.728Z</time></trkpt><trkpt lat="43.0803783" lon="13.08732"><ele>406.0</ele><time>2026-04-04T14:51:59.728Z</time></trkpt><trkpt lat="43.08047" lon="13.0876083"><ele>405.5</ele><time>2026-04-04T14:52:00.728Z</time></trkpt><trkpt lat="43.0805617" lon="13.087895"><ele>405.0</ele><time>2026-04-04T14:52:01.729Z</time></trkpt><trkpt lat="43.0806483" lon="13.0881867"><ele>405.5</ele><time>2026-04-04T14:52:02.73Z</time></trkpt><trkpt lat="43.0807333" lon="13.088475"><ele>406.0</ele><time>2026-04-04T14:52:03.729Z</time></trkpt><trkpt lat="43.0808167" lon="13.088765"><ele>408.5</ele><time>2026-04-04T14:52:04.724Z</time></trkpt><trkpt lat="43.0809017" lon="13.08906"><ele>411.0</ele><time>2026-04-04T14:52:05.728Z</time></trkpt><trkpt lat="43.080985" lon="13.08936"><ele>411.0</ele><time>2026-04-04T14:52:06.728Z</time></trkpt><trkpt lat="43.0810667" lon="13.089655"><ele>411.0</ele><time>2026-04-04T14:52:07.729Z</time></trkpt><trkpt lat="43.08115" lon="13.0899517"><ele>410.0</ele><time>2026-04-04T14:52:08.73Z</time></trkpt><trkpt lat="43.081235" lon="13.090245"><ele>409.0</ele><time>2026-04-04T14:52:09.729Z</time></trkpt><trkpt lat="43.081315" lon="13.09054"><ele>408.5</ele><time>2026-04-04T14:52:10.727Z</time></trkpt><trkpt lat="43.0813983" lon="13.0908383"><ele>408.0</ele><time>2026-04-04T14:52:11.728Z</time></trkpt><trkpt lat="43.08148" lon="13.0911367"><ele>408.0</ele><time>2026-04-04T14:52:12.728Z</time></trkpt><trkpt lat="43.0815667" lon="13.09143"><ele>408.0</ele><time>2026-04-04T14:52:13.73Z</time></trkpt><trkpt lat="43.081655" lon="13.0917233"><ele>409.5</ele><time>2026-04-04T14:52:14.729Z</time></trkpt><trkpt lat="43.0817483" lon="13.0920117"><ele>411.0</ele><time>2026-04-04T14:52:15.728Z</time></trkpt><trkpt lat="43.0818417" lon="13.0922967"><ele>407.5</ele><time>2026-04-04T14:52:16.729Z</time></trkpt><trkpt lat="43.0819367" lon="13.09258"><ele>404.0</ele><time>2026-04-04T14:52:17.728Z</time></trkpt><trkpt lat="43.08204" lon="13.0928617"><ele>404.0</ele><time>2026-04-04T14:52:18.726Z</time></trkpt><trkpt lat="43.0821433" lon="13.0931467"><ele>404.0</ele><time>2026-04-04T14:52:19.73Z</time></trkpt><trkpt lat="43.0822483" lon="13.093425"><ele>401.5</ele><time>2026-04-04T14:52:20.729Z</time></trkpt><trkpt lat="43.082345" lon="13.093705"><ele>399.0</ele><time>2026-04-04T14:52:21.727Z</time></trkpt><trkpt lat="43.0824333" lon="13.0939933"><ele>402.5</ele><time>2026-04-04T14:52:22.728Z</time></trkpt><trkpt lat="43.0825083" lon="13.09429"><ele>406.0</ele><time>2026-04-04T14:52:23.73Z</time></trkpt><trkpt lat="43.0825667" lon="13.0945917"><ele>406.0</ele><time>2026-04-04T14:52:24.73Z</time></trkpt><trkpt lat="43.0826133" lon="13.09489"><ele>406.0</ele><time>2026-04-04T14:52:25.731Z</time></trkpt><trkpt lat="43.08266" lon="13.09517"><ele>406.0</ele><time>2026-04-04T14:52:26.734Z</time></trkpt><trkpt lat="43.08273" lon="13.09543"><ele>404.6666666666667</ele><time>2026-04-04T14:52:27.729Z</time></trkpt><trkpt lat="43.08283" lon="13.0956617"><ele>403.33333333333337</ele><time>2026-04-04T14:52:28.726Z</time></trkpt><trkpt lat="43.0829667" lon="13.0958667"><ele>402.0</ele><time>2026-04-04T14:52:29.728Z</time></trkpt><trkpt lat="43.08313" lon="13.0960533"><ele>401.66666666666663</ele><time>2026-04-04T14:52:30.735Z</time></trkpt><trkpt lat="43.0833133" lon="13.0962267"><ele>401.3333333333333</ele><time>2026-04-04T14:52:31.731Z</time></trkpt><trkpt lat="43.0834967" lon="13.096405"><ele>401.0</ele><time>2026-04-04T14:52:32.729Z</time></trkpt><trkpt lat="43.08367" lon="13.0966033"><ele>401.0</ele><time>2026-04-04T14:52:33.728Z</time></trkpt><trkpt lat="43.0838367" lon="13.09682"><ele>401.0</ele><time>2026-04-04T14:52:34.727Z</time></trkpt><trkpt lat="43.0839967" lon="13.0970483"><ele>403.0</ele><time>2026-04-04T14:52:35.73Z</time></trkpt><trkpt lat="43.0841433" lon="13.0972883"><ele>405.0</ele><time>2026-04-04T14:52:36.73Z</time></trkpt><trkpt lat="43.0842767" lon="13.0975417"><ele>405.0</ele><time>2026-04-04T14:52:37.731Z</time></trkpt><trkpt lat="43.0844017" lon="13.0978033"><ele>405.0</ele><time>2026-04-04T14:52:38.732Z</time></trkpt><trkpt lat="43.0845167" lon="13.098075"><ele>402.0</ele><time>2026-04-04T14:52:39.727Z</time></trkpt><trkpt lat="43.0846233" lon="13.09836"><ele>399.0</ele><time>2026-04-04T14:52:40.729Z</time></trkpt><trkpt lat="43.0847317" lon="13.0986433"><ele>399.0</ele><time>2026-04-04T14:52:41.73Z</time></trkpt><trkpt lat="43.0848517" lon="13.098915"><ele>399.0</ele><time>2026-04-04T14:52:42.731Z</time></trkpt><trkpt lat="43.0849833" lon="13.09918"><ele>403.0</ele><time>2026-04-04T14:52:43.73Z</time></trkpt><trkpt lat="43.085115" lon="13.0994433"><ele>407.0</ele><time>2026-04-04T14:52:44.731Z</time></trkpt><trkpt lat="43.0852517" lon="13.0996967"><ele>403.5</ele><time>2026-04-04T14:52:45.729Z</time></trkpt><trkpt lat="43.0853967" lon="13.0999433"><ele>400.0</ele><time>2026-04-04T14:52:46.727Z</time></trkpt><trkpt lat="43.085555" lon="13.1001833"><ele>400.0</ele><time>2026-04-04T14:52:47.731Z</time></trkpt><trkpt lat="43.0857133" lon="13.10042"><ele>400.0</ele><time>2026-04-04T14:52:48.728Z</time></trkpt><trkpt lat="43.085875" lon="13.1006517"><ele>401.5</ele><time>2026-04-04T14:52:49.731Z</time></trkpt><trkpt lat="43.0860383" lon="13.1008867"><ele>403.0</ele><time>2026-04-04T14:52:50.728Z</time></trkpt><trkpt lat="43.0862" lon="13.101125"><ele>403.0</ele><time>2026-04-04T14:52:51.73Z</time></trkpt><trkpt lat="43.0863567" lon="13.1013683"><ele>403.0</ele><time>2026-04-04T14:52:52.729Z</time></trkpt><trkpt lat="43.08651" lon="13.1016083"><ele>404.0</ele><time>2026-04-04T14:52:53.728Z</time></trkpt><trkpt lat="43.0866583" lon="13.1018467"><ele>405.0</ele><time>2026-04-04T14:52:54.729Z</time></trkpt><trkpt lat="43.086805" lon="13.1020867"><ele>405.0</ele><time>2026-04-04T14:52:55.73Z</time></trkpt><trkpt lat="43.0869467" lon="13.1023333"><ele>405.0</ele><time>2026-04-04T14:52:56.727Z</time></trkpt><trkpt lat="43.0870817" lon="13.1025883"><ele>402.0</ele><time>2026-04-04T14:52:57.727Z</time></trkpt><trkpt lat="43.0872117" lon="13.1028483"><ele>399.0</ele><time>2026-04-04T14:52:58.728Z</time></trkpt><trkpt lat="43.0873383" lon="13.1031133"><ele>402.0</ele><time>2026-04-04T14:52:59.727Z</time></trkpt><trkpt lat="43.0874583" lon="13.1033783"><ele>405.0</ele><time>2026-04-04T14:53:00.729Z</time></trkpt><trkpt lat="43.0875733" lon="13.1036433"><ele>405.0</ele><time>2026-04-04T14:53:01.728Z</time></trkpt><trkpt lat="43.0876833" lon="13.103915"><ele>405.0</ele><time>2026-04-04T14:53:02.73Z</time></trkpt><trkpt lat="43.08779" lon="13.1041933"><ele>402.0</ele><time>2026-04-04T14:53:03.729Z</time></trkpt><trkpt lat="43.087895" lon="13.1044717"><ele>399.0</ele><time>2026-04-04T14:53:04.728Z</time></trkpt><trkpt lat="43.088" lon="13.1047567"><ele>398.5</ele><time>2026-04-04T14:53:05.729Z</time></trkpt><trkpt lat="43.088105" lon="13.1050417"><ele>398.0</ele><time>2026-04-04T14:53:06.732Z</time></trkpt><trkpt lat="43.0882117" lon="13.10533"><ele>401.5</ele><time>2026-04-04T14:53:07.73Z</time></trkpt><trkpt lat="43.0883183" lon="13.1056183"><ele>405.0</ele><time>2026-04-04T14:53:08.729Z</time></trkpt><trkpt lat="43.088425" lon="13.10591"><ele>405.5</ele><time>2026-04-04T14:53:09.729Z</time></trkpt><trkpt lat="43.0885317" lon="13.1061967"><ele>406.0</ele><time>2026-04-04T14:53:10.729Z</time></trkpt><trkpt lat="43.088635" lon="13.1064783"><ele>405.0</ele><time>2026-04-04T14:53:11.729Z</time></trkpt><trkpt lat="43.088745" lon="13.10676"><ele>404.0</ele><time>2026-04-04T14:53:12.728Z</time></trkpt><trkpt lat="43.0888483" lon="13.10703"><ele>404.0</ele><time>2026-04-04T14:53:13.726Z</time></trkpt><trkpt lat="43.0889483" lon="13.107285"><ele>404.0</ele><time>2026-04-04T14:53:14.728Z</time></trkpt><trkpt lat="43.0890433" lon="13.1075383"><ele>404.0</ele><time>2026-04-04T14:53:15.731Z</time></trkpt><trkpt lat="43.089135" lon="13.10779"><ele>404.0</ele><time>2026-04-04T14:53:16.728Z</time></trkpt><trkpt lat="43.0892133" lon="13.108035"><ele>404.0</ele><time>2026-04-04T14:53:17.73Z</time></trkpt><trkpt lat="43.0892767" lon="13.108285"><ele>404.0</ele><time>2026-04-04T14:53:18.73Z</time></trkpt><trkpt lat="43.089325" lon="13.1085483"><ele>404.0</ele><time>2026-04-04T14:53:19.729Z</time></trkpt><trkpt lat="43.0893633" lon="13.1088233"><ele>404.0</ele><time>2026-04-04T14:53:20.734Z</time></trkpt><trkpt lat="43.0893917" lon="13.10911"><ele>404.0</ele><time>2026-04-04T14:53:21.727Z</time></trkpt><trkpt lat="43.089425" lon="13.1093933"><ele>405.0</ele><time>2026-04-04T14:53:22.731Z</time></trkpt><trkpt lat="43.08947" lon="13.1096717"><ele>406.0</ele><time>2026-04-04T14:53:23.732Z</time></trkpt><trkpt lat="43.0895333" lon="13.10995"><ele>407.0</ele><time>2026-04-04T14:53:24.73Z</time></trkpt><trkpt lat="43.0896233" lon="13.11022"><ele>404.0</ele><time>2026-04-04T14:53:25.731Z</time></trkpt><trkpt lat="43.08974" lon="13.1104667"><ele>401.0</ele><time>2026-04-04T14:53:26.731Z</time></trkpt><trkpt lat="43.089875" lon="13.1106933"><ele>398.0</ele><time>2026-04-04T14:53:27.73Z</time></trkpt><trkpt lat="43.0900283" lon="13.1109067"><ele>397.0</ele><time>2026-04-04T14:53:28.727Z</time></trkpt><trkpt lat="43.0901817" lon="13.1111133"><ele>396.0</ele><time>2026-04-04T14:53:29.732Z</time></trkpt><trkpt lat="43.0903233" lon="13.1113317"><ele>395.0</ele><time>2026-04-04T14:53:30.73Z</time></trkpt><trkpt lat="43.09045" lon="13.1115683"><ele>391.66666666666663</ele><time>2026-04-04T14:53:31.729Z</time></trkpt><trkpt lat="43.0905617" lon="13.1118117"><ele>388.33333333333337</ele><time>2026-04-04T14:53:32.73Z</time></trkpt><trkpt lat="43.0906633" lon="13.11206"><ele>385.0</ele><time>2026-04-04T14:53:33.729Z</time></trkpt><trkpt lat="43.0907517" lon="13.1123283"><ele>385.33333333333337</ele><time>2026-04-04T14:53:34.729Z</time></trkpt><trkpt lat="43.0908217" lon="13.1126083"><ele>385.66666666666663</ele><time>2026-04-04T14:53:35.731Z</time></trkpt><trkpt lat="43.0908733" lon="13.1129017"><ele>386.0</ele><time>2026-04-04T14:53:36.729Z</time></trkpt><trkpt lat="43.0909117" lon="13.1131917"><ele>385.66666666666663</ele><time>2026-04-04T14:53:37.731Z</time></trkpt><trkpt lat="43.090935" lon="13.1134917"><ele>385.33333333333337</ele><time>2026-04-04T14:53:38.733Z</time></trkpt><trkpt lat="43.0909483" lon="13.113795"><ele>385.0</ele><time>2026-04-04T14:53:39.729Z</time></trkpt><trkpt lat="43.0909467" lon="13.1141"><ele>385.0</ele><time>2026-04-04T14:53:40.73Z</time></trkpt><trkpt lat="43.0909417" lon="13.1143883"><ele>385.0</ele><time>2026-04-04T14:53:41.73Z</time></trkpt><trkpt lat="43.0909367" lon="13.1146633"><ele>385.0</ele><time>2026-04-04T14:53:42.732Z</time></trkpt><trkpt lat="43.0909283" lon="13.114925"><ele>384.6666666666667</ele><time>2026-04-04T14:53:43.73Z</time></trkpt><trkpt lat="43.0909283" lon="13.1151733"><ele>384.33333333333337</ele><time>2026-04-04T14:53:44.736Z</time></trkpt><trkpt lat="43.09093" lon="13.1154133"><ele>384.0</ele><time>2026-04-04T14:53:45.728Z</time></trkpt><trkpt lat="43.0909317" lon="13.1156483"><ele>383.3333333333333</ele><time>2026-04-04T14:53:46.727Z</time></trkpt><trkpt lat="43.0909317" lon="13.115885"><ele>382.66666666666663</ele><time>2026-04-04T14:53:47.728Z</time></trkpt><trkpt lat="43.0909333" lon="13.116115"><ele>382.0</ele><time>2026-04-04T14:53:48.728Z</time></trkpt><trkpt lat="43.0909317" lon="13.116335"><ele>382.0</ele><time>2026-04-04T14:53:49.73Z</time></trkpt><trkpt lat="43.09093" lon="13.11655"><ele>382.0</ele><time>2026-04-04T14:53:50.735Z</time></trkpt><trkpt lat="43.0909383" lon="13.1167617"><ele>382.0</ele><time>2026-04-04T14:53:51.731Z</time></trkpt><trkpt lat="43.0909617" lon="13.1169717"><ele>381.75</ele><time>2026-04-04T14:53:52.729Z</time></trkpt><trkpt lat="43.091015" lon="13.1171633"><ele>381.5</ele><time>2026-04-04T14:53:53.732Z</time></trkpt><trkpt lat="43.09109" lon="13.11733"><ele>381.25</ele><time>2026-04-04T14:53:54.73Z</time></trkpt><trkpt lat="43.09118" lon="13.1174817"><ele>381.0</ele><time>2026-04-04T14:53:55.726Z</time></trkpt><trkpt lat="43.0912633" lon="13.117625"><ele>380.5</ele><time>2026-04-04T14:53:56.727Z</time></trkpt><trkpt lat="43.0913433" lon="13.1177567"><ele>380.0</ele><time>2026-04-04T14:53:57.726Z</time></trkpt><trkpt lat="43.09142" lon="13.117875"><ele>379.5</ele><time>2026-04-04T14:53:58.728Z</time></trkpt><trkpt lat="43.0914933" lon="13.1179867"><ele>379.0</ele><time>2026-04-04T14:53:59.724Z</time></trkpt><trkpt lat="43.0915617" lon="13.11809"><ele>379.0</ele><time>2026-04-04T14:54:00.727Z</time></trkpt><trkpt lat="43.0916317" lon="13.1181967"><ele>379.0</ele><time>2026-04-04T14:54:01.728Z</time></trkpt><trkpt lat="43.091705" lon="13.1183283"><ele>379.0</ele><time>2026-04-04T14:54:02.74Z</time></trkpt><trkpt lat="43.0917867" lon="13.1184833"><ele>379.0</ele><time>2026-04-04T14:54:03.729Z</time></trkpt><trkpt lat="43.09187" lon="13.1186633"><ele>379.0</ele><time>2026-04-04T14:54:04.73Z</time></trkpt><trkpt lat="43.0919483" lon="13.118855"><ele>379.0</ele><time>2026-04-04T14:54:05.732Z</time></trkpt><trkpt lat="43.09202" lon="13.1190533"><ele>379.0</ele><time>2026-04-04T14:54:06.729Z</time></trkpt><trkpt lat="43.09207" lon="13.119265"><ele>378.3333333333333</ele><time>2026-04-04T14:54:07.727Z</time></trkpt><trkpt lat="43.0920967" lon="13.11949"><ele>377.6666666666667</ele><time>2026-04-04T14:54:08.727Z</time></trkpt><trkpt lat="43.0921067" lon="13.119705"><ele>377.0</ele><time>2026-04-04T14:54:09.728Z</time></trkpt><trkpt lat="43.0921183" lon="13.1199283"><ele>377.0</ele><time>2026-04-04T14:54:10.728Z</time></trkpt><trkpt lat="43.0921483" lon="13.1201333"><ele>377.0</ele><time>2026-04-04T14:54:11.727Z</time></trkpt><trkpt lat="43.0922" lon="13.1203217"><ele>377.0</ele><time>2026-04-04T14:54:12.726Z</time></trkpt><trkpt lat="43.0922633" lon="13.1204767"><ele>377.0</ele><time>2026-04-04T14:54:13.73Z</time></trkpt><trkpt lat="43.0923433" lon="13.1206083"><ele>377.75</ele><time>2026-04-04T14:54:14.73Z</time></trkpt><trkpt lat="43.092435" lon="13.1207233"><ele>378.5</ele><time>2026-04-04T14:54:15.73Z</time></trkpt><trkpt lat="43.09254" lon="13.1208283"><ele>379.25</ele><time>2026-04-04T14:54:16.726Z</time></trkpt><trkpt lat="43.0926517" lon="13.120925"><ele>380.0</ele><time>2026-04-04T14:54:17.731Z</time></trkpt><trkpt lat="43.0927683" lon="13.12102"><ele>380.0</ele><time>2026-04-04T14:54:18.725Z</time></trkpt><trkpt lat="43.09289" lon="13.1211167"><ele>380.0</ele><time>2026-04-04T14:54:19.73Z</time></trkpt><trkpt lat="43.0930167" lon="13.121215"><ele>380.0</ele><time>2026-04-04T14:54:20.729Z</time></trkpt><trkpt lat="43.0931517" lon="13.1213217"><ele>380.0</ele><time>2026-04-04T14:54:21.727Z</time></trkpt><trkpt lat="43.0932933" lon="13.12143"><ele>380.0</ele><time>2026-04-04T14:54:22.73Z</time></trkpt><trkpt lat="43.0934367" lon="13.1215417"><ele>380.0</ele><time>2026-04-04T14:54:23.731Z</time></trkpt><trkpt lat="43.0935717" lon="13.1216483"><ele>380.0</ele><time>2026-04-04T14:54:24.728Z</time></trkpt><trkpt lat="43.0937017" lon="13.1217483"><ele>380.0</ele><time>2026-04-04T14:54:25.726Z</time></trkpt><trkpt lat="43.0938317" lon="13.121845"><ele>380.0</ele><time>2026-04-04T14:54:26.743Z</time></trkpt><trkpt lat="43.0939617" lon="13.12194"><ele>380.0</ele><time>2026-04-04T14:54:27.729Z</time></trkpt><trkpt lat="43.09409" lon="13.12204"><ele>380.0</ele><time>2026-04-04T14:54:28.73Z</time></trkpt><trkpt lat="43.0942183" lon="13.1221417"><ele>378.0</ele><time>2026-04-04T14:54:29.727Z</time></trkpt><trkpt lat="43.0943567" lon="13.1222367"><ele>376.0</ele><time>2026-04-04T14:54:30.732Z</time></trkpt><trkpt lat="43.094505" lon="13.1223317"><ele>374.0</ele><time>2026-04-04T14:54:31.73Z</time></trkpt><trkpt lat="43.0946667" lon="13.1224183"><ele>374.0</ele><time>2026-04-04T14:54:32.731Z</time></trkpt><trkpt lat="43.09484" lon="13.1225"><ele>374.0</ele><time>2026-04-04T14:54:33.731Z</time></trkpt><trkpt lat="43.095025" lon="13.12257"><ele>374.0</ele><time>2026-04-04T14:54:34.729Z</time></trkpt><trkpt lat="43.09522" lon="13.1226333"><ele>374.6666666666667</ele><time>2026-04-04T14:54:35.731Z</time></trkpt><trkpt lat="43.095415" lon="13.1226817"><ele>375.3333333333333</ele><time>2026-04-04T14:54:36.727Z</time></trkpt><trkpt lat="43.0956067" lon="13.1227167"><ele>376.0</ele><time>2026-04-04T14:54:37.73Z</time></trkpt><trkpt lat="43.0958" lon="13.1227367"><ele>377.3333333333333</ele><time>2026-04-04T14:54:38.726Z</time></trkpt><trkpt lat="43.0959967" lon="13.1227417"><ele>378.6666666666667</ele><time>2026-04-04T14:54:39.73Z</time></trkpt><trkpt lat="43.0961883" lon="13.1227367"><ele>380.0</ele><time>2026-04-04T14:54:40.728Z</time></trkpt><trkpt lat="43.096375" lon="13.122725"><ele>380.0</ele><time>2026-04-04T14:54:41.731Z</time></trkpt><trkpt lat="43.09655" lon="13.1227083"><ele>380.0</ele><time>2026-04-04T14:54:42.729Z</time></trkpt><trkpt lat="43.096725" lon="13.122705"><ele>380.0</ele><time>2026-04-04T14:54:43.728Z</time></trkpt><trkpt lat="43.096895" lon="13.1226933"><ele>382.0</ele><time>2026-04-04T14:54:44.728Z</time></trkpt><trkpt lat="43.0970433" lon="13.122705"><ele>384.0</ele><time>2026-04-04T14:54:45.728Z</time></trkpt><trkpt lat="43.0971833" lon="13.1227533"><ele>386.0</ele><time>2026-04-04T14:54:46.73Z</time></trkpt><trkpt lat="43.0973167" lon="13.1228333"><ele>388.0</ele><time>2026-04-04T14:54:47.728Z</time></trkpt><trkpt lat="43.0974417" lon="13.1229417"><ele>384.6666666666667</ele><time>2026-04-04T14:54:48.728Z</time></trkpt><trkpt lat="43.0975683" lon="13.1230567"><ele>381.33333333333337</ele><time>2026-04-04T14:54:49.729Z</time></trkpt><trkpt lat="43.0976983" lon="13.1231733"><ele>378.0</ele><time>2026-04-04T14:54:50.727Z</time></trkpt><trkpt lat="43.0978283" lon="13.1232917"><ele>378.0</ele><time>2026-04-04T14:54:51.728Z</time></trkpt><trkpt lat="43.0979617" lon="13.1234133"><ele>378.0</ele><time>2026-04-04T14:54:52.727Z</time></trkpt><trkpt lat="43.0981" lon="13.1235417"><ele>378.0</ele><time>2026-04-04T14:54:53.726Z</time></trkpt><trkpt lat="43.0982467" lon="13.12367"><ele>377.6666666666667</ele><time>2026-04-04T14:54:54.728Z</time></trkpt><trkpt lat="43.0984" lon="13.1238"><ele>377.33333333333337</ele><time>2026-04-04T14:54:55.732Z</time></trkpt><trkpt lat="43.098555" lon="13.1239367"><ele>377.0</ele><time>2026-04-04T14:54:56.728Z</time></trkpt><trkpt lat="43.0987067" lon="13.124075"><ele>377.0</ele><time>2026-04-04T14:54:57.731Z</time></trkpt><trkpt lat="43.0988517" lon="13.1242167"><ele>377.0</ele><time>2026-04-04T14:54:58.726Z</time></trkpt><trkpt lat="43.0989883" lon="13.1243533"><ele>377.0</ele><time>2026-04-04T14:54:59.732Z</time></trkpt><trkpt lat="43.0991183" lon="13.1244833"><ele>376.75</ele><time>2026-04-04T14:55:00.731Z</time></trkpt><trkpt lat="43.09924" lon="13.12462"><ele>376.5</ele><time>2026-04-04T14:55:01.73Z</time></trkpt><trkpt lat="43.099345" lon="13.124765"><ele>376.25</ele><time>2026-04-04T14:55:02.725Z</time></trkpt><trkpt lat="43.0994333" lon="13.1249167"><ele>376.0</ele><time>2026-04-04T14:55:03.729Z</time></trkpt><trkpt lat="43.0994917" lon="13.12506"><ele>376.0</ele><time>2026-04-04T14:55:04.728Z</time></trkpt><trkpt lat="43.0995083" lon="13.1252267"><ele>376.0</ele><time>2026-04-04T14:55:05.729Z</time></trkpt><trkpt lat="43.0995283" lon="13.1254367"><ele>376.0</ele><time>2026-04-04T14:55:06.73Z</time></trkpt><trkpt lat="43.0995733" lon="13.12562"><ele>376.0</ele><time>2026-04-04T14:55:07.729Z</time></trkpt><trkpt lat="43.099635" lon="13.1258133"><ele>376.25</ele><time>2026-04-04T14:55:08.728Z</time></trkpt><trkpt lat="43.099715" lon="13.125985"><ele>376.5</ele><time>2026-04-04T14:55:09.726Z</time></trkpt><trkpt lat="43.0998017" lon="13.1261433"><ele>376.75</ele><time>2026-04-04T14:55:10.724Z</time></trkpt><trkpt lat="43.099885" lon="13.1263"><ele>377.0</ele><time>2026-04-04T14:55:11.728Z</time></trkpt><trkpt lat="43.0999683" lon="13.126455"><ele>373.6666666666667</ele><time>2026-04-04T14:55:12.726Z</time></trkpt><trkpt lat="43.1000617" lon="13.1266167"><ele>370.3333333333333</ele><time>2026-04-04T14:55:13.727Z</time></trkpt><trkpt lat="43.100155" lon="13.1267767"><ele>367.0</ele><time>2026-04-04T14:55:14.729Z</time></trkpt><trkpt lat="43.100255" lon="13.126935"><ele>367.0</ele><time>2026-04-04T14:55:15.727Z</time></trkpt><trkpt lat="43.1003583" lon="13.127095"><ele>367.0</ele><time>2026-04-04T14:55:16.728Z</time></trkpt><trkpt lat="43.100465" lon="13.1272633"><ele>367.0</ele><time>2026-04-04T14:55:17.729Z</time></trkpt><trkpt lat="43.1005767" lon="13.12743"><ele>367.0</ele><time>2026-04-04T14:55:18.728Z</time></trkpt><trkpt lat="43.100695" lon="13.1275967"><ele>367.0</ele><time>2026-04-04T14:55:19.728Z</time></trkpt><trkpt lat="43.1008183" lon="13.1277633"><ele>367.0</ele><time>2026-04-04T14:55:20.726Z</time></trkpt><trkpt lat="43.1009367" lon="13.1279283"><ele>367.0</ele><time>2026-04-04T14:55:21.728Z</time></trkpt><trkpt lat="43.1010433" lon="13.1280917"><ele>367.0</ele><time>2026-04-04T14:55:22.727Z</time></trkpt><trkpt lat="43.1011417" lon="13.1282317"><ele>367.0</ele><time>2026-04-04T14:55:23.73Z</time></trkpt><trkpt lat="43.1012483" lon="13.1283417"><ele>367.0</ele><time>2026-04-04T14:55:24.73Z</time></trkpt><trkpt lat="43.1013667" lon="13.1284117"><ele>366.0</ele><time>2026-04-04T14:55:25.729Z</time></trkpt><trkpt lat="43.10149" lon="13.1284283"><ele>365.0</ele><time>2026-04-04T14:55:26.729Z</time></trkpt><trkpt lat="43.1016167" lon="13.128405"><ele>364.0</ele><time>2026-04-04T14:55:27.728Z</time></trkpt><trkpt lat="43.10175" lon="13.1283467"><ele>363.0</ele><time>2026-04-04T14:55:28.728Z</time></trkpt><trkpt lat="43.10189" lon="13.128285"><ele>363.0</ele><time>2026-04-04T14:55:29.73Z</time></trkpt><trkpt lat="43.1020533" lon="13.128245"><ele>363.0</ele><time>2026-04-04T14:55:30.731Z</time></trkpt><trkpt lat="43.1022167" lon="13.1282233"><ele>363.0</ele><time>2026-04-04T14:55:31.727Z</time></trkpt><trkpt lat="43.1023817" lon="13.128225"><ele>362.0</ele><time>2026-04-04T14:55:32.729Z</time></trkpt><trkpt lat="43.102545" lon="13.1282333"><ele>361.0</ele><time>2026-04-04T14:55:33.727Z</time></trkpt><trkpt lat="43.1027167" lon="13.1282417"><ele>360.0</ele><time>2026-04-04T14:55:34.726Z</time></trkpt><trkpt lat="43.1028917" lon="13.1282467"><ele>360.0</ele><time>2026-04-04T14:55:35.729Z</time></trkpt><trkpt lat="43.103065" lon="13.128255"><ele>360.0</ele><time>2026-04-04T14:55:36.727Z</time></trkpt><trkpt lat="43.103235" lon="13.1282783"><ele>360.0</ele><time>2026-04-04T14:55:37.728Z</time></trkpt><trkpt lat="43.1034083" lon="13.128315"><ele>360.3333333333333</ele><time>2026-04-04T14:55:38.729Z</time></trkpt><trkpt lat="43.1035817" lon="13.12836"><ele>360.66666666666663</ele><time>2026-04-04T14:55:39.726Z</time></trkpt><trkpt lat="43.103755" lon="13.1284133"><ele>361.0</ele><time>2026-04-04T14:55:40.731Z</time></trkpt><trkpt lat="43.1039283" lon="13.1284733"><ele>361.3333333333333</ele><time>2026-04-04T14:55:41.729Z</time></trkpt><trkpt lat="43.1041017" lon="13.128535"><ele>361.6666666666667</ele><time>2026-04-04T14:55:42.73Z</time></trkpt><trkpt lat="43.104265" lon="13.1286117"><ele>362.0</ele><time>2026-04-04T14:55:43.726Z</time></trkpt><trkpt lat="43.104415" lon="13.1287033"><ele>362.0</ele><time>2026-04-04T14:55:44.734Z</time></trkpt><trkpt lat="43.10456" lon="13.1288017"><ele>362.0</ele><time>2026-04-04T14:55:45.728Z</time></trkpt><trkpt lat="43.104695" lon="13.1288917"><ele>362.0</ele><time>2026-04-04T14:55:46.731Z</time></trkpt><trkpt lat="43.1048217" lon="13.1289717"><ele>363.75</ele><time>2026-04-04T14:55:47.73Z</time></trkpt><trkpt lat="43.10494" lon="13.129015"><ele>365.5</ele><time>2026-04-04T14:55:48.728Z</time></trkpt><trkpt lat="43.10506" lon="13.1290117"><ele>367.25</ele><time>2026-04-04T14:55:49.728Z</time></trkpt><trkpt lat="43.1051817" lon="13.1289817"><ele>369.0</ele><time>2026-04-04T14:55:50.73Z</time></trkpt><trkpt lat="43.105305" lon="13.1289383"><ele>369.0</ele><time>2026-04-04T14:55:51.728Z</time></trkpt><trkpt lat="43.10543" lon="13.12889"><ele>369.0</ele><time>2026-04-04T14:55:52.727Z</time></trkpt><trkpt lat="43.10556" lon="13.1288383"><ele>369.0</ele><time>2026-04-04T14:55:53.727Z</time></trkpt><trkpt lat="43.1057017" lon="13.1287733"><ele>369.0</ele><time>2026-04-04T14:55:54.727Z</time></trkpt><trkpt lat="43.105845" lon="13.1287117"><ele>369.5</ele><time>2026-04-04T14:55:55.726Z</time></trkpt><trkpt lat="43.1059883" lon="13.1286617"><ele>370.0</ele><time>2026-04-04T14:55:56.726Z</time></trkpt><trkpt lat="43.1061333" lon="13.1286167"><ele>370.5</ele><time>2026-04-04T14:55:57.728Z</time></trkpt><trkpt lat="43.106275" lon="13.12858"><ele>371.0</ele><time>2026-04-04T14:55:58.727Z</time></trkpt><trkpt lat="43.1064183" lon="13.1285517"><ele>371.0</ele><time>2026-04-04T14:55:59.725Z</time></trkpt><trkpt lat="43.1065583" lon="13.1285283"><ele>371.0</ele><time>2026-04-04T14:56:00.728Z</time></trkpt><trkpt lat="43.1066967" lon="13.12851"><ele>371.0</ele><time>2026-04-04T14:56:01.726Z</time></trkpt><trkpt lat="43.106825" lon="13.1284967"><ele>371.0</ele><time>2026-04-04T14:56:02.731Z</time></trkpt><trkpt lat="43.106945" lon="13.1284883"><ele>371.6</ele><time>2026-04-04T14:56:03.728Z</time></trkpt><trkpt lat="43.1070517" lon="13.1284817"><ele>372.20000000000005</ele><time>2026-04-04T14:56:04.727Z</time></trkpt><trkpt lat="43.1071483" lon="13.1284817"><ele>372.79999999999995</ele><time>2026-04-04T14:56:05.727Z</time></trkpt><trkpt lat="43.10723" lon="13.128485"><ele>373.4</ele><time>2026-04-04T14:56:06.73Z</time></trkpt><trkpt lat="43.1073117" lon="13.12848"><ele>374.0</ele><time>2026-04-04T14:56:07.732Z</time></trkpt><trkpt lat="43.107395" lon="13.1284833"><ele>374.2</ele><time>2026-04-04T14:56:08.73Z</time></trkpt><trkpt lat="43.1074883" lon="13.1284883"><ele>374.4</ele><time>2026-04-04T14:56:09.728Z</time></trkpt><trkpt lat="43.107595" lon="13.1284883"><ele>374.6</ele><time>2026-04-04T14:56:10.727Z</time></trkpt><trkpt lat="43.1077083" lon="13.128485"><ele>374.8</ele><time>2026-04-04T14:56:11.73Z</time></trkpt><trkpt lat="43.10783" lon="13.12848"><ele>375.0</ele><time>2026-04-04T14:56:12.728Z</time></trkpt><trkpt lat="43.1079667" lon="13.1284733"><ele>375.0</ele><time>2026-04-04T14:56:13.728Z</time></trkpt><trkpt lat="43.1081133" lon="13.1284683"><ele>375.0</ele><time>2026-04-04T14:56:14.729Z</time></trkpt><trkpt lat="43.10826" lon="13.12847"><ele>375.0</ele><time>2026-04-04T14:56:15.729Z</time></trkpt><trkpt lat="43.1084" lon="13.128475"><ele>375.0</ele><time>2026-04-04T14:56:16.73Z</time></trkpt><trkpt lat="43.108535" lon="13.12848"><ele>374.0</ele><time>2026-04-04T14:56:17.728Z</time></trkpt><trkpt lat="43.1086683" lon="13.128465"><ele>373.0</ele><time>2026-04-04T14:56:18.73Z</time></trkpt><trkpt lat="43.108785" lon="13.12845"><ele>372.0</ele><time>2026-04-04T14:56:19.729Z</time></trkpt><trkpt lat="43.10889" lon="13.1283817"><ele>371.0</ele><time>2026-04-04T14:56:20.725Z</time></trkpt><trkpt lat="43.108975" lon="13.128265"><ele>366.75</ele><time>2026-04-04T14:56:21.729Z</time></trkpt><trkpt lat="43.1090333" lon="13.1281217"><ele>362.5</ele><time>2026-04-04T14:56:22.727Z</time></trkpt><trkpt lat="43.1090717" lon="13.127965"><ele>358.25</ele><time>2026-04-04T14:56:23.728Z</time></trkpt><trkpt lat="43.1091067" lon="13.1278117"><ele>354.0</ele><time>2026-04-04T14:56:24.728Z</time></trkpt><trkpt lat="43.109145" lon="13.1276683"><ele>354.0</ele><time>2026-04-04T14:56:25.729Z</time></trkpt><trkpt lat="43.1091883" lon="13.1275267"><ele>354.0</ele><time>2026-04-04T14:56:26.728Z</time></trkpt><trkpt lat="43.109255" lon="13.1274033"><ele>354.0</ele><time>2026-04-04T14:56:27.726Z</time></trkpt><trkpt lat="43.109345" lon="13.127295"><ele>354.0</ele><time>2026-04-04T14:56:28.728Z</time></trkpt><trkpt lat="43.1094533" lon="13.1271983"><ele>353.25</ele><time>2026-04-04T14:56:29.732Z</time></trkpt><trkpt lat="43.1095767" lon="13.1271233"><ele>352.5</ele><time>2026-04-04T14:56:30.729Z</time></trkpt><trkpt lat="43.1096967" lon="13.1270667"><ele>351.75</ele><time>2026-04-04T14:56:31.73Z</time></trkpt><trkpt lat="43.1098133" lon="13.127015"><ele>351.0</ele><time>2026-04-04T14:56:32.729Z</time></trkpt><trkpt lat="43.10992" lon="13.1269667"><ele>351.0</ele><time>2026-04-04T14:56:33.729Z</time></trkpt><trkpt lat="43.110005" lon="13.1269367"><ele>351.0</ele><time>2026-04-04T14:56:34.727Z</time></trkpt><trkpt lat="43.11011" lon="13.1268917"><ele>351.0</ele><time>2026-04-04T14:56:36.727Z</time></trkpt><trkpt lat="43.1101983" lon="13.1267917"><ele>351.0</ele><time>2026-04-04T14:56:38.73Z</time></trkpt><trkpt lat="43.1102417" lon="13.1267"><ele>351.0</ele><time>2026-04-04T14:56:39.728Z</time></trkpt><trkpt lat="43.1102767" lon="13.12657"><ele>352.0</ele><time>2026-04-04T14:56:40.729Z</time></trkpt><trkpt lat="43.1102883" lon="13.1264083"><ele>353.0</ele><time>2026-04-04T14:56:41.727Z</time></trkpt><trkpt lat="43.1102883" lon="13.1262467"><ele>354.0</ele><time>2026-04-04T14:56:42.73Z</time></trkpt><trkpt lat="43.1102883" lon="13.1260817"><ele>355.0</ele><time>2026-04-04T14:56:43.726Z</time></trkpt><trkpt lat="43.1102917" lon="13.1259167"><ele>355.0</ele><time>2026-04-04T14:56:44.727Z</time></trkpt><trkpt lat="43.1103" lon="13.1257517"><ele>355.0</ele><time>2026-04-04T14:56:45.727Z</time></trkpt><trkpt lat="43.1103017" lon="13.1255783"><ele>355.0</ele><time>2026-04-04T14:56:46.728Z</time></trkpt><trkpt lat="43.110295" lon="13.12539"><ele>355.0</ele><time>2026-04-04T14:56:47.728Z</time></trkpt><trkpt lat="43.11029" lon="13.1252017"><ele>355.75</ele><time>2026-04-04T14:56:48.725Z</time></trkpt><trkpt lat="43.11028" lon="13.12502"><ele>356.5</ele><time>2026-04-04T14:56:49.729Z</time></trkpt><trkpt lat="43.1102767" lon="13.124845"><ele>357.25</ele><time>2026-04-04T14:56:50.728Z</time></trkpt><trkpt lat="43.1102833" lon="13.1246683"><ele>358.0</ele><time>2026-04-04T14:56:51.726Z</time></trkpt><trkpt lat="43.1103183" lon="13.124505"><ele>358.0</ele><time>2026-04-04T14:56:52.729Z</time></trkpt><trkpt lat="43.1103783" lon="13.1243683"><ele>358.0</ele><time>2026-04-04T14:56:53.727Z</time></trkpt><trkpt lat="43.11044" lon="13.1242417"><ele>358.0</ele><time>2026-04-04T14:56:54.729Z</time></trkpt><trkpt lat="43.110475" lon="13.1241067"><ele>358.0</ele><time>2026-04-04T14:56:55.728Z</time></trkpt><trkpt lat="43.1104967" lon="13.1239683"><ele>358.0</ele><time>2026-04-04T14:56:56.732Z</time></trkpt><trkpt lat="43.11048" lon="13.12383"><ele>357.75</ele><time>2026-04-04T14:56:57.728Z</time></trkpt><trkpt lat="43.110435" lon="13.12369"><ele>357.5</ele><time>2026-04-04T14:56:58.73Z</time></trkpt><trkpt lat="43.110365" lon="13.1235583"><ele>357.25</ele><time>2026-04-04T14:56:59.728Z</time></trkpt><trkpt lat="43.1102867" lon="13.1234317"><ele>357.0</ele><time>2026-04-04T14:57:00.726Z</time></trkpt><trkpt lat="43.1102217" lon="13.1232983"><ele>357.25</ele><time>2026-04-04T14:57:01.728Z</time></trkpt><trkpt lat="43.11018" lon="13.123145"><ele>357.5</ele><time>2026-04-04T14:57:02.729Z</time></trkpt><trkpt lat="43.110165" lon="13.1229717"><ele>357.75</ele><time>2026-04-04T14:57:03.728Z</time></trkpt><trkpt lat="43.11017" lon="13.12278"><ele>358.0</ele><time>2026-04-04T14:57:04.728Z</time></trkpt><trkpt lat="43.11019" lon="13.122575"><ele>356.3333333333333</ele><time>2026-04-04T14:57:05.728Z</time></trkpt><trkpt lat="43.1102267" lon="13.122345"><ele>354.6666666666667</ele><time>2026-04-04T14:57:06.728Z</time></trkpt><trkpt lat="43.1102767" lon="13.1220783"><ele>353.0</ele><time>2026-04-04T14:57:07.729Z</time></trkpt><trkpt lat="43.110365" lon="13.1217633"><ele>353.5</ele><time>2026-04-04T14:57:08.728Z</time></trkpt><trkpt lat="43.1104667" lon="13.1214333"><ele>354.0</ele><time>2026-04-04T14:57:09.728Z</time></trkpt><trkpt lat="43.110545" lon="13.1210767"><ele>355.5</ele><time>2026-04-04T14:57:10.729Z</time></trkpt><trkpt lat="43.1105983" lon="13.1207167"><ele>357.0</ele><time>2026-04-04T14:57:11.727Z</time></trkpt><trkpt lat="43.1106317" lon="13.1203683"><ele>357.0</ele><time>2026-04-04T14:57:12.729Z</time></trkpt><trkpt lat="43.11064" lon="13.1200233"><ele>357.0</ele><time>2026-04-04T14:57:13.726Z</time></trkpt><trkpt lat="43.1106267" lon="13.1196817"><ele>357.0</ele><time>2026-04-04T14:57:14.733Z</time></trkpt><trkpt lat="43.1105933" lon="13.11934"><ele>357.0</ele><time>2026-04-04T14:57:15.729Z</time></trkpt><trkpt lat="43.1105567" lon="13.1190033"><ele>357.0</ele><time>2026-04-04T14:57:16.728Z</time></trkpt><trkpt lat="43.1105167" lon="13.118665"><ele>357.0</ele><time>2026-04-04T14:57:17.729Z</time></trkpt><trkpt lat="43.11048" lon="13.1183367"><ele>359.0</ele><time>2026-04-04T14:57:18.727Z</time></trkpt><trkpt lat="43.1104583" lon="13.11802"><ele>361.0</ele><time>2026-04-04T14:57:19.727Z</time></trkpt><trkpt lat="43.1104617" lon="13.1177033"><ele>361.0</ele><time>2026-04-04T14:57:20.729Z</time></trkpt><trkpt lat="43.110485" lon="13.1173917"><ele>361.0</ele><time>2026-04-04T14:57:21.728Z</time></trkpt><trkpt lat="43.1105183" lon="13.1170783"><ele>361.0</ele><time>2026-04-04T14:57:22.728Z</time></trkpt><trkpt lat="43.1105567" lon="13.1167583"><ele>361.0</ele><time>2026-04-04T14:57:23.726Z</time></trkpt><trkpt lat="43.1105933" lon="13.116425"><ele>361.5</ele><time>2026-04-04T14:57:24.729Z</time></trkpt><trkpt lat="43.11063" lon="13.116085"><ele>362.0</ele><time>2026-04-04T14:57:25.73Z</time></trkpt><trkpt lat="43.110665" lon="13.1157383"><ele>362.5</ele><time>2026-04-04T14:57:26.728Z</time></trkpt><trkpt lat="43.1107033" lon="13.11539"><ele>363.0</ele><time>2026-04-04T14:57:27.729Z</time></trkpt><trkpt lat="43.1107383" lon="13.115045"><ele>366.5</ele><time>2026-04-04T14:57:28.728Z</time></trkpt><trkpt lat="43.11077" lon="13.11471"><ele>370.0</ele><time>2026-04-04T14:57:29.728Z</time></trkpt><trkpt lat="43.1108017" lon="13.1143917"><ele>370.0</ele><time>2026-04-04T14:57:30.73Z</time></trkpt><trkpt lat="43.1108383" lon="13.114085"><ele>370.0</ele><time>2026-04-04T14:57:31.729Z</time></trkpt><trkpt lat="43.1109" lon="13.113785"><ele>369.5</ele><time>2026-04-04T14:57:32.731Z</time></trkpt><trkpt lat="43.11098" lon="13.1134833"><ele>369.0</ele><time>2026-04-04T14:57:33.729Z</time></trkpt><trkpt lat="43.1110633" lon="13.1131783"><ele>369.0</ele><time>2026-04-04T14:57:34.726Z</time></trkpt><trkpt lat="43.1111417" lon="13.1128717"><ele>369.0</ele><time>2026-04-04T14:57:35.73Z</time></trkpt><trkpt lat="43.1112083" lon="13.1125583"><ele>368.5</ele><time>2026-04-04T14:57:36.729Z</time></trkpt><trkpt lat="43.1112483" lon="13.1122383"><ele>368.0</ele><time>2026-04-04T14:57:37.729Z</time></trkpt><trkpt lat="43.1112617" lon="13.111905"><ele>369.0</ele><time>2026-04-04T14:57:38.728Z</time></trkpt><trkpt lat="43.11126" lon="13.1115667"><ele>370.0</ele><time>2026-04-04T14:57:39.727Z</time></trkpt><trkpt lat="43.111255" lon="13.11123"><ele>370.0</ele><time>2026-04-04T14:57:40.726Z</time></trkpt><trkpt lat="43.11125" lon="13.1108967"><ele>370.0</ele><time>2026-04-04T14:57:41.728Z</time></trkpt><trkpt lat="43.1112417" lon="13.110565"><ele>370.0</ele><time>2026-04-04T14:57:42.729Z</time></trkpt><trkpt lat="43.1112317" lon="13.1102333"><ele>370.0</ele><time>2026-04-04T14:57:43.725Z</time></trkpt><trkpt lat="43.1112233" lon="13.1099017"><ele>370.5</ele><time>2026-04-04T14:57:44.73Z</time></trkpt><trkpt lat="43.1112133" lon="13.1095633"><ele>371.0</ele><time>2026-04-04T14:57:45.732Z</time></trkpt><trkpt lat="43.1112067" lon="13.1092317"><ele>371.5</ele><time>2026-04-04T14:57:46.728Z</time></trkpt><trkpt lat="43.1111967" lon="13.1088917"><ele>372.0</ele><time>2026-04-04T14:57:47.731Z</time></trkpt><trkpt lat="43.1111867" lon="13.1085567"><ele>372.5</ele><time>2026-04-04T14:57:48.728Z</time></trkpt><trkpt lat="43.1111817" lon="13.10822"><ele>373.0</ele><time>2026-04-04T14:57:49.731Z</time></trkpt><trkpt lat="43.11119" lon="13.107885"><ele>373.0</ele><time>2026-04-04T14:57:50.733Z</time></trkpt><trkpt lat="43.11121" lon="13.10755"><ele>373.0</ele><time>2026-04-04T14:57:51.729Z</time></trkpt><trkpt lat="43.111235" lon="13.107215"><ele>373.5</ele><time>2026-04-04T14:57:52.726Z</time></trkpt><trkpt lat="43.111275" lon="13.1068917"><ele>374.0</ele><time>2026-04-04T14:57:53.728Z</time></trkpt><trkpt lat="43.1113383" lon="13.10659"><ele>377.0</ele><time>2026-04-04T14:57:54.73Z</time></trkpt><trkpt lat="43.1114283" lon="13.1063017"><ele>380.0</ele><time>2026-04-04T14:57:55.727Z</time></trkpt><trkpt lat="43.111545" lon="13.1060167"><ele>377.5</ele><time>2026-04-04T14:57:56.729Z</time></trkpt><trkpt lat="43.1116583" lon="13.1057217"><ele>375.0</ele><time>2026-04-04T14:57:57.729Z</time></trkpt><trkpt lat="43.111755" lon="13.105415"><ele>375.0</ele><time>2026-04-04T14:57:58.73Z</time></trkpt><trkpt lat="43.11184" lon="13.105095"><ele>375.0</ele><time>2026-04-04T14:57:59.727Z</time></trkpt><trkpt lat="43.1119133" lon="13.1047667"><ele>376.5</ele><time>2026-04-04T14:58:00.729Z</time></trkpt><trkpt lat="43.1119833" lon="13.1044383"><ele>378.0</ele><time>2026-04-04T14:58:01.73Z</time></trkpt><trkpt lat="43.11205" lon="13.1041083"><ele>379.5</ele><time>2026-04-04T14:58:02.73Z</time></trkpt><trkpt lat="43.1121167" lon="13.10378"><ele>381.0</ele><time>2026-04-04T14:58:03.731Z</time></trkpt><trkpt lat="43.1121867" lon="13.1034517"><ele>381.0</ele><time>2026-04-04T14:58:04.729Z</time></trkpt><trkpt lat="43.1122533" lon="13.1031233"><ele>381.0</ele><time>2026-04-04T14:58:05.731Z</time></trkpt><trkpt lat="43.1123233" lon="13.102795"><ele>381.0</ele><time>2026-04-04T14:58:06.731Z</time></trkpt><trkpt lat="43.1123933" lon="13.1024767"><ele>381.0</ele><time>2026-04-04T14:58:07.729Z</time></trkpt><trkpt lat="43.11246" lon="13.102175"><ele>381.0</ele><time>2026-04-04T14:58:08.732Z</time></trkpt><trkpt lat="43.1125217" lon="13.10189"><ele>381.0</ele><time>2026-04-04T14:58:09.731Z</time></trkpt><trkpt lat="43.1125817" lon="13.1016033"><ele>381.0</ele><time>2026-04-04T14:58:10.73Z</time></trkpt><trkpt lat="43.11265" lon="13.1013133"><ele>381.5</ele><time>2026-04-04T14:58:11.728Z</time></trkpt><trkpt lat="43.1127317" lon="13.10102"><ele>382.0</ele><time>2026-04-04T14:58:12.728Z</time></trkpt><trkpt lat="43.1128367" lon="13.1007317"><ele>386.0</ele><time>2026-04-04T14:58:13.73Z</time></trkpt><trkpt lat="43.11296" lon="13.1004483"><ele>390.0</ele><time>2026-04-04T14:58:14.729Z</time></trkpt><trkpt lat="43.1130883" lon="13.1001683"><ele>388.5</ele><time>2026-04-04T14:58:15.732Z</time></trkpt><trkpt lat="43.1132183" lon="13.0998867"><ele>387.0</ele><time>2026-04-04T14:58:16.731Z</time></trkpt><trkpt lat="43.1133417" lon="13.0995967"><ele>387.0</ele><time>2026-04-04T14:58:17.728Z</time></trkpt><trkpt lat="43.113455" lon="13.0992967"><ele>387.0</ele><time>2026-04-04T14:58:18.73Z</time></trkpt><trkpt lat="43.1135467" lon="13.0989817"><ele>387.0</ele><time>2026-04-04T14:58:19.729Z</time></trkpt><trkpt lat="43.1136167" lon="13.0986533"><ele>387.0</ele><time>2026-04-04T14:58:20.73Z</time></trkpt><trkpt lat="43.113665" lon="13.0983217"><ele>388.5</ele><time>2026-04-04T14:58:21.727Z</time></trkpt><trkpt lat="43.1136983" lon="13.0979833"><ele>390.0</ele><time>2026-04-04T14:58:22.729Z</time></trkpt><trkpt lat="43.1137283" lon="13.09764"><ele>391.5</ele><time>2026-04-04T14:58:23.728Z</time></trkpt><trkpt lat="43.113755" lon="13.0972917"><ele>393.0</ele><time>2026-04-04T14:58:24.725Z</time></trkpt><trkpt lat="43.113785" lon="13.0969483"><ele>393.0</ele><time>2026-04-04T14:58:25.73Z</time></trkpt><trkpt lat="43.1138067" lon="13.0965983"><ele>393.0</ele><time>2026-04-04T14:58:26.731Z</time></trkpt><trkpt lat="43.1138317" lon="13.09625"><ele>393.5</ele><time>2026-04-04T14:58:27.731Z</time></trkpt><trkpt lat="43.11386" lon="13.0959083"><ele>394.0</ele><time>2026-04-04T14:58:28.729Z</time></trkpt><trkpt lat="43.1138883" lon="13.0955633"><ele>394.0</ele><time>2026-04-04T14:58:29.726Z</time></trkpt><trkpt lat="43.1139133" lon="13.09522"><ele>394.0</ele><time>2026-04-04T14:58:30.733Z</time></trkpt><trkpt lat="43.1139367" lon="13.0948767"><ele>395.5</ele><time>2026-04-04T14:58:31.728Z</time></trkpt><trkpt lat="43.1139617" lon="13.0945317"><ele>397.0</ele><time>2026-04-04T14:58:32.73Z</time></trkpt><trkpt lat="43.1139833" lon="13.0941917"><ele>398.5</ele><time>2026-04-04T14:58:33.73Z</time></trkpt><trkpt lat="43.1140067" lon="13.093865"><ele>400.0</ele><time>2026-04-04T14:58:34.728Z</time></trkpt><trkpt lat="43.11403" lon="13.0935433"><ele>401.0</ele><time>2026-04-04T14:58:35.727Z</time></trkpt><trkpt lat="43.11406" lon="13.0932433"><ele>402.0</ele><time>2026-04-04T14:58:36.727Z</time></trkpt><trkpt lat="43.1141017" lon="13.09295"><ele>403.0</ele><time>2026-04-04T14:58:37.73Z</time></trkpt><trkpt lat="43.1141717" lon="13.092655"><ele>405.0</ele><time>2026-04-04T14:58:38.731Z</time></trkpt><trkpt lat="43.1142683" lon="13.0923783"><ele>407.0</ele><time>2026-04-04T14:58:39.731Z</time></trkpt><trkpt lat="43.1143633" lon="13.0921183"><ele>409.0</ele><time>2026-04-04T14:58:40.728Z</time></trkpt><trkpt lat="43.11444" lon="13.0918617"><ele>409.0</ele><time>2026-04-04T14:58:41.731Z</time></trkpt><trkpt lat="43.1144883" lon="13.09161"><ele>409.0</ele><time>2026-04-04T14:58:42.729Z</time></trkpt><trkpt lat="43.1145117" lon="13.091355"><ele>409.0</ele><time>2026-04-04T14:58:43.728Z</time></trkpt><trkpt lat="43.1145183" lon="13.0910883"><ele>409.0</ele><time>2026-04-04T14:58:44.735Z</time></trkpt><trkpt lat="43.114495" lon="13.0908067"><ele>409.0</ele><time>2026-04-04T14:58:45.729Z</time></trkpt><trkpt lat="43.1144667" lon="13.0905433"><ele>409.0</ele><time>2026-04-04T14:58:46.73Z</time></trkpt><trkpt lat="43.114435" lon="13.0902883"><ele>409.6666666666667</ele><time>2026-04-04T14:58:47.729Z</time></trkpt><trkpt lat="43.1144117" lon="13.09005"><ele>410.33333333333337</ele><time>2026-04-04T14:58:48.729Z</time></trkpt><trkpt lat="43.11443" lon="13.08983"><ele>411.0</ele><time>2026-04-04T14:58:49.734Z</time></trkpt><trkpt lat="43.11448" lon="13.089625"><ele>411.0</ele><time>2026-04-04T14:58:50.729Z</time></trkpt><trkpt lat="43.1145783" lon="13.0894517"><ele>411.0</ele><time>2026-04-04T14:58:51.727Z</time></trkpt><trkpt lat="43.1147183" lon="13.0893067"><ele>411.0</ele><time>2026-04-04T14:58:52.731Z</time></trkpt><trkpt lat="43.11489" lon="13.0891783"><ele>410.33333333333337</ele><time>2026-04-04T14:58:53.731Z</time></trkpt><trkpt lat="43.115075" lon="13.0890333"><ele>409.6666666666667</ele><time>2026-04-04T14:58:54.732Z</time></trkpt><trkpt lat="43.11525" lon="13.0888533"><ele>409.0</ele><time>2026-04-04T14:58:55.73Z</time></trkpt><trkpt lat="43.115395" lon="13.08864"><ele>409.0</ele><time>2026-04-04T14:58:56.729Z</time></trkpt><trkpt lat="43.1155133" lon="13.0883933"><ele>409.0</ele><time>2026-04-04T14:58:57.728Z</time></trkpt><trkpt lat="43.11562" lon="13.0881217"><ele>409.0</ele><time>2026-04-04T14:58:58.727Z</time></trkpt><trkpt lat="43.1157417" lon="13.0878583"><ele>410.5</ele><time>2026-04-04T14:58:59.73Z</time></trkpt><trkpt lat="43.1158833" lon="13.0876083"><ele>412.0</ele><time>2026-04-04T14:59:00.729Z</time></trkpt><trkpt lat="43.1160333" lon="13.0873583"><ele>412.0</ele><time>2026-04-04T14:59:01.729Z</time></trkpt><trkpt lat="43.1161867" lon="13.0871117"><ele>412.0</ele><time>2026-04-04T14:59:02.731Z</time></trkpt><trkpt lat="43.1163417" lon="13.086865"><ele>412.0</ele><time>2026-04-04T14:59:03.732Z</time></trkpt><trkpt lat="43.116495" lon="13.0866183"><ele>412.0</ele><time>2026-04-04T14:59:04.727Z</time></trkpt><trkpt lat="43.1166483" lon="13.08637"><ele>413.5</ele><time>2026-04-04T14:59:05.728Z</time></trkpt><trkpt lat="43.116805" lon="13.0861133"><ele>415.0</ele><time>2026-04-04T14:59:06.728Z</time></trkpt><trkpt lat="43.116965" lon="13.0858517"><ele>412.5</ele><time>2026-04-04T14:59:07.728Z</time></trkpt><trkpt lat="43.1171233" lon="13.0855833"><ele>410.0</ele><time>2026-04-04T14:59:08.728Z</time></trkpt><trkpt lat="43.1172817" lon="13.085315"><ele>412.0</ele><time>2026-04-04T14:59:09.73Z</time></trkpt><trkpt lat="43.1174367" lon="13.08505"><ele>414.0</ele><time>2026-04-04T14:59:10.729Z</time></trkpt><trkpt lat="43.1175933" lon="13.0847883"><ele>414.0</ele><time>2026-04-04T14:59:11.729Z</time></trkpt><trkpt lat="43.1177417" lon="13.0845383"><ele>414.0</ele><time>2026-04-04T14:59:12.732Z</time></trkpt><trkpt lat="43.1178817" lon="13.0843"><ele>413.66666666666663</ele><time>2026-04-04T14:59:13.728Z</time></trkpt><trkpt lat="43.1180183" lon="13.08407"><ele>413.3333333333333</ele><time>2026-04-04T14:59:14.732Z</time></trkpt><trkpt lat="43.11815" lon="13.0838383"><ele>413.0</ele><time>2026-04-04T14:59:15.73Z</time></trkpt><trkpt lat="43.11828" lon="13.0836133"><ele>413.3333333333333</ele><time>2026-04-04T14:59:16.729Z</time></trkpt><trkpt lat="43.1184117" lon="13.0833917"><ele>413.66666666666663</ele><time>2026-04-04T14:59:17.73Z</time></trkpt><trkpt lat="43.1185483" lon="13.083195"><ele>414.0</ele><time>2026-04-04T14:59:18.729Z</time></trkpt><trkpt lat="43.1187117" lon="13.0830367"><ele>414.0</ele><time>2026-04-04T14:59:19.731Z</time></trkpt><trkpt lat="43.1189" lon="13.0829083"><ele>414.0</ele><time>2026-04-04T14:59:20.731Z</time></trkpt><trkpt lat="43.1191183" lon="13.0828367"><ele>414.0</ele><time>2026-04-04T14:59:21.729Z</time></trkpt><trkpt lat="43.119355" lon="13.0827983"><ele>415.0</ele><time>2026-04-04T14:59:22.725Z</time></trkpt><trkpt lat="43.119595" lon="13.08277"><ele>416.0</ele><time>2026-04-04T14:59:23.729Z</time></trkpt><trkpt lat="43.11984" lon="13.08275"><ele>418.0</ele><time>2026-04-04T14:59:24.731Z</time></trkpt><trkpt lat="43.120085" lon="13.082735"><ele>420.0</ele><time>2026-04-04T14:59:25.732Z</time></trkpt><trkpt lat="43.1203283" lon="13.0827217"><ele>420.0</ele><time>2026-04-04T14:59:26.732Z</time></trkpt><trkpt lat="43.12057" lon="13.08271"><ele>420.0</ele><time>2026-04-04T14:59:27.732Z</time></trkpt><trkpt lat="43.1208117" lon="13.0826983"><ele>422.0</ele><time>2026-04-04T14:59:28.728Z</time></trkpt><trkpt lat="43.121055" lon="13.08269"><ele>424.0</ele><time>2026-04-04T14:59:29.727Z</time></trkpt><trkpt lat="43.1213017" lon="13.0826867"><ele>424.0</ele><time>2026-04-04T14:59:30.725Z</time></trkpt><trkpt lat="43.1215517" lon="13.082695"><ele>424.0</ele><time>2026-04-04T14:59:31.729Z</time></trkpt><trkpt lat="43.1217967" lon="13.0827017"><ele>424.5</ele><time>2026-04-04T14:59:32.729Z</time></trkpt><trkpt lat="43.1220417" lon="13.0827083"><ele>425.0</ele><time>2026-04-04T14:59:33.73Z</time></trkpt><trkpt lat="43.1222833" lon="13.0827017"><ele>426.5</ele><time>2026-04-04T14:59:34.728Z</time></trkpt><trkpt lat="43.1225233" lon="13.0826817"><ele>428.0</ele><time>2026-04-04T14:59:35.73Z</time></trkpt><trkpt lat="43.1227683" lon="13.0826433"><ele>428.0</ele><time>2026-04-04T14:59:36.728Z</time></trkpt><trkpt lat="43.123015" lon="13.0825983"><ele>428.0</ele><time>2026-04-04T14:59:37.728Z</time></trkpt><trkpt lat="43.12326" lon="13.0825567"><ele>427.5</ele><time>2026-04-04T14:59:38.731Z</time></trkpt><trkpt lat="43.1235017" lon="13.0825133"><ele>427.0</ele><time>2026-04-04T14:59:39.728Z</time></trkpt><trkpt lat="43.123735" lon="13.082465"><ele>426.0</ele><time>2026-04-04T14:59:40.728Z</time></trkpt><trkpt lat="43.12396" lon="13.08242"><ele>425.0</ele><time>2026-04-04T14:59:41.73Z</time></trkpt><trkpt lat="43.1241683" lon="13.0823617"><ele>424.0</ele><time>2026-04-04T14:59:42.727Z</time></trkpt><trkpt lat="43.1243633" lon="13.0822683"><ele>424.0</ele><time>2026-04-04T14:59:43.731Z</time></trkpt><trkpt lat="43.1245517" lon="13.0821367"><ele>424.0</ele><time>2026-04-04T14:59:44.731Z</time></trkpt><trkpt lat="43.1247283" lon="13.0819733"><ele>424.0</ele><time>2026-04-04T14:59:45.726Z</time></trkpt><trkpt lat="43.1248967" lon="13.081785"><ele>423.6666666666667</ele><time>2026-04-04T14:59:46.727Z</time></trkpt><trkpt lat="43.125045" lon="13.08157"><ele>423.33333333333337</ele><time>2026-04-04T14:59:47.732Z</time></trkpt><trkpt lat="43.1251833" lon="13.0813433"><ele>423.0</ele><time>2026-04-04T14:59:48.729Z</time></trkpt><trkpt lat="43.1253283" lon="13.0811267"><ele>423.0</ele><time>2026-04-04T14:59:49.729Z</time></trkpt><trkpt lat="43.1254833" lon="13.0809283"><ele>423.0</ele><time>2026-04-04T14:59:50.73Z</time></trkpt><trkpt lat="43.125635" lon="13.08075"><ele>423.0</ele><time>2026-04-04T14:59:51.728Z</time></trkpt><trkpt lat="43.12577" lon="13.0805917"><ele>423.0</ele><time>2026-04-04T14:59:52.73Z</time></trkpt><trkpt lat="43.1258867" lon="13.08045"><ele>423.0</ele><time>2026-04-04T14:59:53.727Z</time></trkpt><trkpt lat="43.12599" lon="13.0803167"><ele>423.0</ele><time>2026-04-04T14:59:54.729Z</time></trkpt><trkpt lat="43.1260867" lon="13.0801883"><ele>423.0</ele><time>2026-04-04T14:59:55.728Z</time></trkpt><trkpt lat="43.1261683" lon="13.0800667"><ele>423.0</ele><time>2026-04-04T14:59:56.729Z</time></trkpt><trkpt lat="43.1262333" lon="13.0799583"><ele>423.0</ele><time>2026-04-04T14:59:57.729Z</time></trkpt><trkpt lat="43.1262917" lon="13.0798583"><ele>423.0</ele><time>2026-04-04T14:59:58.727Z</time></trkpt><trkpt lat="43.1263383" lon="13.0797633"><ele>423.0</ele><time>2026-04-04T14:59:59.729Z</time></trkpt><trkpt lat="43.1263817" lon="13.07966"><ele>423.0</ele><time>2026-04-04T15:00:00.727Z</time></trkpt><trkpt lat="43.126425" lon="13.0795467"><ele>423.33333333333337</ele><time>2026-04-04T15:00:01.724Z</time></trkpt><trkpt lat="43.1264667" lon="13.07938"><ele>423.6666666666667</ele><time>2026-04-04T15:00:02.73Z</time></trkpt><trkpt lat="43.12649" lon="13.0791483"><ele>424.0</ele><time>2026-04-04T15:00:03.728Z</time></trkpt><trkpt lat="43.12649" lon="13.0789033"><ele>424.33333333333337</ele><time>2026-04-04T15:00:04.727Z</time></trkpt><trkpt lat="43.1264433" lon="13.078635"><ele>424.66666666666663</ele><time>2026-04-04T15:00:05.728Z</time></trkpt><trkpt lat="43.1263433" lon="13.0783533"><ele>425.0</ele><time>2026-04-04T15:00:06.729Z</time></trkpt><trkpt lat="43.1262167" lon="13.0780717"><ele>427.5</ele><time>2026-04-04T15:00:07.729Z</time></trkpt><trkpt lat="43.1260917" lon="13.0777783"><ele>430.0</ele><time>2026-04-04T15:00:08.727Z</time></trkpt><trkpt lat="43.12597" lon="13.07748"><ele>430.0</ele><time>2026-04-04T15:00:09.729Z</time></trkpt><trkpt lat="43.1258483" lon="13.07718"><ele>430.0</ele><time>2026-04-04T15:00:10.73Z</time></trkpt><trkpt lat="43.1257233" lon="13.0768783"><ele>432.5</ele><time>2026-04-04T15:00:11.729Z</time></trkpt><trkpt lat="43.1256017" lon="13.07658"><ele>435.0</ele><time>2026-04-04T15:00:12.726Z</time></trkpt><trkpt lat="43.125475" lon="13.07628"><ele>435.0</ele><time>2026-04-04T15:00:13.729Z</time></trkpt><trkpt lat="43.125345" lon="13.0759817"><ele>435.0</ele><time>2026-04-04T15:00:14.723Z</time></trkpt><trkpt lat="43.125215" lon="13.0756833"><ele>439.0</ele><time>2026-04-04T15:00:15.724Z</time></trkpt><trkpt lat="43.1250883" lon="13.0753883"><ele>443.0</ele><time>2026-04-04T15:00:16.726Z</time></trkpt><trkpt lat="43.1249617" lon="13.0750833"><ele>442.0</ele><time>2026-04-04T15:00:17.727Z</time></trkpt><trkpt lat="43.1248367" lon="13.0747717"><ele>441.0</ele><time>2026-04-04T15:00:18.727Z</time></trkpt><trkpt lat="43.12471" lon="13.0744583"><ele>441.0</ele><time>2026-04-04T15:00:19.723Z</time></trkpt><trkpt lat="43.1245883" lon="13.0741517"><ele>441.0</ele><time>2026-04-04T15:00:20.723Z</time></trkpt><trkpt lat="43.1244717" lon="13.073865"><ele>444.5</ele><time>2026-04-04T15:00:21.725Z</time></trkpt><trkpt lat="43.1243633" lon="13.07358"><ele>448.0</ele><time>2026-04-04T15:00:22.724Z</time></trkpt><trkpt lat="43.1242533" lon="13.0732883"><ele>451.0</ele><time>2026-04-04T15:00:23.728Z</time></trkpt><trkpt lat="43.1241583" lon="13.0729883"><ele>454.0</ele><time>2026-04-04T15:00:24.727Z</time></trkpt><trkpt lat="43.12408" lon="13.07267"><ele>451.0</ele><time>2026-04-04T15:00:25.737Z</time></trkpt><trkpt lat="43.1240117" lon="13.0723383"><ele>448.0</ele><time>2026-04-04T15:00:26.728Z</time></trkpt><trkpt lat="43.1239533" lon="13.072"><ele>448.0</ele><time>2026-04-04T15:00:27.73Z</time></trkpt><trkpt lat="43.1239" lon="13.0716617"><ele>448.0</ele><time>2026-04-04T15:00:28.728Z</time></trkpt><trkpt lat="43.12385" lon="13.0713217"><ele>451.0</ele><time>2026-04-04T15:00:29.728Z</time></trkpt><trkpt lat="43.1238033" lon="13.0709783"><ele>454.0</ele><time>2026-04-04T15:00:30.729Z</time></trkpt><trkpt lat="43.1237583" lon="13.0706383"><ele>457.0</ele><time>2026-04-04T15:00:31.731Z</time></trkpt><trkpt lat="43.1237117" lon="13.0703017"><ele>460.0</ele><time>2026-04-04T15:00:32.731Z</time></trkpt><trkpt lat="43.123665" lon="13.0699633"><ele>462.0</ele><time>2026-04-04T15:00:33.729Z</time></trkpt><trkpt lat="43.123625" lon="13.0696183"><ele>464.0</ele><time>2026-04-04T15:00:34.729Z</time></trkpt><trkpt lat="43.1235917" lon="13.0692717"><ele>466.0</ele><time>2026-04-04T15:00:35.728Z</time></trkpt><trkpt lat="43.1235633" lon="13.0689217"><ele>468.0</ele><time>2026-04-04T15:00:36.73Z</time></trkpt><trkpt lat="43.1235367" lon="13.0685833"><ele>471.5</ele><time>2026-04-04T15:00:37.725Z</time></trkpt><trkpt lat="43.1235117" lon="13.068265"><ele>475.0</ele><time>2026-04-04T15:00:38.727Z</time></trkpt><trkpt lat="43.1234633" lon="13.067965"><ele>475.0</ele><time>2026-04-04T15:00:39.726Z</time></trkpt><trkpt lat="43.1233733" lon="13.0676733"><ele>475.0</ele><time>2026-04-04T15:00:40.727Z</time></trkpt><trkpt lat="43.123255" lon="13.0673983"><ele>471.0</ele><time>2026-04-04T15:00:41.728Z</time></trkpt><trkpt lat="43.1231433" lon="13.067135"><ele>467.0</ele><time>2026-04-04T15:00:42.728Z</time></trkpt><trkpt lat="43.1230567" lon="13.0668917"><ele>463.0</ele><time>2026-04-04T15:00:43.728Z</time></trkpt><trkpt lat="43.1230033" lon="13.0666583"><ele>463.0</ele><time>2026-04-04T15:00:44.729Z</time></trkpt><trkpt lat="43.1230017" lon="13.0664233"><ele>463.0</ele><time>2026-04-04T15:00:45.729Z</time></trkpt><trkpt lat="43.1230333" lon="13.0662033"><ele>463.0</ele><time>2026-04-04T15:00:46.726Z</time></trkpt><trkpt lat="43.1230883" lon="13.066005"><ele>463.0</ele><time>2026-04-04T15:00:47.728Z</time></trkpt><trkpt lat="43.1231817" lon="13.0658317"><ele>463.0</ele><time>2026-04-04T15:00:48.727Z</time></trkpt><trkpt lat="43.1233233" lon="13.0656717"><ele>463.0</ele><time>2026-04-04T15:00:49.728Z</time></trkpt><trkpt lat="43.1235017" lon="13.065535"><ele>466.33333333333337</ele><time>2026-04-04T15:00:50.73Z</time></trkpt><trkpt lat="43.1236817" lon="13.0653883"><ele>469.66666666666663</ele><time>2026-04-04T15:00:51.727Z</time></trkpt><trkpt lat="43.12386" lon="13.0652383"><ele>473.0</ele><time>2026-04-04T15:00:52.724Z</time></trkpt><trkpt lat="43.1240367" lon="13.0651083"><ele>475.3333333333333</ele><time>2026-04-04T15:00:53.728Z</time></trkpt><trkpt lat="43.1242083" lon="13.0650333"><ele>477.66666666666663</ele><time>2026-04-04T15:00:54.73Z</time></trkpt><trkpt lat="43.1243683" lon="13.0649717"><ele>480.0</ele><time>2026-04-04T15:00:55.726Z</time></trkpt><trkpt lat="43.12451" lon="13.0648733"><ele>480.0</ele><time>2026-04-04T15:00:56.726Z</time></trkpt><trkpt lat="43.12461" lon="13.06473"><ele>480.0</ele><time>2026-04-04T15:00:57.727Z</time></trkpt><trkpt lat="43.1246533" lon="13.0645333"><ele>480.0</ele><time>2026-04-04T15:00:58.727Z</time></trkpt><trkpt lat="43.1247" lon="13.06434"><ele>480.0</ele><time>2026-04-04T15:00:59.732Z</time></trkpt><trkpt lat="43.1247533" lon="13.0641767"><ele>479.33333333333337</ele><time>2026-04-04T15:01:00.727Z</time></trkpt><trkpt lat="43.12486" lon="13.0640767"><ele>478.6666666666667</ele><time>2026-04-04T15:01:01.728Z</time></trkpt><trkpt lat="43.125" lon="13.0640233"><ele>478.0</ele><time>2026-04-04T15:01:02.727Z</time></trkpt><trkpt lat="43.1251767" lon="13.064"><ele>482.6666666666667</ele><time>2026-04-04T15:01:03.728Z</time></trkpt><trkpt lat="43.125365" lon="13.063965"><ele>487.33333333333337</ele><time>2026-04-04T15:01:04.728Z</time></trkpt><trkpt lat="43.125555" lon="13.06388"><ele>492.0</ele><time>2026-04-04T15:01:05.729Z</time></trkpt><trkpt lat="43.1257283" lon="13.0637417"><ele>495.66666666666663</ele><time>2026-04-04T15:01:06.728Z</time></trkpt><trkpt lat="43.1258833" lon="13.0635483"><ele>499.3333333333333</ele><time>2026-04-04T15:01:07.73Z</time></trkpt><trkpt lat="43.12602" lon="13.0633367"><ele>503.0</ele><time>2026-04-04T15:01:08.731Z</time></trkpt><trkpt lat="43.126115" lon="13.06313"><ele>503.0</ele><time>2026-04-04T15:01:09.727Z</time></trkpt><trkpt lat="43.1261733" lon="13.0629"><ele>503.0</ele><time>2026-04-04T15:01:10.727Z</time></trkpt><trkpt lat="43.12618" lon="13.06263"><ele>503.0</ele><time>2026-04-04T15:01:11.728Z</time></trkpt><trkpt lat="43.1261417" lon="13.0623267"><ele>504.5</ele><time>2026-04-04T15:01:12.727Z</time></trkpt><trkpt lat="43.126105" lon="13.062005"><ele>506.0</ele><time>2026-04-04T15:01:13.728Z</time></trkpt><trkpt lat="43.1260717" lon="13.0616867"><ele>509.3333333333333</ele><time>2026-04-04T15:01:14.73Z</time></trkpt><trkpt lat="43.126025" lon="13.06138"><ele>512.6666666666666</ele><time>2026-04-04T15:01:15.73Z</time></trkpt><trkpt lat="43.12597" lon="13.0610983"><ele>516.0</ele><time>2026-04-04T15:01:16.729Z</time></trkpt><trkpt lat="43.125905" lon="13.0608433"><ele>516.0</ele><time>2026-04-04T15:01:17.728Z</time></trkpt><trkpt lat="43.12584" lon="13.0606117"><ele>516.0</ele><time>2026-04-04T15:01:18.728Z</time></trkpt><trkpt lat="43.1258033" lon="13.0603933"><ele>516.0</ele><time>2026-04-04T15:01:19.728Z</time></trkpt><trkpt lat="43.12582" lon="13.060195"><ele>516.0</ele><time>2026-04-04T15:01:20.729Z</time></trkpt><trkpt lat="43.1258917" lon="13.0600367"><ele>516.0</ele><time>2026-04-04T15:01:21.726Z</time></trkpt><trkpt lat="43.1260033" lon="13.05994"><ele>516.0</ele><time>2026-04-04T15:01:22.727Z</time></trkpt><trkpt lat="43.126165" lon="13.0599233"><ele>516.0</ele><time>2026-04-04T15:01:23.731Z</time></trkpt><trkpt lat="43.126345" lon="13.0599617"><ele>518.6666666666666</ele><time>2026-04-04T15:01:24.728Z</time></trkpt><trkpt lat="43.1265683" lon="13.0600833"><ele>521.3333333333333</ele><time>2026-04-04T15:01:25.728Z</time></trkpt><trkpt lat="43.1267617" lon="13.0601617"><ele>524.0</ele><time>2026-04-04T15:01:26.732Z</time></trkpt><trkpt lat="43.1269467" lon="13.0602467"><ele>524.0</ele><time>2026-04-04T15:01:27.727Z</time></trkpt><trkpt lat="43.1271283" lon="13.0603133"><ele>524.0</ele><time>2026-04-04T15:01:28.727Z</time></trkpt><trkpt lat="43.12731" lon="13.0603633"><ele>524.0</ele><time>2026-04-04T15:01:29.729Z</time></trkpt><trkpt lat="43.1274783" lon="13.0603883"><ele>525.3333333333333</ele><time>2026-04-04T15:01:30.727Z</time></trkpt><trkpt lat="43.12764" lon="13.0604017"><ele>526.6666666666666</ele><time>2026-04-04T15:01:31.725Z</time></trkpt><trkpt lat="43.1278" lon="13.060405"><ele>528.0</ele><time>2026-04-04T15:01:32.732Z</time></trkpt><trkpt lat="43.12795" lon="13.0603967"><ele>528.0</ele><time>2026-04-04T15:01:33.736Z</time></trkpt><trkpt lat="43.128095" lon="13.0603733"><ele>528.0</ele><time>2026-04-04T15:01:34.726Z</time></trkpt><trkpt lat="43.12822" lon="13.060305"><ele>528.0</ele><time>2026-04-04T15:01:35.729Z</time></trkpt><trkpt lat="43.1283383" lon="13.0602083"><ele>528.0</ele><time>2026-04-04T15:01:36.725Z</time></trkpt><trkpt lat="43.12844" lon="13.060095"><ele>528.6</ele><time>2026-04-04T15:01:37.728Z</time></trkpt><trkpt lat="43.1285133" lon="13.0599667"><ele>529.1999999999999</ele><time>2026-04-04T15:01:38.729Z</time></trkpt><trkpt lat="43.1285667" lon="13.0598417"><ele>529.8</ele><time>2026-04-04T15:01:39.726Z</time></trkpt><trkpt lat="43.1286167" lon="13.0597267"><ele>530.4</ele><time>2026-04-04T15:01:40.726Z</time></trkpt><trkpt lat="43.1286717" lon="13.05964"><ele>531.0</ele><time>2026-04-04T15:01:41.728Z</time></trkpt><trkpt lat="43.1287333" lon="13.0595733"><ele>531.0</ele><time>2026-04-04T15:01:42.728Z</time></trkpt><trkpt lat="43.128805" lon="13.0595317"><ele>531.0</ele><time>2026-04-04T15:01:43.727Z</time></trkpt><trkpt lat="43.1288883" lon="13.0594967"><ele>531.0</ele><time>2026-04-04T15:01:44.732Z</time></trkpt><trkpt lat="43.1290033" lon="13.0594833"><ele>531.0</ele><time>2026-04-04T15:01:45.73Z</time></trkpt><trkpt lat="43.1291617" lon="13.0594967"><ele>531.0</ele><time>2026-04-04T15:01:46.728Z</time></trkpt><trkpt lat="43.1293167" lon="13.0594967"><ele>533.6666666666666</ele><time>2026-04-04T15:01:47.727Z</time></trkpt><trkpt lat="43.129465" lon="13.0594667"><ele>536.3333333333333</ele><time>2026-04-04T15:01:48.729Z</time></trkpt><trkpt lat="43.1296117" lon="13.05942"><ele>539.0</ele><time>2026-04-04T15:01:49.728Z</time></trkpt><trkpt lat="43.12976" lon="13.05936"><ele>542.0</ele><time>2026-04-04T15:01:50.729Z</time></trkpt><trkpt lat="43.1299033" lon="13.0593017"><ele>545.0</ele><time>2026-04-04T15:01:51.727Z</time></trkpt><trkpt lat="43.1300517" lon="13.0592483"><ele>548.0</ele><time>2026-04-04T15:01:52.73Z</time></trkpt><trkpt lat="43.1302" lon="13.0592083"><ele>548.0</ele><time>2026-04-04T15:01:53.724Z</time></trkpt><trkpt lat="43.13035" lon="13.0591883"><ele>548.0</ele><time>2026-04-04T15:01:54.726Z</time></trkpt><trkpt lat="43.1305067" lon="13.0592233"><ele>548.0</ele><time>2026-04-04T15:01:55.729Z</time></trkpt><trkpt lat="43.1306667" lon="13.0592833"><ele>549.3333333333333</ele><time>2026-04-04T15:01:56.727Z</time></trkpt><trkpt lat="43.13083" lon="13.0593433"><ele>550.6666666666666</ele><time>2026-04-04T15:01:57.728Z</time></trkpt><trkpt lat="43.1309933" lon="13.059395"><ele>552.0</ele><time>2026-04-04T15:01:58.724Z</time></trkpt><trkpt lat="43.1311517" lon="13.0594333"><ele>552.0</ele><time>2026-04-04T15:01:59.725Z</time></trkpt><trkpt lat="43.13131" lon="13.0594633"><ele>552.0</ele><time>2026-04-04T15:02:00.726Z</time></trkpt><trkpt lat="43.13147" lon="13.0594783"><ele>552.0</ele><time>2026-04-04T15:02:01.727Z</time></trkpt><trkpt lat="43.1316333" lon="13.0594817"><ele>554.6666666666666</ele><time>2026-04-04T15:02:02.729Z</time></trkpt><trkpt lat="43.1318033" lon="13.0594783"><ele>557.3333333333333</ele><time>2026-04-04T15:02:03.73Z</time></trkpt><trkpt lat="43.131975" lon="13.05948"><ele>560.0</ele><time>2026-04-04T15:02:04.73Z</time></trkpt><trkpt lat="43.1321433" lon="13.0594983"><ele>560.0</ele><time>2026-04-04T15:02:05.728Z</time></trkpt><trkpt lat="43.1323183" lon="13.059555"><ele>560.0</ele><time>2026-04-04T15:02:06.729Z</time></trkpt><trkpt lat="43.1324967" lon="13.0596433"><ele>560.0</ele><time>2026-04-04T15:02:07.731Z</time></trkpt><trkpt lat="43.1326733" lon="13.059755"><ele>559.0</ele><time>2026-04-04T15:02:08.726Z</time></trkpt><trkpt lat="43.1328467" lon="13.0598717"><ele>558.0</ele><time>2026-04-04T15:02:09.727Z</time></trkpt><trkpt lat="43.133015" lon="13.0600067"><ele>557.0</ele><time>2026-04-04T15:02:10.727Z</time></trkpt><trkpt lat="43.1331783" lon="13.0601467"><ele>558.0</ele><time>2026-04-04T15:02:11.728Z</time></trkpt><trkpt lat="43.133345" lon="13.0602867"><ele>559.0</ele><time>2026-04-04T15:02:12.727Z</time></trkpt><trkpt lat="43.1335167" lon="13.06041"><ele>560.0</ele><time>2026-04-04T15:02:13.728Z</time></trkpt><trkpt lat="43.1337017" lon="13.060505"><ele>560.0</ele><time>2026-04-04T15:02:14.727Z</time></trkpt><trkpt lat="43.133895" lon="13.06057"><ele>560.0</ele><time>2026-04-04T15:02:15.728Z</time></trkpt><trkpt lat="43.1340967" lon="13.0606083"><ele>560.0</ele><time>2026-04-04T15:02:16.726Z</time></trkpt><trkpt lat="43.134305" lon="13.0606267"><ele>556.3333333333333</ele><time>2026-04-04T15:02:17.728Z</time></trkpt><trkpt lat="43.1345133" lon="13.0606383"><ele>552.6666666666666</ele><time>2026-04-04T15:02:18.726Z</time></trkpt><trkpt lat="43.1347167" lon="13.060645"><ele>549.0</ele><time>2026-04-04T15:02:19.73Z</time></trkpt><trkpt lat="43.1349133" lon="13.0606533"><ele>547.3333333333334</ele><time>2026-04-04T15:02:20.73Z</time></trkpt><trkpt lat="43.1351117" lon="13.06066"><ele>545.6666666666667</ele><time>2026-04-04T15:02:21.727Z</time></trkpt><trkpt lat="43.135315" lon="13.060665"><ele>544.0</ele><time>2026-04-04T15:02:22.73Z</time></trkpt><trkpt lat="43.1355233" lon="13.0606667"><ele>543.0</ele><time>2026-04-04T15:02:23.729Z</time></trkpt><trkpt lat="43.1357333" lon="13.060665"><ele>542.0</ele><time>2026-04-04T15:02:24.728Z</time></trkpt><trkpt lat="43.1359483" lon="13.0606717"><ele>541.0</ele><time>2026-04-04T15:02:25.734Z</time></trkpt><trkpt lat="43.1361633" lon="13.0606817"><ele>541.0</ele><time>2026-04-04T15:02:26.728Z</time></trkpt><trkpt lat="43.1363767" lon="13.0607083"><ele>541.0</ele><time>2026-04-04T15:02:27.728Z</time></trkpt><trkpt lat="43.1365883" lon="13.0607517"><ele>541.0</ele><time>2026-04-04T15:02:28.728Z</time></trkpt><trkpt lat="43.1368" lon="13.0608083"><ele>542.0</ele><time>2026-04-04T15:02:29.732Z</time></trkpt><trkpt lat="43.1370067" lon="13.0608717"><ele>543.0</ele><time>2026-04-04T15:02:30.73Z</time></trkpt><trkpt lat="43.137205" lon="13.060935"><ele>544.0</ele><time>2026-04-04T15:02:31.73Z</time></trkpt><trkpt lat="43.1373967" lon="13.0610067"><ele>544.0</ele><time>2026-04-04T15:02:32.73Z</time></trkpt><trkpt lat="43.1375683" lon="13.061105"><ele>544.0</ele><time>2026-04-04T15:02:33.729Z</time></trkpt><trkpt lat="43.1377283" lon="13.061245"><ele>544.0</ele><time>2026-04-04T15:02:34.724Z</time></trkpt><trkpt lat="43.1378833" lon="13.0614267"><ele>543.0</ele><time>2026-04-04T15:02:35.727Z</time></trkpt><trkpt lat="43.138035" lon="13.061635"><ele>542.0</ele><time>2026-04-04T15:02:36.73Z</time></trkpt><trkpt lat="43.1381883" lon="13.0618533"><ele>541.0</ele><time>2026-04-04T15:02:37.739Z</time></trkpt><trkpt lat="43.138345" lon="13.0620783"><ele>541.0</ele><time>2026-04-04T15:02:38.73Z</time></trkpt><trkpt lat="43.1385017" lon="13.062305"><ele>541.0</ele><time>2026-04-04T15:02:39.729Z</time></trkpt><trkpt lat="43.13866" lon="13.062535"><ele>543.0</ele><time>2026-04-04T15:02:40.727Z</time></trkpt><trkpt lat="43.138815" lon="13.06276"><ele>545.0</ele><time>2026-04-04T15:02:41.727Z</time></trkpt><trkpt lat="43.13897" lon="13.0629817"><ele>543.6666666666666</ele><time>2026-04-04T15:02:42.729Z</time></trkpt><trkpt lat="43.13912" lon="13.0632"><ele>542.3333333333334</ele><time>2026-04-04T15:02:43.729Z</time></trkpt><trkpt lat="43.1392617" lon="13.0634"><ele>541.0</ele><time>2026-04-04T15:02:44.725Z</time></trkpt><trkpt lat="43.1393983" lon="13.063595"><ele>541.0</ele><time>2026-04-04T15:02:45.728Z</time></trkpt><trkpt lat="43.1395167" lon="13.0637933"><ele>541.0</ele><time>2026-04-04T15:02:46.727Z</time></trkpt><trkpt lat="43.1396017" lon="13.0640183"><ele>541.0</ele><time>2026-04-04T15:02:47.727Z</time></trkpt><trkpt lat="43.1396667" lon="13.0642583"><ele>541.3333333333334</ele><time>2026-04-04T15:02:48.728Z</time></trkpt><trkpt lat="43.1397333" lon="13.0645"><ele>541.6666666666666</ele><time>2026-04-04T15:02:49.727Z</time></trkpt><trkpt lat="43.1398183" lon="13.06474"><ele>542.0</ele><time>2026-04-04T15:02:50.73Z</time></trkpt><trkpt lat="43.1399233" lon="13.0649717"><ele>542.0</ele><time>2026-04-04T15:02:51.727Z</time></trkpt><trkpt lat="43.1400517" lon="13.0651883"><ele>542.0</ele><time>2026-04-04T15:02:52.725Z</time></trkpt><trkpt lat="43.1402" lon="13.0653917"><ele>542.0</ele><time>2026-04-04T15:02:53.728Z</time></trkpt><trkpt lat="43.140355" lon="13.0655883"><ele>540.6666666666666</ele><time>2026-04-04T15:02:54.729Z</time></trkpt><trkpt lat="43.140515" lon="13.06579"><ele>539.3333333333334</ele><time>2026-04-04T15:02:55.729Z</time></trkpt><trkpt lat="43.1406733" lon="13.0659917"><ele>538.0</ele><time>2026-04-04T15:02:56.733Z</time></trkpt><trkpt lat="43.14083" lon="13.0661867"><ele>538.0</ele><time>2026-04-04T15:02:57.731Z</time></trkpt><trkpt lat="43.1409767" lon="13.0663733"><ele>538.0</ele><time>2026-04-04T15:02:58.728Z</time></trkpt><trkpt lat="43.1411183" lon="13.0665567"><ele>538.0</ele><time>2026-04-04T15:02:59.728Z</time></trkpt><trkpt lat="43.1412583" lon="13.0667333"><ele>537.3333333333334</ele><time>2026-04-04T15:03:00.729Z</time></trkpt><trkpt lat="43.1413933" lon="13.0669067"><ele>536.6666666666666</ele><time>2026-04-04T15:03:01.73Z</time></trkpt><trkpt lat="43.1415183" lon="13.0670817"><ele>536.0</ele><time>2026-04-04T15:03:02.732Z</time></trkpt><trkpt lat="43.1416383" lon="13.0672517"><ele>536.0</ele><time>2026-04-04T15:03:03.727Z</time></trkpt><trkpt lat="43.1417517" lon="13.06742"><ele>536.0</ele><time>2026-04-04T15:03:04.727Z</time></trkpt><trkpt lat="43.14186" lon="13.0675817"><ele>536.0</ele><time>2026-04-04T15:03:05.728Z</time></trkpt><trkpt lat="43.1419717" lon="13.0677433"><ele>537.6666666666666</ele><time>2026-04-04T15:03:06.731Z</time></trkpt><trkpt lat="43.1420833" lon="13.0679"><ele>539.3333333333334</ele><time>2026-04-04T15:03:07.73Z</time></trkpt><trkpt lat="43.1421883" lon="13.0680433"><ele>541.0</ele><time>2026-04-04T15:03:08.727Z</time></trkpt><trkpt lat="43.1423133" lon="13.0682717"><ele>539.5</ele><time>2026-04-04T15:03:09.727Z</time></trkpt><trkpt lat="43.14246" lon="13.068375"><ele>538.0</ele><time>2026-04-04T15:03:10.728Z</time></trkpt><trkpt lat="43.1425783" lon="13.0684283"><ele>536.5</ele><time>2026-04-04T15:03:11.727Z</time></trkpt><trkpt lat="43.1426833" lon="13.068475"><ele>535.0</ele><time>2026-04-04T15:03:12.73Z</time></trkpt><trkpt lat="43.1427483" lon="13.0684933"><ele>535.0</ele><time>2026-04-04T15:03:13.728Z</time></trkpt><trkpt lat="43.142815" lon="13.0685167"><ele>535.0</ele><time>2026-04-04T15:03:14.732Z</time></trkpt><trkpt lat="43.1428767" lon="13.0685367"><ele>535.0</ele><time>2026-04-04T15:03:15.729Z</time></trkpt><trkpt lat="43.1429817" lon="13.0685817"><ele>535.0</ele><time>2026-04-04T15:03:17.726Z</time></trkpt><trkpt lat="43.14304" lon="13.0686167"><ele>535.0</ele><time>2026-04-04T15:03:18.729Z</time></trkpt><trkpt lat="43.1431" lon="13.0686533"><ele>535.0</ele><time>2026-04-04T15:03:19.73Z</time></trkpt><trkpt lat="43.1431617" lon="13.068685"><ele>535.0</ele><time>2026-04-04T15:03:20.73Z</time></trkpt><trkpt lat="43.1432867" lon="13.0686833"><ele>533.3333333333334</ele><time>2026-04-04T15:03:22.728Z</time></trkpt><trkpt lat="43.1433533" lon="13.0686517"><ele>531.6666666666667</ele><time>2026-04-04T15:03:23.727Z</time></trkpt><trkpt lat="43.14343" lon="13.0685983"><ele>530.0</ele><time>2026-04-04T15:03:24.73Z</time></trkpt><trkpt lat="43.143515" lon="13.068555"><ele>528.3333333333334</ele><time>2026-04-04T15:03:25.727Z</time></trkpt><trkpt lat="43.1436017" lon="13.06854"><ele>526.6666666666666</ele><time>2026-04-04T15:03:26.729Z</time></trkpt><trkpt lat="43.14369" lon="13.0685517"><ele>525.0</ele><time>2026-04-04T15:03:27.727Z</time></trkpt><trkpt lat="43.14378" lon="13.0685783"><ele>525.0</ele><time>2026-04-04T15:03:28.728Z</time></trkpt><trkpt lat="43.1438733" lon="13.0686683"><ele>525.0</ele><time>2026-04-04T15:03:29.725Z</time></trkpt><trkpt lat="43.1439417" lon="13.0687983"><ele>525.0</ele><time>2026-04-04T15:03:30.728Z</time></trkpt><trkpt lat="43.1439733" lon="13.0689717"><ele>525.0</ele><time>2026-04-04T15:03:31.729Z</time></trkpt><trkpt lat="43.1439717" lon="13.06916"><ele>526.5</ele><time>2026-04-04T15:03:32.73Z</time></trkpt><trkpt lat="43.1439583" lon="13.0693433"><ele>528.0</ele><time>2026-04-04T15:03:33.727Z</time></trkpt><trkpt lat="43.143945" lon="13.06952"><ele>529.5</ele><time>2026-04-04T15:03:34.727Z</time></trkpt><trkpt lat="43.14394" lon="13.0697067"><ele>531.0</ele><time>2026-04-04T15:03:35.726Z</time></trkpt><trkpt lat="43.1439517" lon="13.069895"><ele>531.25</ele><time>2026-04-04T15:03:36.726Z</time></trkpt><trkpt lat="43.1439833" lon="13.0700733"><ele>531.5</ele><time>2026-04-04T15:03:37.727Z</time></trkpt><trkpt lat="43.1440267" lon="13.0702367"><ele>531.75</ele><time>2026-04-04T15:03:38.728Z</time></trkpt><trkpt lat="43.144095" lon="13.0703717"><ele>532.0</ele><time>2026-04-04T15:03:39.727Z</time></trkpt><trkpt lat="43.1441783" lon="13.07047"><ele>529.6</ele><time>2026-04-04T15:03:40.728Z</time></trkpt><trkpt lat="43.1442717" lon="13.0705233"><ele>527.2</ele><time>2026-04-04T15:03:41.728Z</time></trkpt><trkpt lat="43.1443783" lon="13.0705333"><ele>524.8</ele><time>2026-04-04T15:03:42.728Z</time></trkpt><trkpt lat="43.14448" lon="13.0704883"><ele>522.4</ele><time>2026-04-04T15:03:43.728Z</time></trkpt><trkpt lat="43.1445717" lon="13.0704017"><ele>520.0</ele><time>2026-04-04T15:03:44.729Z</time></trkpt><trkpt lat="43.14464" lon="13.070275"><ele>520.0</ele><time>2026-04-04T15:03:45.726Z</time></trkpt><trkpt lat="43.1446733" lon="13.0701083"><ele>520.0</ele><time>2026-04-04T15:03:46.727Z</time></trkpt><trkpt lat="43.1446717" lon="13.0699283"><ele>520.0</ele><time>2026-04-04T15:03:47.726Z</time></trkpt><trkpt lat="43.14466" lon="13.0697383"><ele>520.0</ele><time>2026-04-04T15:03:48.726Z</time></trkpt><trkpt lat="43.1446633" lon="13.06953"><ele>519.6666666666667</ele><time>2026-04-04T15:03:49.727Z</time></trkpt><trkpt lat="43.144685" lon="13.0693133"><ele>519.3333333333334</ele><time>2026-04-04T15:03:50.726Z</time></trkpt><trkpt lat="43.1447317" lon="13.0691033"><ele>519.0</ele><time>2026-04-04T15:03:51.725Z</time></trkpt><trkpt lat="43.1447967" lon="13.0688967"><ele>517.3333333333334</ele><time>2026-04-04T15:03:52.725Z</time></trkpt><trkpt lat="43.1448767" lon="13.068695"><ele>515.6666666666667</ele><time>2026-04-04T15:03:53.724Z</time></trkpt><trkpt lat="43.1449467" lon="13.068495"><ele>514.0</ele><time>2026-04-04T15:03:54.727Z</time></trkpt><trkpt lat="43.1449867" lon="13.0682883"><ele>510.33333333333337</ele><time>2026-04-04T15:03:55.726Z</time></trkpt><trkpt lat="43.1449917" lon="13.0680717"><ele>506.66666666666663</ele><time>2026-04-04T15:03:56.728Z</time></trkpt><trkpt lat="43.1449767" lon="13.06786"><ele>503.0</ele><time>2026-04-04T15:03:57.727Z</time></trkpt><trkpt lat="43.1449733" lon="13.067655"><ele>503.0</ele><time>2026-04-04T15:03:58.727Z</time></trkpt><trkpt lat="43.1450067" lon="13.0674517"><ele>503.0</ele><time>2026-04-04T15:03:59.727Z</time></trkpt><trkpt lat="43.1450883" lon="13.0672683"><ele>503.0</ele><time>2026-04-04T15:04:00.728Z</time></trkpt><trkpt lat="43.1452017" lon="13.0671233"><ele>503.66666666666663</ele><time>2026-04-04T15:04:01.727Z</time></trkpt><trkpt lat="43.1453417" lon="13.0670233"><ele>504.33333333333337</ele><time>2026-04-04T15:04:02.729Z</time></trkpt><trkpt lat="43.1454867" lon="13.06697"><ele>505.0</ele><time>2026-04-04T15:04:03.727Z</time></trkpt><trkpt lat="43.1456283" lon="13.066935"><ele>502.25</ele><time>2026-04-04T15:04:04.724Z</time></trkpt><trkpt lat="43.1457733" lon="13.0668917"><ele>499.5</ele><time>2026-04-04T15:04:05.729Z</time></trkpt><trkpt lat="43.145915" lon="13.0668433"><ele>496.75</ele><time>2026-04-04T15:04:06.729Z</time></trkpt><trkpt lat="43.14605" lon="13.0667817"><ele>494.0</ele><time>2026-04-04T15:04:07.726Z</time></trkpt><trkpt lat="43.1461767" lon="13.0666933"><ele>494.25</ele><time>2026-04-04T15:04:08.73Z</time></trkpt><trkpt lat="43.146285" lon="13.0665783"><ele>494.5</ele><time>2026-04-04T15:04:09.725Z</time></trkpt><trkpt lat="43.1463833" lon="13.0664517"><ele>494.75</ele><time>2026-04-04T15:04:10.728Z</time></trkpt><trkpt lat="43.1464683" lon="13.0663083"><ele>495.0</ele><time>2026-04-04T15:04:11.73Z</time></trkpt><trkpt lat="43.14654" lon="13.0661633"><ele>493.25</ele><time>2026-04-04T15:04:12.728Z</time></trkpt><trkpt lat="43.1466017" lon="13.0660117"><ele>491.5</ele><time>2026-04-04T15:04:13.727Z</time></trkpt><trkpt lat="43.1466583" lon="13.06586"><ele>489.75</ele><time>2026-04-04T15:04:14.731Z</time></trkpt><trkpt lat="43.1467167" lon="13.06571"><ele>488.0</ele><time>2026-04-04T15:04:15.728Z</time></trkpt><trkpt lat="43.1467783" lon="13.06556"><ele>488.0</ele><time>2026-04-04T15:04:16.729Z</time></trkpt><trkpt lat="43.146855" lon="13.0654183"><ele>488.0</ele><time>2026-04-04T15:04:17.727Z</time></trkpt><trkpt lat="43.1469483" lon="13.065285"><ele>488.0</ele><time>2026-04-04T15:04:18.725Z</time></trkpt><trkpt lat="43.14705" lon="13.06516"><ele>488.0</ele><time>2026-04-04T15:04:19.73Z</time></trkpt><trkpt lat="43.14716" lon="13.0650483"><ele>487.75</ele><time>2026-04-04T15:04:20.729Z</time></trkpt><trkpt lat="43.1472767" lon="13.0649383"><ele>487.5</ele><time>2026-04-04T15:04:21.73Z</time></trkpt><trkpt lat="43.1474" lon="13.064825"><ele>487.25</ele><time>2026-04-04T15:04:22.73Z</time></trkpt><trkpt lat="43.1475317" lon="13.06471"><ele>487.0</ele><time>2026-04-04T15:04:23.733Z</time></trkpt><trkpt lat="43.147665" lon="13.064595"><ele>487.0</ele><time>2026-04-04T15:04:24.726Z</time></trkpt><trkpt lat="43.1478017" lon="13.0644767"><ele>487.0</ele><time>2026-04-04T15:04:25.725Z</time></trkpt><trkpt lat="43.1479383" lon="13.0643567"><ele>487.0</ele><time>2026-04-04T15:04:26.73Z</time></trkpt><trkpt lat="43.1480733" lon="13.06424"><ele>487.0</ele><time>2026-04-04T15:04:27.728Z</time></trkpt><trkpt lat="43.1482017" lon="13.0641233"><ele>487.0</ele><time>2026-04-04T15:04:28.727Z</time></trkpt><trkpt lat="43.1483217" lon="13.0640067"><ele>487.0</ele><time>2026-04-04T15:04:29.727Z</time></trkpt><trkpt lat="43.148445" lon="13.0638883"><ele>484.5</ele><time>2026-04-04T15:04:30.726Z</time></trkpt><trkpt lat="43.14857" lon="13.0637717"><ele>482.0</ele><time>2026-04-04T15:04:31.728Z</time></trkpt><trkpt lat="43.1486917" lon="13.0636583"><ele>479.5</ele><time>2026-04-04T15:04:32.726Z</time></trkpt><trkpt lat="43.1488083" lon="13.0635483"><ele>477.0</ele><time>2026-04-04T15:04:33.726Z</time></trkpt><trkpt lat="43.1489317" lon="13.0634317"><ele>475.0</ele><time>2026-04-04T15:04:34.728Z</time></trkpt><trkpt lat="43.149065" lon="13.063305"><ele>473.0</ele><time>2026-04-04T15:04:35.73Z</time></trkpt><trkpt lat="43.1492017" lon="13.0631683"><ele>471.0</ele><time>2026-04-04T15:04:36.728Z</time></trkpt><trkpt lat="43.1493383" lon="13.063025"><ele>471.0</ele><time>2026-04-04T15:04:37.726Z</time></trkpt><trkpt lat="43.14947" lon="13.0628783"><ele>471.0</ele><time>2026-04-04T15:04:38.73Z</time></trkpt><trkpt lat="43.1495933" lon="13.0627283"><ele>471.0</ele><time>2026-04-04T15:04:39.728Z</time></trkpt><trkpt lat="43.1497083" lon="13.06258"><ele>471.75</ele><time>2026-04-04T15:04:40.729Z</time></trkpt><trkpt lat="43.1498233" lon="13.0624367"><ele>472.5</ele><time>2026-04-04T15:04:41.726Z</time></trkpt><trkpt lat="43.1499317" lon="13.0622983"><ele>473.25</ele><time>2026-04-04T15:04:42.724Z</time></trkpt><trkpt lat="43.1500367" lon="13.06216"><ele>474.0</ele><time>2026-04-04T15:04:43.734Z</time></trkpt><trkpt lat="43.1501433" lon="13.062025"><ele>471.25</ele><time>2026-04-04T15:04:44.729Z</time></trkpt><trkpt lat="43.1502483" lon="13.06189"><ele>468.5</ele><time>2026-04-04T15:04:45.727Z</time></trkpt><trkpt lat="43.1503567" lon="13.0617533"><ele>465.75</ele><time>2026-04-04T15:04:46.727Z</time></trkpt><trkpt lat="43.1504633" lon="13.0616183"><ele>463.0</ele><time>2026-04-04T15:04:47.731Z</time></trkpt><trkpt lat="43.150565" lon="13.0614767"><ele>463.0</ele><time>2026-04-04T15:04:48.729Z</time></trkpt><trkpt lat="43.1506533" lon="13.0613267"><ele>463.0</ele><time>2026-04-04T15:04:49.728Z</time></trkpt><trkpt lat="43.1507267" lon="13.0611683"><ele>463.0</ele><time>2026-04-04T15:04:50.728Z</time></trkpt><trkpt lat="43.1507867" lon="13.0610033"><ele>463.0</ele><time>2026-04-04T15:04:51.727Z</time></trkpt><trkpt lat="43.1508433" lon="13.0608433"><ele>460.5</ele><time>2026-04-04T15:04:52.726Z</time></trkpt><trkpt lat="43.1509033" lon="13.0606883"><ele>458.0</ele><time>2026-04-04T15:04:53.733Z</time></trkpt><trkpt lat="43.1509717" lon="13.0605417"><ele>455.5</ele><time>2026-04-04T15:04:54.733Z</time></trkpt><trkpt lat="43.1510533" lon="13.0604083"><ele>453.0</ele><time>2026-04-04T15:04:55.727Z</time></trkpt><trkpt lat="43.1511533" lon="13.060305"><ele>453.0</ele><time>2026-04-04T15:04:56.73Z</time></trkpt><trkpt lat="43.1512667" lon="13.0602517"><ele>453.0</ele><time>2026-04-04T15:04:57.727Z</time></trkpt><trkpt lat="43.151385" lon="13.06026"><ele>453.0</ele><time>2026-04-04T15:04:58.726Z</time></trkpt><trkpt lat="43.15149" lon="13.060315"><ele>453.0</ele><time>2026-04-04T15:04:59.731Z</time></trkpt><trkpt lat="43.1515683" lon="13.0604133"><ele>450.79999999999995</ele><time>2026-04-04T15:05:00.729Z</time></trkpt><trkpt lat="43.1516267" lon="13.0605383"><ele>448.59999999999997</ele><time>2026-04-04T15:05:01.729Z</time></trkpt><trkpt lat="43.151665" lon="13.06068"><ele>446.40000000000003</ele><time>2026-04-04T15:05:02.73Z</time></trkpt><trkpt lat="43.15167" lon="13.0608233"><ele>444.20000000000005</ele><time>2026-04-04T15:05:03.726Z</time></trkpt><trkpt lat="43.1516567" lon="13.060965"><ele>442.0</ele><time>2026-04-04T15:05:04.727Z</time></trkpt><trkpt lat="43.1516367" lon="13.0611033"><ele>441.8</ele><time>2026-04-04T15:05:05.732Z</time></trkpt><trkpt lat="43.1516117" lon="13.061235"><ele>441.6</ele><time>2026-04-04T15:05:06.73Z</time></trkpt><trkpt lat="43.15159" lon="13.0613583"><ele>441.40000000000003</ele><time>2026-04-04T15:05:07.728Z</time></trkpt><trkpt lat="43.1515667" lon="13.06148"><ele>441.20000000000005</ele><time>2026-04-04T15:05:08.729Z</time></trkpt><trkpt lat="43.1515433" lon="13.0616017"><ele>441.0</ele><time>2026-04-04T15:05:09.726Z</time></trkpt><trkpt lat="43.15152" lon="13.0617283"><ele>443.0</ele><time>2026-04-04T15:05:10.728Z</time></trkpt><trkpt lat="43.1514967" lon="13.0618583"><ele>445.0</ele><time>2026-04-04T15:05:11.728Z</time></trkpt><trkpt lat="43.15148" lon="13.0619967"><ele>447.0</ele><time>2026-04-04T15:05:12.728Z</time></trkpt><trkpt lat="43.15147" lon="13.0621433"><ele>449.0</ele><time>2026-04-04T15:05:13.728Z</time></trkpt><trkpt lat="43.1514683" lon="13.0622917"><ele>451.0</ele><time>2026-04-04T15:05:14.729Z</time></trkpt><trkpt lat="43.1515" lon="13.0624333"><ele>446.75</ele><time>2026-04-04T15:05:15.727Z</time></trkpt><trkpt lat="43.1515683" lon="13.062555"><ele>442.5</ele><time>2026-04-04T15:05:16.725Z</time></trkpt><trkpt lat="43.1516667" lon="13.0626567"><ele>438.25</ele><time>2026-04-04T15:05:17.727Z</time></trkpt><trkpt lat="43.1517833" lon="13.0627167"><ele>434.0</ele><time>2026-04-04T15:05:18.726Z</time></trkpt><trkpt lat="43.1519133" lon="13.0627117"><ele>434.0</ele><time>2026-04-04T15:05:19.726Z</time></trkpt><trkpt lat="43.15205" lon="13.0626517"><ele>434.0</ele><time>2026-04-04T15:05:20.726Z</time></trkpt><trkpt lat="43.1521933" lon="13.0625533"><ele>434.0</ele><time>2026-04-04T15:05:21.725Z</time></trkpt><trkpt lat="43.1523333" lon="13.0624617"><ele>432.25</ele><time>2026-04-04T15:05:22.726Z</time></trkpt><trkpt lat="43.1524683" lon="13.062375"><ele>430.5</ele><time>2026-04-04T15:05:23.727Z</time></trkpt><trkpt lat="43.152595" lon="13.0622967"><ele>428.75</ele><time>2026-04-04T15:05:24.729Z</time></trkpt><trkpt lat="43.1527217" lon="13.062225"><ele>427.0</ele><time>2026-04-04T15:05:25.728Z</time></trkpt><trkpt lat="43.1528433" lon="13.06215"><ele>427.0</ele><time>2026-04-04T15:05:26.729Z</time></trkpt><trkpt lat="43.1529583" lon="13.06207"><ele>427.0</ele><time>2026-04-04T15:05:27.728Z</time></trkpt><trkpt lat="43.1530717" lon="13.0619733"><ele>427.0</ele><time>2026-04-04T15:05:28.725Z</time></trkpt><trkpt lat="43.1531817" lon="13.0618667"><ele>427.0</ele><time>2026-04-04T15:05:29.728Z</time></trkpt><trkpt lat="43.1532767" lon="13.06174"><ele>425.0</ele><time>2026-04-04T15:05:30.728Z</time></trkpt><trkpt lat="43.1533617" lon="13.06159"><ele>423.0</ele><time>2026-04-04T15:05:31.728Z</time></trkpt><trkpt lat="43.153435" lon="13.06142"><ele>421.0</ele><time>2026-04-04T15:05:32.731Z</time></trkpt><trkpt lat="43.1534933" lon="13.0612317"><ele>419.0</ele><time>2026-04-04T15:05:33.726Z</time></trkpt><trkpt lat="43.1535433" lon="13.0610317"><ele>419.0</ele><time>2026-04-04T15:05:34.728Z</time></trkpt><trkpt lat="43.1535967" lon="13.0608333"><ele>419.0</ele><time>2026-04-04T15:05:35.731Z</time></trkpt><trkpt lat="43.153655" lon="13.0606433"><ele>419.0</ele><time>2026-04-04T15:05:36.727Z</time></trkpt><trkpt lat="43.1537233" lon="13.060455"><ele>419.0</ele><time>2026-04-04T15:05:37.721Z</time></trkpt><trkpt lat="43.1538017" lon="13.0602717"><ele>419.0</ele><time>2026-04-04T15:05:38.73Z</time></trkpt><trkpt lat="43.1538883" lon="13.0600883"><ele>419.0</ele><time>2026-04-04T15:05:39.728Z</time></trkpt><trkpt lat="43.153985" lon="13.0599233"><ele>418.25</ele><time>2026-04-04T15:05:40.728Z</time></trkpt><trkpt lat="43.1540883" lon="13.0597883"><ele>417.5</ele><time>2026-04-04T15:05:41.731Z</time></trkpt><trkpt lat="43.154195" lon="13.0596767"><ele>416.75</ele><time>2026-04-04T15:05:42.726Z</time></trkpt><trkpt lat="43.1543033" lon="13.0595917"><ele>416.0</ele><time>2026-04-04T15:05:43.727Z</time></trkpt><trkpt lat="43.154405" lon="13.0595183"><ele>416.0</ele><time>2026-04-04T15:05:44.73Z</time></trkpt><trkpt lat="43.15451" lon="13.0594517"><ele>416.0</ele><time>2026-04-04T15:05:45.728Z</time></trkpt><trkpt lat="43.1546233" lon="13.059395"><ele>416.0</ele><time>2026-04-04T15:05:46.725Z</time></trkpt><trkpt lat="43.1547433" lon="13.0593767"><ele>416.0</ele><time>2026-04-04T15:05:47.73Z</time></trkpt><trkpt lat="43.1548617" lon="13.059415"><ele>414.5</ele><time>2026-04-04T15:05:48.724Z</time></trkpt><trkpt lat="43.15496" lon="13.0595067"><ele>413.0</ele><time>2026-04-04T15:05:49.725Z</time></trkpt><trkpt lat="43.1550367" lon="13.05963"><ele>411.5</ele><time>2026-04-04T15:05:50.726Z</time></trkpt><trkpt lat="43.1550867" lon="13.059785"><ele>410.0</ele><time>2026-04-04T15:05:51.726Z</time></trkpt><trkpt lat="43.155095" lon="13.0599333"><ele>409.8</ele><time>2026-04-04T15:05:52.726Z</time></trkpt><trkpt lat="43.1550733" lon="13.0600683"><ele>409.6</ele><time>2026-04-04T15:05:53.724Z</time></trkpt><trkpt lat="43.155025" lon="13.0602"><ele>409.4</ele><time>2026-04-04T15:05:54.725Z</time></trkpt><trkpt lat="43.1549483" lon="13.0603083"><ele>409.2</ele><time>2026-04-04T15:05:55.726Z</time></trkpt><trkpt lat="43.1548483" lon="13.0603817"><ele>409.0</ele><time>2026-04-04T15:05:56.727Z</time></trkpt><trkpt lat="43.1547533" lon="13.060465"><ele>409.0</ele><time>2026-04-04T15:05:57.727Z</time></trkpt><trkpt lat="43.1546733" lon="13.0605617"><ele>409.0</ele><time>2026-04-04T15:05:58.726Z</time></trkpt><trkpt lat="43.1546017" lon="13.0606717"><ele>409.0</ele><time>2026-04-04T15:05:59.724Z</time></trkpt><trkpt lat="43.1545433" lon="13.0607967"><ele>409.0</ele><time>2026-04-04T15:06:00.725Z</time></trkpt><trkpt lat="43.1545033" lon="13.060935"><ele>409.0</ele><time>2026-04-04T15:06:01.726Z</time></trkpt><trkpt lat="43.15449" lon="13.0610867"><ele>408.6</ele><time>2026-04-04T15:06:02.726Z</time></trkpt><trkpt lat="43.154515" lon="13.0612383"><ele>408.2</ele><time>2026-04-04T15:06:03.726Z</time></trkpt><trkpt lat="43.1545783" lon="13.0613583"><ele>407.8</ele><time>2026-04-04T15:06:04.728Z</time></trkpt><trkpt lat="43.1546583" lon="13.0614383"><ele>407.40000000000003</ele><time>2026-04-04T15:06:05.729Z</time></trkpt><trkpt lat="43.15476" lon="13.0614733"><ele>407.0</ele><time>2026-04-04T15:06:06.725Z</time></trkpt><trkpt lat="43.1548783" lon="13.06147"><ele>404.25</ele><time>2026-04-04T15:06:07.723Z</time></trkpt><trkpt lat="43.1549917" lon="13.06141"><ele>401.5</ele><time>2026-04-04T15:06:08.726Z</time></trkpt><trkpt lat="43.1551017" lon="13.0613067"><ele>398.75</ele><time>2026-04-04T15:06:09.732Z</time></trkpt><trkpt lat="43.1552083" lon="13.061185"><ele>396.0</ele><time>2026-04-04T15:06:10.726Z</time></trkpt><trkpt lat="43.1553217" lon="13.0610683"><ele>396.0</ele><time>2026-04-04T15:06:11.729Z</time></trkpt><trkpt lat="43.155445" lon="13.0609783"><ele>396.0</ele><time>2026-04-04T15:06:12.727Z</time></trkpt><trkpt lat="43.1555767" lon="13.060915"><ele>396.0</ele><time>2026-04-04T15:06:13.724Z</time></trkpt><trkpt lat="43.1557233" lon="13.060895"><ele>396.0</ele><time>2026-04-04T15:06:14.729Z</time></trkpt><trkpt lat="43.15587" lon="13.0609"><ele>394.33333333333337</ele><time>2026-04-04T15:06:15.725Z</time></trkpt><trkpt lat="43.1560133" lon="13.06093"><ele>392.6666666666667</ele><time>2026-04-04T15:06:16.727Z</time></trkpt><trkpt lat="43.1561633" lon="13.0609833"><ele>391.0</ele><time>2026-04-04T15:06:17.727Z</time></trkpt><trkpt lat="43.1563167" lon="13.0610617"><ele>391.0</ele><time>2026-04-04T15:06:18.727Z</time></trkpt><trkpt lat="43.1564667" lon="13.061155"><ele>391.0</ele><time>2026-04-04T15:06:19.728Z</time></trkpt><trkpt lat="43.156615" lon="13.0612483"><ele>391.0</ele><time>2026-04-04T15:06:20.73Z</time></trkpt><trkpt lat="43.156775" lon="13.0613467"><ele>391.33333333333337</ele><time>2026-04-04T15:06:21.73Z</time></trkpt><trkpt lat="43.1569633" lon="13.061465"><ele>391.66666666666663</ele><time>2026-04-04T15:06:22.726Z</time></trkpt><trkpt lat="43.1571533" lon="13.0615917"><ele>392.0</ele><time>2026-04-04T15:06:23.727Z</time></trkpt><trkpt lat="43.15733" lon="13.0617117"><ele>388.66666666666663</ele><time>2026-04-04T15:06:24.727Z</time></trkpt><trkpt lat="43.1574983" lon="13.061815"><ele>385.3333333333333</ele><time>2026-04-04T15:06:25.728Z</time></trkpt><trkpt lat="43.1576617" lon="13.06191"><ele>382.0</ele><time>2026-04-04T15:06:26.728Z</time></trkpt><trkpt lat="43.15782" lon="13.06197"><ele>382.0</ele><time>2026-04-04T15:06:27.726Z</time></trkpt><trkpt lat="43.157985" lon="13.0619983"><ele>382.0</ele><time>2026-04-04T15:06:28.726Z</time></trkpt><trkpt lat="43.1581467" lon="13.0619917"><ele>382.0</ele><time>2026-04-04T15:06:29.728Z</time></trkpt><trkpt lat="43.1583033" lon="13.06196"><ele>380.66666666666663</ele><time>2026-04-04T15:06:30.725Z</time></trkpt><trkpt lat="43.1584583" lon="13.06192"><ele>379.3333333333333</ele><time>2026-04-04T15:06:31.732Z</time></trkpt><trkpt lat="43.15861" lon="13.0618767"><ele>378.0</ele><time>2026-04-04T15:06:32.731Z</time></trkpt><trkpt lat="43.158765" lon="13.0618333"><ele>378.0</ele><time>2026-04-04T15:06:33.727Z</time></trkpt><trkpt lat="43.1589167" lon="13.06179"><ele>378.0</ele><time>2026-04-04T15:06:34.727Z</time></trkpt><trkpt lat="43.1590717" lon="13.061755"><ele>378.0</ele><time>2026-04-04T15:06:35.729Z</time></trkpt><trkpt lat="43.1592333" lon="13.06173"><ele>375.0</ele><time>2026-04-04T15:06:36.726Z</time></trkpt><trkpt lat="43.1593917" lon="13.0617133"><ele>372.0</ele><time>2026-04-04T15:06:37.724Z</time></trkpt><trkpt lat="43.1595483" lon="13.0616983"><ele>369.0</ele><time>2026-04-04T15:06:38.724Z</time></trkpt><trkpt lat="43.159705" lon="13.061685"><ele>369.0</ele><time>2026-04-04T15:06:39.726Z</time></trkpt><trkpt lat="43.1598583" lon="13.061665"><ele>369.0</ele><time>2026-04-04T15:06:40.729Z</time></trkpt><trkpt lat="43.1600067" lon="13.061625"><ele>369.0</ele><time>2026-04-04T15:06:41.729Z</time></trkpt><trkpt lat="43.1601517" lon="13.0615633"><ele>369.0</ele><time>2026-04-04T15:06:42.726Z</time></trkpt><trkpt lat="43.16029" lon="13.0614783"><ele>369.0</ele><time>2026-04-04T15:06:43.73Z</time></trkpt><trkpt lat="43.160425" lon="13.06138"><ele>369.0</ele><time>2026-04-04T15:06:44.73Z</time></trkpt><trkpt lat="43.1605617" lon="13.0612783"><ele>369.0</ele><time>2026-04-04T15:06:45.727Z</time></trkpt><trkpt lat="43.1606983" lon="13.0611783"><ele>369.0</ele><time>2026-04-04T15:06:46.728Z</time></trkpt><trkpt lat="43.1608267" lon="13.0610683"><ele>369.0</ele><time>2026-04-04T15:06:47.727Z</time></trkpt><trkpt lat="43.1609517" lon="13.060945"><ele>368.25</ele><time>2026-04-04T15:06:48.725Z</time></trkpt><trkpt lat="43.1610683" lon="13.0608167"><ele>367.5</ele><time>2026-04-04T15:06:49.724Z</time></trkpt><trkpt lat="43.1611817" lon="13.060685"><ele>366.75</ele><time>2026-04-04T15:06:50.73Z</time></trkpt><trkpt lat="43.16129" lon="13.06056"><ele>366.0</ele><time>2026-04-04T15:06:51.73Z</time></trkpt><trkpt lat="43.161395" lon="13.060435"><ele>366.0</ele><time>2026-04-04T15:06:52.727Z</time></trkpt><trkpt lat="43.1614983" lon="13.0603117"><ele>366.0</ele><time>2026-04-04T15:06:53.726Z</time></trkpt><trkpt lat="43.1616017" lon="13.06019"><ele>366.0</ele><time>2026-04-04T15:06:54.729Z</time></trkpt><trkpt lat="43.1617067" lon="13.0600783"><ele>366.0</ele><time>2026-04-04T15:06:55.729Z</time></trkpt><trkpt lat="43.1618133" lon="13.0599767"><ele>364.0</ele><time>2026-04-04T15:06:56.727Z</time></trkpt><trkpt lat="43.161925" lon="13.0598783"><ele>362.0</ele><time>2026-04-04T15:06:57.724Z</time></trkpt><trkpt lat="43.162045" lon="13.0597833"><ele>360.0</ele><time>2026-04-04T15:06:58.727Z</time></trkpt><trkpt lat="43.1621617" lon="13.05969"><ele>358.0</ele><time>2026-04-04T15:06:59.726Z</time></trkpt><trkpt lat="43.16228" lon="13.0596033"><ele>356.25</ele><time>2026-04-04T15:07:00.725Z</time></trkpt><trkpt lat="43.1624033" lon="13.0595167"><ele>354.5</ele><time>2026-04-04T15:07:01.728Z</time></trkpt><trkpt lat="43.16253" lon="13.05943"><ele>352.75</ele><time>2026-04-04T15:07:02.728Z</time></trkpt><trkpt lat="43.1626583" lon="13.05935"><ele>351.0</ele><time>2026-04-04T15:07:03.727Z</time></trkpt><trkpt lat="43.1627967" lon="13.0592833"><ele>351.0</ele><time>2026-04-04T15:07:04.728Z</time></trkpt><trkpt lat="43.1629317" lon="13.0592317"><ele>351.0</ele><time>2026-04-04T15:07:05.726Z</time></trkpt><trkpt lat="43.1630667" lon="13.0591917"><ele>351.0</ele><time>2026-04-04T15:07:06.73Z</time></trkpt><trkpt lat="43.163195" lon="13.0591517"><ele>351.0</ele><time>2026-04-04T15:07:07.726Z</time></trkpt><trkpt lat="43.163315" lon="13.0591183"><ele>350.5</ele><time>2026-04-04T15:07:08.728Z</time></trkpt><trkpt lat="43.1634283" lon="13.05909"><ele>350.0</ele><time>2026-04-04T15:07:09.729Z</time></trkpt><trkpt lat="43.1635417" lon="13.0590633"><ele>349.5</ele><time>2026-04-04T15:07:10.725Z</time></trkpt><trkpt lat="43.1636567" lon="13.0590333"><ele>349.0</ele><time>2026-04-04T15:07:11.728Z</time></trkpt><trkpt lat="43.163775" lon="13.0589967"><ele>349.0</ele><time>2026-04-04T15:07:12.727Z</time></trkpt><trkpt lat="43.1639017" lon="13.05896"><ele>349.0</ele><time>2026-04-04T15:07:13.728Z</time></trkpt><trkpt lat="43.1640333" lon="13.058925"><ele>349.0</ele><time>2026-04-04T15:07:14.729Z</time></trkpt><trkpt lat="43.1641717" lon="13.0588933"><ele>349.0</ele><time>2026-04-04T15:07:15.726Z</time></trkpt><trkpt lat="43.1643067" lon="13.058855"><ele>347.25</ele><time>2026-04-04T15:07:16.727Z</time></trkpt><trkpt lat="43.1644433" lon="13.0588167"><ele>345.5</ele><time>2026-04-04T15:07:17.727Z</time></trkpt><trkpt lat="43.1645833" lon="13.05878"><ele>343.75</ele><time>2026-04-04T15:07:18.725Z</time></trkpt><trkpt lat="43.1647217" lon="13.0587517"><ele>342.0</ele><time>2026-04-04T15:07:19.733Z</time></trkpt><trkpt lat="43.1648517" lon="13.0587233"><ele>341.75</ele><time>2026-04-04T15:07:20.731Z</time></trkpt><trkpt lat="43.1649817" lon="13.0587183"><ele>341.5</ele><time>2026-04-04T15:07:21.728Z</time></trkpt><trkpt lat="43.165105" lon="13.0587383"><ele>341.25</ele><time>2026-04-04T15:07:22.727Z</time></trkpt><trkpt lat="43.1652183" lon="13.0587667"><ele>341.0</ele><time>2026-04-04T15:07:23.727Z</time></trkpt><trkpt lat="43.1653383" lon="13.0587917"><ele>341.0</ele><time>2026-04-04T15:07:24.728Z</time></trkpt><trkpt lat="43.1654617" lon="13.0588"><ele>341.0</ele><time>2026-04-04T15:07:25.725Z</time></trkpt><trkpt lat="43.1655983" lon="13.0587883"><ele>341.0</ele><time>2026-04-04T15:07:26.729Z</time></trkpt><trkpt lat="43.16573" lon="13.058755"><ele>341.0</ele><time>2026-04-04T15:07:27.731Z</time></trkpt><trkpt lat="43.1658583" lon="13.0586917"><ele>341.5</ele><time>2026-04-04T15:07:28.727Z</time></trkpt><trkpt lat="43.16598" lon="13.0586267"><ele>342.0</ele><time>2026-04-04T15:07:29.723Z</time></trkpt><trkpt lat="43.1661" lon="13.0585617"><ele>342.5</ele><time>2026-04-04T15:07:30.729Z</time></trkpt><trkpt lat="43.1662167" lon="13.0585"><ele>343.0</ele><time>2026-04-04T15:07:31.73Z</time></trkpt><trkpt lat="43.166335" lon="13.0584367"><ele>343.0</ele><time>2026-04-04T15:07:32.732Z</time></trkpt><trkpt lat="43.166455" lon="13.0583683"><ele>343.0</ele><time>2026-04-04T15:07:33.727Z</time></trkpt><trkpt lat="43.166575" lon="13.0583"><ele>343.0</ele><time>2026-04-04T15:07:34.728Z</time></trkpt><trkpt lat="43.1666983" lon="13.0582317"><ele>343.0</ele><time>2026-04-04T15:07:35.729Z</time></trkpt><trkpt lat="43.1668183" lon="13.0581633"><ele>341.75</ele><time>2026-04-04T15:07:36.728Z</time></trkpt><trkpt lat="43.1669483" lon="13.058115"><ele>340.5</ele><time>2026-04-04T15:07:37.723Z</time></trkpt><trkpt lat="43.1670767" lon="13.0580833"><ele>339.25</ele><time>2026-04-04T15:07:38.727Z</time></trkpt><trkpt lat="43.1672083" lon="13.0580667"><ele>338.0</ele><time>2026-04-04T15:07:39.729Z</time></trkpt><trkpt lat="43.1673483" lon="13.0580633"><ele>337.5</ele><time>2026-04-04T15:07:40.727Z</time></trkpt><trkpt lat="43.16749" lon="13.0580533"><ele>337.0</ele><time>2026-04-04T15:07:41.726Z</time></trkpt><trkpt lat="43.1676383" lon="13.05804"><ele>336.5</ele><time>2026-04-04T15:07:42.728Z</time></trkpt><trkpt lat="43.16779" lon="13.0580083"><ele>336.0</ele><time>2026-04-04T15:07:43.725Z</time></trkpt><trkpt lat="43.1679433" lon="13.0579617"><ele>336.0</ele><time>2026-04-04T15:07:44.727Z</time></trkpt><trkpt lat="43.1681017" lon="13.0578883"><ele>336.0</ele><time>2026-04-04T15:07:45.727Z</time></trkpt><trkpt lat="43.1682767" lon="13.0578"><ele>336.0</ele><time>2026-04-04T15:07:46.727Z</time></trkpt><trkpt lat="43.16847" lon="13.0576983"><ele>335.0</ele><time>2026-04-04T15:07:47.729Z</time></trkpt><trkpt lat="43.1686817" lon="13.0575833"><ele>334.0</ele><time>2026-04-04T15:07:48.731Z</time></trkpt><trkpt lat="43.1689217" lon="13.0574583"><ele>334.0</ele><time>2026-04-04T15:07:49.731Z</time></trkpt><trkpt lat="43.1691733" lon="13.0573217"><ele>334.0</ele><time>2026-04-04T15:07:50.731Z</time></trkpt><trkpt lat="43.1694333" lon="13.0571883"><ele>334.0</ele><time>2026-04-04T15:07:51.731Z</time></trkpt><trkpt lat="43.1697" lon="13.0570533"><ele>334.0</ele><time>2026-04-04T15:07:52.728Z</time></trkpt><trkpt lat="43.1699617" lon="13.0569083"><ele>334.0</ele><time>2026-04-04T15:07:53.731Z</time></trkpt><trkpt lat="43.170215" lon="13.0567567"><ele>334.0</ele><time>2026-04-04T15:07:54.727Z</time></trkpt><trkpt lat="43.1704667" lon="13.0566017"><ele>333.5</ele><time>2026-04-04T15:07:55.731Z</time></trkpt><trkpt lat="43.1707233" lon="13.0564433"><ele>333.0</ele><time>2026-04-04T15:07:56.738Z</time></trkpt><trkpt lat="43.17099" lon="13.056285"><ele>333.0</ele><time>2026-04-04T15:07:57.729Z</time></trkpt><trkpt lat="43.17127" lon="13.0561233"><ele>333.0</ele><time>2026-04-04T15:07:58.729Z</time></trkpt><trkpt lat="43.1715467" lon="13.05597"><ele>333.5</ele><time>2026-04-04T15:07:59.736Z</time></trkpt><trkpt lat="43.1718117" lon="13.055835"><ele>334.0</ele><time>2026-04-04T15:08:00.73Z</time></trkpt><trkpt lat="43.1720517" lon="13.0557067"><ele>334.0</ele><time>2026-04-04T15:08:01.729Z</time></trkpt><trkpt lat="43.1722583" lon="13.0555833"><ele>334.0</ele><time>2026-04-04T15:08:02.731Z</time></trkpt><trkpt lat="43.1724467" lon="13.05547"><ele>334.0</ele><time>2026-04-04T15:08:03.729Z</time></trkpt><trkpt lat="43.172625" lon="13.0553517"><ele>334.0</ele><time>2026-04-04T15:08:04.728Z</time></trkpt><trkpt lat="43.172805" lon="13.0552433"><ele>334.0</ele><time>2026-04-04T15:08:05.727Z</time></trkpt><trkpt lat="43.1729967" lon="13.05514"><ele>334.0</ele><time>2026-04-04T15:08:06.726Z</time></trkpt><trkpt lat="43.1731933" lon="13.0550383"><ele>334.66666666666663</ele><time>2026-04-04T15:08:07.728Z</time></trkpt><trkpt lat="43.17339" lon="13.0549433"><ele>335.3333333333333</ele><time>2026-04-04T15:08:08.73Z</time></trkpt><trkpt lat="43.1735933" lon="13.054865"><ele>336.0</ele><time>2026-04-04T15:08:09.732Z</time></trkpt><trkpt lat="43.1738033" lon="13.0548083"><ele>336.0</ele><time>2026-04-04T15:08:10.726Z</time></trkpt><trkpt lat="43.1740183" lon="13.0547717"><ele>336.0</ele><time>2026-04-04T15:08:11.73Z</time></trkpt><trkpt lat="43.17424" lon="13.0547483"><ele>336.0</ele><time>2026-04-04T15:08:12.728Z</time></trkpt><trkpt lat="43.1744667" lon="13.054725"><ele>334.0</ele><time>2026-04-04T15:08:13.729Z</time></trkpt><trkpt lat="43.1746983" lon="13.054695"><ele>332.0</ele><time>2026-04-04T15:08:14.73Z</time></trkpt><trkpt lat="43.174935" lon="13.0546617"><ele>330.5</ele><time>2026-04-04T15:08:15.728Z</time></trkpt><trkpt lat="43.1751683" lon="13.0546267"><ele>329.0</ele><time>2026-04-04T15:08:16.729Z</time></trkpt><trkpt lat="43.1754017" lon="13.05459"><ele>329.0</ele><time>2026-04-04T15:08:17.729Z</time></trkpt><trkpt lat="43.1756333" lon="13.054555"><ele>329.0</ele><time>2026-04-04T15:08:18.726Z</time></trkpt><trkpt lat="43.1758617" lon="13.05452"><ele>330.5</ele><time>2026-04-04T15:08:19.729Z</time></trkpt><trkpt lat="43.17609" lon="13.054485"><ele>332.0</ele><time>2026-04-04T15:08:20.732Z</time></trkpt><trkpt lat="43.1763183" lon="13.0544517"><ele>332.5</ele><time>2026-04-04T15:08:21.728Z</time></trkpt><trkpt lat="43.1765467" lon="13.0544183"><ele>333.0</ele><time>2026-04-04T15:08:22.73Z</time></trkpt><trkpt lat="43.1767767" lon="13.0543867"><ele>333.0</ele><time>2026-04-04T15:08:23.73Z</time></trkpt><trkpt lat="43.1770083" lon="13.0543533"><ele>333.0</ele><time>2026-04-04T15:08:24.73Z</time></trkpt><trkpt lat="43.1772383" lon="13.0543217"><ele>333.5</ele><time>2026-04-04T15:08:25.729Z</time></trkpt><trkpt lat="43.17747" lon="13.05429"><ele>334.0</ele><time>2026-04-04T15:08:26.73Z</time></trkpt><trkpt lat="43.1777017" lon="13.0542617"><ele>334.0</ele><time>2026-04-04T15:08:27.728Z</time></trkpt><trkpt lat="43.1779333" lon="13.054235"><ele>334.0</ele><time>2026-04-04T15:08:28.728Z</time></trkpt><trkpt lat="43.1781717" lon="13.0542083"><ele>335.0</ele><time>2026-04-04T15:08:29.728Z</time></trkpt><trkpt lat="43.1784083" lon="13.05418"><ele>336.0</ele><time>2026-04-04T15:08:30.731Z</time></trkpt><trkpt lat="43.1786417" lon="13.0541467"><ele>339.0</ele><time>2026-04-04T15:08:31.732Z</time></trkpt><trkpt lat="43.178875" lon="13.054115"><ele>342.0</ele><time>2026-04-04T15:08:32.732Z</time></trkpt><trkpt lat="43.17911" lon="13.0540917"><ele>342.5</ele><time>2026-04-04T15:08:33.728Z</time></trkpt><trkpt lat="43.17935" lon="13.0540767"><ele>343.0</ele><time>2026-04-04T15:08:34.726Z</time></trkpt><trkpt lat="43.1795883" lon="13.0540783"><ele>343.0</ele><time>2026-04-04T15:08:35.727Z</time></trkpt><trkpt lat="43.17982" lon="13.0540933"><ele>343.0</ele><time>2026-04-04T15:08:36.728Z</time></trkpt><trkpt lat="43.180045" lon="13.054115"><ele>340.3333333333333</ele><time>2026-04-04T15:08:37.73Z</time></trkpt><trkpt lat="43.18026" lon="13.05414"><ele>337.6666666666667</ele><time>2026-04-04T15:08:38.732Z</time></trkpt><trkpt lat="43.180465" lon="13.05416"><ele>335.0</ele><time>2026-04-04T15:08:39.731Z</time></trkpt><trkpt lat="43.180675" lon="13.0541817"><ele>334.33333333333337</ele><time>2026-04-04T15:08:40.726Z</time></trkpt><trkpt lat="43.1808933" lon="13.05421"><ele>333.6666666666667</ele><time>2026-04-04T15:08:41.73Z</time></trkpt><trkpt lat="43.1811217" lon="13.0542467"><ele>333.0</ele><time>2026-04-04T15:08:42.733Z</time></trkpt><trkpt lat="43.1813517" lon="13.0542917"><ele>334.5</ele><time>2026-04-04T15:08:43.728Z</time></trkpt><trkpt lat="43.1815833" lon="13.0543483"><ele>336.0</ele><time>2026-04-04T15:08:44.73Z</time></trkpt><trkpt lat="43.1818117" lon="13.054415"><ele>336.0</ele><time>2026-04-04T15:08:45.729Z</time></trkpt><trkpt lat="43.182035" lon="13.0545"><ele>336.0</ele><time>2026-04-04T15:08:46.727Z</time></trkpt><trkpt lat="43.1822483" lon="13.0546067"><ele>338.0</ele><time>2026-04-04T15:08:47.729Z</time></trkpt><trkpt lat="43.18245" lon="13.0547183"><ele>340.0</ele><time>2026-04-04T15:08:48.73Z</time></trkpt><trkpt lat="43.18265" lon="13.0548333"><ele>342.0</ele><time>2026-04-04T15:08:49.73Z</time></trkpt><trkpt lat="43.182855" lon="13.0549467"><ele>340.0</ele><time>2026-04-04T15:08:50.727Z</time></trkpt><trkpt lat="43.1830567" lon="13.05506"><ele>338.0</ele><time>2026-04-04T15:08:51.727Z</time></trkpt><trkpt lat="43.183255" lon="13.05517"><ele>336.0</ele><time>2026-04-04T15:08:52.728Z</time></trkpt><trkpt lat="43.18345" lon="13.0552767"><ele>336.0</ele><time>2026-04-04T15:08:53.729Z</time></trkpt><trkpt lat="43.1836433" lon="13.05538"><ele>336.0</ele><time>2026-04-04T15:08:54.726Z</time></trkpt><trkpt lat="43.18384" lon="13.0554717"><ele>336.0</ele><time>2026-04-04T15:08:55.729Z</time></trkpt><trkpt lat="43.1840383" lon="13.05554"><ele>339.6666666666667</ele><time>2026-04-04T15:08:56.728Z</time></trkpt><trkpt lat="43.184245" lon="13.05557"><ele>343.33333333333337</ele><time>2026-04-04T15:08:57.726Z</time></trkpt><trkpt lat="43.184445" lon="13.05556"><ele>347.0</ele><time>2026-04-04T15:08:58.728Z</time></trkpt><trkpt lat="43.1846433" lon="13.0555317"><ele>347.0</ele><time>2026-04-04T15:08:59.73Z</time></trkpt><trkpt lat="43.18484" lon="13.0554933"><ele>347.0</ele><time>2026-04-04T15:09:00.729Z</time></trkpt><trkpt lat="43.18504" lon="13.055445"><ele>347.0</ele><time>2026-04-04T15:09:01.731Z</time></trkpt><trkpt lat="43.18524" lon="13.0553983"><ele>346.6666666666667</ele><time>2026-04-04T15:09:02.731Z</time></trkpt><trkpt lat="43.1854383" lon="13.055355"><ele>346.3333333333333</ele><time>2026-04-04T15:09:03.731Z</time></trkpt><trkpt lat="43.1856317" lon="13.055315"><ele>346.0</ele><time>2026-04-04T15:09:04.727Z</time></trkpt><trkpt lat="43.1858283" lon="13.0552717"><ele>344.0</ele><time>2026-04-04T15:09:05.729Z</time></trkpt><trkpt lat="43.1860217" lon="13.0552067"><ele>342.0</ele><time>2026-04-04T15:09:06.728Z</time></trkpt><trkpt lat="43.186225" lon="13.0551583"><ele>340.0</ele><time>2026-04-04T15:09:07.73Z</time></trkpt><trkpt lat="43.18643" lon="13.0551083"><ele>341.0</ele><time>2026-04-04T15:09:08.728Z</time></trkpt><trkpt lat="43.186635" lon="13.0550633"><ele>342.0</ele><time>2026-04-04T15:09:09.729Z</time></trkpt><trkpt lat="43.1868383" lon="13.05503"><ele>343.0</ele><time>2026-04-04T15:09:10.731Z</time></trkpt><trkpt lat="43.1870367" lon="13.0549883"><ele>346.66666666666663</ele><time>2026-04-04T15:09:11.729Z</time></trkpt><trkpt lat="43.1872383" lon="13.054945"><ele>350.3333333333333</ele><time>2026-04-04T15:09:12.729Z</time></trkpt><trkpt lat="43.1874467" lon="13.0549017"><ele>354.0</ele><time>2026-04-04T15:09:13.729Z</time></trkpt><trkpt lat="43.1876533" lon="13.0548583"><ele>354.0</ele><time>2026-04-04T15:09:14.731Z</time></trkpt><trkpt lat="43.18786" lon="13.0548283"><ele>354.0</ele><time>2026-04-04T15:09:15.727Z</time></trkpt><trkpt lat="43.1880733" lon="13.0547883"><ele>354.0</ele><time>2026-04-04T15:09:16.726Z</time></trkpt><trkpt lat="43.1882967" lon="13.05476"><ele>353.3333333333333</ele><time>2026-04-04T15:09:17.73Z</time></trkpt><trkpt lat="43.1885183" lon="13.0547333"><ele>352.66666666666663</ele><time>2026-04-04T15:09:18.727Z</time></trkpt><trkpt lat="43.188735" lon="13.054705"><ele>352.0</ele><time>2026-04-04T15:09:19.725Z</time></trkpt><trkpt lat="43.1889483" lon="13.0546783"><ele>348.0</ele><time>2026-04-04T15:09:20.726Z</time></trkpt><trkpt lat="43.1891617" lon="13.054635"><ele>344.0</ele><time>2026-04-04T15:09:21.727Z</time></trkpt><trkpt lat="43.1893717" lon="13.0546083"><ele>340.0</ele><time>2026-04-04T15:09:22.728Z</time></trkpt><trkpt lat="43.1895833" lon="13.054555"><ele>340.0</ele><time>2026-04-04T15:09:23.727Z</time></trkpt><trkpt lat="43.1897883" lon="13.0544933"><ele>340.0</ele><time>2026-04-04T15:09:24.73Z</time></trkpt><trkpt lat="43.1899967" lon="13.0544483"><ele>340.0</ele><time>2026-04-04T15:09:25.729Z</time></trkpt><trkpt lat="43.19021" lon="13.0544"><ele>337.0</ele><time>2026-04-04T15:09:26.729Z</time></trkpt><trkpt lat="43.190415" lon="13.0543567"><ele>334.0</ele><time>2026-04-04T15:09:27.727Z</time></trkpt><trkpt lat="43.19062" lon="13.0543117"><ele>331.0</ele><time>2026-04-04T15:09:28.727Z</time></trkpt><trkpt lat="43.1908167" lon="13.0542667"><ele>329.0</ele><time>2026-04-04T15:09:29.73Z</time></trkpt><trkpt lat="43.19101" lon="13.0542167"><ele>327.0</ele><time>2026-04-04T15:09:30.732Z</time></trkpt><trkpt lat="43.1912083" lon="13.0541617"><ele>325.0</ele><time>2026-04-04T15:09:31.729Z</time></trkpt><trkpt lat="43.1914" lon="13.05408"><ele>324.0</ele><time>2026-04-04T15:09:32.73Z</time></trkpt><trkpt lat="43.1915967" lon="13.05398"><ele>323.0</ele><time>2026-04-04T15:09:33.728Z</time></trkpt><trkpt lat="43.191785" lon="13.05386"><ele>322.0</ele><time>2026-04-04T15:09:34.726Z</time></trkpt><trkpt lat="43.1919617" lon="13.0537367"><ele>322.0</ele><time>2026-04-04T15:09:35.729Z</time></trkpt><trkpt lat="43.1921317" lon="13.05362"><ele>322.0</ele><time>2026-04-04T15:09:36.729Z</time></trkpt><trkpt lat="43.1922983" lon="13.0535033"><ele>322.0</ele><time>2026-04-04T15:09:37.73Z</time></trkpt><trkpt lat="43.192465" lon="13.0533833"><ele>322.0</ele><time>2026-04-04T15:09:38.729Z</time></trkpt><trkpt lat="43.1926283" lon="13.05327"><ele>322.0</ele><time>2026-04-04T15:09:39.727Z</time></trkpt><trkpt lat="43.1927933" lon="13.0531567"><ele>322.0</ele><time>2026-04-04T15:09:40.729Z</time></trkpt><trkpt lat="43.19296" lon="13.0530417"><ele>322.0</ele><time>2026-04-04T15:09:41.728Z</time></trkpt><trkpt lat="43.193125" lon="13.0529267"><ele>322.0</ele><time>2026-04-04T15:09:42.732Z</time></trkpt><trkpt lat="43.193285" lon="13.0528167"><ele>322.0</ele><time>2026-04-04T15:09:43.727Z</time></trkpt><trkpt lat="43.1934417" lon="13.0527117"><ele>322.0</ele><time>2026-04-04T15:09:44.728Z</time></trkpt><trkpt lat="43.1936017" lon="13.052605"><ele>322.0</ele><time>2026-04-04T15:09:45.729Z</time></trkpt><trkpt lat="43.1937633" lon="13.0525"><ele>322.0</ele><time>2026-04-04T15:09:46.727Z</time></trkpt><trkpt lat="43.1939217" lon="13.0523967"><ele>321.0</ele><time>2026-04-04T15:09:47.727Z</time></trkpt><trkpt lat="43.1940767" lon="13.0522967"><ele>320.0</ele><time>2026-04-04T15:09:48.727Z</time></trkpt><trkpt lat="43.1942333" lon="13.052195"><ele>319.0</ele><time>2026-04-04T15:09:49.728Z</time></trkpt><trkpt lat="43.194385" lon="13.0520917"><ele>319.0</ele><time>2026-04-04T15:09:50.729Z</time></trkpt><trkpt lat="43.1945333" lon="13.051985"><ele>319.0</ele><time>2026-04-04T15:09:51.728Z</time></trkpt><trkpt lat="43.1946767" lon="13.0518783"><ele>319.0</ele><time>2026-04-04T15:09:52.727Z</time></trkpt><trkpt lat="43.1948167" lon="13.051765"><ele>318.3333333333333</ele><time>2026-04-04T15:09:53.725Z</time></trkpt><trkpt lat="43.1949533" lon="13.05164"><ele>317.6666666666667</ele><time>2026-04-04T15:09:54.727Z</time></trkpt><trkpt lat="43.1950883" lon="13.0515017"><ele>317.0</ele><time>2026-04-04T15:09:55.724Z</time></trkpt><trkpt lat="43.1952217" lon="13.0513633"><ele>316.33333333333337</ele><time>2026-04-04T15:09:56.728Z</time></trkpt><trkpt lat="43.195355" lon="13.0512317"><ele>315.6666666666667</ele><time>2026-04-04T15:09:57.729Z</time></trkpt><trkpt lat="43.19549" lon="13.0511067"><ele>315.0</ele><time>2026-04-04T15:09:58.726Z</time></trkpt><trkpt lat="43.1956283" lon="13.0509817"><ele>314.0</ele><time>2026-04-04T15:09:59.728Z</time></trkpt><trkpt lat="43.195765" lon="13.0508733"><ele>313.0</ele><time>2026-04-04T15:10:00.728Z</time></trkpt><trkpt lat="43.1959" lon="13.05078"><ele>312.0</ele><time>2026-04-04T15:10:01.728Z</time></trkpt><trkpt lat="43.1960267" lon="13.0506983"><ele>311.0</ele><time>2026-04-04T15:10:02.728Z</time></trkpt><trkpt lat="43.196145" lon="13.05063"><ele>311.0</ele><time>2026-04-04T15:10:03.726Z</time></trkpt><trkpt lat="43.1962433" lon="13.0505667"><ele>311.0</ele><time>2026-04-04T15:10:04.728Z</time></trkpt><trkpt lat="43.1963317" lon="13.05052"><ele>311.0</ele><time>2026-04-04T15:10:05.725Z</time></trkpt><trkpt lat="43.1964133" lon="13.0504783"><ele>311.0</ele><time>2026-04-04T15:10:06.724Z</time></trkpt><trkpt lat="43.19649" lon="13.0504433"><ele>311.0</ele><time>2026-04-04T15:10:07.727Z</time></trkpt><trkpt lat="43.196565" lon="13.0504067"><ele>310.6666666666667</ele><time>2026-04-04T15:10:08.734Z</time></trkpt><trkpt lat="43.1966417" lon="13.0503783"><ele>310.33333333333337</ele><time>2026-04-04T15:10:09.727Z</time></trkpt><trkpt lat="43.1967217" lon="13.05036"><ele>310.0</ele><time>2026-04-04T15:10:10.729Z</time></trkpt><trkpt lat="43.1968017" lon="13.0503617"><ele>309.6666666666667</ele><time>2026-04-04T15:10:11.725Z</time></trkpt><trkpt lat="43.1968783" lon="13.0503883"><ele>309.3333333333333</ele><time>2026-04-04T15:10:12.725Z</time></trkpt><trkpt lat="43.1969633" lon="13.05041"><ele>309.0</ele><time>2026-04-04T15:10:13.724Z</time></trkpt><trkpt lat="43.1970583" lon="13.0504067"><ele>309.0</ele><time>2026-04-04T15:10:14.73Z</time></trkpt><trkpt lat="43.19716" lon="13.050365"><ele>309.0</ele><time>2026-04-04T15:10:15.726Z</time></trkpt><trkpt lat="43.1972583" lon="13.05034"><ele>309.0</ele><time>2026-04-04T15:10:16.731Z</time></trkpt><trkpt lat="43.1973517" lon="13.0503417"><ele>309.0</ele><time>2026-04-04T15:10:17.73Z</time></trkpt><trkpt lat="43.1974417" lon="13.0503733"><ele>309.0</ele><time>2026-04-04T15:10:18.728Z</time></trkpt><trkpt lat="43.1975333" lon="13.0504317"><ele>309.25</ele><time>2026-04-04T15:10:19.726Z</time></trkpt><trkpt lat="43.1976233" lon="13.0505117"><ele>309.5</ele><time>2026-04-04T15:10:20.726Z</time></trkpt><trkpt lat="43.1977117" lon="13.0506"><ele>309.75</ele><time>2026-04-04T15:10:21.728Z</time></trkpt><trkpt lat="43.1978" lon="13.0506933"><ele>310.0</ele><time>2026-04-04T15:10:22.726Z</time></trkpt><trkpt lat="43.197895" lon="13.0507983"><ele>309.25</ele><time>2026-04-04T15:10:23.728Z</time></trkpt><trkpt lat="43.1979917" lon="13.05091"><ele>308.5</ele><time>2026-04-04T15:10:24.728Z</time></trkpt><trkpt lat="43.19809" lon="13.0510183"><ele>307.75</ele><time>2026-04-04T15:10:25.727Z</time></trkpt><trkpt lat="43.19819" lon="13.05113"><ele>307.0</ele><time>2026-04-04T15:10:26.728Z</time></trkpt><trkpt lat="43.1982917" lon="13.0512383"><ele>306.75</ele><time>2026-04-04T15:10:27.729Z</time></trkpt><trkpt lat="43.1983917" lon="13.0513517"><ele>306.5</ele><time>2026-04-04T15:10:28.728Z</time></trkpt><trkpt lat="43.1984917" lon="13.0514667"><ele>306.25</ele><time>2026-04-04T15:10:29.726Z</time></trkpt><trkpt lat="43.1985933" lon="13.0515783"><ele>306.0</ele><time>2026-04-04T15:10:30.727Z</time></trkpt><trkpt lat="43.1986933" lon="13.05169"><ele>306.5</ele><time>2026-04-04T15:10:31.726Z</time></trkpt><trkpt lat="43.198795" lon="13.0517983"><ele>307.0</ele><time>2026-04-04T15:10:32.727Z</time></trkpt><trkpt lat="43.1988983" lon="13.051905"><ele>307.5</ele><time>2026-04-04T15:10:33.726Z</time></trkpt><trkpt lat="43.1989983" lon="13.052015"><ele>308.0</ele><time>2026-04-04T15:10:34.724Z</time></trkpt><trkpt lat="43.1990983" lon="13.05213"><ele>308.5</ele><time>2026-04-04T15:10:35.726Z</time></trkpt><trkpt lat="43.1992033" lon="13.0522483"><ele>309.0</ele><time>2026-04-04T15:10:36.729Z</time></trkpt><trkpt lat="43.1993067" lon="13.0523683"><ele>309.5</ele><time>2026-04-04T15:10:37.725Z</time></trkpt><trkpt lat="43.1994117" lon="13.0524867"><ele>310.0</ele><time>2026-04-04T15:10:38.73Z</time></trkpt><trkpt lat="43.1995167" lon="13.05261"><ele>310.75</ele><time>2026-04-04T15:10:39.728Z</time></trkpt><trkpt lat="43.1996267" lon="13.052735"><ele>311.5</ele><time>2026-04-04T15:10:40.729Z</time></trkpt><trkpt lat="43.199745" lon="13.052855"><ele>312.25</ele><time>2026-04-04T15:10:41.724Z</time></trkpt><trkpt lat="43.1998567" lon="13.0529683"><ele>313.0</ele><time>2026-04-04T15:10:42.725Z</time></trkpt><trkpt lat="43.1999667" lon="13.0530733"><ele>313.0</ele><time>2026-04-04T15:10:43.728Z</time></trkpt><trkpt lat="43.2000833" lon="13.0531717"><ele>313.0</ele><time>2026-04-04T15:10:44.731Z</time></trkpt><trkpt lat="43.2001967" lon="13.0532583"><ele>313.0</ele><time>2026-04-04T15:10:45.728Z</time></trkpt><trkpt lat="43.200315" lon="13.05334"><ele>313.0</ele><time>2026-04-04T15:10:46.73Z</time></trkpt><trkpt lat="43.200435" lon="13.0534233"><ele>313.25</ele><time>2026-04-04T15:10:47.727Z</time></trkpt><trkpt lat="43.20055" lon="13.0535033"><ele>313.5</ele><time>2026-04-04T15:10:48.728Z</time></trkpt><trkpt lat="43.2006683" lon="13.0535783"><ele>313.75</ele><time>2026-04-04T15:10:49.728Z</time></trkpt><trkpt lat="43.2007883" lon="13.053655"><ele>314.0</ele><time>2026-04-04T15:10:50.73Z</time></trkpt><trkpt lat="43.20091" lon="13.0537367"><ele>314.0</ele><time>2026-04-04T15:10:51.727Z</time></trkpt><trkpt lat="43.2010317" lon="13.0538283"><ele>314.0</ele><time>2026-04-04T15:10:52.727Z</time></trkpt><trkpt lat="43.2011533" lon="13.0539183"><ele>314.0</ele><time>2026-04-04T15:10:53.727Z</time></trkpt><trkpt lat="43.2012717" lon="13.054"><ele>314.0</ele><time>2026-04-04T15:10:54.729Z</time></trkpt><trkpt lat="43.2013917" lon="13.05408"><ele>313.5</ele><time>2026-04-04T15:10:55.727Z</time></trkpt><trkpt lat="43.2015133" lon="13.0541667"><ele>313.0</ele><time>2026-04-04T15:10:56.727Z</time></trkpt><trkpt lat="43.2016417" lon="13.05425"><ele>312.5</ele><time>2026-04-04T15:10:57.727Z</time></trkpt><trkpt lat="43.201775" lon="13.05433"><ele>312.0</ele><time>2026-04-04T15:10:58.726Z</time></trkpt><trkpt lat="43.2019117" lon="13.0543867"><ele>312.0</ele><time>2026-04-04T15:10:59.727Z</time></trkpt><trkpt lat="43.2020517" lon="13.0544283"><ele>312.0</ele><time>2026-04-04T15:11:00.728Z</time></trkpt><trkpt lat="43.2021883" lon="13.0544467"><ele>312.0</ele><time>2026-04-04T15:11:01.728Z</time></trkpt><trkpt lat="43.202315" lon="13.054455"><ele>312.0</ele><time>2026-04-04T15:11:02.728Z</time></trkpt><trkpt lat="43.2024383" lon="13.054465"><ele>314.0</ele><time>2026-04-04T15:11:03.727Z</time></trkpt><trkpt lat="43.2025617" lon="13.0544683"><ele>316.0</ele><time>2026-04-04T15:11:04.725Z</time></trkpt><trkpt lat="43.20268" lon="13.054465"><ele>318.0</ele><time>2026-04-04T15:11:05.728Z</time></trkpt><trkpt lat="43.2027983" lon="13.054455"><ele>320.0</ele><time>2026-04-04T15:11:06.727Z</time></trkpt><trkpt lat="43.2029133" lon="13.0544383"><ele>320.0</ele><time>2026-04-04T15:11:07.728Z</time></trkpt><trkpt lat="43.203025" lon="13.0544183"><ele>320.0</ele><time>2026-04-04T15:11:08.729Z</time></trkpt><trkpt lat="43.2031417" lon="13.0544"><ele>320.0</ele><time>2026-04-04T15:11:09.728Z</time></trkpt><trkpt lat="43.2032667" lon="13.0543783"><ele>320.0</ele><time>2026-04-04T15:11:10.73Z</time></trkpt><trkpt lat="43.203405" lon="13.0543717"><ele>319.33333333333337</ele><time>2026-04-04T15:11:11.729Z</time></trkpt><trkpt lat="43.2035567" lon="13.0543767"><ele>318.6666666666667</ele><time>2026-04-04T15:11:12.728Z</time></trkpt><trkpt lat="43.20372" lon="13.0543933"><ele>318.0</ele><time>2026-04-04T15:11:13.727Z</time></trkpt><trkpt lat="43.2038717" lon="13.0544067"><ele>318.25</ele><time>2026-04-04T15:11:14.726Z</time></trkpt><trkpt lat="43.2040067" lon="13.054405"><ele>318.5</ele><time>2026-04-04T15:11:15.727Z</time></trkpt><trkpt lat="43.2041467" lon="13.054405"><ele>318.75</ele><time>2026-04-04T15:11:16.728Z</time></trkpt><trkpt lat="43.204275" lon="13.0544033"><ele>319.0</ele><time>2026-04-04T15:11:17.726Z</time></trkpt><trkpt lat="43.2043983" lon="13.0544017"><ele>319.0</ele><time>2026-04-04T15:11:18.726Z</time></trkpt><trkpt lat="43.204525" lon="13.0544033"><ele>319.0</ele><time>2026-04-04T15:11:19.727Z</time></trkpt><trkpt lat="43.204655" lon="13.054405"><ele>319.0</ele><time>2026-04-04T15:11:20.728Z</time></trkpt><trkpt lat="43.2047867" lon="13.054405"><ele>319.0</ele><time>2026-04-04T15:11:21.725Z</time></trkpt><trkpt lat="43.204915" lon="13.0544033"><ele>319.25</ele><time>2026-04-04T15:11:22.726Z</time></trkpt><trkpt lat="43.2050333" lon="13.0544"><ele>319.5</ele><time>2026-04-04T15:11:23.725Z</time></trkpt><trkpt lat="43.205155" lon="13.0543983"><ele>319.75</ele><time>2026-04-04T15:11:24.73Z</time></trkpt><trkpt lat="43.20527" lon="13.0543983"><ele>320.0</ele><time>2026-04-04T15:11:25.729Z</time></trkpt><trkpt lat="43.2053933" lon="13.054395"><ele>320.0</ele><time>2026-04-04T15:11:26.732Z</time></trkpt><trkpt lat="43.2055167" lon="13.0543917"><ele>320.0</ele><time>2026-04-04T15:11:27.727Z</time></trkpt><trkpt lat="43.20564" lon="13.0543917"><ele>320.0</ele><time>2026-04-04T15:11:28.727Z</time></trkpt><trkpt lat="43.2057683" lon="13.054385"><ele>320.0</ele><time>2026-04-04T15:11:29.729Z</time></trkpt><trkpt lat="43.2058983" lon="13.054385"><ele>319.5</ele><time>2026-04-04T15:11:30.728Z</time></trkpt><trkpt lat="43.2060233" lon="13.05438"><ele>319.0</ele><time>2026-04-04T15:11:31.731Z</time></trkpt><trkpt lat="43.2061483" lon="13.0543833"><ele>318.5</ele><time>2026-04-04T15:11:32.731Z</time></trkpt><trkpt lat="43.2062617" lon="13.0543783"><ele>318.0</ele><time>2026-04-04T15:11:33.726Z</time></trkpt><trkpt lat="43.2063817" lon="13.05437"><ele>317.5</ele><time>2026-04-04T15:11:34.727Z</time></trkpt><trkpt lat="43.206505" lon="13.05435"><ele>317.0</ele><time>2026-04-04T15:11:35.729Z</time></trkpt><trkpt lat="43.2066283" lon="13.0543267"><ele>316.5</ele><time>2026-04-04T15:11:36.729Z</time></trkpt><trkpt lat="43.206745" lon="13.0542933"><ele>316.0</ele><time>2026-04-04T15:11:37.729Z</time></trkpt><trkpt lat="43.2068617" lon="13.0542533"><ele>316.0</ele><time>2026-04-04T15:11:38.729Z</time></trkpt><trkpt lat="43.2069767" lon="13.0542"><ele>316.0</ele><time>2026-04-04T15:11:39.728Z</time></trkpt><trkpt lat="43.2070833" lon="13.0541367"><ele>316.0</ele><time>2026-04-04T15:11:40.726Z</time></trkpt><trkpt lat="43.207185" lon="13.0540633"><ele>316.0</ele><time>2026-04-04T15:11:41.728Z</time></trkpt><trkpt lat="43.207275" lon="13.0539733"><ele>315.5</ele><time>2026-04-04T15:11:42.727Z</time></trkpt><trkpt lat="43.2073617" lon="13.0538633"><ele>315.0</ele><time>2026-04-04T15:11:43.726Z</time></trkpt><trkpt lat="43.2074383" lon="13.0537383"><ele>314.5</ele><time>2026-04-04T15:11:44.726Z</time></trkpt><trkpt lat="43.20752" lon="13.053605"><ele>314.0</ele><time>2026-04-04T15:11:45.726Z</time></trkpt><trkpt lat="43.207605" lon="13.053455"><ele>314.0</ele><time>2026-04-04T15:11:46.726Z</time></trkpt><trkpt lat="43.2076817" lon="13.0533017"><ele>314.0</ele><time>2026-04-04T15:11:47.73Z</time></trkpt><trkpt lat="43.2077483" lon="13.0531517"><ele>314.0</ele><time>2026-04-04T15:11:48.725Z</time></trkpt><trkpt lat="43.20781" lon="13.0529983"><ele>314.0</ele><time>2026-04-04T15:11:49.73Z</time></trkpt><trkpt lat="43.20787" lon="13.0528383"><ele>314.0</ele><time>2026-04-04T15:11:50.729Z</time></trkpt><trkpt lat="43.2079283" lon="13.0526867"><ele>314.0</ele><time>2026-04-04T15:11:51.725Z</time></trkpt><trkpt lat="43.2079817" lon="13.05255"><ele>314.0</ele><time>2026-04-04T15:11:52.729Z</time></trkpt><trkpt lat="43.20803" lon="13.05243"><ele>314.0</ele><time>2026-04-04T15:11:53.726Z</time></trkpt><trkpt lat="43.2080717" lon="13.0523217"><ele>314.0</ele><time>2026-04-04T15:11:54.727Z</time></trkpt><trkpt lat="43.20811" lon="13.052225"><ele>313.6666666666667</ele><time>2026-04-04T15:11:55.726Z</time></trkpt><trkpt lat="43.20815" lon="13.0521283"><ele>313.33333333333337</ele><time>2026-04-04T15:11:56.73Z</time></trkpt><trkpt lat="43.20819" lon="13.0520233"><ele>313.0</ele><time>2026-04-04T15:11:57.729Z</time></trkpt><trkpt lat="43.2082317" lon="13.05192"><ele>312.6666666666667</ele><time>2026-04-04T15:11:58.726Z</time></trkpt><trkpt lat="43.2082683" lon="13.0518317"><ele>312.3333333333333</ele><time>2026-04-04T15:11:59.728Z</time></trkpt><trkpt lat="43.2083017" lon="13.051755"><ele>312.0</ele><time>2026-04-04T15:12:00.728Z</time></trkpt><trkpt lat="43.2083483" lon="13.0516467"><ele>311.8</ele><time>2026-04-04T15:12:02.729Z</time></trkpt><trkpt lat="43.2083833" lon="13.051565"><ele>311.6</ele><time>2026-04-04T15:12:06.727Z</time></trkpt><trkpt lat="43.2084133" lon="13.0514767"><ele>311.40000000000003</ele><time>2026-04-04T15:12:09.726Z</time></trkpt><trkpt lat="43.2084633" lon="13.0513933"><ele>311.2</ele><time>2026-04-04T15:12:11.728Z</time></trkpt><trkpt lat="43.2085467" lon="13.0512883"><ele>311.0</ele><time>2026-04-04T15:12:13.727Z</time></trkpt><trkpt lat="43.2085933" lon="13.0511333"><ele>311.0</ele><time>2026-04-04T15:12:15.728Z</time></trkpt><trkpt lat="43.2086117" lon="13.05102"><ele>311.0</ele><time>2026-04-04T15:12:16.725Z</time></trkpt><trkpt lat="43.208645" lon="13.05089"><ele>311.0</ele><time>2026-04-04T15:12:17.727Z</time></trkpt><trkpt lat="43.2086967" lon="13.05075"><ele>311.0</ele><time>2026-04-04T15:12:18.728Z</time></trkpt><trkpt lat="43.2087533" lon="13.0506083"><ele>311.0</ele><time>2026-04-04T15:12:19.727Z</time></trkpt><trkpt lat="43.208815" lon="13.050465"><ele>310.75</ele><time>2026-04-04T15:12:20.726Z</time></trkpt><trkpt lat="43.2088833" lon="13.0503017"><ele>310.5</ele><time>2026-04-04T15:12:21.726Z</time></trkpt><trkpt lat="43.20895" lon="13.0501283"><ele>310.25</ele><time>2026-04-04T15:12:22.729Z</time></trkpt><trkpt lat="43.2090167" lon="13.0499683"><ele>310.0</ele><time>2026-04-04T15:12:23.728Z</time></trkpt><trkpt lat="43.2090783" lon="13.0498183"><ele>310.5</ele><time>2026-04-04T15:12:24.726Z</time></trkpt><trkpt lat="43.2091383" lon="13.0496667"><ele>311.0</ele><time>2026-04-04T15:12:25.727Z</time></trkpt><trkpt lat="43.2092017" lon="13.049515"><ele>311.5</ele><time>2026-04-04T15:12:26.73Z</time></trkpt><trkpt lat="43.2092617" lon="13.04937"><ele>312.0</ele><time>2026-04-04T15:12:27.725Z</time></trkpt><trkpt lat="43.2093133" lon="13.04924"><ele>312.6</ele><time>2026-04-04T15:12:28.724Z</time></trkpt><trkpt lat="43.2093617" lon="13.0491167"><ele>313.2</ele><time>2026-04-04T15:12:29.725Z</time></trkpt><trkpt lat="43.2094083" lon="13.0490067"><ele>313.8</ele><time>2026-04-04T15:12:30.726Z</time></trkpt><trkpt lat="43.209455" lon="13.0488917"><ele>314.4</ele><time>2026-04-04T15:12:31.725Z</time></trkpt><trkpt lat="43.20951" lon="13.048765"><ele>315.0</ele><time>2026-04-04T15:12:32.727Z</time></trkpt><trkpt lat="43.20958" lon="13.0486467"><ele>315.0</ele><time>2026-04-04T15:12:33.729Z</time></trkpt><trkpt lat="43.2096683" lon="13.0485383"><ele>315.0</ele><time>2026-04-04T15:12:34.725Z</time></trkpt><trkpt lat="43.2097667" lon="13.0484517"><ele>315.0</ele><time>2026-04-04T15:12:35.727Z</time></trkpt><trkpt lat="43.20987" lon="13.0483783"><ele>315.0</ele><time>2026-04-04T15:12:36.725Z</time></trkpt><trkpt lat="43.2099933" lon="13.0483417"><ele>314.0</ele><time>2026-04-04T15:12:37.728Z</time></trkpt><trkpt lat="43.21012" lon="13.048315"><ele>313.0</ele><time>2026-04-04T15:12:38.731Z</time></trkpt><trkpt lat="43.2102383" lon="13.0482983"><ele>312.0</ele><time>2026-04-04T15:12:39.724Z</time></trkpt><trkpt lat="43.21036" lon="13.0482833"><ele>311.0</ele><time>2026-04-04T15:12:40.728Z</time></trkpt><trkpt lat="43.210485" lon="13.04827"><ele>312.5</ele><time>2026-04-04T15:12:41.725Z</time></trkpt><trkpt lat="43.2106167" lon="13.04825"><ele>314.0</ele><time>2026-04-04T15:12:42.726Z</time></trkpt><trkpt lat="43.2107533" lon="13.0482217"><ele>315.5</ele><time>2026-04-04T15:12:43.726Z</time></trkpt><trkpt lat="43.2108983" lon="13.048185"><ele>317.0</ele><time>2026-04-04T15:12:44.727Z</time></trkpt><trkpt lat="43.2110417" lon="13.0481317"><ele>317.0</ele><time>2026-04-04T15:12:45.725Z</time></trkpt><trkpt lat="43.21118" lon="13.0480717"><ele>317.0</ele><time>2026-04-04T15:12:46.724Z</time></trkpt><trkpt lat="43.2113183" lon="13.0480017"><ele>317.0</ele><time>2026-04-04T15:12:47.729Z</time></trkpt><trkpt lat="43.2114517" lon="13.0479267"><ele>317.0</ele><time>2026-04-04T15:12:48.727Z</time></trkpt><trkpt lat="43.211585" lon="13.0478517"><ele>315.5</ele><time>2026-04-04T15:12:49.727Z</time></trkpt><trkpt lat="43.2117133" lon="13.0477733"><ele>314.0</ele><time>2026-04-04T15:12:50.73Z</time></trkpt><trkpt lat="43.21184" lon="13.0476917"><ele>312.5</ele><time>2026-04-04T15:12:51.73Z</time></trkpt><trkpt lat="43.2119783" lon="13.0476067"><ele>311.0</ele><time>2026-04-04T15:12:52.729Z</time></trkpt><trkpt lat="43.21212" lon="13.0475283"><ele>311.33333333333337</ele><time>2026-04-04T15:12:53.725Z</time></trkpt><trkpt lat="43.2122633" lon="13.0474467"><ele>311.6666666666667</ele><time>2026-04-04T15:12:54.726Z</time></trkpt><trkpt lat="43.2124017" lon="13.04736"><ele>312.0</ele><time>2026-04-04T15:12:55.732Z</time></trkpt><trkpt lat="43.2125383" lon="13.0472733"><ele>312.0</ele><time>2026-04-04T15:12:56.729Z</time></trkpt><trkpt lat="43.21267" lon="13.0471967"><ele>312.0</ele><time>2026-04-04T15:12:57.727Z</time></trkpt><trkpt lat="43.2128033" lon="13.0471217"><ele>312.0</ele><time>2026-04-04T15:12:58.73Z</time></trkpt><trkpt lat="43.2129417" lon="13.04705"><ele>312.0</ele><time>2026-04-04T15:12:59.727Z</time></trkpt><trkpt lat="43.2130883" lon="13.046985"><ele>311.0</ele><time>2026-04-04T15:13:00.727Z</time></trkpt><trkpt lat="43.213245" lon="13.0469433"><ele>310.0</ele><time>2026-04-04T15:13:01.728Z</time></trkpt><trkpt lat="43.2134083" lon="13.046915"><ele>309.0</ele><time>2026-04-04T15:13:02.73Z</time></trkpt><trkpt lat="43.21358" lon="13.0468883"><ele>309.0</ele><time>2026-04-04T15:13:03.727Z</time></trkpt><trkpt lat="43.2137567" lon="13.0468683"><ele>309.0</ele><time>2026-04-04T15:13:04.727Z</time></trkpt><trkpt lat="43.21393" lon="13.04685"><ele>309.0</ele><time>2026-04-04T15:13:05.727Z</time></trkpt><trkpt lat="43.2141017" lon="13.0468317"><ele>309.5</ele><time>2026-04-04T15:13:06.729Z</time></trkpt><trkpt lat="43.2142617" lon="13.04681"><ele>310.0</ele><time>2026-04-04T15:13:07.727Z</time></trkpt><trkpt lat="43.21441" lon="13.04679"><ele>310.5</ele><time>2026-04-04T15:13:08.727Z</time></trkpt><trkpt lat="43.2145483" lon="13.0467767"><ele>311.0</ele><time>2026-04-04T15:13:09.733Z</time></trkpt><trkpt lat="43.2146783" lon="13.0467633"><ele>311.0</ele><time>2026-04-04T15:13:10.73Z</time></trkpt><trkpt lat="43.2147983" lon="13.04675"><ele>311.0</ele><time>2026-04-04T15:13:11.73Z</time></trkpt><trkpt lat="43.214885" lon="13.046745"><ele>311.0</ele><time>2026-04-04T15:13:12.73Z</time></trkpt><trkpt lat="43.214975" lon="13.0467417"><ele>311.0</ele><time>2026-04-04T15:13:14.727Z</time></trkpt><trkpt lat="43.215075" lon="13.0467283"><ele>311.0</ele><time>2026-04-04T15:13:23.733Z</time></trkpt><trkpt lat="43.215185" lon="13.0467133"><ele>311.1666666666667</ele><time>2026-04-04T15:13:25.727Z</time></trkpt><trkpt lat="43.21526" lon="13.0467083"><ele>311.33333333333337</ele><time>2026-04-04T15:13:26.729Z</time></trkpt><trkpt lat="43.2153433" lon="13.0467"><ele>311.5</ele><time>2026-04-04T15:13:27.726Z</time></trkpt><trkpt lat="43.215425" lon="13.0466933"><ele>311.6666666666667</ele><time>2026-04-04T15:13:28.727Z</time></trkpt><trkpt lat="43.2155117" lon="13.046685"><ele>311.8333333333333</ele><time>2026-04-04T15:13:29.726Z</time></trkpt><trkpt lat="43.2156133" lon="13.0466767"><ele>312.0</ele><time>2026-04-04T15:13:30.727Z</time></trkpt><trkpt lat="43.215725" lon="13.0466683"><ele>312.0</ele><time>2026-04-04T15:13:31.728Z</time></trkpt><trkpt lat="43.2158533" lon="13.0466617"><ele>312.0</ele><time>2026-04-04T15:13:32.728Z</time></trkpt><trkpt lat="43.21599" lon="13.0466533"><ele>312.0</ele><time>2026-04-04T15:13:33.73Z</time></trkpt><trkpt lat="43.2161283" lon="13.0466367"><ele>312.0</ele><time>2026-04-04T15:13:34.727Z</time></trkpt><trkpt lat="43.2162833" lon="13.0466117"><ele>313.3333333333333</ele><time>2026-04-04T15:13:35.735Z</time></trkpt><trkpt lat="43.2164383" lon="13.0465817"><ele>314.66666666666663</ele><time>2026-04-04T15:13:36.733Z</time></trkpt><trkpt lat="43.2166" lon="13.0465517"><ele>316.0</ele><time>2026-04-04T15:13:37.734Z</time></trkpt><trkpt lat="43.21677" lon="13.0465217"><ele>316.0</ele><time>2026-04-04T15:13:38.727Z</time></trkpt><trkpt lat="43.2169367" lon="13.0464967"><ele>316.0</ele><time>2026-04-04T15:13:39.729Z</time></trkpt><trkpt lat="43.2171117" lon="13.0464733"><ele>316.0</ele><time>2026-04-04T15:13:40.727Z</time></trkpt><trkpt lat="43.2172883" lon="13.0464433"><ele>315.3333333333333</ele><time>2026-04-04T15:13:41.726Z</time></trkpt><trkpt lat="43.2174617" lon="13.0464117"><ele>314.6666666666667</ele><time>2026-04-04T15:13:42.728Z</time></trkpt><trkpt lat="43.2176333" lon="13.0463783"><ele>314.0</ele><time>2026-04-04T15:13:43.73Z</time></trkpt><trkpt lat="43.2177967" lon="13.04633"><ele>314.0</ele><time>2026-04-04T15:13:44.73Z</time></trkpt><trkpt lat="43.2179583" lon="13.0462617"><ele>314.0</ele><time>2026-04-04T15:13:45.73Z</time></trkpt><trkpt lat="43.2181167" lon="13.0461567"><ele>314.0</ele><time>2026-04-04T15:13:46.728Z</time></trkpt><trkpt lat="43.2182733" lon="13.046035"><ele>315.0</ele><time>2026-04-04T15:13:47.73Z</time></trkpt><trkpt lat="43.2184317" lon="13.045895"><ele>316.0</ele><time>2026-04-04T15:13:48.728Z</time></trkpt><trkpt lat="43.2185817" lon="13.0457567"><ele>317.0</ele><time>2026-04-04T15:13:49.728Z</time></trkpt><trkpt lat="43.218725" lon="13.045625"><ele>317.0</ele><time>2026-04-04T15:13:50.73Z</time></trkpt><trkpt lat="43.2188683" lon="13.0455"><ele>317.0</ele><time>2026-04-04T15:13:51.729Z</time></trkpt><trkpt lat="43.2190033" lon="13.0453717"><ele>317.0</ele><time>2026-04-04T15:13:52.726Z</time></trkpt><trkpt lat="43.21914" lon="13.0452417"><ele>317.0</ele><time>2026-04-04T15:13:53.727Z</time></trkpt><trkpt lat="43.21927" lon="13.045115"><ele>317.0</ele><time>2026-04-04T15:13:54.729Z</time></trkpt><trkpt lat="43.2193967" lon="13.0449933"><ele>317.0</ele><time>2026-04-04T15:13:55.729Z</time></trkpt><trkpt lat="43.219515" lon="13.0448767"><ele>317.0</ele><time>2026-04-04T15:13:56.729Z</time></trkpt><trkpt lat="43.2196233" lon="13.0447617"><ele>317.0</ele><time>2026-04-04T15:13:57.728Z</time></trkpt><trkpt lat="43.219725" lon="13.044645"><ele>317.0</ele><time>2026-04-04T15:13:58.726Z</time></trkpt><trkpt lat="43.2198267" lon="13.04452"><ele>317.0</ele><time>2026-04-04T15:13:59.727Z</time></trkpt><trkpt lat="43.2199217" lon="13.044395"><ele>317.25</ele><time>2026-04-04T15:14:00.725Z</time></trkpt><trkpt lat="43.22001" lon="13.04427"><ele>317.5</ele><time>2026-04-04T15:14:01.73Z</time></trkpt><trkpt lat="43.2200967" lon="13.044145"><ele>317.75</ele><time>2026-04-04T15:14:02.731Z</time></trkpt><trkpt lat="43.2201867" lon="13.0440217"><ele>318.0</ele><time>2026-04-04T15:14:03.729Z</time></trkpt><trkpt lat="43.22028" lon="13.0439017"><ele>318.0</ele><time>2026-04-04T15:14:04.732Z</time></trkpt><trkpt lat="43.2203767" lon="13.0437933"><ele>318.0</ele><time>2026-04-04T15:14:05.727Z</time></trkpt><trkpt lat="43.2204767" lon="13.0436983"><ele>318.0</ele><time>2026-04-04T15:14:06.73Z</time></trkpt><trkpt lat="43.2205867" lon="13.043615"><ele>318.0</ele><time>2026-04-04T15:14:07.729Z</time></trkpt><trkpt lat="43.220695" lon="13.0435467"><ele>318.5</ele><time>2026-04-04T15:14:08.73Z</time></trkpt><trkpt lat="43.2208033" lon="13.043485"><ele>319.0</ele><time>2026-04-04T15:14:09.726Z</time></trkpt><trkpt lat="43.2209217" lon="13.0434167"><ele>319.5</ele><time>2026-04-04T15:14:10.726Z</time></trkpt><trkpt lat="43.2210633" lon="13.0433333"><ele>320.0</ele><time>2026-04-04T15:14:11.727Z</time></trkpt><trkpt lat="43.22121" lon="13.04323"><ele>320.0</ele><time>2026-04-04T15:14:12.726Z</time></trkpt><trkpt lat="43.221365" lon="13.0431067"><ele>320.0</ele><time>2026-04-04T15:14:13.727Z</time></trkpt><trkpt lat="43.2214983" lon="13.0429683"><ele>320.0</ele><time>2026-04-04T15:14:14.728Z</time></trkpt><trkpt lat="43.2216133" lon="13.0428233"><ele>320.6666666666667</ele><time>2026-04-04T15:14:15.726Z</time></trkpt><trkpt lat="43.2217233" lon="13.04267"><ele>321.3333333333333</ele><time>2026-04-04T15:14:16.728Z</time></trkpt><trkpt lat="43.2218367" lon="13.0425167"><ele>322.0</ele><time>2026-04-04T15:14:17.728Z</time></trkpt><trkpt lat="43.221955" lon="13.04236"><ele>322.0</ele><time>2026-04-04T15:14:18.726Z</time></trkpt><trkpt lat="43.222075" lon="13.0422"><ele>322.0</ele><time>2026-04-04T15:14:19.726Z</time></trkpt><trkpt lat="43.222195" lon="13.04204"><ele>322.0</ele><time>2026-04-04T15:14:20.728Z</time></trkpt><trkpt lat="43.22233" lon="13.0418667"><ele>323.3333333333333</ele><time>2026-04-04T15:14:21.727Z</time></trkpt><trkpt lat="43.2224667" lon="13.0416933"><ele>324.6666666666667</ele><time>2026-04-04T15:14:22.727Z</time></trkpt><trkpt lat="43.2226017" lon="13.041515"><ele>326.0</ele><time>2026-04-04T15:14:23.727Z</time></trkpt><trkpt lat="43.2227333" lon="13.04134"><ele>326.0</ele><time>2026-04-04T15:14:24.73Z</time></trkpt><trkpt lat="43.2228633" lon="13.0411667"><ele>326.0</ele><time>2026-04-04T15:14:25.731Z</time></trkpt><trkpt lat="43.2229833" lon="13.0409983"><ele>326.0</ele><time>2026-04-04T15:14:26.73Z</time></trkpt><trkpt lat="43.2231033" lon="13.04083"><ele>326.6666666666667</ele><time>2026-04-04T15:14:27.732Z</time></trkpt><trkpt lat="43.2232217" lon="13.04067"><ele>327.3333333333333</ele><time>2026-04-04T15:14:28.728Z</time></trkpt><trkpt lat="43.2233367" lon="13.0405017"><ele>328.0</ele><time>2026-04-04T15:14:29.728Z</time></trkpt><trkpt lat="43.2234533" lon="13.040335"><ele>328.0</ele><time>2026-04-04T15:14:30.729Z</time></trkpt><trkpt lat="43.2235733" lon="13.040175"><ele>328.0</ele><time>2026-04-04T15:14:31.729Z</time></trkpt><trkpt lat="43.22369" lon="13.0400217"><ele>328.0</ele><time>2026-04-04T15:14:32.726Z</time></trkpt><trkpt lat="43.2238" lon="13.039885"><ele>328.25</ele><time>2026-04-04T15:14:33.726Z</time></trkpt><trkpt lat="43.223915" lon="13.0397533"><ele>328.5</ele><time>2026-04-04T15:14:34.727Z</time></trkpt><trkpt lat="43.2240267" lon="13.0396167"><ele>328.75</ele><time>2026-04-04T15:14:35.728Z</time></trkpt><trkpt lat="43.2241333" lon="13.0394817"><ele>329.0</ele><time>2026-04-04T15:14:36.728Z</time></trkpt><trkpt lat="43.2242367" lon="13.0393567"><ele>329.0</ele><time>2026-04-04T15:14:37.728Z</time></trkpt><trkpt lat="43.224345" lon="13.0392367"><ele>329.0</ele><time>2026-04-04T15:14:38.729Z</time></trkpt><trkpt lat="43.22446" lon="13.0391267"><ele>329.0</ele><time>2026-04-04T15:14:39.727Z</time></trkpt><trkpt lat="43.22458" lon="13.0390283"><ele>329.0</ele><time>2026-04-04T15:14:40.73Z</time></trkpt><trkpt lat="43.224705" lon="13.0389417"><ele>328.6666666666667</ele><time>2026-04-04T15:14:41.73Z</time></trkpt><trkpt lat="43.2248383" lon="13.0388667"><ele>328.3333333333333</ele><time>2026-04-04T15:14:42.729Z</time></trkpt><trkpt lat="43.2249867" lon="13.0388"><ele>328.0</ele><time>2026-04-04T15:14:43.727Z</time></trkpt><trkpt lat="43.22514" lon="13.0387417"><ele>328.0</ele><time>2026-04-04T15:14:44.726Z</time></trkpt><trkpt lat="43.2252917" lon="13.0386917"><ele>328.0</ele><time>2026-04-04T15:14:45.726Z</time></trkpt><trkpt lat="43.22544" lon="13.0386467"><ele>328.0</ele><time>2026-04-04T15:14:46.726Z</time></trkpt><trkpt lat="43.22559" lon="13.0386017"><ele>328.5</ele><time>2026-04-04T15:14:47.727Z</time></trkpt><trkpt lat="43.2257417" lon="13.0385567"><ele>329.0</ele><time>2026-04-04T15:14:48.729Z</time></trkpt><trkpt lat="43.2258833" lon="13.0385167"><ele>329.5</ele><time>2026-04-04T15:14:49.728Z</time></trkpt><trkpt lat="43.22602" lon="13.0384817"><ele>330.0</ele><time>2026-04-04T15:14:50.726Z</time></trkpt><trkpt lat="43.2261517" lon="13.0384467"><ele>330.0</ele><time>2026-04-04T15:14:51.728Z</time></trkpt><trkpt lat="43.226275" lon="13.03841"><ele>330.0</ele><time>2026-04-04T15:14:52.728Z</time></trkpt><trkpt lat="43.226395" lon="13.03837"><ele>330.0</ele><time>2026-04-04T15:14:53.725Z</time></trkpt><trkpt lat="43.226515" lon="13.0383133"><ele>330.0</ele><time>2026-04-04T15:14:54.728Z</time></trkpt><trkpt lat="43.2266217" lon="13.0382517"><ele>330.1666666666667</ele><time>2026-04-04T15:14:55.727Z</time></trkpt><trkpt lat="43.226715" lon="13.0381883"><ele>330.3333333333333</ele><time>2026-04-04T15:14:56.728Z</time></trkpt><trkpt lat="43.2268" lon="13.03812"><ele>330.5</ele><time>2026-04-04T15:14:57.73Z</time></trkpt><trkpt lat="43.2268717" lon="13.0380567"><ele>330.66666666666663</ele><time>2026-04-04T15:14:58.725Z</time></trkpt><trkpt lat="43.2269317" lon="13.0380067"><ele>330.8333333333333</ele><time>2026-04-04T15:14:59.728Z</time></trkpt><trkpt lat="43.2269917" lon="13.03796"><ele>331.0</ele><time>2026-04-04T15:15:00.726Z</time></trkpt><trkpt lat="43.2270967" lon="13.0379133"><ele>331.0</ele><time>2026-04-04T15:15:02.73Z</time></trkpt><trkpt lat="43.2271617" lon="13.0379033"><ele>331.0</ele><time>2026-04-04T15:15:03.725Z</time></trkpt><trkpt lat="43.22724" lon="13.037885"><ele>331.0</ele><time>2026-04-04T15:15:04.727Z</time></trkpt><trkpt lat="43.2273233" lon="13.03784"><ele>331.0</ele><time>2026-04-04T15:15:05.727Z</time></trkpt><trkpt lat="43.22739" lon="13.0377667"><ele>331.0</ele><time>2026-04-04T15:15:06.726Z</time></trkpt><trkpt lat="43.2274383" lon="13.0376767"><ele>331.0</ele><time>2026-04-04T15:15:07.726Z</time></trkpt><trkpt lat="43.2274567" lon="13.0375783"><ele>331.5</ele><time>2026-04-04T15:15:08.729Z</time></trkpt><trkpt lat="43.227455" lon="13.037415"><ele>332.0</ele><time>2026-04-04T15:15:10.726Z</time></trkpt><trkpt lat="43.2274433" lon="13.0372967"><ele>332.5</ele><time>2026-04-04T15:15:11.726Z</time></trkpt><trkpt lat="43.2274433" lon="13.037145"><ele>333.0</ele><time>2026-04-04T15:15:12.728Z</time></trkpt><trkpt lat="43.22746" lon="13.036955"><ele>333.0</ele><time>2026-04-04T15:15:13.725Z</time></trkpt><trkpt lat="43.2274733" lon="13.036725"><ele>333.0</ele><time>2026-04-04T15:15:14.732Z</time></trkpt><trkpt lat="43.2274733" lon="13.0364717"><ele>333.0</ele><time>2026-04-04T15:15:15.726Z</time></trkpt><trkpt lat="43.2274583" lon="13.0362017"><ele>333.3333333333333</ele><time>2026-04-04T15:15:16.73Z</time></trkpt><trkpt lat="43.2274367" lon="13.0359167"><ele>333.66666666666663</ele><time>2026-04-04T15:15:17.727Z</time></trkpt><trkpt lat="43.2274117" lon="13.0356383"><ele>334.0</ele><time>2026-04-04T15:15:18.724Z</time></trkpt><trkpt lat="43.2273867" lon="13.0353617"><ele>334.0</ele><time>2026-04-04T15:15:19.724Z</time></trkpt><trkpt lat="43.22738" lon="13.0351117"><ele>334.0</ele><time>2026-04-04T15:15:20.728Z</time></trkpt><trkpt lat="43.2274233" lon="13.034875"><ele>334.0</ele><time>2026-04-04T15:15:21.725Z</time></trkpt><trkpt lat="43.2275117" lon="13.0346417"><ele>334.0</ele><time>2026-04-04T15:15:22.727Z</time></trkpt><trkpt lat="43.2276433" lon="13.034405"><ele>334.0</ele><time>2026-04-04T15:15:23.729Z</time></trkpt><trkpt lat="43.227795" lon="13.0341817"><ele>334.0</ele><time>2026-04-04T15:15:24.727Z</time></trkpt><trkpt lat="43.22795" lon="13.033955"><ele>334.66666666666663</ele><time>2026-04-04T15:15:25.73Z</time></trkpt><trkpt lat="43.2281" lon="13.0337233"><ele>335.3333333333333</ele><time>2026-04-04T15:15:26.727Z</time></trkpt><trkpt lat="43.2282517" lon="13.03351"><ele>336.0</ele><time>2026-04-04T15:15:27.729Z</time></trkpt><trkpt lat="43.2283867" lon="13.033295"><ele>337.3333333333333</ele><time>2026-04-04T15:15:28.726Z</time></trkpt><trkpt lat="43.2284883" lon="13.0330567"><ele>338.66666666666663</ele><time>2026-04-04T15:15:29.728Z</time></trkpt><trkpt lat="43.228565" lon="13.032775"><ele>340.0</ele><time>2026-04-04T15:15:30.728Z</time></trkpt><trkpt lat="43.22863" lon="13.0324667"><ele>340.5</ele><time>2026-04-04T15:15:31.727Z</time></trkpt><trkpt lat="43.228715" lon="13.03215"><ele>341.0</ele><time>2026-04-04T15:15:32.737Z</time></trkpt><trkpt lat="43.228825" lon="13.031835"><ele>342.0</ele><time>2026-04-04T15:15:33.727Z</time></trkpt><trkpt lat="43.2289517" lon="13.0315283"><ele>343.0</ele><time>2026-04-04T15:15:34.726Z</time></trkpt><trkpt lat="43.22908" lon="13.0312283"><ele>343.0</ele><time>2026-04-04T15:15:35.73Z</time></trkpt><trkpt lat="43.2291917" lon="13.03092"><ele>343.0</ele><time>2026-04-04T15:15:36.725Z</time></trkpt><trkpt lat="43.2292783" lon="13.0306067"><ele>343.3333333333333</ele><time>2026-04-04T15:15:37.73Z</time></trkpt><trkpt lat="43.2293317" lon="13.0303"><ele>343.6666666666667</ele><time>2026-04-04T15:15:38.729Z</time></trkpt><trkpt lat="43.2293667" lon="13.0300133"><ele>344.0</ele><time>2026-04-04T15:15:39.731Z</time></trkpt><trkpt lat="43.2294133" lon="13.0297633"><ele>344.0</ele><time>2026-04-04T15:15:40.725Z</time></trkpt><trkpt lat="43.22948" lon="13.02956"><ele>344.0</ele><time>2026-04-04T15:15:41.732Z</time></trkpt><trkpt lat="43.229575" lon="13.0294117"><ele>344.0</ele><time>2026-04-04T15:15:42.724Z</time></trkpt><trkpt lat="43.2297033" lon="13.0293367"><ele>344.0</ele><time>2026-04-04T15:15:43.73Z</time></trkpt><trkpt lat="43.2298583" lon="13.0293183"><ele>345.6666666666667</ele><time>2026-04-04T15:15:44.728Z</time></trkpt><trkpt lat="43.2300217" lon="13.0293667"><ele>347.3333333333333</ele><time>2026-04-04T15:15:45.732Z</time></trkpt><trkpt lat="43.2301983" lon="13.0294817"><ele>349.0</ele><time>2026-04-04T15:15:46.726Z</time></trkpt><trkpt lat="43.2303567" lon="13.0296133"><ele>349.0</ele><time>2026-04-04T15:15:47.729Z</time></trkpt><trkpt lat="43.2305017" lon="13.029705"><ele>349.0</ele><time>2026-04-04T15:15:48.728Z</time></trkpt><trkpt lat="43.2306383" lon="13.02976"><ele>349.0</ele><time>2026-04-04T15:15:49.728Z</time></trkpt><trkpt lat="43.2307767" lon="13.0297583"><ele>349.0</ele><time>2026-04-04T15:15:50.731Z</time></trkpt><trkpt lat="43.23089" lon="13.02968"><ele>350.0</ele><time>2026-04-04T15:15:51.727Z</time></trkpt><trkpt lat="43.2309733" lon="13.029535"><ele>351.0</ele><time>2026-04-04T15:15:52.73Z</time></trkpt><trkpt lat="43.2310083" lon="13.02934"><ele>352.0</ele><time>2026-04-04T15:15:53.727Z</time></trkpt><trkpt lat="43.23099" lon="13.0291"><ele>353.66666666666663</ele><time>2026-04-04T15:15:54.728Z</time></trkpt><trkpt lat="43.2309167" lon="13.0288333"><ele>355.3333333333333</ele><time>2026-04-04T15:15:55.728Z</time></trkpt><trkpt lat="43.2308083" lon="13.0285367"><ele>357.0</ele><time>2026-04-04T15:15:56.726Z</time></trkpt><trkpt lat="43.2306967" lon="13.0282317"><ele>356.5</ele><time>2026-04-04T15:15:57.729Z</time></trkpt><trkpt lat="43.230585" lon="13.0279167"><ele>356.0</ele><time>2026-04-04T15:15:58.726Z</time></trkpt><trkpt lat="43.2305" lon="13.0276033"><ele>357.33333333333337</ele><time>2026-04-04T15:15:59.727Z</time></trkpt><trkpt lat="43.2304533" lon="13.02732"><ele>358.6666666666667</ele><time>2026-04-04T15:16:00.729Z</time></trkpt><trkpt lat="43.2304067" lon="13.02706"><ele>360.0</ele><time>2026-04-04T15:16:01.735Z</time></trkpt><trkpt lat="43.2303933" lon="13.0268233"><ele>361.6666666666667</ele><time>2026-04-04T15:16:02.734Z</time></trkpt><trkpt lat="43.2304283" lon="13.0265917"><ele>363.33333333333337</ele><time>2026-04-04T15:16:03.726Z</time></trkpt><trkpt lat="43.2305183" lon="13.0263517"><ele>365.0</ele><time>2026-04-04T15:16:04.728Z</time></trkpt><trkpt lat="43.2306567" lon="13.0261017"><ele>369.0</ele><time>2026-04-04T15:16:05.728Z</time></trkpt><trkpt lat="43.2308017" lon="13.025855"><ele>373.0</ele><time>2026-04-04T15:16:06.727Z</time></trkpt><trkpt lat="43.2309533" lon="13.0256083"><ele>373.5</ele><time>2026-04-04T15:16:07.729Z</time></trkpt><trkpt lat="43.2311083" lon="13.0253567"><ele>374.0</ele><time>2026-04-04T15:16:08.731Z</time></trkpt><trkpt lat="43.2312683" lon="13.0250967"><ele>375.0</ele><time>2026-04-04T15:16:09.729Z</time></trkpt><trkpt lat="43.2314317" lon="13.0248383"><ele>376.0</ele><time>2026-04-04T15:16:10.728Z</time></trkpt><trkpt lat="43.2315983" lon="13.0245733"><ele>376.0</ele><time>2026-04-04T15:16:11.728Z</time></trkpt><trkpt lat="43.2317633" lon="13.0242933"><ele>376.0</ele><time>2026-04-04T15:16:12.727Z</time></trkpt><trkpt lat="43.23193" lon="13.024015"><ele>373.0</ele><time>2026-04-04T15:16:13.727Z</time></trkpt><trkpt lat="43.2321" lon="13.0237367"><ele>370.0</ele><time>2026-04-04T15:16:14.729Z</time></trkpt><trkpt lat="43.2322733" lon="13.02346"><ele>375.5</ele><time>2026-04-04T15:16:15.725Z</time></trkpt><trkpt lat="43.232445" lon="13.0231833"><ele>381.0</ele><time>2026-04-04T15:16:16.73Z</time></trkpt><trkpt lat="43.2326133" lon="13.0229033"><ele>381.0</ele><time>2026-04-04T15:16:17.73Z</time></trkpt><trkpt lat="43.23278" lon="13.0226233"><ele>381.0</ele><time>2026-04-04T15:16:18.727Z</time></trkpt><trkpt lat="43.2329483" lon="13.022345"><ele>383.5</ele><time>2026-04-04T15:16:19.726Z</time></trkpt><trkpt lat="43.233115" lon="13.0220683"><ele>386.0</ele><time>2026-04-04T15:16:20.727Z</time></trkpt><trkpt lat="43.23328" lon="13.0218017"><ele>388.5</ele><time>2026-04-04T15:16:21.728Z</time></trkpt><trkpt lat="43.2334383" lon="13.0215583"><ele>391.0</ele><time>2026-04-04T15:16:22.724Z</time></trkpt><trkpt lat="43.233595" lon="13.0213333"><ele>391.0</ele><time>2026-04-04T15:16:23.727Z</time></trkpt><trkpt lat="43.2337583" lon="13.0211217"><ele>391.0</ele><time>2026-04-04T15:16:24.728Z</time></trkpt><trkpt lat="43.233935" lon="13.0209"><ele>389.5</ele><time>2026-04-04T15:16:25.726Z</time></trkpt><trkpt lat="43.2341183" lon="13.0206917"><ele>388.0</ele><time>2026-04-04T15:16:26.731Z</time></trkpt><trkpt lat="43.2343" lon="13.02049"><ele>388.0</ele><time>2026-04-04T15:16:27.728Z</time></trkpt><trkpt lat="43.2344833" lon="13.0202967"><ele>388.0</ele><time>2026-04-04T15:16:28.728Z</time></trkpt><trkpt lat="43.23467" lon="13.0201067"><ele>386.0</ele><time>2026-04-04T15:16:29.729Z</time></trkpt><trkpt lat="43.2348667" lon="13.0199167"><ele>384.0</ele><time>2026-04-04T15:16:30.729Z</time></trkpt><trkpt lat="43.23507" lon="13.0197283"><ele>384.0</ele><time>2026-04-04T15:16:31.727Z</time></trkpt><trkpt lat="43.235275" lon="13.0195483"><ele>384.0</ele><time>2026-04-04T15:16:32.73Z</time></trkpt><trkpt lat="43.235475" lon="13.0193817"><ele>384.5</ele><time>2026-04-04T15:16:33.729Z</time></trkpt><trkpt lat="43.2356717" lon="13.01923"><ele>385.0</ele><time>2026-04-04T15:16:34.731Z</time></trkpt><trkpt lat="43.2358767" lon="13.01909"><ele>385.0</ele><time>2026-04-04T15:16:35.731Z</time></trkpt><trkpt lat="43.2360917" lon="13.0189633"><ele>385.0</ele><time>2026-04-04T15:16:36.731Z</time></trkpt><trkpt lat="43.2363167" lon="13.0188667"><ele>384.5</ele><time>2026-04-04T15:16:37.729Z</time></trkpt><trkpt lat="43.2365533" lon="13.0187967"><ele>384.0</ele><time>2026-04-04T15:16:38.738Z</time></trkpt><trkpt lat="43.236795" lon="13.0187467"><ele>384.0</ele><time>2026-04-04T15:16:39.727Z</time></trkpt><trkpt lat="43.2370367" lon="13.018705"><ele>384.0</ele><time>2026-04-04T15:16:40.726Z</time></trkpt><trkpt lat="43.2372683" lon="13.018665"><ele>382.3333333333333</ele><time>2026-04-04T15:16:41.73Z</time></trkpt><trkpt lat="43.23749" lon="13.01863"><ele>380.66666666666663</ele><time>2026-04-04T15:16:42.729Z</time></trkpt><trkpt lat="43.23771" lon="13.0185967"><ele>379.0</ele><time>2026-04-04T15:16:43.729Z</time></trkpt><trkpt lat="43.237935" lon="13.01856"><ele>378.5</ele><time>2026-04-04T15:16:44.728Z</time></trkpt><trkpt lat="43.238165" lon="13.0185217"><ele>378.0</ele><time>2026-04-04T15:16:45.727Z</time></trkpt><trkpt lat="43.2383967" lon="13.01848"><ele>378.0</ele><time>2026-04-04T15:16:46.727Z</time></trkpt><trkpt lat="43.23863" lon="13.0184433"><ele>378.0</ele><time>2026-04-04T15:16:47.73Z</time></trkpt><trkpt lat="43.2388633" lon="13.018405"><ele>378.0</ele><time>2026-04-04T15:16:48.724Z</time></trkpt><trkpt lat="43.239095" lon="13.0183583"><ele>378.0</ele><time>2026-04-04T15:16:49.727Z</time></trkpt><trkpt lat="43.2393183" lon="13.0183017"><ele>377.3333333333333</ele><time>2026-04-04T15:16:50.727Z</time></trkpt><trkpt lat="43.2395267" lon="13.0182167"><ele>376.66666666666663</ele><time>2026-04-04T15:16:51.732Z</time></trkpt><trkpt lat="43.2397317" lon="13.0181017"><ele>376.0</ele><time>2026-04-04T15:16:52.727Z</time></trkpt><trkpt lat="43.2399267" lon="13.01796"><ele>376.0</ele><time>2026-04-04T15:16:53.728Z</time></trkpt><trkpt lat="43.24011" lon="13.01781"><ele>376.0</ele><time>2026-04-04T15:16:54.73Z</time></trkpt><trkpt lat="43.2402783" lon="13.0176633"><ele>376.0</ele><time>2026-04-04T15:16:55.726Z</time></trkpt><trkpt lat="43.2404383" lon="13.0175233"><ele>376.0</ele><time>2026-04-04T15:16:56.731Z</time></trkpt><trkpt lat="43.24059" lon="13.0173883"><ele>376.0</ele><time>2026-04-04T15:16:57.729Z</time></trkpt><trkpt lat="43.2407383" lon="13.017255"><ele>376.0</ele><time>2026-04-04T15:16:58.727Z</time></trkpt><trkpt lat="43.2408883" lon="13.0171167"><ele>376.0</ele><time>2026-04-04T15:16:59.727Z</time></trkpt><trkpt lat="43.24103" lon="13.0169817"><ele>376.0</ele><time>2026-04-04T15:17:00.725Z</time></trkpt><trkpt lat="43.24116" lon="13.0168533"><ele>376.0</ele><time>2026-04-04T15:17:01.73Z</time></trkpt><trkpt lat="43.241285" lon="13.0167283"><ele>376.66666666666663</ele><time>2026-04-04T15:17:02.728Z</time></trkpt><trkpt lat="43.2414083" lon="13.0166"><ele>377.3333333333333</ele><time>2026-04-04T15:17:03.725Z</time></trkpt><trkpt lat="43.241535" lon="13.0164617"><ele>378.0</ele><time>2026-04-04T15:17:04.729Z</time></trkpt><trkpt lat="43.2416617" lon="13.016315"><ele>378.0</ele><time>2026-04-04T15:17:05.729Z</time></trkpt><trkpt lat="43.24179" lon="13.01616"><ele>378.0</ele><time>2026-04-04T15:17:06.729Z</time></trkpt><trkpt lat="43.2419167" lon="13.016015"><ele>378.0</ele><time>2026-04-04T15:17:07.73Z</time></trkpt><trkpt lat="43.2420383" lon="13.0158817"><ele>377.6666666666667</ele><time>2026-04-04T15:17:08.728Z</time></trkpt><trkpt lat="43.2421567" lon="13.015755"><ele>377.33333333333337</ele><time>2026-04-04T15:17:09.725Z</time></trkpt><trkpt lat="43.2422783" lon="13.015625"><ele>377.0</ele><time>2026-04-04T15:17:10.727Z</time></trkpt><trkpt lat="43.2424033" lon="13.0154967"><ele>377.0</ele><time>2026-04-04T15:17:11.73Z</time></trkpt><trkpt lat="43.2425333" lon="13.0153583"><ele>377.0</ele><time>2026-04-04T15:17:12.724Z</time></trkpt><trkpt lat="43.24266" lon="13.0152217"><ele>377.0</ele><time>2026-04-04T15:17:13.727Z</time></trkpt><trkpt lat="43.24278" lon="13.0150967"><ele>376.75</ele><time>2026-04-04T15:17:14.731Z</time></trkpt><trkpt lat="43.2429" lon="13.0149717"><ele>376.5</ele><time>2026-04-04T15:17:15.727Z</time></trkpt><trkpt lat="43.243015" lon="13.0148433"><ele>376.25</ele><time>2026-04-04T15:17:16.73Z</time></trkpt><trkpt lat="43.24313" lon="13.0147233"><ele>376.0</ele><time>2026-04-04T15:17:17.726Z</time></trkpt><trkpt lat="43.24324" lon="13.0146083"><ele>375.75</ele><time>2026-04-04T15:17:18.725Z</time></trkpt><trkpt lat="43.2433533" lon="13.0144917"><ele>375.5</ele><time>2026-04-04T15:17:19.728Z</time></trkpt><trkpt lat="43.2434733" lon="13.0143817"><ele>375.25</ele><time>2026-04-04T15:17:20.731Z</time></trkpt><trkpt lat="43.2435933" lon="13.0142833"><ele>375.0</ele><time>2026-04-04T15:17:21.725Z</time></trkpt><trkpt lat="43.2437083" lon="13.0142017"><ele>374.5</ele><time>2026-04-04T15:17:22.724Z</time></trkpt><trkpt lat="43.24382" lon="13.01413"><ele>374.0</ele><time>2026-04-04T15:17:23.726Z</time></trkpt><trkpt lat="43.24393" lon="13.014065"><ele>373.5</ele><time>2026-04-04T15:17:24.729Z</time></trkpt><trkpt lat="43.2440417" lon="13.014"><ele>373.0</ele><time>2026-04-04T15:17:25.727Z</time></trkpt><trkpt lat="43.244155" lon="13.0139367"><ele>373.0</ele><time>2026-04-04T15:17:26.73Z</time></trkpt><trkpt lat="43.244265" lon="13.013875"><ele>373.0</ele><time>2026-04-04T15:17:27.727Z</time></trkpt><trkpt lat="43.2443717" lon="13.0138117"><ele>373.0</ele><time>2026-04-04T15:17:28.726Z</time></trkpt><trkpt lat="43.24448" lon="13.0137517"><ele>373.0</ele><time>2026-04-04T15:17:29.732Z</time></trkpt><trkpt lat="43.2445883" lon="13.0136917"><ele>373.0</ele><time>2026-04-04T15:17:30.724Z</time></trkpt><trkpt lat="43.2446983" lon="13.01363"><ele>373.0</ele><time>2026-04-04T15:17:31.725Z</time></trkpt><trkpt lat="43.2448083" lon="13.0135667"><ele>373.0</ele><time>2026-04-04T15:17:32.726Z</time></trkpt><trkpt lat="43.2449167" lon="13.01351"><ele>373.0</ele><time>2026-04-04T15:17:33.725Z</time></trkpt><trkpt lat="43.24503" lon="13.0134517"><ele>372.25</ele><time>2026-04-04T15:17:34.729Z</time></trkpt><trkpt lat="43.2451433" lon="13.0133967"><ele>371.5</ele><time>2026-04-04T15:17:35.731Z</time></trkpt><trkpt lat="43.245255" lon="13.0133367"><ele>370.75</ele><time>2026-04-04T15:17:36.726Z</time></trkpt><trkpt lat="43.2453717" lon="13.0132683"><ele>370.0</ele><time>2026-04-04T15:17:37.73Z</time></trkpt><trkpt lat="43.2454933" lon="13.0131917"><ele>369.0</ele><time>2026-04-04T15:17:38.728Z</time></trkpt><trkpt lat="43.2456133" lon="13.013115"><ele>368.0</ele><time>2026-04-04T15:17:39.726Z</time></trkpt><trkpt lat="43.24573" lon="13.0130267"><ele>367.0</ele><time>2026-04-04T15:17:40.726Z</time></trkpt><trkpt lat="43.24585" lon="13.0129217"><ele>366.0</ele><time>2026-04-04T15:17:41.724Z</time></trkpt><trkpt lat="43.2459683" lon="13.012815"><ele>365.5</ele><time>2026-04-04T15:17:42.729Z</time></trkpt><trkpt lat="43.246085" lon="13.0126967"><ele>365.0</ele><time>2026-04-04T15:17:43.724Z</time></trkpt><trkpt lat="43.2462" lon="13.012575"><ele>364.5</ele><time>2026-04-04T15:17:44.727Z</time></trkpt><trkpt lat="43.2463133" lon="13.0124467"><ele>364.0</ele><time>2026-04-04T15:17:45.728Z</time></trkpt><trkpt lat="43.246415" lon="13.0123283"><ele>364.75</ele><time>2026-04-04T15:17:46.729Z</time></trkpt><trkpt lat="43.24651" lon="13.0122133"><ele>365.5</ele><time>2026-04-04T15:17:47.729Z</time></trkpt><trkpt lat="43.246605" lon="13.0120967"><ele>366.25</ele><time>2026-04-04T15:17:48.728Z</time></trkpt><trkpt lat="43.2466967" lon="13.0119817"><ele>367.0</ele><time>2026-04-04T15:17:49.728Z</time></trkpt><trkpt lat="43.2467883" lon="13.0118683"><ele>367.0</ele><time>2026-04-04T15:17:50.727Z</time></trkpt><trkpt lat="43.2468767" lon="13.0117617"><ele>367.0</ele><time>2026-04-04T15:17:51.728Z</time></trkpt><trkpt lat="43.24696" lon="13.01166"><ele>367.0</ele><time>2026-04-04T15:17:52.728Z</time></trkpt><trkpt lat="43.2470417" lon="13.0115633"><ele>367.0</ele><time>2026-04-04T15:17:53.729Z</time></trkpt><trkpt lat="43.2471217" lon="13.0114717"><ele>367.0</ele><time>2026-04-04T15:17:54.728Z</time></trkpt><trkpt lat="43.247195" lon="13.0113917"><ele>366.85714285714283</ele><time>2026-04-04T15:17:55.728Z</time></trkpt><trkpt lat="43.24726" lon="13.0113217"><ele>366.7142857142857</ele><time>2026-04-04T15:17:56.726Z</time></trkpt><trkpt lat="43.247315" lon="13.0112667"><ele>366.57142857142856</ele><time>2026-04-04T15:17:57.727Z</time></trkpt><trkpt lat="43.2473667" lon="13.0112167"><ele>366.42857142857144</ele><time>2026-04-04T15:17:58.726Z</time></trkpt><trkpt lat="43.24742" lon="13.01117"><ele>366.28571428571433</ele><time>2026-04-04T15:17:59.726Z</time></trkpt><trkpt lat="43.24748" lon="13.0111167"><ele>366.14285714285717</ele><time>2026-04-04T15:18:00.723Z</time></trkpt><trkpt lat="43.247545" lon="13.011065"><ele>366.0</ele><time>2026-04-04T15:18:01.724Z</time></trkpt><trkpt lat="43.2476067" lon="13.0110167"><ele>366.0</ele><time>2026-04-04T15:18:02.734Z</time></trkpt><trkpt lat="43.2476617" lon="13.0109683"><ele>366.0</ele><time>2026-04-04T15:18:03.724Z</time></trkpt><trkpt lat="43.2477183" lon="13.0109233"><ele>366.0</ele><time>2026-04-04T15:18:04.725Z</time></trkpt><trkpt lat="43.2477767" lon="13.010875"><ele>366.0</ele><time>2026-04-04T15:18:05.726Z</time></trkpt><trkpt lat="43.2478383" lon="13.010825"><ele>366.0</ele><time>2026-04-04T15:18:06.725Z</time></trkpt><trkpt lat="43.2479" lon="13.0107733"><ele>366.0</ele><time>2026-04-04T15:18:07.727Z</time></trkpt><trkpt lat="43.2479583" lon="13.0107217"><ele>366.0</ele><time>2026-04-04T15:18:08.728Z</time></trkpt><trkpt lat="43.24801" lon="13.0106717"><ele>366.0</ele><time>2026-04-04T15:18:09.727Z</time></trkpt><trkpt lat="43.248065" lon="13.0106233"><ele>366.0</ele><time>2026-04-04T15:18:10.727Z</time></trkpt><trkpt lat="43.2481283" lon="13.0105833"><ele>366.0</ele><time>2026-04-04T15:18:11.726Z</time></trkpt><trkpt lat="43.2482067" lon="13.010545"><ele>366.0</ele><time>2026-04-04T15:18:12.729Z</time></trkpt><trkpt lat="43.24829" lon="13.0105083"><ele>366.0</ele><time>2026-04-04T15:18:13.726Z</time></trkpt><trkpt lat="43.2483717" lon="13.010475"><ele>366.0</ele><time>2026-04-04T15:18:14.735Z</time></trkpt><trkpt lat="43.2484517" lon="13.0104433"><ele>365.1666666666667</ele><time>2026-04-04T15:18:15.73Z</time></trkpt><trkpt lat="43.24853" lon="13.0104067"><ele>364.3333333333333</ele><time>2026-04-04T15:18:16.729Z</time></trkpt><trkpt lat="43.2486083" lon="13.0103667"><ele>363.5</ele><time>2026-04-04T15:18:17.727Z</time></trkpt><trkpt lat="43.2486867" lon="13.0103317"><ele>362.66666666666663</ele><time>2026-04-04T15:18:18.724Z</time></trkpt><trkpt lat="43.248765" lon="13.01029"><ele>361.8333333333333</ele><time>2026-04-04T15:18:19.727Z</time></trkpt><trkpt lat="43.24885" lon="13.0102533"><ele>361.0</ele><time>2026-04-04T15:18:20.728Z</time></trkpt><trkpt lat="43.2489367" lon="13.0102117"><ele>361.0</ele><time>2026-04-04T15:18:21.726Z</time></trkpt><trkpt lat="43.249025" lon="13.0101733"><ele>361.0</ele><time>2026-04-04T15:18:22.726Z</time></trkpt><trkpt lat="43.2491133" lon="13.0101367"><ele>361.0</ele><time>2026-04-04T15:18:23.73Z</time></trkpt><trkpt lat="43.2492067" lon="13.0100933"><ele>361.0</ele><time>2026-04-04T15:18:24.727Z</time></trkpt><trkpt lat="43.2493067" lon="13.010045"><ele>361.0</ele><time>2026-04-04T15:18:25.729Z</time></trkpt><trkpt lat="43.2494033" lon="13.01"><ele>361.0</ele><time>2026-04-04T15:18:26.73Z</time></trkpt><trkpt lat="43.2494917" lon="13.009955"><ele>361.0</ele><time>2026-04-04T15:18:27.728Z</time></trkpt><trkpt lat="43.2495833" lon="13.009915"><ele>361.0</ele><time>2026-04-04T15:18:28.727Z</time></trkpt><trkpt lat="43.24968" lon="13.0098767"><ele>361.0</ele><time>2026-04-04T15:18:29.729Z</time></trkpt><trkpt lat="43.2497817" lon="13.0098283"><ele>361.0</ele><time>2026-04-04T15:18:30.732Z</time></trkpt><trkpt lat="43.2498817" lon="13.00978"><ele>361.0</ele><time>2026-04-04T15:18:31.728Z</time></trkpt><trkpt lat="43.2499817" lon="13.00973"><ele>361.0</ele><time>2026-04-04T15:18:32.728Z</time></trkpt><trkpt lat="43.25008" lon="13.009675"><ele>361.0</ele><time>2026-04-04T15:18:33.727Z</time></trkpt><trkpt lat="43.2501783" lon="13.00963"><ele>361.0</ele><time>2026-04-04T15:18:34.728Z</time></trkpt><trkpt lat="43.2502817" lon="13.00958"><ele>361.0</ele><time>2026-04-04T15:18:35.73Z</time></trkpt><trkpt lat="43.25038" lon="13.0095233"><ele>361.0</ele><time>2026-04-04T15:18:36.73Z</time></trkpt><trkpt lat="43.2504783" lon="13.0094567"><ele>361.0</ele><time>2026-04-04T15:18:37.728Z</time></trkpt><trkpt lat="43.250575" lon="13.0094083"><ele>361.0</ele><time>2026-04-04T15:18:38.73Z</time></trkpt><trkpt lat="43.2506583" lon="13.009355"><ele>361.0</ele><time>2026-04-04T15:18:39.729Z</time></trkpt><trkpt lat="43.250735" lon="13.0093083"><ele>361.0</ele><time>2026-04-04T15:18:40.73Z</time></trkpt><trkpt lat="43.2508083" lon="13.0092733"><ele>360.8</ele><time>2026-04-04T15:18:41.729Z</time></trkpt><trkpt lat="43.2509017" lon="13.0092467"><ele>360.6</ele><time>2026-04-04T15:18:42.726Z</time></trkpt><trkpt lat="43.251005" lon="13.0092317"><ele>360.4</ele><time>2026-04-04T15:18:43.729Z</time></trkpt><trkpt lat="43.2511" lon="13.0092267"><ele>360.2</ele><time>2026-04-04T15:18:44.726Z</time></trkpt><trkpt lat="43.2512117" lon="13.0092417"><ele>360.0</ele><time>2026-04-04T15:18:45.731Z</time></trkpt><trkpt lat="43.25134" lon="13.009255"><ele>359.5</ele><time>2026-04-04T15:18:46.727Z</time></trkpt><trkpt lat="43.2514817" lon="13.0092683"><ele>359.0</ele><time>2026-04-04T15:18:47.728Z</time></trkpt><trkpt lat="43.251625" lon="13.0092733"><ele>358.5</ele><time>2026-04-04T15:18:48.727Z</time></trkpt><trkpt lat="43.2517667" lon="13.0092767"><ele>358.0</ele><time>2026-04-04T15:18:49.728Z</time></trkpt><trkpt lat="43.2519033" lon="13.0092767"><ele>358.0</ele><time>2026-04-04T15:18:50.729Z</time></trkpt><trkpt lat="43.2520417" lon="13.0092767"><ele>358.0</ele><time>2026-04-04T15:18:51.73Z</time></trkpt><trkpt lat="43.2521733" lon="13.00928"><ele>358.0</ele><time>2026-04-04T15:18:52.728Z</time></trkpt><trkpt lat="43.252305" lon="13.0092867"><ele>358.0</ele><time>2026-04-04T15:18:53.724Z</time></trkpt><trkpt lat="43.2524333" lon="13.0092933"><ele>357.59999999999997</ele><time>2026-04-04T15:18:54.727Z</time></trkpt><trkpt lat="43.2525517" lon="13.0093033"><ele>357.2</ele><time>2026-04-04T15:18:55.729Z</time></trkpt><trkpt lat="43.252655" lon="13.0093133"><ele>356.8</ele><time>2026-04-04T15:18:56.73Z</time></trkpt><trkpt lat="43.2527517" lon="13.0093317"><ele>356.4</ele><time>2026-04-04T15:18:57.725Z</time></trkpt><trkpt lat="43.252845" lon="13.0093533"><ele>356.0</ele><time>2026-04-04T15:18:58.729Z</time></trkpt><trkpt lat="43.252935" lon="13.00938"><ele>356.0</ele><time>2026-04-04T15:18:59.728Z</time></trkpt><trkpt lat="43.2530317" lon="13.0094183"><ele>356.0</ele><time>2026-04-04T15:19:00.726Z</time></trkpt><trkpt lat="43.253135" lon="13.0094617"><ele>356.0</ele><time>2026-04-04T15:19:01.726Z</time></trkpt><trkpt lat="43.25324" lon="13.0095117"><ele>356.0</ele><time>2026-04-04T15:19:02.729Z</time></trkpt><trkpt lat="43.2533383" lon="13.009555"><ele>356.0</ele><time>2026-04-04T15:19:03.729Z</time></trkpt><trkpt lat="43.253445" lon="13.0095967"><ele>355.25</ele><time>2026-04-04T15:19:04.732Z</time></trkpt><trkpt lat="43.25355" lon="13.009645"><ele>354.5</ele><time>2026-04-04T15:19:05.728Z</time></trkpt><trkpt lat="43.2536667" lon="13.009695"><ele>353.75</ele><time>2026-04-04T15:19:06.73Z</time></trkpt><trkpt lat="43.2537933" lon="13.00973"><ele>353.0</ele><time>2026-04-04T15:19:07.73Z</time></trkpt><trkpt lat="43.25393" lon="13.00974"><ele>353.25</ele><time>2026-04-04T15:19:08.728Z</time></trkpt><trkpt lat="43.2540683" lon="13.009745"><ele>353.5</ele><time>2026-04-04T15:19:09.731Z</time></trkpt><trkpt lat="43.2542" lon="13.0097383"><ele>353.75</ele><time>2026-04-04T15:19:10.73Z</time></trkpt><trkpt lat="43.2543233" lon="13.0097267"><ele>354.0</ele><time>2026-04-04T15:19:11.727Z</time></trkpt><trkpt lat="43.2544367" lon="13.0097133"><ele>354.0</ele><time>2026-04-04T15:19:12.731Z</time></trkpt><trkpt lat="43.25455" lon="13.0097067"><ele>354.0</ele><time>2026-04-04T15:19:13.726Z</time></trkpt><trkpt lat="43.2546667" lon="13.0096933"><ele>354.0</ele><time>2026-04-04T15:19:14.726Z</time></trkpt><trkpt lat="43.2547783" lon="13.009675"><ele>354.0</ele><time>2026-04-04T15:19:15.729Z</time></trkpt><trkpt lat="43.2548983" lon="13.0096567"><ele>354.0</ele><time>2026-04-04T15:19:16.724Z</time></trkpt><trkpt lat="43.2550183" lon="13.0096567"><ele>354.0</ele><time>2026-04-04T15:19:17.726Z</time></trkpt><trkpt lat="43.2551283" lon="13.00969"><ele>354.0</ele><time>2026-04-04T15:19:18.726Z</time></trkpt><trkpt lat="43.255235" lon="13.009745"><ele>354.0</ele><time>2026-04-04T15:19:19.726Z</time></trkpt><trkpt lat="43.2553367" lon="13.009815"><ele>354.0</ele><time>2026-04-04T15:19:20.727Z</time></trkpt><trkpt lat="43.2554317" lon="13.009885"><ele>354.0</ele><time>2026-04-04T15:19:21.727Z</time></trkpt><trkpt lat="43.2555267" lon="13.00996"><ele>354.0</ele><time>2026-04-04T15:19:22.727Z</time></trkpt><trkpt lat="43.2556067" lon="13.01003"><ele>354.0</ele><time>2026-04-04T15:19:23.726Z</time></trkpt><trkpt lat="43.255685" lon="13.010105"><ele>354.0</ele><time>2026-04-04T15:19:24.727Z</time></trkpt><trkpt lat="43.2557667" lon="13.0101983"><ele>352.5</ele><time>2026-04-04T15:19:25.728Z</time></trkpt><trkpt lat="43.2558467" lon="13.010305"><ele>351.0</ele><time>2026-04-04T15:19:26.732Z</time></trkpt><trkpt lat="43.255935" lon="13.0104033"><ele>349.5</ele><time>2026-04-04T15:19:27.726Z</time></trkpt><trkpt lat="43.256025" lon="13.0105"><ele>348.0</ele><time>2026-04-04T15:19:28.729Z</time></trkpt><trkpt lat="43.25611" lon="13.0106017"><ele>348.0</ele><time>2026-04-04T15:19:29.73Z</time></trkpt><trkpt lat="43.2561933" lon="13.010705"><ele>348.0</ele><time>2026-04-04T15:19:30.728Z</time></trkpt><trkpt lat="43.2562783" lon="13.0107983"><ele>348.0</ele><time>2026-04-04T15:19:31.727Z</time></trkpt><trkpt lat="43.25636" lon="13.0108833"><ele>348.0</ele><time>2026-04-04T15:19:32.728Z</time></trkpt><trkpt lat="43.2564433" lon="13.0109683"><ele>348.0</ele><time>2026-04-04T15:19:33.729Z</time></trkpt><trkpt lat="43.256525" lon="13.01106"><ele>347.4</ele><time>2026-04-04T15:19:34.729Z</time></trkpt><trkpt lat="43.2566117" lon="13.0111533"><ele>346.79999999999995</ele><time>2026-04-04T15:19:35.729Z</time></trkpt><trkpt lat="43.2567033" lon="13.01124"><ele>346.2</ele><time>2026-04-04T15:19:36.728Z</time></trkpt><trkpt lat="43.256795" lon="13.01132"><ele>345.6</ele><time>2026-04-04T15:19:37.727Z</time></trkpt><trkpt lat="43.2568883" lon="13.0114017"><ele>345.0</ele><time>2026-04-04T15:19:38.73Z</time></trkpt><trkpt lat="43.256985" lon="13.0114917"><ele>345.0</ele><time>2026-04-04T15:19:39.729Z</time></trkpt><trkpt lat="43.2570817" lon="13.0115783"><ele>345.0</ele><time>2026-04-04T15:19:40.728Z</time></trkpt><trkpt lat="43.2571783" lon="13.0116633"><ele>345.0</ele><time>2026-04-04T15:19:41.727Z</time></trkpt><trkpt lat="43.2572733" lon="13.0117467"><ele>345.0</ele><time>2026-04-04T15:19:42.728Z</time></trkpt><trkpt lat="43.2573667" lon="13.0118133"><ele>345.0</ele><time>2026-04-04T15:19:43.726Z</time></trkpt><trkpt lat="43.25746" lon="13.0118767"><ele>344.0</ele><time>2026-04-04T15:19:44.735Z</time></trkpt><trkpt lat="43.2575667" lon="13.01192"><ele>343.0</ele><time>2026-04-04T15:19:45.726Z</time></trkpt><trkpt lat="43.257685" lon="13.0119433"><ele>342.0</ele><time>2026-04-04T15:19:46.727Z</time></trkpt><trkpt lat="43.2578067" lon="13.0119483"><ele>341.0</ele><time>2026-04-04T15:19:47.73Z</time></trkpt><trkpt lat="43.2579333" lon="13.0119467"><ele>341.0</ele><time>2026-04-04T15:19:48.726Z</time></trkpt><trkpt lat="43.25806" lon="13.0119533"><ele>341.0</ele><time>2026-04-04T15:19:49.726Z</time></trkpt><trkpt lat="43.25818" lon="13.0119583"><ele>341.0</ele><time>2026-04-04T15:19:50.726Z</time></trkpt><trkpt lat="43.258305" lon="13.0119567"><ele>341.0</ele><time>2026-04-04T15:19:51.727Z</time></trkpt><trkpt lat="43.258425" lon="13.0119617"><ele>341.0</ele><time>2026-04-04T15:19:52.725Z</time></trkpt><trkpt lat="43.2585467" lon="13.0119783"><ele>341.0</ele><time>2026-04-04T15:19:53.728Z</time></trkpt><trkpt lat="43.258665" lon="13.01201"><ele>341.0</ele><time>2026-04-04T15:19:54.727Z</time></trkpt><trkpt lat="43.25878" lon="13.012055"><ele>341.0</ele><time>2026-04-04T15:19:55.728Z</time></trkpt><trkpt lat="43.2588917" lon="13.0121067"><ele>340.5</ele><time>2026-04-04T15:19:56.731Z</time></trkpt><trkpt lat="43.2589983" lon="13.0121683"><ele>340.0</ele><time>2026-04-04T15:19:57.726Z</time></trkpt><trkpt lat="43.2591033" lon="13.012235"><ele>339.5</ele><time>2026-04-04T15:19:58.726Z</time></trkpt><trkpt lat="43.2592033" lon="13.0122983"><ele>339.0</ele><time>2026-04-04T15:19:59.726Z</time></trkpt><trkpt lat="43.2593033" lon="13.012355"><ele>339.0</ele><time>2026-04-04T15:20:00.727Z</time></trkpt><trkpt lat="43.2594033" lon="13.0124183"><ele>339.0</ele><time>2026-04-04T15:20:01.73Z</time></trkpt><trkpt lat="43.2594967" lon="13.0124767"><ele>339.0</ele><time>2026-04-04T15:20:02.726Z</time></trkpt><trkpt lat="43.2595867" lon="13.012535"><ele>339.0</ele><time>2026-04-04T15:20:03.727Z</time></trkpt><trkpt lat="43.25967" lon="13.0125917"><ele>339.0</ele><time>2026-04-04T15:20:04.726Z</time></trkpt><trkpt lat="43.2597483" lon="13.0126433"><ele>339.5</ele><time>2026-04-04T15:20:05.729Z</time></trkpt><trkpt lat="43.2598167" lon="13.0126983"><ele>340.0</ele><time>2026-04-04T15:20:06.725Z</time></trkpt><trkpt lat="43.2598783" lon="13.0127617"><ele>340.5</ele><time>2026-04-04T15:20:07.725Z</time></trkpt><trkpt lat="43.2599267" lon="13.0128283"><ele>341.0</ele><time>2026-04-04T15:20:08.729Z</time></trkpt><trkpt lat="43.26004" lon="13.0129017"><ele>341.5</ele><time>2026-04-04T15:20:10.729Z</time></trkpt><trkpt lat="43.2601033" lon="13.0128967"><ele>342.0</ele><time>2026-04-04T15:20:11.725Z</time></trkpt><trkpt lat="43.2602067" lon="13.012835"><ele>342.0</ele><time>2026-04-04T15:20:13.725Z</time></trkpt><trkpt lat="43.2603183" lon="13.0127333"><ele>342.0</ele><time>2026-04-04T15:20:15.727Z</time></trkpt><trkpt lat="43.2603883" lon="13.01267"><ele>342.0</ele><time>2026-04-04T15:20:16.728Z</time></trkpt><trkpt lat="43.2604733" lon="13.0126033"><ele>342.0</ele><time>2026-04-04T15:20:17.727Z</time></trkpt><trkpt lat="43.2605667" lon="13.0125583"><ele>342.0</ele><time>2026-04-04T15:20:18.727Z</time></trkpt><trkpt lat="43.2606517" lon="13.0125217"><ele>342.8</ele><time>2026-04-04T15:20:19.726Z</time></trkpt><trkpt lat="43.2607467" lon="13.0124917"><ele>343.6</ele><time>2026-04-04T15:20:20.728Z</time></trkpt><trkpt lat="43.2608483" lon="13.01246"><ele>344.40000000000003</ele><time>2026-04-04T15:20:21.73Z</time></trkpt><trkpt lat="43.2609567" lon="13.0124333"><ele>345.20000000000005</ele><time>2026-04-04T15:20:22.728Z</time></trkpt><trkpt lat="43.2610717" lon="13.0124"><ele>346.0</ele><time>2026-04-04T15:20:23.73Z</time></trkpt><trkpt lat="43.2611933" lon="13.0123583"><ele>346.0</ele><time>2026-04-04T15:20:24.726Z</time></trkpt><trkpt lat="43.2613233" lon="13.0122983"><ele>346.0</ele><time>2026-04-04T15:20:25.728Z</time></trkpt><trkpt lat="43.2614467" lon="13.0122267"><ele>346.0</ele><time>2026-04-04T15:20:26.729Z</time></trkpt><trkpt lat="43.2615517" lon="13.01215"><ele>346.0</ele><time>2026-04-04T15:20:27.724Z</time></trkpt><trkpt lat="43.2616433" lon="13.01207"><ele>346.0</ele><time>2026-04-04T15:20:28.728Z</time></trkpt><trkpt lat="43.2617383" lon="13.0119783"><ele>346.0</ele><time>2026-04-04T15:20:29.726Z</time></trkpt><trkpt lat="43.2618333" lon="13.011875"><ele>346.0</ele><time>2026-04-04T15:20:30.725Z</time></trkpt><trkpt lat="43.2619233" lon="13.0117567"><ele>346.0</ele><time>2026-04-04T15:20:31.729Z</time></trkpt><trkpt lat="43.2620033" lon="13.0116367"><ele>345.75</ele><time>2026-04-04T15:20:32.73Z</time></trkpt><trkpt lat="43.2620767" lon="13.0115067"><ele>345.5</ele><time>2026-04-04T15:20:33.726Z</time></trkpt><trkpt lat="43.2621467" lon="13.0113733"><ele>345.25</ele><time>2026-04-04T15:20:34.725Z</time></trkpt><trkpt lat="43.26221" lon="13.0112467"><ele>345.0</ele><time>2026-04-04T15:20:35.727Z</time></trkpt><trkpt lat="43.2622683" lon="13.0111183"><ele>345.0</ele><time>2026-04-04T15:20:36.726Z</time></trkpt><trkpt lat="43.2623217" lon="13.0109983"><ele>345.0</ele><time>2026-04-04T15:20:37.727Z</time></trkpt><trkpt lat="43.262375" lon="13.01088"><ele>345.0</ele><time>2026-04-04T15:20:38.727Z</time></trkpt><trkpt lat="43.262435" lon="13.0107617"><ele>345.0</ele><time>2026-04-04T15:20:39.725Z</time></trkpt><trkpt lat="43.262495" lon="13.0106483"><ele>345.0</ele><time>2026-04-04T15:20:40.72Z</time></trkpt><trkpt lat="43.2625533" lon="13.0105383"><ele>345.0</ele><time>2026-04-04T15:20:41.722Z</time></trkpt><trkpt lat="43.2626117" lon="13.01044"><ele>345.0</ele><time>2026-04-04T15:20:42.726Z</time></trkpt><trkpt lat="43.262665" lon="13.0103617"><ele>345.0</ele><time>2026-04-04T15:20:43.728Z</time></trkpt><trkpt lat="43.2627233" lon="13.0102883"><ele>345.0</ele><time>2026-04-04T15:20:44.726Z</time></trkpt><trkpt lat="43.26278" lon="13.0102217"><ele>345.0</ele><time>2026-04-04T15:20:45.726Z</time></trkpt><trkpt lat="43.26286" lon="13.01014"><ele>345.0</ele><time>2026-04-04T15:20:47.726Z</time></trkpt><trkpt lat="43.262925" lon="13.0100983"><ele>345.0</ele><time>2026-04-04T15:20:48.727Z</time></trkpt><trkpt lat="43.2629933" lon="13.0100333"><ele>345.0</ele><time>2026-04-04T15:20:49.726Z</time></trkpt><trkpt lat="43.2630567" lon="13.0099483"><ele>345.0</ele><time>2026-04-04T15:20:50.727Z</time></trkpt><trkpt lat="43.2631133" lon="13.0098617"><ele>345.0</ele><time>2026-04-04T15:20:51.721Z</time></trkpt><trkpt lat="43.2631617" lon="13.0097533"><ele>345.0</ele><time>2026-04-04T15:20:52.726Z</time></trkpt><trkpt lat="43.2632033" lon="13.00963"><ele>345.0</ele><time>2026-04-04T15:20:53.724Z</time></trkpt><trkpt lat="43.2632567" lon="13.0095167"><ele>344.4</ele><time>2026-04-04T15:20:54.725Z</time></trkpt><trkpt lat="43.2633183" lon="13.0094083"><ele>343.8</ele><time>2026-04-04T15:20:55.731Z</time></trkpt><trkpt lat="43.2633833" lon="13.0093117"><ele>343.20000000000005</ele><time>2026-04-04T15:20:56.723Z</time></trkpt><trkpt lat="43.26345" lon="13.0092117"><ele>342.6</ele><time>2026-04-04T15:20:57.728Z</time></trkpt><trkpt lat="43.2635233" lon="13.0091167"><ele>342.0</ele><time>2026-04-04T15:20:58.726Z</time></trkpt><trkpt lat="43.2636017" lon="13.0090217"><ele>341.40000000000003</ele><time>2026-04-04T15:20:59.73Z</time></trkpt><trkpt lat="43.2636833" lon="13.0089383"><ele>340.8</ele><time>2026-04-04T15:21:00.727Z</time></trkpt><trkpt lat="43.2637717" lon="13.0088683"><ele>340.2</ele><time>2026-04-04T15:21:01.726Z</time></trkpt><trkpt lat="43.263865" lon="13.0088167"><ele>339.6</ele><time>2026-04-04T15:21:02.727Z</time></trkpt><trkpt lat="43.2639583" lon="13.00878"><ele>339.0</ele><time>2026-04-04T15:21:03.727Z</time></trkpt><trkpt lat="43.26405" lon="13.0087467"><ele>339.0</ele><time>2026-04-04T15:21:04.726Z</time></trkpt><trkpt lat="43.264145" lon="13.008715"><ele>339.0</ele><time>2026-04-04T15:21:05.727Z</time></trkpt><trkpt lat="43.2642383" lon="13.0086867"><ele>339.0</ele><time>2026-04-04T15:21:06.728Z</time></trkpt><trkpt lat="43.2643383" lon="13.0086533"><ele>339.0</ele><time>2026-04-04T15:21:07.725Z</time></trkpt><trkpt lat="43.2644467" lon="13.00862"><ele>339.0</ele><time>2026-04-04T15:21:08.725Z</time></trkpt><trkpt lat="43.2645617" lon="13.0085767"><ele>339.0</ele><time>2026-04-04T15:21:09.726Z</time></trkpt><trkpt lat="43.2646817" lon="13.0085283"><ele>339.0</ele><time>2026-04-04T15:21:10.724Z</time></trkpt><trkpt lat="43.2647967" lon="13.008485"><ele>339.0</ele><time>2026-04-04T15:21:11.724Z</time></trkpt><trkpt lat="43.2649083" lon="13.0084467"><ele>339.0</ele><time>2026-04-04T15:21:12.73Z</time></trkpt><trkpt lat="43.2650267" lon="13.0084"><ele>339.0</ele><time>2026-04-04T15:21:13.728Z</time></trkpt><trkpt lat="43.2651467" lon="13.0083533"><ele>339.0</ele><time>2026-04-04T15:21:14.727Z</time></trkpt><trkpt lat="43.26527" lon="13.00831"><ele>339.0</ele><time>2026-04-04T15:21:15.727Z</time></trkpt><trkpt lat="43.2653967" lon="13.008265"><ele>339.0</ele><time>2026-04-04T15:21:16.727Z</time></trkpt><trkpt lat="43.2655233" lon="13.0082167"><ele>338.25</ele><time>2026-04-04T15:21:17.725Z</time></trkpt><trkpt lat="43.265655" lon="13.00817"><ele>337.5</ele><time>2026-04-04T15:21:18.724Z</time></trkpt><trkpt lat="43.26579" lon="13.0081183"><ele>336.75</ele><time>2026-04-04T15:21:19.726Z</time></trkpt><trkpt lat="43.2659267" lon="13.0080683"><ele>336.0</ele><time>2026-04-04T15:21:20.725Z</time></trkpt><trkpt lat="43.2660617" lon="13.0080167"><ele>336.0</ele><time>2026-04-04T15:21:21.725Z</time></trkpt><trkpt lat="43.2661967" lon="13.0079667"><ele>336.0</ele><time>2026-04-04T15:21:22.729Z</time></trkpt><trkpt lat="43.266335" lon="13.0079167"><ele>336.0</ele><time>2026-04-04T15:21:23.723Z</time></trkpt><trkpt lat="43.26647" lon="13.0078633"><ele>336.0</ele><time>2026-04-04T15:21:24.726Z</time></trkpt><trkpt lat="43.2666033" lon="13.0078117"><ele>336.75</ele><time>2026-04-04T15:21:25.728Z</time></trkpt><trkpt lat="43.26674" lon="13.0077617"><ele>337.5</ele><time>2026-04-04T15:21:26.728Z</time></trkpt><trkpt lat="43.2668783" lon="13.0077067"><ele>338.25</ele><time>2026-04-04T15:21:27.728Z</time></trkpt><trkpt lat="43.267015" lon="13.0076517"><ele>339.0</ele><time>2026-04-04T15:21:28.725Z</time></trkpt><trkpt lat="43.267155" lon="13.0075917"><ele>339.0</ele><time>2026-04-04T15:21:29.727Z</time></trkpt><trkpt lat="43.2672967" lon="13.0075383"><ele>339.0</ele><time>2026-04-04T15:21:30.729Z</time></trkpt><trkpt lat="43.2674367" lon="13.0074883"><ele>339.0</ele><time>2026-04-04T15:21:31.727Z</time></trkpt><trkpt lat="43.2675767" lon="13.0074367"><ele>339.0</ele><time>2026-04-04T15:21:32.725Z</time></trkpt><trkpt lat="43.2677217" lon="13.007385"><ele>338.5</ele><time>2026-04-04T15:21:33.724Z</time></trkpt><trkpt lat="43.2678667" lon="13.0073283"><ele>338.0</ele><time>2026-04-04T15:21:34.727Z</time></trkpt><trkpt lat="43.26801" lon="13.0072717"><ele>337.5</ele><time>2026-04-04T15:21:35.726Z</time></trkpt><trkpt lat="43.2681533" lon="13.0072133"><ele>337.0</ele><time>2026-04-04T15:21:36.725Z</time></trkpt><trkpt lat="43.2682917" lon="13.0071633"><ele>337.0</ele><time>2026-04-04T15:21:37.725Z</time></trkpt><trkpt lat="43.268425" lon="13.0071167"><ele>337.0</ele><time>2026-04-04T15:21:38.724Z</time></trkpt><trkpt lat="43.26856" lon="13.00706"><ele>337.0</ele><time>2026-04-04T15:21:39.725Z</time></trkpt><trkpt lat="43.2686967" lon="13.0070033"><ele>337.0</ele><time>2026-04-04T15:21:40.726Z</time></trkpt><trkpt lat="43.2688367" lon="13.0069533"><ele>336.25</ele><time>2026-04-04T15:21:41.725Z</time></trkpt><trkpt lat="43.268975" lon="13.0069"><ele>335.5</ele><time>2026-04-04T15:21:42.727Z</time></trkpt><trkpt lat="43.2691067" lon="13.00685"><ele>334.75</ele><time>2026-04-04T15:21:43.725Z</time></trkpt><trkpt lat="43.2692367" lon="13.0067917"><ele>334.0</ele><time>2026-04-04T15:21:44.728Z</time></trkpt><trkpt lat="43.2693667" lon="13.0067317"><ele>334.0</ele><time>2026-04-04T15:21:45.726Z</time></trkpt><trkpt lat="43.2695017" lon="13.00667"><ele>334.0</ele><time>2026-04-04T15:21:46.726Z</time></trkpt><trkpt lat="43.2696367" lon="13.0066133"><ele>334.0</ele><time>2026-04-04T15:21:47.724Z</time></trkpt><trkpt lat="43.2697733" lon="13.006555"><ele>334.0</ele><time>2026-04-04T15:21:48.726Z</time></trkpt><trkpt lat="43.2699067" lon="13.0064933"><ele>333.75</ele><time>2026-04-04T15:21:49.728Z</time></trkpt><trkpt lat="43.270045" lon="13.006435"><ele>333.5</ele><time>2026-04-04T15:21:50.725Z</time></trkpt><trkpt lat="43.2701767" lon="13.006375"><ele>333.25</ele><time>2026-04-04T15:21:51.727Z</time></trkpt><trkpt lat="43.270305" lon="13.00631"><ele>333.0</ele><time>2026-04-04T15:21:52.728Z</time></trkpt><trkpt lat="43.2704317" lon="13.0062467"><ele>333.0</ele><time>2026-04-04T15:21:53.724Z</time></trkpt><trkpt lat="43.2705583" lon="13.0061867"><ele>333.0</ele><time>2026-04-04T15:21:54.724Z</time></trkpt><trkpt lat="43.2706883" lon="13.006125"><ele>333.0</ele><time>2026-04-04T15:21:55.725Z</time></trkpt><trkpt lat="43.2708217" lon="13.0060667"><ele>333.0</ele><time>2026-04-04T15:21:56.729Z</time></trkpt><trkpt lat="43.2709533" lon="13.0060117"><ele>332.75</ele><time>2026-04-04T15:21:57.724Z</time></trkpt><trkpt lat="43.2710867" lon="13.0059533"><ele>332.5</ele><time>2026-04-04T15:21:58.727Z</time></trkpt><trkpt lat="43.27122" lon="13.0058933"><ele>332.25</ele><time>2026-04-04T15:21:59.727Z</time></trkpt><trkpt lat="43.271345" lon="13.005835"><ele>332.0</ele><time>2026-04-04T15:22:00.727Z</time></trkpt><trkpt lat="43.2714667" lon="13.0057767"><ele>331.0</ele><time>2026-04-04T15:22:01.735Z</time></trkpt><trkpt lat="43.2715833" lon="13.0057183"><ele>330.0</ele><time>2026-04-04T15:22:02.726Z</time></trkpt><trkpt lat="43.2717033" lon="13.00566"><ele>329.0</ele><time>2026-04-04T15:22:03.727Z</time></trkpt><trkpt lat="43.271835" lon="13.0055917"><ele>328.0</ele><time>2026-04-04T15:22:04.731Z</time></trkpt><trkpt lat="43.2719683" lon="13.0055283"><ele>328.0</ele><time>2026-04-04T15:22:05.726Z</time></trkpt><trkpt lat="43.2721017" lon="13.0054567"><ele>328.0</ele><time>2026-04-04T15:22:06.728Z</time></trkpt><trkpt lat="43.2722283" lon="13.0053917"><ele>328.0</ele><time>2026-04-04T15:22:07.726Z</time></trkpt><trkpt lat="43.2723533" lon="13.005325"><ele>328.0</ele><time>2026-04-04T15:22:08.729Z</time></trkpt><trkpt lat="43.2724817" lon="13.0052667"><ele>328.0</ele><time>2026-04-04T15:22:09.725Z</time></trkpt><trkpt lat="43.2726117" lon="13.005205"><ele>328.0</ele><time>2026-04-04T15:22:10.725Z</time></trkpt><trkpt lat="43.2727433" lon="13.0051433"><ele>328.0</ele><time>2026-04-04T15:22:11.729Z</time></trkpt><trkpt lat="43.272875" lon="13.0050833"><ele>328.0</ele><time>2026-04-04T15:22:12.728Z</time></trkpt><trkpt lat="43.27301" lon="13.005025"><ele>328.25</ele><time>2026-04-04T15:22:13.726Z</time></trkpt><trkpt lat="43.2731517" lon="13.00497"><ele>328.5</ele><time>2026-04-04T15:22:14.728Z</time></trkpt><trkpt lat="43.273295" lon="13.0049083"><ele>328.75</ele><time>2026-04-04T15:22:15.725Z</time></trkpt><trkpt lat="43.273435" lon="13.00485"><ele>329.0</ele><time>2026-04-04T15:22:16.726Z</time></trkpt><trkpt lat="43.2735733" lon="13.0047917"><ele>329.0</ele><time>2026-04-04T15:22:17.725Z</time></trkpt><trkpt lat="43.27371" lon="13.0047383"><ele>329.0</ele><time>2026-04-04T15:22:18.727Z</time></trkpt><trkpt lat="43.2738467" lon="13.0046817"><ele>329.0</ele><time>2026-04-04T15:22:19.727Z</time></trkpt><trkpt lat="43.273985" lon="13.0046267"><ele>329.0</ele><time>2026-04-04T15:22:20.727Z</time></trkpt><trkpt lat="43.2741283" lon="13.0045667"><ele>328.5</ele><time>2026-04-04T15:22:21.726Z</time></trkpt><trkpt lat="43.2742717" lon="13.00451"><ele>328.0</ele><time>2026-04-04T15:22:22.723Z</time></trkpt><trkpt lat="43.2744133" lon="13.0044567"><ele>327.5</ele><time>2026-04-04T15:22:23.724Z</time></trkpt><trkpt lat="43.2745533" lon="13.0044033"><ele>327.0</ele><time>2026-04-04T15:22:24.727Z</time></trkpt><trkpt lat="43.274695" lon="13.00435"><ele>326.5</ele><time>2026-04-04T15:22:25.726Z</time></trkpt><trkpt lat="43.274835" lon="13.00429"><ele>326.0</ele><time>2026-04-04T15:22:26.732Z</time></trkpt><trkpt lat="43.2749717" lon="13.0042267"><ele>325.5</ele><time>2026-04-04T15:22:27.725Z</time></trkpt><trkpt lat="43.275105" lon="13.0041683"><ele>325.0</ele><time>2026-04-04T15:22:28.723Z</time></trkpt><trkpt lat="43.275235" lon="13.0041133"><ele>325.0</ele><time>2026-04-04T15:22:29.726Z</time></trkpt><trkpt lat="43.275365" lon="13.004055"><ele>325.0</ele><time>2026-04-04T15:22:30.724Z</time></trkpt><trkpt lat="43.27549" lon="13.0039933"><ele>325.0</ele><time>2026-04-04T15:22:31.73Z</time></trkpt><trkpt lat="43.275615" lon="13.00393"><ele>325.0</ele><time>2026-04-04T15:22:32.726Z</time></trkpt><trkpt lat="43.2757383" lon="13.0038617"><ele>324.25</ele><time>2026-04-04T15:22:33.728Z</time></trkpt><trkpt lat="43.2758517" lon="13.003785"><ele>323.5</ele><time>2026-04-04T15:22:34.727Z</time></trkpt><trkpt lat="43.2759667" lon="13.0037017"><ele>322.75</ele><time>2026-04-04T15:22:35.728Z</time></trkpt><trkpt lat="43.2760683" lon="13.0036033"><ele>322.0</ele><time>2026-04-04T15:22:36.726Z</time></trkpt><trkpt lat="43.27616" lon="13.0035017"><ele>322.0</ele><time>2026-04-04T15:22:37.727Z</time></trkpt><trkpt lat="43.27625" lon="13.0034117"><ele>322.0</ele><time>2026-04-04T15:22:38.73Z</time></trkpt><trkpt lat="43.2763517" lon="13.0033533"><ele>322.0</ele><time>2026-04-04T15:22:39.728Z</time></trkpt><trkpt lat="43.2764633" lon="13.0033117"><ele>322.0</ele><time>2026-04-04T15:22:40.727Z</time></trkpt><trkpt lat="43.2765783" lon="13.0032633"><ele>320.25</ele><time>2026-04-04T15:22:41.728Z</time></trkpt><trkpt lat="43.2767" lon="13.0032083"><ele>318.5</ele><time>2026-04-04T15:22:42.727Z</time></trkpt><trkpt lat="43.2768283" lon="13.00316"><ele>316.75</ele><time>2026-04-04T15:22:43.724Z</time></trkpt><trkpt lat="43.2769667" lon="13.0031317"><ele>315.0</ele><time>2026-04-04T15:22:44.727Z</time></trkpt><trkpt lat="43.277115" lon="13.0031217"><ele>314.3333333333333</ele><time>2026-04-04T15:22:45.727Z</time></trkpt><trkpt lat="43.277275" lon="13.00312"><ele>313.66666666666663</ele><time>2026-04-04T15:22:46.727Z</time></trkpt><trkpt lat="43.2774333" lon="13.0031133"><ele>313.0</ele><time>2026-04-04T15:22:47.726Z</time></trkpt><trkpt lat="43.27759" lon="13.0031033"><ele>313.0</ele><time>2026-04-04T15:22:48.727Z</time></trkpt><trkpt lat="43.2777433" lon="13.0030833"><ele>313.0</ele><time>2026-04-04T15:22:49.726Z</time></trkpt><trkpt lat="43.277895" lon="13.00305"><ele>313.0</ele><time>2026-04-04T15:22:50.731Z</time></trkpt><trkpt lat="43.2780483" lon="13.0030033"><ele>313.3333333333333</ele><time>2026-04-04T15:22:51.726Z</time></trkpt><trkpt lat="43.2782017" lon="13.0029483"><ele>313.6666666666667</ele><time>2026-04-04T15:22:52.725Z</time></trkpt><trkpt lat="43.2783567" lon="13.0028733"><ele>314.0</ele><time>2026-04-04T15:22:53.723Z</time></trkpt><trkpt lat="43.2785117" lon="13.002785"><ele>314.0</ele><time>2026-04-04T15:22:54.726Z</time></trkpt><trkpt lat="43.278665" lon="13.002685"><ele>314.0</ele><time>2026-04-04T15:22:55.724Z</time></trkpt><trkpt lat="43.2788167" lon="13.0025767"><ele>314.0</ele><time>2026-04-04T15:22:56.726Z</time></trkpt><trkpt lat="43.2789667" lon="13.0024633"><ele>312.6666666666667</ele><time>2026-04-04T15:22:57.723Z</time></trkpt><trkpt lat="43.2791183" lon="13.0023517"><ele>311.3333333333333</ele><time>2026-04-04T15:22:58.727Z</time></trkpt><trkpt lat="43.2792683" lon="13.002245"><ele>310.0</ele><time>2026-04-04T15:22:59.725Z</time></trkpt><trkpt lat="43.27942" lon="13.0021367"><ele>310.0</ele><time>2026-04-04T15:23:00.728Z</time></trkpt><trkpt lat="43.2795833" lon="13.0020217"><ele>310.0</ele><time>2026-04-04T15:23:01.724Z</time></trkpt><trkpt lat="43.2797517" lon="13.0019033"><ele>310.0</ele><time>2026-04-04T15:23:02.728Z</time></trkpt><trkpt lat="43.2799283" lon="13.001775"><ele>308.0</ele><time>2026-04-04T15:23:03.726Z</time></trkpt><trkpt lat="43.2801167" lon="13.0016233"><ele>306.0</ele><time>2026-04-04T15:23:04.726Z</time></trkpt><trkpt lat="43.2803367" lon="13.001465"><ele>306.0</ele><time>2026-04-04T15:23:05.727Z</time></trkpt><trkpt lat="43.280575" lon="13.0013067"><ele>306.0</ele><time>2026-04-04T15:23:06.73Z</time></trkpt><trkpt lat="43.28082" lon="13.0011467"><ele>304.5</ele><time>2026-04-04T15:23:07.738Z</time></trkpt><trkpt lat="43.28107" lon="13.0009817"><ele>303.0</ele><time>2026-04-04T15:23:08.729Z</time></trkpt><trkpt lat="43.2813117" lon="13.0008133"><ele>303.5</ele><time>2026-04-04T15:23:09.729Z</time></trkpt><trkpt lat="43.2815517" lon="13.0006417"><ele>304.0</ele><time>2026-04-04T15:23:10.727Z</time></trkpt><trkpt lat="43.2817933" lon="13.0004667"><ele>304.0</ele><time>2026-04-04T15:23:11.727Z</time></trkpt><trkpt lat="43.2820367" lon="13.00029"><ele>304.0</ele><time>2026-04-04T15:23:12.729Z</time></trkpt><trkpt lat="43.2822767" lon="13.00012"><ele>304.5</ele><time>2026-04-04T15:23:13.726Z</time></trkpt><trkpt lat="43.282515" lon="12.9999483"><ele>305.0</ele><time>2026-04-04T15:23:14.726Z</time></trkpt><trkpt lat="43.2827517" lon="12.99978"><ele>305.0</ele><time>2026-04-04T15:23:15.728Z</time></trkpt><trkpt lat="43.2829833" lon="12.99962"><ele>305.0</ele><time>2026-04-04T15:23:16.729Z</time></trkpt><trkpt lat="43.2832017" lon="12.9994683"><ele>304.0</ele><time>2026-04-04T15:23:17.723Z</time></trkpt><trkpt lat="43.28342" lon="12.9993167"><ele>303.0</ele><time>2026-04-04T15:23:18.721Z</time></trkpt><trkpt lat="43.2836383" lon="12.9991617"><ele>302.5</ele><time>2026-04-04T15:23:19.726Z</time></trkpt><trkpt lat="43.2838567" lon="12.9990117"><ele>302.0</ele><time>2026-04-04T15:23:20.73Z</time></trkpt><trkpt lat="43.2840783" lon="12.99886"><ele>302.0</ele><time>2026-04-04T15:23:21.729Z</time></trkpt><trkpt lat="43.2842983" lon="12.99871"><ele>302.0</ele><time>2026-04-04T15:23:22.725Z</time></trkpt><trkpt lat="43.2845217" lon="12.9985617"><ele>302.0</ele><time>2026-04-04T15:23:23.723Z</time></trkpt><trkpt lat="43.2847417" lon="12.9984217"><ele>302.0</ele><time>2026-04-04T15:23:24.729Z</time></trkpt><trkpt lat="43.284965" lon="12.9982833"><ele>303.0</ele><time>2026-04-04T15:23:25.728Z</time></trkpt><trkpt lat="43.2851883" lon="12.9981483"><ele>304.0</ele><time>2026-04-04T15:23:26.729Z</time></trkpt><trkpt lat="43.2854117" lon="12.9980183"><ele>305.3333333333333</ele><time>2026-04-04T15:23:27.726Z</time></trkpt><trkpt lat="43.28562" lon="12.9978933"><ele>306.6666666666667</ele><time>2026-04-04T15:23:28.727Z</time></trkpt><trkpt lat="43.28581" lon="12.9977633"><ele>308.0</ele><time>2026-04-04T15:23:29.728Z</time></trkpt><trkpt lat="43.2859783" lon="12.99762"><ele>307.33333333333337</ele><time>2026-04-04T15:23:30.724Z</time></trkpt><trkpt lat="43.2861233" lon="12.9974717"><ele>306.6666666666667</ele><time>2026-04-04T15:23:31.726Z</time></trkpt><trkpt lat="43.286255" lon="12.9973367"><ele>306.0</ele><time>2026-04-04T15:23:32.727Z</time></trkpt><trkpt lat="43.2863783" lon="12.9972067"><ele>306.5</ele><time>2026-04-04T15:23:33.724Z</time></trkpt><trkpt lat="43.2865" lon="12.9970983"><ele>307.0</ele><time>2026-04-04T15:23:34.727Z</time></trkpt><trkpt lat="43.286615" lon="12.9970133"><ele>307.5</ele><time>2026-04-04T15:23:35.727Z</time></trkpt><trkpt lat="43.2867283" lon="12.9969467"><ele>308.0</ele><time>2026-04-04T15:23:36.727Z</time></trkpt><trkpt lat="43.2868567" lon="12.99688"><ele>308.0</ele><time>2026-04-04T15:23:37.726Z</time></trkpt><trkpt lat="43.2870033" lon="12.996815"><ele>308.0</ele><time>2026-04-04T15:23:38.725Z</time></trkpt><trkpt lat="43.28716" lon="12.996745"><ele>308.0</ele><time>2026-04-04T15:23:39.726Z</time></trkpt><trkpt lat="43.287325" lon="12.9966667"><ele>308.33333333333337</ele><time>2026-04-04T15:23:40.722Z</time></trkpt><trkpt lat="43.2874933" lon="12.9965833"><ele>308.6666666666667</ele><time>2026-04-04T15:23:41.727Z</time></trkpt><trkpt lat="43.28767" lon="12.996495"><ele>309.0</ele><time>2026-04-04T15:23:42.73Z</time></trkpt><trkpt lat="43.2878583" lon="12.9963883"><ele>309.0</ele><time>2026-04-04T15:23:43.726Z</time></trkpt><trkpt lat="43.2880633" lon="12.996265"><ele>309.0</ele><time>2026-04-04T15:23:44.728Z</time></trkpt><trkpt lat="43.28828" lon="12.9961383"><ele>311.0</ele><time>2026-04-04T15:23:45.728Z</time></trkpt><trkpt lat="43.2885033" lon="12.996015"><ele>313.0</ele><time>2026-04-04T15:23:46.726Z</time></trkpt><trkpt lat="43.28874" lon="12.99589"><ele>311.0</ele><time>2026-04-04T15:23:47.728Z</time></trkpt><trkpt lat="43.2889867" lon="12.99576"><ele>309.0</ele><time>2026-04-04T15:23:48.73Z</time></trkpt><trkpt lat="43.2892367" lon="12.9956233"><ele>309.0</ele><time>2026-04-04T15:23:49.727Z</time></trkpt><trkpt lat="43.2894883" lon="12.9954867"><ele>309.0</ele><time>2026-04-04T15:23:50.727Z</time></trkpt><trkpt lat="43.2897383" lon="12.9953467"><ele>310.0</ele><time>2026-04-04T15:23:51.727Z</time></trkpt><trkpt lat="43.2899867" lon="12.9952083"><ele>311.0</ele><time>2026-04-04T15:23:52.728Z</time></trkpt><trkpt lat="43.2902333" lon="12.9950667"><ele>309.0</ele><time>2026-04-04T15:23:53.727Z</time></trkpt><trkpt lat="43.2904783" lon="12.9949283"><ele>307.0</ele><time>2026-04-04T15:23:54.728Z</time></trkpt><trkpt lat="43.290725" lon="12.994785"><ele>307.0</ele><time>2026-04-04T15:23:55.73Z</time></trkpt><trkpt lat="43.29097" lon="12.9946417"><ele>307.0</ele><time>2026-04-04T15:23:56.733Z</time></trkpt><trkpt lat="43.29122" lon="12.9945117"><ele>307.5</ele><time>2026-04-04T15:23:57.725Z</time></trkpt><trkpt lat="43.29147" lon="12.9943883"><ele>308.0</ele><time>2026-04-04T15:23:58.726Z</time></trkpt><trkpt lat="43.291725" lon="12.99426"><ele>305.0</ele><time>2026-04-04T15:23:59.733Z</time></trkpt><trkpt lat="43.2919817" lon="12.99412"><ele>302.0</ele><time>2026-04-04T15:24:00.727Z</time></trkpt><trkpt lat="43.29224" lon="12.9939783"><ele>303.5</ele><time>2026-04-04T15:24:01.73Z</time></trkpt><trkpt lat="43.2924983" lon="12.9938367"><ele>305.0</ele><time>2026-04-04T15:24:02.727Z</time></trkpt><trkpt lat="43.2927583" lon="12.9936983"><ele>305.0</ele><time>2026-04-04T15:24:03.73Z</time></trkpt><trkpt lat="43.2930183" lon="12.9935633"><ele>305.0</ele><time>2026-04-04T15:24:04.726Z</time></trkpt><trkpt lat="43.2932767" lon="12.993425"><ele>301.5</ele><time>2026-04-04T15:24:05.73Z</time></trkpt><trkpt lat="43.2935383" lon="12.993285"><ele>298.0</ele><time>2026-04-04T15:24:06.728Z</time></trkpt><trkpt lat="43.2938033" lon="12.993145"><ele>297.5</ele><time>2026-04-04T15:24:07.733Z</time></trkpt><trkpt lat="43.2940683" lon="12.993"><ele>297.0</ele><time>2026-04-04T15:24:08.731Z</time></trkpt><trkpt lat="43.294335" lon="12.9928567"><ele>297.0</ele><time>2026-04-04T15:24:09.729Z</time></trkpt><trkpt lat="43.2946" lon="12.9927167"><ele>297.0</ele><time>2026-04-04T15:24:10.729Z</time></trkpt><trkpt lat="43.2948633" lon="12.9925733"><ele>297.0</ele><time>2026-04-04T15:24:11.729Z</time></trkpt><trkpt lat="43.2951267" lon="12.992435"><ele>297.0</ele><time>2026-04-04T15:24:12.726Z</time></trkpt><trkpt lat="43.2953867" lon="12.9922967"><ele>297.5</ele><time>2026-04-04T15:24:13.732Z</time></trkpt><trkpt lat="43.295645" lon="12.99216"><ele>298.0</ele><time>2026-04-04T15:24:14.729Z</time></trkpt><trkpt lat="43.2959" lon="12.9920233"><ele>298.0</ele><time>2026-04-04T15:24:15.726Z</time></trkpt><trkpt lat="43.2961533" lon="12.9918883"><ele>298.0</ele><time>2026-04-04T15:24:16.728Z</time></trkpt><trkpt lat="43.2964117" lon="12.9917467"><ele>295.0</ele><time>2026-04-04T15:24:17.728Z</time></trkpt><trkpt lat="43.2966683" lon="12.9916033"><ele>292.0</ele><time>2026-04-04T15:24:18.728Z</time></trkpt><trkpt lat="43.296925" lon="12.99146"><ele>292.0</ele><time>2026-04-04T15:24:19.729Z</time></trkpt><trkpt lat="43.2971783" lon="12.991315"><ele>292.0</ele><time>2026-04-04T15:24:20.728Z</time></trkpt><trkpt lat="43.2974317" lon="12.991175"><ele>292.5</ele><time>2026-04-04T15:24:21.729Z</time></trkpt><trkpt lat="43.2976833" lon="12.991035"><ele>293.0</ele><time>2026-04-04T15:24:22.727Z</time></trkpt><trkpt lat="43.2979367" lon="12.9909017"><ele>292.0</ele><time>2026-04-04T15:24:23.729Z</time></trkpt><trkpt lat="43.29819" lon="12.9907667"><ele>291.0</ele><time>2026-04-04T15:24:24.722Z</time></trkpt><trkpt lat="43.2984417" lon="12.99063"><ele>291.0</ele><time>2026-04-04T15:24:25.727Z</time></trkpt><trkpt lat="43.2986933" lon="12.9904917"><ele>291.0</ele><time>2026-04-04T15:24:26.725Z</time></trkpt><trkpt lat="43.29895" lon="12.9903483"><ele>290.0</ele><time>2026-04-04T15:24:27.724Z</time></trkpt><trkpt lat="43.2992117" lon="12.9902067"><ele>289.0</ele><time>2026-04-04T15:24:28.726Z</time></trkpt><trkpt lat="43.2994717" lon="12.9900667"><ele>289.0</ele><time>2026-04-04T15:24:29.722Z</time></trkpt><trkpt lat="43.2997267" lon="12.9899317"><ele>289.0</ele><time>2026-04-04T15:24:30.725Z</time></trkpt><trkpt lat="43.2999733" lon="12.9898"><ele>291.5</ele><time>2026-04-04T15:24:31.723Z</time></trkpt><trkpt lat="43.300205" lon="12.9896767"><ele>294.0</ele><time>2026-04-04T15:24:32.726Z</time></trkpt><trkpt lat="43.3004167" lon="12.9895633"><ele>294.3333333333333</ele><time>2026-04-04T15:24:33.728Z</time></trkpt><trkpt lat="43.3006167" lon="12.9894533"><ele>294.66666666666663</ele><time>2026-04-04T15:24:34.729Z</time></trkpt><trkpt lat="43.3008083" lon="12.9893467"><ele>295.0</ele><time>2026-04-04T15:24:35.731Z</time></trkpt><trkpt lat="43.3010067" lon="12.9892383"><ele>295.0</ele><time>2026-04-04T15:24:36.727Z</time></trkpt><trkpt lat="43.301205" lon="12.9891267"><ele>295.0</ele><time>2026-04-04T15:24:37.727Z</time></trkpt><trkpt lat="43.30141" lon="12.9890117"><ele>295.0</ele><time>2026-04-04T15:24:38.729Z</time></trkpt><trkpt lat="43.3016183" lon="12.988895"><ele>295.0</ele><time>2026-04-04T15:24:39.725Z</time></trkpt><trkpt lat="43.3018333" lon="12.988775"><ele>295.0</ele><time>2026-04-04T15:24:40.728Z</time></trkpt><trkpt lat="43.302045" lon="12.988655"><ele>295.0</ele><time>2026-04-04T15:24:41.73Z</time></trkpt><trkpt lat="43.302255" lon="12.9885367"><ele>295.0</ele><time>2026-04-04T15:24:42.727Z</time></trkpt><trkpt lat="43.30246" lon="12.988425"><ele>295.0</ele><time>2026-04-04T15:24:43.727Z</time></trkpt><trkpt lat="43.3026667" lon="12.9883083"><ele>294.0</ele><time>2026-04-04T15:24:44.728Z</time></trkpt><trkpt lat="43.302875" lon="12.9881917"><ele>293.0</ele><time>2026-04-04T15:24:45.729Z</time></trkpt><trkpt lat="43.3030833" lon="12.988075"><ele>295.0</ele><time>2026-04-04T15:24:46.729Z</time></trkpt><trkpt lat="43.3032883" lon="12.9879583"><ele>297.0</ele><time>2026-04-04T15:24:47.73Z</time></trkpt><trkpt lat="43.3034983" lon="12.9878467"><ele>299.0</ele><time>2026-04-04T15:24:48.732Z</time></trkpt><trkpt lat="43.303715" lon="12.9877417"><ele>298.5</ele><time>2026-04-04T15:24:49.728Z</time></trkpt><trkpt lat="43.3039367" lon="12.9876483"><ele>298.0</ele><time>2026-04-04T15:24:50.732Z</time></trkpt><trkpt lat="43.304165" lon="12.9875633"><ele>294.5</ele><time>2026-04-04T15:24:51.728Z</time></trkpt><trkpt lat="43.3043983" lon="12.9874917"><ele>291.0</ele><time>2026-04-04T15:24:52.726Z</time></trkpt><trkpt lat="43.3046317" lon="12.9874367"><ele>290.5</ele><time>2026-04-04T15:24:53.729Z</time></trkpt><trkpt lat="43.3048667" lon="12.987395"><ele>290.0</ele><time>2026-04-04T15:24:54.728Z</time></trkpt><trkpt lat="43.3051017" lon="12.9873583"><ele>290.0</ele><time>2026-04-04T15:24:55.727Z</time></trkpt><trkpt lat="43.30534" lon="12.987325"><ele>290.0</ele><time>2026-04-04T15:24:56.731Z</time></trkpt><trkpt lat="43.30558" lon="12.9872967"><ele>289.0</ele><time>2026-04-04T15:24:57.729Z</time></trkpt><trkpt lat="43.3058267" lon="12.9872733"><ele>288.0</ele><time>2026-04-04T15:24:58.729Z</time></trkpt><trkpt lat="43.3060767" lon="12.98725"><ele>288.0</ele><time>2026-04-04T15:24:59.727Z</time></trkpt><trkpt lat="43.30633" lon="12.987225"><ele>288.0</ele><time>2026-04-04T15:25:00.727Z</time></trkpt><trkpt lat="43.3065883" lon="12.9872017"><ele>288.5</ele><time>2026-04-04T15:25:01.73Z</time></trkpt><trkpt lat="43.3068417" lon="12.9871767"><ele>289.0</ele><time>2026-04-04T15:25:02.727Z</time></trkpt><trkpt lat="43.307095" lon="12.9871517"><ele>290.0</ele><time>2026-04-04T15:25:03.729Z</time></trkpt><trkpt lat="43.3073383" lon="12.987125"><ele>291.0</ele><time>2026-04-04T15:25:04.729Z</time></trkpt><trkpt lat="43.3075717" lon="12.9870967"><ele>291.0</ele><time>2026-04-04T15:25:05.728Z</time></trkpt><trkpt lat="43.307795" lon="12.9870683"><ele>291.0</ele><time>2026-04-04T15:25:06.729Z</time></trkpt><trkpt lat="43.308005" lon="12.9870383"><ele>291.0</ele><time>2026-04-04T15:25:07.731Z</time></trkpt><trkpt lat="43.308205" lon="12.98701"><ele>291.3333333333333</ele><time>2026-04-04T15:25:08.732Z</time></trkpt><trkpt lat="43.3083933" lon="12.9869817"><ele>291.66666666666663</ele><time>2026-04-04T15:25:09.728Z</time></trkpt><trkpt lat="43.3085783" lon="12.9869517"><ele>292.0</ele><time>2026-04-04T15:25:10.727Z</time></trkpt><trkpt lat="43.3087617" lon="12.9869217"><ele>290.3333333333333</ele><time>2026-04-04T15:25:11.73Z</time></trkpt><trkpt lat="43.308945" lon="12.9868917"><ele>288.6666666666667</ele><time>2026-04-04T15:25:12.729Z</time></trkpt><trkpt lat="43.3091167" lon="12.98686"><ele>287.0</ele><time>2026-04-04T15:25:13.726Z</time></trkpt><trkpt lat="43.3092817" lon="12.9868317"><ele>287.0</ele><time>2026-04-04T15:25:14.728Z</time></trkpt><trkpt lat="43.3094367" lon="12.9868133"><ele>287.0</ele><time>2026-04-04T15:25:15.73Z</time></trkpt><trkpt lat="43.3095833" lon="12.9867967"><ele>287.0</ele><time>2026-04-04T15:25:16.728Z</time></trkpt><trkpt lat="43.3097183" lon="12.9867817"><ele>287.0</ele><time>2026-04-04T15:25:17.729Z</time></trkpt><trkpt lat="43.3098383" lon="12.9867717"><ele>286.25</ele><time>2026-04-04T15:25:18.728Z</time></trkpt><trkpt lat="43.3099483" lon="12.9867667"><ele>285.5</ele><time>2026-04-04T15:25:19.727Z</time></trkpt><trkpt lat="43.31006" lon="12.986785"><ele>284.75</ele><time>2026-04-04T15:25:20.73Z</time></trkpt><trkpt lat="43.310175" lon="12.9868283"><ele>284.0</ele><time>2026-04-04T15:25:21.728Z</time></trkpt><trkpt lat="43.3102783" lon="12.9868867"><ele>284.0</ele><time>2026-04-04T15:25:22.726Z</time></trkpt><trkpt lat="43.3103833" lon="12.9869167"><ele>284.0</ele><time>2026-04-04T15:25:23.725Z</time></trkpt><trkpt lat="43.31048" lon="12.986905"><ele>284.0</ele><time>2026-04-04T15:25:24.728Z</time></trkpt><trkpt lat="43.3105933" lon="12.9868383"><ele>284.0</ele><time>2026-04-04T15:25:25.727Z</time></trkpt><trkpt lat="43.3107233" lon="12.9867583"><ele>285.33333333333337</ele><time>2026-04-04T15:25:26.73Z</time></trkpt><trkpt lat="43.310875" lon="12.986705"><ele>286.6666666666667</ele><time>2026-04-04T15:25:27.727Z</time></trkpt><trkpt lat="43.3110483" lon="12.986675"><ele>288.0</ele><time>2026-04-04T15:25:28.726Z</time></trkpt><trkpt lat="43.3112467" lon="12.9866583"><ele>288.6666666666667</ele><time>2026-04-04T15:25:29.728Z</time></trkpt><trkpt lat="43.31145" lon="12.9866333"><ele>289.33333333333337</ele><time>2026-04-04T15:25:30.73Z</time></trkpt><trkpt lat="43.3116583" lon="12.9866067"><ele>290.0</ele><time>2026-04-04T15:25:31.728Z</time></trkpt><trkpt lat="43.31187" lon="12.9865817"><ele>290.0</ele><time>2026-04-04T15:25:32.731Z</time></trkpt><trkpt lat="43.312075" lon="12.98656"><ele>290.0</ele><time>2026-04-04T15:25:33.726Z</time></trkpt><trkpt lat="43.31228" lon="12.9865383"><ele>290.0</ele><time>2026-04-04T15:25:34.727Z</time></trkpt><trkpt lat="43.3124817" lon="12.986515"><ele>291.33333333333337</ele><time>2026-04-04T15:25:35.727Z</time></trkpt><trkpt lat="43.312675" lon="12.9864933"><ele>292.6666666666667</ele><time>2026-04-04T15:25:36.73Z</time></trkpt><trkpt lat="43.31286" lon="12.9864733"><ele>294.0</ele><time>2026-04-04T15:25:37.727Z</time></trkpt><trkpt lat="43.3130317" lon="12.986455"><ele>294.0</ele><time>2026-04-04T15:25:38.728Z</time></trkpt><trkpt lat="43.3131967" lon="12.9864367"><ele>294.0</ele><time>2026-04-04T15:25:39.728Z</time></trkpt><trkpt lat="43.3133633" lon="12.9864133"><ele>294.0</ele><time>2026-04-04T15:25:40.728Z</time></trkpt><trkpt lat="43.3135317" lon="12.9863917"><ele>294.0</ele><time>2026-04-04T15:25:41.728Z</time></trkpt><trkpt lat="43.3137067" lon="12.9863683"><ele>294.0</ele><time>2026-04-04T15:25:42.728Z</time></trkpt><trkpt lat="43.31388" lon="12.986345"><ele>294.0</ele><time>2026-04-04T15:25:43.728Z</time></trkpt><trkpt lat="43.3140533" lon="12.986325"><ele>293.6666666666667</ele><time>2026-04-04T15:25:44.729Z</time></trkpt><trkpt lat="43.3142283" lon="12.9863083"><ele>293.33333333333337</ele><time>2026-04-04T15:25:45.73Z</time></trkpt><trkpt lat="43.314405" lon="12.9863"><ele>293.0</ele><time>2026-04-04T15:25:46.727Z</time></trkpt><trkpt lat="43.314575" lon="12.9862883"><ele>293.0</ele><time>2026-04-04T15:25:47.729Z</time></trkpt><trkpt lat="43.314735" lon="12.9862817"><ele>293.0</ele><time>2026-04-04T15:25:48.727Z</time></trkpt><trkpt lat="43.3148817" lon="12.9862783"><ele>293.0</ele><time>2026-04-04T15:25:49.728Z</time></trkpt><trkpt lat="43.315015" lon="12.9862667"><ele>293.0</ele><time>2026-04-04T15:25:50.727Z</time></trkpt><trkpt lat="43.3151367" lon="12.9862617"><ele>293.0</ele><time>2026-04-04T15:25:51.729Z</time></trkpt><trkpt lat="43.3152517" lon="12.98626"><ele>293.0</ele><time>2026-04-04T15:25:52.73Z</time></trkpt><trkpt lat="43.315355" lon="12.986255"><ele>293.0</ele><time>2026-04-04T15:25:53.727Z</time></trkpt><trkpt lat="43.3154467" lon="12.986245"><ele>293.0</ele><time>2026-04-04T15:25:54.728Z</time></trkpt><trkpt lat="43.31553" lon="12.98624"><ele>293.0</ele><time>2026-04-04T15:25:55.731Z</time></trkpt><trkpt lat="43.315605" lon="12.9862383"><ele>292.6666666666667</ele><time>2026-04-04T15:25:56.727Z</time></trkpt><trkpt lat="43.31567" lon="12.9862383"><ele>292.33333333333337</ele><time>2026-04-04T15:25:57.728Z</time></trkpt><trkpt lat="43.3157667" lon="12.9862267"><ele>292.0</ele><time>2026-04-04T15:25:59.728Z</time></trkpt><trkpt lat="43.3158333" lon="12.9862483"><ele>291.6666666666667</ele><time>2026-04-04T15:26:09.725Z</time></trkpt><trkpt lat="43.315955" lon="12.9862467"><ele>291.3333333333333</ele><time>2026-04-04T15:26:11.726Z</time></trkpt><trkpt lat="43.3160283" lon="12.986245"><ele>291.0</ele><time>2026-04-04T15:26:12.729Z</time></trkpt><trkpt lat="43.3161183" lon="12.98624"><ele>291.0</ele><time>2026-04-04T15:26:13.726Z</time></trkpt><trkpt lat="43.31623" lon="12.9862267"><ele>291.0</ele><time>2026-04-04T15:26:14.729Z</time></trkpt><trkpt lat="43.3163417" lon="12.9862117"><ele>291.0</ele><time>2026-04-04T15:26:15.73Z</time></trkpt><trkpt lat="43.31645" lon="12.9862"><ele>291.0</ele><time>2026-04-04T15:26:16.727Z</time></trkpt><trkpt lat="43.3165717" lon="12.9862017"><ele>290.0</ele><time>2026-04-04T15:26:17.726Z</time></trkpt><trkpt lat="43.3167" lon="12.986205"><ele>289.0</ele><time>2026-04-04T15:26:18.725Z</time></trkpt><trkpt lat="43.3168367" lon="12.9862083"><ele>288.0</ele><time>2026-04-04T15:26:19.728Z</time></trkpt><trkpt lat="43.3169617" lon="12.9862017"><ele>287.0</ele><time>2026-04-04T15:26:20.732Z</time></trkpt><trkpt lat="43.3170883" lon="12.9862"><ele>287.0</ele><time>2026-04-04T15:26:21.726Z</time></trkpt><trkpt lat="43.317215" lon="12.9861867"><ele>287.0</ele><time>2026-04-04T15:26:22.727Z</time></trkpt><trkpt lat="43.3173367" lon="12.9861767"><ele>287.0</ele><time>2026-04-04T15:26:23.727Z</time></trkpt><trkpt lat="43.3174617" lon="12.9861617"><ele>287.0</ele><time>2026-04-04T15:26:24.728Z</time></trkpt><trkpt lat="43.3175867" lon="12.9861533"><ele>286.0</ele><time>2026-04-04T15:26:25.729Z</time></trkpt><trkpt lat="43.317715" lon="12.9861517"><ele>285.0</ele><time>2026-04-04T15:26:26.726Z</time></trkpt><trkpt lat="43.3178467" lon="12.9861483"><ele>284.0</ele><time>2026-04-04T15:26:27.728Z</time></trkpt><trkpt lat="43.3179817" lon="12.9861367"><ele>283.0</ele><time>2026-04-04T15:26:28.729Z</time></trkpt><trkpt lat="43.3181117" lon="12.986135"><ele>282.25</ele><time>2026-04-04T15:26:29.728Z</time></trkpt><trkpt lat="43.31824" lon="12.98613"><ele>281.5</ele><time>2026-04-04T15:26:30.728Z</time></trkpt><trkpt lat="43.3183783" lon="12.9861283"><ele>280.75</ele><time>2026-04-04T15:26:31.729Z</time></trkpt><trkpt lat="43.318505" lon="12.9861217"><ele>280.0</ele><time>2026-04-04T15:26:32.727Z</time></trkpt><trkpt lat="43.3186283" lon="12.98611"><ele>280.0</ele><time>2026-04-04T15:26:33.727Z</time></trkpt><trkpt lat="43.3187533" lon="12.9860867"><ele>280.0</ele><time>2026-04-04T15:26:34.728Z</time></trkpt><trkpt lat="43.3188767" lon="12.9860567"><ele>280.0</ele><time>2026-04-04T15:26:35.728Z</time></trkpt><trkpt lat="43.3189983" lon="12.98603"><ele>280.0</ele><time>2026-04-04T15:26:36.728Z</time></trkpt><trkpt lat="43.319125" lon="12.9860017"><ele>280.0</ele><time>2026-04-04T15:26:37.728Z</time></trkpt><trkpt lat="43.3192467" lon="12.9859667"><ele>280.0</ele><time>2026-04-04T15:26:38.732Z</time></trkpt><trkpt lat="43.3193667" lon="12.9859233"><ele>280.0</ele><time>2026-04-04T15:26:39.731Z</time></trkpt><trkpt lat="43.319485" lon="12.98588"><ele>280.0</ele><time>2026-04-04T15:26:40.729Z</time></trkpt><trkpt lat="43.3195983" lon="12.9858367"><ele>280.0</ele><time>2026-04-04T15:26:41.728Z</time></trkpt><trkpt lat="43.31971" lon="12.9857783"><ele>280.0</ele><time>2026-04-04T15:26:42.729Z</time></trkpt><trkpt lat="43.3198233" lon="12.9857167"><ele>280.0</ele><time>2026-04-04T15:26:43.726Z</time></trkpt><trkpt lat="43.3199333" lon="12.985665"><ele>280.0</ele><time>2026-04-04T15:26:44.731Z</time></trkpt><trkpt lat="43.3200433" lon="12.98562"><ele>279.4</ele><time>2026-04-04T15:26:45.725Z</time></trkpt><trkpt lat="43.3201567" lon="12.98559"><ele>278.8</ele><time>2026-04-04T15:26:46.727Z</time></trkpt><trkpt lat="43.320265" lon="12.98557"><ele>278.2</ele><time>2026-04-04T15:26:47.726Z</time></trkpt><trkpt lat="43.3203683" lon="12.9855583"><ele>277.6</ele><time>2026-04-04T15:26:48.728Z</time></trkpt><trkpt lat="43.32047" lon="12.9855517"><ele>277.0</ele><time>2026-04-04T15:26:49.725Z</time></trkpt><trkpt lat="43.3205767" lon="12.9855517"><ele>276.2</ele><time>2026-04-04T15:26:50.728Z</time></trkpt><trkpt lat="43.3206783" lon="12.985545"><ele>275.4</ele><time>2026-04-04T15:26:51.725Z</time></trkpt><trkpt lat="43.32079" lon="12.985545"><ele>274.6</ele><time>2026-04-04T15:26:52.729Z</time></trkpt><trkpt lat="43.320905" lon="12.9855583"><ele>273.8</ele><time>2026-04-04T15:26:53.726Z</time></trkpt><trkpt lat="43.32102" lon="12.9855733"><ele>273.0</ele><time>2026-04-04T15:26:54.728Z</time></trkpt><trkpt lat="43.3211367" lon="12.9855917"><ele>273.0</ele><time>2026-04-04T15:26:55.728Z</time></trkpt><trkpt lat="43.321255" lon="12.9856117"><ele>273.0</ele><time>2026-04-04T15:26:56.73Z</time></trkpt><trkpt lat="43.3213733" lon="12.985645"><ele>273.0</ele><time>2026-04-04T15:26:57.729Z</time></trkpt><trkpt lat="43.3214967" lon="12.9856933"><ele>273.0</ele><time>2026-04-04T15:26:58.725Z</time></trkpt><trkpt lat="43.3216133" lon="12.985755"><ele>272.75</ele><time>2026-04-04T15:26:59.726Z</time></trkpt><trkpt lat="43.3217217" lon="12.9858283"><ele>272.5</ele><time>2026-04-04T15:27:00.73Z</time></trkpt><trkpt lat="43.3218217" lon="12.98592"><ele>272.25</ele><time>2026-04-04T15:27:01.729Z</time></trkpt><trkpt lat="43.3219183" lon="12.9860167"><ele>272.0</ele><time>2026-04-04T15:27:02.729Z</time></trkpt><trkpt lat="43.3220133" lon="12.986115"><ele>271.75</ele><time>2026-04-04T15:27:03.726Z</time></trkpt><trkpt lat="43.3221133" lon="12.986215"><ele>271.5</ele><time>2026-04-04T15:27:04.728Z</time></trkpt><trkpt lat="43.3222183" lon="12.986315"><ele>271.25</ele><time>2026-04-04T15:27:05.723Z</time></trkpt><trkpt lat="43.322325" lon="12.98642"><ele>271.0</ele><time>2026-04-04T15:27:06.725Z</time></trkpt><trkpt lat="43.3224333" lon="12.98652"><ele>271.25</ele><time>2026-04-04T15:27:07.724Z</time></trkpt><trkpt lat="43.32253" lon="12.9866233"><ele>271.5</ele><time>2026-04-04T15:27:08.727Z</time></trkpt><trkpt lat="43.322625" lon="12.9867183"><ele>271.75</ele><time>2026-04-04T15:27:09.727Z</time></trkpt><trkpt lat="43.322725" lon="12.9868083"><ele>272.0</ele><time>2026-04-04T15:27:10.727Z</time></trkpt><trkpt lat="43.3228183" lon="12.9869"><ele>272.0</ele><time>2026-04-04T15:27:11.727Z</time></trkpt><trkpt lat="43.3229033" lon="12.9869867"><ele>272.0</ele><time>2026-04-04T15:27:12.726Z</time></trkpt><trkpt lat="43.32299" lon="12.9870717"><ele>272.0</ele><time>2026-04-04T15:27:13.725Z</time></trkpt><trkpt lat="43.32308" lon="12.9871583"><ele>272.0</ele><time>2026-04-04T15:27:14.728Z</time></trkpt><trkpt lat="43.323165" lon="12.98724"><ele>272.0</ele><time>2026-04-04T15:27:15.726Z</time></trkpt><trkpt lat="43.3232383" lon="12.9873183"><ele>271.5</ele><time>2026-04-04T15:27:16.725Z</time></trkpt><trkpt lat="43.3233017" lon="12.9873817"><ele>271.0</ele><time>2026-04-04T15:27:17.73Z</time></trkpt><trkpt lat="43.323355" lon="12.9874317"><ele>270.5</ele><time>2026-04-04T15:27:18.725Z</time></trkpt><trkpt lat="43.323445" lon="12.9875183"><ele>270.0</ele><time>2026-04-04T15:27:20.726Z</time></trkpt><trkpt lat="43.3235233" lon="12.98759"><ele>269.5</ele><time>2026-04-04T15:27:22.727Z</time></trkpt><trkpt lat="43.323595" lon="12.9876517"><ele>269.0</ele><time>2026-04-04T15:27:24.729Z</time></trkpt><trkpt lat="43.3236983" lon="12.9877383"><ele>268.8</ele><time>2026-04-04T15:27:26.73Z</time></trkpt><trkpt lat="43.3237683" lon="12.9877967"><ele>268.59999999999997</ele><time>2026-04-04T15:27:27.726Z</time></trkpt><trkpt lat="43.3238483" lon="12.9878767"><ele>268.4</ele><time>2026-04-04T15:27:28.729Z</time></trkpt><trkpt lat="43.3239433" lon="12.9879817"><ele>268.2</ele><time>2026-04-04T15:27:29.727Z</time></trkpt><trkpt lat="43.3240317" lon="12.9880867"><ele>268.0</ele><time>2026-04-04T15:27:30.726Z</time></trkpt><trkpt lat="43.3241183" lon="12.988185"><ele>267.75</ele><time>2026-04-04T15:27:31.724Z</time></trkpt><trkpt lat="43.3242033" lon="12.9882817"><ele>267.5</ele><time>2026-04-04T15:27:32.73Z</time></trkpt><trkpt lat="43.3242917" lon="12.9883783"><ele>267.25</ele><time>2026-04-04T15:27:33.726Z</time></trkpt><trkpt lat="43.3243867" lon="12.98848"><ele>267.0</ele><time>2026-04-04T15:27:34.727Z</time></trkpt><trkpt lat="43.32449" lon="12.98858"><ele>267.0</ele><time>2026-04-04T15:27:35.727Z</time></trkpt><trkpt lat="43.3245983" lon="12.9886817"><ele>267.0</ele><time>2026-04-04T15:27:36.727Z</time></trkpt><trkpt lat="43.324705" lon="12.9887883"><ele>267.0</ele><time>2026-04-04T15:27:37.727Z</time></trkpt><trkpt lat="43.3248183" lon="12.9888983"><ele>267.0</ele><time>2026-04-04T15:27:38.727Z</time></trkpt><trkpt lat="43.3249267" lon="12.98901"><ele>266.25</ele><time>2026-04-04T15:27:39.728Z</time></trkpt><trkpt lat="43.3250417" lon="12.98912"><ele>265.5</ele><time>2026-04-04T15:27:40.725Z</time></trkpt><trkpt lat="43.3251567" lon="12.9892317"><ele>264.75</ele><time>2026-04-04T15:27:41.73Z</time></trkpt><trkpt lat="43.3252767" lon="12.9893483"><ele>264.0</ele><time>2026-04-04T15:27:42.729Z</time></trkpt><trkpt lat="43.3253933" lon="12.9894733"><ele>263.6666666666667</ele><time>2026-04-04T15:27:43.727Z</time></trkpt><trkpt lat="43.3255233" lon="12.989595"><ele>263.33333333333337</ele><time>2026-04-04T15:27:44.727Z</time></trkpt><trkpt lat="43.325645" lon="12.9897217"><ele>263.0</ele><time>2026-04-04T15:27:45.725Z</time></trkpt><trkpt lat="43.3257733" lon="12.9898533"><ele>262.33333333333337</ele><time>2026-04-04T15:27:46.725Z</time></trkpt><trkpt lat="43.325905" lon="12.9899867"><ele>261.6666666666667</ele><time>2026-04-04T15:27:47.725Z</time></trkpt><trkpt lat="43.3260417" lon="12.9901217"><ele>261.0</ele><time>2026-04-04T15:27:48.726Z</time></trkpt><trkpt lat="43.3261783" lon="12.9902533"><ele>261.0</ele><time>2026-04-04T15:27:49.727Z</time></trkpt><trkpt lat="43.3263133" lon="12.9903833"><ele>261.0</ele><time>2026-04-04T15:27:50.73Z</time></trkpt><trkpt lat="43.3264433" lon="12.9905133"><ele>261.0</ele><time>2026-04-04T15:27:51.727Z</time></trkpt><trkpt lat="43.3265767" lon="12.990645"><ele>261.0</ele><time>2026-04-04T15:27:52.724Z</time></trkpt><trkpt lat="43.326715" lon="12.9907817"><ele>261.0</ele><time>2026-04-04T15:27:53.729Z</time></trkpt><trkpt lat="43.3268517" lon="12.99092"><ele>261.0</ele><time>2026-04-04T15:27:54.726Z</time></trkpt><trkpt lat="43.3269867" lon="12.9910517"><ele>261.0</ele><time>2026-04-04T15:27:55.728Z</time></trkpt><trkpt lat="43.327115" lon="12.99118"><ele>261.0</ele><time>2026-04-04T15:27:56.729Z</time></trkpt><trkpt lat="43.3272367" lon="12.991305"><ele>261.0</ele><time>2026-04-04T15:27:57.727Z</time></trkpt><trkpt lat="43.3273533" lon="12.9914233"><ele>261.0</ele><time>2026-04-04T15:27:58.727Z</time></trkpt><trkpt lat="43.327465" lon="12.9915333"><ele>261.0</ele><time>2026-04-04T15:27:59.728Z</time></trkpt><trkpt lat="43.32758" lon="12.9916433"><ele>261.0</ele><time>2026-04-04T15:28:00.727Z</time></trkpt><trkpt lat="43.32769" lon="12.99175"><ele>261.0</ele><time>2026-04-04T15:28:01.728Z</time></trkpt><trkpt lat="43.3277933" lon="12.9918533"><ele>260.8</ele><time>2026-04-04T15:28:02.726Z</time></trkpt><trkpt lat="43.3278917" lon="12.99195"><ele>260.6</ele><time>2026-04-04T15:28:03.728Z</time></trkpt><trkpt lat="43.3279833" lon="12.9920433"><ele>260.4</ele><time>2026-04-04T15:28:04.725Z</time></trkpt><trkpt lat="43.3280667" lon="12.9921317"><ele>260.2</ele><time>2026-04-04T15:28:05.728Z</time></trkpt><trkpt lat="43.3281533" lon="12.9922183"><ele>260.0</ele><time>2026-04-04T15:28:06.724Z</time></trkpt><trkpt lat="43.32824" lon="12.9923067"><ele>260.0</ele><time>2026-04-04T15:28:07.726Z</time></trkpt><trkpt lat="43.32833" lon="12.9923967"><ele>260.0</ele><time>2026-04-04T15:28:08.729Z</time></trkpt><trkpt lat="43.3284233" lon="12.99249"><ele>260.0</ele><time>2026-04-04T15:28:09.728Z</time></trkpt><trkpt lat="43.3285167" lon="12.9925867"><ele>260.0</ele><time>2026-04-04T15:28:10.733Z</time></trkpt><trkpt lat="43.3286217" lon="12.992685"><ele>260.25</ele><time>2026-04-04T15:28:11.728Z</time></trkpt><trkpt lat="43.3287267" lon="12.9927883"><ele>260.5</ele><time>2026-04-04T15:28:12.728Z</time></trkpt><trkpt lat="43.3288317" lon="12.992895"><ele>260.75</ele><time>2026-04-04T15:28:13.73Z</time></trkpt><trkpt lat="43.328935" lon="12.993"><ele>261.0</ele><time>2026-04-04T15:28:14.729Z</time></trkpt><trkpt lat="43.3290433" lon="12.9931117"><ele>260.0</ele><time>2026-04-04T15:28:15.725Z</time></trkpt><trkpt lat="43.32916" lon="12.993225"><ele>259.0</ele><time>2026-04-04T15:28:16.728Z</time></trkpt><trkpt lat="43.329275" lon="12.9933333"><ele>258.0</ele><time>2026-04-04T15:28:17.726Z</time></trkpt><trkpt lat="43.3293817" lon="12.9934383"><ele>257.0</ele><time>2026-04-04T15:28:18.726Z</time></trkpt><trkpt lat="43.3294833" lon="12.99354"><ele>256.75</ele><time>2026-04-04T15:28:19.727Z</time></trkpt><trkpt lat="43.3295933" lon="12.9936533"><ele>256.5</ele><time>2026-04-04T15:28:20.729Z</time></trkpt><trkpt lat="43.3297133" lon="12.9937783"><ele>256.25</ele><time>2026-04-04T15:28:21.728Z</time></trkpt><trkpt lat="43.3298383" lon="12.9939033"><ele>256.0</ele><time>2026-04-04T15:28:22.727Z</time></trkpt><trkpt lat="43.32996" lon="12.994025"><ele>255.66666666666666</ele><time>2026-04-04T15:28:23.728Z</time></trkpt><trkpt lat="43.330085" lon="12.9941533"><ele>255.33333333333331</ele><time>2026-04-04T15:28:24.727Z</time></trkpt><trkpt lat="43.3302233" lon="12.9942933"><ele>255.0</ele><time>2026-04-04T15:28:25.728Z</time></trkpt><trkpt lat="43.33037" lon="12.9944367"><ele>255.0</ele><time>2026-04-04T15:28:26.73Z</time></trkpt><trkpt lat="43.3305217" lon="12.9945867"><ele>255.0</ele><time>2026-04-04T15:28:27.728Z</time></trkpt><trkpt lat="43.3306733" lon="12.9947367"><ele>255.0</ele><time>2026-04-04T15:28:28.726Z</time></trkpt><trkpt lat="43.330825" lon="12.9948867"><ele>254.33333333333331</ele><time>2026-04-04T15:28:29.727Z</time></trkpt><trkpt lat="43.3309817" lon="12.9950383"><ele>253.66666666666666</ele><time>2026-04-04T15:28:30.731Z</time></trkpt><trkpt lat="43.33114" lon="12.9951917"><ele>253.0</ele><time>2026-04-04T15:28:31.729Z</time></trkpt><trkpt lat="43.3313017" lon="12.99535"><ele>253.0</ele><time>2026-04-04T15:28:32.726Z</time></trkpt><trkpt lat="43.3314683" lon="12.9955133"><ele>253.0</ele><time>2026-04-04T15:28:33.726Z</time></trkpt><trkpt lat="43.3316317" lon="12.995675"><ele>253.0</ele><time>2026-04-04T15:28:34.729Z</time></trkpt><trkpt lat="43.3317967" lon="12.9958417"><ele>252.66666666666666</ele><time>2026-04-04T15:28:35.73Z</time></trkpt><trkpt lat="43.3319633" lon="12.9960067"><ele>252.33333333333331</ele><time>2026-04-04T15:28:36.727Z</time></trkpt><trkpt lat="43.33213" lon="12.99617"><ele>252.0</ele><time>2026-04-04T15:28:37.73Z</time></trkpt><trkpt lat="43.3322917" lon="12.9963317"><ele>252.0</ele><time>2026-04-04T15:28:38.726Z</time></trkpt><trkpt lat="43.332455" lon="12.996495"><ele>252.0</ele><time>2026-04-04T15:28:39.727Z</time></trkpt><trkpt lat="43.3326233" lon="12.9966617"><ele>252.0</ele><time>2026-04-04T15:28:40.726Z</time></trkpt><trkpt lat="43.3327967" lon="12.9968317"><ele>252.33333333333331</ele><time>2026-04-04T15:28:41.729Z</time></trkpt><trkpt lat="43.332975" lon="12.9970083"><ele>252.66666666666666</ele><time>2026-04-04T15:28:42.731Z</time></trkpt><trkpt lat="43.33316" lon="12.99719"><ele>253.0</ele><time>2026-04-04T15:28:43.728Z</time></trkpt><trkpt lat="43.3333517" lon="12.997375"><ele>254.5</ele><time>2026-04-04T15:28:44.731Z</time></trkpt><trkpt lat="43.333545" lon="12.9975633"><ele>256.0</ele><time>2026-04-04T15:28:45.728Z</time></trkpt><trkpt lat="43.3337383" lon="12.997745"><ele>254.5</ele><time>2026-04-04T15:28:46.728Z</time></trkpt><trkpt lat="43.333935" lon="12.9979183"><ele>253.0</ele><time>2026-04-04T15:28:47.727Z</time></trkpt><trkpt lat="43.3341267" lon="12.9980833"><ele>253.0</ele><time>2026-04-04T15:28:48.726Z</time></trkpt><trkpt lat="43.3343133" lon="12.9982267"><ele>253.0</ele><time>2026-04-04T15:28:49.729Z</time></trkpt><trkpt lat="43.334505" lon="12.9983617"><ele>253.0</ele><time>2026-04-04T15:28:50.726Z</time></trkpt><trkpt lat="43.3347117" lon="12.9984867"><ele>256.0</ele><time>2026-04-04T15:28:51.728Z</time></trkpt><trkpt lat="43.3349233" lon="12.9986033"><ele>259.0</ele><time>2026-04-04T15:28:52.726Z</time></trkpt><trkpt lat="43.3351333" lon="12.99871"><ele>259.0</ele><time>2026-04-04T15:28:53.726Z</time></trkpt><trkpt lat="43.3353433" lon="12.9988067"><ele>259.0</ele><time>2026-04-04T15:28:54.724Z</time></trkpt><trkpt lat="43.3355417" lon="12.9988817"><ele>259.0</ele><time>2026-04-04T15:28:55.731Z</time></trkpt><trkpt lat="43.3357467" lon="12.998955"><ele>257.3333333333333</ele><time>2026-04-04T15:28:56.726Z</time></trkpt><trkpt lat="43.3359583" lon="12.9990167"><ele>255.66666666666669</ele><time>2026-04-04T15:28:57.727Z</time></trkpt><trkpt lat="43.33618" lon="12.9990583"><ele>254.0</ele><time>2026-04-04T15:28:58.729Z</time></trkpt><trkpt lat="43.33639" lon="12.9990817"><ele>252.66666666666669</ele><time>2026-04-04T15:28:59.732Z</time></trkpt><trkpt lat="43.3365883" lon="12.9990967"><ele>251.33333333333331</ele><time>2026-04-04T15:29:00.727Z</time></trkpt><trkpt lat="43.3367767" lon="12.9991033"><ele>250.0</ele><time>2026-04-04T15:29:01.73Z</time></trkpt><trkpt lat="43.3369533" lon="12.9991033"><ele>250.0</ele><time>2026-04-04T15:29:02.729Z</time></trkpt><trkpt lat="43.33713" lon="12.9991033"><ele>250.0</ele><time>2026-04-04T15:29:03.726Z</time></trkpt><trkpt lat="43.3373117" lon="12.9990967"><ele>250.0</ele><time>2026-04-04T15:29:04.725Z</time></trkpt><trkpt lat="43.337495" lon="12.99908"><ele>249.66666666666666</ele><time>2026-04-04T15:29:05.725Z</time></trkpt><trkpt lat="43.337685" lon="12.9990583"><ele>249.33333333333331</ele><time>2026-04-04T15:29:06.729Z</time></trkpt><trkpt lat="43.3378833" lon="12.9990317"><ele>249.0</ele><time>2026-04-04T15:29:07.728Z</time></trkpt><trkpt lat="43.3380783" lon="12.9990033"><ele>249.66666666666669</ele><time>2026-04-04T15:29:08.729Z</time></trkpt><trkpt lat="43.3382767" lon="12.99898"><ele>250.33333333333334</ele><time>2026-04-04T15:29:09.729Z</time></trkpt><trkpt lat="43.3384733" lon="12.9989567"><ele>251.0</ele><time>2026-04-04T15:29:10.727Z</time></trkpt><trkpt lat="43.3386567" lon="12.9989333"><ele>251.0</ele><time>2026-04-04T15:29:11.728Z</time></trkpt><trkpt lat="43.3388367" lon="12.99891"><ele>251.0</ele><time>2026-04-04T15:29:12.728Z</time></trkpt><trkpt lat="43.3390167" lon="12.998885"><ele>251.0</ele><time>2026-04-04T15:29:13.729Z</time></trkpt><trkpt lat="43.33919" lon="12.9988583"><ele>251.66666666666669</ele><time>2026-04-04T15:29:14.729Z</time></trkpt><trkpt lat="43.33936" lon="12.998835"><ele>252.33333333333331</ele><time>2026-04-04T15:29:15.726Z</time></trkpt><trkpt lat="43.3395383" lon="12.9988133"><ele>253.0</ele><time>2026-04-04T15:29:16.727Z</time></trkpt><trkpt lat="43.3397217" lon="12.9987967"><ele>253.33333333333331</ele><time>2026-04-04T15:29:17.729Z</time></trkpt><trkpt lat="43.339895" lon="12.9987833"><ele>253.66666666666669</ele><time>2026-04-04T15:29:18.725Z</time></trkpt><trkpt lat="43.3400617" lon="12.9987667"><ele>254.0</ele><time>2026-04-04T15:29:19.728Z</time></trkpt><trkpt lat="43.3402317" lon="12.9987467"><ele>254.0</ele><time>2026-04-04T15:29:20.727Z</time></trkpt><trkpt lat="43.3404067" lon="12.998725"><ele>254.0</ele><time>2026-04-04T15:29:21.726Z</time></trkpt><trkpt lat="43.34059" lon="12.998705"><ele>254.0</ele><time>2026-04-04T15:29:22.728Z</time></trkpt><trkpt lat="43.3407783" lon="12.9986883"><ele>253.66666666666669</ele><time>2026-04-04T15:29:23.726Z</time></trkpt><trkpt lat="43.3409683" lon="12.998665"><ele>253.33333333333331</ele><time>2026-04-04T15:29:24.725Z</time></trkpt><trkpt lat="43.3411617" lon="12.998635"><ele>253.0</ele><time>2026-04-04T15:29:25.729Z</time></trkpt><trkpt lat="43.34136" lon="12.9986083"><ele>253.66666666666666</ele><time>2026-04-04T15:29:26.73Z</time></trkpt><trkpt lat="43.341565" lon="12.9985817"><ele>254.33333333333331</ele><time>2026-04-04T15:29:27.727Z</time></trkpt><trkpt lat="43.3417733" lon="12.9985533"><ele>255.0</ele><time>2026-04-04T15:29:28.728Z</time></trkpt><trkpt lat="43.3419833" lon="12.9985183"><ele>255.0</ele><time>2026-04-04T15:29:29.73Z</time></trkpt><trkpt lat="43.3422" lon="12.998485"><ele>255.0</ele><time>2026-04-04T15:29:30.726Z</time></trkpt><trkpt lat="43.3424067" lon="12.9984567"><ele>255.0</ele><time>2026-04-04T15:29:31.727Z</time></trkpt><trkpt lat="43.3426117" lon="12.9984317"><ele>254.33333333333331</ele><time>2026-04-04T15:29:32.726Z</time></trkpt><trkpt lat="43.34282" lon="12.9984117"><ele>253.66666666666666</ele><time>2026-04-04T15:29:33.729Z</time></trkpt><trkpt lat="43.3430167" lon="12.9983817"><ele>253.0</ele><time>2026-04-04T15:29:34.73Z</time></trkpt><trkpt lat="43.343205" lon="12.998355"><ele>249.66666666666666</ele><time>2026-04-04T15:29:35.727Z</time></trkpt><trkpt lat="43.3433867" lon="12.9983333"><ele>246.33333333333331</ele><time>2026-04-04T15:29:36.73Z</time></trkpt><trkpt lat="43.3435683" lon="12.9983117"><ele>243.0</ele><time>2026-04-04T15:29:37.727Z</time></trkpt><trkpt lat="43.343745" lon="12.998295"><ele>242.33333333333331</ele><time>2026-04-04T15:29:38.726Z</time></trkpt><trkpt lat="43.3439117" lon="12.998275"><ele>241.66666666666666</ele><time>2026-04-04T15:29:39.726Z</time></trkpt><trkpt lat="43.3440767" lon="12.9982567"><ele>241.0</ele><time>2026-04-04T15:29:40.726Z</time></trkpt><trkpt lat="43.3442433" lon="12.9982383"><ele>241.0</ele><time>2026-04-04T15:29:41.725Z</time></trkpt><trkpt lat="43.3444083" lon="12.99822"><ele>241.0</ele><time>2026-04-04T15:29:42.728Z</time></trkpt><trkpt lat="43.34457" lon="12.9981967"><ele>241.0</ele><time>2026-04-04T15:29:43.727Z</time></trkpt><trkpt lat="43.3447283" lon="12.99817"><ele>240.66666666666666</ele><time>2026-04-04T15:29:44.73Z</time></trkpt><trkpt lat="43.3448833" lon="12.998135"><ele>240.33333333333331</ele><time>2026-04-04T15:29:45.729Z</time></trkpt><trkpt lat="43.3450283" lon="12.9980767"><ele>240.0</ele><time>2026-04-04T15:29:46.728Z</time></trkpt><trkpt lat="43.3451633" lon="12.9980017"><ele>240.0</ele><time>2026-04-04T15:29:47.731Z</time></trkpt><trkpt lat="43.3452867" lon="12.99792"><ele>240.0</ele><time>2026-04-04T15:29:48.727Z</time></trkpt><trkpt lat="43.3453967" lon="12.9978233"><ele>240.0</ele><time>2026-04-04T15:29:49.728Z</time></trkpt><trkpt lat="43.3454967" lon="12.9977217"><ele>240.0</ele><time>2026-04-04T15:29:50.727Z</time></trkpt><trkpt lat="43.3455817" lon="12.99762"><ele>239.8</ele><time>2026-04-04T15:29:51.729Z</time></trkpt><trkpt lat="43.3456633" lon="12.9975133"><ele>239.6</ele><time>2026-04-04T15:29:52.73Z</time></trkpt><trkpt lat="43.3457433" lon="12.9974117"><ele>239.39999999999998</ele><time>2026-04-04T15:29:53.729Z</time></trkpt><trkpt lat="43.3458233" lon="12.9973183"><ele>239.2</ele><time>2026-04-04T15:29:54.731Z</time></trkpt><trkpt lat="43.3459133" lon="12.9972433"><ele>239.0</ele><time>2026-04-04T15:29:55.73Z</time></trkpt><trkpt lat="43.34601" lon="12.9972117"><ele>239.0</ele><time>2026-04-04T15:29:56.731Z</time></trkpt><trkpt lat="43.3461117" lon="12.9972233"><ele>238.99999999999997</ele><time>2026-04-04T15:29:57.727Z</time></trkpt><trkpt lat="43.346205" lon="12.99728"><ele>238.99999999999997</ele><time>2026-04-04T15:29:58.726Z</time></trkpt><trkpt lat="43.3462783" lon="12.99734"><ele>239.0</ele><time>2026-04-04T15:29:59.73Z</time></trkpt><trkpt lat="43.3463433" lon="12.9974183"><ele>239.0</ele><time>2026-04-04T15:30:00.73Z</time></trkpt><trkpt lat="43.34641" lon="12.997525"><ele>239.39999999999998</ele><time>2026-04-04T15:30:01.731Z</time></trkpt><trkpt lat="43.346475" lon="12.9976467"><ele>239.79999999999998</ele><time>2026-04-04T15:30:02.729Z</time></trkpt><trkpt lat="43.3465367" lon="12.9977767"><ele>240.20000000000002</ele><time>2026-04-04T15:30:03.729Z</time></trkpt><trkpt lat="43.3466017" lon="12.9979067"><ele>240.60000000000002</ele><time>2026-04-04T15:30:04.728Z</time></trkpt><trkpt lat="43.346665" lon="12.99803"><ele>241.0</ele><time>2026-04-04T15:30:05.726Z</time></trkpt><trkpt lat="43.3467367" lon="12.998155"><ele>241.0</ele><time>2026-04-04T15:30:06.725Z</time></trkpt><trkpt lat="43.3468183" lon="12.9982933"><ele>241.0</ele><time>2026-04-04T15:30:07.731Z</time></trkpt><trkpt lat="43.3469083" lon="12.998445"><ele>241.0</ele><time>2026-04-04T15:30:08.731Z</time></trkpt><trkpt lat="43.347" lon="12.9986"><ele>241.0</ele><time>2026-04-04T15:30:09.727Z</time></trkpt><trkpt lat="43.34708" lon="12.9987483"><ele>241.0</ele><time>2026-04-04T15:30:10.727Z</time></trkpt><trkpt lat="43.3471617" lon="12.9989"><ele>241.0</ele><time>2026-04-04T15:30:11.727Z</time></trkpt><trkpt lat="43.3472483" lon="12.9990533"><ele>241.0</ele><time>2026-04-04T15:30:12.729Z</time></trkpt><trkpt lat="43.3473333" lon="12.9992133"><ele>241.0</ele><time>2026-04-04T15:30:13.729Z</time></trkpt><trkpt lat="43.3474167" lon="12.9993667"><ele>241.0</ele><time>2026-04-04T15:30:14.726Z</time></trkpt><trkpt lat="43.3475017" lon="12.9995217"><ele>241.0</ele><time>2026-04-04T15:30:15.727Z</time></trkpt><trkpt lat="43.3475883" lon="12.9996783"><ele>241.0</ele><time>2026-04-04T15:30:16.727Z</time></trkpt><trkpt lat="43.3476717" lon="12.9998383"><ele>241.0</ele><time>2026-04-04T15:30:17.729Z</time></trkpt><trkpt lat="43.34776" lon="13.0000067"><ele>241.0</ele><time>2026-04-04T15:30:18.735Z</time></trkpt><trkpt lat="43.3478567" lon="13.0001833"><ele>241.0</ele><time>2026-04-04T15:30:19.726Z</time></trkpt><trkpt lat="43.347955" lon="13.00037"><ele>241.0</ele><time>2026-04-04T15:30:20.732Z</time></trkpt><trkpt lat="43.3480517" lon="13.00055"><ele>240.33333333333331</ele><time>2026-04-04T15:30:21.73Z</time></trkpt><trkpt lat="43.348145" lon="13.000725"><ele>239.66666666666669</ele><time>2026-04-04T15:30:22.726Z</time></trkpt><trkpt lat="43.3482417" lon="13.0009033"><ele>239.0</ele><time>2026-04-04T15:30:23.727Z</time></trkpt><trkpt lat="43.3483417" lon="13.0010833"><ele>239.0</ele><time>2026-04-04T15:30:24.727Z</time></trkpt><trkpt lat="43.3484417" lon="13.00126"><ele>239.0</ele><time>2026-04-04T15:30:25.73Z</time></trkpt><trkpt lat="43.3485367" lon="13.001425"><ele>239.0</ele><time>2026-04-04T15:30:26.731Z</time></trkpt><trkpt lat="43.3486317" lon="13.0015917"><ele>239.0</ele><time>2026-04-04T15:30:27.727Z</time></trkpt><trkpt lat="43.3487317" lon="13.0017483"><ele>239.0</ele><time>2026-04-04T15:30:28.729Z</time></trkpt><trkpt lat="43.3488367" lon="13.0018933"><ele>239.0</ele><time>2026-04-04T15:30:29.731Z</time></trkpt><trkpt lat="43.3489533" lon="13.00202"><ele>239.0</ele><time>2026-04-04T15:30:30.725Z</time></trkpt><trkpt lat="43.34908" lon="13.00212"><ele>239.25</ele><time>2026-04-04T15:30:31.727Z</time></trkpt><trkpt lat="43.349215" lon="13.002185"><ele>239.5</ele><time>2026-04-04T15:30:32.729Z</time></trkpt><trkpt lat="43.349365" lon="13.00222"><ele>239.75</ele><time>2026-04-04T15:30:33.728Z</time></trkpt><trkpt lat="43.349515" lon="13.0022267"><ele>240.0</ele><time>2026-04-04T15:30:34.729Z</time></trkpt><trkpt lat="43.3496533" lon="13.0022183"><ele>239.33333333333331</ele><time>2026-04-04T15:30:35.728Z</time></trkpt><trkpt lat="43.3498017" lon="13.002205"><ele>238.66666666666666</ele><time>2026-04-04T15:30:36.73Z</time></trkpt><trkpt lat="43.3499567" lon="13.0021867"><ele>238.0</ele><time>2026-04-04T15:30:37.729Z</time></trkpt><trkpt lat="43.3501083" lon="13.0021667"><ele>238.0</ele><time>2026-04-04T15:30:38.73Z</time></trkpt><trkpt lat="43.3502567" lon="13.002155"><ele>238.0</ele><time>2026-04-04T15:30:39.728Z</time></trkpt><trkpt lat="43.3504083" lon="13.0021417"><ele>238.0</ele><time>2026-04-04T15:30:40.727Z</time></trkpt><trkpt lat="43.3505633" lon="13.0021217"><ele>237.33333333333331</ele><time>2026-04-04T15:30:41.726Z</time></trkpt><trkpt lat="43.3507217" lon="13.0020917"><ele>236.66666666666669</ele><time>2026-04-04T15:30:42.728Z</time></trkpt><trkpt lat="43.35089" lon="13.00205"><ele>236.0</ele><time>2026-04-04T15:30:43.73Z</time></trkpt><trkpt lat="43.3510617" lon="13.0020033"><ele>236.0</ele><time>2026-04-04T15:30:44.729Z</time></trkpt><trkpt lat="43.3512283" lon="13.0019567"><ele>236.0</ele><time>2026-04-04T15:30:45.732Z</time></trkpt><trkpt lat="43.35139" lon="13.0019117"><ele>236.0</ele><time>2026-04-04T15:30:46.728Z</time></trkpt><trkpt lat="43.3515567" lon="13.0018633"><ele>235.0</ele><time>2026-04-04T15:30:47.728Z</time></trkpt><trkpt lat="43.3517267" lon="13.0018133"><ele>234.0</ele><time>2026-04-04T15:30:48.726Z</time></trkpt><trkpt lat="43.3518883" lon="13.0017583"><ele>233.0</ele><time>2026-04-04T15:30:49.729Z</time></trkpt><trkpt lat="43.35205" lon="13.0016983"><ele>232.0</ele><time>2026-04-04T15:30:50.731Z</time></trkpt><trkpt lat="43.3522133" lon="13.001635"><ele>231.0</ele><time>2026-04-04T15:30:51.727Z</time></trkpt><trkpt lat="43.3523783" lon="13.0015683"><ele>230.0</ele><time>2026-04-04T15:30:52.73Z</time></trkpt><trkpt lat="43.35253" lon="13.001505"><ele>230.0</ele><time>2026-04-04T15:30:53.727Z</time></trkpt><trkpt lat="43.352685" lon="13.0014417"><ele>230.0</ele><time>2026-04-04T15:30:54.727Z</time></trkpt><trkpt lat="43.3528417" lon="13.0013783"><ele>230.0</ele><time>2026-04-04T15:30:55.727Z</time></trkpt><trkpt lat="43.353015" lon="13.0013133"><ele>229.66666666666669</ele><time>2026-04-04T15:30:56.728Z</time></trkpt><trkpt lat="43.353195" lon="13.00125"><ele>229.33333333333331</ele><time>2026-04-04T15:30:57.729Z</time></trkpt><trkpt lat="43.3533617" lon="13.0011917"><ele>229.0</ele><time>2026-04-04T15:30:58.729Z</time></trkpt><trkpt lat="43.3535167" lon="13.0011383"><ele>229.0</ele><time>2026-04-04T15:30:59.727Z</time></trkpt><trkpt lat="43.3536683" lon="13.001085"><ele>229.0</ele><time>2026-04-04T15:31:00.729Z</time></trkpt><trkpt lat="43.3538083" lon="13.001035"><ele>229.0</ele><time>2026-04-04T15:31:01.727Z</time></trkpt><trkpt lat="43.353945" lon="13.000985"><ele>229.0</ele><time>2026-04-04T15:31:02.727Z</time></trkpt><trkpt lat="43.35407" lon="13.000935"><ele>228.79999999999998</ele><time>2026-04-04T15:31:03.727Z</time></trkpt><trkpt lat="43.3541783" lon="13.0008883"><ele>228.59999999999997</ele><time>2026-04-04T15:31:04.733Z</time></trkpt><trkpt lat="43.354275" lon="13.00084"><ele>228.4</ele><time>2026-04-04T15:31:05.727Z</time></trkpt><trkpt lat="43.3543617" lon="13.000795"><ele>228.2</ele><time>2026-04-04T15:31:06.728Z</time></trkpt><trkpt lat="43.3544483" lon="13.000755"><ele>228.0</ele><time>2026-04-04T15:31:07.728Z</time></trkpt><trkpt lat="43.3545267" lon="13.0007133"><ele>228.0</ele><time>2026-04-04T15:31:08.732Z</time></trkpt><trkpt lat="43.3546" lon="13.0006783"><ele>227.99999999999997</ele><time>2026-04-04T15:31:09.73Z</time></trkpt><trkpt lat="43.354665" lon="13.0006417"><ele>228.0</ele><time>2026-04-04T15:31:10.726Z</time></trkpt><trkpt lat="43.35473" lon="13.0005917"><ele>228.0</ele><time>2026-04-04T15:31:11.728Z</time></trkpt><trkpt lat="43.354785" lon="13.00053"><ele>227.99999999999997</ele><time>2026-04-04T15:31:12.726Z</time></trkpt><trkpt lat="43.3548383" lon="13.0004633"><ele>228.0</ele><time>2026-04-04T15:31:13.727Z</time></trkpt><trkpt lat="43.35489" lon="13.000405"><ele>228.0</ele><time>2026-04-04T15:31:14.728Z</time></trkpt><trkpt lat="43.3550083" lon="13.0003267"><ele>228.4</ele><time>2026-04-04T15:31:16.729Z</time></trkpt><trkpt lat="43.3550967" lon="13.000295"><ele>228.8</ele><time>2026-04-04T15:31:17.727Z</time></trkpt><trkpt lat="43.35519" lon="13.0002567"><ele>229.2</ele><time>2026-04-04T15:31:18.729Z</time></trkpt><trkpt lat="43.3553067" lon="13.0002067"><ele>229.6</ele><time>2026-04-04T15:31:19.73Z</time></trkpt><trkpt lat="43.35543" lon="13.0001517"><ele>230.0</ele><time>2026-04-04T15:31:20.729Z</time></trkpt><trkpt lat="43.355545" lon="13.000085"><ele>233.25</ele><time>2026-04-04T15:31:21.726Z</time></trkpt><trkpt lat="43.355665" lon="13.000015"><ele>236.5</ele><time>2026-04-04T15:31:22.726Z</time></trkpt><trkpt lat="43.3558017" lon="12.9999367"><ele>239.75</ele><time>2026-04-04T15:31:23.733Z</time></trkpt><trkpt lat="43.3559467" lon="12.99986"><ele>243.0</ele><time>2026-04-04T15:31:24.733Z</time></trkpt><trkpt lat="43.35609" lon="12.9997833"><ele>243.0</ele><time>2026-04-04T15:31:25.73Z</time></trkpt><trkpt lat="43.3562217" lon="12.9997017"><ele>243.0</ele><time>2026-04-04T15:31:26.729Z</time></trkpt><trkpt lat="43.356345" lon="12.99962"><ele>243.0</ele><time>2026-04-04T15:31:27.729Z</time></trkpt><trkpt lat="43.35646" lon="12.999545"><ele>243.0</ele><time>2026-04-04T15:31:28.727Z</time></trkpt><trkpt lat="43.3565683" lon="12.999475"><ele>244.8</ele><time>2026-04-04T15:31:29.73Z</time></trkpt><trkpt lat="43.35667" lon="12.9994133"><ele>246.60000000000002</ele><time>2026-04-04T15:31:30.73Z</time></trkpt><trkpt lat="43.35677" lon="12.9993533"><ele>248.39999999999998</ele><time>2026-04-04T15:31:31.727Z</time></trkpt><trkpt lat="43.356865" lon="12.9992967"><ele>250.2</ele><time>2026-04-04T15:31:32.729Z</time></trkpt><trkpt lat="43.356955" lon="12.9992483"><ele>252.0</ele><time>2026-04-04T15:31:33.728Z</time></trkpt><trkpt lat="43.3570367" lon="12.9992167"><ele>252.0</ele><time>2026-04-04T15:31:34.724Z</time></trkpt><trkpt lat="43.3570983" lon="12.9991967"><ele>252.0</ele><time>2026-04-04T15:31:35.729Z</time></trkpt><trkpt lat="43.3571733" lon="12.9991633"><ele>252.0</ele><time>2026-04-04T15:31:37.726Z</time></trkpt><trkpt lat="43.35726" lon="12.9990017"><ele>252.0</ele><time>2026-04-04T15:31:52.726Z</time></trkpt><trkpt lat="43.3573483" lon="12.9988767"><ele>252.0</ele><time>2026-04-04T15:31:53.725Z</time></trkpt><trkpt lat="43.357445" lon="12.9987583"><ele>248.0</ele><time>2026-04-04T15:31:54.728Z</time></trkpt><trkpt lat="43.3575517" lon="12.998645"><ele>244.0</ele><time>2026-04-04T15:31:55.73Z</time></trkpt><trkpt lat="43.3576633" lon="12.9985483"><ele>240.0</ele><time>2026-04-04T15:31:56.729Z</time></trkpt><trkpt lat="43.3577783" lon="12.9984467"><ele>236.0</ele><time>2026-04-04T15:31:57.727Z</time></trkpt><trkpt lat="43.3578833" lon="12.9983167"><ele>234.66666666666669</ele><time>2026-04-04T15:31:58.729Z</time></trkpt><trkpt lat="43.3579633" lon="12.998135"><ele>233.33333333333331</ele><time>2026-04-04T15:31:59.727Z</time></trkpt><trkpt lat="43.358035" lon="12.99794"><ele>232.0</ele><time>2026-04-04T15:32:00.729Z</time></trkpt><trkpt lat="43.3581267" lon="12.9977683"><ele>232.0</ele><time>2026-04-04T15:32:01.727Z</time></trkpt><trkpt lat="43.35825" lon="12.9976233"><ele>232.0</ele><time>2026-04-04T15:32:02.733Z</time></trkpt><trkpt lat="43.3584017" lon="12.997485"><ele>232.0</ele><time>2026-04-04T15:32:03.724Z</time></trkpt><trkpt lat="43.3585633" lon="12.9973433"><ele>232.0</ele><time>2026-04-04T15:32:04.728Z</time></trkpt><trkpt lat="43.3587333" lon="12.9972033"><ele>232.0</ele><time>2026-04-04T15:32:05.729Z</time></trkpt><trkpt lat="43.358915" lon="12.9970683"><ele>232.0</ele><time>2026-04-04T15:32:06.731Z</time></trkpt><trkpt lat="43.3591067" lon="12.9969367"><ele>232.0</ele><time>2026-04-04T15:32:07.728Z</time></trkpt><trkpt lat="43.35931" lon="12.9968083"><ele>232.0</ele><time>2026-04-04T15:32:08.727Z</time></trkpt><trkpt lat="43.35952" lon="12.996685"><ele>228.0</ele><time>2026-04-04T15:32:09.73Z</time></trkpt><trkpt lat="43.3597367" lon="12.99657"><ele>224.0</ele><time>2026-04-04T15:32:10.73Z</time></trkpt><trkpt lat="43.359955" lon="12.9964583"><ele>224.0</ele><time>2026-04-04T15:32:11.726Z</time></trkpt><trkpt lat="43.3601767" lon="12.9963533"><ele>224.0</ele><time>2026-04-04T15:32:12.73Z</time></trkpt><trkpt lat="43.3603983" lon="12.9962433"><ele>227.0</ele><time>2026-04-04T15:32:13.728Z</time></trkpt><trkpt lat="43.3606167" lon="12.9961333"><ele>230.0</ele><time>2026-04-04T15:32:14.727Z</time></trkpt><trkpt lat="43.36084" lon="12.9960333"><ele>230.0</ele><time>2026-04-04T15:32:15.729Z</time></trkpt><trkpt lat="43.3610617" lon="12.9959317"><ele>230.0</ele><time>2026-04-04T15:32:16.729Z</time></trkpt><trkpt lat="43.3612867" lon="12.9958333"><ele>227.0</ele><time>2026-04-04T15:32:17.727Z</time></trkpt><trkpt lat="43.3615133" lon="12.99573"><ele>224.0</ele><time>2026-04-04T15:32:18.726Z</time></trkpt><trkpt lat="43.3617467" lon="12.995625"><ele>224.0</ele><time>2026-04-04T15:32:19.731Z</time></trkpt><trkpt lat="43.36198" lon="12.9955183"><ele>224.0</ele><time>2026-04-04T15:32:20.732Z</time></trkpt><trkpt lat="43.3622167" lon="12.9954133"><ele>224.5</ele><time>2026-04-04T15:32:21.727Z</time></trkpt><trkpt lat="43.3624483" lon="12.9953033"><ele>225.0</ele><time>2026-04-04T15:32:22.732Z</time></trkpt><trkpt lat="43.36268" lon="12.9951983"><ele>225.0</ele><time>2026-04-04T15:32:23.725Z</time></trkpt><trkpt lat="43.3629083" lon="12.9950933"><ele>225.0</ele><time>2026-04-04T15:32:24.724Z</time></trkpt><trkpt lat="43.363135" lon="12.9949883"><ele>224.5</ele><time>2026-04-04T15:32:25.729Z</time></trkpt><trkpt lat="43.3633683" lon="12.9948833"><ele>224.0</ele><time>2026-04-04T15:32:26.73Z</time></trkpt><trkpt lat="43.3636033" lon="12.994775"><ele>224.0</ele><time>2026-04-04T15:32:27.729Z</time></trkpt><trkpt lat="43.3638383" lon="12.9946633"><ele>224.0</ele><time>2026-04-04T15:32:28.728Z</time></trkpt><trkpt lat="43.3640767" lon="12.9945517"><ele>228.5</ele><time>2026-04-04T15:32:29.729Z</time></trkpt><trkpt lat="43.36432" lon="12.9944383"><ele>233.0</ele><time>2026-04-04T15:32:30.73Z</time></trkpt><trkpt lat="43.3645667" lon="12.994325"><ele>230.5</ele><time>2026-04-04T15:32:31.73Z</time></trkpt><trkpt lat="43.3648117" lon="12.9942083"><ele>228.0</ele><time>2026-04-04T15:32:32.728Z</time></trkpt><trkpt lat="43.3650567" lon="12.9940933"><ele>228.0</ele><time>2026-04-04T15:32:33.727Z</time></trkpt><trkpt lat="43.3653" lon="12.99398"><ele>228.0</ele><time>2026-04-04T15:32:34.725Z</time></trkpt><trkpt lat="43.3655417" lon="12.993875"><ele>235.5</ele><time>2026-04-04T15:32:35.729Z</time></trkpt><trkpt lat="43.3657833" lon="12.993765"><ele>243.0</ele><time>2026-04-04T15:32:36.727Z</time></trkpt><trkpt lat="43.36602" lon="12.99365"><ele>243.0</ele><time>2026-04-04T15:32:37.731Z</time></trkpt><trkpt lat="43.3662517" lon="12.99354"><ele>243.0</ele><time>2026-04-04T15:32:38.731Z</time></trkpt><trkpt lat="43.3664817" lon="12.9934333"><ele>233.5</ele><time>2026-04-04T15:32:39.728Z</time></trkpt><trkpt lat="43.3667117" lon="12.993325"><ele>224.0</ele><time>2026-04-04T15:32:40.726Z</time></trkpt><trkpt lat="43.36694" lon="12.993215"><ele>224.0</ele><time>2026-04-04T15:32:41.729Z</time></trkpt><trkpt lat="43.3671683" lon="12.9931017"><ele>224.0</ele><time>2026-04-04T15:32:42.728Z</time></trkpt><trkpt lat="43.3673933" lon="12.9929833"><ele>232.5</ele><time>2026-04-04T15:32:43.727Z</time></trkpt><trkpt lat="43.3676217" lon="12.99287"><ele>241.0</ele><time>2026-04-04T15:32:44.73Z</time></trkpt><trkpt lat="43.3678467" lon="12.99275"><ele>251.0</ele><time>2026-04-04T15:32:45.728Z</time></trkpt><trkpt lat="43.3680733" lon="12.9926367"><ele>261.0</ele><time>2026-04-04T15:32:46.727Z</time></trkpt><trkpt lat="43.3682917" lon="12.9925133"><ele>244.0</ele><time>2026-04-04T15:32:47.728Z</time></trkpt><trkpt lat="43.3685117" lon="12.9923783"><ele>227.0</ele><time>2026-04-04T15:32:48.728Z</time></trkpt><trkpt lat="43.3687217" lon="12.992235"><ele>232.0</ele><time>2026-04-04T15:32:49.731Z</time></trkpt><trkpt lat="43.368915" lon="12.9920967"><ele>237.0</ele><time>2026-04-04T15:32:50.731Z</time></trkpt><trkpt lat="43.3690767" lon="12.9919617"><ele>242.0</ele><time>2026-04-04T15:32:51.728Z</time></trkpt><trkpt lat="43.3692217" lon="12.991835"><ele>242.0</ele><time>2026-04-04T15:32:52.73Z</time></trkpt><trkpt lat="43.3693533" lon="12.991715"><ele>242.0</ele><time>2026-04-04T15:32:53.728Z</time></trkpt><trkpt lat="43.369475" lon="12.991595"><ele>242.0</ele><time>2026-04-04T15:32:54.728Z</time></trkpt><trkpt lat="43.3695883" lon="12.9914783"><ele>242.0</ele><time>2026-04-04T15:32:55.729Z</time></trkpt><trkpt lat="43.3696967" lon="12.991365"><ele>240.75</ele><time>2026-04-04T15:32:56.731Z</time></trkpt><trkpt lat="43.3698" lon="12.9912567"><ele>239.5</ele><time>2026-04-04T15:32:57.727Z</time></trkpt><trkpt lat="43.3699033" lon="12.9911467"><ele>238.25</ele><time>2026-04-04T15:32:58.727Z</time></trkpt><trkpt lat="43.37001" lon="12.9910267"><ele>237.0</ele><time>2026-04-04T15:32:59.727Z</time></trkpt><trkpt lat="43.370125" lon="12.9909017"><ele>237.25</ele><time>2026-04-04T15:33:00.731Z</time></trkpt><trkpt lat="43.3702417" lon="12.9907717"><ele>237.5</ele><time>2026-04-04T15:33:01.726Z</time></trkpt><trkpt lat="43.3703583" lon="12.9906483"><ele>237.75</ele><time>2026-04-04T15:33:02.738Z</time></trkpt><trkpt lat="43.3704783" lon="12.9905283"><ele>238.0</ele><time>2026-04-04T15:33:03.728Z</time></trkpt><trkpt lat="43.37061" lon="12.990405"><ele>238.0</ele><time>2026-04-04T15:33:04.729Z</time></trkpt><trkpt lat="43.3707533" lon="12.99028"><ele>238.0</ele><time>2026-04-04T15:33:05.727Z</time></trkpt><trkpt lat="43.3709" lon="12.990155"><ele>238.0</ele><time>2026-04-04T15:33:06.726Z</time></trkpt><trkpt lat="43.3710517" lon="12.9900367"><ele>239.66666666666666</ele><time>2026-04-04T15:33:07.726Z</time></trkpt><trkpt lat="43.3712083" lon="12.98992"><ele>241.33333333333331</ele><time>2026-04-04T15:33:08.73Z</time></trkpt><trkpt lat="43.371385" lon="12.9897967"><ele>243.0</ele><time>2026-04-04T15:33:09.728Z</time></trkpt><trkpt lat="43.3715783" lon="12.9896767"><ele>243.0</ele><time>2026-04-04T15:33:10.726Z</time></trkpt><trkpt lat="43.371785" lon="12.9895617"><ele>243.0</ele><time>2026-04-04T15:33:11.73Z</time></trkpt><trkpt lat="43.3719967" lon="12.9894433"><ele>258.0</ele><time>2026-04-04T15:33:12.727Z</time></trkpt><trkpt lat="43.3722183" lon="12.989315"><ele>273.0</ele><time>2026-04-04T15:33:13.728Z</time></trkpt><trkpt lat="43.3724417" lon="12.9891917"><ele>259.0</ele><time>2026-04-04T15:33:14.731Z</time></trkpt><trkpt lat="43.3726667" lon="12.9890717"><ele>245.0</ele><time>2026-04-04T15:33:15.73Z</time></trkpt><trkpt lat="43.3728917" lon="12.9889517"><ele>255.5</ele><time>2026-04-04T15:33:16.727Z</time></trkpt><trkpt lat="43.3731167" lon="12.9888317"><ele>266.0</ele><time>2026-04-04T15:33:17.726Z</time></trkpt><trkpt lat="43.37334" lon="12.9887117"><ele>259.0</ele><time>2026-04-04T15:33:18.73Z</time></trkpt><trkpt lat="43.3830433" lon="12.9845283"><ele>259.0</ele><time>2026-04-04T15:33:57.728Z</time></trkpt><trkpt lat="43.3833367" lon="12.984455"><ele>259.0</ele><time>2026-04-04T15:33:58.727Z</time></trkpt><trkpt lat="43.38355" lon="12.9843783"><ele>259.0</ele><time>2026-04-04T15:33:59.73Z</time></trkpt><trkpt lat="43.3837517" lon="12.9843133"><ele>259.0</ele><time>2026-04-04T15:34:00.726Z</time></trkpt><trkpt lat="43.3839267" lon="12.9842283"><ele>259.0</ele><time>2026-04-04T15:34:01.727Z</time></trkpt><trkpt lat="43.3840983" lon="12.984145"><ele>257.0</ele><time>2026-04-04T15:34:02.728Z</time></trkpt><trkpt lat="43.3842717" lon="12.9840633"><ele>255.0</ele><time>2026-04-04T15:34:03.727Z</time></trkpt><trkpt lat="43.384445" lon="12.9839867"><ele>253.0</ele><time>2026-04-04T15:34:04.727Z</time></trkpt><trkpt lat="43.3846133" lon="12.9839283"><ele>261.0</ele><time>2026-04-04T15:34:05.727Z</time></trkpt><trkpt lat="43.3847867" lon="12.983905"><ele>269.0</ele><time>2026-04-04T15:34:06.728Z</time></trkpt><trkpt lat="43.3849617" lon="12.9838883"><ele>277.0</ele><time>2026-04-04T15:34:07.727Z</time></trkpt><trkpt lat="43.3851367" lon="12.98387"><ele>277.0</ele><time>2026-04-04T15:34:08.727Z</time></trkpt><trkpt lat="43.3853117" lon="12.9838517"><ele>277.0</ele><time>2026-04-04T15:34:09.726Z</time></trkpt><trkpt lat="43.3854733" lon="12.98386"><ele>277.0</ele><time>2026-04-04T15:34:10.727Z</time></trkpt><trkpt lat="43.3856167" lon="12.9835767"><ele>279.3333333333333</ele><time>2026-04-04T15:34:11.727Z</time></trkpt><trkpt lat="43.3858033" lon="12.98348"><ele>281.6666666666667</ele><time>2026-04-04T15:34:12.729Z</time></trkpt><trkpt lat="43.3859933" lon="12.983405"><ele>284.0</ele><time>2026-04-04T15:34:13.728Z</time></trkpt><trkpt lat="43.386175" lon="12.9833233"><ele>277.0</ele><time>2026-04-04T15:34:14.728Z</time></trkpt><trkpt lat="43.3863667" lon="12.9832517"><ele>270.0</ele><time>2026-04-04T15:34:15.727Z</time></trkpt><trkpt lat="43.38657" lon="12.9831883"><ele>263.0</ele><time>2026-04-04T15:34:16.726Z</time></trkpt><trkpt lat="43.3867867" lon="12.98313"><ele>263.0</ele><time>2026-04-04T15:34:17.732Z</time></trkpt><trkpt lat="43.3870183" lon="12.9830917"><ele>263.0</ele><time>2026-04-04T15:34:18.725Z</time></trkpt><trkpt lat="43.38726" lon="12.983055"><ele>268.0</ele><time>2026-04-04T15:34:19.727Z</time></trkpt><trkpt lat="43.38751" lon="12.983025"><ele>273.0</ele><time>2026-04-04T15:34:20.727Z</time></trkpt><trkpt lat="43.3877667" lon="12.9830017"><ele>277.0</ele><time>2026-04-04T15:34:21.729Z</time></trkpt><trkpt lat="43.3880233" lon="12.982975"><ele>281.0</ele><time>2026-04-04T15:34:22.727Z</time></trkpt><trkpt lat="43.38828" lon="12.9829583"><ele>281.0</ele><time>2026-04-04T15:34:23.729Z</time></trkpt><trkpt lat="43.3885367" lon="12.9829367"><ele>281.0</ele><time>2026-04-04T15:34:24.728Z</time></trkpt><trkpt lat="43.3887783" lon="12.98288"><ele>282.5</ele><time>2026-04-04T15:34:25.729Z</time></trkpt><trkpt lat="43.389025" lon="12.9828367"><ele>284.0</ele><time>2026-04-04T15:34:26.728Z</time></trkpt><trkpt lat="43.389265" lon="12.9827883"><ele>284.0</ele><time>2026-04-04T15:34:27.726Z</time></trkpt><trkpt lat="43.38951" lon="12.9827467"><ele>284.0</ele><time>2026-04-04T15:34:28.725Z</time></trkpt><trkpt lat="43.395715" lon="12.9822283"><ele>262.0</ele><time>2026-04-04T15:34:51.727Z</time></trkpt><trkpt lat="43.3959883" lon="12.9822"><ele>240.0</ele><time>2026-04-04T15:34:52.728Z</time></trkpt><trkpt lat="43.3962533" lon="12.9821817"><ele>239.0</ele><time>2026-04-04T15:34:53.728Z</time></trkpt><trkpt lat="43.39651" lon="12.982165"><ele>238.0</ele><time>2026-04-04T15:34:54.729Z</time></trkpt><trkpt lat="43.3967633" lon="12.9821517"><ele>238.0</ele><time>2026-04-04T15:34:55.73Z</time></trkpt><trkpt lat="43.3970167" lon="12.9821383"><ele>238.0</ele><time>2026-04-04T15:34:56.729Z</time></trkpt><trkpt lat="43.397275" lon="12.982135"><ele>240.5</ele><time>2026-04-04T15:34:57.728Z</time></trkpt><trkpt lat="43.3975333" lon="12.9821417"><ele>243.0</ele><time>2026-04-04T15:34:58.726Z</time></trkpt><trkpt lat="43.397795" lon="12.982155"><ele>246.0</ele><time>2026-04-04T15:34:59.729Z</time></trkpt><trkpt lat="43.3980617" lon="12.98217"><ele>249.0</ele><time>2026-04-04T15:35:00.728Z</time></trkpt><trkpt lat="43.39833" lon="12.98218"><ele>249.0</ele><time>2026-04-04T15:35:01.733Z</time></trkpt><trkpt lat="43.398595" lon="12.9821883"><ele>249.0</ele><time>2026-04-04T15:35:02.73Z</time></trkpt><trkpt lat="43.3988583" lon="12.9821983"><ele>250.5</ele><time>2026-04-04T15:35:03.729Z</time></trkpt><trkpt lat="43.3991233" lon="12.98221"><ele>252.0</ele><time>2026-04-04T15:35:04.728Z</time></trkpt><trkpt lat="43.399395" lon="12.9822217"><ele>252.0</ele><time>2026-04-04T15:35:05.726Z</time></trkpt><trkpt lat="43.3996633" lon="12.9822317"><ele>252.0</ele><time>2026-04-04T15:35:06.726Z</time></trkpt><trkpt lat="43.3999333" lon="12.9822433"><ele>248.0</ele><time>2026-04-04T15:35:07.725Z</time></trkpt><trkpt lat="43.400205" lon="12.9822583"><ele>244.0</ele><time>2026-04-04T15:35:08.728Z</time></trkpt><trkpt lat="43.4004783" lon="12.9822767"><ele>219.0</ele><time>2026-04-04T15:35:09.725Z</time></trkpt><trkpt lat="43.4015467" lon="12.9822983"><ele>219.0</ele><time>2026-04-04T15:35:13.73Z</time></trkpt><trkpt lat="43.4018217" lon="12.982335"><ele>219.0</ele><time>2026-04-04T15:35:14.727Z</time></trkpt><trkpt lat="43.4021" lon="12.9823617"><ele>217.0</ele><time>2026-04-04T15:35:15.726Z</time></trkpt><trkpt lat="43.4023717" lon="12.982385"><ele>215.0</ele><time>2026-04-04T15:35:16.727Z</time></trkpt><trkpt lat="43.4026333" lon="12.98241"><ele>215.0</ele><time>2026-04-04T15:35:17.726Z</time></trkpt><trkpt lat="43.4028933" lon="12.9824433"><ele>215.0</ele><time>2026-04-04T15:35:18.726Z</time></trkpt><trkpt lat="43.403155" lon="12.982485"><ele>228.5</ele><time>2026-04-04T15:35:19.727Z</time></trkpt><trkpt lat="43.4034167" lon="12.98253"><ele>242.0</ele><time>2026-04-04T15:35:20.729Z</time></trkpt><trkpt lat="43.4036783" lon="12.9825733"><ele>246.5</ele><time>2026-04-04T15:35:21.728Z</time></trkpt><trkpt lat="43.4039383" lon="12.9826133"><ele>251.0</ele><time>2026-04-04T15:35:22.727Z</time></trkpt><trkpt lat="43.4042" lon="12.9826567"><ele>251.0</ele><time>2026-04-04T15:35:23.728Z</time></trkpt><trkpt lat="43.40446" lon="12.9827033"><ele>251.0</ele><time>2026-04-04T15:35:24.728Z</time></trkpt><trkpt lat="43.4047183" lon="12.9827667"><ele>257.5</ele><time>2026-04-04T15:35:25.727Z</time></trkpt><trkpt lat="43.40498" lon="12.9828183"><ele>264.0</ele><time>2026-04-04T15:35:26.732Z</time></trkpt><trkpt lat="43.40524" lon="12.98287"><ele>271.5</ele><time>2026-04-04T15:35:27.726Z</time></trkpt><trkpt lat="43.4055017" lon="12.9829217"><ele>279.0</ele><time>2026-04-04T15:35:28.727Z</time></trkpt><trkpt lat="43.4300867" lon="13.01125"><ele>225.5</ele><time>2026-04-04T15:37:27.728Z</time></trkpt><trkpt lat="43.4303117" lon="13.01152"><ele>172.0</ele><time>2026-04-04T15:37:28.728Z</time></trkpt><trkpt lat="43.4305167" lon="13.0117867"><ele>167.0</ele><time>2026-04-04T15:37:29.728Z</time></trkpt><trkpt lat="43.4307133" lon="13.0120433"><ele>162.0</ele><time>2026-04-04T15:37:30.728Z</time></trkpt><trkpt lat="43.4309" lon="13.0122983"><ele>161.5</ele><time>2026-04-04T15:37:31.729Z</time></trkpt><trkpt lat="43.4310833" lon="13.0125533"><ele>161.0</ele><time>2026-04-04T15:37:32.731Z</time></trkpt><trkpt lat="43.4312633" lon="13.01281"><ele>163.0</ele><time>2026-04-04T15:37:33.728Z</time></trkpt><trkpt lat="43.43144" lon="13.01307"><ele>165.0</ele><time>2026-04-04T15:37:34.727Z</time></trkpt><trkpt lat="43.43161" lon="13.0133317"><ele>165.0</ele><time>2026-04-04T15:37:35.727Z</time></trkpt><trkpt lat="43.4317783" lon="13.0136"><ele>165.0</ele><time>2026-04-04T15:37:36.729Z</time></trkpt><trkpt lat="43.4319467" lon="13.0138633"><ele>165.0</ele><time>2026-04-04T15:37:37.725Z</time></trkpt><trkpt lat="43.432115" lon="13.0141367"><ele>165.0</ele><time>2026-04-04T15:37:38.727Z</time></trkpt><trkpt lat="43.43228" lon="13.0144117"><ele>167.0</ele><time>2026-04-04T15:37:39.728Z</time></trkpt><trkpt lat="43.4324417" lon="13.01469"><ele>169.0</ele><time>2026-04-04T15:37:40.728Z</time></trkpt><trkpt lat="43.4325983" lon="13.014975"><ele>166.0</ele><time>2026-04-04T15:37:41.729Z</time></trkpt><trkpt lat="43.4327517" lon="13.015265"><ele>163.0</ele><time>2026-04-04T15:37:42.727Z</time></trkpt><trkpt lat="43.4329067" lon="13.015555"><ele>166.5</ele><time>2026-04-04T15:37:43.727Z</time></trkpt><trkpt lat="43.4330617" lon="13.0158533"><ele>170.0</ele><time>2026-04-04T15:37:44.732Z</time></trkpt><trkpt lat="43.433215" lon="13.016155"><ele>170.0</ele><time>2026-04-04T15:37:45.725Z</time></trkpt><trkpt lat="43.4333667" lon="13.01645"><ele>170.0</ele><time>2026-04-04T15:37:46.727Z</time></trkpt><trkpt lat="43.4335217" lon="13.01674"><ele>173.0</ele><time>2026-04-04T15:37:47.729Z</time></trkpt><trkpt lat="43.4336767" lon="13.0170267"><ele>176.0</ele><time>2026-04-04T15:37:48.728Z</time></trkpt><trkpt lat="43.43383" lon="13.0173167"><ele>169.5</ele><time>2026-04-04T15:37:49.728Z</time></trkpt><trkpt lat="43.4339867" lon="13.0176033"><ele>163.0</ele><time>2026-04-04T15:37:50.727Z</time></trkpt><trkpt lat="43.4341467" lon="13.01789"><ele>163.0</ele><time>2026-04-04T15:37:51.726Z</time></trkpt><trkpt lat="43.43431" lon="13.0181767"><ele>163.0</ele><time>2026-04-04T15:37:52.726Z</time></trkpt><trkpt lat="43.434475" lon="13.0184583"><ele>163.5</ele><time>2026-04-04T15:37:53.726Z</time></trkpt><trkpt lat="43.434645" lon="13.0187333"><ele>164.0</ele><time>2026-04-04T15:37:54.727Z</time></trkpt><trkpt lat="43.4348183" lon="13.019"><ele>160.5</ele><time>2026-04-04T15:37:55.729Z</time></trkpt><trkpt lat="43.4349967" lon="13.0192567"><ele>157.0</ele><time>2026-04-04T15:37:56.728Z</time></trkpt><trkpt lat="43.4351783" lon="13.0195"><ele>157.0</ele><time>2026-04-04T15:37:57.725Z</time></trkpt><trkpt lat="43.435365" lon="13.0197383"><ele>157.0</ele><time>2026-04-04T15:37:58.727Z</time></trkpt><trkpt lat="43.4355533" lon="13.0199717"><ele>158.5</ele><time>2026-04-04T15:37:59.727Z</time></trkpt><trkpt lat="43.4357433" lon="13.020195"><ele>160.0</ele><time>2026-04-04T15:38:00.73Z</time></trkpt><trkpt lat="43.43594" lon="13.02041"><ele>160.0</ele><time>2026-04-04T15:38:01.73Z</time></trkpt><trkpt lat="43.4361433" lon="13.02062"><ele>160.0</ele><time>2026-04-04T15:38:02.727Z</time></trkpt><trkpt lat="43.4363483" lon="13.0208233"><ele>159.5</ele><time>2026-04-04T15:38:03.725Z</time></trkpt><trkpt lat="43.4365617" lon="13.021025"><ele>159.0</ele><time>2026-04-04T15:38:04.726Z</time></trkpt><trkpt lat="43.43678" lon="13.0212167"><ele>159.0</ele><time>2026-04-04T15:38:05.728Z</time></trkpt><trkpt lat="43.4369967" lon="13.0214"><ele>159.0</ele><time>2026-04-04T15:38:06.726Z</time></trkpt><trkpt lat="43.4372167" lon="13.0215867"><ele>158.5</ele><time>2026-04-04T15:38:07.728Z</time></trkpt><trkpt lat="43.437435" lon="13.0217733"><ele>158.0</ele><time>2026-04-04T15:38:08.727Z</time></trkpt><trkpt lat="43.437645" lon="13.02196"><ele>158.0</ele><time>2026-04-04T15:38:09.727Z</time></trkpt><trkpt lat="43.4378533" lon="13.0221583"><ele>158.0</ele><time>2026-04-04T15:38:10.726Z</time></trkpt><trkpt lat="43.4380517" lon="13.0223733"><ele>158.5</ele><time>2026-04-04T15:38:11.728Z</time></trkpt><trkpt lat="43.4382367" lon="13.022605"><ele>159.0</ele><time>2026-04-04T15:38:12.728Z</time></trkpt><trkpt lat="43.4384183" lon="13.02285"><ele>159.0</ele><time>2026-04-04T15:38:13.726Z</time></trkpt><trkpt lat="43.4385933" lon="13.023105"><ele>159.0</ele><time>2026-04-04T15:38:14.731Z</time></trkpt><trkpt lat="43.4387567" lon="13.0233733"><ele>157.5</ele><time>2026-04-04T15:38:15.726Z</time></trkpt><trkpt lat="43.4389083" lon="13.0236583"><ele>156.0</ele><time>2026-04-04T15:38:16.727Z</time></trkpt><trkpt lat="43.4390467" lon="13.0239533"><ele>157.5</ele><time>2026-04-04T15:38:17.726Z</time></trkpt><trkpt lat="43.4391733" lon="13.0242583"><ele>159.0</ele><time>2026-04-04T15:38:18.724Z</time></trkpt><trkpt lat="43.4392917" lon="13.02457"><ele>159.0</ele><time>2026-04-04T15:38:19.724Z</time></trkpt><trkpt lat="43.439405" lon="13.0248867"><ele>159.0</ele><time>2026-04-04T15:38:20.726Z</time></trkpt><trkpt lat="43.43952" lon="13.0252033"><ele>159.0</ele><time>2026-04-04T15:38:21.725Z</time></trkpt><trkpt lat="43.43963" lon="13.0255167"><ele>159.0</ele><time>2026-04-04T15:38:22.723Z</time></trkpt><trkpt lat="43.4397483" lon="13.0258317"><ele>156.5</ele><time>2026-04-04T15:38:23.727Z</time></trkpt><trkpt lat="43.4398667" lon="13.0261483"><ele>154.0</ele><time>2026-04-04T15:38:24.727Z</time></trkpt><trkpt lat="43.4399833" lon="13.02646"><ele>154.5</ele><time>2026-04-04T15:38:25.728Z</time></trkpt><trkpt lat="43.4401033" lon="13.0267733"><ele>155.0</ele><time>2026-04-04T15:38:26.726Z</time></trkpt><trkpt lat="43.44023" lon="13.02708"><ele>155.0</ele><time>2026-04-04T15:38:27.728Z</time></trkpt><trkpt lat="43.4403633" lon="13.0273783"><ele>155.0</ele><time>2026-04-04T15:38:28.728Z</time></trkpt><trkpt lat="43.4405033" lon="13.02767"><ele>152.5</ele><time>2026-04-04T15:38:29.729Z</time></trkpt><trkpt lat="43.4406467" lon="13.027955"><ele>150.0</ele><time>2026-04-04T15:38:30.726Z</time></trkpt><trkpt lat="43.4407983" lon="13.0282383"><ele>150.0</ele><time>2026-04-04T15:38:31.727Z</time></trkpt><trkpt lat="43.4409533" lon="13.0285167"><ele>150.0</ele><time>2026-04-04T15:38:32.727Z</time></trkpt><trkpt lat="43.441115" lon="13.0287883"><ele>150.0</ele><time>2026-04-04T15:38:33.726Z</time></trkpt><trkpt lat="43.4412767" lon="13.029055"><ele>150.0</ele><time>2026-04-04T15:38:34.726Z</time></trkpt><trkpt lat="43.4414467" lon="13.029315"><ele>150.0</ele><time>2026-04-04T15:38:35.727Z</time></trkpt><trkpt lat="43.4416217" lon="13.0295667"><ele>150.0</ele><time>2026-04-04T15:38:36.729Z</time></trkpt><trkpt lat="43.441805" lon="13.0298133"><ele>150.5</ele><time>2026-04-04T15:38:37.725Z</time></trkpt><trkpt lat="43.44199" lon="13.0300533"><ele>151.0</ele><time>2026-04-04T15:38:38.727Z</time></trkpt><trkpt lat="43.44218" lon="13.0302867"><ele>150.0</ele><time>2026-04-04T15:38:39.728Z</time></trkpt><trkpt lat="43.4423717" lon="13.0305167"><ele>149.0</ele><time>2026-04-04T15:38:40.726Z</time></trkpt><trkpt lat="43.44257" lon="13.0307433"><ele>148.5</ele><time>2026-04-04T15:38:41.727Z</time></trkpt><trkpt lat="43.442775" lon="13.03096"><ele>148.0</ele><time>2026-04-04T15:38:42.726Z</time></trkpt><trkpt lat="43.4429817" lon="13.0311683"><ele>147.0</ele><time>2026-04-04T15:38:43.729Z</time></trkpt><trkpt lat="43.44319" lon="13.0313667"><ele>146.0</ele><time>2026-04-04T15:38:44.729Z</time></trkpt><trkpt lat="43.4434" lon="13.031555"><ele>147.0</ele><time>2026-04-04T15:38:45.725Z</time></trkpt><trkpt lat="43.443615" lon="13.0317367"><ele>148.0</ele><time>2026-04-04T15:38:46.728Z</time></trkpt><trkpt lat="43.443835" lon="13.0319133"><ele>148.0</ele><time>2026-04-04T15:38:47.728Z</time></trkpt><trkpt lat="43.4440567" lon="13.03208"><ele>148.0</ele><time>2026-04-04T15:38:48.725Z</time></trkpt><trkpt lat="43.4442867" lon="13.0322383"><ele>148.0</ele><time>2026-04-04T15:38:49.729Z</time></trkpt><trkpt lat="43.4445233" lon="13.0323967"><ele>148.0</ele><time>2026-04-04T15:38:50.729Z</time></trkpt><trkpt lat="43.4447583" lon="13.0325467"><ele>148.0</ele><time>2026-04-04T15:38:51.726Z</time></trkpt><trkpt lat="43.4449917" lon="13.0326967"><ele>148.0</ele><time>2026-04-04T15:38:52.727Z</time></trkpt><trkpt lat="43.44522" lon="13.0328483"><ele>148.0</ele><time>2026-04-04T15:38:53.728Z</time></trkpt><trkpt lat="43.4454483" lon="13.033005"><ele>148.0</ele><time>2026-04-04T15:38:54.726Z</time></trkpt><trkpt lat="43.4456733" lon="13.0331683"><ele>148.0</ele><time>2026-04-04T15:38:55.726Z</time></trkpt><trkpt lat="43.4458917" lon="13.0333383"><ele>148.0</ele><time>2026-04-04T15:38:56.723Z</time></trkpt><trkpt lat="43.44611" lon="13.0335117"><ele>147.0</ele><time>2026-04-04T15:38:57.729Z</time></trkpt><trkpt lat="43.4463233" lon="13.0336967"><ele>146.0</ele><time>2026-04-04T15:38:58.725Z</time></trkpt><trkpt lat="43.446535" lon="13.0338883"><ele>146.0</ele><time>2026-04-04T15:38:59.729Z</time></trkpt><trkpt lat="43.4467467" lon="13.034085"><ele>146.0</ele><time>2026-04-04T15:39:00.727Z</time></trkpt><trkpt lat="43.4469533" lon="13.0342867"><ele>147.0</ele><time>2026-04-04T15:39:01.731Z</time></trkpt><trkpt lat="43.447155" lon="13.034495"><ele>148.0</ele><time>2026-04-04T15:39:02.727Z</time></trkpt><trkpt lat="43.4473517" lon="13.03471"><ele>148.0</ele><time>2026-04-04T15:39:03.725Z</time></trkpt><trkpt lat="43.4475483" lon="13.034935"><ele>148.0</ele><time>2026-04-04T15:39:04.724Z</time></trkpt><trkpt lat="43.4477467" lon="13.035165"><ele>147.5</ele><time>2026-04-04T15:39:05.728Z</time></trkpt><trkpt lat="43.4479417" lon="13.0354"><ele>147.0</ele><time>2026-04-04T15:39:06.73Z</time></trkpt><trkpt lat="43.4481317" lon="13.0356417"><ele>147.0</ele><time>2026-04-04T15:39:07.726Z</time></trkpt><trkpt lat="43.448315" lon="13.03589"><ele>147.0</ele><time>2026-04-04T15:39:08.728Z</time></trkpt><trkpt lat="43.4484967" lon="13.036145"><ele>147.0</ele><time>2026-04-04T15:39:09.726Z</time></trkpt><trkpt lat="43.4486733" lon="13.0364067"><ele>147.0</ele><time>2026-04-04T15:39:10.726Z</time></trkpt><trkpt lat="43.4488467" lon="13.0366717"><ele>146.5</ele><time>2026-04-04T15:39:11.727Z</time></trkpt><trkpt lat="43.4490117" lon="13.0369367"><ele>146.0</ele><time>2026-04-04T15:39:12.727Z</time></trkpt><trkpt lat="43.4491667" lon="13.03721"><ele>146.0</ele><time>2026-04-04T15:39:13.728Z</time></trkpt><trkpt lat="43.4493183" lon="13.0374833"><ele>146.0</ele><time>2026-04-04T15:39:14.734Z</time></trkpt><trkpt lat="43.4494667" lon="13.0377633"><ele>146.0</ele><time>2026-04-04T15:39:15.728Z</time></trkpt><trkpt lat="43.4496117" lon="13.0380483"><ele>146.0</ele><time>2026-04-04T15:39:16.725Z</time></trkpt><trkpt lat="43.4497533" lon="13.03834"><ele>145.5</ele><time>2026-04-04T15:39:17.727Z</time></trkpt><trkpt lat="43.4498933" lon="13.0386333"><ele>145.0</ele><time>2026-04-04T15:39:18.727Z</time></trkpt><trkpt lat="43.4500283" lon="13.0389283"><ele>144.5</ele><time>2026-04-04T15:39:19.727Z</time></trkpt><trkpt lat="43.450165" lon="13.039225"><ele>144.0</ele><time>2026-04-04T15:39:20.73Z</time></trkpt><trkpt lat="43.4503" lon="13.0395217"><ele>144.0</ele><time>2026-04-04T15:39:21.726Z</time></trkpt><trkpt lat="43.4504367" lon="13.0398233"><ele>144.0</ele><time>2026-04-04T15:39:22.728Z</time></trkpt><trkpt lat="43.4505733" lon="13.040125"><ele>145.0</ele><time>2026-04-04T15:39:23.727Z</time></trkpt><trkpt lat="43.4507083" lon="13.040425"><ele>146.0</ele><time>2026-04-04T15:39:24.727Z</time></trkpt><trkpt lat="43.450845" lon="13.040725"><ele>146.0</ele><time>2026-04-04T15:39:25.723Z</time></trkpt><trkpt lat="43.450985" lon="13.041025"><ele>146.0</ele><time>2026-04-04T15:39:26.726Z</time></trkpt><trkpt lat="43.4511267" lon="13.0413217"><ele>146.0</ele><time>2026-04-04T15:39:27.726Z</time></trkpt><trkpt lat="43.4512683" lon="13.0416167"><ele>146.0</ele><time>2026-04-04T15:39:28.726Z</time></trkpt><trkpt lat="43.4514167" lon="13.0419083"><ele>146.0</ele><time>2026-04-04T15:39:29.726Z</time></trkpt><trkpt lat="43.4515683" lon="13.042195"><ele>146.0</ele><time>2026-04-04T15:39:30.728Z</time></trkpt><trkpt lat="43.4517233" lon="13.04248"><ele>146.0</ele><time>2026-04-04T15:39:31.726Z</time></trkpt><trkpt lat="43.4518817" lon="13.042755"><ele>146.0</ele><time>2026-04-04T15:39:32.73Z</time></trkpt><trkpt lat="43.452045" lon="13.043025"><ele>146.5</ele><time>2026-04-04T15:39:33.727Z</time></trkpt><trkpt lat="43.4522133" lon="13.043295"><ele>147.0</ele><time>2026-04-04T15:39:34.724Z</time></trkpt><trkpt lat="43.4523833" lon="13.0435633"><ele>147.0</ele><time>2026-04-04T15:39:35.73Z</time></trkpt><trkpt lat="43.45256" lon="13.0438283"><ele>147.0</ele><time>2026-04-04T15:39:36.726Z</time></trkpt><trkpt lat="43.4527417" lon="13.0440883"><ele>146.5</ele><time>2026-04-04T15:39:37.729Z</time></trkpt><trkpt lat="43.452925" lon="13.0443467"><ele>146.0</ele><time>2026-04-04T15:39:38.728Z</time></trkpt><trkpt lat="43.4531117" lon="13.0445983"><ele>145.5</ele><time>2026-04-04T15:39:39.726Z</time></trkpt><trkpt lat="43.453305" lon="13.0448417"><ele>145.0</ele><time>2026-04-04T15:39:40.726Z</time></trkpt><trkpt lat="43.4535033" lon="13.04508"><ele>145.5</ele><time>2026-04-04T15:39:41.727Z</time></trkpt><trkpt lat="43.4537033" lon="13.0453117"><ele>146.0</ele><time>2026-04-04T15:39:42.728Z</time></trkpt><trkpt lat="43.4539083" lon="13.04554"><ele>146.0</ele><time>2026-04-04T15:39:43.731Z</time></trkpt><trkpt lat="43.4541167" lon="13.0457683"><ele>146.0</ele><time>2026-04-04T15:39:44.73Z</time></trkpt><trkpt lat="43.4543233" lon="13.0459867"><ele>146.0</ele><time>2026-04-04T15:39:45.727Z</time></trkpt><trkpt lat="43.4545367" lon="13.0461967"><ele>146.0</ele><time>2026-04-04T15:39:46.727Z</time></trkpt><trkpt lat="43.4547517" lon="13.0463967"><ele>146.0</ele><time>2026-04-04T15:39:47.726Z</time></trkpt><trkpt lat="43.4549683" lon="13.04659"><ele>146.0</ele><time>2026-04-04T15:39:48.728Z</time></trkpt><trkpt lat="43.4551883" lon="13.0467767"><ele>145.0</ele><time>2026-04-04T15:39:49.729Z</time></trkpt><trkpt lat="43.4554117" lon="13.0469567"><ele>144.0</ele><time>2026-04-04T15:39:50.73Z</time></trkpt><trkpt lat="43.4556383" lon="13.04713"><ele>143.5</ele><time>2026-04-04T15:39:51.728Z</time></trkpt><trkpt lat="43.455865" lon="13.0473033"><ele>143.0</ele><time>2026-04-04T15:39:52.726Z</time></trkpt><trkpt lat="43.4560933" lon="13.047475"><ele>142.5</ele><time>2026-04-04T15:39:53.725Z</time></trkpt><trkpt lat="43.4563283" lon="13.0476467"><ele>142.0</ele><time>2026-04-04T15:39:54.727Z</time></trkpt><trkpt lat="43.4565617" lon="13.0478183"><ele>142.0</ele><time>2026-04-04T15:39:55.726Z</time></trkpt><trkpt lat="43.4567917" lon="13.04799"><ele>142.0</ele><time>2026-04-04T15:39:56.727Z</time></trkpt><trkpt lat="43.4570217" lon="13.048165"><ele>142.0</ele><time>2026-04-04T15:39:57.726Z</time></trkpt><trkpt lat="43.4572533" lon="13.048345"><ele>142.0</ele><time>2026-04-04T15:39:58.726Z</time></trkpt><trkpt lat="43.457485" lon="13.048525"><ele>142.0</ele><time>2026-04-04T15:39:59.727Z</time></trkpt><trkpt lat="43.4577083" lon="13.0487167"><ele>142.0</ele><time>2026-04-04T15:40:00.726Z</time></trkpt><trkpt lat="43.45792" lon="13.0489167"><ele>141.5</ele><time>2026-04-04T15:40:01.727Z</time></trkpt><trkpt lat="43.458125" lon="13.049125"><ele>141.0</ele><time>2026-04-04T15:40:02.724Z</time></trkpt><trkpt lat="43.4583267" lon="13.04934"><ele>141.0</ele><time>2026-04-04T15:40:03.726Z</time></trkpt><trkpt lat="43.458525" lon="13.0495633"><ele>141.0</ele><time>2026-04-04T15:40:04.728Z</time></trkpt><trkpt lat="43.45872" lon="13.049795"><ele>141.0</ele><time>2026-04-04T15:40:05.726Z</time></trkpt><trkpt lat="43.4589117" lon="13.0500367"><ele>141.0</ele><time>2026-04-04T15:40:06.728Z</time></trkpt><trkpt lat="43.4591017" lon="13.0502833"><ele>141.0</ele><time>2026-04-04T15:40:07.73Z</time></trkpt><trkpt lat="43.4592833" lon="13.0505383"><ele>141.0</ele><time>2026-04-04T15:40:08.733Z</time></trkpt><trkpt lat="43.4594617" lon="13.0508017"><ele>141.0</ele><time>2026-04-04T15:40:09.727Z</time></trkpt><trkpt lat="43.4596367" lon="13.051075"><ele>141.0</ele><time>2026-04-04T15:40:10.727Z</time></trkpt><trkpt lat="43.459805" lon="13.0513567"><ele>139.5</ele><time>2026-04-04T15:40:11.725Z</time></trkpt><trkpt lat="43.459965" lon="13.0516483"><ele>138.0</ele><time>2026-04-04T15:40:12.727Z</time></trkpt><trkpt lat="43.460115" lon="13.051945"><ele>138.0</ele><time>2026-04-04T15:40:13.728Z</time></trkpt><trkpt lat="43.4602617" lon="13.0522433"><ele>138.0</ele><time>2026-04-04T15:40:14.731Z</time></trkpt><trkpt lat="43.4604017" lon="13.0525483"><ele>138.5</ele><time>2026-04-04T15:40:15.729Z</time></trkpt><trkpt lat="43.4605333" lon="13.0528533"><ele>139.0</ele><time>2026-04-04T15:40:16.733Z</time></trkpt><trkpt lat="43.4606567" lon="13.0531633"><ele>138.5</ele><time>2026-04-04T15:40:17.728Z</time></trkpt><trkpt lat="43.4607733" lon="13.0534817"><ele>138.0</ele><time>2026-04-04T15:40:18.724Z</time></trkpt><trkpt lat="43.4608883" lon="13.0538117"><ele>137.5</ele><time>2026-04-04T15:40:19.728Z</time></trkpt><trkpt lat="43.4610033" lon="13.054145"><ele>137.0</ele><time>2026-04-04T15:40:20.726Z</time></trkpt><trkpt lat="43.46111" lon="13.0544783"><ele>137.0</ele><time>2026-04-04T15:40:21.726Z</time></trkpt><trkpt lat="43.461215" lon="13.0548117"><ele>137.0</ele><time>2026-04-04T15:40:22.727Z</time></trkpt><trkpt lat="43.46132" lon="13.055145"><ele>136.5</ele><time>2026-04-04T15:40:23.73Z</time></trkpt><trkpt lat="43.46142" lon="13.0554817"><ele>136.0</ele><time>2026-04-04T15:40:24.727Z</time></trkpt><trkpt lat="43.4615217" lon="13.055815"><ele>135.5</ele><time>2026-04-04T15:40:25.726Z</time></trkpt><trkpt lat="43.461625" lon="13.05615"><ele>135.0</ele><time>2026-04-04T15:40:26.729Z</time></trkpt><trkpt lat="43.46173" lon="13.0564867"><ele>136.0</ele><time>2026-04-04T15:40:27.73Z</time></trkpt><trkpt lat="43.4618317" lon="13.0568233"><ele>137.0</ele><time>2026-04-04T15:40:28.727Z</time></trkpt><trkpt lat="43.4619367" lon="13.05716"><ele>136.0</ele><time>2026-04-04T15:40:29.727Z</time></trkpt><trkpt lat="43.4620417" lon="13.0574933"><ele>135.0</ele><time>2026-04-04T15:40:30.729Z</time></trkpt><trkpt lat="43.4621483" lon="13.05783"><ele>135.0</ele><time>2026-04-04T15:40:31.727Z</time></trkpt><trkpt lat="43.4622533" lon="13.058165"><ele>135.0</ele><time>2026-04-04T15:40:32.732Z</time></trkpt><trkpt lat="43.4623617" lon="13.0585"><ele>135.0</ele><time>2026-04-04T15:40:33.724Z</time></trkpt><trkpt lat="43.46247" lon="13.0588317"><ele>135.0</ele><time>2026-04-04T15:40:34.725Z</time></trkpt><trkpt lat="43.4625767" lon="13.05916"><ele>135.5</ele><time>2026-04-04T15:40:35.728Z</time></trkpt><trkpt lat="43.4626833" lon="13.0594883"><ele>136.0</ele><time>2026-04-04T15:40:36.726Z</time></trkpt><trkpt lat="43.4627917" lon="13.0598167"><ele>136.0</ele><time>2026-04-04T15:40:37.728Z</time></trkpt><trkpt lat="43.462905" lon="13.060145"><ele>136.0</ele><time>2026-04-04T15:40:38.736Z</time></trkpt><trkpt lat="43.46302" lon="13.0604733"><ele>137.0</ele><time>2026-04-04T15:40:39.727Z</time></trkpt><trkpt lat="43.4631367" lon="13.0608033"><ele>138.0</ele><time>2026-04-04T15:40:40.728Z</time></trkpt><trkpt lat="43.4632533" lon="13.061135"><ele>138.0</ele><time>2026-04-04T15:40:41.727Z</time></trkpt><trkpt lat="43.4633733" lon="13.0614667"><ele>138.0</ele><time>2026-04-04T15:40:42.728Z</time></trkpt><trkpt lat="43.4634933" lon="13.0617983"><ele>138.0</ele><time>2026-04-04T15:40:43.724Z</time></trkpt><trkpt lat="43.4636167" lon="13.0621283"><ele>138.0</ele><time>2026-04-04T15:40:44.73Z</time></trkpt><trkpt lat="43.4637433" lon="13.0624567"><ele>137.0</ele><time>2026-04-04T15:40:45.728Z</time></trkpt><trkpt lat="43.4638667" lon="13.0627733"><ele>136.0</ele><time>2026-04-04T15:40:46.729Z</time></trkpt><trkpt lat="43.4639883" lon="13.06307"><ele>136.0</ele><time>2026-04-04T15:40:47.727Z</time></trkpt><trkpt lat="43.4641033" lon="13.06335"><ele>136.0</ele><time>2026-04-04T15:40:48.728Z</time></trkpt><trkpt lat="43.4642217" lon="13.063625"><ele>136.0</ele><time>2026-04-04T15:40:49.726Z</time></trkpt><trkpt lat="43.46434" lon="13.0638983"><ele>136.0</ele><time>2026-04-04T15:40:50.729Z</time></trkpt><trkpt lat="43.4644517" lon="13.064155"><ele>136.0</ele><time>2026-04-04T15:40:51.732Z</time></trkpt><trkpt lat="43.46456" lon="13.0643983"><ele>136.0</ele><time>2026-04-04T15:40:52.728Z</time></trkpt><trkpt lat="43.464665" lon="13.0646333"><ele>136.0</ele><time>2026-04-04T15:40:53.726Z</time></trkpt><trkpt lat="43.4647683" lon="13.0648533"><ele>136.0</ele><time>2026-04-04T15:40:54.726Z</time></trkpt><trkpt lat="43.4648667" lon="13.0650567"><ele>136.66666666666669</ele><time>2026-04-04T15:40:55.725Z</time></trkpt><trkpt lat="43.464965" lon="13.0652467"><ele>137.33333333333334</ele><time>2026-04-04T15:40:56.729Z</time></trkpt><trkpt lat="43.465055" lon="13.0654233"><ele>138.0</ele><time>2026-04-04T15:40:57.726Z</time></trkpt><trkpt lat="43.4651317" lon="13.0655883"><ele>138.0</ele><time>2026-04-04T15:40:58.724Z</time></trkpt><trkpt lat="43.4651883" lon="13.0657467"><ele>138.0</ele><time>2026-04-04T15:40:59.725Z</time></trkpt><trkpt lat="43.465185" lon="13.0659"><ele>138.0</ele><time>2026-04-04T15:41:00.723Z</time></trkpt><trkpt lat="43.465135" lon="13.0660367"><ele>138.0</ele><time>2026-04-04T15:41:01.727Z</time></trkpt><trkpt lat="43.4650467" lon="13.0661517"><ele>138.0</ele><time>2026-04-04T15:41:02.729Z</time></trkpt><trkpt lat="43.464925" lon="13.0662583"><ele>138.0</ele><time>2026-04-04T15:41:03.728Z</time></trkpt><trkpt lat="43.4647767" lon="13.0663533"><ele>138.0</ele><time>2026-04-04T15:41:04.725Z</time></trkpt><trkpt lat="43.464635" lon="13.0664367"><ele>138.25</ele><time>2026-04-04T15:41:05.728Z</time></trkpt><trkpt lat="43.4645083" lon="13.0665083"><ele>138.5</ele><time>2026-04-04T15:41:06.728Z</time></trkpt><trkpt lat="43.4643917" lon="13.0665717"><ele>138.75</ele><time>2026-04-04T15:41:07.728Z</time></trkpt><trkpt lat="43.4642733" lon="13.0666167"><ele>139.0</ele><time>2026-04-04T15:41:08.727Z</time></trkpt><trkpt lat="43.4641533" lon="13.0666333"><ele>139.4</ele><time>2026-04-04T15:41:09.727Z</time></trkpt><trkpt lat="43.4640367" lon="13.0666333"><ele>139.8</ele><time>2026-04-04T15:41:10.725Z</time></trkpt><trkpt lat="43.4639317" lon="13.06663"><ele>140.2</ele><time>2026-04-04T15:41:11.728Z</time></trkpt><trkpt lat="43.4638467" lon="13.066635"><ele>140.6</ele><time>2026-04-04T15:41:12.725Z</time></trkpt><trkpt lat="43.4637383" lon="13.066665"><ele>141.0</ele><time>2026-04-04T15:41:14.727Z</time></trkpt><trkpt lat="43.4636117" lon="13.0668133"><ele>142.33333333333334</ele><time>2026-04-04T15:41:16.728Z</time></trkpt><trkpt lat="43.46352" lon="13.0669733"><ele>143.66666666666669</ele><time>2026-04-04T15:41:17.726Z</time></trkpt><trkpt lat="43.4634133" lon="13.067135"><ele>145.0</ele><time>2026-04-04T15:41:18.725Z</time></trkpt><trkpt lat="43.4632883" lon="13.0672933"><ele>145.33333333333334</ele><time>2026-04-04T15:41:19.731Z</time></trkpt><trkpt lat="43.4631433" lon="13.0674483"><ele>145.66666666666666</ele><time>2026-04-04T15:41:20.731Z</time></trkpt><trkpt lat="43.4629883" lon="13.06761"><ele>146.0</ele><time>2026-04-04T15:41:21.731Z</time></trkpt><trkpt lat="43.462825" lon="13.0677867"><ele>146.0</ele><time>2026-04-04T15:41:22.727Z</time></trkpt><trkpt lat="43.46266" lon="13.0679767"><ele>146.0</ele><time>2026-04-04T15:41:23.728Z</time></trkpt><trkpt lat="43.462495" lon="13.0681833"><ele>146.0</ele><time>2026-04-04T15:41:24.728Z</time></trkpt><trkpt lat="43.4623333" lon="13.0683967"><ele>146.0</ele><time>2026-04-04T15:41:25.725Z</time></trkpt><trkpt lat="43.4621667" lon="13.0686067"><ele>146.0</ele><time>2026-04-04T15:41:26.729Z</time></trkpt><trkpt lat="43.4619883" lon="13.0687933"><ele>146.0</ele><time>2026-04-04T15:41:27.728Z</time></trkpt><trkpt lat="43.4618" lon="13.0689433"><ele>146.0</ele><time>2026-04-04T15:41:28.729Z</time></trkpt><trkpt lat="43.461615" lon="13.0690783"><ele>146.0</ele><time>2026-04-04T15:41:29.728Z</time></trkpt><trkpt lat="43.4614417" lon="13.0692233"><ele>148.0</ele><time>2026-04-04T15:41:30.728Z</time></trkpt><trkpt lat="43.4612733" lon="13.069405"><ele>150.0</ele><time>2026-04-04T15:41:31.728Z</time></trkpt><trkpt lat="43.4611033" lon="13.069635"><ele>150.0</ele><time>2026-04-04T15:41:32.728Z</time></trkpt><trkpt lat="43.460935" lon="13.0698883"><ele>150.0</ele><time>2026-04-04T15:41:33.726Z</time></trkpt><trkpt lat="43.46077" lon="13.07014"><ele>149.5</ele><time>2026-04-04T15:41:34.728Z</time></trkpt><trkpt lat="43.4606" lon="13.0703767"><ele>149.0</ele><time>2026-04-04T15:41:35.724Z</time></trkpt><trkpt lat="43.46042" lon="13.0706067"><ele>153.5</ele><time>2026-04-04T15:41:36.724Z</time></trkpt><trkpt lat="43.4602333" lon="13.07083"><ele>158.0</ele><time>2026-04-04T15:41:37.728Z</time></trkpt><trkpt lat="43.4600517" lon="13.0710617"><ele>158.0</ele><time>2026-04-04T15:41:38.731Z</time></trkpt><trkpt lat="43.459875" lon="13.071285"><ele>158.0</ele><time>2026-04-04T15:41:39.726Z</time></trkpt><trkpt lat="43.4597033" lon="13.0715133"><ele>156.0</ele><time>2026-04-04T15:41:40.723Z</time></trkpt><trkpt lat="43.4595283" lon="13.0717417"><ele>154.0</ele><time>2026-04-04T15:41:41.728Z</time></trkpt><trkpt lat="43.45935" lon="13.0719783"><ele>154.0</ele><time>2026-04-04T15:41:42.726Z</time></trkpt><trkpt lat="43.4591733" lon="13.07222"><ele>154.0</ele><time>2026-04-04T15:41:43.727Z</time></trkpt><trkpt lat="43.4589983" lon="13.0724567"><ele>154.0</ele><time>2026-04-04T15:41:44.727Z</time></trkpt><trkpt lat="43.4588233" lon="13.0726883"><ele>154.0</ele><time>2026-04-04T15:41:45.729Z</time></trkpt><trkpt lat="43.4586483" lon="13.07292"><ele>154.0</ele><time>2026-04-04T15:41:46.726Z</time></trkpt><trkpt lat="43.4584783" lon="13.0731567"><ele>154.0</ele><time>2026-04-04T15:41:47.727Z</time></trkpt><trkpt lat="43.4582933" lon="13.0733767"><ele>155.0</ele><time>2026-04-04T15:41:48.728Z</time></trkpt><trkpt lat="43.4581183" lon="13.0736133"><ele>156.0</ele><time>2026-04-04T15:41:49.729Z</time></trkpt><trkpt lat="43.457935" lon="13.07384"><ele>156.0</ele><time>2026-04-04T15:41:50.729Z</time></trkpt><trkpt lat="43.4577517" lon="13.07407"><ele>156.0</ele><time>2026-04-04T15:41:51.727Z</time></trkpt><trkpt lat="43.457565" lon="13.0743017"><ele>159.0</ele><time>2026-04-04T15:41:52.727Z</time></trkpt><trkpt lat="43.4573833" lon="13.0745333"><ele>162.0</ele><time>2026-04-04T15:41:53.727Z</time></trkpt><trkpt lat="43.4572033" lon="13.0747633"><ele>161.5</ele><time>2026-04-04T15:41:54.728Z</time></trkpt><trkpt lat="43.45703" lon="13.075"><ele>161.0</ele><time>2026-04-04T15:41:55.73Z</time></trkpt><trkpt lat="43.4568717" lon="13.0752517"><ele>161.0</ele><time>2026-04-04T15:41:56.728Z</time></trkpt><trkpt lat="43.456725" lon="13.0755183"><ele>161.0</ele><time>2026-04-04T15:41:57.728Z</time></trkpt><trkpt lat="43.45659" lon="13.0757967"><ele>165.0</ele><time>2026-04-04T15:41:58.727Z</time></trkpt><trkpt lat="43.456475" lon="13.0760933"><ele>169.0</ele><time>2026-04-04T15:41:59.728Z</time></trkpt><trkpt lat="43.4563783" lon="13.07641"><ele>164.5</ele><time>2026-04-04T15:42:00.728Z</time></trkpt><trkpt lat="43.4562983" lon="13.0767333"><ele>160.0</ele><time>2026-04-04T15:42:01.729Z</time></trkpt><trkpt lat="43.456225" lon="13.077045"><ele>160.0</ele><time>2026-04-04T15:42:02.727Z</time></trkpt><trkpt lat="43.456165" lon="13.0773383"><ele>160.0</ele><time>2026-04-04T15:42:03.726Z</time></trkpt><trkpt lat="43.4561067" lon="13.07761"><ele>160.0</ele><time>2026-04-04T15:42:04.729Z</time></trkpt><trkpt lat="43.45603" lon="13.077865"><ele>161.66666666666669</ele><time>2026-04-04T15:42:05.728Z</time></trkpt><trkpt lat="43.4559267" lon="13.0780917"><ele>163.33333333333334</ele><time>2026-04-04T15:42:06.728Z</time></trkpt><trkpt lat="43.455785" lon="13.0783"><ele>165.0</ele><time>2026-04-04T15:42:07.73Z</time></trkpt><trkpt lat="43.45561" lon="13.078475"><ele>165.33333333333334</ele><time>2026-04-04T15:42:08.727Z</time></trkpt><trkpt lat="43.4554283" lon="13.078625"><ele>165.66666666666669</ele><time>2026-04-04T15:42:09.727Z</time></trkpt><trkpt lat="43.45526" lon="13.0787783"><ele>166.0</ele><time>2026-04-04T15:42:10.731Z</time></trkpt><trkpt lat="43.4551033" lon="13.0789517"><ele>168.66666666666669</ele><time>2026-04-04T15:42:11.727Z</time></trkpt><trkpt lat="43.454975" lon="13.07918"><ele>171.33333333333334</ele><time>2026-04-04T15:42:12.727Z</time></trkpt><trkpt lat="43.4548517" lon="13.0794633"><ele>174.0</ele><time>2026-04-04T15:42:13.727Z</time></trkpt><trkpt lat="43.4547433" lon="13.0797833"><ele>172.5</ele><time>2026-04-04T15:42:14.731Z</time></trkpt><trkpt lat="43.45465" lon="13.0801117"><ele>171.0</ele><time>2026-04-04T15:42:15.728Z</time></trkpt><trkpt lat="43.45458" lon="13.0804517"><ele>172.5</ele><time>2026-04-04T15:42:16.728Z</time></trkpt><trkpt lat="43.4545183" lon="13.0807833"><ele>174.0</ele><time>2026-04-04T15:42:17.73Z</time></trkpt><trkpt lat="43.45444" lon="13.08111"><ele>174.0</ele><time>2026-04-04T15:42:18.727Z</time></trkpt><trkpt lat="43.4543367" lon="13.0814383"><ele>174.0</ele><time>2026-04-04T15:42:19.727Z</time></trkpt><trkpt lat="43.4542067" lon="13.0817683"><ele>176.5</ele><time>2026-04-04T15:42:20.731Z</time></trkpt><trkpt lat="43.45407" lon="13.082095"><ele>179.0</ele><time>2026-04-04T15:42:21.726Z</time></trkpt><trkpt lat="43.4539333" lon="13.08241"><ele>176.5</ele><time>2026-04-04T15:42:22.727Z</time></trkpt><trkpt lat="43.4538" lon="13.0827133"><ele>174.0</ele><time>2026-04-04T15:42:23.727Z</time></trkpt><trkpt lat="43.4536783" lon="13.0830117"><ele>175.5</ele><time>2026-04-04T15:42:24.728Z</time></trkpt><trkpt lat="43.4535567" lon="13.083285"><ele>177.0</ele><time>2026-04-04T15:42:25.727Z</time></trkpt><trkpt lat="43.4534333" lon="13.0835433"><ele>177.0</ele><time>2026-04-04T15:42:26.728Z</time></trkpt><trkpt lat="43.4533267" lon="13.0838317"><ele>177.0</ele><time>2026-04-04T15:42:27.727Z</time></trkpt><trkpt lat="43.4532567" lon="13.0841367"><ele>180.5</ele><time>2026-04-04T15:42:28.727Z</time></trkpt><trkpt lat="43.453195" lon="13.084435"><ele>184.0</ele><time>2026-04-04T15:42:29.728Z</time></trkpt><trkpt lat="43.4531133" lon="13.0847483"><ele>185.5</ele><time>2026-04-04T15:42:30.726Z</time></trkpt><trkpt lat="43.45299" lon="13.0850533"><ele>187.0</ele><time>2026-04-04T15:42:31.729Z</time></trkpt><trkpt lat="43.4528383" lon="13.085345"><ele>185.0</ele><time>2026-04-04T15:42:32.732Z</time></trkpt><trkpt lat="43.452655" lon="13.0856067"><ele>183.0</ele><time>2026-04-04T15:42:33.729Z</time></trkpt><trkpt lat="43.4524583" lon="13.0858433"><ele>183.0</ele><time>2026-04-04T15:42:34.728Z</time></trkpt><trkpt lat="43.45224" lon="13.0860583"><ele>183.0</ele><time>2026-04-04T15:42:35.74Z</time></trkpt><trkpt lat="43.4520167" lon="13.0862333"><ele>180.0</ele><time>2026-04-04T15:42:36.729Z</time></trkpt><trkpt lat="43.4517967" lon="13.0863933"><ele>177.0</ele><time>2026-04-04T15:42:37.728Z</time></trkpt><trkpt lat="43.4515867" lon="13.0865567"><ele>179.0</ele><time>2026-04-04T15:42:38.726Z</time></trkpt><trkpt lat="43.451375" lon="13.08673"><ele>181.0</ele><time>2026-04-04T15:42:39.729Z</time></trkpt><trkpt lat="43.4511633" lon="13.0869033"><ele>181.0</ele><time>2026-04-04T15:42:40.726Z</time></trkpt><trkpt lat="43.4509517" lon="13.08707"><ele>181.0</ele><time>2026-04-04T15:42:41.73Z</time></trkpt><trkpt lat="43.450755" lon="13.08723"><ele>181.0</ele><time>2026-04-04T15:42:42.729Z</time></trkpt><trkpt lat="43.4505717" lon="13.0873967"><ele>181.0</ele><time>2026-04-04T15:42:43.728Z</time></trkpt><trkpt lat="43.4504083" lon="13.08759"><ele>181.0</ele><time>2026-04-04T15:42:44.728Z</time></trkpt><trkpt lat="43.4502533" lon="13.0878233"><ele>182.0</ele><time>2026-04-04T15:42:45.726Z</time></trkpt><trkpt lat="43.4500983" lon="13.0880783"><ele>183.0</ele><time>2026-04-04T15:42:46.73Z</time></trkpt><trkpt lat="43.4499367" lon="13.08834"><ele>183.0</ele><time>2026-04-04T15:42:47.731Z</time></trkpt><trkpt lat="43.4497667" lon="13.0886017"><ele>183.0</ele><time>2026-04-04T15:42:48.727Z</time></trkpt><trkpt lat="43.4495883" lon="13.0888417"><ele>183.5</ele><time>2026-04-04T15:42:49.73Z</time></trkpt><trkpt lat="43.4493917" lon="13.0890583"><ele>184.0</ele><time>2026-04-04T15:42:50.727Z</time></trkpt><trkpt lat="43.44917" lon="13.0892367"><ele>184.0</ele><time>2026-04-04T15:42:51.728Z</time></trkpt><trkpt lat="43.4489233" lon="13.0893683"><ele>184.0</ele><time>2026-04-04T15:42:52.725Z</time></trkpt><trkpt lat="43.4486717" lon="13.0894683"><ele>183.5</ele><time>2026-04-04T15:42:53.728Z</time></trkpt><trkpt lat="43.4484333" lon="13.0895583"><ele>183.0</ele><time>2026-04-04T15:42:54.728Z</time></trkpt><trkpt lat="43.4482033" lon="13.0896517"><ele>183.0</ele><time>2026-04-04T15:42:55.729Z</time></trkpt><trkpt lat="43.44798" lon="13.089775"><ele>183.0</ele><time>2026-04-04T15:42:56.726Z</time></trkpt><trkpt lat="43.4477717" lon="13.0899417"><ele>183.5</ele><time>2026-04-04T15:42:57.726Z</time></trkpt><trkpt lat="43.4475933" lon="13.0901483"><ele>184.0</ele><time>2026-04-04T15:42:58.723Z</time></trkpt><trkpt lat="43.4474217" lon="13.0903667"><ele>184.0</ele><time>2026-04-04T15:42:59.727Z</time></trkpt><trkpt lat="43.4472283" lon="13.0905533"><ele>184.0</ele><time>2026-04-04T15:43:00.729Z</time></trkpt><trkpt lat="43.4470033" lon="13.0907117"><ele>187.0</ele><time>2026-04-04T15:43:01.729Z</time></trkpt><trkpt lat="43.446765" lon="13.09085"><ele>190.0</ele><time>2026-04-04T15:43:02.727Z</time></trkpt><trkpt lat="43.4465317" lon="13.0910067"><ele>190.0</ele><time>2026-04-04T15:43:03.724Z</time></trkpt><trkpt lat="43.4463183" lon="13.0911933"><ele>190.0</ele><time>2026-04-04T15:43:04.727Z</time></trkpt><trkpt lat="43.446125" lon="13.091405"><ele>192.0</ele><time>2026-04-04T15:43:05.726Z</time></trkpt><trkpt lat="43.44595" lon="13.091625"><ele>194.0</ele><time>2026-04-04T15:43:06.728Z</time></trkpt><trkpt lat="43.4457867" lon="13.09184"><ele>194.0</ele><time>2026-04-04T15:43:07.728Z</time></trkpt><trkpt lat="43.44563" lon="13.0920483"><ele>194.0</ele><time>2026-04-04T15:43:08.729Z</time></trkpt><trkpt lat="43.4454767" lon="13.0922367"><ele>194.0</ele><time>2026-04-04T15:43:09.726Z</time></trkpt><trkpt lat="43.44532" lon="13.0924017"><ele>195.33333333333334</ele><time>2026-04-04T15:43:10.726Z</time></trkpt><trkpt lat="43.4451467" lon="13.09253"><ele>196.66666666666669</ele><time>2026-04-04T15:43:11.728Z</time></trkpt><trkpt lat="43.4449633" lon="13.09261"><ele>198.0</ele><time>2026-04-04T15:43:12.736Z</time></trkpt><trkpt lat="43.4447733" lon="13.092625"><ele>198.66666666666669</ele><time>2026-04-04T15:43:13.729Z</time></trkpt><trkpt lat="43.444565" lon="13.09258"><ele>199.33333333333334</ele><time>2026-04-04T15:43:14.729Z</time></trkpt><trkpt lat="43.4443633" lon="13.0925233"><ele>200.0</ele><time>2026-04-04T15:43:15.727Z</time></trkpt><trkpt lat="43.4441717" lon="13.09247"><ele>200.0</ele><time>2026-04-04T15:43:16.73Z</time></trkpt><trkpt lat="43.4439917" lon="13.0924467"><ele>200.0</ele><time>2026-04-04T15:43:17.726Z</time></trkpt><trkpt lat="43.44382" lon="13.092475"><ele>200.0</ele><time>2026-04-04T15:43:18.729Z</time></trkpt><trkpt lat="43.4436533" lon="13.0925633"><ele>198.33333333333334</ele><time>2026-04-04T15:43:19.729Z</time></trkpt><trkpt lat="43.4434867" lon="13.0927167"><ele>196.66666666666669</ele><time>2026-04-04T15:43:20.727Z</time></trkpt><trkpt lat="43.4433233" lon="13.0928867"><ele>195.0</ele><time>2026-04-04T15:43:21.725Z</time></trkpt><trkpt lat="43.4431583" lon="13.0930683"><ele>195.0</ele><time>2026-04-04T15:43:22.728Z</time></trkpt><trkpt lat="43.4429833" lon="13.09325"><ele>195.0</ele><time>2026-04-04T15:43:23.727Z</time></trkpt><trkpt lat="43.4427833" lon="13.09342"><ele>198.5</ele><time>2026-04-04T15:43:24.729Z</time></trkpt><trkpt lat="43.4425617" lon="13.0935683"><ele>202.0</ele><time>2026-04-04T15:43:25.729Z</time></trkpt><trkpt lat="43.4423183" lon="13.0936967"><ele>200.5</ele><time>2026-04-04T15:43:26.731Z</time></trkpt><trkpt lat="43.4420783" lon="13.09381"><ele>199.0</ele><time>2026-04-04T15:43:27.729Z</time></trkpt><trkpt lat="43.4418467" lon="13.0939233"><ele>199.0</ele><time>2026-04-04T15:43:28.729Z</time></trkpt><trkpt lat="43.4416183" lon="13.0940317"><ele>199.0</ele><time>2026-04-04T15:43:29.727Z</time></trkpt><trkpt lat="43.4413733" lon="13.09411"><ele>204.0</ele><time>2026-04-04T15:43:30.731Z</time></trkpt><trkpt lat="43.4411017" lon="13.0941383"><ele>209.0</ele><time>2026-04-04T15:43:31.728Z</time></trkpt><trkpt lat="43.44083" lon="13.0941617"><ele>209.0</ele><time>2026-04-04T15:43:32.727Z</time></trkpt><trkpt lat="43.44057" lon="13.094185"><ele>209.0</ele><time>2026-04-04T15:43:33.728Z</time></trkpt><trkpt lat="43.44031" lon="13.094205"><ele>210.5</ele><time>2026-04-04T15:43:34.725Z</time></trkpt><trkpt lat="43.4400517" lon="13.0942233"><ele>212.0</ele><time>2026-04-04T15:43:35.726Z</time></trkpt><trkpt lat="43.4398017" lon="13.0942433"><ele>214.5</ele><time>2026-04-04T15:43:36.727Z</time></trkpt><trkpt lat="43.439565" lon="13.0942683"><ele>217.0</ele><time>2026-04-04T15:43:37.724Z</time></trkpt><trkpt lat="43.4393317" lon="13.09429"><ele>217.0</ele><time>2026-04-04T15:43:38.724Z</time></trkpt><trkpt lat="43.439095" lon="13.0942867"><ele>217.0</ele><time>2026-04-04T15:43:39.724Z</time></trkpt><trkpt lat="43.4388617" lon="13.0942567"><ele>220.66666666666666</ele><time>2026-04-04T15:43:40.725Z</time></trkpt><trkpt lat="43.43865" lon="13.0942017"><ele>224.33333333333331</ele><time>2026-04-04T15:43:41.724Z</time></trkpt><trkpt lat="43.438455" lon="13.0941383"><ele>228.0</ele><time>2026-04-04T15:43:42.727Z</time></trkpt><trkpt lat="43.4382767" lon="13.0940917"><ele>228.0</ele><time>2026-04-04T15:43:43.73Z</time></trkpt><trkpt lat="43.4381167" lon="13.0940667"><ele>228.0</ele><time>2026-04-04T15:43:44.73Z</time></trkpt><trkpt lat="43.4379717" lon="13.0940983"><ele>228.0</ele><time>2026-04-04T15:43:45.727Z</time></trkpt><trkpt lat="43.4378417" lon="13.09418"><ele>225.33333333333331</ele><time>2026-04-04T15:43:46.727Z</time></trkpt><trkpt lat="43.4377383" lon="13.0943067"><ele>222.66666666666666</ele><time>2026-04-04T15:43:47.726Z</time></trkpt><trkpt lat="43.4376433" lon="13.094475"><ele>220.0</ele><time>2026-04-04T15:43:48.728Z</time></trkpt><trkpt lat="43.4375483" lon="13.0947067"><ele>223.0</ele><time>2026-04-04T15:43:49.728Z</time></trkpt><trkpt lat="43.43743" lon="13.0949567"><ele>226.0</ele><time>2026-04-04T15:43:50.727Z</time></trkpt><trkpt lat="43.437305" lon="13.095195"><ele>229.0</ele><time>2026-04-04T15:43:51.726Z</time></trkpt><trkpt lat="43.43719" lon="13.095425"><ele>227.0</ele><time>2026-04-04T15:43:52.728Z</time></trkpt><trkpt lat="43.4370767" lon="13.0956567"><ele>225.0</ele><time>2026-04-04T15:43:53.726Z</time></trkpt><trkpt lat="43.4369667" lon="13.0958883"><ele>223.0</ele><time>2026-04-04T15:43:54.728Z</time></trkpt><trkpt lat="43.436855" lon="13.096115"><ele>223.0</ele><time>2026-04-04T15:43:55.729Z</time></trkpt><trkpt lat="43.4367417" lon="13.0963283"><ele>223.0</ele><time>2026-04-04T15:43:56.725Z</time></trkpt><trkpt lat="43.4366217" lon="13.0965167"><ele>223.0</ele><time>2026-04-04T15:43:57.727Z</time></trkpt><trkpt lat="43.4364933" lon="13.0966633"><ele>224.33333333333331</ele><time>2026-04-04T15:43:58.723Z</time></trkpt><trkpt lat="43.4363433" lon="13.096765"><ele>225.66666666666669</ele><time>2026-04-04T15:43:59.727Z</time></trkpt><trkpt lat="43.436185" lon="13.09682"><ele>227.0</ele><time>2026-04-04T15:44:00.729Z</time></trkpt><trkpt lat="43.4360333" lon="13.0968333"><ele>227.0</ele><time>2026-04-04T15:44:01.73Z</time></trkpt><trkpt lat="43.4358983" lon="13.09685"><ele>227.0</ele><time>2026-04-04T15:44:02.727Z</time></trkpt><trkpt lat="43.43578" lon="13.096865"><ele>227.0</ele><time>2026-04-04T15:44:03.728Z</time></trkpt><trkpt lat="43.43567" lon="13.09688"><ele>227.0</ele><time>2026-04-04T15:44:04.725Z</time></trkpt><trkpt lat="43.4355783" lon="13.0968683"><ele>227.0</ele><time>2026-04-04T15:44:05.728Z</time></trkpt><trkpt lat="43.435505" lon="13.0968267"><ele>227.0</ele><time>2026-04-04T15:44:06.728Z</time></trkpt><trkpt lat="43.43545" lon="13.0967483"><ele>227.0</ele><time>2026-04-04T15:44:07.723Z</time></trkpt><trkpt lat="43.4354667" lon="13.096595"><ele>227.0</ele><time>2026-04-04T15:44:08.725Z</time></trkpt><trkpt lat="43.4355083" lon="13.096405"><ele>227.0</ele><time>2026-04-04T15:44:09.723Z</time></trkpt><trkpt lat="43.4355617" lon="13.0961767"><ele>225.66666666666669</ele><time>2026-04-04T15:44:10.727Z</time></trkpt><trkpt lat="43.4356067" lon="13.0959467"><ele>224.33333333333331</ele><time>2026-04-04T15:44:11.727Z</time></trkpt><trkpt lat="43.4356383" lon="13.0957217"><ele>223.0</ele><time>2026-04-04T15:44:12.725Z</time></trkpt><trkpt lat="43.435655" lon="13.0955017"><ele>221.66666666666666</ele><time>2026-04-04T15:44:13.724Z</time></trkpt><trkpt lat="43.4356633" lon="13.09527"><ele>220.33333333333331</ele><time>2026-04-04T15:44:14.728Z</time></trkpt><trkpt lat="43.4356483" lon="13.0950183"><ele>219.0</ele><time>2026-04-04T15:44:15.726Z</time></trkpt><trkpt lat="43.4356217" lon="13.094745"><ele>217.66666666666669</ele><time>2026-04-04T15:44:16.73Z</time></trkpt><trkpt lat="43.4355867" lon="13.0944667"><ele>216.33333333333334</ele><time>2026-04-04T15:44:17.726Z</time></trkpt><trkpt lat="43.4355483" lon="13.094195"><ele>215.0</ele><time>2026-04-04T15:44:18.725Z</time></trkpt><trkpt lat="43.435515" lon="13.0939383"><ele>214.0</ele><time>2026-04-04T15:44:19.726Z</time></trkpt><trkpt lat="43.4354867" lon="13.0936867"><ele>213.0</ele><time>2026-04-04T15:44:20.727Z</time></trkpt><trkpt lat="43.4354617" lon="13.0934483"><ele>212.0</ele><time>2026-04-04T15:44:21.726Z</time></trkpt><trkpt lat="43.4354383" lon="13.09322"><ele>210.66666666666669</ele><time>2026-04-04T15:44:22.725Z</time></trkpt><trkpt lat="43.4354017" lon="13.0930083"><ele>209.33333333333331</ele><time>2026-04-04T15:44:23.724Z</time></trkpt><trkpt lat="43.4353333" lon="13.0928117"><ele>208.0</ele><time>2026-04-04T15:44:24.728Z</time></trkpt><trkpt lat="43.4352217" lon="13.09264"><ele>208.0</ele><time>2026-04-04T15:44:25.726Z</time></trkpt><trkpt lat="43.4350733" lon="13.092485"><ele>208.0</ele><time>2026-04-04T15:44:26.729Z</time></trkpt><trkpt lat="43.43491" lon="13.09236"><ele>208.0</ele><time>2026-04-04T15:44:27.725Z</time></trkpt><trkpt lat="43.4347467" lon="13.0922517"><ele>208.66666666666666</ele><time>2026-04-04T15:44:28.725Z</time></trkpt><trkpt lat="43.434595" lon="13.0921483"><ele>209.33333333333331</ele><time>2026-04-04T15:44:29.729Z</time></trkpt><trkpt lat="43.4344467" lon="13.0920483"><ele>210.0</ele><time>2026-04-04T15:44:30.725Z</time></trkpt><trkpt lat="43.434295" lon="13.0919417"><ele>210.0</ele><time>2026-04-04T15:44:31.73Z</time></trkpt><trkpt lat="43.43414" lon="13.091835"><ele>210.0</ele><time>2026-04-04T15:44:32.729Z</time></trkpt><trkpt lat="43.4339967" lon="13.091735"><ele>210.0</ele><time>2026-04-04T15:44:33.727Z</time></trkpt><trkpt lat="43.4338667" lon="13.0916367"><ele>211.25</ele><time>2026-04-04T15:44:34.727Z</time></trkpt><trkpt lat="43.433745" lon="13.0915417"><ele>212.5</ele><time>2026-04-04T15:44:35.727Z</time></trkpt><trkpt lat="43.433615" lon="13.0914467"><ele>213.75</ele><time>2026-04-04T15:44:36.728Z</time></trkpt><trkpt lat="43.4334883" lon="13.0913583"><ele>215.0</ele><time>2026-04-04T15:44:37.727Z</time></trkpt><trkpt lat="43.43336" lon="13.09127"><ele>215.0</ele><time>2026-04-04T15:44:38.728Z</time></trkpt><trkpt lat="43.4332317" lon="13.091185"><ele>215.0</ele><time>2026-04-04T15:44:39.727Z</time></trkpt><trkpt lat="43.4331017" lon="13.0910983"><ele>215.0</ele><time>2026-04-04T15:44:40.728Z</time></trkpt><trkpt lat="43.432985" lon="13.0910233"><ele>215.0</ele><time>2026-04-04T15:44:41.728Z</time></trkpt><trkpt lat="43.4328933" lon="13.0909767"><ele>215.00000000000003</ele><time>2026-04-04T15:44:42.727Z</time></trkpt><trkpt lat="43.4328267" lon="13.0909417"><ele>215.0</ele><time>2026-04-04T15:44:43.73Z</time></trkpt><trkpt lat="43.43274" lon="13.0908867"><ele>215.0</ele><time>2026-04-04T15:44:45.726Z</time></trkpt><trkpt lat="43.4326717" lon="13.0908283"><ele>215.0</ele><time>2026-04-04T15:44:48.726Z</time></trkpt><trkpt lat="43.432595" lon="13.09075"><ele>215.00000000000003</ele><time>2026-04-04T15:44:50.732Z</time></trkpt><trkpt lat="43.4325567" lon="13.0906383"><ele>215.0</ele><time>2026-04-04T15:44:52.725Z</time></trkpt><trkpt lat="43.4326133" lon="13.0904983"><ele>215.0</ele><time>2026-04-04T15:44:54.726Z</time></trkpt><trkpt lat="43.4326267" lon="13.0903433"><ele>215.0</ele><time>2026-04-04T15:44:56.726Z</time></trkpt><trkpt lat="43.4325667" lon="13.090195"><ele>215.0</ele><time>2026-04-04T15:44:58.725Z</time></trkpt><trkpt lat="43.4324567" lon="13.0900933"><ele>215.0</ele><time>2026-04-04T15:45:00.727Z</time></trkpt><trkpt lat="43.4323967" lon="13.09003"><ele>215.0</ele><time>2026-04-04T15:45:01.729Z</time></trkpt><trkpt lat="43.4323317" lon="13.0899533"><ele>215.4</ele><time>2026-04-04T15:45:02.726Z</time></trkpt><trkpt lat="43.43226" lon="13.0898667"><ele>215.8</ele><time>2026-04-04T15:45:03.725Z</time></trkpt><trkpt lat="43.432185" lon="13.08978"><ele>216.2</ele><time>2026-04-04T15:45:04.723Z</time></trkpt><trkpt lat="43.432105" lon="13.089695"><ele>216.6</ele><time>2026-04-04T15:45:05.727Z</time></trkpt><trkpt lat="43.4320283" lon="13.0896083"><ele>217.0</ele><time>2026-04-04T15:45:06.732Z</time></trkpt><trkpt lat="43.4319517" lon="13.089515"><ele>217.0</ele><time>2026-04-04T15:45:07.727Z</time></trkpt><trkpt lat="43.431865" lon="13.0894117"><ele>217.0</ele><time>2026-04-04T15:45:08.728Z</time></trkpt><trkpt lat="43.4317667" lon="13.0892967"><ele>217.0</ele><time>2026-04-04T15:45:09.73Z</time></trkpt><trkpt lat="43.4316583" lon="13.0891783"><ele>217.0</ele><time>2026-04-04T15:45:10.728Z</time></trkpt><trkpt lat="43.4315383" lon="13.0890333"><ele>217.5</ele><time>2026-04-04T15:45:11.729Z</time></trkpt><trkpt lat="43.4314117" lon="13.08889"><ele>218.0</ele><time>2026-04-04T15:45:12.726Z</time></trkpt><trkpt lat="43.4313017" lon="13.0887633"><ele>218.5</ele><time>2026-04-04T15:45:13.725Z</time></trkpt><trkpt lat="43.4311933" lon="13.0886383"><ele>219.0</ele><time>2026-04-04T15:45:14.726Z</time></trkpt><trkpt lat="43.4310633" lon="13.08849"><ele>219.0</ele><time>2026-04-04T15:45:15.73Z</time></trkpt><trkpt lat="43.4309" lon="13.0882933"><ele>219.0</ele><time>2026-04-04T15:45:16.728Z</time></trkpt><trkpt lat="43.4306883" lon="13.0880583"><ele>220.0</ele><time>2026-04-04T15:45:17.728Z</time></trkpt><trkpt lat="43.4304417" lon="13.08782"><ele>221.0</ele><time>2026-04-04T15:45:18.728Z</time></trkpt><trkpt lat="43.4302133" lon="13.0876"><ele>227.5</ele><time>2026-04-04T15:45:19.726Z</time></trkpt><trkpt lat="43.429985" lon="13.0873817"><ele>234.0</ele><time>2026-04-04T15:45:20.726Z</time></trkpt><trkpt lat="43.4297783" lon="13.087185"><ele>231.0</ele><time>2026-04-04T15:45:21.728Z</time></trkpt><trkpt lat="43.4295833" lon="13.0870017"><ele>228.0</ele><time>2026-04-04T15:45:22.727Z</time></trkpt><trkpt lat="43.4294" lon="13.0868333"><ele>228.0</ele><time>2026-04-04T15:45:23.728Z</time></trkpt><trkpt lat="43.429235" lon="13.0866783"><ele>228.0</ele><time>2026-04-04T15:45:24.727Z</time></trkpt><trkpt lat="43.4290833" lon="13.08654"><ele>228.0</ele><time>2026-04-04T15:45:25.73Z</time></trkpt><trkpt lat="43.428935" lon="13.0864067"><ele>232.0</ele><time>2026-04-04T15:45:26.728Z</time></trkpt><trkpt lat="43.4287817" lon="13.0862917"><ele>236.0</ele><time>2026-04-04T15:45:27.727Z</time></trkpt><trkpt lat="43.4286233" lon="13.0861917"><ele>240.0</ele><time>2026-04-04T15:45:28.73Z</time></trkpt><trkpt lat="43.4284383" lon="13.08611"><ele>240.0</ele><time>2026-04-04T15:45:29.727Z</time></trkpt><trkpt lat="43.42821" lon="13.0860567"><ele>240.0</ele><time>2026-04-04T15:45:30.73Z</time></trkpt><trkpt lat="43.4279767" lon="13.086015"><ele>237.5</ele><time>2026-04-04T15:45:31.727Z</time></trkpt><trkpt lat="43.4277383" lon="13.0859783"><ele>235.0</ele><time>2026-04-04T15:45:32.729Z</time></trkpt><trkpt lat="43.42752" lon="13.0859217"><ele>235.0</ele><time>2026-04-04T15:45:33.725Z</time></trkpt><trkpt lat="43.4272917" lon="13.085845"><ele>235.0</ele><time>2026-04-04T15:45:34.727Z</time></trkpt><trkpt lat="43.427055" lon="13.085755"><ele>244.0</ele><time>2026-04-04T15:45:35.727Z</time></trkpt><trkpt lat="43.4268133" lon="13.0856433"><ele>253.0</ele><time>2026-04-04T15:45:36.727Z</time></trkpt><trkpt lat="43.426575" lon="13.0855333"><ele>253.0</ele><time>2026-04-04T15:45:37.726Z</time></trkpt><trkpt lat="43.4263517" lon="13.0854283"><ele>253.0</ele><time>2026-04-04T15:45:38.729Z</time></trkpt><trkpt lat="43.4261433" lon="13.0853333"><ele>252.66666666666666</ele><time>2026-04-04T15:45:39.726Z</time></trkpt><trkpt lat="43.4259517" lon="13.08525"><ele>252.33333333333331</ele><time>2026-04-04T15:45:40.726Z</time></trkpt><trkpt lat="43.42578" lon="13.085165"><ele>252.0</ele><time>2026-04-04T15:45:41.731Z</time></trkpt><trkpt lat="43.425635" lon="13.0850633"><ele>252.0</ele><time>2026-04-04T15:45:42.727Z</time></trkpt><trkpt lat="43.4255233" lon="13.084945"><ele>252.0</ele><time>2026-04-04T15:45:43.725Z</time></trkpt><trkpt lat="43.4254367" lon="13.0847833"><ele>252.0</ele><time>2026-04-04T15:45:44.727Z</time></trkpt><trkpt lat="43.4253533" lon="13.0845767"><ele>253.66666666666669</ele><time>2026-04-04T15:45:45.728Z</time></trkpt><trkpt lat="43.42526" lon="13.084335"><ele>255.33333333333334</ele><time>2026-04-04T15:45:46.727Z</time></trkpt><trkpt lat="43.4251583" lon="13.08411"><ele>257.0</ele><time>2026-04-04T15:45:47.727Z</time></trkpt><trkpt lat="43.4250733" lon="13.0838983"><ele>260.75</ele><time>2026-04-04T15:45:48.728Z</time></trkpt><trkpt lat="43.4249917" lon="13.0837233"><ele>264.5</ele><time>2026-04-04T15:45:49.726Z</time></trkpt><trkpt lat="43.4249083" lon="13.0835733"><ele>268.25</ele><time>2026-04-04T15:45:50.73Z</time></trkpt><trkpt lat="43.4248333" lon="13.08345"><ele>272.0</ele><time>2026-04-04T15:45:51.727Z</time></trkpt><trkpt lat="43.4247217" lon="13.0833717"><ele>270.8</ele><time>2026-04-04T15:45:52.722Z</time></trkpt><trkpt lat="43.42462" lon="13.0833217"><ele>269.6</ele><time>2026-04-04T15:45:53.727Z</time></trkpt><trkpt lat="43.4245183" lon="13.0832883"><ele>268.40000000000003</ele><time>2026-04-04T15:45:54.728Z</time></trkpt><trkpt lat="43.42444" lon="13.0832417"><ele>267.2</ele><time>2026-04-04T15:45:55.729Z</time></trkpt><trkpt lat="43.42437" lon="13.0831783"><ele>266.0</ele><time>2026-04-04T15:45:56.73Z</time></trkpt><trkpt lat="43.424315" lon="13.0831017"><ele>266.0</ele><time>2026-04-04T15:45:57.726Z</time></trkpt><trkpt lat="43.424305" lon="13.0829417"><ele>266.0</ele><time>2026-04-04T15:45:58.725Z</time></trkpt><trkpt lat="43.4242967" lon="13.0827817"><ele>266.0</ele><time>2026-04-04T15:45:59.729Z</time></trkpt><trkpt lat="43.42431" lon="13.0825533"><ele>266.0</ele><time>2026-04-04T15:46:00.731Z</time></trkpt><trkpt lat="43.42432" lon="13.0823467"><ele>267.0</ele><time>2026-04-04T15:46:01.727Z</time></trkpt><trkpt lat="43.4243233" lon="13.0821567"><ele>268.0</ele><time>2026-04-04T15:46:02.726Z</time></trkpt><trkpt lat="43.4243" lon="13.081975"><ele>269.0</ele><time>2026-04-04T15:46:03.726Z</time></trkpt><trkpt lat="43.4242467" lon="13.081815"><ele>270.0</ele><time>2026-04-04T15:46:04.728Z</time></trkpt><trkpt lat="43.42416" lon="13.0816883"><ele>270.0</ele><time>2026-04-04T15:46:05.725Z</time></trkpt><trkpt lat="43.4240517" lon="13.0816083"><ele>270.0</ele><time>2026-04-04T15:46:06.734Z</time></trkpt><trkpt lat="43.4239183" lon="13.08157"><ele>270.0</ele><time>2026-04-04T15:46:07.724Z</time></trkpt><trkpt lat="43.42377" lon="13.081575"><ele>270.0</ele><time>2026-04-04T15:46:08.726Z</time></trkpt><trkpt lat="43.42362" lon="13.08159"><ele>270.5</ele><time>2026-04-04T15:46:09.726Z</time></trkpt><trkpt lat="43.4234817" lon="13.08162"><ele>271.0</ele><time>2026-04-04T15:46:10.728Z</time></trkpt><trkpt lat="43.4233533" lon="13.0816917"><ele>271.5</ele><time>2026-04-04T15:46:11.727Z</time></trkpt><trkpt lat="43.4232267" lon="13.0818067"><ele>272.0</ele><time>2026-04-04T15:46:12.726Z</time></trkpt><trkpt lat="43.4231167" lon="13.08196"><ele>272.0</ele><time>2026-04-04T15:46:13.726Z</time></trkpt><trkpt lat="43.4230183" lon="13.08212"><ele>272.0</ele><time>2026-04-04T15:46:14.723Z</time></trkpt><trkpt lat="43.4229283" lon="13.0822783"><ele>272.0</ele><time>2026-04-04T15:46:15.727Z</time></trkpt><trkpt lat="43.422845" lon="13.0824283"><ele>272.0</ele><time>2026-04-04T15:46:16.728Z</time></trkpt><trkpt lat="43.4227667" lon="13.082565"><ele>271.2</ele><time>2026-04-04T15:46:17.728Z</time></trkpt><trkpt lat="43.4226883" lon="13.08268"><ele>270.4</ele><time>2026-04-04T15:46:18.727Z</time></trkpt><trkpt lat="43.4226067" lon="13.082775"><ele>269.6</ele><time>2026-04-04T15:46:19.724Z</time></trkpt><trkpt lat="43.4225183" lon="13.0828483"><ele>268.8</ele><time>2026-04-04T15:46:20.729Z</time></trkpt><trkpt lat="43.4224217" lon="13.0828767"><ele>268.0</ele><time>2026-04-04T15:46:21.726Z</time></trkpt><trkpt lat="43.42233" lon="13.0828583"><ele>268.0</ele><time>2026-04-04T15:46:22.726Z</time></trkpt><trkpt lat="43.42224" lon="13.0827983"><ele>268.0</ele><time>2026-04-04T15:46:23.726Z</time></trkpt><trkpt lat="43.4221483" lon="13.0827167"><ele>268.0</ele><time>2026-04-04T15:46:24.725Z</time></trkpt><trkpt lat="43.4220667" lon="13.0826267"><ele>268.0</ele><time>2026-04-04T15:46:25.725Z</time></trkpt><trkpt lat="43.4219983" lon="13.082535"><ele>268.0</ele><time>2026-04-04T15:46:26.727Z</time></trkpt><trkpt lat="43.4219317" lon="13.08244"><ele>269.16666666666663</ele><time>2026-04-04T15:46:27.724Z</time></trkpt><trkpt lat="43.4218683" lon="13.08234"><ele>270.3333333333333</ele><time>2026-04-04T15:46:28.725Z</time></trkpt><trkpt lat="43.421805" lon="13.0822517"><ele>271.5</ele><time>2026-04-04T15:46:29.724Z</time></trkpt><trkpt lat="43.4217383" lon="13.08218"><ele>272.6666666666667</ele><time>2026-04-04T15:46:30.726Z</time></trkpt><trkpt lat="43.4216683" lon="13.0821333"><ele>273.83333333333337</ele><time>2026-04-04T15:46:31.73Z</time></trkpt><trkpt lat="43.4215783" lon="13.0821567"><ele>275.0</ele><time>2026-04-04T15:46:32.728Z</time></trkpt><trkpt lat="43.4214917" lon="13.0821783"><ele>275.0</ele><time>2026-04-04T15:46:33.726Z</time></trkpt><trkpt lat="43.4213933" lon="13.0822167"><ele>275.0</ele><time>2026-04-04T15:46:34.727Z</time></trkpt><trkpt lat="43.4212633" lon="13.0822117"><ele>275.0</ele><time>2026-04-04T15:46:35.726Z</time></trkpt><trkpt lat="43.4211167" lon="13.08218"><ele>275.0</ele><time>2026-04-04T15:46:36.729Z</time></trkpt><trkpt lat="43.4209583" lon="13.0821283"><ele>273.6666666666667</ele><time>2026-04-04T15:46:37.727Z</time></trkpt><trkpt lat="43.420785" lon="13.08206"><ele>272.3333333333333</ele><time>2026-04-04T15:46:38.73Z</time></trkpt><trkpt lat="43.420605" lon="13.0819917"><ele>271.0</ele><time>2026-04-04T15:46:39.728Z</time></trkpt><trkpt lat="43.4204333" lon="13.0819283"><ele>270.25</ele><time>2026-04-04T15:46:40.726Z</time></trkpt><trkpt lat="43.4202867" lon="13.0818667"><ele>269.5</ele><time>2026-04-04T15:46:41.725Z</time></trkpt><trkpt lat="43.4201617" lon="13.08178"><ele>268.75</ele><time>2026-04-04T15:46:42.729Z</time></trkpt><trkpt lat="43.4200567" lon="13.0816583"><ele>268.0</ele><time>2026-04-04T15:46:43.726Z</time></trkpt><trkpt lat="43.4199667" lon="13.0815"><ele>268.0</ele><time>2026-04-04T15:46:44.725Z</time></trkpt><trkpt lat="43.4198833" lon="13.081315"><ele>268.0</ele><time>2026-04-04T15:46:45.729Z</time></trkpt><trkpt lat="43.4198083" lon="13.0811283"><ele>268.0</ele><time>2026-04-04T15:46:46.728Z</time></trkpt><trkpt lat="43.4197467" lon="13.08095"><ele>268.0</ele><time>2026-04-04T15:46:47.725Z</time></trkpt><trkpt lat="43.41969" lon="13.0807767"><ele>268.0</ele><time>2026-04-04T15:46:48.727Z</time></trkpt><trkpt lat="43.41963" lon="13.08062"><ele>268.0</ele><time>2026-04-04T15:46:49.729Z</time></trkpt><trkpt lat="43.4195533" lon="13.0804933"><ele>268.0</ele><time>2026-04-04T15:46:50.727Z</time></trkpt><trkpt lat="43.4194517" lon="13.0804117"><ele>267.0</ele><time>2026-04-04T15:46:51.728Z</time></trkpt><trkpt lat="43.4193283" lon="13.08038"><ele>266.0</ele><time>2026-04-04T15:46:52.725Z</time></trkpt><trkpt lat="43.4191817" lon="13.08038"><ele>265.0</ele><time>2026-04-04T15:46:53.726Z</time></trkpt><trkpt lat="43.4190117" lon="13.0804067"><ele>264.0</ele><time>2026-04-04T15:46:54.726Z</time></trkpt><trkpt lat="43.4188333" lon="13.0804833"><ele>263.6666666666667</ele><time>2026-04-04T15:46:55.721Z</time></trkpt><trkpt lat="43.4186583" lon="13.0805567"><ele>263.33333333333337</ele><time>2026-04-04T15:46:56.73Z</time></trkpt><trkpt lat="43.4184867" lon="13.08062"><ele>263.0</ele><time>2026-04-04T15:46:57.728Z</time></trkpt><trkpt lat="43.418325" lon="13.0806583"><ele>263.0</ele><time>2026-04-04T15:46:58.728Z</time></trkpt><trkpt lat="43.4181683" lon="13.080665"><ele>263.0</ele><time>2026-04-04T15:46:59.727Z</time></trkpt><trkpt lat="43.4180217" lon="13.0806"><ele>263.0</ele><time>2026-04-04T15:47:00.725Z</time></trkpt><trkpt lat="43.4178683" lon="13.0804983"><ele>260.0</ele><time>2026-04-04T15:47:01.726Z</time></trkpt><trkpt lat="43.41771" lon="13.0803783"><ele>257.0</ele><time>2026-04-04T15:47:02.73Z</time></trkpt><trkpt lat="43.4175617" lon="13.080265"><ele>254.0</ele><time>2026-04-04T15:47:03.725Z</time></trkpt><trkpt lat="43.417415" lon="13.0801767"><ele>254.0</ele><time>2026-04-04T15:47:04.728Z</time></trkpt><trkpt lat="43.417265" lon="13.0801417"><ele>254.0</ele><time>2026-04-04T15:47:05.724Z</time></trkpt><trkpt lat="43.4171017" lon="13.08015"><ele>254.0</ele><time>2026-04-04T15:47:06.726Z</time></trkpt><trkpt lat="43.416915" lon="13.0801817"><ele>252.33333333333334</ele><time>2026-04-04T15:47:07.724Z</time></trkpt><trkpt lat="43.4167033" lon="13.080215"><ele>250.66666666666669</ele><time>2026-04-04T15:47:08.727Z</time></trkpt><trkpt lat="43.416485" lon="13.0802483"><ele>249.0</ele><time>2026-04-04T15:47:09.727Z</time></trkpt><trkpt lat="43.4162733" lon="13.0802833"><ele>248.0</ele><time>2026-04-04T15:47:10.726Z</time></trkpt><trkpt lat="43.4160733" lon="13.08033"><ele>247.0</ele><time>2026-04-04T15:47:11.729Z</time></trkpt><trkpt lat="43.4158867" lon="13.0803883"><ele>246.0</ele><time>2026-04-04T15:47:12.727Z</time></trkpt><trkpt lat="43.41571" lon="13.08048"><ele>246.0</ele><time>2026-04-04T15:47:13.73Z</time></trkpt><trkpt lat="43.41555" lon="13.0806"><ele>246.0</ele><time>2026-04-04T15:47:14.727Z</time></trkpt><trkpt lat="43.4154083" lon="13.08073"><ele>246.0</ele><time>2026-04-04T15:47:15.727Z</time></trkpt><trkpt lat="43.4152633" lon="13.0808433"><ele>246.0</ele><time>2026-04-04T15:47:16.727Z</time></trkpt><trkpt lat="43.4151067" lon="13.0809033"><ele>246.0</ele><time>2026-04-04T15:47:17.73Z</time></trkpt><trkpt lat="43.4149367" lon="13.0809033"><ele>246.0</ele><time>2026-04-04T15:47:18.728Z</time></trkpt><trkpt lat="43.4147533" lon="13.0808533"><ele>246.66666666666669</ele><time>2026-04-04T15:47:19.726Z</time></trkpt><trkpt lat="43.4145583" lon="13.0807917"><ele>247.33333333333334</ele><time>2026-04-04T15:47:20.732Z</time></trkpt><trkpt lat="43.4143433" lon="13.0807517"><ele>248.0</ele><time>2026-04-04T15:47:21.727Z</time></trkpt><trkpt lat="43.4141083" lon="13.0807517"><ele>249.0</ele><time>2026-04-04T15:47:22.723Z</time></trkpt><trkpt lat="43.4138583" lon="13.08077"><ele>250.0</ele><time>2026-04-04T15:47:23.73Z</time></trkpt><trkpt lat="43.4136033" lon="13.0807867"><ele>251.0</ele><time>2026-04-04T15:47:24.73Z</time></trkpt><trkpt lat="43.4133433" lon="13.080805"><ele>252.0</ele><time>2026-04-04T15:47:25.729Z</time></trkpt><trkpt lat="43.4130867" lon="13.0808283"><ele>254.0</ele><time>2026-04-04T15:47:26.727Z</time></trkpt><trkpt lat="43.4128283" lon="13.0808483"><ele>256.0</ele><time>2026-04-04T15:47:27.727Z</time></trkpt><trkpt lat="43.4125733" lon="13.08087"><ele>256.0</ele><time>2026-04-04T15:47:28.727Z</time></trkpt><trkpt lat="43.4123267" lon="13.0808933"><ele>256.0</ele><time>2026-04-04T15:47:29.727Z</time></trkpt><trkpt lat="43.4120783" lon="13.080915"><ele>258.5</ele><time>2026-04-04T15:47:30.726Z</time></trkpt><trkpt lat="43.4118333" lon="13.0809367"><ele>261.0</ele><time>2026-04-04T15:47:31.729Z</time></trkpt><trkpt lat="43.4116" lon="13.0809567"><ele>261.0</ele><time>2026-04-04T15:47:32.728Z</time></trkpt><trkpt lat="43.4113767" lon="13.0809733"><ele>261.0</ele><time>2026-04-04T15:47:33.725Z</time></trkpt><trkpt lat="43.411165" lon="13.0809883"><ele>261.0</ele><time>2026-04-04T15:47:34.727Z</time></trkpt><trkpt lat="43.410965" lon="13.081"><ele>262.0</ele><time>2026-04-04T15:47:35.726Z</time></trkpt><trkpt lat="43.4107817" lon="13.081015"><ele>263.0</ele><time>2026-04-04T15:47:36.723Z</time></trkpt><trkpt lat="43.4106133" lon="13.0810283"><ele>264.0</ele><time>2026-04-04T15:47:37.726Z</time></trkpt><trkpt lat="43.4104667" lon="13.08104"><ele>264.0</ele><time>2026-04-04T15:47:38.727Z</time></trkpt><trkpt lat="43.4103317" lon="13.0810333"><ele>264.0</ele><time>2026-04-04T15:47:39.724Z</time></trkpt><trkpt lat="43.4102033" lon="13.0809967"><ele>264.0</ele><time>2026-04-04T15:47:40.726Z</time></trkpt><trkpt lat="43.4100683" lon="13.08092"><ele>264.0</ele><time>2026-04-04T15:47:41.725Z</time></trkpt><trkpt lat="43.409925" lon="13.0807983"><ele>263.0</ele><time>2026-04-04T15:47:42.725Z</time></trkpt><trkpt lat="43.409785" lon="13.0806533"><ele>262.0</ele><time>2026-04-04T15:47:43.724Z</time></trkpt><trkpt lat="43.4096483" lon="13.08051"><ele>261.0</ele><time>2026-04-04T15:47:44.731Z</time></trkpt><trkpt lat="43.4095217" lon="13.0803717"><ele>261.0</ele><time>2026-04-04T15:47:45.722Z</time></trkpt><trkpt lat="43.409405" lon="13.0802517"><ele>261.0</ele><time>2026-04-04T15:47:46.727Z</time></trkpt><trkpt lat="43.4092933" lon="13.0801633"><ele>261.0</ele><time>2026-04-04T15:47:47.727Z</time></trkpt><trkpt lat="43.4091917" lon="13.080125"><ele>261.0</ele><time>2026-04-04T15:47:48.728Z</time></trkpt><trkpt lat="43.409085" lon="13.0801467"><ele>261.0</ele><time>2026-04-04T15:47:49.727Z</time></trkpt><trkpt lat="43.40898" lon="13.080235"><ele>261.0</ele><time>2026-04-04T15:47:50.73Z</time></trkpt><trkpt lat="43.4088833" lon="13.0803733"><ele>261.0</ele><time>2026-04-04T15:47:51.726Z</time></trkpt><trkpt lat="43.4087783" lon="13.08056"><ele>261.0</ele><time>2026-04-04T15:47:52.724Z</time></trkpt><trkpt lat="43.4086567" lon="13.0807917"><ele>260.0</ele><time>2026-04-04T15:47:53.728Z</time></trkpt><trkpt lat="43.4085183" lon="13.0810217"><ele>259.0</ele><time>2026-04-04T15:47:54.727Z</time></trkpt><trkpt lat="43.4083567" lon="13.0812417"><ele>258.0</ele><time>2026-04-04T15:47:55.731Z</time></trkpt><trkpt lat="43.408185" lon="13.0814533"><ele>256.6666666666667</ele><time>2026-04-04T15:47:56.728Z</time></trkpt><trkpt lat="43.4080133" lon="13.081655"><ele>255.33333333333334</ele><time>2026-04-04T15:47:57.729Z</time></trkpt><trkpt lat="43.40785" lon="13.0818333"><ele>254.0</ele><time>2026-04-04T15:47:58.725Z</time></trkpt><trkpt lat="43.4076967" lon="13.0819783"><ele>254.0</ele><time>2026-04-04T15:47:59.725Z</time></trkpt><trkpt lat="43.4075467" lon="13.0820767"><ele>254.0</ele><time>2026-04-04T15:48:00.722Z</time></trkpt><trkpt lat="43.4073883" lon="13.0821233"><ele>254.0</ele><time>2026-04-04T15:48:01.726Z</time></trkpt><trkpt lat="43.407205" lon="13.0821333"><ele>255.0</ele><time>2026-04-04T15:48:02.726Z</time></trkpt><trkpt lat="43.407" lon="13.0821183"><ele>256.0</ele><time>2026-04-04T15:48:03.727Z</time></trkpt><trkpt lat="43.4067783" lon="13.0820883"><ele>257.0</ele><time>2026-04-04T15:48:04.726Z</time></trkpt><trkpt lat="43.4065517" lon="13.08206"><ele>256.0</ele><time>2026-04-04T15:48:05.728Z</time></trkpt><trkpt lat="43.4063183" lon="13.08203"><ele>255.0</ele><time>2026-04-04T15:48:06.727Z</time></trkpt><trkpt lat="43.40608" lon="13.082"><ele>255.0</ele><time>2026-04-04T15:48:07.732Z</time></trkpt><trkpt lat="43.4058533" lon="13.0819717"><ele>255.0</ele><time>2026-04-04T15:48:08.727Z</time></trkpt><trkpt lat="43.4056383" lon="13.0819467"><ele>255.0</ele><time>2026-04-04T15:48:09.726Z</time></trkpt><trkpt lat="43.4054283" lon="13.08192"><ele>254.5</ele><time>2026-04-04T15:48:10.727Z</time></trkpt><trkpt lat="43.40521" lon="13.0818883"><ele>254.0</ele><time>2026-04-04T15:48:11.728Z</time></trkpt><trkpt lat="43.40498" lon="13.0818417"><ele>254.0</ele><time>2026-04-04T15:48:12.725Z</time></trkpt><trkpt lat="43.4047367" lon="13.081775"><ele>254.0</ele><time>2026-04-04T15:48:13.726Z</time></trkpt><trkpt lat="43.4044917" lon="13.0816933"><ele>253.0</ele><time>2026-04-04T15:48:14.729Z</time></trkpt><trkpt lat="43.4042567" lon="13.0816133"><ele>252.0</ele><time>2026-04-04T15:48:15.728Z</time></trkpt><trkpt lat="43.4040283" lon="13.0815433"><ele>255.66666666666669</ele><time>2026-04-04T15:48:16.728Z</time></trkpt><trkpt lat="43.40382" lon="13.081475"><ele>259.33333333333337</ele><time>2026-04-04T15:48:17.729Z</time></trkpt><trkpt lat="43.4036333" lon="13.0814117"><ele>263.0</ele><time>2026-04-04T15:48:18.725Z</time></trkpt><trkpt lat="43.4034683" lon="13.0813667"><ele>263.0</ele><time>2026-04-04T15:48:19.726Z</time></trkpt><trkpt lat="43.4033117" lon="13.081345"><ele>263.0</ele><time>2026-04-04T15:48:20.727Z</time></trkpt><trkpt lat="43.4031617" lon="13.0813633"><ele>263.0</ele><time>2026-04-04T15:48:21.725Z</time></trkpt><trkpt lat="43.4030167" lon="13.0814233"><ele>264.0</ele><time>2026-04-04T15:48:22.726Z</time></trkpt><trkpt lat="43.4028817" lon="13.0815217"><ele>265.0</ele><time>2026-04-04T15:48:23.728Z</time></trkpt><trkpt lat="43.402765" lon="13.0816417"><ele>266.0</ele><time>2026-04-04T15:48:24.727Z</time></trkpt><trkpt lat="43.402665" lon="13.0817533"><ele>267.0</ele><time>2026-04-04T15:48:25.726Z</time></trkpt><trkpt lat="43.402565" lon="13.08187"><ele>267.3333333333333</ele><time>2026-04-04T15:48:26.727Z</time></trkpt><trkpt lat="43.4024467" lon="13.0819967"><ele>267.66666666666663</ele><time>2026-04-04T15:48:27.725Z</time></trkpt><trkpt lat="43.4023167" lon="13.0821233"><ele>268.0</ele><time>2026-04-04T15:48:28.723Z</time></trkpt><trkpt lat="43.4021733" lon="13.0822817"><ele>267.3333333333333</ele><time>2026-04-04T15:48:29.724Z</time></trkpt><trkpt lat="43.40204" lon="13.0824533"><ele>266.6666666666667</ele><time>2026-04-04T15:48:30.727Z</time></trkpt><trkpt lat="43.40191" lon="13.082625"><ele>266.0</ele><time>2026-04-04T15:48:31.724Z</time></trkpt><trkpt lat="43.4017817" lon="13.0827733"><ele>266.0</ele><time>2026-04-04T15:48:32.723Z</time></trkpt><trkpt lat="43.40166" lon="13.082905"><ele>266.0</ele><time>2026-04-04T15:48:33.723Z</time></trkpt><trkpt lat="43.4015583" lon="13.08303"><ele>266.0</ele><time>2026-04-04T15:48:34.727Z</time></trkpt><trkpt lat="43.4014783" lon="13.0832"><ele>266.0</ele><time>2026-04-04T15:48:35.726Z</time></trkpt><trkpt lat="43.40142" lon="13.0834217"><ele>264.33333333333337</ele><time>2026-04-04T15:48:36.725Z</time></trkpt><trkpt lat="43.4013683" lon="13.0836767"><ele>262.6666666666667</ele><time>2026-04-04T15:48:37.726Z</time></trkpt><trkpt lat="43.4013133" lon="13.0839517"><ele>261.0</ele><time>2026-04-04T15:48:38.727Z</time></trkpt><trkpt lat="43.4012533" lon="13.0842467"><ele>261.0</ele><time>2026-04-04T15:48:39.726Z</time></trkpt><trkpt lat="43.401195" lon="13.0845517"><ele>261.0</ele><time>2026-04-04T15:48:40.727Z</time></trkpt><trkpt lat="43.40114" lon="13.0848583"><ele>264.5</ele><time>2026-04-04T15:48:41.726Z</time></trkpt><trkpt lat="43.40109" lon="13.0851667"><ele>268.0</ele><time>2026-04-04T15:48:42.731Z</time></trkpt><trkpt lat="43.401035" lon="13.0854617"><ele>268.0</ele><time>2026-04-04T15:48:43.728Z</time></trkpt><trkpt lat="43.4009817" lon="13.085745"><ele>268.0</ele><time>2026-04-04T15:48:44.727Z</time></trkpt><trkpt lat="43.400925" lon="13.086005"><ele>268.0</ele><time>2026-04-04T15:48:45.729Z</time></trkpt><trkpt lat="43.40087" lon="13.08625"><ele>267.3333333333333</ele><time>2026-04-04T15:48:46.723Z</time></trkpt><trkpt lat="43.4008067" lon="13.0864683"><ele>266.6666666666667</ele><time>2026-04-04T15:48:47.726Z</time></trkpt><trkpt lat="43.400725" lon="13.0866533"><ele>266.0</ele><time>2026-04-04T15:48:48.726Z</time></trkpt><trkpt lat="43.4006233" lon="13.0867983"><ele>269.0</ele><time>2026-04-04T15:48:49.728Z</time></trkpt><trkpt lat="43.4004883" lon="13.0869117"><ele>272.0</ele><time>2026-04-04T15:48:50.729Z</time></trkpt><trkpt lat="43.4003433" lon="13.0870133"><ele>275.0</ele><time>2026-04-04T15:48:51.725Z</time></trkpt><trkpt lat="43.4001933" lon="13.0871083"><ele>275.0</ele><time>2026-04-04T15:48:52.726Z</time></trkpt><trkpt lat="43.4000517" lon="13.0872133"><ele>275.0</ele><time>2026-04-04T15:48:53.724Z</time></trkpt><trkpt lat="43.39993" lon="13.08735"><ele>275.0</ele><time>2026-04-04T15:48:54.725Z</time></trkpt><trkpt lat="43.3998367" lon="13.08752"><ele>275.6666666666667</ele><time>2026-04-04T15:48:55.729Z</time></trkpt><trkpt lat="43.3997383" lon="13.0877367"><ele>276.3333333333333</ele><time>2026-04-04T15:48:56.728Z</time></trkpt><trkpt lat="43.3996233" lon="13.087955"><ele>277.0</ele><time>2026-04-04T15:48:57.723Z</time></trkpt><trkpt lat="43.3994833" lon="13.0881533"><ele>273.3333333333333</ele><time>2026-04-04T15:48:58.725Z</time></trkpt><trkpt lat="43.39933" lon="13.0883367"><ele>269.6666666666667</ele><time>2026-04-04T15:48:59.728Z</time></trkpt><trkpt lat="43.3991867" lon="13.0884967"><ele>266.0</ele><time>2026-04-04T15:49:00.728Z</time></trkpt><trkpt lat="43.3990667" lon="13.088675"><ele>266.0</ele><time>2026-04-04T15:49:01.728Z</time></trkpt><trkpt lat="43.3989683" lon="13.08887"><ele>266.0</ele><time>2026-04-04T15:49:02.726Z</time></trkpt><trkpt lat="43.398895" lon="13.0890867"><ele>266.0</ele><time>2026-04-04T15:49:03.727Z</time></trkpt><trkpt lat="43.3988517" lon="13.0893133"><ele>265.33333333333337</ele><time>2026-04-04T15:49:04.73Z</time></trkpt><trkpt lat="43.398845" lon="13.0895583"><ele>264.6666666666667</ele><time>2026-04-04T15:49:05.727Z</time></trkpt><trkpt lat="43.3988633" lon="13.08983"><ele>264.0</ele><time>2026-04-04T15:49:06.727Z</time></trkpt><trkpt lat="43.3989017" lon="13.0901333"><ele>266.0</ele><time>2026-04-04T15:49:07.73Z</time></trkpt><trkpt lat="43.398945" lon="13.09044"><ele>268.0</ele><time>2026-04-04T15:49:08.729Z</time></trkpt><trkpt lat="43.3989867" lon="13.0907417"><ele>268.3333333333333</ele><time>2026-04-04T15:49:09.727Z</time></trkpt><trkpt lat="43.3990233" lon="13.091025"><ele>268.6666666666667</ele><time>2026-04-04T15:49:10.726Z</time></trkpt><trkpt lat="43.3990583" lon="13.0913033"><ele>269.0</ele><time>2026-04-04T15:49:11.729Z</time></trkpt><trkpt lat="43.399075" lon="13.09158"><ele>269.0</ele><time>2026-04-04T15:49:12.73Z</time></trkpt><trkpt lat="43.3990683" lon="13.0918417"><ele>269.0</ele><time>2026-04-04T15:49:13.728Z</time></trkpt><trkpt lat="43.3990367" lon="13.0920983"><ele>269.0</ele><time>2026-04-04T15:49:14.727Z</time></trkpt><trkpt lat="43.39898" lon="13.0923367"><ele>268.6666666666667</ele><time>2026-04-04T15:49:15.73Z</time></trkpt><trkpt lat="43.3988883" lon="13.0925583"><ele>268.3333333333333</ele><time>2026-04-04T15:49:16.727Z</time></trkpt><trkpt lat="43.3987733" lon="13.0927817"><ele>268.0</ele><time>2026-04-04T15:49:17.731Z</time></trkpt><trkpt lat="43.398625" lon="13.09299"><ele>269.0</ele><time>2026-04-04T15:49:18.729Z</time></trkpt><trkpt lat="43.3984567" lon="13.093175"><ele>270.0</ele><time>2026-04-04T15:49:19.728Z</time></trkpt><trkpt lat="43.3982783" lon="13.0933483"><ele>271.0</ele><time>2026-04-04T15:49:20.728Z</time></trkpt><trkpt lat="43.39809" lon="13.093505"><ele>273.3333333333333</ele><time>2026-04-04T15:49:21.728Z</time></trkpt><trkpt lat="43.3978983" lon="13.093665"><ele>275.6666666666667</ele><time>2026-04-04T15:49:22.727Z</time></trkpt><trkpt lat="43.3977133" lon="13.09382"><ele>278.0</ele><time>2026-04-04T15:49:23.729Z</time></trkpt><trkpt lat="43.3975333" lon="13.0939783"><ele>276.6666666666667</ele><time>2026-04-04T15:49:24.729Z</time></trkpt><trkpt lat="43.3973483" lon="13.09413"><ele>275.3333333333333</ele><time>2026-04-04T15:49:25.727Z</time></trkpt><trkpt lat="43.3971617" lon="13.0942833"><ele>274.0</ele><time>2026-04-04T15:49:26.731Z</time></trkpt><trkpt lat="43.3969767" lon="13.0944417"><ele>274.0</ele><time>2026-04-04T15:49:27.728Z</time></trkpt><trkpt lat="43.3967933" lon="13.0945983"><ele>274.0</ele><time>2026-04-04T15:49:28.724Z</time></trkpt><trkpt lat="43.3966117" lon="13.0947533"><ele>274.0</ele><time>2026-04-04T15:49:29.725Z</time></trkpt><trkpt lat="43.3964283" lon="13.0949133"><ele>273.3333333333333</ele><time>2026-04-04T15:49:30.729Z</time></trkpt><trkpt lat="43.3962433" lon="13.0950783"><ele>272.6666666666667</ele><time>2026-04-04T15:49:31.728Z</time></trkpt><trkpt lat="43.396065" lon="13.09524"><ele>272.0</ele><time>2026-04-04T15:49:32.728Z</time></trkpt><trkpt lat="43.3958933" lon="13.095395"><ele>272.0</ele><time>2026-04-04T15:49:33.728Z</time></trkpt><trkpt lat="43.3957283" lon="13.0955467"><ele>272.0</ele><time>2026-04-04T15:49:34.724Z</time></trkpt><trkpt lat="43.3955617" lon="13.095695"><ele>272.0</ele><time>2026-04-04T15:49:35.728Z</time></trkpt><trkpt lat="43.3953867" lon="13.095845"><ele>273.33333333333337</ele><time>2026-04-04T15:49:36.727Z</time></trkpt><trkpt lat="43.39521" lon="13.095995"><ele>274.6666666666667</ele><time>2026-04-04T15:49:37.731Z</time></trkpt><trkpt lat="43.3950417" lon="13.0961417"><ele>276.0</ele><time>2026-04-04T15:49:38.737Z</time></trkpt><trkpt lat="43.39488" lon="13.0962833"><ele>276.0</ele><time>2026-04-04T15:49:39.729Z</time></trkpt><trkpt lat="43.39472" lon="13.0964117"><ele>276.0</ele><time>2026-04-04T15:49:40.725Z</time></trkpt><trkpt lat="43.3945667" lon="13.0965133"><ele>276.0</ele><time>2026-04-04T15:49:41.727Z</time></trkpt><trkpt lat="43.3944167" lon="13.09658"><ele>275.0</ele><time>2026-04-04T15:49:42.729Z</time></trkpt><trkpt lat="43.3942617" lon="13.0965983"><ele>274.0</ele><time>2026-04-04T15:49:43.727Z</time></trkpt><trkpt lat="43.3940917" lon="13.0965533"><ele>273.0</ele><time>2026-04-04T15:49:44.728Z</time></trkpt><trkpt lat="43.3939" lon="13.0964783"><ele>276.6666666666667</ele><time>2026-04-04T15:49:45.728Z</time></trkpt><trkpt lat="43.3936917" lon="13.0963933"><ele>280.33333333333337</ele><time>2026-04-04T15:49:46.727Z</time></trkpt><trkpt lat="43.3934883" lon="13.0963067"><ele>284.0</ele><time>2026-04-04T15:49:47.729Z</time></trkpt><trkpt lat="43.3932883" lon="13.09622"><ele>284.0</ele><time>2026-04-04T15:49:48.73Z</time></trkpt><trkpt lat="43.3930783" lon="13.096155"><ele>284.0</ele><time>2026-04-04T15:49:49.731Z</time></trkpt><trkpt lat="43.392855" lon="13.0961117"><ele>284.0</ele><time>2026-04-04T15:49:50.727Z</time></trkpt><trkpt lat="43.3926183" lon="13.0961033"><ele>283.0</ele><time>2026-04-04T15:49:51.728Z</time></trkpt><trkpt lat="43.39238" lon="13.09611"><ele>282.0</ele><time>2026-04-04T15:49:52.729Z</time></trkpt><trkpt lat="43.392155" lon="13.0961167"><ele>282.0</ele><time>2026-04-04T15:49:53.727Z</time></trkpt><trkpt lat="43.3919367" lon="13.0961217"><ele>282.0</ele><time>2026-04-04T15:49:54.731Z</time></trkpt><trkpt lat="43.3917333" lon="13.096125"><ele>282.0</ele><time>2026-04-04T15:49:55.728Z</time></trkpt><trkpt lat="43.39154" lon="13.096135"><ele>282.0</ele><time>2026-04-04T15:49:56.73Z</time></trkpt><trkpt lat="43.3913567" lon="13.0961467"><ele>282.0</ele><time>2026-04-04T15:49:57.728Z</time></trkpt><trkpt lat="43.3911867" lon="13.0961583"><ele>282.0</ele><time>2026-04-04T15:49:58.727Z</time></trkpt><trkpt lat="43.3910267" lon="13.0961733"><ele>282.0</ele><time>2026-04-04T15:49:59.729Z</time></trkpt><trkpt lat="43.3908917" lon="13.0961933"><ele>282.0</ele><time>2026-04-04T15:50:00.73Z</time></trkpt><trkpt lat="43.3907783" lon="13.0962167"><ele>282.0</ele><time>2026-04-04T15:50:01.727Z</time></trkpt><trkpt lat="43.39068" lon="13.0962533"><ele>282.0</ele><time>2026-04-04T15:50:02.728Z</time></trkpt><trkpt lat="43.3905983" lon="13.0962967"><ele>282.0</ele><time>2026-04-04T15:50:03.729Z</time></trkpt><trkpt lat="43.390525" lon="13.096335"><ele>282.0</ele><time>2026-04-04T15:50:04.725Z</time></trkpt><trkpt lat="43.3904617" lon="13.0963483"><ele>282.0</ele><time>2026-04-04T15:50:05.726Z</time></trkpt><trkpt lat="43.390415" lon="13.0962033"><ele>282.0</ele><time>2026-04-04T15:50:07.727Z</time></trkpt><trkpt lat="43.39043" lon="13.0960917"><ele>282.0</ele><time>2026-04-04T15:50:08.727Z</time></trkpt><trkpt lat="43.3905133" lon="13.0959883"><ele>282.0</ele><time>2026-04-04T15:50:09.726Z</time></trkpt><trkpt lat="43.39062" lon="13.09589"><ele>282.0</ele><time>2026-04-04T15:50:10.724Z</time></trkpt><trkpt lat="43.3907567" lon="13.095805"><ele>282.0</ele><time>2026-04-04T15:50:11.726Z</time></trkpt><trkpt lat="43.3909783" lon="13.09577"><ele>282.0</ele><time>2026-04-04T15:50:12.728Z</time></trkpt><trkpt lat="43.391195" lon="13.0957"><ele>291.5</ele><time>2026-04-04T15:50:13.728Z</time></trkpt><trkpt lat="43.391415" lon="13.095625"><ele>301.0</ele><time>2026-04-04T15:50:14.731Z</time></trkpt><trkpt lat="43.3916433" lon="13.0955417"><ele>301.0</ele><time>2026-04-04T15:50:15.728Z</time></trkpt><trkpt lat="43.3918767" lon="13.0954583"><ele>301.0</ele><time>2026-04-04T15:50:16.727Z</time></trkpt><trkpt lat="43.392115" lon="13.095375"><ele>301.5</ele><time>2026-04-04T15:50:17.73Z</time></trkpt><trkpt lat="43.3923583" lon="13.0952983"><ele>302.0</ele><time>2026-04-04T15:50:18.733Z</time></trkpt><trkpt lat="43.39261" lon="13.0952417"><ele>302.0</ele><time>2026-04-04T15:50:19.727Z</time></trkpt><trkpt lat="43.3928617" lon="13.095195"><ele>302.0</ele><time>2026-04-04T15:50:20.732Z</time></trkpt><trkpt lat="43.3931017" lon="13.095165"><ele>302.33333333333337</ele><time>2026-04-04T15:50:21.729Z</time></trkpt><trkpt lat="43.3933167" lon="13.0951633"><ele>302.6666666666667</ele><time>2026-04-04T15:50:22.729Z</time></trkpt><trkpt lat="43.3935" lon="13.0951833"><ele>303.0</ele><time>2026-04-04T15:50:23.727Z</time></trkpt><trkpt lat="43.3936567" lon="13.0952"><ele>303.0</ele><time>2026-04-04T15:50:24.728Z</time></trkpt><trkpt lat="43.39379" lon="13.09521"><ele>303.0</ele><time>2026-04-04T15:50:25.728Z</time></trkpt><trkpt lat="43.3938917" lon="13.0951733"><ele>303.0</ele><time>2026-04-04T15:50:26.73Z</time></trkpt><trkpt lat="43.393935" lon="13.0950917"><ele>303.0</ele><time>2026-04-04T15:50:27.729Z</time></trkpt><trkpt lat="43.3939467" lon="13.0949917"><ele>303.0</ele><time>2026-04-04T15:50:28.732Z</time></trkpt><trkpt lat="43.39387" lon="13.0949"><ele>302.6666666666667</ele><time>2026-04-04T15:50:29.73Z</time></trkpt><trkpt lat="43.3936683" lon="13.0948417"><ele>302.33333333333337</ele><time>2026-04-04T15:50:30.728Z</time></trkpt><trkpt lat="43.393485" lon="13.0948117"><ele>302.0</ele><time>2026-04-04T15:50:31.728Z</time></trkpt><trkpt lat="43.393275" lon="13.09478"><ele>302.0</ele><time>2026-04-04T15:50:32.727Z</time></trkpt><trkpt lat="43.393055" lon="13.0947433"><ele>302.0</ele><time>2026-04-04T15:50:33.727Z</time></trkpt><trkpt lat="43.3928283" lon="13.0947017"><ele>305.0</ele><time>2026-04-04T15:50:34.73Z</time></trkpt><trkpt lat="43.392595" lon="13.0946533"><ele>308.0</ele><time>2026-04-04T15:50:35.728Z</time></trkpt><trkpt lat="43.3923633" lon="13.094605"><ele>308.5</ele><time>2026-04-04T15:50:36.728Z</time></trkpt><trkpt lat="43.3921333" lon="13.0945683"><ele>309.0</ele><time>2026-04-04T15:50:37.729Z</time></trkpt><trkpt lat="43.3919" lon="13.0945267"><ele>309.0</ele><time>2026-04-04T15:50:38.73Z</time></trkpt><trkpt lat="43.391665" lon="13.0944833"><ele>309.0</ele><time>2026-04-04T15:50:39.727Z</time></trkpt><trkpt lat="43.391435" lon="13.0944367"><ele>309.5</ele><time>2026-04-04T15:50:40.726Z</time></trkpt><trkpt lat="43.39121" lon="13.0943717"><ele>310.0</ele><time>2026-04-04T15:50:41.729Z</time></trkpt><trkpt lat="43.3909883" lon="13.0942817"><ele>310.0</ele><time>2026-04-04T15:50:42.729Z</time></trkpt><trkpt lat="43.3907783" lon="13.094175"><ele>310.0</ele><time>2026-04-04T15:50:43.728Z</time></trkpt><trkpt lat="43.390575" lon="13.09406"><ele>310.0</ele><time>2026-04-04T15:50:44.729Z</time></trkpt><trkpt lat="43.3903767" lon="13.0939217"><ele>312.0</ele><time>2026-04-04T15:50:45.729Z</time></trkpt><trkpt lat="43.3901817" lon="13.0937467"><ele>314.0</ele><time>2026-04-04T15:50:46.73Z</time></trkpt><trkpt lat="43.389985" lon="13.0935367"><ele>314.0</ele><time>2026-04-04T15:50:47.74Z</time></trkpt><trkpt lat="43.3897867" lon="13.0932917"><ele>314.0</ele><time>2026-04-04T15:50:48.73Z</time></trkpt><trkpt lat="43.389585" lon="13.0930383"><ele>315.0</ele><time>2026-04-04T15:50:49.727Z</time></trkpt><trkpt lat="43.3893783" lon="13.0927817"><ele>316.0</ele><time>2026-04-04T15:50:50.73Z</time></trkpt><trkpt lat="43.389175" lon="13.0925333"><ele>317.0</ele><time>2026-04-04T15:50:51.726Z</time></trkpt><trkpt lat="43.3889783" lon="13.092295"><ele>318.0</ele><time>2026-04-04T15:50:52.728Z</time></trkpt><trkpt lat="43.3887933" lon="13.0920667"><ele>320.0</ele><time>2026-04-04T15:50:53.731Z</time></trkpt><trkpt lat="43.3886083" lon="13.09184"><ele>322.0</ele><time>2026-04-04T15:50:54.73Z</time></trkpt><trkpt lat="43.38842" lon="13.09161"><ele>324.0</ele><time>2026-04-04T15:50:55.739Z</time></trkpt><trkpt lat="43.3882383" lon="13.0913867"><ele>326.0</ele><time>2026-04-04T15:50:56.729Z</time></trkpt><trkpt lat="43.38806" lon="13.09116"><ele>327.5</ele><time>2026-04-04T15:50:57.726Z</time></trkpt><trkpt lat="43.3878867" lon="13.0909267"><ele>329.0</ele><time>2026-04-04T15:50:58.727Z</time></trkpt><trkpt lat="43.3877167" lon="13.0906833"><ele>330.33333333333337</ele><time>2026-04-04T15:50:59.728Z</time></trkpt><trkpt lat="43.3875583" lon="13.09046"><ele>331.6666666666667</ele><time>2026-04-04T15:51:00.727Z</time></trkpt><trkpt lat="43.387405" lon="13.09024"><ele>333.0</ele><time>2026-04-04T15:51:01.729Z</time></trkpt><trkpt lat="43.3872533" lon="13.0900167"><ele>340.0</ele><time>2026-04-04T15:51:02.729Z</time></trkpt><trkpt lat="43.38712" lon="13.08977"><ele>347.0</ele><time>2026-04-04T15:51:03.727Z</time></trkpt><trkpt lat="43.3870117" lon="13.0895183"><ele>354.0</ele><time>2026-04-04T15:51:04.728Z</time></trkpt><trkpt lat="43.3869183" lon="13.08928"><ele>351.75</ele><time>2026-04-04T15:51:05.725Z</time></trkpt><trkpt lat="43.3868417" lon="13.0890733"><ele>349.5</ele><time>2026-04-04T15:51:06.728Z</time></trkpt><trkpt lat="43.3867783" lon="13.0888967"><ele>347.25</ele><time>2026-04-04T15:51:07.726Z</time></trkpt><trkpt lat="43.3867133" lon="13.0887567"><ele>345.0</ele><time>2026-04-04T15:51:08.726Z</time></trkpt><trkpt lat="43.386625" lon="13.0886583"><ele>345.0</ele><time>2026-04-04T15:51:09.729Z</time></trkpt><trkpt lat="43.3865117" lon="13.088585"><ele>345.0</ele><time>2026-04-04T15:51:10.729Z</time></trkpt><trkpt lat="43.3863783" lon="13.0885883"><ele>345.0</ele><time>2026-04-04T15:51:11.731Z</time></trkpt><trkpt lat="43.3862067" lon="13.0886467"><ele>345.0</ele><time>2026-04-04T15:51:12.728Z</time></trkpt><trkpt lat="43.38602" lon="13.08871"><ele>346.6666666666667</ele><time>2026-04-04T15:51:13.727Z</time></trkpt><trkpt lat="43.38584" lon="13.0887583"><ele>348.33333333333337</ele><time>2026-04-04T15:51:14.729Z</time></trkpt><trkpt lat="43.3856667" lon="13.0887783"><ele>350.0</ele><time>2026-04-04T15:51:15.727Z</time></trkpt><trkpt lat="43.38548" lon="13.0887667"><ele>351.0</ele><time>2026-04-04T15:51:16.727Z</time></trkpt><trkpt lat="43.3852817" lon="13.0887183"><ele>352.0</ele><time>2026-04-04T15:51:17.73Z</time></trkpt><trkpt lat="43.3850733" lon="13.0886467"><ele>353.0</ele><time>2026-04-04T15:51:18.728Z</time></trkpt><trkpt lat="43.38487" lon="13.0885767"><ele>353.0</ele><time>2026-04-04T15:51:19.73Z</time></trkpt><trkpt lat="43.3846833" lon="13.0885133"><ele>353.0</ele><time>2026-04-04T15:51:20.729Z</time></trkpt><trkpt lat="43.3845017" lon="13.08845"><ele>353.0</ele><time>2026-04-04T15:51:21.73Z</time></trkpt><trkpt lat="43.3843133" lon="13.08838"><ele>352.6666666666667</ele><time>2026-04-04T15:51:22.731Z</time></trkpt><trkpt lat="43.3841217" lon="13.0883067"><ele>352.3333333333333</ele><time>2026-04-04T15:51:23.731Z</time></trkpt><trkpt lat="43.3839183" lon="13.08824"><ele>352.0</ele><time>2026-04-04T15:51:24.73Z</time></trkpt><trkpt lat="43.3837133" lon="13.0882017"><ele>354.66666666666663</ele><time>2026-04-04T15:51:25.731Z</time></trkpt><trkpt lat="43.383505" lon="13.0881983"><ele>357.3333333333333</ele><time>2026-04-04T15:51:26.737Z</time></trkpt><trkpt lat="43.3833017" lon="13.0882367"><ele>360.0</ele><time>2026-04-04T15:51:27.73Z</time></trkpt><trkpt lat="43.3831083" lon="13.0882783"><ele>363.6666666666667</ele><time>2026-04-04T15:51:28.729Z</time></trkpt><trkpt lat="43.38293" lon="13.0883183"><ele>367.33333333333337</ele><time>2026-04-04T15:51:29.727Z</time></trkpt><trkpt lat="43.3827633" lon="13.08835"><ele>371.0</ele><time>2026-04-04T15:51:30.728Z</time></trkpt><trkpt lat="43.3825967" lon="13.0883717"><ele>371.0</ele><time>2026-04-04T15:51:31.727Z</time></trkpt><trkpt lat="43.38244" lon="13.0883667"><ele>371.0</ele><time>2026-04-04T15:51:32.731Z</time></trkpt><trkpt lat="43.382295" lon="13.088355"><ele>371.0</ele><time>2026-04-04T15:51:33.728Z</time></trkpt><trkpt lat="43.3821517" lon="13.0883383"><ele>371.0</ele><time>2026-04-04T15:51:34.727Z</time></trkpt><trkpt lat="43.382005" lon="13.0883117"><ele>372.6666666666667</ele><time>2026-04-04T15:51:35.729Z</time></trkpt><trkpt lat="43.381855" lon="13.088285"><ele>374.3333333333333</ele><time>2026-04-04T15:51:36.729Z</time></trkpt><trkpt lat="43.3817067" lon="13.088255"><ele>376.0</ele><time>2026-04-04T15:51:37.727Z</time></trkpt><trkpt lat="43.381555" lon="13.0882233"><ele>376.0</ele><time>2026-04-04T15:51:38.727Z</time></trkpt><trkpt lat="43.3813967" lon="13.08819"><ele>376.0</ele><time>2026-04-04T15:51:39.726Z</time></trkpt><trkpt lat="43.3812333" lon="13.08816"><ele>376.0</ele><time>2026-04-04T15:51:40.728Z</time></trkpt><trkpt lat="43.3810717" lon="13.08813"><ele>378.0</ele><time>2026-04-04T15:51:41.728Z</time></trkpt><trkpt lat="43.3809167" lon="13.088095"><ele>380.0</ele><time>2026-04-04T15:51:42.729Z</time></trkpt><trkpt lat="43.3807667" lon="13.0880583"><ele>382.0</ele><time>2026-04-04T15:51:43.728Z</time></trkpt><trkpt lat="43.3806283" lon="13.08802"><ele>383.75</ele><time>2026-04-04T15:51:44.727Z</time></trkpt><trkpt lat="43.3805117" lon="13.0879733"><ele>385.5</ele><time>2026-04-04T15:51:45.73Z</time></trkpt><trkpt lat="43.3804033" lon="13.0879317"><ele>387.25</ele><time>2026-04-04T15:51:46.727Z</time></trkpt><trkpt lat="43.38029" lon="13.08789"><ele>389.0</ele><time>2026-04-04T15:51:47.727Z</time></trkpt><trkpt lat="43.380165" lon="13.08785"><ele>389.0</ele><time>2026-04-04T15:51:48.727Z</time></trkpt><trkpt lat="43.3800317" lon="13.087805"><ele>389.0</ele><time>2026-04-04T15:51:49.726Z</time></trkpt><trkpt lat="43.3799" lon="13.0877717"><ele>389.0</ele><time>2026-04-04T15:51:50.73Z</time></trkpt><trkpt lat="43.3797767" lon="13.0877467"><ele>389.0</ele><time>2026-04-04T15:51:51.728Z</time></trkpt><trkpt lat="43.3796533" lon="13.087735"><ele>389.5</ele><time>2026-04-04T15:51:52.724Z</time></trkpt><trkpt lat="43.3795317" lon="13.0877317"><ele>390.0</ele><time>2026-04-04T15:51:53.729Z</time></trkpt><trkpt lat="43.3794017" lon="13.0877283"><ele>390.5</ele><time>2026-04-04T15:51:54.729Z</time></trkpt><trkpt lat="43.3792667" lon="13.087735"><ele>391.0</ele><time>2026-04-04T15:51:55.729Z</time></trkpt><trkpt lat="43.37913" lon="13.0877483"><ele>391.0</ele><time>2026-04-04T15:51:56.727Z</time></trkpt><trkpt lat="43.3790017" lon="13.0877733"><ele>391.0</ele><time>2026-04-04T15:51:57.728Z</time></trkpt><trkpt lat="43.3788833" lon="13.0878183"><ele>391.0</ele><time>2026-04-04T15:51:58.728Z</time></trkpt><trkpt lat="43.3787717" lon="13.0878867"><ele>391.0</ele><time>2026-04-04T15:51:59.728Z</time></trkpt><trkpt lat="43.37868" lon="13.0879583"><ele>391.4</ele><time>2026-04-04T15:52:00.729Z</time></trkpt><trkpt lat="43.3786033" lon="13.08803"><ele>391.8</ele><time>2026-04-04T15:52:01.729Z</time></trkpt><trkpt lat="43.3785233" lon="13.0880883"><ele>392.2</ele><time>2026-04-04T15:52:02.728Z</time></trkpt><trkpt lat="43.37843" lon="13.0881267"><ele>392.59999999999997</ele><time>2026-04-04T15:52:03.729Z</time></trkpt><trkpt lat="43.3783117" lon="13.0881417"><ele>393.0</ele><time>2026-04-04T15:52:04.729Z</time></trkpt><trkpt lat="43.3781717" lon="13.0881483"><ele>393.0</ele><time>2026-04-04T15:52:05.729Z</time></trkpt><trkpt lat="43.3780267" lon="13.088165"><ele>393.0</ele><time>2026-04-04T15:52:06.73Z</time></trkpt><trkpt lat="43.3778833" lon="13.0881967"><ele>393.0</ele><time>2026-04-04T15:52:07.727Z</time></trkpt><trkpt lat="43.3777467" lon="13.0882483"><ele>393.0</ele><time>2026-04-04T15:52:08.727Z</time></trkpt><trkpt lat="43.3776183" lon="13.0883133"><ele>397.66666666666663</ele><time>2026-04-04T15:52:09.728Z</time></trkpt><trkpt lat="43.3774767" lon="13.0883817"><ele>402.3333333333333</ele><time>2026-04-04T15:52:10.729Z</time></trkpt><trkpt lat="43.37732" lon="13.08844"><ele>407.0</ele><time>2026-04-04T15:52:11.729Z</time></trkpt><trkpt lat="43.3771517" lon="13.08846"><ele>409.66666666666663</ele><time>2026-04-04T15:52:12.729Z</time></trkpt><trkpt lat="43.3769833" lon="13.088475"><ele>412.33333333333337</ele><time>2026-04-04T15:52:13.725Z</time></trkpt><trkpt lat="43.3768233" lon="13.0885"><ele>415.0</ele><time>2026-04-04T15:52:14.73Z</time></trkpt><trkpt lat="43.37668" lon="13.088545"><ele>415.0</ele><time>2026-04-04T15:52:15.726Z</time></trkpt><trkpt lat="43.3765483" lon="13.08859"><ele>415.0</ele><time>2026-04-04T15:52:16.727Z</time></trkpt><trkpt lat="43.376425" lon="13.0886433"><ele>415.0</ele><time>2026-04-04T15:52:17.726Z</time></trkpt><trkpt lat="43.3763133" lon="13.0886883"><ele>415.0</ele><time>2026-04-04T15:52:18.73Z</time></trkpt><trkpt lat="43.3762217" lon="13.0887267"><ele>416.00000000000006</ele><time>2026-04-04T15:52:19.73Z</time></trkpt><trkpt lat="43.3761483" lon="13.0887533"><ele>417.0</ele><time>2026-04-04T15:52:20.733Z</time></trkpt><trkpt lat="43.376085" lon="13.0887717"><ele>418.0</ele><time>2026-04-04T15:52:21.73Z</time></trkpt><trkpt lat="43.3759917" lon="13.088795"><ele>419.0</ele><time>2026-04-04T15:52:23.728Z</time></trkpt><trkpt lat="43.375925" lon="13.0888083"><ele>420.00000000000006</ele><time>2026-04-04T15:52:26.731Z</time></trkpt><trkpt lat="43.3759067" lon="13.0889533"><ele>421.0</ele><time>2026-04-04T15:53:03.73Z</time></trkpt><trkpt lat="43.37591" lon="13.0890467"><ele>421.0</ele><time>2026-04-04T15:53:06.73Z</time></trkpt><trkpt lat="43.3759383" lon="13.0891367"><ele>426.0</ele><time>2026-04-04T15:53:10.729Z</time></trkpt></trkseg><trkseg><trkpt lat="43.375825" lon="13.0891317"><ele>425.99999999999994</ele><time>2026-04-04T16:20:23.728Z</time></trkpt><trkpt lat="43.3758983" lon="13.0891383"><ele>426.0</ele><time>2026-04-04T16:20:35.729Z</time></trkpt><trkpt lat="43.3759033" lon="13.0890467"><ele>426.0</ele><time>2026-04-04T16:20:39.73Z</time></trkpt><trkpt lat="43.37591" lon="13.0889517"><ele>426.0</ele><time>2026-04-04T16:20:42.731Z</time></trkpt><trkpt lat="43.3759083" lon="13.0888567"><ele>426.0</ele><time>2026-04-04T16:20:46.722Z</time></trkpt><trkpt lat="43.3759717" lon="13.0887767"><ele>425.99999999999994</ele><time>2026-04-04T16:21:11.729Z</time></trkpt><trkpt lat="43.3760383" lon="13.0887467"><ele>426.0</ele><time>2026-04-04T16:21:12.732Z</time></trkpt><trkpt lat="43.3761183" lon="13.0887133"><ele>424.75</ele><time>2026-04-04T16:21:13.729Z</time></trkpt><trkpt lat="43.376215" lon="13.08867"><ele>423.5</ele><time>2026-04-04T16:21:14.756Z</time></trkpt><trkpt lat="43.3763267" lon="13.08863"><ele>422.25</ele><time>2026-04-04T16:21:15.729Z</time></trkpt><trkpt lat="43.376445" lon="13.088585"><ele>421.0</ele><time>2026-04-04T16:21:16.728Z</time></trkpt><trkpt lat="43.37657" lon="13.088545"><ele>419.5</ele><time>2026-04-04T16:21:17.729Z</time></trkpt><trkpt lat="43.3766933" lon="13.08851"><ele>418.0</ele><time>2026-04-04T16:21:18.728Z</time></trkpt><trkpt lat="43.3768183" lon="13.0884717"><ele>416.5</ele><time>2026-04-04T16:21:19.729Z</time></trkpt><trkpt lat="43.37695" lon="13.0884483"><ele>415.0</ele><time>2026-04-04T16:21:20.731Z</time></trkpt><trkpt lat="43.377085" lon="13.088445"><ele>413.0</ele><time>2026-04-04T16:21:21.729Z</time></trkpt><trkpt lat="43.3772183" lon="13.0884333"><ele>411.0</ele><time>2026-04-04T16:21:22.731Z</time></trkpt><trkpt lat="43.3773483" lon="13.0884083"><ele>409.0</ele><time>2026-04-04T16:21:23.729Z</time></trkpt><trkpt lat="43.3774717" lon="13.0883667"><ele>407.0</ele><time>2026-04-04T16:21:24.728Z</time></trkpt><trkpt lat="43.377595" lon="13.0883067"><ele>405.0</ele><time>2026-04-04T16:21:25.729Z</time></trkpt><trkpt lat="43.3777267" lon="13.0882367"><ele>403.0</ele><time>2026-04-04T16:21:26.731Z</time></trkpt><trkpt lat="43.3778517" lon="13.08817"><ele>401.0</ele><time>2026-04-04T16:21:27.726Z</time></trkpt><trkpt lat="43.377975" lon="13.0881217"><ele>399.0</ele><time>2026-04-04T16:21:28.726Z</time></trkpt><trkpt lat="43.3780967" lon="13.08809"><ele>397.79999999999995</ele><time>2026-04-04T16:21:29.729Z</time></trkpt><trkpt lat="43.37821" lon="13.0880817"><ele>396.59999999999997</ele><time>2026-04-04T16:21:30.727Z</time></trkpt><trkpt lat="43.3783183" lon="13.0880917"><ele>395.4</ele><time>2026-04-04T16:21:31.729Z</time></trkpt><trkpt lat="43.37842" lon="13.08808"><ele>394.2</ele><time>2026-04-04T16:21:32.728Z</time></trkpt><trkpt lat="43.3785117" lon="13.08803"><ele>393.0</ele><time>2026-04-04T16:21:33.729Z</time></trkpt><trkpt lat="43.3786067" lon="13.08796"><ele>393.0</ele><time>2026-04-04T16:21:34.725Z</time></trkpt><trkpt lat="43.378715" lon="13.08788"><ele>393.0</ele><time>2026-04-04T16:21:35.729Z</time></trkpt><trkpt lat="43.3788333" lon="13.087805"><ele>393.0</ele><time>2026-04-04T16:21:36.728Z</time></trkpt><trkpt lat="43.3789633" lon="13.0877517"><ele>393.0</ele><time>2026-04-04T16:21:37.73Z</time></trkpt><trkpt lat="43.3791" lon="13.0877217"><ele>392.5</ele><time>2026-04-04T16:21:38.728Z</time></trkpt><trkpt lat="43.3792317" lon="13.0877033"><ele>392.0</ele><time>2026-04-04T16:21:39.727Z</time></trkpt><trkpt lat="43.3793617" lon="13.0876983"><ele>391.5</ele><time>2026-04-04T16:21:40.726Z</time></trkpt><trkpt lat="43.3794983" lon="13.0876917"><ele>391.0</ele><time>2026-04-04T16:21:41.725Z</time></trkpt><trkpt lat="43.3796367" lon="13.0876883"><ele>390.5</ele><time>2026-04-04T16:21:42.728Z</time></trkpt><trkpt lat="43.3797783" lon="13.0877017"><ele>390.0</ele><time>2026-04-04T16:21:43.729Z</time></trkpt><trkpt lat="43.37992" lon="13.0877333"><ele>389.5</ele><time>2026-04-04T16:21:44.73Z</time></trkpt><trkpt lat="43.380065" lon="13.0877767"><ele>389.0</ele><time>2026-04-04T16:21:45.726Z</time></trkpt><trkpt lat="43.3802217" lon="13.08783"><ele>389.0</ele><time>2026-04-04T16:21:46.73Z</time></trkpt><trkpt lat="43.38037" lon="13.0878933"><ele>389.0</ele><time>2026-04-04T16:21:47.731Z</time></trkpt><trkpt lat="43.3805133" lon="13.0879517"><ele>389.0</ele><time>2026-04-04T16:21:48.727Z</time></trkpt><trkpt lat="43.3806567" lon="13.0880117"><ele>387.25</ele><time>2026-04-04T16:21:49.73Z</time></trkpt><trkpt lat="43.3807933" lon="13.0880617"><ele>385.5</ele><time>2026-04-04T16:21:50.727Z</time></trkpt><trkpt lat="43.3809433" lon="13.0881083"><ele>383.75</ele><time>2026-04-04T16:21:51.728Z</time></trkpt><trkpt lat="43.3810933" lon="13.088145"><ele>382.0</ele><time>2026-04-04T16:21:52.728Z</time></trkpt><trkpt lat="43.38125" lon="13.088175"><ele>380.3333333333333</ele><time>2026-04-04T16:21:53.727Z</time></trkpt><trkpt lat="43.3814183" lon="13.08821"><ele>378.6666666666667</ele><time>2026-04-04T16:21:54.727Z</time></trkpt><trkpt lat="43.38159" lon="13.088245"><ele>377.0</ele><time>2026-04-04T16:21:55.72Z</time></trkpt><trkpt lat="43.3817667" lon="13.0882767"><ele>377.0</ele><time>2026-04-04T16:21:56.729Z</time></trkpt><trkpt lat="43.3819483" lon="13.0883117"><ele>377.0</ele><time>2026-04-04T16:21:57.73Z</time></trkpt><trkpt lat="43.38213" lon="13.0883383"><ele>377.0</ele><time>2026-04-04T16:21:58.73Z</time></trkpt><trkpt lat="43.382315" lon="13.08836"><ele>375.0</ele><time>2026-04-04T16:21:59.727Z</time></trkpt><trkpt lat="43.38251" lon="13.0883733"><ele>373.0</ele><time>2026-04-04T16:22:00.725Z</time></trkpt><trkpt lat="43.3827033" lon="13.0883733"><ele>371.0</ele><time>2026-04-04T16:22:01.734Z</time></trkpt><trkpt lat="43.3828933" lon="13.0883483"><ele>369.33333333333337</ele><time>2026-04-04T16:22:02.729Z</time></trkpt><trkpt lat="43.3830767" lon="13.088305"><ele>367.6666666666667</ele><time>2026-04-04T16:22:03.724Z</time></trkpt><trkpt lat="43.3832717" lon="13.0882517"><ele>366.0</ele><time>2026-04-04T16:22:04.727Z</time></trkpt><trkpt lat="43.3834567" lon="13.08822"><ele>364.0</ele><time>2026-04-04T16:22:05.733Z</time></trkpt><trkpt lat="43.3836483" lon="13.0882217"><ele>362.0</ele><time>2026-04-04T16:22:06.73Z</time></trkpt><trkpt lat="43.3838533" lon="13.0882483"><ele>360.0</ele><time>2026-04-04T16:22:07.729Z</time></trkpt><trkpt lat="43.3840683" lon="13.08831"><ele>359.5</ele><time>2026-04-04T16:22:08.762Z</time></trkpt><trkpt lat="43.384285" lon="13.0883833"><ele>359.0</ele><time>2026-04-04T16:22:09.731Z</time></trkpt><trkpt lat="43.3845083" lon="13.088465"><ele>357.0</ele><time>2026-04-04T16:22:10.731Z</time></trkpt><trkpt lat="43.384725" lon="13.0885433"><ele>355.0</ele><time>2026-04-04T16:22:11.728Z</time></trkpt><trkpt lat="43.3849383" lon="13.088615"><ele>353.0</ele><time>2026-04-04T16:22:12.729Z</time></trkpt><trkpt lat="43.3851417" lon="13.0886867"><ele>353.0</ele><time>2026-04-04T16:22:13.727Z</time></trkpt><trkpt lat="43.385335" lon="13.0887517"><ele>353.0</ele><time>2026-04-04T16:22:14.732Z</time></trkpt><trkpt lat="43.385525" lon="13.088795"><ele>353.0</ele><time>2026-04-04T16:22:15.731Z</time></trkpt><trkpt lat="43.385715" lon="13.0887983"><ele>352.0</ele><time>2026-04-04T16:22:16.729Z</time></trkpt><trkpt lat="43.385905" lon="13.088765"><ele>351.0</ele><time>2026-04-04T16:22:17.729Z</time></trkpt><trkpt lat="43.3860783" lon="13.0887167"><ele>350.0</ele><time>2026-04-04T16:22:18.728Z</time></trkpt><trkpt lat="43.386235" lon="13.0886733"><ele>348.75</ele><time>2026-04-04T16:22:19.732Z</time></trkpt><trkpt lat="43.3863833" lon="13.088645"><ele>347.5</ele><time>2026-04-04T16:22:20.73Z</time></trkpt><trkpt lat="43.3865167" lon="13.0886417"><ele>346.25</ele><time>2026-04-04T16:22:21.729Z</time></trkpt><trkpt lat="43.3866317" lon="13.08868"><ele>345.0</ele><time>2026-04-04T16:22:22.73Z</time></trkpt><trkpt lat="43.3867267" lon="13.0887967"><ele>345.0</ele><time>2026-04-04T16:22:23.729Z</time></trkpt><trkpt lat="43.3868117" lon="13.0889783"><ele>345.0</ele><time>2026-04-04T16:22:24.729Z</time></trkpt><trkpt lat="43.3868933" lon="13.0892067"><ele>345.0</ele><time>2026-04-04T16:22:25.732Z</time></trkpt><trkpt lat="43.3869767" lon="13.0894567"><ele>348.0</ele><time>2026-04-04T16:22:26.756Z</time></trkpt><trkpt lat="43.3870633" lon="13.0896933"><ele>351.0</ele><time>2026-04-04T16:22:27.729Z</time></trkpt><trkpt lat="43.3871917" lon="13.0899367"><ele>354.0</ele><time>2026-04-04T16:22:28.727Z</time></trkpt><trkpt lat="43.387335" lon="13.0901667"><ele>343.5</ele><time>2026-04-04T16:22:29.732Z</time></trkpt><trkpt lat="43.3874933" lon="13.0903883"><ele>333.0</ele><time>2026-04-04T16:22:30.731Z</time></trkpt><trkpt lat="43.3876533" lon="13.0906133"><ele>331.0</ele><time>2026-04-04T16:22:31.729Z</time></trkpt><trkpt lat="43.38782" lon="13.0908433"><ele>329.0</ele><time>2026-04-04T16:22:32.73Z</time></trkpt><trkpt lat="43.3879867" lon="13.091075"><ele>327.5</ele><time>2026-04-04T16:22:33.729Z</time></trkpt><trkpt lat="43.388145" lon="13.0912967"><ele>326.0</ele><time>2026-04-04T16:22:34.728Z</time></trkpt><trkpt lat="43.388315" lon="13.0915067"><ele>324.6666666666667</ele><time>2026-04-04T16:22:35.73Z</time></trkpt><trkpt lat="43.3884833" lon="13.0917117"><ele>323.3333333333333</ele><time>2026-04-04T16:22:36.731Z</time></trkpt><trkpt lat="43.38865" lon="13.0919117"><ele>322.0</ele><time>2026-04-04T16:22:37.73Z</time></trkpt><trkpt lat="43.3888167" lon="13.0921167"><ele>320.0</ele><time>2026-04-04T16:22:38.732Z</time></trkpt><trkpt lat="43.38899" lon="13.0923283"><ele>318.0</ele><time>2026-04-04T16:22:39.737Z</time></trkpt><trkpt lat="43.389165" lon="13.09255"><ele>317.0</ele><time>2026-04-04T16:22:40.727Z</time></trkpt><trkpt lat="43.3893483" lon="13.09277"><ele>316.0</ele><time>2026-04-04T16:22:41.73Z</time></trkpt><trkpt lat="43.3895217" lon="13.092985"><ele>315.5</ele><time>2026-04-04T16:22:42.733Z</time></trkpt><trkpt lat="43.389695" lon="13.093195"><ele>315.0</ele><time>2026-04-04T16:22:43.731Z</time></trkpt><trkpt lat="43.3898583" lon="13.0934033"><ele>314.6666666666667</ele><time>2026-04-04T16:22:44.731Z</time></trkpt><trkpt lat="43.39002" lon="13.0936033"><ele>314.33333333333337</ele><time>2026-04-04T16:22:45.733Z</time></trkpt><trkpt lat="43.390185" lon="13.0937917"><ele>314.0</ele><time>2026-04-04T16:22:46.732Z</time></trkpt><trkpt lat="43.3903733" lon="13.09396"><ele>312.0</ele><time>2026-04-04T16:22:47.727Z</time></trkpt><trkpt lat="43.3905833" lon="13.0941033"><ele>310.0</ele><time>2026-04-04T16:22:48.731Z</time></trkpt><trkpt lat="43.3908167" lon="13.0942267"><ele>310.0</ele><time>2026-04-04T16:22:49.726Z</time></trkpt><trkpt lat="43.3910567" lon="13.0943383"><ele>310.0</ele><time>2026-04-04T16:22:50.728Z</time></trkpt><trkpt lat="43.3912967" lon="13.0944317"><ele>309.5</ele><time>2026-04-04T16:22:51.73Z</time></trkpt><trkpt lat="43.3915483" lon="13.0944917"><ele>309.0</ele><time>2026-04-04T16:22:52.727Z</time></trkpt><trkpt lat="43.391805" lon="13.094535"><ele>309.0</ele><time>2026-04-04T16:22:53.727Z</time></trkpt><trkpt lat="43.392065" lon="13.094575"><ele>309.0</ele><time>2026-04-04T16:22:54.729Z</time></trkpt><trkpt lat="43.3923283" lon="13.0946117"><ele>308.5</ele><time>2026-04-04T16:22:55.729Z</time></trkpt><trkpt lat="43.3925883" lon="13.0946583"><ele>308.0</ele><time>2026-04-04T16:22:56.732Z</time></trkpt><trkpt lat="43.3928383" lon="13.0947033"><ele>306.0</ele><time>2026-04-04T16:22:57.728Z</time></trkpt><trkpt lat="43.3930683" lon="13.0947483"><ele>304.0</ele><time>2026-04-04T16:22:58.728Z</time></trkpt><trkpt lat="43.39328" lon="13.0947817"><ele>302.0</ele><time>2026-04-04T16:22:59.727Z</time></trkpt><trkpt lat="43.39346" lon="13.09481"><ele>302.0</ele><time>2026-04-04T16:23:00.73Z</time></trkpt><trkpt lat="43.393615" lon="13.0948433"><ele>302.0</ele><time>2026-04-04T16:23:01.728Z</time></trkpt><trkpt lat="43.39373" lon="13.09489"><ele>302.0</ele><time>2026-04-04T16:23:02.732Z</time></trkpt><trkpt lat="43.39381" lon="13.0949567"><ele>302.0</ele><time>2026-04-04T16:23:03.726Z</time></trkpt><trkpt lat="43.39384" lon="13.095045"><ele>302.0</ele><time>2026-04-04T16:23:04.739Z</time></trkpt><trkpt lat="43.393845" lon="13.0951417"><ele>302.33333333333337</ele><time>2026-04-04T16:23:05.729Z</time></trkpt><trkpt lat="43.393725" lon="13.09526"><ele>302.6666666666667</ele><time>2026-04-04T16:23:07.729Z</time></trkpt><trkpt lat="43.39358" lon="13.095255"><ele>303.0</ele><time>2026-04-04T16:23:08.73Z</time></trkpt><trkpt lat="43.3933117" lon="13.0951983"><ele>303.0</ele><time>2026-04-04T16:23:09.728Z</time></trkpt><trkpt lat="43.39309" lon="13.0951833"><ele>303.0</ele><time>2026-04-04T16:23:10.733Z</time></trkpt><trkpt lat="43.3928633" lon="13.0951883"><ele>303.0</ele><time>2026-04-04T16:23:11.728Z</time></trkpt><trkpt lat="43.3926367" lon="13.095215"><ele>302.5</ele><time>2026-04-04T16:23:12.726Z</time></trkpt><trkpt lat="43.39241" lon="13.0952567"><ele>302.0</ele><time>2026-04-04T16:23:13.727Z</time></trkpt><trkpt lat="43.3921933" lon="13.0953167"><ele>301.6666666666667</ele><time>2026-04-04T16:23:14.727Z</time></trkpt><trkpt lat="43.3919817" lon="13.0953883"><ele>301.3333333333333</ele><time>2026-04-04T16:23:15.728Z</time></trkpt><trkpt lat="43.391775" lon="13.0954533"><ele>301.0</ele><time>2026-04-04T16:23:16.726Z</time></trkpt><trkpt lat="43.3915733" lon="13.0955283"><ele>301.0</ele><time>2026-04-04T16:23:17.728Z</time></trkpt><trkpt lat="43.3913783" lon="13.095605"><ele>301.0</ele><time>2026-04-04T16:23:18.728Z</time></trkpt><trkpt lat="43.391195" lon="13.0956667"><ele>301.0</ele><time>2026-04-04T16:23:19.728Z</time></trkpt><trkpt lat="43.3910183" lon="13.0957233"><ele>294.66666666666663</ele><time>2026-04-04T16:23:20.733Z</time></trkpt><trkpt lat="43.3908483" lon="13.0957733"><ele>288.3333333333333</ele><time>2026-04-04T16:23:21.726Z</time></trkpt><trkpt lat="43.390695" lon="13.095825"><ele>282.0</ele><time>2026-04-04T16:23:22.729Z</time></trkpt><trkpt lat="43.3905617" lon="13.0958783"><ele>282.0</ele><time>2026-04-04T16:23:23.728Z</time></trkpt><trkpt lat="43.39046" lon="13.0959533"><ele>282.0</ele><time>2026-04-04T16:23:24.73Z</time></trkpt><trkpt lat="43.3903967" lon="13.096065"><ele>282.0</ele><time>2026-04-04T16:23:25.728Z</time></trkpt><trkpt lat="43.3903633" lon="13.0962083"><ele>282.0</ele><time>2026-04-04T16:23:26.728Z</time></trkpt><trkpt lat="43.3903917" lon="13.0964017"><ele>280.3333333333333</ele><time>2026-04-04T16:23:27.726Z</time></trkpt><trkpt lat="43.39043" lon="13.0966333"><ele>278.66666666666663</ele><time>2026-04-04T16:23:28.729Z</time></trkpt><trkpt lat="43.3904633" lon="13.096885"><ele>277.0</ele><time>2026-04-04T16:23:29.727Z</time></trkpt><trkpt lat="43.3904983" lon="13.097145"><ele>276.3333333333333</ele><time>2026-04-04T16:23:30.726Z</time></trkpt><trkpt lat="43.3905283" lon="13.0973933"><ele>275.6666666666667</ele><time>2026-04-04T16:23:31.73Z</time></trkpt><trkpt lat="43.3905483" lon="13.0976083"><ele>275.0</ele><time>2026-04-04T16:23:32.726Z</time></trkpt><trkpt lat="43.3905583" lon="13.0978033"><ele>275.75</ele><time>2026-04-04T16:23:33.731Z</time></trkpt><trkpt lat="43.390545" lon="13.097985"><ele>276.5</ele><time>2026-04-04T16:23:34.728Z</time></trkpt><trkpt lat="43.3904967" lon="13.0981617"><ele>277.25</ele><time>2026-04-04T16:23:35.729Z</time></trkpt><trkpt lat="43.3904183" lon="13.0983417"><ele>278.0</ele><time>2026-04-04T16:23:36.724Z</time></trkpt><trkpt lat="43.3903117" lon="13.0985333"><ele>278.33333333333337</ele><time>2026-04-04T16:23:37.731Z</time></trkpt><trkpt lat="43.390205" lon="13.0987683"><ele>278.6666666666667</ele><time>2026-04-04T16:23:38.731Z</time></trkpt><trkpt lat="43.39011" lon="13.0990433"><ele>279.0</ele><time>2026-04-04T16:23:39.728Z</time></trkpt><trkpt lat="43.3900233" lon="13.0993383"><ele>279.5</ele><time>2026-04-04T16:23:40.727Z</time></trkpt><trkpt lat="43.3899333" lon="13.0996583"><ele>280.0</ele><time>2026-04-04T16:23:41.727Z</time></trkpt><trkpt lat="43.3898333" lon="13.1"><ele>280.5</ele><time>2026-04-04T16:23:42.734Z</time></trkpt><trkpt lat="43.3897417" lon="13.10033"><ele>281.0</ele><time>2026-04-04T16:23:43.73Z</time></trkpt><trkpt lat="43.389655" lon="13.1006483"><ele>281.0</ele><time>2026-04-04T16:23:44.729Z</time></trkpt><trkpt lat="43.38957" lon="13.1009483"><ele>281.0</ele><time>2026-04-04T16:23:45.728Z</time></trkpt><trkpt lat="43.389475" lon="13.1012533"><ele>281.0</ele><time>2026-04-04T16:23:46.726Z</time></trkpt><trkpt lat="43.3893567" lon="13.1015533"><ele>281.0</ele><time>2026-04-04T16:23:47.729Z</time></trkpt><trkpt lat="43.3892083" lon="13.1018417"><ele>280.5</ele><time>2026-04-04T16:23:48.727Z</time></trkpt><trkpt lat="43.3890433" lon="13.1021233"><ele>280.0</ele><time>2026-04-04T16:23:49.727Z</time></trkpt><trkpt lat="43.3888833" lon="13.1023983"><ele>282.5</ele><time>2026-04-04T16:23:50.729Z</time></trkpt><trkpt lat="43.3887333" lon="13.10266"><ele>285.0</ele><time>2026-04-04T16:23:51.73Z</time></trkpt><trkpt lat="43.3886033" lon="13.102895"><ele>285.0</ele><time>2026-04-04T16:23:52.726Z</time></trkpt><trkpt lat="43.3885" lon="13.1031"><ele>285.0</ele><time>2026-04-04T16:23:53.733Z</time></trkpt><trkpt lat="43.38843" lon="13.1033133"><ele>285.0</ele><time>2026-04-04T16:23:54.733Z</time></trkpt><trkpt lat="43.388395" lon="13.103535"><ele>284.3333333333333</ele><time>2026-04-04T16:23:55.729Z</time></trkpt><trkpt lat="43.3883867" lon="13.10377"><ele>283.66666666666663</ele><time>2026-04-04T16:23:56.73Z</time></trkpt><trkpt lat="43.3884167" lon="13.1040383"><ele>283.0</ele><time>2026-04-04T16:23:57.728Z</time></trkpt><trkpt lat="43.3884717" lon="13.10434"><ele>283.0</ele><time>2026-04-04T16:23:58.728Z</time></trkpt><trkpt lat="43.3885283" lon="13.10465"><ele>283.0</ele><time>2026-04-04T16:23:59.728Z</time></trkpt><trkpt lat="43.3885917" lon="13.1049617"><ele>283.3333333333333</ele><time>2026-04-04T16:24:00.729Z</time></trkpt><trkpt lat="43.38865" lon="13.1052583"><ele>283.6666666666667</ele><time>2026-04-04T16:24:01.729Z</time></trkpt><trkpt lat="43.3887167" lon="13.105545"><ele>284.0</ele><time>2026-04-04T16:24:02.731Z</time></trkpt><trkpt lat="43.3887717" lon="13.105815"><ele>284.6666666666667</ele><time>2026-04-04T16:24:03.728Z</time></trkpt><trkpt lat="43.3888083" lon="13.10607"><ele>285.3333333333333</ele><time>2026-04-04T16:24:04.73Z</time></trkpt><trkpt lat="43.3888283" lon="13.1063117"><ele>286.0</ele><time>2026-04-04T16:24:05.73Z</time></trkpt><trkpt lat="43.38881" lon="13.106555"><ele>287.0</ele><time>2026-04-04T16:24:06.727Z</time></trkpt><trkpt lat="43.3887717" lon="13.10679"><ele>288.0</ele><time>2026-04-04T16:24:07.728Z</time></trkpt><trkpt lat="43.3887083" lon="13.1070417"><ele>289.0</ele><time>2026-04-04T16:24:08.729Z</time></trkpt><trkpt lat="43.3886533" lon="13.1073033"><ele>290.66666666666663</ele><time>2026-04-04T16:24:09.727Z</time></trkpt><trkpt lat="43.3886283" lon="13.107585"><ele>292.3333333333333</ele><time>2026-04-04T16:24:10.739Z</time></trkpt><trkpt lat="43.38862" lon="13.107885"><ele>294.0</ele><time>2026-04-04T16:24:11.729Z</time></trkpt><trkpt lat="43.38862" lon="13.1081883"><ele>296.0</ele><time>2026-04-04T16:24:12.728Z</time></trkpt><trkpt lat="43.3886117" lon="13.1084883"><ele>298.0</ele><time>2026-04-04T16:24:13.729Z</time></trkpt><trkpt lat="43.3886117" lon="13.108775"><ele>300.0</ele><time>2026-04-04T16:24:14.735Z</time></trkpt><trkpt lat="43.3886133" lon="13.109035"><ele>302.3333333333333</ele><time>2026-04-04T16:24:15.731Z</time></trkpt><trkpt lat="43.388615" lon="13.1092933"><ele>304.66666666666663</ele><time>2026-04-04T16:24:16.728Z</time></trkpt><trkpt lat="43.3886033" lon="13.1095633"><ele>307.0</ele><time>2026-04-04T16:24:17.729Z</time></trkpt><trkpt lat="43.388555" lon="13.10983"><ele>310.66666666666663</ele><time>2026-04-04T16:24:18.731Z</time></trkpt><trkpt lat="43.3884683" lon="13.110075"><ele>314.3333333333333</ele><time>2026-04-04T16:24:19.729Z</time></trkpt><trkpt lat="43.38835" lon="13.1102817"><ele>318.0</ele><time>2026-04-04T16:24:20.73Z</time></trkpt><trkpt lat="43.3882233" lon="13.11044"><ele>318.0</ele><time>2026-04-04T16:24:21.728Z</time></trkpt><trkpt lat="43.388115" lon="13.1105717"><ele>318.0</ele><time>2026-04-04T16:24:22.729Z</time></trkpt><trkpt lat="43.3880483" lon="13.110695"><ele>318.0</ele><time>2026-04-04T16:24:23.729Z</time></trkpt><trkpt lat="43.38802" lon="13.110815"><ele>318.0</ele><time>2026-04-04T16:24:24.732Z</time></trkpt><trkpt lat="43.3880317" lon="13.1109233"><ele>318.0</ele><time>2026-04-04T16:24:25.729Z</time></trkpt><trkpt lat="43.3881067" lon="13.110955"><ele>318.0</ele><time>2026-04-04T16:24:26.73Z</time></trkpt><trkpt lat="43.3881983" lon="13.1109267"><ele>318.0</ele><time>2026-04-04T16:24:27.727Z</time></trkpt><trkpt lat="43.388305" lon="13.11087"><ele>318.0</ele><time>2026-04-04T16:24:28.729Z</time></trkpt><trkpt lat="43.3884267" lon="13.110735"><ele>318.0</ele><time>2026-04-04T16:24:29.727Z</time></trkpt><trkpt lat="43.3885967" lon="13.1105617"><ele>318.0</ele><time>2026-04-04T16:24:30.73Z</time></trkpt><trkpt lat="43.3887633" lon="13.1103967"><ele>318.0</ele><time>2026-04-04T16:24:31.73Z</time></trkpt><trkpt lat="43.3889267" lon="13.1102517"><ele>318.0</ele><time>2026-04-04T16:24:32.73Z</time></trkpt><trkpt lat="43.3890833" lon="13.1101217"><ele>322.75</ele><time>2026-04-04T16:24:33.728Z</time></trkpt><trkpt lat="43.3892317" lon="13.1100433"><ele>327.5</ele><time>2026-04-04T16:24:34.727Z</time></trkpt><trkpt lat="43.389375" lon="13.11003"><ele>332.25</ele><time>2026-04-04T16:24:35.732Z</time></trkpt><trkpt lat="43.3895083" lon="13.1100833"><ele>337.0</ele><time>2026-04-04T16:24:36.729Z</time></trkpt><trkpt lat="43.3896217" lon="13.1102117"><ele>336.0</ele><time>2026-04-04T16:24:37.732Z</time></trkpt><trkpt lat="43.3897033" lon="13.1104167"><ele>335.0</ele><time>2026-04-04T16:24:38.729Z</time></trkpt><trkpt lat="43.3897733" lon="13.1106683"><ele>334.0</ele><time>2026-04-04T16:24:39.729Z</time></trkpt><trkpt lat="43.3898367" lon="13.11095"><ele>339.3333333333333</ele><time>2026-04-04T16:24:40.731Z</time></trkpt><trkpt lat="43.389905" lon="13.11124"><ele>344.6666666666667</ele><time>2026-04-04T16:24:41.732Z</time></trkpt><trkpt lat="43.389975" lon="13.1115117"><ele>350.0</ele><time>2026-04-04T16:24:42.731Z</time></trkpt><trkpt lat="43.3900333" lon="13.1117617"><ele>354.0</ele><time>2026-04-04T16:24:43.731Z</time></trkpt><trkpt lat="43.3900633" lon="13.1120217"><ele>358.0</ele><time>2026-04-04T16:24:44.734Z</time></trkpt><trkpt lat="43.390075" lon="13.1123067"><ele>362.0</ele><time>2026-04-04T16:24:45.728Z</time></trkpt><trkpt lat="43.3900717" lon="13.1125967"><ele>362.33333333333337</ele><time>2026-04-04T16:24:46.728Z</time></trkpt><trkpt lat="43.3900533" lon="13.1128983"><ele>362.6666666666667</ele><time>2026-04-04T16:24:47.73Z</time></trkpt><trkpt lat="43.3900317" lon="13.1131933"><ele>363.0</ele><time>2026-04-04T16:24:48.732Z</time></trkpt><trkpt lat="43.3900117" lon="13.1134683"><ele>363.0</ele><time>2026-04-04T16:24:49.729Z</time></trkpt><trkpt lat="43.39" lon="13.1137367"><ele>363.0</ele><time>2026-04-04T16:24:50.733Z</time></trkpt><trkpt lat="43.389995" lon="13.114"><ele>363.0</ele><time>2026-04-04T16:24:51.729Z</time></trkpt><trkpt lat="43.3900083" lon="13.1142633"><ele>363.0</ele><time>2026-04-04T16:24:52.731Z</time></trkpt><trkpt lat="43.3900517" lon="13.1145117"><ele>363.0</ele><time>2026-04-04T16:24:53.731Z</time></trkpt><trkpt lat="43.3901383" lon="13.1147483"><ele>363.0</ele><time>2026-04-04T16:24:54.73Z</time></trkpt><trkpt lat="43.3902617" lon="13.1149883"><ele>363.0</ele><time>2026-04-04T16:24:55.729Z</time></trkpt><trkpt lat="43.3903883" lon="13.1152283"><ele>363.0</ele><time>2026-04-04T16:24:56.732Z</time></trkpt><trkpt lat="43.3905017" lon="13.1154617"><ele>363.0</ele><time>2026-04-04T16:24:57.73Z</time></trkpt><trkpt lat="43.3906133" lon="13.1156867"><ele>364.6666666666667</ele><time>2026-04-04T16:24:58.726Z</time></trkpt><trkpt lat="43.3907333" lon="13.11591"><ele>366.33333333333337</ele><time>2026-04-04T16:24:59.728Z</time></trkpt><trkpt lat="43.3908667" lon="13.116125"><ele>368.0</ele><time>2026-04-04T16:25:00.73Z</time></trkpt><trkpt lat="43.3910117" lon="13.11633"><ele>368.0</ele><time>2026-04-04T16:25:01.728Z</time></trkpt><trkpt lat="43.3911783" lon="13.1165167"><ele>368.0</ele><time>2026-04-04T16:25:02.732Z</time></trkpt><trkpt lat="43.3913517" lon="13.1167033"><ele>368.0</ele><time>2026-04-04T16:25:03.727Z</time></trkpt><trkpt lat="43.3915217" lon="13.1168967"><ele>370.33333333333337</ele><time>2026-04-04T16:25:04.731Z</time></trkpt><trkpt lat="43.3916683" lon="13.1171"><ele>372.6666666666667</ele><time>2026-04-04T16:25:05.731Z</time></trkpt><trkpt lat="43.3918017" lon="13.1173033"><ele>375.0</ele><time>2026-04-04T16:25:06.729Z</time></trkpt><trkpt lat="43.391945" lon="13.117495"><ele>375.3333333333333</ele><time>2026-04-04T16:25:07.731Z</time></trkpt><trkpt lat="43.3921183" lon="13.1176583"><ele>375.66666666666663</ele><time>2026-04-04T16:25:08.736Z</time></trkpt><trkpt lat="43.3923167" lon="13.117805"><ele>376.0</ele><time>2026-04-04T16:25:09.732Z</time></trkpt><trkpt lat="43.3925117" lon="13.1179683"><ele>377.0</ele><time>2026-04-04T16:25:10.726Z</time></trkpt><trkpt lat="43.3927017" lon="13.1181767"><ele>378.0</ele><time>2026-04-04T16:25:11.728Z</time></trkpt><trkpt lat="43.3928683" lon="13.1184133"><ele>381.5</ele><time>2026-04-04T16:25:12.73Z</time></trkpt><trkpt lat="43.39303" lon="13.1186717"><ele>385.0</ele><time>2026-04-04T16:25:13.729Z</time></trkpt><trkpt lat="43.3931883" lon="13.1189383"><ele>388.5</ele><time>2026-04-04T16:25:14.731Z</time></trkpt><trkpt lat="43.393355" lon="13.1192067"><ele>392.0</ele><time>2026-04-04T16:25:15.729Z</time></trkpt><trkpt lat="43.3935183" lon="13.119465"><ele>392.0</ele><time>2026-04-04T16:25:16.733Z</time></trkpt><trkpt lat="43.3936633" lon="13.1197117"><ele>392.0</ele><time>2026-04-04T16:25:17.729Z</time></trkpt><trkpt lat="43.393795" lon="13.1199633"><ele>395.3333333333333</ele><time>2026-04-04T16:25:18.73Z</time></trkpt><trkpt lat="43.393915" lon="13.1202217"><ele>398.66666666666663</ele><time>2026-04-04T16:25:19.73Z</time></trkpt><trkpt lat="43.3940267" lon="13.12049"><ele>402.0</ele><time>2026-04-04T16:25:20.731Z</time></trkpt><trkpt lat="43.3941433" lon="13.1207683"><ele>404.0</ele><time>2026-04-04T16:25:21.726Z</time></trkpt><trkpt lat="43.3942917" lon="13.1210383"><ele>406.0</ele><time>2026-04-04T16:25:22.729Z</time></trkpt><trkpt lat="43.3944433" lon="13.121295"><ele>406.0</ele><time>2026-04-04T16:25:23.724Z</time></trkpt><trkpt lat="43.3945917" lon="13.1215567"><ele>406.0</ele><time>2026-04-04T16:25:24.727Z</time></trkpt><trkpt lat="43.3947317" lon="13.1218233"><ele>407.6666666666667</ele><time>2026-04-04T16:25:25.731Z</time></trkpt><trkpt lat="43.3948217" lon="13.1221183"><ele>409.33333333333337</ele><time>2026-04-04T16:25:26.73Z</time></trkpt><trkpt lat="43.3948967" lon="13.1223933"><ele>411.0</ele><time>2026-04-04T16:25:27.729Z</time></trkpt><trkpt lat="43.3949517" lon="13.1226567"><ele>413.33333333333337</ele><time>2026-04-04T16:25:28.728Z</time></trkpt><trkpt lat="43.3950017" lon="13.1229083"><ele>415.6666666666667</ele><time>2026-04-04T16:25:29.731Z</time></trkpt><trkpt lat="43.3950417" lon="13.123155"><ele>418.0</ele><time>2026-04-04T16:25:30.732Z</time></trkpt><trkpt lat="43.3950767" lon="13.123395"><ele>419.33333333333337</ele><time>2026-04-04T16:25:31.73Z</time></trkpt><trkpt lat="43.3951267" lon="13.12361"><ele>420.66666666666663</ele><time>2026-04-04T16:25:32.726Z</time></trkpt><trkpt lat="43.395215" lon="13.1238033"><ele>422.0</ele><time>2026-04-04T16:25:33.729Z</time></trkpt><trkpt lat="43.395335" lon="13.1239733"><ele>421.66666666666663</ele><time>2026-04-04T16:25:34.726Z</time></trkpt><trkpt lat="43.395495" lon="13.1240833"><ele>421.33333333333337</ele><time>2026-04-04T16:25:35.732Z</time></trkpt><trkpt lat="43.3956983" lon="13.124135"><ele>421.0</ele><time>2026-04-04T16:25:36.728Z</time></trkpt><trkpt lat="43.3958983" lon="13.124175"><ele>421.0</ele><time>2026-04-04T16:25:37.73Z</time></trkpt><trkpt lat="43.3960917" lon="13.12421"><ele>421.0</ele><time>2026-04-04T16:25:38.729Z</time></trkpt><trkpt lat="43.3962717" lon="13.1242417"><ele>421.0</ele><time>2026-04-04T16:25:39.728Z</time></trkpt><trkpt lat="43.3964333" lon="13.124275"><ele>421.4</ele><time>2026-04-04T16:25:40.729Z</time></trkpt><trkpt lat="43.39657" lon="13.1243"><ele>421.8</ele><time>2026-04-04T16:25:41.727Z</time></trkpt><trkpt lat="43.3966817" lon="13.1243317"><ele>422.2</ele><time>2026-04-04T16:25:42.728Z</time></trkpt><trkpt lat="43.3967683" lon="13.1243933"><ele>422.59999999999997</ele><time>2026-04-04T16:25:43.732Z</time></trkpt><trkpt lat="43.396825" lon="13.1244867"><ele>423.0</ele><time>2026-04-04T16:25:44.732Z</time></trkpt><trkpt lat="43.3968633" lon="13.1246017"><ele>423.0</ele><time>2026-04-04T16:25:45.727Z</time></trkpt><trkpt lat="43.3968717" lon="13.1247433"><ele>423.0</ele><time>2026-04-04T16:25:46.729Z</time></trkpt><trkpt lat="43.396825" lon="13.12491"><ele>423.0</ele><time>2026-04-04T16:25:47.73Z</time></trkpt><trkpt lat="43.3967517" lon="13.1250583"><ele>423.0</ele><time>2026-04-04T16:25:48.727Z</time></trkpt><trkpt lat="43.3966467" lon="13.1251833"><ele>423.33333333333337</ele><time>2026-04-04T16:25:49.732Z</time></trkpt><trkpt lat="43.3965183" lon="13.1252583"><ele>423.6666666666667</ele><time>2026-04-04T16:25:50.73Z</time></trkpt><trkpt lat="43.3963633" lon="13.125275"><ele>424.0</ele><time>2026-04-04T16:25:51.734Z</time></trkpt><trkpt lat="43.3961733" lon="13.1252117"><ele>425.6666666666667</ele><time>2026-04-04T16:25:52.725Z</time></trkpt><trkpt lat="43.3959733" lon="13.1251183"><ele>427.33333333333337</ele><time>2026-04-04T16:25:53.728Z</time></trkpt><trkpt lat="43.3957917" lon="13.1250433"><ele>429.0</ele><time>2026-04-04T16:25:54.729Z</time></trkpt><trkpt lat="43.3956167" lon="13.1250133"><ele>430.33333333333337</ele><time>2026-04-04T16:25:55.727Z</time></trkpt><trkpt lat="43.39544" lon="13.1250383"><ele>431.6666666666667</ele><time>2026-04-04T16:25:56.732Z</time></trkpt><trkpt lat="43.3952667" lon="13.1251183"><ele>433.0</ele><time>2026-04-04T16:25:57.727Z</time></trkpt><trkpt lat="43.395095" lon="13.125245"><ele>433.0</ele><time>2026-04-04T16:25:58.729Z</time></trkpt><trkpt lat="43.39492" lon="13.1253933"><ele>433.0</ele><time>2026-04-04T16:25:59.73Z</time></trkpt><trkpt lat="43.394735" lon="13.1255433"><ele>433.0</ele><time>2026-04-04T16:26:00.733Z</time></trkpt><trkpt lat="43.39454" lon="13.12568"><ele>435.6666666666667</ele><time>2026-04-04T16:26:01.729Z</time></trkpt><trkpt lat="43.3943467" lon="13.1258067"><ele>438.33333333333337</ele><time>2026-04-04T16:26:02.73Z</time></trkpt><trkpt lat="43.3941533" lon="13.1259167"><ele>441.0</ele><time>2026-04-04T16:26:03.729Z</time></trkpt><trkpt lat="43.3939633" lon="13.1260117"><ele>440.0</ele><time>2026-04-04T16:26:04.728Z</time></trkpt><trkpt lat="43.393765" lon="13.12611"><ele>439.0</ele><time>2026-04-04T16:26:05.73Z</time></trkpt><trkpt lat="43.3935517" lon="13.126235"><ele>438.0</ele><time>2026-04-04T16:26:06.729Z</time></trkpt><trkpt lat="43.393335" lon="13.12638"><ele>438.0</ele><time>2026-04-04T16:26:07.729Z</time></trkpt><trkpt lat="43.393115" lon="13.1265333"><ele>438.0</ele><time>2026-04-04T16:26:08.73Z</time></trkpt><trkpt lat="43.392885" lon="13.1267017"><ele>443.5</ele><time>2026-04-04T16:26:09.729Z</time></trkpt><trkpt lat="43.3926483" lon="13.1268867"><ele>449.0</ele><time>2026-04-04T16:26:10.729Z</time></trkpt><trkpt lat="43.392405" lon="13.1270683"><ele>446.5</ele><time>2026-04-04T16:26:11.731Z</time></trkpt><trkpt lat="43.3921683" lon="13.1272433"><ele>444.0</ele><time>2026-04-04T16:26:12.73Z</time></trkpt><trkpt lat="43.3919367" lon="13.12742"><ele>449.5</ele><time>2026-04-04T16:26:13.729Z</time></trkpt><trkpt lat="43.3917067" lon="13.1276017"><ele>455.0</ele><time>2026-04-04T16:26:14.731Z</time></trkpt><trkpt lat="43.39147" lon="13.1277783"><ele>452.5</ele><time>2026-04-04T16:26:15.725Z</time></trkpt><trkpt lat="43.3912317" lon="13.1279583"><ele>450.0</ele><time>2026-04-04T16:26:16.728Z</time></trkpt><trkpt lat="43.3909933" lon="13.1281417"><ele>456.5</ele><time>2026-04-04T16:26:17.729Z</time></trkpt><trkpt lat="43.3907567" lon="13.128335"><ele>463.0</ele><time>2026-04-04T16:26:18.728Z</time></trkpt><trkpt lat="43.3905167" lon="13.1285217"><ele>461.5</ele><time>2026-04-04T16:26:19.73Z</time></trkpt><trkpt lat="43.3902867" lon="13.12869"><ele>460.0</ele><time>2026-04-04T16:26:20.738Z</time></trkpt><trkpt lat="43.3900667" lon="13.1288483"><ele>460.0</ele><time>2026-04-04T16:26:21.731Z</time></trkpt><trkpt lat="43.3898617" lon="13.1289983"><ele>460.0</ele><time>2026-04-04T16:26:22.727Z</time></trkpt><trkpt lat="43.389665" lon="13.1291483"><ele>463.6666666666667</ele><time>2026-04-04T16:26:23.725Z</time></trkpt><trkpt lat="43.3894717" lon="13.1292967"><ele>467.33333333333337</ele><time>2026-04-04T16:26:24.729Z</time></trkpt><trkpt lat="43.3892917" lon="13.1294417"><ele>471.0</ele><time>2026-04-04T16:26:25.725Z</time></trkpt><trkpt lat="43.3891267" lon="13.1296"><ele>471.0</ele><time>2026-04-04T16:26:26.729Z</time></trkpt><trkpt lat="43.388985" lon="13.129785"><ele>471.0</ele><time>2026-04-04T16:26:27.729Z</time></trkpt><trkpt lat="43.3888517" lon="13.1300067"><ele>471.0</ele><time>2026-04-04T16:26:28.726Z</time></trkpt><trkpt lat="43.388725" lon="13.1302283"><ele>472.0</ele><time>2026-04-04T16:26:29.728Z</time></trkpt><trkpt lat="43.388605" lon="13.1304383"><ele>473.0</ele><time>2026-04-04T16:26:30.731Z</time></trkpt><trkpt lat="43.3885" lon="13.1306417"><ele>474.0</ele><time>2026-04-04T16:26:31.727Z</time></trkpt><trkpt lat="43.388425" lon="13.1308667"><ele>475.33333333333337</ele><time>2026-04-04T16:26:32.729Z</time></trkpt><trkpt lat="43.3883833" lon="13.1311117"><ele>476.6666666666667</ele><time>2026-04-04T16:26:33.726Z</time></trkpt><trkpt lat="43.3883633" lon="13.13139"><ele>478.0</ele><time>2026-04-04T16:26:34.726Z</time></trkpt><trkpt lat="43.3883467" lon="13.1316933"><ele>479.6666666666667</ele><time>2026-04-04T16:26:35.736Z</time></trkpt><trkpt lat="43.3883317" lon="13.1319917"><ele>481.33333333333337</ele><time>2026-04-04T16:26:36.734Z</time></trkpt><trkpt lat="43.3883" lon="13.1322733"><ele>483.0</ele><time>2026-04-04T16:26:37.73Z</time></trkpt><trkpt lat="43.3882533" lon="13.13253"><ele>483.66666666666663</ele><time>2026-04-04T16:26:38.73Z</time></trkpt><trkpt lat="43.3882117" lon="13.1327633"><ele>484.3333333333333</ele><time>2026-04-04T16:26:39.732Z</time></trkpt><trkpt lat="43.3881917" lon="13.1329867"><ele>485.0</ele><time>2026-04-04T16:26:40.729Z</time></trkpt><trkpt lat="43.3882133" lon="13.13318"><ele>485.25</ele><time>2026-04-04T16:26:41.73Z</time></trkpt><trkpt lat="43.3882783" lon="13.1333483"><ele>485.5</ele><time>2026-04-04T16:26:42.727Z</time></trkpt><trkpt lat="43.38836" lon="13.133485"><ele>485.75</ele><time>2026-04-04T16:26:43.727Z</time></trkpt><trkpt lat="43.38848" lon="13.1335583"><ele>486.0</ele><time>2026-04-04T16:26:44.73Z</time></trkpt><trkpt lat="43.3886317" lon="13.133585"><ele>486.0</ele><time>2026-04-04T16:26:45.727Z</time></trkpt><trkpt lat="43.3887883" lon="13.13358"><ele>486.0</ele><time>2026-04-04T16:26:46.727Z</time></trkpt><trkpt lat="43.38895" lon="13.1335467"><ele>486.0</ele><time>2026-04-04T16:26:47.727Z</time></trkpt><trkpt lat="43.3890983" lon="13.1334833"><ele>487.75</ele><time>2026-04-04T16:26:48.731Z</time></trkpt><trkpt lat="43.38923" lon="13.1333967"><ele>489.5</ele><time>2026-04-04T16:26:49.729Z</time></trkpt><trkpt lat="43.38936" lon="13.1333033"><ele>491.25</ele><time>2026-04-04T16:26:50.729Z</time></trkpt><trkpt lat="43.389495" lon="13.13321"><ele>493.0</ele><time>2026-04-04T16:26:51.729Z</time></trkpt><trkpt lat="43.3896333" lon="13.1331233"><ele>495.5</ele><time>2026-04-04T16:26:52.728Z</time></trkpt><trkpt lat="43.3897583" lon="13.133045"><ele>498.0</ele><time>2026-04-04T16:26:53.727Z</time></trkpt><trkpt lat="43.3898733" lon="13.1329533"><ele>500.5</ele><time>2026-04-04T16:26:54.725Z</time></trkpt><trkpt lat="43.389985" lon="13.13284"><ele>503.0</ele><time>2026-04-04T16:26:55.729Z</time></trkpt><trkpt lat="43.3900967" lon="13.1327133"><ele>503.0</ele><time>2026-04-04T16:26:56.735Z</time></trkpt><trkpt lat="43.3901967" lon="13.1325717"><ele>503.0</ele><time>2026-04-04T16:26:57.728Z</time></trkpt><trkpt lat="43.390285" lon="13.1324333"><ele>503.0</ele><time>2026-04-04T16:26:58.727Z</time></trkpt><trkpt lat="43.3903617" lon="13.1323167"><ele>503.0</ele><time>2026-04-04T16:26:59.728Z</time></trkpt><trkpt lat="43.390425" lon="13.1322217"><ele>503.16666666666663</ele><time>2026-04-04T16:27:00.73Z</time></trkpt><trkpt lat="43.3904867" lon="13.132135"><ele>503.3333333333333</ele><time>2026-04-04T16:27:01.727Z</time></trkpt><trkpt lat="43.3905417" lon="13.1320583"><ele>503.5</ele><time>2026-04-04T16:27:02.729Z</time></trkpt><trkpt lat="43.3906067" lon="13.13199"><ele>503.66666666666663</ele><time>2026-04-04T16:27:03.728Z</time></trkpt><trkpt lat="43.3906783" lon="13.13194"><ele>503.8333333333333</ele><time>2026-04-04T16:27:04.731Z</time></trkpt><trkpt lat="43.3907633" lon="13.1319217"><ele>504.0</ele><time>2026-04-04T16:27:05.729Z</time></trkpt><trkpt lat="43.3908617" lon="13.1319333"><ele>504.0</ele><time>2026-04-04T16:27:06.731Z</time></trkpt><trkpt lat="43.3909617" lon="13.1319667"><ele>504.0</ele><time>2026-04-04T16:27:07.728Z</time></trkpt><trkpt lat="43.39105" lon="13.1320083"><ele>504.0</ele><time>2026-04-04T16:27:08.729Z</time></trkpt><trkpt lat="43.3911333" lon="13.1320567"><ele>504.0</ele><time>2026-04-04T16:27:09.728Z</time></trkpt><trkpt lat="43.3912183" lon="13.1321217"><ele>504.0</ele><time>2026-04-04T16:27:10.726Z</time></trkpt><trkpt lat="43.3912983" lon="13.132185"><ele>504.6</ele><time>2026-04-04T16:27:11.728Z</time></trkpt><trkpt lat="43.3913783" lon="13.1322483"><ele>505.2</ele><time>2026-04-04T16:27:12.73Z</time></trkpt><trkpt lat="43.3914583" lon="13.13231"><ele>505.80000000000007</ele><time>2026-04-04T16:27:13.731Z</time></trkpt><trkpt lat="43.391535" lon="13.1323733"><ele>506.40000000000003</ele><time>2026-04-04T16:27:14.731Z</time></trkpt><trkpt lat="43.3916117" lon="13.1324333"><ele>507.0</ele><time>2026-04-04T16:27:15.729Z</time></trkpt><trkpt lat="43.3916933" lon="13.132495"><ele>507.0</ele><time>2026-04-04T16:27:16.728Z</time></trkpt><trkpt lat="43.39178" lon="13.1325617"><ele>507.00000000000006</ele><time>2026-04-04T16:27:17.726Z</time></trkpt><trkpt lat="43.39186" lon="13.13262"><ele>507.00000000000006</ele><time>2026-04-04T16:27:18.73Z</time></trkpt><trkpt lat="43.39194" lon="13.1326783"><ele>507.0</ele><time>2026-04-04T16:27:19.729Z</time></trkpt><trkpt lat="43.3920183" lon="13.1327417"><ele>507.0</ele><time>2026-04-04T16:27:20.731Z</time></trkpt><trkpt lat="43.392095" lon="13.132805"><ele>507.40000000000003</ele><time>2026-04-04T16:27:21.726Z</time></trkpt><trkpt lat="43.392185" lon="13.132855"><ele>507.80000000000007</ele><time>2026-04-04T16:27:22.727Z</time></trkpt><trkpt lat="43.3922667" lon="13.1329117"><ele>508.2</ele><time>2026-04-04T16:27:23.73Z</time></trkpt><trkpt lat="43.3923583" lon="13.1329633"><ele>508.6</ele><time>2026-04-04T16:27:24.729Z</time></trkpt><trkpt lat="43.3924617" lon="13.1330233"><ele>509.0</ele><time>2026-04-04T16:27:25.731Z</time></trkpt><trkpt lat="43.3925567" lon="13.13308"><ele>509.0</ele><time>2026-04-04T16:27:26.73Z</time></trkpt><trkpt lat="43.392645" lon="13.1331383"><ele>509.0</ele><time>2026-04-04T16:27:27.727Z</time></trkpt><trkpt lat="43.3927333" lon="13.133205"><ele>509.0</ele><time>2026-04-04T16:27:28.726Z</time></trkpt><trkpt lat="43.392815" lon="13.13328"><ele>509.0</ele><time>2026-04-04T16:27:29.726Z</time></trkpt><trkpt lat="43.3928983" lon="13.1333583"><ele>509.0</ele><time>2026-04-04T16:27:30.728Z</time></trkpt><trkpt lat="43.3929867" lon="13.1334417"><ele>505.79999999999995</ele><time>2026-04-04T16:27:31.727Z</time></trkpt><trkpt lat="43.3930683" lon="13.1335333"><ele>502.59999999999997</ele><time>2026-04-04T16:27:32.729Z</time></trkpt><trkpt lat="43.39315" lon="13.1336233"><ele>499.4</ele><time>2026-04-04T16:27:33.729Z</time></trkpt><trkpt lat="43.39324" lon="13.133715"><ele>496.2</ele><time>2026-04-04T16:27:34.732Z</time></trkpt><trkpt lat="43.3933283" lon="13.133815"><ele>493.0</ele><time>2026-04-04T16:27:35.729Z</time></trkpt><trkpt lat="43.3934067" lon="13.1339183"><ele>493.0</ele><time>2026-04-04T16:27:36.729Z</time></trkpt><trkpt lat="43.3934683" lon="13.1340433"><ele>493.0</ele><time>2026-04-04T16:27:37.729Z</time></trkpt><trkpt lat="43.3935267" lon="13.1341817"><ele>493.0</ele><time>2026-04-04T16:27:38.728Z</time></trkpt><trkpt lat="43.39357" lon="13.1343267"><ele>493.0</ele><time>2026-04-04T16:27:39.728Z</time></trkpt><trkpt lat="43.3936117" lon="13.1344733"><ele>491.79999999999995</ele><time>2026-04-04T16:27:40.729Z</time></trkpt><trkpt lat="43.3936583" lon="13.1346233"><ele>490.59999999999997</ele><time>2026-04-04T16:27:41.729Z</time></trkpt><trkpt lat="43.3936983" lon="13.13477"><ele>489.40000000000003</ele><time>2026-04-04T16:27:42.738Z</time></trkpt><trkpt lat="43.3937333" lon="13.13491"><ele>488.20000000000005</ele><time>2026-04-04T16:27:43.725Z</time></trkpt><trkpt lat="43.3937667" lon="13.1350433"><ele>487.0</ele><time>2026-04-04T16:27:44.726Z</time></trkpt><trkpt lat="43.3938017" lon="13.1351783"><ele>487.40000000000003</ele><time>2026-04-04T16:27:45.727Z</time></trkpt><trkpt lat="43.3938333" lon="13.1353133"><ele>487.80000000000007</ele><time>2026-04-04T16:27:46.726Z</time></trkpt><trkpt lat="43.3938483" lon="13.13545"><ele>488.2</ele><time>2026-04-04T16:27:47.727Z</time></trkpt><trkpt lat="43.393845" lon="13.1355933"><ele>488.6</ele><time>2026-04-04T16:27:48.733Z</time></trkpt><trkpt lat="43.3938283" lon="13.1357317"><ele>489.0</ele><time>2026-04-04T16:27:49.726Z</time></trkpt><trkpt lat="43.393805" lon="13.1358617"><ele>487.2</ele><time>2026-04-04T16:27:50.728Z</time></trkpt><trkpt lat="43.3937717" lon="13.1359917"><ele>485.4</ele><time>2026-04-04T16:27:51.733Z</time></trkpt><trkpt lat="43.3937367" lon="13.13612"><ele>483.6</ele><time>2026-04-04T16:27:52.729Z</time></trkpt><trkpt lat="43.3937" lon="13.1362433"><ele>481.8</ele><time>2026-04-04T16:27:53.729Z</time></trkpt><trkpt lat="43.39366" lon="13.1363683"><ele>480.0</ele><time>2026-04-04T16:27:54.728Z</time></trkpt><trkpt lat="43.39362" lon="13.136485"><ele>481.0</ele><time>2026-04-04T16:27:55.73Z</time></trkpt><trkpt lat="43.393575" lon="13.1366017"><ele>482.0</ele><time>2026-04-04T16:27:56.73Z</time></trkpt><trkpt lat="43.3935217" lon="13.13671"><ele>483.0</ele><time>2026-04-04T16:27:57.729Z</time></trkpt><trkpt lat="43.39346" lon="13.1368133"><ele>484.0</ele><time>2026-04-04T16:27:58.728Z</time></trkpt><trkpt lat="43.3933933" lon="13.136915"><ele>485.0</ele><time>2026-04-04T16:27:59.728Z</time></trkpt><trkpt lat="43.3933217" lon="13.137015"><ele>485.0</ele><time>2026-04-04T16:28:00.726Z</time></trkpt><trkpt lat="43.3932417" lon="13.1371167"><ele>485.0</ele><time>2026-04-04T16:28:01.729Z</time></trkpt><trkpt lat="43.3931583" lon="13.1372183"><ele>485.0</ele><time>2026-04-04T16:28:02.73Z</time></trkpt><trkpt lat="43.39307" lon="13.1373183"><ele>485.0</ele><time>2026-04-04T16:28:03.726Z</time></trkpt><trkpt lat="43.3929817" lon="13.13742"><ele>482.75</ele><time>2026-04-04T16:28:04.727Z</time></trkpt><trkpt lat="43.3928917" lon="13.1375183"><ele>480.5</ele><time>2026-04-04T16:28:05.73Z</time></trkpt><trkpt lat="43.3928017" lon="13.1376183"><ele>478.25</ele><time>2026-04-04T16:28:06.728Z</time></trkpt><trkpt lat="43.3927117" lon="13.1377183"><ele>476.0</ele><time>2026-04-04T16:28:07.732Z</time></trkpt><trkpt lat="43.39262" lon="13.1378167"><ele>476.0</ele><time>2026-04-04T16:28:08.73Z</time></trkpt><trkpt lat="43.3925317" lon="13.1379183"><ele>476.0</ele><time>2026-04-04T16:28:09.728Z</time></trkpt><trkpt lat="43.3924417" lon="13.1380183"><ele>476.0</ele><time>2026-04-04T16:28:10.728Z</time></trkpt><trkpt lat="43.39235" lon="13.1381217"><ele>476.0</ele><time>2026-04-04T16:28:11.729Z</time></trkpt><trkpt lat="43.392255" lon="13.1382317"><ele>473.0</ele><time>2026-04-04T16:28:12.728Z</time></trkpt><trkpt lat="43.3921583" lon="13.1383433"><ele>470.0</ele><time>2026-04-04T16:28:13.728Z</time></trkpt><trkpt lat="43.3920583" lon="13.1384533"><ele>467.0</ele><time>2026-04-04T16:28:14.727Z</time></trkpt><trkpt lat="43.39196" lon="13.1385617"><ele>464.0</ele><time>2026-04-04T16:28:15.726Z</time></trkpt><trkpt lat="43.3918633" lon="13.138665"><ele>464.0</ele><time>2026-04-04T16:28:16.726Z</time></trkpt><trkpt lat="43.39177" lon="13.138765"><ele>464.0</ele><time>2026-04-04T16:28:17.727Z</time></trkpt><trkpt lat="43.391675" lon="13.1388683"><ele>464.0</ele><time>2026-04-04T16:28:18.724Z</time></trkpt><trkpt lat="43.39158" lon="13.1389717"><ele>464.0</ele><time>2026-04-04T16:28:19.722Z</time></trkpt><trkpt lat="43.3914817" lon="13.1390717"><ele>462.0</ele><time>2026-04-04T16:28:20.729Z</time></trkpt><trkpt lat="43.391385" lon="13.139175"><ele>460.0</ele><time>2026-04-04T16:28:21.732Z</time></trkpt><trkpt lat="43.3912883" lon="13.1392767"><ele>458.0</ele><time>2026-04-04T16:28:22.73Z</time></trkpt><trkpt lat="43.3911933" lon="13.13938"><ele>456.0</ele><time>2026-04-04T16:28:23.73Z</time></trkpt><trkpt lat="43.3910983" lon="13.1394883"><ele>456.0</ele><time>2026-04-04T16:28:24.726Z</time></trkpt><trkpt lat="43.3909983" lon="13.1396"><ele>456.0</ele><time>2026-04-04T16:28:25.731Z</time></trkpt><trkpt lat="43.3908917" lon="13.13971"><ele>456.0</ele><time>2026-04-04T16:28:26.734Z</time></trkpt><trkpt lat="43.39079" lon="13.1398267"><ele>456.0</ele><time>2026-04-04T16:28:27.729Z</time></trkpt><trkpt lat="43.3906917" lon="13.13994"><ele>456.0</ele><time>2026-04-04T16:28:28.728Z</time></trkpt><trkpt lat="43.390595" lon="13.140045"><ele>456.0</ele><time>2026-04-04T16:28:29.733Z</time></trkpt><trkpt lat="43.3905017" lon="13.140145"><ele>456.0</ele><time>2026-04-04T16:28:30.73Z</time></trkpt><trkpt lat="43.3904117" lon="13.1402467"><ele>456.0</ele><time>2026-04-04T16:28:31.728Z</time></trkpt><trkpt lat="43.390315" lon="13.1403483"><ele>456.0</ele><time>2026-04-04T16:28:32.731Z</time></trkpt><trkpt lat="43.39022" lon="13.1404517"><ele>456.0</ele><time>2026-04-04T16:28:33.73Z</time></trkpt><trkpt lat="43.3901233" lon="13.1405533"><ele>456.0</ele><time>2026-04-04T16:28:34.734Z</time></trkpt><trkpt lat="43.3900233" lon="13.140655"><ele>456.0</ele><time>2026-04-04T16:28:35.73Z</time></trkpt><trkpt lat="43.3899233" lon="13.14076"><ele>455.25</ele><time>2026-04-04T16:28:36.732Z</time></trkpt><trkpt lat="43.3898217" lon="13.140865"><ele>454.5</ele><time>2026-04-04T16:28:37.729Z</time></trkpt><trkpt lat="43.3897217" lon="13.140975"><ele>453.75</ele><time>2026-04-04T16:28:38.73Z</time></trkpt><trkpt lat="43.3896233" lon="13.141085"><ele>453.0</ele><time>2026-04-04T16:28:39.728Z</time></trkpt><trkpt lat="43.3895283" lon="13.141195"><ele>453.0</ele><time>2026-04-04T16:28:40.73Z</time></trkpt><trkpt lat="43.389435" lon="13.1412933"><ele>453.0</ele><time>2026-04-04T16:28:41.726Z</time></trkpt><trkpt lat="43.389345" lon="13.1413867"><ele>453.0</ele><time>2026-04-04T16:28:42.73Z</time></trkpt><trkpt lat="43.3892567" lon="13.1414833"><ele>453.0</ele><time>2026-04-04T16:28:43.727Z</time></trkpt><trkpt lat="43.3891733" lon="13.141585"><ele>455.79999999999995</ele><time>2026-04-04T16:28:44.732Z</time></trkpt><trkpt lat="43.3891167" lon="13.1417"><ele>458.59999999999997</ele><time>2026-04-04T16:28:45.729Z</time></trkpt><trkpt lat="43.3890917" lon="13.1418333"><ele>461.40000000000003</ele><time>2026-04-04T16:28:46.729Z</time></trkpt><trkpt lat="43.389095" lon="13.1419733"><ele>464.20000000000005</ele><time>2026-04-04T16:28:47.732Z</time></trkpt><trkpt lat="43.3891267" lon="13.14211"><ele>467.0</ele><time>2026-04-04T16:28:48.74Z</time></trkpt><trkpt lat="43.389175" lon="13.1422467"><ele>467.0</ele><time>2026-04-04T16:28:49.731Z</time></trkpt><trkpt lat="43.3892233" lon="13.142375"><ele>467.00000000000006</ele><time>2026-04-04T16:28:50.73Z</time></trkpt><trkpt lat="43.3892733" lon="13.1425017"><ele>467.00000000000006</ele><time>2026-04-04T16:28:51.729Z</time></trkpt><trkpt lat="43.3893233" lon="13.142625"><ele>467.0</ele><time>2026-04-04T16:28:52.731Z</time></trkpt><trkpt lat="43.389365" lon="13.1427483"><ele>467.0</ele><time>2026-04-04T16:28:53.727Z</time></trkpt><trkpt lat="43.3894017" lon="13.1428783"><ele>467.20000000000005</ele><time>2026-04-04T16:28:54.726Z</time></trkpt><trkpt lat="43.3894233" lon="13.14301"><ele>467.40000000000003</ele><time>2026-04-04T16:28:55.73Z</time></trkpt><trkpt lat="43.3894233" lon="13.1431433"><ele>467.59999999999997</ele><time>2026-04-04T16:28:56.728Z</time></trkpt><trkpt lat="43.3893933" lon="13.1432717"><ele>467.79999999999995</ele><time>2026-04-04T16:28:57.729Z</time></trkpt><trkpt lat="43.38933" lon="13.1433717"><ele>468.0</ele><time>2026-04-04T16:28:58.736Z</time></trkpt><trkpt lat="43.3892467" lon="13.1434467"><ele>467.25</ele><time>2026-04-04T16:28:59.729Z</time></trkpt><trkpt lat="43.3891517" lon="13.1435117"><ele>466.5</ele><time>2026-04-04T16:29:00.732Z</time></trkpt><trkpt lat="43.38905" lon="13.1435783"><ele>465.75</ele><time>2026-04-04T16:29:01.728Z</time></trkpt><trkpt lat="43.388945" lon="13.1436467"><ele>465.0</ele><time>2026-04-04T16:29:02.733Z</time></trkpt><trkpt lat="43.38884" lon="13.1437183"><ele>463.5</ele><time>2026-04-04T16:29:03.731Z</time></trkpt><trkpt lat="43.3887383" lon="13.143795"><ele>462.0</ele><time>2026-04-04T16:29:04.731Z</time></trkpt><trkpt lat="43.3886467" lon="13.1438817"><ele>460.5</ele><time>2026-04-04T16:29:05.732Z</time></trkpt><trkpt lat="43.3885567" lon="13.1439767"><ele>459.0</ele><time>2026-04-04T16:29:06.729Z</time></trkpt><trkpt lat="43.388465" lon="13.1440783"><ele>459.0</ele><time>2026-04-04T16:29:07.73Z</time></trkpt><trkpt lat="43.3883717" lon="13.144175"><ele>459.0</ele><time>2026-04-04T16:29:08.729Z</time></trkpt><trkpt lat="43.3882717" lon="13.1442683"><ele>459.0</ele><time>2026-04-04T16:29:09.731Z</time></trkpt><trkpt lat="43.3881667" lon="13.1443617"><ele>459.0</ele><time>2026-04-04T16:29:10.726Z</time></trkpt><trkpt lat="43.3880583" lon="13.1444567"><ele>455.5</ele><time>2026-04-04T16:29:11.728Z</time></trkpt><trkpt lat="43.387945" lon="13.1445483"><ele>452.0</ele><time>2026-04-04T16:29:12.729Z</time></trkpt><trkpt lat="43.3878233" lon="13.14463"><ele>448.5</ele><time>2026-04-04T16:29:13.729Z</time></trkpt><trkpt lat="43.387705" lon="13.1447067"><ele>445.0</ele><time>2026-04-04T16:29:14.732Z</time></trkpt><trkpt lat="43.38759" lon="13.1447783"><ele>445.0</ele><time>2026-04-04T16:29:15.73Z</time></trkpt><trkpt lat="43.387475" lon="13.1448467"><ele>445.0</ele><time>2026-04-04T16:29:16.729Z</time></trkpt><trkpt lat="43.38736" lon="13.1449167"><ele>445.0</ele><time>2026-04-04T16:29:17.731Z</time></trkpt><trkpt lat="43.3872467" lon="13.1449817"><ele>445.0</ele><time>2026-04-04T16:29:18.73Z</time></trkpt><trkpt lat="43.3871283" lon="13.14503"><ele>444.5</ele><time>2026-04-04T16:29:19.732Z</time></trkpt><trkpt lat="43.3870133" lon="13.145045"><ele>444.0</ele><time>2026-04-04T16:29:20.731Z</time></trkpt><trkpt lat="43.3869083" lon="13.145035"><ele>443.5</ele><time>2026-04-04T16:29:21.728Z</time></trkpt><trkpt lat="43.3867917" lon="13.14501"><ele>443.0</ele><time>2026-04-04T16:29:22.728Z</time></trkpt><trkpt lat="43.3866733" lon="13.1449817"><ele>443.0</ele><time>2026-04-04T16:29:23.731Z</time></trkpt><trkpt lat="43.3865517" lon="13.1449483"><ele>443.0</ele><time>2026-04-04T16:29:24.732Z</time></trkpt><trkpt lat="43.38643" lon="13.14492"><ele>443.0</ele><time>2026-04-04T16:29:25.73Z</time></trkpt><trkpt lat="43.3863033" lon="13.1448867"><ele>443.0</ele><time>2026-04-04T16:29:26.731Z</time></trkpt><trkpt lat="43.3861733" lon="13.1448533"><ele>439.25</ele><time>2026-04-04T16:29:27.726Z</time></trkpt><trkpt lat="43.38604" lon="13.14483"><ele>435.5</ele><time>2026-04-04T16:29:28.726Z</time></trkpt><trkpt lat="43.3859017" lon="13.1448167"><ele>431.75</ele><time>2026-04-04T16:29:29.731Z</time></trkpt><trkpt lat="43.385765" lon="13.1448117"><ele>428.0</ele><time>2026-04-04T16:29:30.727Z</time></trkpt><trkpt lat="43.3856317" lon="13.1448133"><ele>427.5</ele><time>2026-04-04T16:29:31.73Z</time></trkpt><trkpt lat="43.3855017" lon="13.1448233"><ele>427.0</ele><time>2026-04-04T16:29:32.729Z</time></trkpt><trkpt lat="43.3853717" lon="13.1448467"><ele>426.5</ele><time>2026-04-04T16:29:33.728Z</time></trkpt><trkpt lat="43.385245" lon="13.14489"><ele>426.0</ele><time>2026-04-04T16:29:34.729Z</time></trkpt><trkpt lat="43.385125" lon="13.1449567"><ele>426.0</ele><time>2026-04-04T16:29:35.726Z</time></trkpt><trkpt lat="43.3850167" lon="13.14505"><ele>426.0</ele><time>2026-04-04T16:29:36.727Z</time></trkpt><trkpt lat="43.3849133" lon="13.1451533"><ele>426.0</ele><time>2026-04-04T16:29:37.728Z</time></trkpt><trkpt lat="43.384805" lon="13.1452433"><ele>426.0</ele><time>2026-04-04T16:29:38.731Z</time></trkpt><trkpt lat="43.3846817" lon="13.14531"><ele>422.0</ele><time>2026-04-04T16:29:39.725Z</time></trkpt><trkpt lat="43.3845483" lon="13.1453417"><ele>418.0</ele><time>2026-04-04T16:29:40.726Z</time></trkpt><trkpt lat="43.384415" lon="13.1453533"><ele>414.0</ele><time>2026-04-04T16:29:41.729Z</time></trkpt><trkpt lat="43.3842833" lon="13.14537"><ele>410.0</ele><time>2026-04-04T16:29:42.729Z</time></trkpt><trkpt lat="43.3841517" lon="13.1453967"><ele>410.0</ele><time>2026-04-04T16:29:43.728Z</time></trkpt><trkpt lat="43.3840233" lon="13.1454283"><ele>410.0</ele><time>2026-04-04T16:29:44.732Z</time></trkpt><trkpt lat="43.383895" lon="13.1454667"><ele>410.0</ele><time>2026-04-04T16:29:45.729Z</time></trkpt><trkpt lat="43.3837683" lon="13.1455133"><ele>410.0</ele><time>2026-04-04T16:29:46.726Z</time></trkpt><trkpt lat="43.38364" lon="13.1455683"><ele>408.25</ele><time>2026-04-04T16:29:47.734Z</time></trkpt><trkpt lat="43.3835183" lon="13.1456317"><ele>406.5</ele><time>2026-04-04T16:29:48.73Z</time></trkpt><trkpt lat="43.383395" lon="13.145695"><ele>404.75</ele><time>2026-04-04T16:29:49.731Z</time></trkpt><trkpt lat="43.3832767" lon="13.1457567"><ele>403.0</ele><time>2026-04-04T16:29:50.735Z</time></trkpt><trkpt lat="43.38316" lon="13.1458183"><ele>402.0</ele><time>2026-04-04T16:29:51.731Z</time></trkpt><trkpt lat="43.383045" lon="13.14588"><ele>401.0</ele><time>2026-04-04T16:29:52.731Z</time></trkpt><trkpt lat="43.3829283" lon="13.1459417"><ele>400.0</ele><time>2026-04-04T16:29:53.737Z</time></trkpt><trkpt lat="43.382805" lon="13.1460083"><ele>399.0</ele><time>2026-04-04T16:29:54.728Z</time></trkpt><trkpt lat="43.3826817" lon="13.1460783"><ele>399.0</ele><time>2026-04-04T16:29:55.727Z</time></trkpt><trkpt lat="43.38256" lon="13.14616"><ele>399.0</ele><time>2026-04-04T16:29:56.733Z</time></trkpt><trkpt lat="43.382445" lon="13.1462567"><ele>399.0</ele><time>2026-04-04T16:29:57.729Z</time></trkpt><trkpt lat="43.3823333" lon="13.1463567"><ele>399.0</ele><time>2026-04-04T16:29:58.73Z</time></trkpt><trkpt lat="43.38222" lon="13.1464583"><ele>397.0</ele><time>2026-04-04T16:29:59.729Z</time></trkpt><trkpt lat="43.38211" lon="13.14656"><ele>395.0</ele><time>2026-04-04T16:30:00.731Z</time></trkpt><trkpt lat="43.3820017" lon="13.146665"><ele>393.0</ele><time>2026-04-04T16:30:01.728Z</time></trkpt><trkpt lat="43.3818933" lon="13.1467667"><ele>391.0</ele><time>2026-04-04T16:30:02.729Z</time></trkpt><trkpt lat="43.381795" lon="13.1468733"><ele>391.0</ele><time>2026-04-04T16:30:03.729Z</time></trkpt><trkpt lat="43.381705" lon="13.1469933"><ele>391.0</ele><time>2026-04-04T16:30:04.73Z</time></trkpt><trkpt lat="43.3816217" lon="13.1471217"><ele>391.0</ele><time>2026-04-04T16:30:05.731Z</time></trkpt><trkpt lat="43.381535" lon="13.14726"><ele>391.0</ele><time>2026-04-04T16:30:06.732Z</time></trkpt><trkpt lat="43.3814433" lon="13.1473983"><ele>387.75</ele><time>2026-04-04T16:30:07.729Z</time></trkpt><trkpt lat="43.381345" lon="13.14753"><ele>384.5</ele><time>2026-04-04T16:30:08.728Z</time></trkpt><trkpt lat="43.381235" lon="13.1476433"><ele>381.25</ele><time>2026-04-04T16:30:09.73Z</time></trkpt><trkpt lat="43.3811217" lon="13.1477367"><ele>378.0</ele><time>2026-04-04T16:30:10.729Z</time></trkpt><trkpt lat="43.3810067" lon="13.147815"><ele>378.0</ele><time>2026-04-04T16:30:11.729Z</time></trkpt><trkpt lat="43.380885" lon="13.1478967"><ele>378.0</ele><time>2026-04-04T16:30:12.729Z</time></trkpt><trkpt lat="43.38076" lon="13.147975"><ele>378.0</ele><time>2026-04-04T16:30:13.729Z</time></trkpt><trkpt lat="43.38064" lon="13.1480517"><ele>378.0</ele><time>2026-04-04T16:30:14.723Z</time></trkpt><trkpt lat="43.380515" lon="13.1481283"><ele>376.75</ele><time>2026-04-04T16:30:15.727Z</time></trkpt><trkpt lat="43.3803933" lon="13.1482067"><ele>375.5</ele><time>2026-04-04T16:30:16.728Z</time></trkpt><trkpt lat="43.38027" lon="13.1482833"><ele>374.25</ele><time>2026-04-04T16:30:17.73Z</time></trkpt><trkpt lat="43.3801483" lon="13.1483567"><ele>373.0</ele><time>2026-04-04T16:30:18.729Z</time></trkpt><trkpt lat="43.3800233" lon="13.14844"><ele>373.0</ele><time>2026-04-04T16:30:19.728Z</time></trkpt><trkpt lat="43.3798967" lon="13.1485217"><ele>373.0</ele><time>2026-04-04T16:30:20.73Z</time></trkpt><trkpt lat="43.379775" lon="13.148605"><ele>373.0</ele><time>2026-04-04T16:30:21.73Z</time></trkpt><trkpt lat="43.3796567" lon="13.1486867"><ele>373.0</ele><time>2026-04-04T16:30:22.729Z</time></trkpt><trkpt lat="43.37955" lon="13.1487733"><ele>370.75</ele><time>2026-04-04T16:30:23.73Z</time></trkpt><trkpt lat="43.3794567" lon="13.148885"><ele>368.5</ele><time>2026-04-04T16:30:24.728Z</time></trkpt><trkpt lat="43.37939" lon="13.149"><ele>366.25</ele><time>2026-04-04T16:30:25.727Z</time></trkpt><trkpt lat="43.3793267" lon="13.1491483"><ele>364.0</ele><time>2026-04-04T16:30:26.729Z</time></trkpt><trkpt lat="43.3792683" lon="13.1493117"><ele>364.0</ele><time>2026-04-04T16:30:27.73Z</time></trkpt><trkpt lat="43.3792" lon="13.1494733"><ele>364.0</ele><time>2026-04-04T16:30:28.726Z</time></trkpt><trkpt lat="43.3791283" lon="13.1496367"><ele>364.0</ele><time>2026-04-04T16:30:29.73Z</time></trkpt><trkpt lat="43.37906" lon="13.1497917"><ele>364.0</ele><time>2026-04-04T16:30:30.729Z</time></trkpt><trkpt lat="43.3789933" lon="13.149945"><ele>365.0</ele><time>2026-04-04T16:30:31.73Z</time></trkpt><trkpt lat="43.37893" lon="13.1500933"><ele>366.0</ele><time>2026-04-04T16:30:32.733Z</time></trkpt><trkpt lat="43.3788783" lon="13.1502383"><ele>367.0</ele><time>2026-04-04T16:30:33.73Z</time></trkpt><trkpt lat="43.378855" lon="13.15039"><ele>368.0</ele><time>2026-04-04T16:30:34.73Z</time></trkpt><trkpt lat="43.3788667" lon="13.1505417"><ele>368.0</ele><time>2026-04-04T16:30:35.734Z</time></trkpt><trkpt lat="43.37892" lon="13.1506967"><ele>368.0</ele><time>2026-04-04T16:30:36.74Z</time></trkpt><trkpt lat="43.3789967" lon="13.1508467"><ele>368.0</ele><time>2026-04-04T16:30:37.726Z</time></trkpt><trkpt lat="43.3790733" lon="13.1509967"><ele>368.0</ele><time>2026-04-04T16:30:38.727Z</time></trkpt><trkpt lat="43.3791517" lon="13.1511517"><ele>367.0</ele><time>2026-04-04T16:30:39.73Z</time></trkpt><trkpt lat="43.3792233" lon="13.15131"><ele>366.0</ele><time>2026-04-04T16:30:40.728Z</time></trkpt><trkpt lat="43.379295" lon="13.1514717"><ele>365.0</ele><time>2026-04-04T16:30:41.729Z</time></trkpt><trkpt lat="43.3793617" lon="13.1516317"><ele>364.0</ele><time>2026-04-04T16:30:42.727Z</time></trkpt><trkpt lat="43.3794233" lon="13.1517917"><ele>360.5</ele><time>2026-04-04T16:30:43.732Z</time></trkpt><trkpt lat="43.3794833" lon="13.1519433"><ele>357.0</ele><time>2026-04-04T16:30:44.734Z</time></trkpt><trkpt lat="43.3795433" lon="13.1520867"><ele>353.5</ele><time>2026-04-04T16:30:45.725Z</time></trkpt><trkpt lat="43.3795983" lon="13.1522283"><ele>350.0</ele><time>2026-04-04T16:30:46.727Z</time></trkpt><trkpt lat="43.37966" lon="13.1523717"><ele>356.25</ele><time>2026-04-04T16:30:47.733Z</time></trkpt><trkpt lat="43.3797217" lon="13.1525267"><ele>362.5</ele><time>2026-04-04T16:30:48.729Z</time></trkpt><trkpt lat="43.3797867" lon="13.1526867"><ele>368.75</ele><time>2026-04-04T16:30:49.727Z</time></trkpt><trkpt lat="43.3798483" lon="13.1528533"><ele>375.0</ele><time>2026-04-04T16:30:50.729Z</time></trkpt><trkpt lat="43.3799117" lon="13.1530233"><ele>375.0</ele><time>2026-04-04T16:30:51.727Z</time></trkpt><trkpt lat="43.3799817" lon="13.1532033"><ele>375.0</ele><time>2026-04-04T16:30:52.727Z</time></trkpt><trkpt lat="43.3800567" lon="13.1533933"><ele>375.0</ele><time>2026-04-04T16:30:53.728Z</time></trkpt><trkpt lat="43.38014" lon="13.15359"><ele>368.3333333333333</ele><time>2026-04-04T16:30:54.729Z</time></trkpt><trkpt lat="43.3802283" lon="13.1537883"><ele>361.66666666666663</ele><time>2026-04-04T16:30:55.731Z</time></trkpt><trkpt lat="43.3803167" lon="13.1539867"><ele>355.0</ele><time>2026-04-04T16:30:56.728Z</time></trkpt><trkpt lat="43.3804083" lon="13.1541933"><ele>350.66666666666663</ele><time>2026-04-04T16:30:57.731Z</time></trkpt><trkpt lat="43.380505" lon="13.1544117"><ele>346.3333333333333</ele><time>2026-04-04T16:30:58.729Z</time></trkpt><trkpt lat="43.3806083" lon="13.1546417"><ele>342.0</ele><time>2026-04-04T16:30:59.732Z</time></trkpt><trkpt lat="43.380715" lon="13.1548683"><ele>347.0</ele><time>2026-04-04T16:31:00.728Z</time></trkpt><trkpt lat="43.3808283" lon="13.1550883"><ele>352.0</ele><time>2026-04-04T16:31:01.727Z</time></trkpt><trkpt lat="43.3809533" lon="13.1552933"><ele>357.0</ele><time>2026-04-04T16:31:02.734Z</time></trkpt><trkpt lat="43.38109" lon="13.1554783"><ele>357.0</ele><time>2026-04-04T16:31:03.726Z</time></trkpt><trkpt lat="43.3812233" lon="13.15565"><ele>357.0</ele><time>2026-04-04T16:31:04.731Z</time></trkpt><trkpt lat="43.381345" lon="13.1558417"><ele>357.0</ele><time>2026-04-04T16:31:05.726Z</time></trkpt><trkpt lat="43.38144" lon="13.156065"><ele>355.6666666666667</ele><time>2026-04-04T16:31:06.727Z</time></trkpt><trkpt lat="43.3815117" lon="13.156295"><ele>354.33333333333337</ele><time>2026-04-04T16:31:07.728Z</time></trkpt><trkpt lat="43.3815867" lon="13.156505"><ele>353.0</ele><time>2026-04-04T16:31:08.731Z</time></trkpt><trkpt lat="43.38167" lon="13.1567017"><ele>353.0</ele><time>2026-04-04T16:31:09.728Z</time></trkpt><trkpt lat="43.3817883" lon="13.1568617"><ele>353.0</ele><time>2026-04-04T16:31:10.726Z</time></trkpt><trkpt lat="43.3819433" lon="13.1569767"><ele>353.0</ele><time>2026-04-04T16:31:11.727Z</time></trkpt><trkpt lat="43.3820867" lon="13.1571067"><ele>358.6666666666667</ele><time>2026-04-04T16:31:12.729Z</time></trkpt><trkpt lat="43.3822033" lon="13.1572817"><ele>364.3333333333333</ele><time>2026-04-04T16:31:13.728Z</time></trkpt><trkpt lat="43.38228" lon="13.1575117"><ele>370.0</ele><time>2026-04-04T16:31:14.729Z</time></trkpt><trkpt lat="43.3823283" lon="13.1577817"><ele>370.0</ele><time>2026-04-04T16:31:15.727Z</time></trkpt><trkpt lat="43.3823967" lon="13.158065"><ele>370.0</ele><time>2026-04-04T16:31:16.726Z</time></trkpt><trkpt lat="43.3825017" lon="13.1583317"><ele>370.0</ele><time>2026-04-04T16:31:17.729Z</time></trkpt><trkpt lat="43.38261" lon="13.1585983"><ele>363.5</ele><time>2026-04-04T16:31:18.727Z</time></trkpt><trkpt lat="43.3826933" lon="13.15889"><ele>357.0</ele><time>2026-04-04T16:31:19.73Z</time></trkpt><trkpt lat="43.3827417" lon="13.1591917"><ele>353.6666666666667</ele><time>2026-04-04T16:31:20.728Z</time></trkpt><trkpt lat="43.3827867" lon="13.1594683"><ele>350.33333333333337</ele><time>2026-04-04T16:31:21.73Z</time></trkpt><trkpt lat="43.3828633" lon="13.159705"><ele>347.0</ele><time>2026-04-04T16:31:22.731Z</time></trkpt><trkpt lat="43.3829933" lon="13.1599133"><ele>352.0</ele><time>2026-04-04T16:31:23.726Z</time></trkpt><trkpt lat="43.3831833" lon="13.1600883"><ele>357.0</ele><time>2026-04-04T16:31:24.731Z</time></trkpt><trkpt lat="43.3833967" lon="13.16024"><ele>357.0</ele><time>2026-04-04T16:31:25.731Z</time></trkpt><trkpt lat="43.3836" lon="13.1603733"><ele>357.0</ele><time>2026-04-04T16:31:26.732Z</time></trkpt><trkpt lat="43.3837783" lon="13.160515"><ele>357.0</ele><time>2026-04-04T16:31:27.729Z</time></trkpt><trkpt lat="43.3839267" lon="13.1606917"><ele>356.3333333333333</ele><time>2026-04-04T16:31:28.727Z</time></trkpt><trkpt lat="43.384045" lon="13.1609117"><ele>355.66666666666663</ele><time>2026-04-04T16:31:29.725Z</time></trkpt><trkpt lat="43.38416" lon="13.1611333"><ele>355.0</ele><time>2026-04-04T16:31:30.728Z</time></trkpt><trkpt lat="43.3842933" lon="13.1613217"><ele>355.0</ele><time>2026-04-04T16:31:31.729Z</time></trkpt><trkpt lat="43.3844683" lon="13.16147"><ele>355.0</ele><time>2026-04-04T16:31:32.729Z</time></trkpt><trkpt lat="43.38467" lon="13.161605"><ele>355.0</ele><time>2026-04-04T16:31:33.727Z</time></trkpt><trkpt lat="43.38487" lon="13.1617583"><ele>352.0</ele><time>2026-04-04T16:31:34.729Z</time></trkpt><trkpt lat="43.3850467" lon="13.16195"><ele>349.0</ele><time>2026-04-04T16:31:35.729Z</time></trkpt><trkpt lat="43.3851983" lon="13.1621983"><ele>335.5</ele><time>2026-04-04T16:31:36.729Z</time></trkpt><trkpt lat="43.3853367" lon="13.1624617"><ele>322.0</ele><time>2026-04-04T16:31:37.73Z</time></trkpt><trkpt lat="43.3854917" lon="13.16269"><ele>337.0</ele><time>2026-04-04T16:31:38.73Z</time></trkpt><trkpt lat="43.38568" lon="13.1628917"><ele>352.0</ele><time>2026-04-04T16:31:39.728Z</time></trkpt><trkpt lat="43.3858767" lon="13.1630683"><ele>342.3333333333333</ele><time>2026-04-04T16:31:40.731Z</time></trkpt><trkpt lat="43.3860533" lon="13.16325"><ele>332.6666666666667</ele><time>2026-04-04T16:31:41.729Z</time></trkpt><trkpt lat="43.3861967" lon="13.1634733"><ele>323.0</ele><time>2026-04-04T16:31:42.728Z</time></trkpt><trkpt lat="43.3863167" lon="13.1637467"><ele>326.0</ele><time>2026-04-04T16:31:43.732Z</time></trkpt><trkpt lat="43.386435" lon="13.1640283"><ele>329.0</ele><time>2026-04-04T16:31:44.73Z</time></trkpt><trkpt lat="43.3865617" lon="13.1642933"><ele>329.0</ele><time>2026-04-04T16:31:45.727Z</time></trkpt><trkpt lat="43.38671" lon="13.1645267"><ele>329.0</ele><time>2026-04-04T16:31:46.727Z</time></trkpt><trkpt lat="43.3868667" lon="13.1647267"><ele>329.0</ele><time>2026-04-04T16:31:47.73Z</time></trkpt><trkpt lat="43.38702" lon="13.164895"><ele>326.0</ele><time>2026-04-04T16:31:48.728Z</time></trkpt><trkpt lat="43.3871733" lon="13.16502"><ele>323.0</ele><time>2026-04-04T16:31:49.729Z</time></trkpt><trkpt lat="43.38734" lon="13.165075"><ele>320.0</ele><time>2026-04-04T16:31:50.731Z</time></trkpt><trkpt lat="43.3875333" lon="13.1650517"><ele>320.0</ele><time>2026-04-04T16:31:51.73Z</time></trkpt><trkpt lat="43.3877383" lon="13.1649767"><ele>320.0</ele><time>2026-04-04T16:31:52.729Z</time></trkpt><trkpt lat="43.3879333" lon="13.1648833"><ele>320.0</ele><time>2026-04-04T16:31:53.729Z</time></trkpt><trkpt lat="43.3881217" lon="13.1647967"><ele>331.33333333333337</ele><time>2026-04-04T16:31:54.73Z</time></trkpt><trkpt lat="43.3882933" lon="13.1647317"><ele>342.6666666666667</ele><time>2026-04-04T16:31:55.727Z</time></trkpt><trkpt lat="43.3884483" lon="13.1647133"><ele>354.0</ele><time>2026-04-04T16:31:56.73Z</time></trkpt><trkpt lat="43.3885883" lon="13.1647533"><ele>354.0</ele><time>2026-04-04T16:31:57.728Z</time></trkpt><trkpt lat="43.3887" lon="13.1648567"><ele>354.0</ele><time>2026-04-04T16:31:58.728Z</time></trkpt><trkpt lat="43.3887683" lon="13.1650083"><ele>354.0</ele><time>2026-04-04T16:31:59.728Z</time></trkpt><trkpt lat="43.3887767" lon="13.1651867"><ele>354.0</ele><time>2026-04-04T16:32:00.73Z</time></trkpt><trkpt lat="43.3887333" lon="13.16536"><ele>345.5</ele><time>2026-04-04T16:32:01.731Z</time></trkpt><trkpt lat="43.3886383" lon="13.1654883"><ele>337.0</ele><time>2026-04-04T16:32:02.727Z</time></trkpt><trkpt lat="43.38852" lon="13.16556"><ele>328.5</ele><time>2026-04-04T16:32:03.728Z</time></trkpt><trkpt lat="43.388385" lon="13.165585"><ele>320.0</ele><time>2026-04-04T16:32:04.727Z</time></trkpt><trkpt lat="43.3882483" lon="13.16557"><ele>320.0</ele><time>2026-04-04T16:32:05.728Z</time></trkpt><trkpt lat="43.3881017" lon="13.1655283"><ele>320.0</ele><time>2026-04-04T16:32:06.727Z</time></trkpt><trkpt lat="43.38793" lon="13.1654833"><ele>320.0</ele><time>2026-04-04T16:32:07.73Z</time></trkpt><trkpt lat="43.3877567" lon="13.16547"><ele>320.0</ele><time>2026-04-04T16:32:08.729Z</time></trkpt><trkpt lat="43.3875817" lon="13.16551"><ele>320.0</ele><time>2026-04-04T16:32:09.728Z</time></trkpt><trkpt lat="43.3874067" lon="13.1656"><ele>320.0</ele><time>2026-04-04T16:32:10.729Z</time></trkpt><trkpt lat="43.38723" lon="13.165745"><ele>308.0</ele><time>2026-04-04T16:32:11.728Z</time></trkpt><trkpt lat="43.3870383" lon="13.1659267"><ele>296.0</ele><time>2026-04-04T16:32:12.726Z</time></trkpt><trkpt lat="43.386835" lon="13.1661183"><ele>296.0</ele><time>2026-04-04T16:32:13.73Z</time></trkpt><trkpt lat="43.3866333" lon="13.1663083"><ele>296.0</ele><time>2026-04-04T16:32:14.73Z</time></trkpt><trkpt lat="43.386445" lon="13.1664817"><ele>296.6666666666667</ele><time>2026-04-04T16:32:15.726Z</time></trkpt><trkpt lat="43.3862867" lon="13.1666333"><ele>297.3333333333333</ele><time>2026-04-04T16:32:16.726Z</time></trkpt><trkpt lat="43.3861433" lon="13.1667683"><ele>298.0</ele><time>2026-04-04T16:32:17.727Z</time></trkpt><trkpt lat="43.38601" lon="13.1668933"><ele>298.0</ele><time>2026-04-04T16:32:18.726Z</time></trkpt><trkpt lat="43.385885" lon="13.1670133"><ele>298.0</ele><time>2026-04-04T16:32:19.727Z</time></trkpt><trkpt lat="43.38577" lon="13.167125"><ele>298.0</ele><time>2026-04-04T16:32:20.727Z</time></trkpt><trkpt lat="43.3856683" lon="13.167235"><ele>298.0</ele><time>2026-04-04T16:32:21.727Z</time></trkpt><trkpt lat="43.38557" lon="13.167355"><ele>306.25</ele><time>2026-04-04T16:32:22.728Z</time></trkpt><trkpt lat="43.385475" lon="13.16749"><ele>314.5</ele><time>2026-04-04T16:32:23.728Z</time></trkpt><trkpt lat="43.3853817" lon="13.167635"><ele>322.75</ele><time>2026-04-04T16:32:24.728Z</time></trkpt><trkpt lat="43.3853033" lon="13.1677817"><ele>331.0</ele><time>2026-04-04T16:32:25.728Z</time></trkpt><trkpt lat="43.3852367" lon="13.16792"><ele>331.0</ele><time>2026-04-04T16:32:26.73Z</time></trkpt><trkpt lat="43.3851733" lon="13.1680583"><ele>331.0</ele><time>2026-04-04T16:32:27.728Z</time></trkpt><trkpt lat="43.3851183" lon="13.1682"><ele>331.0</ele><time>2026-04-04T16:32:28.729Z</time></trkpt><trkpt lat="43.385065" lon="13.1683333"><ele>331.0</ele><time>2026-04-04T16:32:29.726Z</time></trkpt><trkpt lat="43.3850217" lon="13.1684683"><ele>331.20000000000005</ele><time>2026-04-04T16:32:30.727Z</time></trkpt><trkpt lat="43.3850117" lon="13.1686117"><ele>331.40000000000003</ele><time>2026-04-04T16:32:31.73Z</time></trkpt><trkpt lat="43.3850233" lon="13.168765"><ele>331.6</ele><time>2026-04-04T16:32:32.732Z</time></trkpt><trkpt lat="43.3850517" lon="13.1689183"><ele>331.8</ele><time>2026-04-04T16:32:33.728Z</time></trkpt><trkpt lat="43.3850883" lon="13.1690667"><ele>332.0</ele><time>2026-04-04T16:32:34.726Z</time></trkpt><trkpt lat="43.3851317" lon="13.1692167"><ele>332.0</ele><time>2026-04-04T16:32:35.731Z</time></trkpt><trkpt lat="43.38516" lon="13.1693683"><ele>332.0</ele><time>2026-04-04T16:32:36.732Z</time></trkpt><trkpt lat="43.3851783" lon="13.1695167"><ele>332.0</ele><time>2026-04-04T16:32:37.731Z</time></trkpt><trkpt lat="43.38519" lon="13.1696717"><ele>332.0</ele><time>2026-04-04T16:32:38.73Z</time></trkpt><trkpt lat="43.3852" lon="13.169825"><ele>332.0</ele><time>2026-04-04T16:32:39.73Z</time></trkpt><trkpt lat="43.3852067" lon="13.16998"><ele>334.5</ele><time>2026-04-04T16:32:40.728Z</time></trkpt><trkpt lat="43.3852167" lon="13.17014"><ele>337.0</ele><time>2026-04-04T16:32:41.73Z</time></trkpt><trkpt lat="43.38523" lon="13.1703033"><ele>339.5</ele><time>2026-04-04T16:32:42.728Z</time></trkpt><trkpt lat="43.3852717" lon="13.17048"><ele>342.0</ele><time>2026-04-04T16:32:43.728Z</time></trkpt><trkpt lat="43.38531" lon="13.170665"><ele>347.3333333333333</ele><time>2026-04-04T16:32:44.731Z</time></trkpt><trkpt lat="43.385375" lon="13.1708517"><ele>352.66666666666663</ele><time>2026-04-04T16:32:45.73Z</time></trkpt><trkpt lat="43.3854583" lon="13.1710333"><ele>358.0</ele><time>2026-04-04T16:32:46.732Z</time></trkpt><trkpt lat="43.3855433" lon="13.17121"><ele>349.25</ele><time>2026-04-04T16:32:47.731Z</time></trkpt><trkpt lat="43.3856267" lon="13.17138"><ele>340.5</ele><time>2026-04-04T16:32:48.731Z</time></trkpt><trkpt lat="43.3857033" lon="13.1715467"><ele>331.75</ele><time>2026-04-04T16:32:49.73Z</time></trkpt><trkpt lat="43.3857883" lon="13.1717133"><ele>323.0</ele><time>2026-04-04T16:32:50.73Z</time></trkpt><trkpt lat="43.3858633" lon="13.1718867"><ele>323.0</ele><time>2026-04-04T16:32:51.726Z</time></trkpt><trkpt lat="43.385915" lon="13.172075"><ele>323.0</ele><time>2026-04-04T16:32:52.73Z</time></trkpt><trkpt lat="43.385925" lon="13.172265"><ele>323.0</ele><time>2026-04-04T16:32:53.729Z</time></trkpt><trkpt lat="43.3858883" lon="13.172445"><ele>323.0</ele><time>2026-04-04T16:32:54.729Z</time></trkpt><trkpt lat="43.38583" lon="13.17263"><ele>324.6666666666667</ele><time>2026-04-04T16:32:55.732Z</time></trkpt><trkpt lat="43.3857367" lon="13.172835"><ele>326.3333333333333</ele><time>2026-04-04T16:32:56.729Z</time></trkpt><trkpt lat="43.3855883" lon="13.1730717"><ele>328.0</ele><time>2026-04-04T16:32:57.73Z</time></trkpt><trkpt lat="43.385435" lon="13.1733333"><ele>333.0</ele><time>2026-04-04T16:32:58.728Z</time></trkpt><trkpt lat="43.38528" lon="13.1736183"><ele>338.0</ele><time>2026-04-04T16:32:59.728Z</time></trkpt><trkpt lat="43.3851367" lon="13.173925"><ele>336.5</ele><time>2026-04-04T16:33:00.723Z</time></trkpt><trkpt lat="43.384985" lon="13.1742433"><ele>335.0</ele><time>2026-04-04T16:33:01.729Z</time></trkpt><trkpt lat="43.3848433" lon="13.174575"><ele>337.0</ele><time>2026-04-04T16:33:02.729Z</time></trkpt><trkpt lat="43.3846983" lon="13.1749117"><ele>339.0</ele><time>2026-04-04T16:33:03.727Z</time></trkpt><trkpt lat="43.3845533" lon="13.17523"><ele>344.5</ele><time>2026-04-04T16:33:04.73Z</time></trkpt><trkpt lat="43.3844217" lon="13.175515"><ele>350.0</ele><time>2026-04-04T16:33:05.731Z</time></trkpt><trkpt lat="43.3842967" lon="13.175775"><ele>350.0</ele><time>2026-04-04T16:33:06.731Z</time></trkpt><trkpt lat="43.3842267" lon="13.1759767"><ele>350.0</ele><time>2026-04-04T16:33:07.73Z</time></trkpt><trkpt lat="43.384175" lon="13.1762317"><ele>350.0</ele><time>2026-04-04T16:33:08.732Z</time></trkpt><trkpt lat="43.384185" lon="13.176505"><ele>349.33333333333337</ele><time>2026-04-04T16:33:09.727Z</time></trkpt><trkpt lat="43.3842533" lon="13.1767967"><ele>348.6666666666667</ele><time>2026-04-04T16:33:10.731Z</time></trkpt><trkpt lat="43.3843433" lon="13.17708"><ele>348.0</ele><time>2026-04-04T16:33:11.727Z</time></trkpt><trkpt lat="43.3844233" lon="13.177355"><ele>347.0</ele><time>2026-04-04T16:33:12.728Z</time></trkpt><trkpt lat="43.384475" lon="13.1776233"><ele>346.0</ele><time>2026-04-04T16:33:13.729Z</time></trkpt><trkpt lat="43.38449" lon="13.1778867"><ele>345.0</ele><time>2026-04-04T16:33:14.731Z</time></trkpt><trkpt lat="43.38446" lon="13.17814"><ele>342.3333333333333</ele><time>2026-04-04T16:33:15.728Z</time></trkpt><trkpt lat="43.384385" lon="13.1783533"><ele>339.66666666666663</ele><time>2026-04-04T16:33:16.729Z</time></trkpt><trkpt lat="43.3842917" lon="13.1785533"><ele>337.0</ele><time>2026-04-04T16:33:17.731Z</time></trkpt><trkpt lat="43.38412" lon="13.1787283"><ele>337.0</ele><time>2026-04-04T16:33:18.73Z</time></trkpt><trkpt lat="43.3839" lon="13.1789"><ele>337.0</ele><time>2026-04-04T16:33:19.727Z</time></trkpt><trkpt lat="43.3836583" lon="13.179095"><ele>333.5</ele><time>2026-04-04T16:33:20.728Z</time></trkpt><trkpt lat="43.3833967" lon="13.1792983"><ele>330.0</ele><time>2026-04-04T16:33:21.732Z</time></trkpt><trkpt lat="43.3831367" lon="13.1795017"><ele>336.0</ele><time>2026-04-04T16:33:22.73Z</time></trkpt><trkpt lat="43.382885" lon="13.1796833"><ele>342.0</ele><time>2026-04-04T16:33:23.73Z</time></trkpt><trkpt lat="43.3826417" lon="13.1798417"><ele>344.0</ele><time>2026-04-04T16:33:24.728Z</time></trkpt><trkpt lat="43.382395" lon="13.1799667"><ele>346.0</ele><time>2026-04-04T16:33:25.73Z</time></trkpt><trkpt lat="43.3821767" lon="13.1800983"><ele>346.0</ele><time>2026-04-04T16:33:26.729Z</time></trkpt><trkpt lat="43.381995" lon="13.1802217"><ele>346.0</ele><time>2026-04-04T16:33:27.724Z</time></trkpt><trkpt lat="43.381865" lon="13.180335"><ele>346.0</ele><time>2026-04-04T16:33:28.726Z</time></trkpt><trkpt lat="43.3817867" lon="13.1804617"><ele>346.0</ele><time>2026-04-04T16:33:29.731Z</time></trkpt><trkpt lat="43.3817567" lon="13.1806267"><ele>346.0</ele><time>2026-04-04T16:33:30.732Z</time></trkpt><trkpt lat="43.38178" lon="13.1807917"><ele>346.0</ele><time>2026-04-04T16:33:31.729Z</time></trkpt><trkpt lat="43.381875" lon="13.180915"><ele>346.0</ele><time>2026-04-04T16:33:32.733Z</time></trkpt><trkpt lat="43.38201" lon="13.1809833"><ele>340.66666666666663</ele><time>2026-04-04T16:33:33.729Z</time></trkpt><trkpt lat="43.3821917" lon="13.1810017"><ele>335.3333333333333</ele><time>2026-04-04T16:33:34.725Z</time></trkpt><trkpt lat="43.38244" lon="13.1809767"><ele>330.0</ele><time>2026-04-04T16:33:35.73Z</time></trkpt><trkpt lat="43.3827283" lon="13.1809667"><ele>334.5</ele><time>2026-04-04T16:33:36.728Z</time></trkpt><trkpt lat="43.3830417" lon="13.1809533"><ele>339.0</ele><time>2026-04-04T16:33:37.727Z</time></trkpt><trkpt lat="43.38335" lon="13.1809383"><ele>339.0</ele><time>2026-04-04T16:33:38.725Z</time></trkpt><trkpt lat="43.383665" lon="13.1809133"><ele>339.0</ele><time>2026-04-04T16:33:39.727Z</time></trkpt><trkpt lat="43.38395" lon="13.18091"><ele>341.5</ele><time>2026-04-04T16:33:40.726Z</time></trkpt><trkpt lat="43.384205" lon="13.180945"><ele>344.0</ele><time>2026-04-04T16:33:41.73Z</time></trkpt><trkpt lat="43.384425" lon="13.1810083"><ele>344.0</ele><time>2026-04-04T16:33:42.728Z</time></trkpt><trkpt lat="43.3846117" lon="13.18111"><ele>344.0</ele><time>2026-04-04T16:33:43.724Z</time></trkpt><trkpt lat="43.3847683" lon="13.181235"><ele>344.0</ele><time>2026-04-04T16:33:44.73Z</time></trkpt><trkpt lat="43.3848883" lon="13.1813683"><ele>343.75</ele><time>2026-04-04T16:33:45.73Z</time></trkpt><trkpt lat="43.38498" lon="13.1814933"><ele>343.5</ele><time>2026-04-04T16:33:46.73Z</time></trkpt><trkpt lat="43.3850617" lon="13.18161"><ele>343.25</ele><time>2026-04-04T16:33:47.736Z</time></trkpt><trkpt lat="43.38514" lon="13.1817317"><ele>343.0</ele><time>2026-04-04T16:33:48.726Z</time></trkpt><trkpt lat="43.3852217" lon="13.1818467"><ele>347.5</ele><time>2026-04-04T16:33:49.727Z</time></trkpt><trkpt lat="43.3853" lon="13.1819767"><ele>352.0</ele><time>2026-04-04T16:33:50.729Z</time></trkpt><trkpt lat="43.3853767" lon="13.1821183"><ele>356.5</ele><time>2026-04-04T16:33:51.728Z</time></trkpt><trkpt lat="43.38546" lon="13.182275"><ele>361.0</ele><time>2026-04-04T16:33:52.729Z</time></trkpt><trkpt lat="43.3855567" lon="13.1824683"><ele>361.66666666666663</ele><time>2026-04-04T16:33:53.729Z</time></trkpt><trkpt lat="43.38566" lon="13.182715"><ele>362.3333333333333</ele><time>2026-04-04T16:33:54.732Z</time></trkpt><trkpt lat="43.385775" lon="13.1830033"><ele>363.0</ele><time>2026-04-04T16:33:55.728Z</time></trkpt><trkpt lat="43.38591" lon="13.18333"><ele>371.0</ele><time>2026-04-04T16:33:56.729Z</time></trkpt><trkpt lat="43.38607" lon="13.1837033"><ele>379.0</ele><time>2026-04-04T16:33:57.728Z</time></trkpt><trkpt lat="43.3862367" lon="13.184115"><ele>382.5</ele><time>2026-04-04T16:33:58.729Z</time></trkpt><trkpt lat="43.38642" lon="13.18457"><ele>386.0</ele><time>2026-04-04T16:33:59.729Z</time></trkpt><trkpt lat="43.3866083" lon="13.1850517"><ele>386.0</ele><time>2026-04-04T16:34:00.729Z</time></trkpt><trkpt lat="43.3868" lon="13.18554"><ele>386.0</ele><time>2026-04-04T16:34:01.728Z</time></trkpt><trkpt lat="43.38699" lon="13.185995"><ele>389.5</ele><time>2026-04-04T16:34:02.728Z</time></trkpt><trkpt lat="43.3871583" lon="13.1864017"><ele>393.0</ele><time>2026-04-04T16:34:03.729Z</time></trkpt><trkpt lat="43.3873217" lon="13.1867917"><ele>393.0</ele><time>2026-04-04T16:34:04.727Z</time></trkpt><trkpt lat="43.3874933" lon="13.1871767"><ele>393.0</ele><time>2026-04-04T16:34:05.729Z</time></trkpt><trkpt lat="43.3876883" lon="13.187555"><ele>400.5</ele><time>2026-04-04T16:34:06.728Z</time></trkpt><trkpt lat="43.3879217" lon="13.1879383"><ele>408.0</ele><time>2026-04-04T16:34:07.737Z</time></trkpt><trkpt lat="43.38815" lon="13.1883483"><ele>408.0</ele><time>2026-04-04T16:34:08.731Z</time></trkpt><trkpt lat="43.3883683" lon="13.1887867"><ele>408.0</ele><time>2026-04-04T16:34:09.729Z</time></trkpt><trkpt lat="43.3885717" lon="13.1892083"><ele>415.0</ele><time>2026-04-04T16:34:10.724Z</time></trkpt><trkpt lat="43.3887583" lon="13.1895917"><ele>422.0</ele><time>2026-04-04T16:34:11.732Z</time></trkpt><trkpt lat="43.3889333" lon="13.189935"><ele>422.0</ele><time>2026-04-04T16:34:12.729Z</time></trkpt><trkpt lat="43.3890883" lon="13.190255"><ele>422.0</ele><time>2026-04-04T16:34:13.726Z</time></trkpt><trkpt lat="43.3892017" lon="13.19057"><ele>427.5</ele><time>2026-04-04T16:34:14.726Z</time></trkpt><trkpt lat="43.3892833" lon="13.1908967"><ele>433.0</ele><time>2026-04-04T16:34:15.729Z</time></trkpt><trkpt lat="43.3893183" lon="13.1912183"><ele>436.0</ele><time>2026-04-04T16:34:16.729Z</time></trkpt><trkpt lat="43.3893033" lon="13.1915467"><ele>439.0</ele><time>2026-04-04T16:34:17.727Z</time></trkpt><trkpt lat="43.3892567" lon="13.19188"><ele>439.0</ele><time>2026-04-04T16:34:18.724Z</time></trkpt><trkpt lat="43.3892067" lon="13.1921833"><ele>439.0</ele><time>2026-04-04T16:34:19.739Z</time></trkpt><trkpt lat="43.3891633" lon="13.1924633"><ele>439.0</ele><time>2026-04-04T16:34:20.723Z</time></trkpt><trkpt lat="43.389115" lon="13.1927117"><ele>440.5</ele><time>2026-04-04T16:34:21.723Z</time></trkpt><trkpt lat="43.3890467" lon="13.1929217"><ele>442.0</ele><time>2026-04-04T16:34:22.729Z</time></trkpt><trkpt lat="43.3889567" lon="13.1930833"><ele>443.5</ele><time>2026-04-04T16:34:23.727Z</time></trkpt><trkpt lat="43.3888533" lon="13.1931983"><ele>445.0</ele><time>2026-04-04T16:34:24.729Z</time></trkpt><trkpt lat="43.38875" lon="13.1932983"><ele>448.0</ele><time>2026-04-04T16:34:25.728Z</time></trkpt><trkpt lat="43.3886417" lon="13.193395"><ele>451.0</ele><time>2026-04-04T16:34:26.732Z</time></trkpt><trkpt lat="43.3885267" lon="13.1934833"><ele>454.0</ele><time>2026-04-04T16:34:27.729Z</time></trkpt><trkpt lat="43.38841" lon="13.193565"><ele>457.0</ele><time>2026-04-04T16:34:28.727Z</time></trkpt><trkpt lat="43.3882833" lon="13.19367"><ele>457.0</ele><time>2026-04-04T16:34:29.731Z</time></trkpt><trkpt lat="43.3881433" lon="13.193805"><ele>457.0</ele><time>2026-04-04T16:34:30.729Z</time></trkpt><trkpt lat="43.387965" lon="13.193965"><ele>457.0</ele><time>2026-04-04T16:34:31.728Z</time></trkpt><trkpt lat="43.3877767" lon="13.194115"><ele>457.0</ele><time>2026-04-04T16:34:32.731Z</time></trkpt><trkpt lat="43.3876017" lon="13.1942533"><ele>457.0</ele><time>2026-04-04T16:34:33.73Z</time></trkpt><trkpt lat="43.3874317" lon="13.1943517"><ele>457.0</ele><time>2026-04-04T16:34:34.727Z</time></trkpt><trkpt lat="43.387265" lon="13.1943883"><ele>454.33333333333337</ele><time>2026-04-04T16:34:35.726Z</time></trkpt><trkpt lat="43.3870883" lon="13.1943433"><ele>451.66666666666663</ele><time>2026-04-04T16:34:36.735Z</time></trkpt><trkpt lat="43.3868917" lon="13.1941917"><ele>449.0</ele><time>2026-04-04T16:34:37.727Z</time></trkpt><trkpt lat="43.3866883" lon="13.194"><ele>452.66666666666663</ele><time>2026-04-04T16:34:38.73Z</time></trkpt><trkpt lat="43.386505" lon="13.1938083"><ele>456.33333333333337</ele><time>2026-04-04T16:34:39.735Z</time></trkpt><trkpt lat="43.386345" lon="13.1936367"><ele>460.0</ele><time>2026-04-04T16:34:40.732Z</time></trkpt><trkpt lat="43.3862117" lon="13.1935"><ele>460.0</ele><time>2026-04-04T16:34:41.73Z</time></trkpt><trkpt lat="43.386085" lon="13.19341"><ele>460.0</ele><time>2026-04-04T16:34:42.732Z</time></trkpt><trkpt lat="43.385975" lon="13.1933833"><ele>460.0</ele><time>2026-04-04T16:34:43.729Z</time></trkpt><trkpt lat="43.3858817" lon="13.193435"><ele>460.0</ele><time>2026-04-04T16:34:44.728Z</time></trkpt><trkpt lat="43.38583" lon="13.1935567"><ele>460.0</ele><time>2026-04-04T16:34:45.725Z</time></trkpt><trkpt lat="43.38585" lon="13.193735"><ele>460.0</ele><time>2026-04-04T16:34:46.729Z</time></trkpt><trkpt lat="43.385935" lon="13.193945"><ele>460.0</ele><time>2026-04-04T16:34:47.729Z</time></trkpt><trkpt lat="43.3860483" lon="13.1941883"><ele>462.0</ele><time>2026-04-04T16:34:48.731Z</time></trkpt><trkpt lat="43.3861933" lon="13.1944767"><ele>464.0</ele><time>2026-04-04T16:34:49.729Z</time></trkpt><trkpt lat="43.3863333" lon="13.194785"><ele>451.0</ele><time>2026-04-04T16:34:50.73Z</time></trkpt><trkpt lat="43.3864667" lon="13.1950867"><ele>438.0</ele><time>2026-04-04T16:34:51.73Z</time></trkpt><trkpt lat="43.3866" lon="13.1953617"><ele>438.0</ele><time>2026-04-04T16:34:52.728Z</time></trkpt><trkpt lat="43.3867167" lon="13.195615"><ele>438.0</ele><time>2026-04-04T16:34:53.733Z</time></trkpt><trkpt lat="43.3868167" lon="13.1958283"><ele>438.0</ele><time>2026-04-04T16:34:54.732Z</time></trkpt><trkpt lat="43.3869233" lon="13.1959833"><ele>437.0</ele><time>2026-04-04T16:34:55.729Z</time></trkpt><trkpt lat="43.3870517" lon="13.1960633"><ele>436.0</ele><time>2026-04-04T16:34:56.729Z</time></trkpt><trkpt lat="43.3871783" lon="13.1961017"><ele>435.0</ele><time>2026-04-04T16:34:57.729Z</time></trkpt><trkpt lat="43.3873267" lon="13.19606"><ele>434.0</ele><time>2026-04-04T16:34:58.727Z</time></trkpt><trkpt lat="43.3874883" lon="13.1959867"><ele>431.66666666666663</ele><time>2026-04-04T16:34:59.729Z</time></trkpt><trkpt lat="43.3876467" lon="13.195925"><ele>429.33333333333337</ele><time>2026-04-04T16:35:00.729Z</time></trkpt><trkpt lat="43.3878017" lon="13.195925"><ele>427.0</ele><time>2026-04-04T16:35:01.731Z</time></trkpt><trkpt lat="43.3879583" lon="13.1959867"><ele>425.33333333333337</ele><time>2026-04-04T16:35:02.727Z</time></trkpt><trkpt lat="43.3881317" lon="13.1961083"><ele>423.66666666666663</ele><time>2026-04-04T16:35:03.727Z</time></trkpt><trkpt lat="43.388315" lon="13.19628"><ele>422.0</ele><time>2026-04-04T16:35:04.728Z</time></trkpt><trkpt lat="43.388465" lon="13.196475"><ele>424.66666666666663</ele><time>2026-04-04T16:35:05.729Z</time></trkpt><trkpt lat="43.3885767" lon="13.196675"><ele>427.33333333333337</ele><time>2026-04-04T16:35:06.729Z</time></trkpt><trkpt lat="43.3886533" lon="13.19688"><ele>430.0</ele><time>2026-04-04T16:35:07.727Z</time></trkpt><trkpt lat="43.388695" lon="13.1971083"><ele>430.5</ele><time>2026-04-04T16:35:08.729Z</time></trkpt><trkpt lat="43.3886933" lon="13.1973933"><ele>431.0</ele><time>2026-04-04T16:35:09.729Z</time></trkpt><trkpt lat="43.3886583" lon="13.197725"><ele>431.0</ele><time>2026-04-04T16:35:10.727Z</time></trkpt><trkpt lat="43.388615" lon="13.19806"><ele>431.0</ele><time>2026-04-04T16:35:11.729Z</time></trkpt><trkpt lat="43.3885733" lon="13.19837"><ele>431.0</ele><time>2026-04-04T16:35:12.73Z</time></trkpt><trkpt lat="43.388535" lon="13.1986617"><ele>431.0</ele><time>2026-04-04T16:35:13.731Z</time></trkpt><trkpt lat="43.3885033" lon="13.1989367"><ele>431.0</ele><time>2026-04-04T16:35:14.727Z</time></trkpt><trkpt lat="43.38851" lon="13.1991933"><ele>431.0</ele><time>2026-04-04T16:35:15.73Z</time></trkpt><trkpt lat="43.3885667" lon="13.1994467"><ele>431.0</ele><time>2026-04-04T16:35:16.728Z</time></trkpt><trkpt lat="43.388655" lon="13.199695"><ele>431.0</ele><time>2026-04-04T16:35:17.732Z</time></trkpt><trkpt lat="43.3887433" lon="13.1999317"><ele>432.66666666666663</ele><time>2026-04-04T16:35:18.73Z</time></trkpt><trkpt lat="43.3888067" lon="13.20017"><ele>434.33333333333337</ele><time>2026-04-04T16:35:19.73Z</time></trkpt><trkpt lat="43.3888383" lon="13.200405"><ele>436.0</ele><time>2026-04-04T16:35:20.73Z</time></trkpt><trkpt lat="43.3888583" lon="13.2006467"><ele>430.0</ele><time>2026-04-04T16:35:21.731Z</time></trkpt><trkpt lat="43.3888833" lon="13.2008917"><ele>424.0</ele><time>2026-04-04T16:35:22.728Z</time></trkpt><trkpt lat="43.3889167" lon="13.201145"><ele>418.0</ele><time>2026-04-04T16:35:23.727Z</time></trkpt><trkpt lat="43.3889633" lon="13.201395"><ele>418.6666666666667</ele><time>2026-04-04T16:35:24.729Z</time></trkpt><trkpt lat="43.389005" lon="13.2016267"><ele>419.33333333333337</ele><time>2026-04-04T16:35:25.726Z</time></trkpt><trkpt lat="43.3890317" lon="13.20183"><ele>420.0</ele><time>2026-04-04T16:35:26.731Z</time></trkpt><trkpt lat="43.3890533" lon="13.2020017"><ele>420.0</ele><time>2026-04-04T16:35:27.728Z</time></trkpt><trkpt lat="43.3890583" lon="13.202145"><ele>420.0</ele><time>2026-04-04T16:35:28.729Z</time></trkpt><trkpt lat="43.38906" lon="13.2022533"><ele>420.0</ele><time>2026-04-04T16:35:29.726Z</time></trkpt><trkpt lat="43.3891017" lon="13.2023967"><ele>420.0</ele><time>2026-04-04T16:35:31.726Z</time></trkpt><trkpt lat="43.3891583" lon="13.2025583"><ele>420.0</ele><time>2026-04-04T16:35:33.731Z</time></trkpt><trkpt lat="43.3892133" lon="13.20274"><ele>420.66666666666663</ele><time>2026-04-04T16:35:34.727Z</time></trkpt><trkpt lat="43.3892433" lon="13.202985"><ele>421.3333333333333</ele><time>2026-04-04T16:35:35.727Z</time></trkpt><trkpt lat="43.389285" lon="13.2032483"><ele>422.0</ele><time>2026-04-04T16:35:36.722Z</time></trkpt><trkpt lat="43.3893283" lon="13.20352"><ele>422.0</ele><time>2026-04-04T16:35:37.728Z</time></trkpt><trkpt lat="43.38936" lon="13.2037967"><ele>422.0</ele><time>2026-04-04T16:35:38.732Z</time></trkpt><trkpt lat="43.3893883" lon="13.2040733"><ele>422.0</ele><time>2026-04-04T16:35:39.729Z</time></trkpt><trkpt lat="43.3894" lon="13.2043433"><ele>422.0</ele><time>2026-04-04T16:35:40.731Z</time></trkpt><trkpt lat="43.3894133" lon="13.2046067"><ele>422.0</ele><time>2026-04-04T16:35:41.731Z</time></trkpt><trkpt lat="43.3894267" lon="13.2048617"><ele>422.0</ele><time>2026-04-04T16:35:42.732Z</time></trkpt><trkpt lat="43.3894267" lon="13.2051033"><ele>421.66666666666663</ele><time>2026-04-04T16:35:43.727Z</time></trkpt><trkpt lat="43.3894167" lon="13.2053333"><ele>421.33333333333337</ele><time>2026-04-04T16:35:44.729Z</time></trkpt><trkpt lat="43.3893933" lon="13.205535"><ele>421.0</ele><time>2026-04-04T16:35:45.728Z</time></trkpt><trkpt lat="43.38938" lon="13.2057217"><ele>421.0</ele><time>2026-04-04T16:35:46.726Z</time></trkpt><trkpt lat="43.3893817" lon="13.205885"><ele>421.0</ele><time>2026-04-04T16:35:47.73Z</time></trkpt><trkpt lat="43.3894167" lon="13.20602"><ele>421.0</ele><time>2026-04-04T16:35:48.729Z</time></trkpt><trkpt lat="43.38951" lon="13.2061067"><ele>421.0</ele><time>2026-04-04T16:35:49.728Z</time></trkpt><trkpt lat="43.38963" lon="13.2061783"><ele>417.75</ele><time>2026-04-04T16:35:50.728Z</time></trkpt><trkpt lat="43.389735" lon="13.2062683"><ele>414.5</ele><time>2026-04-04T16:35:51.729Z</time></trkpt><trkpt lat="43.389825" lon="13.2064"><ele>411.25</ele><time>2026-04-04T16:35:52.733Z</time></trkpt><trkpt lat="43.3898933" lon="13.2065667"><ele>408.0</ele><time>2026-04-04T16:35:53.729Z</time></trkpt><trkpt lat="43.3899717" lon="13.2067267"><ele>408.0</ele><time>2026-04-04T16:35:54.73Z</time></trkpt><trkpt lat="43.3900717" lon="13.2068267"><ele>408.0</ele><time>2026-04-04T16:35:55.73Z</time></trkpt><trkpt lat="43.3901917" lon="13.20686"><ele>408.0</ele><time>2026-04-04T16:35:56.756Z</time></trkpt><trkpt lat="43.3903417" lon="13.2068133"><ele>408.0</ele><time>2026-04-04T16:35:57.729Z</time></trkpt><trkpt lat="43.3905133" lon="13.2066983"><ele>405.0</ele><time>2026-04-04T16:35:58.726Z</time></trkpt><trkpt lat="43.3906717" lon="13.2066067"><ele>402.0</ele><time>2026-04-04T16:35:59.728Z</time></trkpt><trkpt lat="43.3908333" lon="13.2065467"><ele>399.0</ele><time>2026-04-04T16:36:00.735Z</time></trkpt><trkpt lat="43.3909933" lon="13.206555"><ele>399.0</ele><time>2026-04-04T16:36:01.728Z</time></trkpt><trkpt lat="43.3911417" lon="13.2066467"><ele>399.0</ele><time>2026-04-04T16:36:02.729Z</time></trkpt><trkpt lat="43.3912783" lon="13.2068033"><ele>399.0</ele><time>2026-04-04T16:36:03.728Z</time></trkpt><trkpt lat="43.3914017" lon="13.20704"><ele>397.0</ele><time>2026-04-04T16:36:04.729Z</time></trkpt><trkpt lat="43.3915167" lon="13.207295"><ele>395.0</ele><time>2026-04-04T16:36:05.73Z</time></trkpt><trkpt lat="43.391605" lon="13.20757"><ele>393.0</ele><time>2026-04-04T16:36:06.732Z</time></trkpt><trkpt lat="43.391655" lon="13.2078683"><ele>392.0</ele><time>2026-04-04T16:36:07.728Z</time></trkpt><trkpt lat="43.3916683" lon="13.20818"><ele>391.0</ele><time>2026-04-04T16:36:08.725Z</time></trkpt><trkpt lat="43.3916633" lon="13.2084633"><ele>390.0</ele><time>2026-04-04T16:36:09.73Z</time></trkpt><trkpt lat="43.3916517" lon="13.208705"><ele>390.0</ele><time>2026-04-04T16:36:10.727Z</time></trkpt><trkpt lat="43.39164" lon="13.20892"><ele>390.0</ele><time>2026-04-04T16:36:11.726Z</time></trkpt><trkpt lat="43.3916483" lon="13.2091017"><ele>390.0</ele><time>2026-04-04T16:36:12.73Z</time></trkpt><trkpt lat="43.3916617" lon="13.2092367"><ele>390.0</ele><time>2026-04-04T16:36:13.726Z</time></trkpt><trkpt lat="43.3917183" lon="13.2093033"><ele>390.0</ele><time>2026-04-04T16:36:14.732Z</time></trkpt><trkpt lat="43.3918583" lon="13.2092533"><ele>390.0</ele><time>2026-04-04T16:36:16.727Z</time></trkpt><trkpt lat="43.3919217" lon="13.20917"><ele>390.0</ele><time>2026-04-04T16:36:17.732Z</time></trkpt><trkpt lat="43.391975" lon="13.2090533"><ele>390.0</ele><time>2026-04-04T16:36:18.732Z</time></trkpt><trkpt lat="43.3920317" lon="13.2089133"><ele>390.0</ele><time>2026-04-04T16:36:19.732Z</time></trkpt><trkpt lat="43.3920817" lon="13.2087667"><ele>390.0</ele><time>2026-04-04T16:36:20.727Z</time></trkpt><trkpt lat="43.3921167" lon="13.20866"><ele>390.0</ele><time>2026-04-04T16:36:21.737Z</time></trkpt><trkpt lat="43.3921533" lon="13.2085683"><ele>390.0</ele><time>2026-04-04T16:36:22.728Z</time></trkpt><trkpt lat="43.3922233" lon="13.20856"><ele>390.0</ele><time>2026-04-04T16:36:24.726Z</time></trkpt><trkpt lat="43.3922283" lon="13.2086517"><ele>390.0</ele><time>2026-04-04T16:36:25.727Z</time></trkpt><trkpt lat="43.3922217" lon="13.2087967"><ele>390.0</ele><time>2026-04-04T16:36:26.729Z</time></trkpt><trkpt lat="43.3922" lon="13.2089733"><ele>388.75</ele><time>2026-04-04T16:36:27.73Z</time></trkpt><trkpt lat="43.392175" lon="13.209175"><ele>387.5</ele><time>2026-04-04T16:36:28.727Z</time></trkpt><trkpt lat="43.3921283" lon="13.2093767"><ele>386.25</ele><time>2026-04-04T16:36:29.729Z</time></trkpt><trkpt lat="43.39206" lon="13.20955"><ele>385.0</ele><time>2026-04-04T16:36:30.732Z</time></trkpt><trkpt lat="43.3919933" lon="13.2096967"><ele>383.6666666666667</ele><time>2026-04-04T16:36:31.727Z</time></trkpt><trkpt lat="43.391935" lon="13.2098333"><ele>382.33333333333337</ele><time>2026-04-04T16:36:32.756Z</time></trkpt><trkpt lat="43.391885" lon="13.209955"><ele>381.0</ele><time>2026-04-04T16:36:33.73Z</time></trkpt><trkpt lat="43.3918517" lon="13.21006"><ele>379.6666666666667</ele><time>2026-04-04T16:36:34.729Z</time></trkpt><trkpt lat="43.39184" lon="13.2101583"><ele>378.33333333333337</ele><time>2026-04-04T16:36:35.729Z</time></trkpt><trkpt lat="43.3918967" lon="13.2102083"><ele>377.0</ele><time>2026-04-04T16:36:36.734Z</time></trkpt><trkpt lat="43.3919567" lon="13.2102383"><ele>377.0</ele><time>2026-04-04T16:36:37.727Z</time></trkpt><trkpt lat="43.3920833" lon="13.2102283"><ele>377.0</ele><time>2026-04-04T16:36:38.728Z</time></trkpt><trkpt lat="43.392235" lon="13.2102183"><ele>377.0</ele><time>2026-04-04T16:36:39.724Z</time></trkpt><trkpt lat="43.3923883" lon="13.21025"><ele>377.0</ele><time>2026-04-04T16:36:40.728Z</time></trkpt><trkpt lat="43.3925333" lon="13.21031"><ele>372.75</ele><time>2026-04-04T16:36:41.728Z</time></trkpt><trkpt lat="43.3926583" lon="13.2104067"><ele>368.5</ele><time>2026-04-04T16:36:42.728Z</time></trkpt><trkpt lat="43.3927517" lon="13.21055"><ele>364.25</ele><time>2026-04-04T16:36:43.73Z</time></trkpt><trkpt lat="43.39282" lon="13.21075"><ele>360.0</ele><time>2026-04-04T16:36:44.73Z</time></trkpt><trkpt lat="43.3928533" lon="13.21097"><ele>357.5</ele><time>2026-04-04T16:36:45.73Z</time></trkpt><trkpt lat="43.392885" lon="13.21118"><ele>355.0</ele><time>2026-04-04T16:36:46.73Z</time></trkpt><trkpt lat="43.39292" lon="13.2113783"><ele>352.5</ele><time>2026-04-04T16:36:47.729Z</time></trkpt><trkpt lat="43.392985" lon="13.211555"><ele>350.0</ele><time>2026-04-04T16:36:48.727Z</time></trkpt><trkpt lat="43.3930733" lon="13.2117"><ele>346.5</ele><time>2026-04-04T16:36:49.731Z</time></trkpt><trkpt lat="43.3931817" lon="13.2118083"><ele>343.0</ele><time>2026-04-04T16:36:50.749Z</time></trkpt><trkpt lat="43.3932967" lon="13.2118783"><ele>339.5</ele><time>2026-04-04T16:36:51.729Z</time></trkpt><trkpt lat="43.393405" lon="13.2119133"><ele>336.0</ele><time>2026-04-04T16:36:52.731Z</time></trkpt><trkpt lat="43.3934917" lon="13.2119317"><ele>336.0</ele><time>2026-04-04T16:36:53.729Z</time></trkpt><trkpt lat="43.3935617" lon="13.211955"><ele>336.0</ele><time>2026-04-04T16:36:54.734Z</time></trkpt><trkpt lat="43.393655" lon="13.212035"><ele>336.0</ele><time>2026-04-04T16:36:56.731Z</time></trkpt><trkpt lat="43.3936333" lon="13.2121233"><ele>336.0</ele><time>2026-04-04T16:36:58.726Z</time></trkpt><trkpt lat="43.393485" lon="13.21214"><ele>336.0</ele><time>2026-04-04T16:37:00.731Z</time></trkpt><trkpt lat="43.393385" lon="13.2121567"><ele>336.0</ele><time>2026-04-04T16:37:01.728Z</time></trkpt><trkpt lat="43.39326" lon="13.2121733"><ele>336.0</ele><time>2026-04-04T16:37:02.731Z</time></trkpt><trkpt lat="43.3931117" lon="13.212185"><ele>336.0</ele><time>2026-04-04T16:37:03.728Z</time></trkpt><trkpt lat="43.3929733" lon="13.2122083"><ele>336.0</ele><time>2026-04-04T16:37:04.731Z</time></trkpt><trkpt lat="43.3928283" lon="13.2122367"><ele>336.75</ele><time>2026-04-04T16:37:05.73Z</time></trkpt><trkpt lat="43.3926833" lon="13.21228"><ele>337.5</ele><time>2026-04-04T16:37:06.727Z</time></trkpt><trkpt lat="43.3925517" lon="13.2123633"><ele>338.25</ele><time>2026-04-04T16:37:07.73Z</time></trkpt><trkpt lat="43.39244" lon="13.2124883"><ele>339.0</ele><time>2026-04-04T16:37:08.741Z</time></trkpt><trkpt lat="43.3923517" lon="13.2126633"><ele>335.3333333333333</ele><time>2026-04-04T16:37:09.729Z</time></trkpt><trkpt lat="43.3922883" lon="13.2128817"><ele>331.66666666666663</ele><time>2026-04-04T16:37:10.729Z</time></trkpt><trkpt lat="43.39226" lon="13.21312"><ele>328.0</ele><time>2026-04-04T16:37:11.734Z</time></trkpt><trkpt lat="43.392265" lon="13.2133417"><ele>327.0</ele><time>2026-04-04T16:37:12.733Z</time></trkpt><trkpt lat="43.392265" lon="13.2135417"><ele>326.0</ele><time>2026-04-04T16:37:13.73Z</time></trkpt><trkpt lat="43.39224" lon="13.2137233"><ele>325.0</ele><time>2026-04-04T16:37:14.73Z</time></trkpt><trkpt lat="43.392185" lon="13.2138983"><ele>324.0</ele><time>2026-04-04T16:37:15.729Z</time></trkpt><trkpt lat="43.3921033" lon="13.2140967"><ele>326.6666666666667</ele><time>2026-04-04T16:37:16.729Z</time></trkpt><trkpt lat="43.3920117" lon="13.2143183"><ele>329.33333333333337</ele><time>2026-04-04T16:37:17.731Z</time></trkpt><trkpt lat="43.3919233" lon="13.2145467"><ele>332.0</ele><time>2026-04-04T16:37:18.732Z</time></trkpt><trkpt lat="43.3918517" lon="13.2147833"><ele>329.6666666666667</ele><time>2026-04-04T16:37:19.73Z</time></trkpt><trkpt lat="43.3918" lon="13.2150417"><ele>327.3333333333333</ele><time>2026-04-04T16:37:20.741Z</time></trkpt><trkpt lat="43.3917733" lon="13.215315"><ele>325.0</ele><time>2026-04-04T16:37:21.728Z</time></trkpt><trkpt lat="43.39176" lon="13.215585"><ele>325.3333333333333</ele><time>2026-04-04T16:37:22.729Z</time></trkpt><trkpt lat="43.3917567" lon="13.215845"><ele>325.6666666666667</ele><time>2026-04-04T16:37:23.724Z</time></trkpt><trkpt lat="43.3917833" lon="13.216105"><ele>326.0</ele><time>2026-04-04T16:37:24.726Z</time></trkpt><trkpt lat="43.3918417" lon="13.2163667"><ele>327.6666666666667</ele><time>2026-04-04T16:37:25.728Z</time></trkpt><trkpt lat="43.3919283" lon="13.2166133"><ele>329.3333333333333</ele><time>2026-04-04T16:37:26.759Z</time></trkpt><trkpt lat="43.3919933" lon="13.21685"><ele>331.0</ele><time>2026-04-04T16:37:27.729Z</time></trkpt><trkpt lat="43.3920333" lon="13.2170733"><ele>331.0</ele><time>2026-04-04T16:37:28.728Z</time></trkpt><trkpt lat="43.3920433" lon="13.217275"><ele>331.0</ele><time>2026-04-04T16:37:29.724Z</time></trkpt><trkpt lat="43.3920317" lon="13.2174683"><ele>331.0</ele><time>2026-04-04T16:37:30.728Z</time></trkpt><trkpt lat="43.3919933" lon="13.2176383"><ele>331.0</ele><time>2026-04-04T16:37:31.729Z</time></trkpt><trkpt lat="43.3919217" lon="13.21777"><ele>330.5</ele><time>2026-04-04T16:37:32.731Z</time></trkpt><trkpt lat="43.3918233" lon="13.21786"><ele>330.0</ele><time>2026-04-04T16:37:33.729Z</time></trkpt><trkpt lat="43.3916917" lon="13.21791"><ele>329.5</ele><time>2026-04-04T16:37:34.724Z</time></trkpt><trkpt lat="43.391505" lon="13.2179283"><ele>329.0</ele><time>2026-04-04T16:37:35.73Z</time></trkpt><trkpt lat="43.3912967" lon="13.217965"><ele>329.0</ele><time>2026-04-04T16:37:36.729Z</time></trkpt><trkpt lat="43.3910783" lon="13.2180183"><ele>329.0</ele><time>2026-04-04T16:37:37.728Z</time></trkpt><trkpt lat="43.3908617" lon="13.2180717"><ele>329.0</ele><time>2026-04-04T16:37:38.73Z</time></trkpt><trkpt lat="43.3906617" lon="13.2181283"><ele>324.0</ele><time>2026-04-04T16:37:39.735Z</time></trkpt><trkpt lat="43.3904733" lon="13.2181917"><ele>319.0</ele><time>2026-04-04T16:37:40.729Z</time></trkpt><trkpt lat="43.3903017" lon="13.2182767"><ele>314.0</ele><time>2026-04-04T16:37:41.73Z</time></trkpt><trkpt lat="43.39014" lon="13.2184067"><ele>314.0</ele><time>2026-04-04T16:37:42.729Z</time></trkpt><trkpt lat="43.39" lon="13.2185867"><ele>314.0</ele><time>2026-04-04T16:37:43.728Z</time></trkpt><trkpt lat="43.3898717" lon="13.2188083"><ele>314.0</ele><time>2026-04-04T16:37:44.739Z</time></trkpt><trkpt lat="43.38975" lon="13.219055"><ele>316.6666666666667</ele><time>2026-04-04T16:37:45.73Z</time></trkpt><trkpt lat="43.3896283" lon="13.2193117"><ele>319.3333333333333</ele><time>2026-04-04T16:37:46.727Z</time></trkpt><trkpt lat="43.38951" lon="13.21956"><ele>322.0</ele><time>2026-04-04T16:37:47.73Z</time></trkpt><trkpt lat="43.3893883" lon="13.2197833"><ele>319.3333333333333</ele><time>2026-04-04T16:37:48.729Z</time></trkpt><trkpt lat="43.389255" lon="13.219955"><ele>316.6666666666667</ele><time>2026-04-04T16:37:49.725Z</time></trkpt><trkpt lat="43.38909" lon="13.22008"><ele>314.0</ele><time>2026-04-04T16:37:50.73Z</time></trkpt><trkpt lat="43.38891" lon="13.2201733"><ele>315.0</ele><time>2026-04-04T16:37:51.729Z</time></trkpt><trkpt lat="43.3887283" lon="13.2202417"><ele>316.0</ele><time>2026-04-04T16:37:52.728Z</time></trkpt><trkpt lat="43.3885517" lon="13.220285"><ele>317.0</ele><time>2026-04-04T16:37:53.73Z</time></trkpt><trkpt lat="43.3883817" lon="13.2203"><ele>317.0</ele><time>2026-04-04T16:37:54.728Z</time></trkpt><trkpt lat="43.388225" lon="13.2202917"><ele>317.0</ele><time>2026-04-04T16:37:55.729Z</time></trkpt><trkpt lat="43.3880833" lon="13.2202467"><ele>317.0</ele><time>2026-04-04T16:37:56.731Z</time></trkpt><trkpt lat="43.3879517" lon="13.2201967"><ele>317.0</ele><time>2026-04-04T16:37:57.726Z</time></trkpt><trkpt lat="43.38783" lon="13.2201867"><ele>317.75</ele><time>2026-04-04T16:37:58.729Z</time></trkpt><trkpt lat="43.3877183" lon="13.220225"><ele>318.5</ele><time>2026-04-04T16:37:59.729Z</time></trkpt><trkpt lat="43.3876167" lon="13.2203217"><ele>319.25</ele><time>2026-04-04T16:38:00.727Z</time></trkpt><trkpt lat="43.38755" lon="13.2204583"><ele>320.0</ele><time>2026-04-04T16:38:01.729Z</time></trkpt><trkpt lat="43.3875383" lon="13.22064"><ele>320.0</ele><time>2026-04-04T16:38:02.753Z</time></trkpt><trkpt lat="43.3875833" lon="13.220835"><ele>320.0</ele><time>2026-04-04T16:38:03.731Z</time></trkpt><trkpt lat="43.3876717" lon="13.22101"><ele>320.0</ele><time>2026-04-04T16:38:04.728Z</time></trkpt><trkpt lat="43.3877833" lon="13.2211633"><ele>320.0</ele><time>2026-04-04T16:38:05.731Z</time></trkpt><trkpt lat="43.3879233" lon="13.22129"><ele>320.0</ele><time>2026-04-04T16:38:06.733Z</time></trkpt><trkpt lat="43.3880767" lon="13.22142"><ele>320.0</ele><time>2026-04-04T16:38:07.728Z</time></trkpt><trkpt lat="43.3882383" lon="13.2215817"><ele>316.6666666666667</ele><time>2026-04-04T16:38:08.728Z</time></trkpt><trkpt lat="43.3883883" lon="13.2217733"><ele>313.3333333333333</ele><time>2026-04-04T16:38:09.728Z</time></trkpt><trkpt lat="43.3885217" lon="13.2219667"><ele>310.0</ele><time>2026-04-04T16:38:10.729Z</time></trkpt><trkpt lat="43.3886483" lon="13.222135"><ele>310.0</ele><time>2026-04-04T16:38:11.728Z</time></trkpt><trkpt lat="43.3887733" lon="13.2222667"><ele>310.0</ele><time>2026-04-04T16:38:12.731Z</time></trkpt><trkpt lat="43.3888733" lon="13.222385"><ele>310.0</ele><time>2026-04-04T16:38:13.727Z</time></trkpt><trkpt lat="43.3889317" lon="13.2225167"><ele>310.0</ele><time>2026-04-04T16:38:14.73Z</time></trkpt><trkpt lat="43.3889533" lon="13.222645"><ele>310.6</ele><time>2026-04-04T16:38:15.73Z</time></trkpt><trkpt lat="43.3889417" lon="13.222765"><ele>311.2</ele><time>2026-04-04T16:38:16.725Z</time></trkpt><trkpt lat="43.38889" lon="13.2228733"><ele>311.8</ele><time>2026-04-04T16:38:17.729Z</time></trkpt><trkpt lat="43.3887917" lon="13.2229633"><ele>312.4</ele><time>2026-04-04T16:38:18.727Z</time></trkpt><trkpt lat="43.3886583" lon="13.2230333"><ele>313.0</ele><time>2026-04-04T16:38:19.727Z</time></trkpt><trkpt lat="43.3885183" lon="13.22313"><ele>311.5</ele><time>2026-04-04T16:38:20.729Z</time></trkpt><trkpt lat="43.388395" lon="13.2232583"><ele>310.0</ele><time>2026-04-04T16:38:21.727Z</time></trkpt><trkpt lat="43.3882967" lon="13.2234017"><ele>308.5</ele><time>2026-04-04T16:38:22.728Z</time></trkpt><trkpt lat="43.388235" lon="13.2235883"><ele>307.0</ele><time>2026-04-04T16:38:23.729Z</time></trkpt><trkpt lat="43.3882033" lon="13.2238067"><ele>304.0</ele><time>2026-04-04T16:38:24.729Z</time></trkpt><trkpt lat="43.3881783" lon="13.224025"><ele>301.0</ele><time>2026-04-04T16:38:25.728Z</time></trkpt><trkpt lat="43.388155" lon="13.2242333"><ele>298.0</ele><time>2026-04-04T16:38:26.728Z</time></trkpt><trkpt lat="43.3881017" lon="13.22442"><ele>298.0</ele><time>2026-04-04T16:38:27.725Z</time></trkpt><trkpt lat="43.3880233" lon="13.2245683"><ele>298.0</ele><time>2026-04-04T16:38:28.728Z</time></trkpt><trkpt lat="43.38791" lon="13.2246633"><ele>298.0</ele><time>2026-04-04T16:38:29.73Z</time></trkpt><trkpt lat="43.3877767" lon="13.2247117"><ele>298.0</ele><time>2026-04-04T16:38:30.728Z</time></trkpt><trkpt lat="43.3876333" lon="13.2247183"><ele>298.75</ele><time>2026-04-04T16:38:31.726Z</time></trkpt><trkpt lat="43.3874967" lon="13.2246967"><ele>299.5</ele><time>2026-04-04T16:38:32.73Z</time></trkpt><trkpt lat="43.3873717" lon="13.224645"><ele>300.25</ele><time>2026-04-04T16:38:33.729Z</time></trkpt><trkpt lat="43.3872617" lon="13.22458"><ele>301.0</ele><time>2026-04-04T16:38:34.727Z</time></trkpt><trkpt lat="43.38716" lon="13.2245117"><ele>302.0</ele><time>2026-04-04T16:38:35.725Z</time></trkpt><trkpt lat="43.3870583" lon="13.224475"><ele>303.0</ele><time>2026-04-04T16:38:36.727Z</time></trkpt><trkpt lat="43.38697" lon="13.2244917"><ele>304.0</ele><time>2026-04-04T16:38:37.725Z</time></trkpt><trkpt lat="43.3869017" lon="13.224555"><ele>305.0</ele><time>2026-04-04T16:38:38.731Z</time></trkpt><trkpt lat="43.3868333" lon="13.22464"><ele>306.0</ele><time>2026-04-04T16:38:39.726Z</time></trkpt><trkpt lat="43.3867733" lon="13.2247567"><ele>304.0</ele><time>2026-04-04T16:38:40.73Z</time></trkpt><trkpt lat="43.3867333" lon="13.2249517"><ele>302.0</ele><time>2026-04-04T16:38:41.729Z</time></trkpt><trkpt lat="43.3867117" lon="13.2252083"><ele>300.0</ele><time>2026-04-04T16:38:42.724Z</time></trkpt><trkpt lat="43.38668" lon="13.2254683"><ele>298.3333333333333</ele><time>2026-04-04T16:38:43.728Z</time></trkpt><trkpt lat="43.38664" lon="13.2257617"><ele>296.66666666666663</ele><time>2026-04-04T16:38:44.729Z</time></trkpt><trkpt lat="43.3865883" lon="13.2260467"><ele>295.0</ele><time>2026-04-04T16:38:45.726Z</time></trkpt><trkpt lat="43.38654" lon="13.2263117"><ele>295.0</ele><time>2026-04-04T16:38:46.728Z</time></trkpt><trkpt lat="43.3865217" lon="13.2265867"><ele>295.0</ele><time>2026-04-04T16:38:47.729Z</time></trkpt><trkpt lat="43.3865317" lon="13.2268683"><ele>295.0</ele><time>2026-04-04T16:38:48.73Z</time></trkpt><trkpt lat="43.3865533" lon="13.2271333"><ele>295.66666666666663</ele><time>2026-04-04T16:38:49.73Z</time></trkpt><trkpt lat="43.3865667" lon="13.2273733"><ele>296.3333333333333</ele><time>2026-04-04T16:38:50.727Z</time></trkpt><trkpt lat="43.3865517" lon="13.2275917"><ele>297.0</ele><time>2026-04-04T16:38:51.726Z</time></trkpt><trkpt lat="43.3865083" lon="13.2277967"><ele>297.0</ele><time>2026-04-04T16:38:52.728Z</time></trkpt><trkpt lat="43.386455" lon="13.227995"><ele>297.0</ele><time>2026-04-04T16:38:53.728Z</time></trkpt><trkpt lat="43.3864033" lon="13.2281933"><ele>297.0</ele><time>2026-04-04T16:38:54.729Z</time></trkpt><trkpt lat="43.386365" lon="13.2284017"><ele>296.25</ele><time>2026-04-04T16:38:55.729Z</time></trkpt><trkpt lat="43.3863467" lon="13.2286083"><ele>295.5</ele><time>2026-04-04T16:38:56.731Z</time></trkpt><trkpt lat="43.3863583" lon="13.2288083"><ele>294.75</ele><time>2026-04-04T16:38:57.729Z</time></trkpt><trkpt lat="43.386375" lon="13.228985"><ele>294.0</ele><time>2026-04-04T16:38:58.725Z</time></trkpt><trkpt lat="43.3863967" lon="13.2291417"><ele>295.4</ele><time>2026-04-04T16:38:59.728Z</time></trkpt><trkpt lat="43.3864167" lon="13.229285"><ele>296.79999999999995</ele><time>2026-04-04T16:39:00.731Z</time></trkpt><trkpt lat="43.386445" lon="13.2294167"><ele>298.20000000000005</ele><time>2026-04-04T16:39:01.727Z</time></trkpt><trkpt lat="43.38647" lon="13.2295433"><ele>299.6</ele><time>2026-04-04T16:39:02.727Z</time></trkpt><trkpt lat="43.3865" lon="13.2296617"><ele>301.0</ele><time>2026-04-04T16:39:03.726Z</time></trkpt><trkpt lat="43.3865283" lon="13.2297717"><ele>302.5</ele><time>2026-04-04T16:39:04.727Z</time></trkpt><trkpt lat="43.3865533" lon="13.229875"><ele>304.0</ele><time>2026-04-04T16:39:05.731Z</time></trkpt><trkpt lat="43.3865783" lon="13.2299617"><ele>305.5</ele><time>2026-04-04T16:39:06.729Z</time></trkpt><trkpt lat="43.3866283" lon="13.23009"><ele>307.0</ele><time>2026-04-04T16:39:08.73Z</time></trkpt><trkpt lat="43.3866667" lon="13.2301717"><ele>308.5</ele><time>2026-04-04T16:39:10.731Z</time></trkpt><trkpt lat="43.38664" lon="13.2302633"><ele>310.0</ele><time>2026-04-04T16:39:13.729Z</time></trkpt><trkpt lat="43.3865533" lon="13.2301617"><ele>310.0</ele><time>2026-04-04T16:39:16.729Z</time></trkpt><trkpt lat="43.38648" lon="13.2300283"><ele>310.0</ele><time>2026-04-04T16:39:18.73Z</time></trkpt><trkpt lat="43.38644" lon="13.2299583"><ele>310.0</ele><time>2026-04-04T16:39:19.732Z</time></trkpt><trkpt lat="43.38639" lon="13.2298883"><ele>310.0</ele><time>2026-04-04T16:39:20.732Z</time></trkpt><trkpt lat="43.3863383" lon="13.229835"><ele>310.0</ele><time>2026-04-04T16:39:21.728Z</time></trkpt><trkpt lat="43.3862767" lon="13.2297967"><ele>310.0</ele><time>2026-04-04T16:39:22.728Z</time></trkpt><trkpt lat="43.3862067" lon="13.2297583"><ele>312.6</ele><time>2026-04-04T16:39:23.729Z</time></trkpt><trkpt lat="43.3861283" lon="13.2297333"><ele>315.2</ele><time>2026-04-04T16:39:24.73Z</time></trkpt><trkpt lat="43.3860383" lon="13.22971"><ele>317.79999999999995</ele><time>2026-04-04T16:39:25.728Z</time></trkpt><trkpt lat="43.38594" lon="13.22969"><ele>320.4</ele><time>2026-04-04T16:39:26.728Z</time></trkpt><trkpt lat="43.3858433" lon="13.2296517"><ele>323.0</ele><time>2026-04-04T16:39:27.727Z</time></trkpt><trkpt lat="43.385755" lon="13.2295933"><ele>323.0</ele><time>2026-04-04T16:39:28.725Z</time></trkpt><trkpt lat="43.3856733" lon="13.2295167"><ele>323.0</ele><time>2026-04-04T16:39:29.728Z</time></trkpt><trkpt lat="43.3856017" lon="13.229445"><ele>323.0</ele><time>2026-04-04T16:39:30.725Z</time></trkpt><trkpt lat="43.3855433" lon="13.2293733"><ele>323.0</ele><time>2026-04-04T16:39:31.728Z</time></trkpt><trkpt lat="43.3854883" lon="13.2292967"><ele>323.0</ele><time>2026-04-04T16:39:32.728Z</time></trkpt><trkpt lat="43.3854317" lon="13.22921"><ele>323.0</ele><time>2026-04-04T16:39:33.726Z</time></trkpt><trkpt lat="43.3853717" lon="13.2291267"><ele>323.6666666666667</ele><time>2026-04-04T16:39:34.731Z</time></trkpt><trkpt lat="43.3853167" lon="13.2290483"><ele>324.33333333333337</ele><time>2026-04-04T16:39:35.731Z</time></trkpt><trkpt lat="43.3852667" lon="13.2289683"><ele>325.0</ele><time>2026-04-04T16:39:36.726Z</time></trkpt><trkpt lat="43.3852067" lon="13.2288867"><ele>325.6666666666667</ele><time>2026-04-04T16:39:37.728Z</time></trkpt><trkpt lat="43.385155" lon="13.228805"><ele>326.3333333333333</ele><time>2026-04-04T16:39:38.729Z</time></trkpt><trkpt lat="43.385105" lon="13.22872"><ele>327.0</ele><time>2026-04-04T16:39:39.729Z</time></trkpt><trkpt lat="43.3850567" lon="13.2286433"><ele>328.8</ele><time>2026-04-04T16:39:40.726Z</time></trkpt><trkpt lat="43.3850033" lon="13.22856"><ele>330.6</ele><time>2026-04-04T16:39:41.73Z</time></trkpt><trkpt lat="43.3849567" lon="13.2284583"><ele>332.40000000000003</ele><time>2026-04-04T16:39:42.728Z</time></trkpt><trkpt lat="43.3849183" lon="13.228345"><ele>334.20000000000005</ele><time>2026-04-04T16:39:43.727Z</time></trkpt><trkpt lat="43.384865" lon="13.228225"><ele>336.0</ele><time>2026-04-04T16:39:44.731Z</time></trkpt><trkpt lat="43.3848117" lon="13.228115"><ele>336.20000000000005</ele><time>2026-04-04T16:39:45.728Z</time></trkpt><trkpt lat="43.38476" lon="13.2280067"><ele>336.40000000000003</ele><time>2026-04-04T16:39:46.73Z</time></trkpt><trkpt lat="43.3847033" lon="13.2279017"><ele>336.6</ele><time>2026-04-04T16:39:47.729Z</time></trkpt><trkpt lat="43.3846467" lon="13.2278"><ele>336.8</ele><time>2026-04-04T16:39:48.731Z</time></trkpt><trkpt lat="43.384575" lon="13.22769"><ele>337.0</ele><time>2026-04-04T16:39:49.727Z</time></trkpt><trkpt lat="43.3845083" lon="13.227585"><ele>337.6</ele><time>2026-04-04T16:39:50.738Z</time></trkpt><trkpt lat="43.3844367" lon="13.2274783"><ele>338.20000000000005</ele><time>2026-04-04T16:39:51.729Z</time></trkpt><trkpt lat="43.3843617" lon="13.2273667"><ele>338.8</ele><time>2026-04-04T16:39:52.727Z</time></trkpt><trkpt lat="43.384285" lon="13.22725"><ele>339.4</ele><time>2026-04-04T16:39:53.737Z</time></trkpt><trkpt lat="43.3842067" lon="13.2271383"><ele>340.0</ele><time>2026-04-04T16:39:54.73Z</time></trkpt><trkpt lat="43.3841233" lon="13.227035"><ele>341.4</ele><time>2026-04-04T16:39:55.732Z</time></trkpt><trkpt lat="43.3840283" lon="13.2269533"><ele>342.8</ele><time>2026-04-04T16:39:56.731Z</time></trkpt><trkpt lat="43.3839233" lon="13.2268967"><ele>344.20000000000005</ele><time>2026-04-04T16:39:57.726Z</time></trkpt><trkpt lat="43.3838167" lon="13.2268817"><ele>345.6</ele><time>2026-04-04T16:39:58.728Z</time></trkpt><trkpt lat="43.3837067" lon="13.226895"><ele>347.0</ele><time>2026-04-04T16:39:59.727Z</time></trkpt><trkpt lat="43.3836017" lon="13.2269417"><ele>350.0</ele><time>2026-04-04T16:40:00.727Z</time></trkpt><trkpt lat="43.3835033" lon="13.2269967"><ele>353.0</ele><time>2026-04-04T16:40:01.728Z</time></trkpt><trkpt lat="43.383405" lon="13.22705"><ele>356.0</ele><time>2026-04-04T16:40:02.728Z</time></trkpt><trkpt lat="43.38329" lon="13.2270983"><ele>359.0</ele><time>2026-04-04T16:40:03.726Z</time></trkpt><trkpt lat="43.3831567" lon="13.227135"><ele>362.0</ele><time>2026-04-04T16:40:04.724Z</time></trkpt><trkpt lat="43.3830133" lon="13.227155"><ele>365.0</ele><time>2026-04-04T16:40:05.723Z</time></trkpt><trkpt lat="43.38284" lon="13.227165"><ele>368.0</ele><time>2026-04-04T16:40:06.729Z</time></trkpt><trkpt lat="43.3826117" lon="13.22715"><ele>368.0</ele><time>2026-04-04T16:40:07.73Z</time></trkpt><trkpt lat="43.3823833" lon="13.2271367"><ele>368.0</ele><time>2026-04-04T16:40:08.752Z</time></trkpt><trkpt lat="43.3821517" lon="13.2271383"><ele>374.0</ele><time>2026-04-04T16:40:09.73Z</time></trkpt><trkpt lat="43.38192" lon="13.227155"><ele>380.0</ele><time>2026-04-04T16:40:10.729Z</time></trkpt><trkpt lat="43.3816933" lon="13.2271883"><ele>380.0</ele><time>2026-04-04T16:40:11.73Z</time></trkpt><trkpt lat="43.3815" lon="13.2272267"><ele>380.0</ele><time>2026-04-04T16:40:12.727Z</time></trkpt><trkpt lat="43.3813383" lon="13.2272683"><ele>380.0</ele><time>2026-04-04T16:40:13.726Z</time></trkpt><trkpt lat="43.381205" lon="13.22733"><ele>381.5</ele><time>2026-04-04T16:40:14.728Z</time></trkpt><trkpt lat="43.3810967" lon="13.2274233"><ele>383.0</ele><time>2026-04-04T16:40:15.729Z</time></trkpt><trkpt lat="43.3810017" lon="13.2275717"><ele>384.5</ele><time>2026-04-04T16:40:16.729Z</time></trkpt><trkpt lat="43.3809167" lon="13.2277533"><ele>386.0</ele><time>2026-04-04T16:40:17.728Z</time></trkpt><trkpt lat="43.3808367" lon="13.227915"><ele>386.0</ele><time>2026-04-04T16:40:18.729Z</time></trkpt><trkpt lat="43.3807533" lon="13.2280367"><ele>386.0</ele><time>2026-04-04T16:40:19.733Z</time></trkpt><trkpt lat="43.3806733" lon="13.2281283"><ele>386.0</ele><time>2026-04-04T16:40:20.731Z</time></trkpt><trkpt lat="43.3806067" lon="13.228205"><ele>386.0</ele><time>2026-04-04T16:40:21.728Z</time></trkpt><trkpt lat="43.3805517" lon="13.22827"><ele>386.0</ele><time>2026-04-04T16:40:22.726Z</time></trkpt><trkpt lat="43.3805283" lon="13.228375"><ele>386.0</ele><time>2026-04-04T16:40:23.731Z</time></trkpt><trkpt lat="43.3804917" lon="13.2284933"><ele>386.0</ele><time>2026-04-04T16:40:24.73Z</time></trkpt><trkpt lat="43.3804133" lon="13.2286583"><ele>386.0</ele><time>2026-04-04T16:40:25.726Z</time></trkpt><trkpt lat="43.3803083" lon="13.22884"><ele>386.0</ele><time>2026-04-04T16:40:26.756Z</time></trkpt><trkpt lat="43.3802183" lon="13.22902"><ele>386.0</ele><time>2026-04-04T16:40:27.733Z</time></trkpt><trkpt lat="43.380155" lon="13.22923"><ele>386.0</ele><time>2026-04-04T16:40:28.73Z</time></trkpt><trkpt lat="43.3801233" lon="13.2294633"><ele>386.0</ele><time>2026-04-04T16:40:29.728Z</time></trkpt><trkpt lat="43.380135" lon="13.2297317"><ele>383.0</ele><time>2026-04-04T16:40:30.741Z</time></trkpt><trkpt lat="43.38017" lon="13.23"><ele>380.0</ele><time>2026-04-04T16:40:31.729Z</time></trkpt><trkpt lat="43.380225" lon="13.23024"><ele>377.0</ele><time>2026-04-04T16:40:32.727Z</time></trkpt><trkpt lat="43.3802867" lon="13.2304533"><ele>377.0</ele><time>2026-04-04T16:40:33.727Z</time></trkpt><trkpt lat="43.3803433" lon="13.2306383"><ele>377.0</ele><time>2026-04-04T16:40:34.729Z</time></trkpt><trkpt lat="43.380375" lon="13.230805"><ele>377.0</ele><time>2026-04-04T16:40:35.728Z</time></trkpt><trkpt lat="43.3803767" lon="13.230965"><ele>377.0</ele><time>2026-04-04T16:40:36.728Z</time></trkpt><trkpt lat="43.3803283" lon="13.2310967"><ele>375.33333333333337</ele><time>2026-04-04T16:40:37.729Z</time></trkpt><trkpt lat="43.3802417" lon="13.2312183"><ele>373.6666666666667</ele><time>2026-04-04T16:40:38.731Z</time></trkpt><trkpt lat="43.3801083" lon="13.231355"><ele>372.0</ele><time>2026-04-04T16:40:39.729Z</time></trkpt><trkpt lat="43.3799767" lon="13.2315017"><ele>368.3333333333333</ele><time>2026-04-04T16:40:40.724Z</time></trkpt><trkpt lat="43.379855" lon="13.2316667"><ele>364.66666666666663</ele><time>2026-04-04T16:40:41.729Z</time></trkpt><trkpt lat="43.3797583" lon="13.2318767"><ele>361.0</ele><time>2026-04-04T16:40:42.725Z</time></trkpt><trkpt lat="43.3797017" lon="13.23211"><ele>358.3333333333333</ele><time>2026-04-04T16:40:43.727Z</time></trkpt><trkpt lat="43.3796867" lon="13.2323717"><ele>355.6666666666667</ele><time>2026-04-04T16:40:44.73Z</time></trkpt><trkpt lat="43.3797033" lon="13.2326667"><ele>353.0</ele><time>2026-04-04T16:40:45.726Z</time></trkpt><trkpt lat="43.3797367" lon="13.232955"><ele>351.0</ele><time>2026-04-04T16:40:46.728Z</time></trkpt><trkpt lat="43.37977" lon="13.233225"><ele>349.0</ele><time>2026-04-04T16:40:47.731Z</time></trkpt><trkpt lat="43.3797883" lon="13.2334817"><ele>347.0</ele><time>2026-04-04T16:40:48.728Z</time></trkpt><trkpt lat="43.379775" lon="13.2337133"><ele>347.0</ele><time>2026-04-04T16:40:49.728Z</time></trkpt><trkpt lat="43.3797183" lon="13.23394"><ele>347.0</ele><time>2026-04-04T16:40:50.73Z</time></trkpt><trkpt lat="43.3796133" lon="13.2341833"><ele>347.0</ele><time>2026-04-04T16:40:51.729Z</time></trkpt><trkpt lat="43.3794717" lon="13.2344283"><ele>348.0</ele><time>2026-04-04T16:40:52.73Z</time></trkpt><trkpt lat="43.3793317" lon="13.23468"><ele>349.0</ele><time>2026-04-04T16:40:53.73Z</time></trkpt><trkpt lat="43.3791983" lon="13.2349283"><ele>347.0</ele><time>2026-04-04T16:40:54.729Z</time></trkpt><trkpt lat="43.3790817" lon="13.2351733"><ele>345.0</ele><time>2026-04-04T16:40:55.733Z</time></trkpt><trkpt lat="43.3789983" lon="13.2354233"><ele>343.0</ele><time>2026-04-04T16:40:56.728Z</time></trkpt><trkpt lat="43.3789383" lon="13.2356983"><ele>340.0</ele><time>2026-04-04T16:40:57.741Z</time></trkpt><trkpt lat="43.378905" lon="13.2360067"><ele>337.0</ele><time>2026-04-04T16:40:58.732Z</time></trkpt><trkpt lat="43.3788883" lon="13.23632"><ele>335.3333333333333</ele><time>2026-04-04T16:40:59.729Z</time></trkpt><trkpt lat="43.3788717" lon="13.2366233"><ele>333.6666666666667</ele><time>2026-04-04T16:41:00.728Z</time></trkpt><trkpt lat="43.3788617" lon="13.2369217"><ele>332.0</ele><time>2026-04-04T16:41:01.73Z</time></trkpt><trkpt lat="43.3788517" lon="13.23723"><ele>329.0</ele><time>2026-04-04T16:41:02.734Z</time></trkpt><trkpt lat="43.37884" lon="13.23754"><ele>326.0</ele><time>2026-04-04T16:41:03.731Z</time></trkpt><trkpt lat="43.378835" lon="13.2378383"><ele>323.0</ele><time>2026-04-04T16:41:04.729Z</time></trkpt><trkpt lat="43.3788417" lon="13.2381317"><ele>321.6666666666667</ele><time>2026-04-04T16:41:05.727Z</time></trkpt><trkpt lat="43.3788617" lon="13.2384083"><ele>320.3333333333333</ele><time>2026-04-04T16:41:06.727Z</time></trkpt><trkpt lat="43.3788833" lon="13.238665"><ele>319.0</ele><time>2026-04-04T16:41:07.729Z</time></trkpt><trkpt lat="43.3789117" lon="13.2389167"><ele>318.0</ele><time>2026-04-04T16:41:08.726Z</time></trkpt><trkpt lat="43.37894" lon="13.2391667"><ele>317.0</ele><time>2026-04-04T16:41:09.724Z</time></trkpt><trkpt lat="43.3789833" lon="13.2394067"><ele>316.0</ele><time>2026-04-04T16:41:10.727Z</time></trkpt><trkpt lat="43.3790133" lon="13.2396433"><ele>314.0</ele><time>2026-04-04T16:41:11.725Z</time></trkpt><trkpt lat="43.379025" lon="13.2398833"><ele>312.0</ele><time>2026-04-04T16:41:12.725Z</time></trkpt><trkpt lat="43.3790367" lon="13.24011"><ele>310.0</ele><time>2026-04-04T16:41:13.728Z</time></trkpt><trkpt lat="43.379055" lon="13.2403283"><ele>310.0</ele><time>2026-04-04T16:41:14.728Z</time></trkpt><trkpt lat="43.3791" lon="13.240535"><ele>310.0</ele><time>2026-04-04T16:41:15.73Z</time></trkpt><trkpt lat="43.3791933" lon="13.2407533"><ele>310.0</ele><time>2026-04-04T16:41:16.728Z</time></trkpt><trkpt lat="43.3793167" lon="13.240975"><ele>308.0</ele><time>2026-04-04T16:41:17.729Z</time></trkpt><trkpt lat="43.37945" lon="13.2411867"><ele>306.0</ele><time>2026-04-04T16:41:18.728Z</time></trkpt><trkpt lat="43.3795867" lon="13.24139"><ele>304.0</ele><time>2026-04-04T16:41:19.729Z</time></trkpt><trkpt lat="43.379725" lon="13.2415833"><ele>301.66666666666663</ele><time>2026-04-04T16:41:20.732Z</time></trkpt><trkpt lat="43.3798533" lon="13.2417683"><ele>299.3333333333333</ele><time>2026-04-04T16:41:21.727Z</time></trkpt><trkpt lat="43.37998" lon="13.2419483"><ele>297.0</ele><time>2026-04-04T16:41:22.73Z</time></trkpt><trkpt lat="43.38007" lon="13.2421467"><ele>295.0</ele><time>2026-04-04T16:41:23.728Z</time></trkpt><trkpt lat="43.3801283" lon="13.2423717"><ele>293.0</ele><time>2026-04-04T16:41:24.724Z</time></trkpt><trkpt lat="43.380175" lon="13.2426367"><ele>291.0</ele><time>2026-04-04T16:41:25.729Z</time></trkpt><trkpt lat="43.3802167" lon="13.2429267"><ele>285.5</ele><time>2026-04-04T16:41:26.728Z</time></trkpt><trkpt lat="43.3802667" lon="13.24324"><ele>280.0</ele><time>2026-04-04T16:41:27.727Z</time></trkpt><trkpt lat="43.38032" lon="13.2435583"><ele>280.0</ele><time>2026-04-04T16:41:28.726Z</time></trkpt><trkpt lat="43.3803783" lon="13.2438583"><ele>280.0</ele><time>2026-04-04T16:41:29.728Z</time></trkpt><trkpt lat="43.3804517" lon="13.24415"><ele>283.5</ele><time>2026-04-04T16:41:30.731Z</time></trkpt><trkpt lat="43.3805533" lon="13.2444283"><ele>287.0</ele><time>2026-04-04T16:41:31.731Z</time></trkpt><trkpt lat="43.3806783" lon="13.24469"><ele>283.33333333333337</ele><time>2026-04-04T16:41:32.728Z</time></trkpt><trkpt lat="43.380805" lon="13.2449267"><ele>279.6666666666667</ele><time>2026-04-04T16:41:33.727Z</time></trkpt><trkpt lat="43.38092" lon="13.2451417"><ele>276.0</ele><time>2026-04-04T16:41:34.725Z</time></trkpt><trkpt lat="43.3810217" lon="13.2453433"><ele>276.0</ele><time>2026-04-04T16:41:35.728Z</time></trkpt><trkpt lat="43.381115" lon="13.2455217"><ele>276.0</ele><time>2026-04-04T16:41:36.73Z</time></trkpt><trkpt lat="43.3811883" lon="13.2456817"><ele>276.0</ele><time>2026-04-04T16:41:37.728Z</time></trkpt><trkpt lat="43.3812233" lon="13.2458217"><ele>276.0</ele><time>2026-04-04T16:41:38.734Z</time></trkpt><trkpt lat="43.3812317" lon="13.245945"><ele>274.6</ele><time>2026-04-04T16:41:39.728Z</time></trkpt><trkpt lat="43.3812117" lon="13.2460633"><ele>273.20000000000005</ele><time>2026-04-04T16:41:40.727Z</time></trkpt><trkpt lat="43.38114" lon="13.2461167"><ele>271.79999999999995</ele><time>2026-04-04T16:41:41.731Z</time></trkpt><trkpt lat="43.38105" lon="13.246115"><ele>270.4</ele><time>2026-04-04T16:41:42.728Z</time></trkpt><trkpt lat="43.3809367" lon="13.2460667"><ele>269.0</ele><time>2026-04-04T16:41:43.726Z</time></trkpt><trkpt lat="43.3807883" lon="13.2459683"><ele>269.0</ele><time>2026-04-04T16:41:44.729Z</time></trkpt><trkpt lat="43.3806117" lon="13.245845"><ele>269.0</ele><time>2026-04-04T16:41:45.726Z</time></trkpt><trkpt lat="43.380425" lon="13.2457167"><ele>269.0</ele><time>2026-04-04T16:41:46.727Z</time></trkpt><trkpt lat="43.3802533" lon="13.245595"><ele>267.0</ele><time>2026-04-04T16:41:47.729Z</time></trkpt><trkpt lat="43.380095" lon="13.24549"><ele>265.0</ele><time>2026-04-04T16:41:48.732Z</time></trkpt><trkpt lat="43.379945" lon="13.24541"><ele>263.0</ele><time>2026-04-04T16:41:49.726Z</time></trkpt><trkpt lat="43.3798" lon="13.2453567"><ele>259.5</ele><time>2026-04-04T16:41:50.73Z</time></trkpt><trkpt lat="43.3796533" lon="13.24534"><ele>256.0</ele><time>2026-04-04T16:41:51.728Z</time></trkpt><trkpt lat="43.3795183" lon="13.2453667"><ele>252.5</ele><time>2026-04-04T16:41:52.728Z</time></trkpt><trkpt lat="43.3793933" lon="13.24542"><ele>249.0</ele><time>2026-04-04T16:41:53.728Z</time></trkpt><trkpt lat="43.3792967" lon="13.24554"><ele>249.25</ele><time>2026-04-04T16:41:54.727Z</time></trkpt><trkpt lat="43.3792417" lon="13.2457"><ele>249.5</ele><time>2026-04-04T16:41:55.729Z</time></trkpt><trkpt lat="43.3792417" lon="13.2458817"><ele>249.75</ele><time>2026-04-04T16:41:56.733Z</time></trkpt><trkpt lat="43.3793083" lon="13.2460817"><ele>250.0</ele><time>2026-04-04T16:41:57.728Z</time></trkpt><trkpt lat="43.3794217" lon="13.2462917"><ele>248.33333333333331</ele><time>2026-04-04T16:41:58.728Z</time></trkpt><trkpt lat="43.3795133" lon="13.2465083"><ele>246.66666666666669</ele><time>2026-04-04T16:41:59.73Z</time></trkpt><trkpt lat="43.3795583" lon="13.246735"><ele>245.0</ele><time>2026-04-04T16:42:00.744Z</time></trkpt><trkpt lat="43.3795583" lon="13.246975"><ele>245.0</ele><time>2026-04-04T16:42:01.725Z</time></trkpt><trkpt lat="43.3795333" lon="13.2472467"><ele>245.0</ele><time>2026-04-04T16:42:02.73Z</time></trkpt><trkpt lat="43.37949" lon="13.24752"><ele>245.0</ele><time>2026-04-04T16:42:03.73Z</time></trkpt><trkpt lat="43.3794333" lon="13.2477683"><ele>243.66666666666669</ele><time>2026-04-04T16:42:04.727Z</time></trkpt><trkpt lat="43.37935" lon="13.24799"><ele>242.33333333333331</ele><time>2026-04-04T16:42:05.732Z</time></trkpt><trkpt lat="43.379255" lon="13.2481783"><ele>241.0</ele><time>2026-04-04T16:42:06.73Z</time></trkpt><trkpt lat="43.37917" lon="13.24835"><ele>240.75</ele><time>2026-04-04T16:42:07.725Z</time></trkpt><trkpt lat="43.3791283" lon="13.248525"><ele>240.5</ele><time>2026-04-04T16:42:08.728Z</time></trkpt><trkpt lat="43.3791317" lon="13.248715"><ele>240.25</ele><time>2026-04-04T16:42:09.731Z</time></trkpt><trkpt lat="43.37918" lon="13.248925"><ele>240.0</ele><time>2026-04-04T16:42:10.727Z</time></trkpt><trkpt lat="43.3792617" lon="13.2491583"><ele>239.66666666666669</ele><time>2026-04-04T16:42:11.727Z</time></trkpt><trkpt lat="43.379345" lon="13.2494133"><ele>239.33333333333334</ele><time>2026-04-04T16:42:12.726Z</time></trkpt><trkpt lat="43.37941" lon="13.2496817"><ele>239.0</ele><time>2026-04-04T16:42:13.727Z</time></trkpt><trkpt lat="43.3794383" lon="13.2499583"><ele>238.66666666666669</ele><time>2026-04-04T16:42:14.732Z</time></trkpt><trkpt lat="43.3794133" lon="13.2502383"><ele>238.33333333333331</ele><time>2026-04-04T16:42:15.727Z</time></trkpt><trkpt lat="43.379355" lon="13.25052"><ele>238.0</ele><time>2026-04-04T16:42:16.728Z</time></trkpt><trkpt lat="43.379285" lon="13.25082"><ele>235.0</ele><time>2026-04-04T16:42:17.728Z</time></trkpt><trkpt lat="43.3792217" lon="13.2511417"><ele>232.0</ele><time>2026-04-04T16:42:18.728Z</time></trkpt><trkpt lat="43.3791817" lon="13.251495"><ele>232.0</ele><time>2026-04-04T16:42:19.729Z</time></trkpt><trkpt lat="43.379155" lon="13.251855"><ele>232.0</ele><time>2026-04-04T16:42:20.728Z</time></trkpt><trkpt lat="43.379135" lon="13.2522133"><ele>233.5</ele><time>2026-04-04T16:42:21.731Z</time></trkpt><trkpt lat="43.3791117" lon="13.2525517"><ele>235.0</ele><time>2026-04-04T16:42:22.728Z</time></trkpt><trkpt lat="43.379085" lon="13.2528667"><ele>236.33333333333331</ele><time>2026-04-04T16:42:23.728Z</time></trkpt><trkpt lat="43.379055" lon="13.2531533"><ele>237.66666666666669</ele><time>2026-04-04T16:42:24.73Z</time></trkpt><trkpt lat="43.3789983" lon="13.2534"><ele>239.0</ele><time>2026-04-04T16:42:25.73Z</time></trkpt><trkpt lat="43.378925" lon="13.2536117"><ele>240.25</ele><time>2026-04-04T16:42:26.727Z</time></trkpt><trkpt lat="43.3788317" lon="13.2537867"><ele>241.5</ele><time>2026-04-04T16:42:27.727Z</time></trkpt><trkpt lat="43.37874" lon="13.25394"><ele>242.75</ele><time>2026-04-04T16:42:28.726Z</time></trkpt><trkpt lat="43.3786583" lon="13.2540783"><ele>244.0</ele><time>2026-04-04T16:42:29.727Z</time></trkpt><trkpt lat="43.378585" lon="13.254195"><ele>244.0</ele><time>2026-04-04T16:42:30.73Z</time></trkpt><trkpt lat="43.378515" lon="13.2542983"><ele>243.99999999999997</ele><time>2026-04-04T16:42:31.731Z</time></trkpt><trkpt lat="43.3784533" lon="13.2543817"><ele>243.99999999999997</ele><time>2026-04-04T16:42:32.728Z</time></trkpt><trkpt lat="43.378395" lon="13.254445"><ele>244.0</ele><time>2026-04-04T16:42:33.726Z</time></trkpt><trkpt lat="43.3782983" lon="13.254395"><ele>244.0</ele><time>2026-04-04T16:42:35.728Z</time></trkpt><trkpt lat="43.3782133" lon="13.25429"><ele>244.0</ele><time>2026-04-04T16:42:37.727Z</time></trkpt><trkpt lat="43.3781433" lon="13.254165"><ele>243.99999999999997</ele><time>2026-04-04T16:42:39.728Z</time></trkpt><trkpt lat="43.378155" lon="13.2540067"><ele>243.99999999999997</ele><time>2026-04-04T16:42:41.726Z</time></trkpt><trkpt lat="43.3781933" lon="13.253925"><ele>244.0</ele><time>2026-04-04T16:42:42.728Z</time></trkpt><trkpt lat="43.37824" lon="13.2538433"><ele>244.0</ele><time>2026-04-04T16:42:43.726Z</time></trkpt><trkpt lat="43.3782983" lon="13.2537617"><ele>244.49999999999997</ele><time>2026-04-04T16:42:44.726Z</time></trkpt><trkpt lat="43.37836" lon="13.2536867"><ele>245.0</ele><time>2026-04-04T16:42:45.726Z</time></trkpt><trkpt lat="43.37841" lon="13.2536"><ele>245.5</ele><time>2026-04-04T16:42:46.727Z</time></trkpt><trkpt lat="43.3784633" lon="13.253515"><ele>246.0</ele><time>2026-04-04T16:42:47.725Z</time></trkpt><trkpt lat="43.3785167" lon="13.2534267"><ele>246.49999999999997</ele><time>2026-04-04T16:42:48.727Z</time></trkpt><trkpt lat="43.3785667" lon="13.2533317"><ele>247.0</ele><time>2026-04-04T16:42:49.727Z</time></trkpt><trkpt lat="43.3786117" lon="13.253235"><ele>246.99999999999997</ele><time>2026-04-04T16:42:50.728Z</time></trkpt><trkpt lat="43.378645" lon="13.2531383"><ele>247.0</ele><time>2026-04-04T16:42:51.726Z</time></trkpt><trkpt lat="43.3786667" lon="13.253045"><ele>247.0</ele><time>2026-04-04T16:42:52.727Z</time></trkpt><trkpt lat="43.3786783" lon="13.2529517"><ele>247.0</ele><time>2026-04-04T16:42:53.727Z</time></trkpt><trkpt lat="43.378665" lon="13.2527983"><ele>246.99999999999997</ele><time>2026-04-04T16:42:55.727Z</time></trkpt><trkpt lat="43.3786583" lon="13.2526833"><ele>247.0</ele><time>2026-04-04T16:42:57.731Z</time></trkpt><trkpt lat="43.3787333" lon="13.2526367"><ele>247.0</ele><time>2026-04-04T16:43:00.73Z</time></trkpt><trkpt lat="43.378805" lon="13.252635"><ele>247.0</ele><time>2026-04-04T16:43:03.722Z</time></trkpt></trkseg></trk></gpx>